<?xml version="1.0" encoding="UTF-8" standalone="no" ?>
<gpx xmlns="http://www.topografix.com/GPX/1/1" xmlns:xsi="http://www.w3.org/2001/XMLSchema-instance" xsi:schemaLocation="http://www.topografix.com/GPX/1/1 http://www.topografix.com/GPX/1/1/gpx.xsd" version="1.1" creator="VisuGPX - https://www.visugpx.com">
  <metadata>
    <name>Balade hivernale</name>
    <desc><![CDATA[Balade effectuée du 9 décembre 2022 au 7 janvier 2023.]]></desc>
  </metadata>
  <trk>
    <name><![CDATA[St-Vivien du Médoc - Le Porge]]></name>
    <extensions>
      <line xmlns="http://www.topografix.com/GPX/gpx_style/0/2">
        <color>ff0000</color>
        <width>4</width>
      </line>
    </extensions>
    <trkseg>
      <trkpt lat="45.43197" lon="-1.02737">
        <ele>44.782265</ele>
        <time>2022-12-23T08:11:59.076Z</time>
      </trkpt>
      <trkpt lat="45.43188" lon="-1.02741">
        <ele>44.782265</ele>
        <time>2022-12-23T08:12:31.725Z</time>
      </trkpt>
      <trkpt lat="45.4318" lon="-1.02757">
        <ele>44.782265</ele>
        <time>2022-12-23T08:12:58.729Z</time>
      </trkpt>
      <trkpt lat="45.43173" lon="-1.02769">
        <ele>44.782265</ele>
        <time>2022-12-23T08:13:05.724Z</time>
      </trkpt>
      <trkpt lat="45.43173" lon="-1.02784">
        <ele>44.782265</ele>
        <time>2022-12-23T08:13:10.737Z</time>
      </trkpt>
      <trkpt lat="45.43176" lon="-1.02798">
        <ele>44.782265</ele>
        <time>2022-12-23T08:13:14.728Z</time>
      </trkpt>
      <trkpt lat="45.43177" lon="-1.02811">
        <ele>44.782265</ele>
        <time>2022-12-23T08:13:18.732Z</time>
      </trkpt>
      <trkpt lat="45.43175" lon="-1.02823">
        <ele>44.782265</ele>
        <time>2022-12-23T08:13:22.743Z</time>
      </trkpt>
      <trkpt lat="45.4317" lon="-1.02834">
        <ele>44.782265</ele>
        <time>2022-12-23T08:13:26.743Z</time>
      </trkpt>
      <trkpt lat="45.43163" lon="-1.02843">
        <ele>44.813821</ele>
        <time>2022-12-23T08:13:30.743Z</time>
      </trkpt>
      <trkpt lat="45.43156" lon="-1.02854">
        <ele>45.034366</ele>
        <time>2022-12-23T08:13:36.730Z</time>
      </trkpt>
      <trkpt lat="45.4315" lon="-1.02868">
        <ele>45.265315</ele>
        <time>2022-12-23T08:13:41.727Z</time>
      </trkpt>
      <trkpt lat="45.43152" lon="-1.02883">
        <ele>45.485726</ele>
        <time>2022-12-23T08:13:46.723Z</time>
      </trkpt>
      <trkpt lat="45.43163" lon="-1.02887">
        <ele>45.721864</ele>
        <time>2022-12-23T08:13:52.721Z</time>
      </trkpt>
      <trkpt lat="45.43172" lon="-1.02891">
        <ele>45.925613</ele>
        <time>2022-12-23T08:13:55.725Z</time>
      </trkpt>
      <trkpt lat="45.4318" lon="-1.029">
        <ele>46.133012</ele>
        <time>2022-12-23T08:13:58.729Z</time>
      </trkpt>
      <trkpt lat="45.43185" lon="-1.02912">
        <ele>46.345527</ele>
        <time>2022-12-23T08:14:01.734Z</time>
      </trkpt>
      <trkpt lat="45.4319" lon="-1.02924">
        <ele>46.541213</ele>
        <time>2022-12-23T08:14:04.739Z</time>
      </trkpt>
      <trkpt lat="45.43194" lon="-1.02938">
        <ele>46.766536</ele>
        <time>2022-12-23T08:14:08.739Z</time>
      </trkpt>
      <trkpt lat="45.43197" lon="-1.02952">
        <ele>46.980555</ele>
        <time>2022-12-23T08:14:13.728Z</time>
      </trkpt>
      <trkpt lat="45.43205" lon="-1.02961">
        <ele>47.194934</ele>
        <time>2022-12-23T08:14:18.722Z</time>
      </trkpt>
      <trkpt lat="45.43215" lon="-1.02958">
        <ele>47.416923</ele>
        <time>2022-12-23T08:14:23.736Z</time>
      </trkpt>
      <trkpt lat="45.43224" lon="-1.0295">
        <ele>47.638352</ele>
        <time>2022-12-23T08:14:28.745Z</time>
      </trkpt>
      <trkpt lat="45.43232" lon="-1.02943">
        <ele>47.83077</ele>
        <time>2022-12-23T08:14:32.725Z</time>
      </trkpt>
      <trkpt lat="45.43223" lon="-1.0295">
        <ele>48.04316</ele>
        <time>2022-12-23T08:15:10.724Z</time>
      </trkpt>
      <trkpt lat="45.43215" lon="-1.02956">
        <ele>48.241484</ele>
        <time>2022-12-23T08:15:13.721Z</time>
      </trkpt>
      <trkpt lat="45.43207" lon="-1.02965">
        <ele>48.449829</ele>
        <time>2022-12-23T08:15:16.721Z</time>
      </trkpt>
      <trkpt lat="45.43201" lon="-1.02976">
        <ele>48.580402</ele>
        <time>2022-12-23T08:15:19.719Z</time>
      </trkpt>
      <trkpt lat="45.43195" lon="-1.0299">
        <ele>48.675917</ele>
        <time>2022-12-23T08:15:23.720Z</time>
      </trkpt>
      <trkpt lat="45.43191" lon="-1.03003">
        <ele>48.751004</ele>
        <time>2022-12-23T08:15:26.742Z</time>
      </trkpt>
      <trkpt lat="45.43188" lon="-1.03016">
        <ele>48.833004</ele>
        <time>2022-12-23T08:15:29.726Z</time>
      </trkpt>
      <trkpt lat="45.43184" lon="-1.03031">
        <ele>48.92056</ele>
        <time>2022-12-23T08:15:32.725Z</time>
      </trkpt>
      <trkpt lat="45.43181" lon="-1.03046">
        <ele>49.006647</ele>
        <time>2022-12-23T08:15:35.743Z</time>
      </trkpt>
      <trkpt lat="45.43178" lon="-1.03061">
        <ele>49.094734</ele>
        <time>2022-12-23T08:15:38.737Z</time>
      </trkpt>
      <trkpt lat="45.43175" lon="-1.03075">
        <ele>49.172642</ele>
        <time>2022-12-23T08:15:41.742Z</time>
      </trkpt>
      <trkpt lat="45.43171" lon="-1.03088">
        <ele>49.252163</ele>
        <time>2022-12-23T08:15:44.726Z</time>
      </trkpt>
      <trkpt lat="45.43166" lon="-1.03099">
        <ele>49.330028</ele>
        <time>2022-12-23T08:15:47.719Z</time>
      </trkpt>
      <trkpt lat="45.4316" lon="-1.03113">
        <ele>49.422067</ele>
        <time>2022-12-23T08:15:51.744Z</time>
      </trkpt>
      <trkpt lat="45.43154" lon="-1.03123">
        <ele>49.49511</ele>
        <time>2022-12-23T08:15:54.722Z</time>
      </trkpt>
      <trkpt lat="45.43145" lon="-1.03135">
        <ele>49.591276</ele>
        <time>2022-12-23T08:15:58.730Z</time>
      </trkpt>
      <trkpt lat="45.43138" lon="-1.03145">
        <ele>49.672686</ele>
        <time>2022-12-23T08:16:01.743Z</time>
      </trkpt>
      <trkpt lat="45.4313" lon="-1.03154">
        <ele>49.751377</ele>
        <time>2022-12-23T08:16:04.726Z</time>
      </trkpt>
      <trkpt lat="45.43122" lon="-1.03166">
        <ele>49.844525</ele>
        <time>2022-12-23T08:16:08.735Z</time>
      </trkpt>
      <trkpt lat="45.43115" lon="-1.03175">
        <ele>49.918438</ele>
        <time>2022-12-23T08:16:11.747Z</time>
      </trkpt>
      <trkpt lat="45.43108" lon="-1.03184">
        <ele>50.003171</ele>
        <time>2022-12-23T08:16:14.718Z</time>
      </trkpt>
      <trkpt lat="45.43101" lon="-1.03194">
        <ele>50.095993</ele>
        <time>2022-12-23T08:16:17.749Z</time>
      </trkpt>
      <trkpt lat="45.43094" lon="-1.03204">
        <ele>50.190036</ele>
        <time>2022-12-23T08:16:20.725Z</time>
      </trkpt>
      <trkpt lat="45.43087" lon="-1.03214">
        <ele>50.290847</ele>
        <time>2022-12-23T08:16:23.734Z</time>
      </trkpt>
      <trkpt lat="45.43079" lon="-1.03224">
        <ele>50.389794</ele>
        <time>2022-12-23T08:16:26.745Z</time>
      </trkpt>
      <trkpt lat="45.43071" lon="-1.03233">
        <ele>50.489279</ele>
        <time>2022-12-23T08:16:29.752Z</time>
      </trkpt>
      <trkpt lat="45.43064" lon="-1.03243">
        <ele>50.586632</ele>
        <time>2022-12-23T08:16:32.728Z</time>
      </trkpt>
      <trkpt lat="45.43057" lon="-1.03253">
        <ele>50.684781</ele>
        <time>2022-12-23T08:16:35.734Z</time>
      </trkpt>
      <trkpt lat="45.43049" lon="-1.03263">
        <ele>50.791717</ele>
        <time>2022-12-23T08:16:39.745Z</time>
      </trkpt>
      <trkpt lat="45.43042" lon="-1.03272">
        <ele>50.879371</ele>
        <time>2022-12-23T08:16:43.743Z</time>
      </trkpt>
      <trkpt lat="45.43034" lon="-1.03282">
        <ele>50.981511</ele>
        <time>2022-12-23T08:16:47.735Z</time>
      </trkpt>
      <trkpt lat="45.43028" lon="-1.03293">
        <ele>51.079459</ele>
        <time>2022-12-23T08:16:51.724Z</time>
      </trkpt>
      <trkpt lat="45.43029" lon="-1.03306">
        <ele>51.1686</ele>
        <time>2022-12-23T08:16:55.726Z</time>
      </trkpt>
      <trkpt lat="45.43034" lon="-1.03321">
        <ele>51.282742</ele>
        <time>2022-12-23T08:16:59.744Z</time>
      </trkpt>
      <trkpt lat="45.43036" lon="-1.03334">
        <ele>51.374527</ele>
        <time>2022-12-23T08:17:02.746Z</time>
      </trkpt>
      <trkpt lat="45.43039" lon="-1.03347">
        <ele>51.466769</ele>
        <time>2022-12-23T08:17:05.730Z</time>
      </trkpt>
      <trkpt lat="45.43042" lon="-1.0336">
        <ele>51.556307</ele>
        <time>2022-12-23T08:17:08.733Z</time>
      </trkpt>
      <trkpt lat="45.43045" lon="-1.03372">
        <ele>51.647747</ele>
        <time>2022-12-23T08:17:11.746Z</time>
      </trkpt>
      <trkpt lat="45.43048" lon="-1.03385">
        <ele>51.735504</ele>
        <time>2022-12-23T08:17:14.746Z</time>
      </trkpt>
      <trkpt lat="45.4305" lon="-1.03397">
        <ele>51.822064</ele>
        <time>2022-12-23T08:17:17.731Z</time>
      </trkpt>
      <trkpt lat="45.43052" lon="-1.03411">
        <ele>51.914325</ele>
        <time>2022-12-23T08:17:20.738Z</time>
      </trkpt>
      <trkpt lat="45.43054" lon="-1.03424">
        <ele>52.008766</ele>
        <time>2022-12-23T08:17:23.742Z</time>
      </trkpt>
      <trkpt lat="45.43057" lon="-1.0344">
        <ele>52.117186</ele>
        <time>2022-12-23T08:17:27.745Z</time>
      </trkpt>
      <trkpt lat="45.4306" lon="-1.03456">
        <ele>52.227288</ele>
        <time>2022-12-23T08:17:32.749Z</time>
      </trkpt>
      <trkpt lat="45.43061" lon="-1.0347">
        <ele>52.324524</ele>
        <time>2022-12-23T08:17:36.744Z</time>
      </trkpt>
      <trkpt lat="45.43063" lon="-1.03483">
        <ele>52.416727</ele>
        <time>2022-12-23T08:17:40.747Z</time>
      </trkpt>
      <trkpt lat="45.43065" lon="-1.03497">
        <ele>52.510114</ele>
        <time>2022-12-23T08:17:44.746Z</time>
      </trkpt>
      <trkpt lat="45.43062" lon="-1.03509">
        <ele>52.596861</ele>
        <time>2022-12-23T08:17:50.729Z</time>
      </trkpt>
      <trkpt lat="45.43052" lon="-1.03511">
        <ele>52.687118</ele>
        <time>2022-12-23T08:17:54.722Z</time>
      </trkpt>
      <trkpt lat="45.4304" lon="-1.03511">
        <ele>52.804243</ele>
        <time>2022-12-23T08:17:58.747Z</time>
      </trkpt>
      <trkpt lat="45.4303" lon="-1.0351">
        <ele>52.904103</ele>
        <time>2022-12-23T08:18:01.731Z</time>
      </trkpt>
      <trkpt lat="45.4302" lon="-1.0351">
        <ele>53.001989</ele>
        <time>2022-12-23T08:18:04.754Z</time>
      </trkpt>
      <trkpt lat="45.43009" lon="-1.0351">
        <ele>53.100853</ele>
        <time>2022-12-23T08:18:07.746Z</time>
      </trkpt>
      <trkpt lat="45.43" lon="-1.0351">
        <ele>53.193939</ele>
        <time>2022-12-23T08:18:10.747Z</time>
      </trkpt>
      <trkpt lat="45.4299" lon="-1.03511">
        <ele>53.285307</ele>
        <time>2022-12-23T08:18:13.735Z</time>
      </trkpt>
      <trkpt lat="45.42981" lon="-1.03511">
        <ele>53.374564</ele>
        <time>2022-12-23T08:18:16.728Z</time>
      </trkpt>
      <trkpt lat="45.42969" lon="-1.03511">
        <ele>53.496658</ele>
        <time>2022-12-23T08:18:20.741Z</time>
      </trkpt>
      <trkpt lat="45.42959" lon="-1.03511">
        <ele>53.610179</ele>
        <time>2022-12-23T08:18:23.749Z</time>
      </trkpt>
      <trkpt lat="45.42949" lon="-1.03512">
        <ele>53.72837</ele>
        <time>2022-12-23T08:18:26.749Z</time>
      </trkpt>
      <trkpt lat="45.42939" lon="-1.03512">
        <ele>53.85114</ele>
        <time>2022-12-23T08:18:29.728Z</time>
      </trkpt>
      <trkpt lat="45.42929" lon="-1.03513">
        <ele>53.962423</ele>
        <time>2022-12-23T08:18:32.742Z</time>
      </trkpt>
      <trkpt lat="45.4292" lon="-1.03512">
        <ele>54.071645</ele>
        <time>2022-12-23T08:18:35.744Z</time>
      </trkpt>
      <trkpt lat="45.4291" lon="-1.03509">
        <ele>54.186133</ele>
        <time>2022-12-23T08:18:38.728Z</time>
      </trkpt>
      <trkpt lat="45.42901" lon="-1.03504">
        <ele>54.300129</ele>
        <time>2022-12-23T08:18:41.743Z</time>
      </trkpt>
      <trkpt lat="45.42892" lon="-1.03498">
        <ele>54.419116</ele>
        <time>2022-12-23T08:18:44.730Z</time>
      </trkpt>
      <trkpt lat="45.42882" lon="-1.03494">
        <ele>54.541425</ele>
        <time>2022-12-23T08:18:47.737Z</time>
      </trkpt>
      <trkpt lat="45.42872" lon="-1.03491">
        <ele>54.664642</ele>
        <time>2022-12-23T08:18:50.744Z</time>
      </trkpt>
      <trkpt lat="45.42862" lon="-1.03487">
        <ele>54.785401</ele>
        <time>2022-12-23T08:18:53.745Z</time>
      </trkpt>
      <trkpt lat="45.42852" lon="-1.03484">
        <ele>54.904623</ele>
        <time>2022-12-23T08:18:56.740Z</time>
      </trkpt>
      <trkpt lat="45.42842" lon="-1.03479">
        <ele>55.02659</ele>
        <time>2022-12-23T08:18:59.746Z</time>
      </trkpt>
      <trkpt lat="45.42833" lon="-1.03474">
        <ele>55.142888</ele>
        <time>2022-12-23T08:19:02.744Z</time>
      </trkpt>
      <trkpt lat="45.42824" lon="-1.0347">
        <ele>55.251023</ele>
        <time>2022-12-23T08:19:05.735Z</time>
      </trkpt>
      <trkpt lat="45.42815" lon="-1.03466">
        <ele>55.361463</ele>
        <time>2022-12-23T08:19:08.746Z</time>
      </trkpt>
      <trkpt lat="45.42806" lon="-1.03462">
        <ele>55.470742</ele>
        <time>2022-12-23T08:19:11.749Z</time>
      </trkpt>
      <trkpt lat="45.42797" lon="-1.03458">
        <ele>55.588425</ele>
        <time>2022-12-23T08:19:14.746Z</time>
      </trkpt>
      <trkpt lat="45.42786" lon="-1.03452">
        <ele>55.782227</ele>
        <time>2022-12-23T08:19:18.741Z</time>
      </trkpt>
      <trkpt lat="45.42776" lon="-1.03446">
        <ele>55.978924</ele>
        <time>2022-12-23T08:19:22.748Z</time>
      </trkpt>
      <trkpt lat="45.42767" lon="-1.03441">
        <ele>56.131411</ele>
        <time>2022-12-23T08:19:25.747Z</time>
      </trkpt>
      <trkpt lat="45.42758" lon="-1.03436">
        <ele>56.292603</ele>
        <time>2022-12-23T08:19:28.731Z</time>
      </trkpt>
      <trkpt lat="45.42749" lon="-1.03432">
        <ele>56.453794</ele>
        <time>2022-12-23T08:19:31.748Z</time>
      </trkpt>
      <trkpt lat="45.42738" lon="-1.03425">
        <ele>56.650042</ele>
        <time>2022-12-23T08:19:35.728Z</time>
      </trkpt>
      <trkpt lat="45.4273" lon="-1.03421">
        <ele>56.802943</ele>
        <time>2022-12-23T08:19:38.730Z</time>
      </trkpt>
      <trkpt lat="45.42721" lon="-1.03416">
        <ele>56.9585</ele>
        <time>2022-12-23T08:19:41.750Z</time>
      </trkpt>
      <trkpt lat="45.42713" lon="-1.03411">
        <ele>57.112694</ele>
        <time>2022-12-23T08:19:44.742Z</time>
      </trkpt>
      <trkpt lat="45.42702" lon="-1.03404">
        <ele>57.311398</ele>
        <time>2022-12-23T08:19:48.754Z</time>
      </trkpt>
      <trkpt lat="45.42691" lon="-1.03398">
        <ele>57.51104</ele>
        <time>2022-12-23T08:19:52.735Z</time>
      </trkpt>
      <trkpt lat="45.42681" lon="-1.03392">
        <ele>57.690879</ele>
        <time>2022-12-23T08:19:56.731Z</time>
      </trkpt>
      <trkpt lat="45.42671" lon="-1.03386">
        <ele>57.872165</ele>
        <time>2022-12-23T08:20:00.730Z</time>
      </trkpt>
      <trkpt lat="45.42662" lon="-1.03378">
        <ele>58.05609</ele>
        <time>2022-12-23T08:20:04.730Z</time>
      </trkpt>
      <trkpt lat="45.42652" lon="-1.03369">
        <ele>58.249337</ele>
        <time>2022-12-23T08:20:08.728Z</time>
      </trkpt>
      <trkpt lat="45.42642" lon="-1.0336">
        <ele>58.451355</ele>
        <time>2022-12-23T08:20:12.741Z</time>
      </trkpt>
      <trkpt lat="45.42634" lon="-1.03353">
        <ele>58.582407</ele>
        <time>2022-12-23T08:20:15.749Z</time>
      </trkpt>
      <trkpt lat="45.42627" lon="-1.03346">
        <ele>58.622248</ele>
        <time>2022-12-23T08:20:18.751Z</time>
      </trkpt>
      <trkpt lat="45.42619" lon="-1.03339">
        <ele>58.662558</ele>
        <time>2022-12-23T08:20:21.750Z</time>
      </trkpt>
      <trkpt lat="45.42608" lon="-1.03333">
        <ele>58.712802</ele>
        <time>2022-12-23T08:20:24.729Z</time>
      </trkpt>
      <trkpt lat="45.42596" lon="-1.0333">
        <ele>58.764186</ele>
        <time>2022-12-23T08:20:27.728Z</time>
      </trkpt>
      <trkpt lat="45.42584" lon="-1.03328">
        <ele>58.815964</ele>
        <time>2022-12-23T08:20:30.738Z</time>
      </trkpt>
      <trkpt lat="45.42572" lon="-1.03325">
        <ele>58.868914</ele>
        <time>2022-12-23T08:20:33.750Z</time>
      </trkpt>
      <trkpt lat="45.42562" lon="-1.03324">
        <ele>58.914785</ele>
        <time>2022-12-23T08:20:36.749Z</time>
      </trkpt>
      <trkpt lat="45.42551" lon="-1.03322">
        <ele>58.960224</ele>
        <time>2022-12-23T08:20:39.725Z</time>
      </trkpt>
      <trkpt lat="45.4254" lon="-1.03321">
        <ele>59.008256</ele>
        <time>2022-12-23T08:20:42.745Z</time>
      </trkpt>
      <trkpt lat="45.42529" lon="-1.03318">
        <ele>59.057817</ele>
        <time>2022-12-23T08:20:45.751Z</time>
      </trkpt>
      <trkpt lat="45.42518" lon="-1.03315">
        <ele>59.105876</ele>
        <time>2022-12-23T08:20:48.749Z</time>
      </trkpt>
      <trkpt lat="45.42508" lon="-1.03314">
        <ele>59.152091</ele>
        <time>2022-12-23T08:20:51.752Z</time>
      </trkpt>
      <trkpt lat="45.42497" lon="-1.03311">
        <ele>59.197857</ele>
        <time>2022-12-23T08:20:54.745Z</time>
      </trkpt>
      <trkpt lat="45.42486" lon="-1.0331">
        <ele>59.245426</ele>
        <time>2022-12-23T08:20:57.750Z</time>
      </trkpt>
      <trkpt lat="45.42475" lon="-1.03308">
        <ele>59.295358</ele>
        <time>2022-12-23T08:21:00.747Z</time>
      </trkpt>
      <trkpt lat="45.42463" lon="-1.03306">
        <ele>59.346478</ele>
        <time>2022-12-23T08:21:03.749Z</time>
      </trkpt>
      <trkpt lat="45.42452" lon="-1.03303">
        <ele>59.094248</ele>
        <time>2022-12-23T08:21:06.749Z</time>
      </trkpt>
      <trkpt lat="45.42439" lon="-1.03302">
        <ele>58.76297</ele>
        <time>2022-12-23T08:21:09.752Z</time>
      </trkpt>
      <trkpt lat="45.42426" lon="-1.03301">
        <ele>58.395561</ele>
        <time>2022-12-23T08:21:12.749Z</time>
      </trkpt>
      <trkpt lat="45.42416" lon="-1.03301">
        <ele>58.133541</ele>
        <time>2022-12-23T08:21:14.723Z</time>
      </trkpt>
      <trkpt lat="45.42406" lon="-1.03301">
        <ele>57.871548</ele>
        <time>2022-12-23T08:21:16.749Z</time>
      </trkpt>
      <trkpt lat="45.42397" lon="-1.03302">
        <ele>57.612083</ele>
        <time>2022-12-23T08:21:18.749Z</time>
      </trkpt>
      <trkpt lat="45.42387" lon="-1.03303">
        <ele>57.354793</ele>
        <time>2022-12-23T08:21:20.737Z</time>
      </trkpt>
      <trkpt lat="45.42378" lon="-1.03304">
        <ele>57.097503</ele>
        <time>2022-12-23T08:21:22.743Z</time>
      </trkpt>
      <trkpt lat="45.42364" lon="-1.03304">
        <ele>56.724651</ele>
        <time>2022-12-23T08:21:25.727Z</time>
      </trkpt>
      <trkpt lat="45.42354" lon="-1.03305">
        <ele>56.467493</ele>
        <time>2022-12-23T08:21:27.750Z</time>
      </trkpt>
      <trkpt lat="45.42345" lon="-1.03306">
        <ele>56.200038</ele>
        <time>2022-12-23T08:21:29.749Z</time>
      </trkpt>
      <trkpt lat="45.42335" lon="-1.03306">
        <ele>55.935283</ele>
        <time>2022-12-23T08:21:31.749Z</time>
      </trkpt>
      <trkpt lat="45.42325" lon="-1.03307">
        <ele>55.68338</ele>
        <time>2022-12-23T08:21:33.751Z</time>
      </trkpt>
      <trkpt lat="45.42316" lon="-1.03307">
        <ele>55.432184</ele>
        <time>2022-12-23T08:21:35.742Z</time>
      </trkpt>
      <trkpt lat="45.42307" lon="-1.03308">
        <ele>55.1885</ele>
        <time>2022-12-23T08:21:37.749Z</time>
      </trkpt>
      <trkpt lat="45.42294" lon="-1.03308">
        <ele>54.82363</ele>
        <time>2022-12-23T08:21:40.748Z</time>
      </trkpt>
      <trkpt lat="45.42284" lon="-1.03309">
        <ele>54.575026</ele>
        <time>2022-12-23T08:21:42.751Z</time>
      </trkpt>
      <trkpt lat="45.42275" lon="-1.03309">
        <ele>54.376322</ele>
        <time>2022-12-23T08:21:44.749Z</time>
      </trkpt>
      <trkpt lat="45.42266" lon="-1.0331">
        <ele>54.197242</ele>
        <time>2022-12-23T08:21:46.750Z</time>
      </trkpt>
      <trkpt lat="45.42256" lon="-1.03309">
        <ele>54.021963</ele>
        <time>2022-12-23T08:21:48.732Z</time>
      </trkpt>
      <trkpt lat="45.42246" lon="-1.03308">
        <ele>53.833076</ele>
        <time>2022-12-23T08:21:50.748Z</time>
      </trkpt>
      <trkpt lat="45.42236" lon="-1.03307">
        <ele>53.641737</ele>
        <time>2022-12-23T08:21:52.726Z</time>
      </trkpt>
      <trkpt lat="45.42226" lon="-1.03307">
        <ele>53.455193</ele>
        <time>2022-12-23T08:21:54.749Z</time>
      </trkpt>
      <trkpt lat="45.42216" lon="-1.03307">
        <ele>53.255447</ele>
        <time>2022-12-23T08:21:56.747Z</time>
      </trkpt>
      <trkpt lat="45.42205" lon="-1.03306">
        <ele>53.057531</ele>
        <time>2022-12-23T08:21:58.746Z</time>
      </trkpt>
      <trkpt lat="45.42194" lon="-1.03305">
        <ele>52.848043</ele>
        <time>2022-12-23T08:22:00.744Z</time>
      </trkpt>
      <trkpt lat="45.42183" lon="-1.03305">
        <ele>52.640709</ele>
        <time>2022-12-23T08:22:02.734Z</time>
      </trkpt>
      <trkpt lat="45.42172" lon="-1.03305">
        <ele>52.429658</ele>
        <time>2022-12-23T08:22:04.747Z</time>
      </trkpt>
      <trkpt lat="45.42161" lon="-1.03306">
        <ele>52.220303</ele>
        <time>2022-12-23T08:22:06.744Z</time>
      </trkpt>
      <trkpt lat="45.4215" lon="-1.03306">
        <ele>52.018413</ele>
        <time>2022-12-23T08:22:08.743Z</time>
      </trkpt>
      <trkpt lat="45.4214" lon="-1.03308">
        <ele>51.817945</ele>
        <time>2022-12-23T08:22:10.748Z</time>
      </trkpt>
      <trkpt lat="45.42129" lon="-1.03309">
        <ele>51.623419</ele>
        <time>2022-12-23T08:22:12.744Z</time>
      </trkpt>
      <trkpt lat="45.4212" lon="-1.03311">
        <ele>51.445093</ele>
        <time>2022-12-23T08:22:14.749Z</time>
      </trkpt>
      <trkpt lat="45.42107" lon="-1.03315">
        <ele>51.190007</ele>
        <time>2022-12-23T08:22:17.727Z</time>
      </trkpt>
      <trkpt lat="45.42094" lon="-1.03319">
        <ele>51.192215</ele>
        <time>2022-12-23T08:22:20.749Z</time>
      </trkpt>
      <trkpt lat="45.42081" lon="-1.03322">
        <ele>51.315097</ele>
        <time>2022-12-23T08:22:23.749Z</time>
      </trkpt>
      <trkpt lat="45.42069" lon="-1.03327">
        <ele>51.436683</ele>
        <time>2022-12-23T08:22:26.748Z</time>
      </trkpt>
      <trkpt lat="45.42057" lon="-1.03331">
        <ele>51.555781</ele>
        <time>2022-12-23T08:22:29.748Z</time>
      </trkpt>
      <trkpt lat="45.42045" lon="-1.03335">
        <ele>51.672848</ele>
        <time>2022-12-23T08:22:32.745Z</time>
      </trkpt>
      <trkpt lat="45.42034" lon="-1.03339">
        <ele>51.789318</ele>
        <time>2022-12-23T08:22:35.751Z</time>
      </trkpt>
      <trkpt lat="45.42022" lon="-1.03343">
        <ele>51.907081</ele>
        <time>2022-12-23T08:22:38.743Z</time>
      </trkpt>
      <trkpt lat="45.4201" lon="-1.03346">
        <ele>52.025115</ele>
        <time>2022-12-23T08:22:41.733Z</time>
      </trkpt>
      <trkpt lat="45.41998" lon="-1.03351">
        <ele>52.137691</ele>
        <time>2022-12-23T08:22:44.748Z</time>
      </trkpt>
      <trkpt lat="45.41988" lon="-1.03353">
        <ele>52.239322</ele>
        <time>2022-12-23T08:22:47.745Z</time>
      </trkpt>
      <trkpt lat="45.41979" lon="-1.03356">
        <ele>52.328398</ele>
        <time>2022-12-23T08:22:50.744Z</time>
      </trkpt>
      <trkpt lat="45.4197" lon="-1.03359">
        <ele>52.41523</ele>
        <time>2022-12-23T08:22:53.733Z</time>
      </trkpt>
      <trkpt lat="45.41958" lon="-1.03362">
        <ele>52.531432</ele>
        <time>2022-12-23T08:22:57.750Z</time>
      </trkpt>
      <trkpt lat="45.41949" lon="-1.03365">
        <ele>52.622124</ele>
        <time>2022-12-23T08:23:00.724Z</time>
      </trkpt>
      <trkpt lat="45.41939" lon="-1.03368">
        <ele>52.720773</ele>
        <time>2022-12-23T08:23:03.748Z</time>
      </trkpt>
      <trkpt lat="45.41929" lon="-1.03371">
        <ele>52.823327</ele>
        <time>2022-12-23T08:23:06.750Z</time>
      </trkpt>
      <trkpt lat="45.41918" lon="-1.03375">
        <ele>52.827753</ele>
        <time>2022-12-23T08:23:09.751Z</time>
      </trkpt>
      <trkpt lat="45.4191" lon="-1.03379">
        <ele>52.814951</ele>
        <time>2022-12-23T08:23:12.734Z</time>
      </trkpt>
      <trkpt lat="45.41901" lon="-1.03382">
        <ele>52.802254</ele>
        <time>2022-12-23T08:23:15.744Z</time>
      </trkpt>
      <trkpt lat="45.41891" lon="-1.03386">
        <ele>52.789038</ele>
        <time>2022-12-23T08:23:18.743Z</time>
      </trkpt>
      <trkpt lat="45.41882" lon="-1.0339">
        <ele>52.775583</ele>
        <time>2022-12-23T08:23:21.748Z</time>
      </trkpt>
      <trkpt lat="45.41872" lon="-1.03394">
        <ele>52.762076</ele>
        <time>2022-12-23T08:23:24.733Z</time>
      </trkpt>
      <trkpt lat="45.41862" lon="-1.03399">
        <ele>52.747648</ele>
        <time>2022-12-23T08:23:27.749Z</time>
      </trkpt>
      <trkpt lat="45.41852" lon="-1.03403">
        <ele>52.732975</ele>
        <time>2022-12-23T08:23:30.748Z</time>
      </trkpt>
      <trkpt lat="45.41841" lon="-1.03409">
        <ele>52.717011</ele>
        <time>2022-12-23T08:23:33.752Z</time>
      </trkpt>
      <trkpt lat="45.4183" lon="-1.03414">
        <ele>52.700437</ele>
        <time>2022-12-23T08:23:36.749Z</time>
      </trkpt>
      <trkpt lat="45.41817" lon="-1.0342">
        <ele>52.683024</ele>
        <time>2022-12-23T08:23:39.749Z</time>
      </trkpt>
      <trkpt lat="45.41806" lon="-1.03424">
        <ele>52.666121</ele>
        <time>2022-12-23T08:23:42.750Z</time>
      </trkpt>
      <trkpt lat="45.41794" lon="-1.03429">
        <ele>52.649954</ele>
        <time>2022-12-23T08:23:45.750Z</time>
      </trkpt>
      <trkpt lat="45.41783" lon="-1.03435">
        <ele>52.634158</ele>
        <time>2022-12-23T08:23:48.754Z</time>
      </trkpt>
      <trkpt lat="45.41772" lon="-1.0344">
        <ele>52.618202</ele>
        <time>2022-12-23T08:23:51.750Z</time>
      </trkpt>
      <trkpt lat="45.41762" lon="-1.03444">
        <ele>52.602853</ele>
        <time>2022-12-23T08:23:54.738Z</time>
      </trkpt>
      <trkpt lat="45.41751" lon="-1.03449">
        <ele>52.552893</ele>
        <time>2022-12-23T08:23:57.750Z</time>
      </trkpt>
      <trkpt lat="45.41739" lon="-1.03454">
        <ele>52.444737</ele>
        <time>2022-12-23T08:24:00.722Z</time>
      </trkpt>
      <trkpt lat="45.41726" lon="-1.03459">
        <ele>52.330358</ele>
        <time>2022-12-23T08:24:03.743Z</time>
      </trkpt>
      <trkpt lat="45.41717" lon="-1.03462">
        <ele>52.252879</ele>
        <time>2022-12-23T08:24:05.745Z</time>
      </trkpt>
      <trkpt lat="45.41704" lon="-1.03465">
        <ele>52.135295</ele>
        <time>2022-12-23T08:24:08.737Z</time>
      </trkpt>
      <trkpt lat="45.41695" lon="-1.03467">
        <ele>52.057695</ele>
        <time>2022-12-23T08:24:10.751Z</time>
      </trkpt>
      <trkpt lat="45.41686" lon="-1.03469">
        <ele>51.97877</ele>
        <time>2022-12-23T08:24:12.743Z</time>
      </trkpt>
      <trkpt lat="45.41677" lon="-1.03469">
        <ele>51.901162</ele>
        <time>2022-12-23T08:24:14.737Z</time>
      </trkpt>
      <trkpt lat="45.41664" lon="-1.03471">
        <ele>51.795197</ele>
        <time>2022-12-23T08:24:17.753Z</time>
      </trkpt>
      <trkpt lat="45.41653" lon="-1.03471">
        <ele>51.696829</ele>
        <time>2022-12-23T08:24:20.736Z</time>
      </trkpt>
      <trkpt lat="45.41642" lon="-1.03473">
        <ele>51.598968</ele>
        <time>2022-12-23T08:24:23.750Z</time>
      </trkpt>
      <trkpt lat="45.41629" lon="-1.03474">
        <ele>51.489322</ele>
        <time>2022-12-23T08:24:26.748Z</time>
      </trkpt>
      <trkpt lat="45.41616" lon="-1.03475">
        <ele>51.376989</ele>
        <time>2022-12-23T08:24:29.748Z</time>
      </trkpt>
      <trkpt lat="45.41604" lon="-1.03477">
        <ele>51.273593</ele>
        <time>2022-12-23T08:24:32.734Z</time>
      </trkpt>
      <trkpt lat="45.41594" lon="-1.03479">
        <ele>51.182931</ele>
        <time>2022-12-23T08:24:35.728Z</time>
      </trkpt>
      <trkpt lat="45.41584" lon="-1.03482">
        <ele>51.101935</ele>
        <time>2022-12-23T08:24:39.751Z</time>
      </trkpt>
      <trkpt lat="45.41575" lon="-1.03485">
        <ele>51.017404</ele>
        <time>2022-12-23T08:24:44.748Z</time>
      </trkpt>
      <trkpt lat="45.41567" lon="-1.03491">
        <ele>50.920959</ele>
        <time>2022-12-23T08:24:48.745Z</time>
      </trkpt>
      <trkpt lat="45.4156" lon="-1.03502">
        <ele>50.819475</ele>
        <time>2022-12-23T08:24:52.745Z</time>
      </trkpt>
      <trkpt lat="45.41553" lon="-1.03514">
        <ele>50.714674</ele>
        <time>2022-12-23T08:24:57.748Z</time>
      </trkpt>
      <trkpt lat="45.41546" lon="-1.03524">
        <ele>50.618213</ele>
        <time>2022-12-23T08:25:01.743Z</time>
      </trkpt>
      <trkpt lat="45.41539" lon="-1.03534">
        <ele>50.520094</ele>
        <time>2022-12-23T08:25:04.738Z</time>
      </trkpt>
      <trkpt lat="45.41529" lon="-1.03542">
        <ele>50.409182</ele>
        <time>2022-12-23T08:25:07.724Z</time>
      </trkpt>
      <trkpt lat="45.41519" lon="-1.0355">
        <ele>50.291235</ele>
        <time>2022-12-23T08:25:10.748Z</time>
      </trkpt>
      <trkpt lat="45.41508" lon="-1.03558">
        <ele>50.173621</ele>
        <time>2022-12-23T08:25:13.746Z</time>
      </trkpt>
      <trkpt lat="45.41498" lon="-1.03563">
        <ele>50.065212</ele>
        <time>2022-12-23T08:25:16.732Z</time>
      </trkpt>
      <trkpt lat="45.41487" lon="-1.03567">
        <ele>49.954342</ele>
        <time>2022-12-23T08:25:19.730Z</time>
      </trkpt>
      <trkpt lat="45.41474" lon="-1.03566">
        <ele>49.82811</ele>
        <time>2022-12-23T08:25:22.722Z</time>
      </trkpt>
      <trkpt lat="45.41461" lon="-1.03561">
        <ele>49.700489</ele>
        <time>2022-12-23T08:25:25.724Z</time>
      </trkpt>
      <trkpt lat="45.41449" lon="-1.03555">
        <ele>49.574292</ele>
        <time>2022-12-23T08:25:28.726Z</time>
      </trkpt>
      <trkpt lat="45.41438" lon="-1.03549">
        <ele>49.45385</ele>
        <time>2022-12-23T08:25:31.733Z</time>
      </trkpt>
      <trkpt lat="45.41427" lon="-1.03542">
        <ele>49.333022</ele>
        <time>2022-12-23T08:25:34.741Z</time>
      </trkpt>
      <trkpt lat="45.41415" lon="-1.03537">
        <ele>49.355539</ele>
        <time>2022-12-23T08:25:37.723Z</time>
      </trkpt>
      <trkpt lat="45.41403" lon="-1.03534">
        <ele>49.528747</ele>
        <time>2022-12-23T08:25:40.739Z</time>
      </trkpt>
      <trkpt lat="45.41392" lon="-1.03535">
        <ele>49.69159</ele>
        <time>2022-12-23T08:25:43.727Z</time>
      </trkpt>
      <trkpt lat="45.4138" lon="-1.03537">
        <ele>49.853225</ele>
        <time>2022-12-23T08:25:46.735Z</time>
      </trkpt>
      <trkpt lat="45.41369" lon="-1.0354">
        <ele>50.012255</ele>
        <time>2022-12-23T08:25:49.737Z</time>
      </trkpt>
      <trkpt lat="45.41358" lon="-1.03543">
        <ele>50.172479</ele>
        <time>2022-12-23T08:25:52.742Z</time>
      </trkpt>
      <trkpt lat="45.41347" lon="-1.03546">
        <ele>50.332312</ele>
        <time>2022-12-23T08:25:55.748Z</time>
      </trkpt>
      <trkpt lat="45.41337" lon="-1.03549">
        <ele>50.489155</ele>
        <time>2022-12-23T08:25:58.747Z</time>
      </trkpt>
      <trkpt lat="45.41325" lon="-1.03551">
        <ele>50.651265</ele>
        <time>2022-12-23T08:26:01.748Z</time>
      </trkpt>
      <trkpt lat="45.41315" lon="-1.03554">
        <ele>50.807415</ele>
        <time>2022-12-23T08:26:04.755Z</time>
      </trkpt>
      <trkpt lat="45.41304" lon="-1.03556">
        <ele>50.954493</ele>
        <time>2022-12-23T08:26:07.750Z</time>
      </trkpt>
      <trkpt lat="45.41294" lon="-1.03558">
        <ele>51.106101</ele>
        <time>2022-12-23T08:26:10.741Z</time>
      </trkpt>
      <trkpt lat="45.41283" lon="-1.03558">
        <ele>51.264511</ele>
        <time>2022-12-23T08:26:13.747Z</time>
      </trkpt>
      <trkpt lat="45.41271" lon="-1.03557">
        <ele>51.427452</ele>
        <time>2022-12-23T08:26:16.728Z</time>
      </trkpt>
      <trkpt lat="45.4126" lon="-1.03557">
        <ele>51.587292</ele>
        <time>2022-12-23T08:26:19.743Z</time>
      </trkpt>
      <trkpt lat="45.41249" lon="-1.03557">
        <ele>51.74145</ele>
        <time>2022-12-23T08:26:22.751Z</time>
      </trkpt>
      <trkpt lat="45.41238" lon="-1.03556">
        <ele>51.922635</ele>
        <time>2022-12-23T08:26:25.735Z</time>
      </trkpt>
      <trkpt lat="45.41227" lon="-1.03556">
        <ele>52.126475</ele>
        <time>2022-12-23T08:26:28.745Z</time>
      </trkpt>
      <trkpt lat="45.41216" lon="-1.03556">
        <ele>52.341737</ele>
        <time>2022-12-23T08:26:31.749Z</time>
      </trkpt>
      <trkpt lat="45.41206" lon="-1.03555">
        <ele>52.534122</ele>
        <time>2022-12-23T08:26:34.750Z</time>
      </trkpt>
      <trkpt lat="45.41196" lon="-1.03555">
        <ele>52.732467</ele>
        <time>2022-12-23T08:26:37.744Z</time>
      </trkpt>
      <trkpt lat="45.41186" lon="-1.03554">
        <ele>52.909823</ele>
        <time>2022-12-23T08:26:40.747Z</time>
      </trkpt>
      <trkpt lat="45.41177" lon="-1.03553">
        <ele>53.082097</ele>
        <time>2022-12-23T08:26:43.749Z</time>
      </trkpt>
      <trkpt lat="45.41166" lon="-1.03552">
        <ele>53.306819</ele>
        <time>2022-12-23T08:26:47.723Z</time>
      </trkpt>
      <trkpt lat="45.41156" lon="-1.03552">
        <ele>53.48615</ele>
        <time>2022-12-23T08:26:50.728Z</time>
      </trkpt>
      <trkpt lat="45.41147" lon="-1.03551">
        <ele>53.667309</ele>
        <time>2022-12-23T08:26:53.743Z</time>
      </trkpt>
      <trkpt lat="45.41137" lon="-1.0355">
        <ele>53.854418</ele>
        <time>2022-12-23T08:26:56.749Z</time>
      </trkpt>
      <trkpt lat="45.41127" lon="-1.03549">
        <ele>54.035576</ele>
        <time>2022-12-23T08:26:59.740Z</time>
      </trkpt>
      <trkpt lat="45.41118" lon="-1.03549">
        <ele>54.208881</ele>
        <time>2022-12-23T08:27:02.736Z</time>
      </trkpt>
      <trkpt lat="45.41109" lon="-1.0355">
        <ele>54.380323</ele>
        <time>2022-12-23T08:27:05.730Z</time>
      </trkpt>
      <trkpt lat="45.411" lon="-1.0355">
        <ele>54.553628</ele>
        <time>2022-12-23T08:27:08.741Z</time>
      </trkpt>
      <trkpt lat="45.4109" lon="-1.03551">
        <ele>54.742465</ele>
        <time>2022-12-23T08:27:11.735Z</time>
      </trkpt>
      <trkpt lat="45.4108" lon="-1.03551">
        <ele>54.940684</ele>
        <time>2022-12-23T08:27:14.748Z</time>
      </trkpt>
      <trkpt lat="45.4107" lon="-1.03552">
        <ele>55.135005</ele>
        <time>2022-12-23T08:27:17.748Z</time>
      </trkpt>
      <trkpt lat="45.41059" lon="-1.03552">
        <ele>55.247321</ele>
        <time>2022-12-23T08:27:20.751Z</time>
      </trkpt>
      <trkpt lat="45.41049" lon="-1.03553">
        <ele>55.199756</ele>
        <time>2022-12-23T08:27:23.750Z</time>
      </trkpt>
      <trkpt lat="45.41038" lon="-1.03553">
        <ele>55.153602</ele>
        <time>2022-12-23T08:27:26.743Z</time>
      </trkpt>
      <trkpt lat="45.41028" lon="-1.03554">
        <ele>55.106991</ele>
        <time>2022-12-23T08:27:29.736Z</time>
      </trkpt>
      <trkpt lat="45.41017" lon="-1.03554">
        <ele>55.059927</ele>
        <time>2022-12-23T08:27:32.726Z</time>
      </trkpt>
      <trkpt lat="45.41006" lon="-1.03555">
        <ele>55.010646</ele>
        <time>2022-12-23T08:27:35.728Z</time>
      </trkpt>
      <trkpt lat="45.40995" lon="-1.03556">
        <ele>54.960866</ele>
        <time>2022-12-23T08:27:38.741Z</time>
      </trkpt>
      <trkpt lat="45.40984" lon="-1.03557">
        <ele>54.911048</ele>
        <time>2022-12-23T08:27:41.750Z</time>
      </trkpt>
      <trkpt lat="45.40972" lon="-1.03557">
        <ele>54.860001</ele>
        <time>2022-12-23T08:27:44.739Z</time>
      </trkpt>
      <trkpt lat="45.40961" lon="-1.03558">
        <ele>54.809398</ele>
        <time>2022-12-23T08:27:47.749Z</time>
      </trkpt>
      <trkpt lat="45.40949" lon="-1.03559">
        <ele>54.758694</ele>
        <time>2022-12-23T08:27:50.726Z</time>
      </trkpt>
      <trkpt lat="45.40938" lon="-1.03559">
        <ele>54.708958</ele>
        <time>2022-12-23T08:27:53.744Z</time>
      </trkpt>
      <trkpt lat="45.40927" lon="-1.03559">
        <ele>54.659685</ele>
        <time>2022-12-23T08:27:56.736Z</time>
      </trkpt>
      <trkpt lat="45.40915" lon="-1.03558">
        <ele>54.607299</ele>
        <time>2022-12-23T08:27:59.746Z</time>
      </trkpt>
      <trkpt lat="45.40904" lon="-1.03558">
        <ele>54.556207</ele>
        <time>2022-12-23T08:28:02.748Z</time>
      </trkpt>
      <trkpt lat="45.40893" lon="-1.03556">
        <ele>54.507878</ele>
        <time>2022-12-23T08:28:05.734Z</time>
      </trkpt>
      <trkpt lat="45.40882" lon="-1.03554">
        <ele>54.459321</ele>
        <time>2022-12-23T08:28:08.745Z</time>
      </trkpt>
      <trkpt lat="45.40869" lon="-1.03552">
        <ele>54.415956</ele>
        <time>2022-12-23T08:28:11.746Z</time>
      </trkpt>
      <trkpt lat="45.40857" lon="-1.0355">
        <ele>54.372343</ele>
        <time>2022-12-23T08:28:14.748Z</time>
      </trkpt>
      <trkpt lat="45.40844" lon="-1.03548">
        <ele>54.327151</ele>
        <time>2022-12-23T08:28:17.749Z</time>
      </trkpt>
      <trkpt lat="45.40832" lon="-1.03545">
        <ele>54.283316</ele>
        <time>2022-12-23T08:28:20.739Z</time>
      </trkpt>
      <trkpt lat="45.40821" lon="-1.03544">
        <ele>54.244184</ele>
        <time>2022-12-23T08:28:23.745Z</time>
      </trkpt>
      <trkpt lat="45.4081" lon="-1.03542">
        <ele>54.206497</ele>
        <time>2022-12-23T08:28:26.740Z</time>
      </trkpt>
      <trkpt lat="45.40798" lon="-1.0354">
        <ele>54.164204</ele>
        <time>2022-12-23T08:28:29.738Z</time>
      </trkpt>
      <trkpt lat="45.40785" lon="-1.03538">
        <ele>54.119847</ele>
        <time>2022-12-23T08:28:32.748Z</time>
      </trkpt>
      <trkpt lat="45.40773" lon="-1.03536">
        <ele>54.074714</ele>
        <time>2022-12-23T08:28:35.734Z</time>
      </trkpt>
      <trkpt lat="45.4076" lon="-1.03534">
        <ele>54.030653</ele>
        <time>2022-12-23T08:28:38.742Z</time>
      </trkpt>
      <trkpt lat="45.40749" lon="-1.03533">
        <ele>53.989853</ele>
        <time>2022-12-23T08:28:41.750Z</time>
      </trkpt>
      <trkpt lat="45.40737" lon="-1.03532">
        <ele>53.950544</ele>
        <time>2022-12-23T08:28:44.748Z</time>
      </trkpt>
      <trkpt lat="45.40726" lon="-1.03532">
        <ele>53.911661</ele>
        <time>2022-12-23T08:28:47.739Z</time>
      </trkpt>
      <trkpt lat="45.40715" lon="-1.03533">
        <ele>53.870512</ele>
        <time>2022-12-23T08:28:50.746Z</time>
      </trkpt>
      <trkpt lat="45.40702" lon="-1.03536">
        <ele>53.837807</ele>
        <time>2022-12-23T08:28:53.729Z</time>
      </trkpt>
      <trkpt lat="45.4069" lon="-1.03538">
        <ele>53.851255</ele>
        <time>2022-12-23T08:28:56.738Z</time>
      </trkpt>
      <trkpt lat="45.40677" lon="-1.03541">
        <ele>53.864986</ele>
        <time>2022-12-23T08:28:59.735Z</time>
      </trkpt>
      <trkpt lat="45.40665" lon="-1.03544">
        <ele>53.878838</ele>
        <time>2022-12-23T08:29:02.727Z</time>
      </trkpt>
      <trkpt lat="45.40653" lon="-1.03548">
        <ele>53.892223</ele>
        <time>2022-12-23T08:29:05.739Z</time>
      </trkpt>
      <trkpt lat="45.40642" lon="-1.0355">
        <ele>53.904383</ele>
        <time>2022-12-23T08:29:08.749Z</time>
      </trkpt>
      <trkpt lat="45.40631" lon="-1.03552">
        <ele>53.916067</ele>
        <time>2022-12-23T08:29:11.747Z</time>
      </trkpt>
      <trkpt lat="45.4062" lon="-1.03554">
        <ele>53.929027</ele>
        <time>2022-12-23T08:29:14.745Z</time>
      </trkpt>
      <trkpt lat="45.40607" lon="-1.03555">
        <ele>53.942293</ele>
        <time>2022-12-23T08:29:17.732Z</time>
      </trkpt>
      <trkpt lat="45.40595" lon="-1.03554">
        <ele>53.956294</ele>
        <time>2022-12-23T08:29:20.726Z</time>
      </trkpt>
      <trkpt lat="45.40583" lon="-1.03552">
        <ele>53.969633</ele>
        <time>2022-12-23T08:29:23.743Z</time>
      </trkpt>
      <trkpt lat="45.40571" lon="-1.03549">
        <ele>53.982222</ele>
        <time>2022-12-23T08:29:26.735Z</time>
      </trkpt>
      <trkpt lat="45.4056" lon="-1.03545">
        <ele>53.994645</ele>
        <time>2022-12-23T08:29:29.749Z</time>
      </trkpt>
      <trkpt lat="45.40549" lon="-1.03543">
        <ele>54.006698</ele>
        <time>2022-12-23T08:29:32.746Z</time>
      </trkpt>
      <trkpt lat="45.40539" lon="-1.0354">
        <ele>54.018263</ele>
        <time>2022-12-23T08:29:35.740Z</time>
      </trkpt>
      <trkpt lat="45.40529" lon="-1.03539">
        <ele>54.029469</ele>
        <time>2022-12-23T08:29:38.730Z</time>
      </trkpt>
      <trkpt lat="45.40517" lon="-1.03539">
        <ele>54.010895</ele>
        <time>2022-12-23T08:29:41.750Z</time>
      </trkpt>
      <trkpt lat="45.40504" lon="-1.03541">
        <ele>53.983586</ele>
        <time>2022-12-23T08:29:44.741Z</time>
      </trkpt>
      <trkpt lat="45.40492" lon="-1.03544">
        <ele>53.956064</ele>
        <time>2022-12-23T08:29:47.751Z</time>
      </trkpt>
      <trkpt lat="45.40479" lon="-1.03547">
        <ele>53.928425</ele>
        <time>2022-12-23T08:29:50.740Z</time>
      </trkpt>
      <trkpt lat="45.40466" lon="-1.03549">
        <ele>53.901132</ele>
        <time>2022-12-23T08:29:53.749Z</time>
      </trkpt>
      <trkpt lat="45.40453" lon="-1.0355">
        <ele>53.872898</ele>
        <time>2022-12-23T08:29:56.748Z</time>
      </trkpt>
      <trkpt lat="45.4044" lon="-1.03551">
        <ele>53.844441</ele>
        <time>2022-12-23T08:29:59.752Z</time>
      </trkpt>
      <trkpt lat="45.40426" lon="-1.03552">
        <ele>53.815985</ele>
        <time>2022-12-23T08:30:02.739Z</time>
      </trkpt>
      <trkpt lat="45.40413" lon="-1.03553">
        <ele>53.787775</ele>
        <time>2022-12-23T08:30:05.746Z</time>
      </trkpt>
      <trkpt lat="45.404" lon="-1.03552">
        <ele>53.759143</ele>
        <time>2022-12-23T08:30:08.746Z</time>
      </trkpt>
      <trkpt lat="45.40387" lon="-1.03554">
        <ele>53.732322</ele>
        <time>2022-12-23T08:30:11.735Z</time>
      </trkpt>
      <trkpt lat="45.40376" lon="-1.03555">
        <ele>53.708945</ele>
        <time>2022-12-23T08:30:14.744Z</time>
      </trkpt>
      <trkpt lat="45.40367" lon="-1.03557">
        <ele>53.68807</ele>
        <time>2022-12-23T08:30:17.749Z</time>
      </trkpt>
      <trkpt lat="45.40356" lon="-1.03558">
        <ele>53.66561</ele>
        <time>2022-12-23T08:30:20.731Z</time>
      </trkpt>
      <trkpt lat="45.40345" lon="-1.03559">
        <ele>53.619456</ele>
        <time>2022-12-23T08:30:23.742Z</time>
      </trkpt>
      <trkpt lat="45.40333" lon="-1.03559">
        <ele>53.49361</ele>
        <time>2022-12-23T08:30:26.747Z</time>
      </trkpt>
      <trkpt lat="45.40321" lon="-1.03561">
        <ele>53.362062</ele>
        <time>2022-12-23T08:30:29.738Z</time>
      </trkpt>
      <trkpt lat="45.40309" lon="-1.03562">
        <ele>53.225222</ele>
        <time>2022-12-23T08:30:32.745Z</time>
      </trkpt>
      <trkpt lat="45.40296" lon="-1.03563">
        <ele>53.085269</ele>
        <time>2022-12-23T08:30:35.737Z</time>
      </trkpt>
      <trkpt lat="45.40283" lon="-1.03564">
        <ele>52.946315</ele>
        <time>2022-12-23T08:30:38.739Z</time>
      </trkpt>
      <trkpt lat="45.4027" lon="-1.03565">
        <ele>52.803034</ele>
        <time>2022-12-23T08:30:41.748Z</time>
      </trkpt>
      <trkpt lat="45.40257" lon="-1.03565">
        <ele>52.661079</ele>
        <time>2022-12-23T08:30:44.728Z</time>
      </trkpt>
      <trkpt lat="45.40247" lon="-1.03565">
        <ele>52.560278</ele>
        <time>2022-12-23T08:30:46.722Z</time>
      </trkpt>
      <trkpt lat="45.40235" lon="-1.03567">
        <ele>52.425214</ele>
        <time>2022-12-23T08:30:49.725Z</time>
      </trkpt>
      <trkpt lat="45.40223" lon="-1.03568">
        <ele>52.291505</ele>
        <time>2022-12-23T08:30:52.726Z</time>
      </trkpt>
      <trkpt lat="45.40211" lon="-1.0357">
        <ele>52.164447</ele>
        <time>2022-12-23T08:30:55.724Z</time>
      </trkpt>
      <trkpt lat="45.40199" lon="-1.03569">
        <ele>52.036579</ele>
        <time>2022-12-23T08:30:58.750Z</time>
      </trkpt>
      <trkpt lat="45.40187" lon="-1.0357">
        <ele>51.898927</ele>
        <time>2022-12-23T08:31:01.745Z</time>
      </trkpt>
      <trkpt lat="45.40173" lon="-1.0357">
        <ele>51.753692</ele>
        <time>2022-12-23T08:31:04.747Z</time>
      </trkpt>
      <trkpt lat="45.40164" lon="-1.03571">
        <ele>51.699907</ele>
        <time>2022-12-23T08:31:06.746Z</time>
      </trkpt>
      <trkpt lat="45.40155" lon="-1.03571">
        <ele>51.703459</ele>
        <time>2022-12-23T08:31:08.745Z</time>
      </trkpt>
      <trkpt lat="45.40146" lon="-1.03572">
        <ele>51.707053</ele>
        <time>2022-12-23T08:31:10.726Z</time>
      </trkpt>
      <trkpt lat="45.40136" lon="-1.03573">
        <ele>51.710691</ele>
        <time>2022-12-23T08:31:12.748Z</time>
      </trkpt>
      <trkpt lat="45.40127" lon="-1.03574">
        <ele>51.714325</ele>
        <time>2022-12-23T08:31:14.751Z</time>
      </trkpt>
      <trkpt lat="45.40117" lon="-1.03574">
        <ele>51.718227</ele>
        <time>2022-12-23T08:31:16.724Z</time>
      </trkpt>
      <trkpt lat="45.40107" lon="-1.03575">
        <ele>51.721978</ele>
        <time>2022-12-23T08:31:18.750Z</time>
      </trkpt>
      <trkpt lat="45.40097" lon="-1.03576">
        <ele>51.725653</ele>
        <time>2022-12-23T08:31:20.737Z</time>
      </trkpt>
      <trkpt lat="45.40088" lon="-1.03577">
        <ele>51.72917</ele>
        <time>2022-12-23T08:31:22.749Z</time>
      </trkpt>
      <trkpt lat="45.40079" lon="-1.03578">
        <ele>51.732741</ele>
        <time>2022-12-23T08:31:24.747Z</time>
      </trkpt>
      <trkpt lat="45.40067" lon="-1.0358">
        <ele>51.737517</ele>
        <time>2022-12-23T08:31:27.744Z</time>
      </trkpt>
      <trkpt lat="45.40056" lon="-1.03581">
        <ele>51.741853</ele>
        <time>2022-12-23T08:31:30.752Z</time>
      </trkpt>
      <trkpt lat="45.40044" lon="-1.03583">
        <ele>51.746523</ele>
        <time>2022-12-23T08:31:33.741Z</time>
      </trkpt>
      <trkpt lat="45.40031" lon="-1.03587">
        <ele>51.751441</ele>
        <time>2022-12-23T08:31:36.749Z</time>
      </trkpt>
      <trkpt lat="45.40019" lon="-1.0359">
        <ele>51.756387</ele>
        <time>2022-12-23T08:31:39.751Z</time>
      </trkpt>
      <trkpt lat="45.40006" lon="-1.03594">
        <ele>51.761353</ele>
        <time>2022-12-23T08:31:42.746Z</time>
      </trkpt>
      <trkpt lat="45.39994" lon="-1.03599">
        <ele>51.76629</ele>
        <time>2022-12-23T08:31:45.748Z</time>
      </trkpt>
      <trkpt lat="45.39981" lon="-1.03603">
        <ele>51.851768</ele>
        <time>2022-12-23T08:31:48.748Z</time>
      </trkpt>
      <trkpt lat="45.39969" lon="-1.03607">
        <ele>51.971821</ele>
        <time>2022-12-23T08:31:51.751Z</time>
      </trkpt>
      <trkpt lat="45.39956" lon="-1.03612">
        <ele>52.089603</ele>
        <time>2022-12-23T08:31:54.739Z</time>
      </trkpt>
      <trkpt lat="45.39945" lon="-1.03615">
        <ele>52.194422</ele>
        <time>2022-12-23T08:31:57.750Z</time>
      </trkpt>
      <trkpt lat="45.39936" lon="-1.03618">
        <ele>52.280867</ele>
        <time>2022-12-23T08:32:00.724Z</time>
      </trkpt>
      <trkpt lat="45.39927" lon="-1.0362">
        <ele>52.367142</ele>
        <time>2022-12-23T08:32:03.726Z</time>
      </trkpt>
      <trkpt lat="45.39917" lon="-1.03622">
        <ele>52.460426</ele>
        <time>2022-12-23T08:32:06.752Z</time>
      </trkpt>
      <trkpt lat="45.39906" lon="-1.03624">
        <ele>52.561549</ele>
        <time>2022-12-23T08:32:09.738Z</time>
      </trkpt>
      <trkpt lat="45.39895" lon="-1.03626">
        <ele>52.663009</ele>
        <time>2022-12-23T08:32:12.744Z</time>
      </trkpt>
      <trkpt lat="45.39885" lon="-1.03628">
        <ele>52.763548</ele>
        <time>2022-12-23T08:32:15.753Z</time>
      </trkpt>
      <trkpt lat="45.39874" lon="-1.03631">
        <ele>52.866551</ele>
        <time>2022-12-23T08:32:18.735Z</time>
      </trkpt>
      <trkpt lat="45.39863" lon="-1.03633">
        <ele>52.970521</ele>
        <time>2022-12-23T08:32:21.726Z</time>
      </trkpt>
      <trkpt lat="45.39852" lon="-1.03636">
        <ele>53.076627</ele>
        <time>2022-12-23T08:32:24.725Z</time>
      </trkpt>
      <trkpt lat="45.3984" lon="-1.03639">
        <ele>53.186509</ele>
        <time>2022-12-23T08:32:27.725Z</time>
      </trkpt>
      <trkpt lat="45.39828" lon="-1.03643">
        <ele>53.299381</ele>
        <time>2022-12-23T08:32:30.728Z</time>
      </trkpt>
      <trkpt lat="45.39817" lon="-1.03647">
        <ele>53.404596</ele>
        <time>2022-12-23T08:32:33.732Z</time>
      </trkpt>
      <trkpt lat="45.39807" lon="-1.03651">
        <ele>53.454958</ele>
        <time>2022-12-23T08:32:36.739Z</time>
      </trkpt>
      <trkpt lat="45.39799" lon="-1.03656">
        <ele>53.476196</ele>
        <time>2022-12-23T08:32:39.728Z</time>
      </trkpt>
      <trkpt lat="45.3979" lon="-1.03661">
        <ele>53.499733</ele>
        <time>2022-12-23T08:32:42.747Z</time>
      </trkpt>
      <trkpt lat="45.3978" lon="-1.03668">
        <ele>53.524801</ele>
        <time>2022-12-23T08:32:45.744Z</time>
      </trkpt>
      <trkpt lat="45.3977" lon="-1.03675">
        <ele>53.55093</ele>
        <time>2022-12-23T08:32:48.729Z</time>
      </trkpt>
      <trkpt lat="45.3976" lon="-1.03683">
        <ele>53.577207</ele>
        <time>2022-12-23T08:32:51.749Z</time>
      </trkpt>
      <trkpt lat="45.3975" lon="-1.03691">
        <ele>53.603693</ele>
        <time>2022-12-23T08:32:54.751Z</time>
      </trkpt>
      <trkpt lat="45.39742" lon="-1.03697">
        <ele>53.624749</ele>
        <time>2022-12-23T08:32:57.751Z</time>
      </trkpt>
      <trkpt lat="45.39731" lon="-1.03704">
        <ele>53.651706</ele>
        <time>2022-12-23T08:33:01.729Z</time>
      </trkpt>
      <trkpt lat="45.39722" lon="-1.0371">
        <ele>53.674056</ele>
        <time>2022-12-23T08:33:04.742Z</time>
      </trkpt>
      <trkpt lat="45.39712" lon="-1.03713">
        <ele>53.699024</ele>
        <time>2022-12-23T08:33:07.747Z</time>
      </trkpt>
      <trkpt lat="45.39701" lon="-1.03717">
        <ele>53.725047</ele>
        <time>2022-12-23T08:33:10.743Z</time>
      </trkpt>
      <trkpt lat="45.39689" lon="-1.0372">
        <ele>53.751909</ele>
        <time>2022-12-23T08:33:13.750Z</time>
      </trkpt>
      <trkpt lat="45.39678" lon="-1.03723">
        <ele>53.778626</ele>
        <time>2022-12-23T08:33:16.731Z</time>
      </trkpt>
      <trkpt lat="45.39668" lon="-1.03724">
        <ele>53.80212</ele>
        <time>2022-12-23T08:33:19.745Z</time>
      </trkpt>
      <trkpt lat="45.39659" lon="-1.03726">
        <ele>53.823299</ele>
        <time>2022-12-23T08:33:22.728Z</time>
      </trkpt>
      <trkpt lat="45.39649" lon="-1.03727">
        <ele>53.846925</ele>
        <time>2022-12-23T08:33:25.750Z</time>
      </trkpt>
      <trkpt lat="45.39638" lon="-1.03729">
        <ele>53.823296</ele>
        <time>2022-12-23T08:33:28.757Z</time>
      </trkpt>
      <trkpt lat="45.39627" lon="-1.0373">
        <ele>53.770077</ele>
        <time>2022-12-23T08:33:31.742Z</time>
      </trkpt>
      <trkpt lat="45.39616" lon="-1.03732">
        <ele>53.717534</ele>
        <time>2022-12-23T08:33:34.739Z</time>
      </trkpt>
      <trkpt lat="45.39604" lon="-1.03734">
        <ele>53.664089</ele>
        <time>2022-12-23T08:33:37.753Z</time>
      </trkpt>
      <trkpt lat="45.39593" lon="-1.03736">
        <ele>53.60937</ele>
        <time>2022-12-23T08:33:40.745Z</time>
      </trkpt>
      <trkpt lat="45.39582" lon="-1.03739">
        <ele>53.556925</ele>
        <time>2022-12-23T08:33:43.751Z</time>
      </trkpt>
      <trkpt lat="45.39573" lon="-1.03743">
        <ele>53.509291</ele>
        <time>2022-12-23T08:33:46.745Z</time>
      </trkpt>
      <trkpt lat="45.39562" lon="-1.03747">
        <ele>53.457004</ele>
        <time>2022-12-23T08:33:49.743Z</time>
      </trkpt>
      <trkpt lat="45.39551" lon="-1.03752">
        <ele>53.402335</ele>
        <time>2022-12-23T08:33:52.754Z</time>
      </trkpt>
      <trkpt lat="45.3954" lon="-1.03758">
        <ele>53.345133</ele>
        <time>2022-12-23T08:33:55.724Z</time>
      </trkpt>
      <trkpt lat="45.39528" lon="-1.03763">
        <ele>53.287278</ele>
        <time>2022-12-23T08:33:58.737Z</time>
      </trkpt>
      <trkpt lat="45.39517" lon="-1.03769">
        <ele>53.229314</ele>
        <time>2022-12-23T08:34:01.752Z</time>
      </trkpt>
      <trkpt lat="45.39506" lon="-1.03775">
        <ele>53.171991</ele>
        <time>2022-12-23T08:34:04.751Z</time>
      </trkpt>
      <trkpt lat="45.39495" lon="-1.03782">
        <ele>53.117126</ele>
        <time>2022-12-23T08:34:07.740Z</time>
      </trkpt>
      <trkpt lat="45.39484" lon="-1.03786">
        <ele>53.062715</ele>
        <time>2022-12-23T08:34:10.756Z</time>
      </trkpt>
      <trkpt lat="45.39473" lon="-1.03792">
        <ele>53.00674</ele>
        <time>2022-12-23T08:34:13.747Z</time>
      </trkpt>
      <trkpt lat="45.39462" lon="-1.03797">
        <ele>53.035269</ele>
        <time>2022-12-23T08:34:16.747Z</time>
      </trkpt>
      <trkpt lat="45.39451" lon="-1.03803">
        <ele>53.074888</ele>
        <time>2022-12-23T08:34:19.749Z</time>
      </trkpt>
      <trkpt lat="45.39441" lon="-1.03808">
        <ele>53.112866</ele>
        <time>2022-12-23T08:34:22.745Z</time>
      </trkpt>
      <trkpt lat="45.3943" lon="-1.03813">
        <ele>53.152731</ele>
        <time>2022-12-23T08:34:25.751Z</time>
      </trkpt>
      <trkpt lat="45.39419" lon="-1.03818">
        <ele>53.192613</ele>
        <time>2022-12-23T08:34:28.747Z</time>
      </trkpt>
      <trkpt lat="45.39409" lon="-1.03823">
        <ele>53.230357</ele>
        <time>2022-12-23T08:34:31.748Z</time>
      </trkpt>
      <trkpt lat="45.39398" lon="-1.03826">
        <ele>53.269272</ele>
        <time>2022-12-23T08:34:34.736Z</time>
      </trkpt>
      <trkpt lat="45.39387" lon="-1.03829">
        <ele>53.307804</ele>
        <time>2022-12-23T08:34:37.732Z</time>
      </trkpt>
      <trkpt lat="45.39376" lon="-1.0383">
        <ele>53.348222</ele>
        <time>2022-12-23T08:34:40.727Z</time>
      </trkpt>
      <trkpt lat="45.39364" lon="-1.03829">
        <ele>53.389365</ele>
        <time>2022-12-23T08:34:43.749Z</time>
      </trkpt>
      <trkpt lat="45.39352" lon="-1.03828">
        <ele>53.429523</ele>
        <time>2022-12-23T08:34:46.748Z</time>
      </trkpt>
      <trkpt lat="45.39341" lon="-1.03825">
        <ele>53.469045</ele>
        <time>2022-12-23T08:34:49.752Z</time>
      </trkpt>
      <trkpt lat="45.3933" lon="-1.03823">
        <ele>53.508146</ele>
        <time>2022-12-23T08:34:52.745Z</time>
      </trkpt>
      <trkpt lat="45.39318" lon="-1.03819">
        <ele>53.550907</ele>
        <time>2022-12-23T08:34:55.749Z</time>
      </trkpt>
      <trkpt lat="45.39305" lon="-1.03816">
        <ele>53.59544</ele>
        <time>2022-12-23T08:34:58.748Z</time>
      </trkpt>
      <trkpt lat="45.39293" lon="-1.03812">
        <ele>53.620942</ele>
        <time>2022-12-23T08:35:01.727Z</time>
      </trkpt>
      <trkpt lat="45.3928" lon="-1.03809">
        <ele>53.603977</ele>
        <time>2022-12-23T08:35:04.751Z</time>
      </trkpt>
      <trkpt lat="45.39268" lon="-1.03806">
        <ele>53.586789</ele>
        <time>2022-12-23T08:35:07.749Z</time>
      </trkpt>
      <trkpt lat="45.39255" lon="-1.03803">
        <ele>53.568866</ele>
        <time>2022-12-23T08:35:10.745Z</time>
      </trkpt>
      <trkpt lat="45.39242" lon="-1.03799">
        <ele>53.550926</ele>
        <time>2022-12-23T08:35:13.748Z</time>
      </trkpt>
      <trkpt lat="45.39233" lon="-1.03796">
        <ele>53.53825</ele>
        <time>2022-12-23T08:35:15.751Z</time>
      </trkpt>
      <trkpt lat="45.3922" lon="-1.03791">
        <ele>53.521154</ele>
        <time>2022-12-23T08:35:18.749Z</time>
      </trkpt>
      <trkpt lat="45.39208" lon="-1.03789">
        <ele>53.503957</ele>
        <time>2022-12-23T08:35:21.728Z</time>
      </trkpt>
      <trkpt lat="45.39195" lon="-1.03786">
        <ele>53.486202</ele>
        <time>2022-12-23T08:35:24.747Z</time>
      </trkpt>
      <trkpt lat="45.39182" lon="-1.03782">
        <ele>53.468338</ele>
        <time>2022-12-23T08:35:27.749Z</time>
      </trkpt>
      <trkpt lat="45.39169" lon="-1.0378">
        <ele>53.450518</ele>
        <time>2022-12-23T08:35:30.735Z</time>
      </trkpt>
      <trkpt lat="45.39156" lon="-1.0378">
        <ele>53.432359</ele>
        <time>2022-12-23T08:35:33.749Z</time>
      </trkpt>
      <trkpt lat="45.39142" lon="-1.03779">
        <ele>53.41434</ele>
        <time>2022-12-23T08:35:36.748Z</time>
      </trkpt>
      <trkpt lat="45.39133" lon="-1.03779">
        <ele>53.402124</ele>
        <time>2022-12-23T08:35:38.747Z</time>
      </trkpt>
      <trkpt lat="45.39121" lon="-1.03778">
        <ele>53.385593</ele>
        <time>2022-12-23T08:35:41.751Z</time>
      </trkpt>
      <trkpt lat="45.3911" lon="-1.03778">
        <ele>53.386589</ele>
        <time>2022-12-23T08:35:44.743Z</time>
      </trkpt>
      <trkpt lat="45.39097" lon="-1.03778">
        <ele>53.391504</ele>
        <time>2022-12-23T08:35:47.747Z</time>
      </trkpt>
      <trkpt lat="45.39083" lon="-1.03777">
        <ele>53.396892</ele>
        <time>2022-12-23T08:35:50.748Z</time>
      </trkpt>
      <trkpt lat="45.39074" lon="-1.03776">
        <ele>53.400519</ele>
        <time>2022-12-23T08:35:52.730Z</time>
      </trkpt>
      <trkpt lat="45.39065" lon="-1.03776">
        <ele>53.404059</ele>
        <time>2022-12-23T08:35:54.742Z</time>
      </trkpt>
      <trkpt lat="45.39056" lon="-1.03776">
        <ele>53.407754</ele>
        <time>2022-12-23T08:35:56.742Z</time>
      </trkpt>
      <trkpt lat="45.39046" lon="-1.03776">
        <ele>53.41149</ele>
        <time>2022-12-23T08:35:58.754Z</time>
      </trkpt>
      <trkpt lat="45.39036" lon="-1.03775">
        <ele>53.41535</ele>
        <time>2022-12-23T08:36:00.741Z</time>
      </trkpt>
      <trkpt lat="45.39027" lon="-1.03775">
        <ele>53.419164</ele>
        <time>2022-12-23T08:36:02.749Z</time>
      </trkpt>
      <trkpt lat="45.39017" lon="-1.03775">
        <ele>53.422825</ele>
        <time>2022-12-23T08:36:04.744Z</time>
      </trkpt>
      <trkpt lat="45.39008" lon="-1.03774">
        <ele>53.426601</ele>
        <time>2022-12-23T08:36:06.729Z</time>
      </trkpt>
      <trkpt lat="45.38999" lon="-1.03774">
        <ele>53.430218</ele>
        <time>2022-12-23T08:36:08.748Z</time>
      </trkpt>
      <trkpt lat="45.38989" lon="-1.03773">
        <ele>53.434043</ele>
        <time>2022-12-23T08:36:10.747Z</time>
      </trkpt>
      <trkpt lat="45.3898" lon="-1.03772">
        <ele>53.437717</ele>
        <time>2022-12-23T08:36:12.742Z</time>
      </trkpt>
      <trkpt lat="45.38967" lon="-1.03768">
        <ele>53.442687</ele>
        <time>2022-12-23T08:36:15.730Z</time>
      </trkpt>
      <trkpt lat="45.38956" lon="-1.03763">
        <ele>53.44733</ele>
        <time>2022-12-23T08:36:18.728Z</time>
      </trkpt>
      <trkpt lat="45.38944" lon="-1.03756">
        <ele>53.452325</ele>
        <time>2022-12-23T08:36:21.739Z</time>
      </trkpt>
      <trkpt lat="45.38932" lon="-1.03749">
        <ele>53.428171</ele>
        <time>2022-12-23T08:36:24.748Z</time>
      </trkpt>
      <trkpt lat="45.38923" lon="-1.03744">
        <ele>53.405429</ele>
        <time>2022-12-23T08:36:26.753Z</time>
      </trkpt>
      <trkpt lat="45.38915" lon="-1.03738">
        <ele>53.382367</ele>
        <time>2022-12-23T08:36:28.737Z</time>
      </trkpt>
      <trkpt lat="45.38907" lon="-1.03732">
        <ele>53.359558</ele>
        <time>2022-12-23T08:36:30.750Z</time>
      </trkpt>
      <trkpt lat="45.38898" lon="-1.03726">
        <ele>53.334801</ele>
        <time>2022-12-23T08:36:32.748Z</time>
      </trkpt>
      <trkpt lat="45.3889" lon="-1.03718">
        <ele>53.31098</ele>
        <time>2022-12-23T08:36:34.754Z</time>
      </trkpt>
      <trkpt lat="45.38882" lon="-1.03711">
        <ele>53.287159</ele>
        <time>2022-12-23T08:36:36.747Z</time>
      </trkpt>
      <trkpt lat="45.38874" lon="-1.03702">
        <ele>53.263818</ele>
        <time>2022-12-23T08:36:38.747Z</time>
      </trkpt>
      <trkpt lat="45.38867" lon="-1.03694">
        <ele>53.241106</ele>
        <time>2022-12-23T08:36:40.745Z</time>
      </trkpt>
      <trkpt lat="45.38859" lon="-1.0368">
        <ele>53.210313</ele>
        <time>2022-12-23T08:36:43.735Z</time>
      </trkpt>
      <trkpt lat="45.38852" lon="-1.03667">
        <ele>53.180642</ele>
        <time>2022-12-23T08:36:46.741Z</time>
      </trkpt>
      <trkpt lat="45.38844" lon="-1.03652">
        <ele>53.14849</ele>
        <time>2022-12-23T08:36:49.753Z</time>
      </trkpt>
      <trkpt lat="45.38839" lon="-1.03642">
        <ele>53.12544</ele>
        <time>2022-12-23T08:36:51.746Z</time>
      </trkpt>
      <trkpt lat="45.38834" lon="-1.0363">
        <ele>53.101781</ele>
        <time>2022-12-23T08:36:53.749Z</time>
      </trkpt>
      <trkpt lat="45.38828" lon="-1.03619">
        <ele>53.07845</ele>
        <time>2022-12-23T08:36:55.747Z</time>
      </trkpt>
      <trkpt lat="45.38822" lon="-1.03608">
        <ele>53.053949</ele>
        <time>2022-12-23T08:36:57.750Z</time>
      </trkpt>
      <trkpt lat="45.38816" lon="-1.03597">
        <ele>53.028559</ele>
        <time>2022-12-23T08:36:59.749Z</time>
      </trkpt>
      <trkpt lat="45.38809" lon="-1.03585">
        <ele>53.01367</ele>
        <time>2022-12-23T08:37:01.753Z</time>
      </trkpt>
      <trkpt lat="45.38802" lon="-1.03575">
        <ele>53.036899</ele>
        <time>2022-12-23T08:37:03.736Z</time>
      </trkpt>
      <trkpt lat="45.38795" lon="-1.03564">
        <ele>53.059828</ele>
        <time>2022-12-23T08:37:05.737Z</time>
      </trkpt>
      <trkpt lat="45.38788" lon="-1.03554">
        <ele>53.082018</ele>
        <time>2022-12-23T08:37:07.755Z</time>
      </trkpt>
      <trkpt lat="45.38781" lon="-1.03544">
        <ele>53.104144</ele>
        <time>2022-12-23T08:37:09.748Z</time>
      </trkpt>
      <trkpt lat="45.38774" lon="-1.03534">
        <ele>53.126381</ele>
        <time>2022-12-23T08:37:11.728Z</time>
      </trkpt>
      <trkpt lat="45.38767" lon="-1.03526">
        <ele>53.146776</ele>
        <time>2022-12-23T08:37:13.735Z</time>
      </trkpt>
      <trkpt lat="45.38759" lon="-1.03512">
        <ele>53.174615</ele>
        <time>2022-12-23T08:37:16.746Z</time>
      </trkpt>
      <trkpt lat="45.38751" lon="-1.03498">
        <ele>53.203762</ele>
        <time>2022-12-23T08:37:19.748Z</time>
      </trkpt>
      <trkpt lat="45.38744" lon="-1.03488">
        <ele>53.226294</ele>
        <time>2022-12-23T08:37:21.725Z</time>
      </trkpt>
      <trkpt lat="45.38734" lon="-1.03475">
        <ele>53.255991</ele>
        <time>2022-12-23T08:37:24.742Z</time>
      </trkpt>
      <trkpt lat="45.38727" lon="-1.03466">
        <ele>53.277823</ele>
        <time>2022-12-23T08:37:26.747Z</time>
      </trkpt>
      <trkpt lat="45.3872" lon="-1.03456">
        <ele>53.299857</ele>
        <time>2022-12-23T08:37:28.749Z</time>
      </trkpt>
      <trkpt lat="45.38712" lon="-1.03446">
        <ele>53.323134</ele>
        <time>2022-12-23T08:37:30.742Z</time>
      </trkpt>
      <trkpt lat="45.38706" lon="-1.03437">
        <ele>53.343569</ele>
        <time>2022-12-23T08:37:32.730Z</time>
      </trkpt>
      <trkpt lat="45.387" lon="-1.03427">
        <ele>53.365284</ele>
        <time>2022-12-23T08:37:34.752Z</time>
      </trkpt>
      <trkpt lat="45.38692" lon="-1.03417">
        <ele>53.388288</ele>
        <time>2022-12-23T08:37:36.747Z</time>
      </trkpt>
      <trkpt lat="45.38685" lon="-1.03408">
        <ele>53.410429</ele>
        <time>2022-12-23T08:37:38.744Z</time>
      </trkpt>
      <trkpt lat="45.38679" lon="-1.03399">
        <ele>53.387319</ele>
        <time>2022-12-23T08:37:40.746Z</time>
      </trkpt>
      <trkpt lat="45.38669" lon="-1.03387">
        <ele>53.343</ele>
        <time>2022-12-23T08:37:43.728Z</time>
      </trkpt>
      <trkpt lat="45.38663" lon="-1.03378">
        <ele>53.310815</ele>
        <time>2022-12-23T08:37:45.748Z</time>
      </trkpt>
      <trkpt lat="45.38655" lon="-1.03369">
        <ele>53.277127</ele>
        <time>2022-12-23T08:37:47.746Z</time>
      </trkpt>
      <trkpt lat="45.38649" lon="-1.0336">
        <ele>53.244702</ele>
        <time>2022-12-23T08:37:49.748Z</time>
      </trkpt>
      <trkpt lat="45.38639" lon="-1.03347">
        <ele>53.198157</ele>
        <time>2022-12-23T08:37:52.750Z</time>
      </trkpt>
      <trkpt lat="45.38629" lon="-1.03334">
        <ele>53.150143</ele>
        <time>2022-12-23T08:37:55.725Z</time>
      </trkpt>
      <trkpt lat="45.38622" lon="-1.03326">
        <ele>53.116726</ele>
        <time>2022-12-23T08:37:57.750Z</time>
      </trkpt>
      <trkpt lat="45.38614" lon="-1.03317">
        <ele>53.083391</ele>
        <time>2022-12-23T08:37:59.734Z</time>
      </trkpt>
      <trkpt lat="45.38607" lon="-1.03309">
        <ele>53.051155</ele>
        <time>2022-12-23T08:38:01.746Z</time>
      </trkpt>
      <trkpt lat="45.38598" lon="-1.03298">
        <ele>53.008013</ele>
        <time>2022-12-23T08:38:04.738Z</time>
      </trkpt>
      <trkpt lat="45.38589" lon="-1.03289">
        <ele>52.968221</ele>
        <time>2022-12-23T08:38:07.748Z</time>
      </trkpt>
      <trkpt lat="45.38579" lon="-1.0328">
        <ele>52.928295</ele>
        <time>2022-12-23T08:38:10.749Z</time>
      </trkpt>
      <trkpt lat="45.38569" lon="-1.03271">
        <ele>52.886324</ele>
        <time>2022-12-23T08:38:13.750Z</time>
      </trkpt>
      <trkpt lat="45.38559" lon="-1.03261">
        <ele>52.841734</ele>
        <time>2022-12-23T08:38:16.747Z</time>
      </trkpt>
      <trkpt lat="45.38547" lon="-1.03251">
        <ele>52.794089</ele>
        <time>2022-12-23T08:38:19.750Z</time>
      </trkpt>
      <trkpt lat="45.38536" lon="-1.03242">
        <ele>52.777142</ele>
        <time>2022-12-23T08:38:22.752Z</time>
      </trkpt>
      <trkpt lat="45.38525" lon="-1.03232">
        <ele>52.77693</ele>
        <time>2022-12-23T08:38:25.750Z</time>
      </trkpt>
      <trkpt lat="45.38515" lon="-1.03224">
        <ele>52.776739</ele>
        <time>2022-12-23T08:38:28.747Z</time>
      </trkpt>
      <trkpt lat="45.38504" lon="-1.03215">
        <ele>52.776531</ele>
        <time>2022-12-23T08:38:31.748Z</time>
      </trkpt>
      <trkpt lat="45.38493" lon="-1.03206">
        <ele>52.776317</ele>
        <time>2022-12-23T08:38:34.747Z</time>
      </trkpt>
      <trkpt lat="45.38481" lon="-1.03197">
        <ele>52.776099</ele>
        <time>2022-12-23T08:38:37.746Z</time>
      </trkpt>
      <trkpt lat="45.38469" lon="-1.03187">
        <ele>52.775877</ele>
        <time>2022-12-23T08:38:40.751Z</time>
      </trkpt>
      <trkpt lat="45.38461" lon="-1.03181">
        <ele>52.775726</ele>
        <time>2022-12-23T08:38:42.749Z</time>
      </trkpt>
      <trkpt lat="45.38453" lon="-1.03174">
        <ele>52.775575</ele>
        <time>2022-12-23T08:38:44.731Z</time>
      </trkpt>
      <trkpt lat="45.38445" lon="-1.03168">
        <ele>52.775417</ele>
        <time>2022-12-23T08:38:46.749Z</time>
      </trkpt>
      <trkpt lat="45.38437" lon="-1.03161">
        <ele>52.775264</ele>
        <time>2022-12-23T08:38:48.750Z</time>
      </trkpt>
      <trkpt lat="45.38427" lon="-1.03152">
        <ele>52.775062</ele>
        <time>2022-12-23T08:38:51.750Z</time>
      </trkpt>
      <trkpt lat="45.38417" lon="-1.03143">
        <ele>52.774876</ele>
        <time>2022-12-23T08:38:54.749Z</time>
      </trkpt>
      <trkpt lat="45.38407" lon="-1.03136">
        <ele>52.774685</ele>
        <time>2022-12-23T08:38:57.748Z</time>
      </trkpt>
      <trkpt lat="45.38396" lon="-1.03127">
        <ele>52.774482</ele>
        <time>2022-12-23T08:39:00.747Z</time>
      </trkpt>
      <trkpt lat="45.38385" lon="-1.03119">
        <ele>52.788232</ele>
        <time>2022-12-23T08:39:03.752Z</time>
      </trkpt>
      <trkpt lat="45.38374" lon="-1.0311">
        <ele>52.850312</ele>
        <time>2022-12-23T08:39:06.745Z</time>
      </trkpt>
      <trkpt lat="45.38363" lon="-1.03101">
        <ele>52.913513</ele>
        <time>2022-12-23T08:39:09.749Z</time>
      </trkpt>
      <trkpt lat="45.38351" lon="-1.03092">
        <ele>52.978365</ele>
        <time>2022-12-23T08:39:12.748Z</time>
      </trkpt>
      <trkpt lat="45.38341" lon="-1.03084">
        <ele>53.039659</ele>
        <time>2022-12-23T08:39:15.751Z</time>
      </trkpt>
      <trkpt lat="45.3833" lon="-1.03074">
        <ele>53.102779</ele>
        <time>2022-12-23T08:39:18.753Z</time>
      </trkpt>
      <trkpt lat="45.38319" lon="-1.03065">
        <ele>53.168511</ele>
        <time>2022-12-23T08:39:21.751Z</time>
      </trkpt>
      <trkpt lat="45.38308" lon="-1.03056">
        <ele>53.230063</ele>
        <time>2022-12-23T08:39:24.739Z</time>
      </trkpt>
      <trkpt lat="45.38297" lon="-1.03047">
        <ele>53.293182</ele>
        <time>2022-12-23T08:39:27.743Z</time>
      </trkpt>
      <trkpt lat="45.38286" lon="-1.03037">
        <ele>53.359597</ele>
        <time>2022-12-23T08:39:30.744Z</time>
      </trkpt>
      <trkpt lat="45.38274" lon="-1.03027">
        <ele>53.426118</ele>
        <time>2022-12-23T08:39:33.734Z</time>
      </trkpt>
      <trkpt lat="45.38266" lon="-1.03021">
        <ele>53.473383</ele>
        <time>2022-12-23T08:39:35.747Z</time>
      </trkpt>
      <trkpt lat="45.38254" lon="-1.03011">
        <ele>53.542488</ele>
        <time>2022-12-23T08:39:38.725Z</time>
      </trkpt>
      <trkpt lat="45.38246" lon="-1.03004">
        <ele>53.590375</ele>
        <time>2022-12-23T08:39:40.750Z</time>
      </trkpt>
      <trkpt lat="45.38238" lon="-1.02998">
        <ele>53.635986</ele>
        <time>2022-12-23T08:39:42.734Z</time>
      </trkpt>
      <trkpt lat="45.38226" lon="-1.02989">
        <ele>53.656116</ele>
        <time>2022-12-23T08:39:45.750Z</time>
      </trkpt>
      <trkpt lat="45.38218" lon="-1.02983">
        <ele>53.629575</ele>
        <time>2022-12-23T08:39:47.733Z</time>
      </trkpt>
      <trkpt lat="45.3821" lon="-1.02976">
        <ele>53.602724</ele>
        <time>2022-12-23T08:39:49.732Z</time>
      </trkpt>
      <trkpt lat="45.382" lon="-1.02967">
        <ele>53.568495</ele>
        <time>2022-12-23T08:39:52.735Z</time>
      </trkpt>
      <trkpt lat="45.38189" lon="-1.02957">
        <ele>53.528803</ele>
        <time>2022-12-23T08:39:55.729Z</time>
      </trkpt>
      <trkpt lat="45.38177" lon="-1.02949">
        <ele>53.489706</ele>
        <time>2022-12-23T08:39:58.744Z</time>
      </trkpt>
      <trkpt lat="45.38169" lon="-1.02942">
        <ele>53.462888</ele>
        <time>2022-12-23T08:40:00.734Z</time>
      </trkpt>
      <trkpt lat="45.38161" lon="-1.02935">
        <ele>53.435883</ele>
        <time>2022-12-23T08:40:02.751Z</time>
      </trkpt>
      <trkpt lat="45.38152" lon="-1.02929">
        <ele>53.407722</ele>
        <time>2022-12-23T08:40:04.753Z</time>
      </trkpt>
      <trkpt lat="45.38144" lon="-1.02922">
        <ele>53.380517</ele>
        <time>2022-12-23T08:40:06.748Z</time>
      </trkpt>
      <trkpt lat="45.38136" lon="-1.02915">
        <ele>53.352709</ele>
        <time>2022-12-23T08:40:08.751Z</time>
      </trkpt>
      <trkpt lat="45.38124" lon="-1.02906">
        <ele>53.312872</ele>
        <time>2022-12-23T08:40:11.749Z</time>
      </trkpt>
      <trkpt lat="45.38112" lon="-1.02897">
        <ele>53.274806</ele>
        <time>2022-12-23T08:40:14.735Z</time>
      </trkpt>
      <trkpt lat="45.38101" lon="-1.02887">
        <ele>53.23542</ele>
        <time>2022-12-23T08:40:17.736Z</time>
      </trkpt>
      <trkpt lat="45.38092" lon="-1.02881">
        <ele>53.2071</ele>
        <time>2022-12-23T08:40:19.738Z</time>
      </trkpt>
      <trkpt lat="45.38084" lon="-1.02874">
        <ele>53.179818</ele>
        <time>2022-12-23T08:40:21.728Z</time>
      </trkpt>
      <trkpt lat="45.38076" lon="-1.02867">
        <ele>53.153072</ele>
        <time>2022-12-23T08:40:23.727Z</time>
      </trkpt>
      <trkpt lat="45.38066" lon="-1.02859">
        <ele>53.247648</ele>
        <time>2022-12-23T08:40:26.728Z</time>
      </trkpt>
      <trkpt lat="45.38055" lon="-1.02849">
        <ele>53.361152</ele>
        <time>2022-12-23T08:40:29.747Z</time>
      </trkpt>
      <trkpt lat="45.38044" lon="-1.02841">
        <ele>53.472139</ele>
        <time>2022-12-23T08:40:32.743Z</time>
      </trkpt>
      <trkpt lat="45.38033" lon="-1.02832">
        <ele>53.585316</ele>
        <time>2022-12-23T08:40:35.748Z</time>
      </trkpt>
      <trkpt lat="45.38022" lon="-1.02824">
        <ele>53.698494</ele>
        <time>2022-12-23T08:40:38.748Z</time>
      </trkpt>
      <trkpt lat="45.38011" lon="-1.02815">
        <ele>53.810882</ele>
        <time>2022-12-23T08:40:41.726Z</time>
      </trkpt>
      <trkpt lat="45.38001" lon="-1.02806">
        <ele>53.919873</ele>
        <time>2022-12-23T08:40:44.746Z</time>
      </trkpt>
      <trkpt lat="45.37991" lon="-1.02797">
        <ele>54.027434</ele>
        <time>2022-12-23T08:40:47.727Z</time>
      </trkpt>
      <trkpt lat="45.37981" lon="-1.02788">
        <ele>54.133237</ele>
        <time>2022-12-23T08:40:50.744Z</time>
      </trkpt>
      <trkpt lat="45.37972" lon="-1.02776">
        <ele>54.241207</ele>
        <time>2022-12-23T08:40:53.742Z</time>
      </trkpt>
      <trkpt lat="45.37964" lon="-1.02765">
        <ele>54.346143</ele>
        <time>2022-12-23T08:40:56.750Z</time>
      </trkpt>
      <trkpt lat="45.37956" lon="-1.02752">
        <ele>54.456584</ele>
        <time>2022-12-23T08:40:59.735Z</time>
      </trkpt>
      <trkpt lat="45.37948" lon="-1.02738">
        <ele>54.5691</ele>
        <time>2022-12-23T08:41:02.733Z</time>
      </trkpt>
      <trkpt lat="45.37941" lon="-1.02724">
        <ele>54.675427</ele>
        <time>2022-12-23T08:41:05.747Z</time>
      </trkpt>
      <trkpt lat="45.37935" lon="-1.02712">
        <ele>54.767701</ele>
        <time>2022-12-23T08:41:08.754Z</time>
      </trkpt>
      <trkpt lat="45.3793" lon="-1.02702">
        <ele>54.641854</ele>
        <time>2022-12-23T08:41:11.750Z</time>
      </trkpt>
      <trkpt lat="45.37924" lon="-1.0269">
        <ele>54.488333</ele>
        <time>2022-12-23T08:41:14.750Z</time>
      </trkpt>
      <trkpt lat="45.37918" lon="-1.02678">
        <ele>54.333955</ele>
        <time>2022-12-23T08:41:17.749Z</time>
      </trkpt>
      <trkpt lat="45.37912" lon="-1.02665">
        <ele>54.174123</ele>
        <time>2022-12-23T08:41:20.732Z</time>
      </trkpt>
      <trkpt lat="45.37905" lon="-1.02653">
        <ele>54.010567</ele>
        <time>2022-12-23T08:41:23.733Z</time>
      </trkpt>
      <trkpt lat="45.37897" lon="-1.02643">
        <ele>53.853414</ele>
        <time>2022-12-23T08:41:26.727Z</time>
      </trkpt>
      <trkpt lat="45.3789" lon="-1.02633">
        <ele>53.705608</ele>
        <time>2022-12-23T08:41:29.747Z</time>
      </trkpt>
      <trkpt lat="45.37882" lon="-1.02621">
        <ele>53.536179</ele>
        <time>2022-12-23T08:41:33.724Z</time>
      </trkpt>
      <trkpt lat="45.37879" lon="-1.02608">
        <ele>53.397083</ele>
        <time>2022-12-23T08:41:37.746Z</time>
      </trkpt>
      <trkpt lat="45.37878" lon="-1.02596">
        <ele>53.263147</ele>
        <time>2022-12-23T08:41:50.730Z</time>
      </trkpt>
      <trkpt lat="45.37878" lon="-1.02582">
        <ele>53.1214</ele>
        <time>2022-12-23T08:41:58.733Z</time>
      </trkpt>
      <trkpt lat="45.37878" lon="-1.02567">
        <ele>52.965054</ele>
        <time>2022-12-23T08:42:03.726Z</time>
      </trkpt>
      <trkpt lat="45.37872" lon="-1.02554">
        <ele>52.801984</ele>
        <time>2022-12-23T08:42:07.729Z</time>
      </trkpt>
      <trkpt lat="45.37863" lon="-1.02547">
        <ele>52.649587</ele>
        <time>2022-12-23T08:42:10.730Z</time>
      </trkpt>
      <trkpt lat="45.37853" lon="-1.02538">
        <ele>52.480327</ele>
        <time>2022-12-23T08:42:13.731Z</time>
      </trkpt>
      <trkpt lat="45.37844" lon="-1.02526">
        <ele>52.295872</ele>
        <time>2022-12-23T08:42:16.745Z</time>
      </trkpt>
      <trkpt lat="45.37836" lon="-1.02511">
        <ele>52.104363</ele>
        <time>2022-12-23T08:42:19.733Z</time>
      </trkpt>
      <trkpt lat="45.37831" lon="-1.02501">
        <ele>52.195931</ele>
        <time>2022-12-23T08:42:21.727Z</time>
      </trkpt>
      <trkpt lat="45.37824" lon="-1.02485">
        <ele>52.331748</ele>
        <time>2022-12-23T08:42:24.749Z</time>
      </trkpt>
      <trkpt lat="45.37818" lon="-1.02474">
        <ele>52.428037</ele>
        <time>2022-12-23T08:42:26.750Z</time>
      </trkpt>
      <trkpt lat="45.37811" lon="-1.02458">
        <ele>52.563626</ele>
        <time>2022-12-23T08:42:29.752Z</time>
      </trkpt>
      <trkpt lat="45.37805" lon="-1.02448">
        <ele>52.656955</ele>
        <time>2022-12-23T08:42:31.748Z</time>
      </trkpt>
      <trkpt lat="45.37799" lon="-1.02439">
        <ele>52.749324</ele>
        <time>2022-12-23T08:42:33.752Z</time>
      </trkpt>
      <trkpt lat="45.37792" lon="-1.02424">
        <ele>52.876111</ele>
        <time>2022-12-23T08:42:36.751Z</time>
      </trkpt>
      <trkpt lat="45.37784" lon="-1.0241">
        <ele>53.006434</ele>
        <time>2022-12-23T08:42:39.732Z</time>
      </trkpt>
      <trkpt lat="45.37778" lon="-1.024">
        <ele>53.100671</ele>
        <time>2022-12-23T08:42:41.725Z</time>
      </trkpt>
      <trkpt lat="45.37771" lon="-1.02389">
        <ele>53.204566</ele>
        <time>2022-12-23T08:42:43.729Z</time>
      </trkpt>
      <trkpt lat="45.37765" lon="-1.02379">
        <ele>53.30021</ele>
        <time>2022-12-23T08:42:45.743Z</time>
      </trkpt>
      <trkpt lat="45.37757" lon="-1.02371">
        <ele>53.394367</ele>
        <time>2022-12-23T08:42:47.741Z</time>
      </trkpt>
      <trkpt lat="45.3775" lon="-1.02363">
        <ele>53.49171</ele>
        <time>2022-12-23T08:42:49.746Z</time>
      </trkpt>
      <trkpt lat="45.37741" lon="-1.02353">
        <ele>53.612571</ele>
        <time>2022-12-23T08:42:52.747Z</time>
      </trkpt>
      <trkpt lat="45.37731" lon="-1.02343">
        <ele>53.733644</ele>
        <time>2022-12-23T08:42:55.747Z</time>
      </trkpt>
      <trkpt lat="45.3772" lon="-1.02337">
        <ele>53.847841</ele>
        <time>2022-12-23T08:42:58.730Z</time>
      </trkpt>
      <trkpt lat="45.37711" lon="-1.02328">
        <ele>53.938064</ele>
        <time>2022-12-23T08:43:01.735Z</time>
      </trkpt>
      <trkpt lat="45.37702" lon="-1.02321">
        <ele>53.92968</ele>
        <time>2022-12-23T08:43:05.741Z</time>
      </trkpt>
      <trkpt lat="45.37685" lon="-1.02307">
        <ele>53.913982</ele>
        <time>2022-12-23T08:44:49.744Z</time>
      </trkpt>
      <trkpt lat="45.37675" lon="-1.02298">
        <ele>53.904684</ele>
        <time>2022-12-23T08:44:53.725Z</time>
      </trkpt>
      <trkpt lat="45.37667" lon="-1.02292">
        <ele>53.897192</ele>
        <time>2022-12-23T08:44:56.740Z</time>
      </trkpt>
      <trkpt lat="45.37657" lon="-1.02285">
        <ele>53.889164</ele>
        <time>2022-12-23T08:44:59.749Z</time>
      </trkpt>
      <trkpt lat="45.37648" lon="-1.02278">
        <ele>53.88093</ele>
        <time>2022-12-23T08:45:02.731Z</time>
      </trkpt>
      <trkpt lat="45.37639" lon="-1.02271">
        <ele>53.872738</ele>
        <time>2022-12-23T08:45:05.746Z</time>
      </trkpt>
      <trkpt lat="45.3763" lon="-1.02262">
        <ele>53.864191</ele>
        <time>2022-12-23T08:45:08.747Z</time>
      </trkpt>
      <trkpt lat="45.37621" lon="-1.02254">
        <ele>53.855702</ele>
        <time>2022-12-23T08:45:11.726Z</time>
      </trkpt>
      <trkpt lat="45.37612" lon="-1.02245">
        <ele>53.846871</ele>
        <time>2022-12-23T08:45:14.751Z</time>
      </trkpt>
      <trkpt lat="45.37604" lon="-1.02235">
        <ele>53.838455</ele>
        <time>2022-12-23T08:45:17.746Z</time>
      </trkpt>
      <trkpt lat="45.37596" lon="-1.02224">
        <ele>53.829637</ele>
        <time>2022-12-23T08:45:20.740Z</time>
      </trkpt>
      <trkpt lat="45.37588" lon="-1.02212">
        <ele>53.820702</ele>
        <time>2022-12-23T08:45:23.746Z</time>
      </trkpt>
      <trkpt lat="45.37581" lon="-1.02201">
        <ele>53.81174</ele>
        <time>2022-12-23T08:45:26.747Z</time>
      </trkpt>
      <trkpt lat="45.37573" lon="-1.02189">
        <ele>53.802709</ele>
        <time>2022-12-23T08:45:29.748Z</time>
      </trkpt>
      <trkpt lat="45.37565" lon="-1.02176">
        <ele>53.728267</ele>
        <time>2022-12-23T08:45:32.750Z</time>
      </trkpt>
      <trkpt lat="45.37557" lon="-1.02163">
        <ele>53.573631</ele>
        <time>2022-12-23T08:45:35.749Z</time>
      </trkpt>
      <trkpt lat="45.37549" lon="-1.0215">
        <ele>53.412822</ele>
        <time>2022-12-23T08:45:38.737Z</time>
      </trkpt>
      <trkpt lat="45.37541" lon="-1.02136">
        <ele>53.251316</ele>
        <time>2022-12-23T08:45:41.749Z</time>
      </trkpt>
      <trkpt lat="45.37533" lon="-1.02122">
        <ele>53.082641</ele>
        <time>2022-12-23T08:45:44.729Z</time>
      </trkpt>
      <trkpt lat="45.37525" lon="-1.02106">
        <ele>52.909781</ele>
        <time>2022-12-23T08:45:47.744Z</time>
      </trkpt>
      <trkpt lat="45.37516" lon="-1.02092">
        <ele>52.733425</ele>
        <time>2022-12-23T08:45:50.748Z</time>
      </trkpt>
      <trkpt lat="45.37509" lon="-1.02083">
        <ele>52.616824</ele>
        <time>2022-12-23T08:45:52.751Z</time>
      </trkpt>
      <trkpt lat="45.37499" lon="-1.0207">
        <ele>52.435972</ele>
        <time>2022-12-23T08:45:55.748Z</time>
      </trkpt>
      <trkpt lat="45.37491" lon="-1.02055">
        <ele>52.269746</ele>
        <time>2022-12-23T08:45:58.752Z</time>
      </trkpt>
      <trkpt lat="45.37485" lon="-1.02044">
        <ele>52.142945</ele>
        <time>2022-12-23T08:46:00.737Z</time>
      </trkpt>
      <trkpt lat="45.37477" lon="-1.02036">
        <ele>52.019362</ele>
        <time>2022-12-23T08:46:02.746Z</time>
      </trkpt>
      <trkpt lat="45.37469" lon="-1.02019">
        <ele>51.830123</ele>
        <time>2022-12-23T08:46:05.731Z</time>
      </trkpt>
      <trkpt lat="45.37461" lon="-1.02004">
        <ele>51.650436</ele>
        <time>2022-12-23T08:46:08.748Z</time>
      </trkpt>
      <trkpt lat="45.37452" lon="-1.0199">
        <ele>51.479194</ele>
        <time>2022-12-23T08:46:11.751Z</time>
      </trkpt>
      <trkpt lat="45.37445" lon="-1.01981">
        <ele>51.461281</ele>
        <time>2022-12-23T08:46:13.746Z</time>
      </trkpt>
      <trkpt lat="45.37434" lon="-1.0197">
        <ele>51.453609</ele>
        <time>2022-12-23T08:46:16.746Z</time>
      </trkpt>
      <trkpt lat="45.37423" lon="-1.01959">
        <ele>51.445604</ele>
        <time>2022-12-23T08:46:19.743Z</time>
      </trkpt>
      <trkpt lat="45.37414" lon="-1.01955">
        <ele>51.439928</ele>
        <time>2022-12-23T08:46:21.746Z</time>
      </trkpt>
      <trkpt lat="45.37406" lon="-1.01948">
        <ele>51.434584</ele>
        <time>2022-12-23T08:46:23.740Z</time>
      </trkpt>
      <trkpt lat="45.37393" lon="-1.01941">
        <ele>51.426441</ele>
        <time>2022-12-23T08:46:26.748Z</time>
      </trkpt>
      <trkpt lat="45.37382" lon="-1.01931">
        <ele>51.418657</ele>
        <time>2022-12-23T08:46:29.748Z</time>
      </trkpt>
      <trkpt lat="45.37373" lon="-1.01925">
        <ele>51.41281</ele>
        <time>2022-12-23T08:46:31.728Z</time>
      </trkpt>
      <trkpt lat="45.37362" lon="-1.01917">
        <ele>51.405487</ele>
        <time>2022-12-23T08:46:34.742Z</time>
      </trkpt>
      <trkpt lat="45.3735" lon="-1.01908">
        <ele>51.397748</ele>
        <time>2022-12-23T08:46:37.744Z</time>
      </trkpt>
      <trkpt lat="45.37339" lon="-1.019">
        <ele>51.390677</ele>
        <time>2022-12-23T08:46:40.750Z</time>
      </trkpt>
      <trkpt lat="45.37328" lon="-1.01892">
        <ele>51.383283</ele>
        <time>2022-12-23T08:46:43.737Z</time>
      </trkpt>
      <trkpt lat="45.37317" lon="-1.01882">
        <ele>51.375593</ele>
        <time>2022-12-23T08:46:46.743Z</time>
      </trkpt>
      <trkpt lat="45.37305" lon="-1.01873">
        <ele>51.367814</ele>
        <time>2022-12-23T08:46:49.748Z</time>
      </trkpt>
      <trkpt lat="45.37295" lon="-1.01863">
        <ele>51.361191</ele>
        <time>2022-12-23T08:46:52.746Z</time>
      </trkpt>
      <trkpt lat="45.37286" lon="-1.01854">
        <ele>51.412203</ele>
        <time>2022-12-23T08:46:55.742Z</time>
      </trkpt>
      <trkpt lat="45.37278" lon="-1.01843">
        <ele>51.461435</ele>
        <time>2022-12-23T08:46:58.747Z</time>
      </trkpt>
      <trkpt lat="45.37269" lon="-1.01833">
        <ele>51.512706</ele>
        <time>2022-12-23T08:47:01.749Z</time>
      </trkpt>
      <trkpt lat="45.3726" lon="-1.01822">
        <ele>51.566075</ele>
        <time>2022-12-23T08:47:04.736Z</time>
      </trkpt>
      <trkpt lat="45.37251" lon="-1.0181">
        <ele>51.621839</ele>
        <time>2022-12-23T08:47:07.745Z</time>
      </trkpt>
      <trkpt lat="45.37243" lon="-1.01797">
        <ele>51.678116</ele>
        <time>2022-12-23T08:47:10.749Z</time>
      </trkpt>
      <trkpt lat="45.37234" lon="-1.01783">
        <ele>51.736323</ele>
        <time>2022-12-23T08:47:13.746Z</time>
      </trkpt>
      <trkpt lat="45.37225" lon="-1.01769">
        <ele>51.795118</ele>
        <time>2022-12-23T08:47:16.747Z</time>
      </trkpt>
      <trkpt lat="45.37217" lon="-1.01755">
        <ele>51.852756</ele>
        <time>2022-12-23T08:47:19.753Z</time>
      </trkpt>
      <trkpt lat="45.37209" lon="-1.01741">
        <ele>51.909178</ele>
        <time>2022-12-23T08:47:22.744Z</time>
      </trkpt>
      <trkpt lat="45.37201" lon="-1.01728">
        <ele>51.965653</ele>
        <time>2022-12-23T08:47:25.734Z</time>
      </trkpt>
      <trkpt lat="45.37194" lon="-1.01714">
        <ele>52.020303</ele>
        <time>2022-12-23T08:47:28.735Z</time>
      </trkpt>
      <trkpt lat="45.37187" lon="-1.01702">
        <ele>52.069662</ele>
        <time>2022-12-23T08:47:31.753Z</time>
      </trkpt>
      <trkpt lat="45.3718" lon="-1.0169">
        <ele>52.118204</ele>
        <time>2022-12-23T08:47:35.737Z</time>
      </trkpt>
      <trkpt lat="45.37174" lon="-1.01678">
        <ele>52.164603</ele>
        <time>2022-12-23T08:47:38.745Z</time>
      </trkpt>
      <trkpt lat="45.37165" lon="-1.01666">
        <ele>51.844954</ele>
        <time>2022-12-23T08:47:41.748Z</time>
      </trkpt>
      <trkpt lat="45.37155" lon="-1.01654">
        <ele>51.46179</ele>
        <time>2022-12-23T08:47:44.741Z</time>
      </trkpt>
      <trkpt lat="45.37145" lon="-1.01642">
        <ele>51.07014</ele>
        <time>2022-12-23T08:47:47.745Z</time>
      </trkpt>
      <trkpt lat="45.37135" lon="-1.01629">
        <ele>50.67582</ele>
        <time>2022-12-23T08:47:50.748Z</time>
      </trkpt>
      <trkpt lat="45.37124" lon="-1.01617">
        <ele>50.275681</ele>
        <time>2022-12-23T08:47:53.750Z</time>
      </trkpt>
      <trkpt lat="45.37117" lon="-1.01608">
        <ele>50.010114</ele>
        <time>2022-12-23T08:47:55.739Z</time>
      </trkpt>
      <trkpt lat="45.37107" lon="-1.01597">
        <ele>49.626565</ele>
        <time>2022-12-23T08:47:58.750Z</time>
      </trkpt>
      <trkpt lat="45.37097" lon="-1.01585">
        <ele>49.25862</ele>
        <time>2022-12-23T08:48:01.747Z</time>
      </trkpt>
      <trkpt lat="45.37089" lon="-1.01575">
        <ele>48.925867</ele>
        <time>2022-12-23T08:48:04.750Z</time>
      </trkpt>
      <trkpt lat="45.37081" lon="-1.01564">
        <ele>48.600244</ele>
        <time>2022-12-23T08:48:07.736Z</time>
      </trkpt>
      <trkpt lat="45.37073" lon="-1.01553">
        <ele>48.271144</ele>
        <time>2022-12-23T08:48:10.747Z</time>
      </trkpt>
      <trkpt lat="45.37064" lon="-1.01541">
        <ele>47.928532</ele>
        <time>2022-12-23T08:48:13.745Z</time>
      </trkpt>
      <trkpt lat="45.37055" lon="-1.01531">
        <ele>47.586755</ele>
        <time>2022-12-23T08:48:16.737Z</time>
      </trkpt>
      <trkpt lat="45.37047" lon="-1.01521">
        <ele>47.253681</ele>
        <time>2022-12-23T08:48:19.748Z</time>
      </trkpt>
      <trkpt lat="45.37037" lon="-1.0151">
        <ele>46.897928</ele>
        <time>2022-12-23T08:48:22.749Z</time>
      </trkpt>
      <trkpt lat="45.37028" lon="-1.015">
        <ele>46.65234</ele>
        <time>2022-12-23T08:48:25.751Z</time>
      </trkpt>
      <trkpt lat="45.37018" lon="-1.01489">
        <ele>46.39142</ele>
        <time>2022-12-23T08:48:28.742Z</time>
      </trkpt>
      <trkpt lat="45.37008" lon="-1.01478">
        <ele>46.129283</ele>
        <time>2022-12-23T08:48:31.752Z</time>
      </trkpt>
      <trkpt lat="45.36998" lon="-1.01467">
        <ele>45.871982</ele>
        <time>2022-12-23T08:48:34.747Z</time>
      </trkpt>
      <trkpt lat="45.36987" lon="-1.01457">
        <ele>45.608751</ele>
        <time>2022-12-23T08:48:37.747Z</time>
      </trkpt>
      <trkpt lat="45.36976" lon="-1.01448">
        <ele>45.345089</ele>
        <time>2022-12-23T08:48:40.750Z</time>
      </trkpt>
      <trkpt lat="45.36968" lon="-1.01437">
        <ele>45.103752</ele>
        <time>2022-12-23T08:48:43.752Z</time>
      </trkpt>
      <trkpt lat="45.36958" lon="-1.01426">
        <ele>44.858634</ele>
        <time>2022-12-23T08:48:46.751Z</time>
      </trkpt>
      <trkpt lat="45.36949" lon="-1.01417">
        <ele>44.622558</ele>
        <time>2022-12-23T08:48:49.748Z</time>
      </trkpt>
      <trkpt lat="45.36941" lon="-1.01408">
        <ele>44.406809</ele>
        <time>2022-12-23T08:48:52.747Z</time>
      </trkpt>
      <trkpt lat="45.3693" lon="-1.014">
        <ele>44.155597</ele>
        <time>2022-12-23T08:48:55.747Z</time>
      </trkpt>
      <trkpt lat="45.3692" lon="-1.01389">
        <ele>43.890966</ele>
        <time>2022-12-23T08:48:58.746Z</time>
      </trkpt>
      <trkpt lat="45.3691" lon="-1.01379">
        <ele>43.635291</ele>
        <time>2022-12-23T08:49:01.733Z</time>
      </trkpt>
      <trkpt lat="45.369" lon="-1.01367">
        <ele>43.366561</ele>
        <time>2022-12-23T08:49:04.749Z</time>
      </trkpt>
      <trkpt lat="45.36892" lon="-1.01359">
        <ele>43.165135</ele>
        <time>2022-12-23T08:49:06.742Z</time>
      </trkpt>
      <trkpt lat="45.36885" lon="-1.01351">
        <ele>43.239428</ele>
        <time>2022-12-23T08:49:08.748Z</time>
      </trkpt>
      <trkpt lat="45.36875" lon="-1.01339">
        <ele>43.35252</ele>
        <time>2022-12-23T08:49:11.747Z</time>
      </trkpt>
      <trkpt lat="45.36867" lon="-1.01332">
        <ele>43.434255</ele>
        <time>2022-12-23T08:49:13.749Z</time>
      </trkpt>
      <trkpt lat="45.36857" lon="-1.01323">
        <ele>43.5385</ele>
        <time>2022-12-23T08:49:16.749Z</time>
      </trkpt>
      <trkpt lat="45.36847" lon="-1.01315">
        <ele>43.641439</ele>
        <time>2022-12-23T08:49:19.740Z</time>
      </trkpt>
      <trkpt lat="45.36839" lon="-1.01308">
        <ele>43.725748</ele>
        <time>2022-12-23T08:49:21.746Z</time>
      </trkpt>
      <trkpt lat="45.3683" lon="-1.01302">
        <ele>43.805649</ele>
        <time>2022-12-23T08:49:23.738Z</time>
      </trkpt>
      <trkpt lat="45.36819" lon="-1.01294">
        <ele>43.913527</ele>
        <time>2022-12-23T08:49:26.749Z</time>
      </trkpt>
      <trkpt lat="45.36809" lon="-1.01283">
        <ele>44.030184</ele>
        <time>2022-12-23T08:49:29.751Z</time>
      </trkpt>
      <trkpt lat="45.36798" lon="-1.01275">
        <ele>44.136586</ele>
        <time>2022-12-23T08:49:32.748Z</time>
      </trkpt>
      <trkpt lat="45.36788" lon="-1.01266">
        <ele>44.238305</ele>
        <time>2022-12-23T08:49:35.749Z</time>
      </trkpt>
      <trkpt lat="45.36779" lon="-1.01257">
        <ele>44.337213</ele>
        <time>2022-12-23T08:49:38.744Z</time>
      </trkpt>
      <trkpt lat="45.36769" lon="-1.0125">
        <ele>44.432716</ele>
        <time>2022-12-23T08:49:41.743Z</time>
      </trkpt>
      <trkpt lat="45.36758" lon="-1.01245">
        <ele>44.534114</ele>
        <time>2022-12-23T08:49:44.747Z</time>
      </trkpt>
      <trkpt lat="45.36748" lon="-1.01245">
        <ele>44.623475</ele>
        <time>2022-12-23T08:49:47.749Z</time>
      </trkpt>
      <trkpt lat="45.36738" lon="-1.01249">
        <ele>44.709092</ele>
        <time>2022-12-23T08:49:51.750Z</time>
      </trkpt>
      <trkpt lat="45.36727" lon="-1.01244">
        <ele>45.076173</ele>
        <time>2022-12-23T08:49:55.750Z</time>
      </trkpt>
      <trkpt lat="45.36718" lon="-1.01232">
        <ele>45.549386</ele>
        <time>2022-12-23T08:49:59.751Z</time>
      </trkpt>
      <trkpt lat="45.36713" lon="-1.01221">
        <ele>45.922728</ele>
        <time>2022-12-23T08:50:02.747Z</time>
      </trkpt>
      <trkpt lat="45.36707" lon="-1.01208">
        <ele>46.319242</ele>
        <time>2022-12-23T08:50:06.748Z</time>
      </trkpt>
      <trkpt lat="45.36716" lon="-1.01215">
        <ele>46.714971</ele>
        <time>2022-12-23T08:51:00.736Z</time>
      </trkpt>
      <trkpt lat="45.36723" lon="-1.01228">
        <ele>47.157648</ele>
        <time>2022-12-23T08:51:04.735Z</time>
      </trkpt>
      <trkpt lat="45.36729" lon="-1.0124">
        <ele>47.535568</ele>
        <time>2022-12-23T08:51:07.724Z</time>
      </trkpt>
      <trkpt lat="45.36734" lon="-1.01254">
        <ele>47.954847</ele>
        <time>2022-12-23T08:51:10.741Z</time>
      </trkpt>
      <trkpt lat="45.36738" lon="-1.01268">
        <ele>48.379518</ele>
        <time>2022-12-23T08:51:13.742Z</time>
      </trkpt>
      <trkpt lat="45.36743" lon="-1.01283">
        <ele>48.849276</ele>
        <time>2022-12-23T08:51:16.728Z</time>
      </trkpt>
      <trkpt lat="45.36748" lon="-1.01298">
        <ele>49.296073</ele>
        <time>2022-12-23T08:51:19.723Z</time>
      </trkpt>
      <trkpt lat="45.3675" lon="-1.01312">
        <ele>49.682204</ele>
        <time>2022-12-23T08:51:22.749Z</time>
      </trkpt>
      <trkpt lat="45.36755" lon="-1.01328">
        <ele>50.138863</ele>
        <time>2022-12-23T08:51:25.737Z</time>
      </trkpt>
      <trkpt lat="45.36759" lon="-1.01342">
        <ele>50.554355</ele>
        <time>2022-12-23T08:51:28.733Z</time>
      </trkpt>
      <trkpt lat="45.36763" lon="-1.01358">
        <ele>51.025929</ele>
        <time>2022-12-23T08:51:31.745Z</time>
      </trkpt>
      <trkpt lat="45.36766" lon="-1.01375">
        <ele>51.483547</ele>
        <time>2022-12-23T08:51:34.730Z</time>
      </trkpt>
      <trkpt lat="45.36769" lon="-1.0139">
        <ele>51.755862</ele>
        <time>2022-12-23T08:51:37.746Z</time>
      </trkpt>
      <trkpt lat="45.36773" lon="-1.01407">
        <ele>51.888889</ele>
        <time>2022-12-23T08:51:40.726Z</time>
      </trkpt>
      <trkpt lat="45.36775" lon="-1.0142">
        <ele>51.985313</ele>
        <time>2022-12-23T08:51:42.745Z</time>
      </trkpt>
      <trkpt lat="45.36777" lon="-1.01435">
        <ele>52.103504</ele>
        <time>2022-12-23T08:51:45.745Z</time>
      </trkpt>
      <trkpt lat="45.3678" lon="-1.01453">
        <ele>52.238548</ele>
        <time>2022-12-23T08:51:48.754Z</time>
      </trkpt>
      <trkpt lat="45.36782" lon="-1.01469">
        <ele>52.365603</ele>
        <time>2022-12-23T08:51:51.744Z</time>
      </trkpt>
      <trkpt lat="45.36784" lon="-1.01487">
        <ele>52.501096</ele>
        <time>2022-12-23T08:51:54.748Z</time>
      </trkpt>
      <trkpt lat="45.36786" lon="-1.01504">
        <ele>52.628056</ele>
        <time>2022-12-23T08:51:57.744Z</time>
      </trkpt>
      <trkpt lat="45.36787" lon="-1.01519">
        <ele>52.74328</ele>
        <time>2022-12-23T08:52:00.738Z</time>
      </trkpt>
      <trkpt lat="45.3679" lon="-1.01533">
        <ele>52.847677</ele>
        <time>2022-12-23T08:52:03.754Z</time>
      </trkpt>
      <trkpt lat="45.36792" lon="-1.01546">
        <ele>52.946713</ele>
        <time>2022-12-23T08:52:06.741Z</time>
      </trkpt>
      <trkpt lat="45.36794" lon="-1.01559">
        <ele>53.04899</ele>
        <time>2022-12-23T08:52:09.746Z</time>
      </trkpt>
      <trkpt lat="45.36795" lon="-1.01572">
        <ele>53.14941</ele>
        <time>2022-12-23T08:52:12.752Z</time>
      </trkpt>
      <trkpt lat="45.36798" lon="-1.01586">
        <ele>53.255738</ele>
        <time>2022-12-23T08:52:15.739Z</time>
      </trkpt>
      <trkpt lat="45.368" lon="-1.016">
        <ele>53.363573</ele>
        <time>2022-12-23T08:52:18.748Z</time>
      </trkpt>
      <trkpt lat="45.36803" lon="-1.01613">
        <ele>53.467257</ele>
        <time>2022-12-23T08:52:21.746Z</time>
      </trkpt>
      <trkpt lat="45.36806" lon="-1.01626">
        <ele>53.568049</ele>
        <time>2022-12-23T08:52:24.746Z</time>
      </trkpt>
      <trkpt lat="45.36808" lon="-1.01641">
        <ele>53.624011</ele>
        <time>2022-12-23T08:52:28.744Z</time>
      </trkpt>
      <trkpt lat="45.36805" lon="-1.01655">
        <ele>53.643693</ele>
        <time>2022-12-23T08:52:32.740Z</time>
      </trkpt>
      <trkpt lat="45.36799" lon="-1.01667">
        <ele>53.665498</ele>
        <time>2022-12-23T08:52:37.749Z</time>
      </trkpt>
      <trkpt lat="45.3679" lon="-1.01663">
        <ele>53.683867</ele>
        <time>2022-12-23T08:52:40.734Z</time>
      </trkpt>
      <trkpt lat="45.36784" lon="-1.01652">
        <ele>53.705023</ele>
        <time>2022-12-23T08:52:43.749Z</time>
      </trkpt>
      <trkpt lat="45.36777" lon="-1.01638">
        <ele>53.728938</ele>
        <time>2022-12-23T08:52:46.733Z</time>
      </trkpt>
      <trkpt lat="45.3677" lon="-1.01624">
        <ele>53.753685</ele>
        <time>2022-12-23T08:52:49.752Z</time>
      </trkpt>
      <trkpt lat="45.36762" lon="-1.0161">
        <ele>53.779509</ele>
        <time>2022-12-23T08:52:52.738Z</time>
      </trkpt>
      <trkpt lat="45.36753" lon="-1.01596">
        <ele>53.80677</ele>
        <time>2022-12-23T08:52:55.741Z</time>
      </trkpt>
      <trkpt lat="45.36744" lon="-1.01582">
        <ele>53.834018</ele>
        <time>2022-12-23T08:52:58.747Z</time>
      </trkpt>
      <trkpt lat="45.36735" lon="-1.01575">
        <ele>53.855104</ele>
        <time>2022-12-23T08:53:00.752Z</time>
      </trkpt>
      <trkpt lat="45.36726" lon="-1.01561">
        <ele>53.882807</ele>
        <time>2022-12-23T08:53:03.747Z</time>
      </trkpt>
      <trkpt lat="45.36719" lon="-1.01552">
        <ele>53.901838</ele>
        <time>2022-12-23T08:53:05.744Z</time>
      </trkpt>
      <trkpt lat="45.36712" lon="-1.01542">
        <ele>53.921559</ele>
        <time>2022-12-23T08:53:07.745Z</time>
      </trkpt>
      <trkpt lat="45.36706" lon="-1.01533">
        <ele>53.940837</ele>
        <time>2022-12-23T08:53:09.750Z</time>
      </trkpt>
      <trkpt lat="45.36699" lon="-1.01523">
        <ele>53.960262</ele>
        <time>2022-12-23T08:53:11.748Z</time>
      </trkpt>
      <trkpt lat="45.36691" lon="-1.01514">
        <ele>53.972262</ele>
        <time>2022-12-23T08:53:13.730Z</time>
      </trkpt>
      <trkpt lat="45.36684" lon="-1.01504">
        <ele>53.935477</ele>
        <time>2022-12-23T08:53:15.745Z</time>
      </trkpt>
      <trkpt lat="45.36677" lon="-1.01494">
        <ele>53.900092</ele>
        <time>2022-12-23T08:53:17.733Z</time>
      </trkpt>
      <trkpt lat="45.36671" lon="-1.01485">
        <ele>53.866025</ele>
        <time>2022-12-23T08:53:19.735Z</time>
      </trkpt>
      <trkpt lat="45.36664" lon="-1.01476">
        <ele>53.833045</ele>
        <time>2022-12-23T08:53:21.738Z</time>
      </trkpt>
      <trkpt lat="45.36657" lon="-1.01466">
        <ele>53.797842</ele>
        <time>2022-12-23T08:53:23.745Z</time>
      </trkpt>
      <trkpt lat="45.36651" lon="-1.01457">
        <ele>53.764242</ele>
        <time>2022-12-23T08:53:25.749Z</time>
      </trkpt>
      <trkpt lat="45.36644" lon="-1.01447">
        <ele>53.730305</ele>
        <time>2022-12-23T08:53:27.748Z</time>
      </trkpt>
      <trkpt lat="45.36635" lon="-1.01434">
        <ele>53.681683</ele>
        <time>2022-12-23T08:53:30.750Z</time>
      </trkpt>
      <trkpt lat="45.36629" lon="-1.01424">
        <ele>53.647994</ele>
        <time>2022-12-23T08:53:32.746Z</time>
      </trkpt>
      <trkpt lat="45.3662" lon="-1.0141">
        <ele>53.599591</ele>
        <time>2022-12-23T08:53:35.749Z</time>
      </trkpt>
      <trkpt lat="45.36612" lon="-1.01396">
        <ele>53.551766</ele>
        <time>2022-12-23T08:53:38.748Z</time>
      </trkpt>
      <trkpt lat="45.36605" lon="-1.01386">
        <ele>53.517954</ele>
        <time>2022-12-23T08:53:40.753Z</time>
      </trkpt>
      <trkpt lat="45.36599" lon="-1.01376">
        <ele>53.483638</ele>
        <time>2022-12-23T08:53:42.748Z</time>
      </trkpt>
      <trkpt lat="45.3659" lon="-1.01363">
        <ele>53.435513</ele>
        <time>2022-12-23T08:53:45.750Z</time>
      </trkpt>
      <trkpt lat="45.36584" lon="-1.01353">
        <ele>53.401262</ele>
        <time>2022-12-23T08:53:47.747Z</time>
      </trkpt>
      <trkpt lat="45.36577" lon="-1.01344">
        <ele>53.366325</ele>
        <time>2022-12-23T08:53:49.764Z</time>
      </trkpt>
      <trkpt lat="45.3657" lon="-1.01335">
        <ele>53.332004</ele>
        <time>2022-12-23T08:53:51.756Z</time>
      </trkpt>
      <trkpt lat="45.36563" lon="-1.01325">
        <ele>53.339046</ele>
        <time>2022-12-23T08:53:53.750Z</time>
      </trkpt>
      <trkpt lat="45.36555" lon="-1.01315">
        <ele>53.368747</ele>
        <time>2022-12-23T08:53:55.746Z</time>
      </trkpt>
      <trkpt lat="45.36548" lon="-1.01305">
        <ele>53.396742</ele>
        <time>2022-12-23T08:53:57.750Z</time>
      </trkpt>
      <trkpt lat="45.36541" lon="-1.01295">
        <ele>53.425545</ele>
        <time>2022-12-23T08:53:59.746Z</time>
      </trkpt>
      <trkpt lat="45.36534" lon="-1.01285">
        <ele>53.454373</ele>
        <time>2022-12-23T08:54:01.726Z</time>
      </trkpt>
      <trkpt lat="45.36527" lon="-1.01275">
        <ele>53.483388</ele>
        <time>2022-12-23T08:54:03.737Z</time>
      </trkpt>
      <trkpt lat="45.36519" lon="-1.01265">
        <ele>53.511362</ele>
        <time>2022-12-23T08:54:05.748Z</time>
      </trkpt>
      <trkpt lat="45.36513" lon="-1.01255">
        <ele>53.539357</ele>
        <time>2022-12-23T08:54:07.747Z</time>
      </trkpt>
      <trkpt lat="45.36506" lon="-1.01245">
        <ele>53.566337</ele>
        <time>2022-12-23T08:54:09.752Z</time>
      </trkpt>
      <trkpt lat="45.365" lon="-1.01235">
        <ele>53.594871</ele>
        <time>2022-12-23T08:54:11.750Z</time>
      </trkpt>
      <trkpt lat="45.36493" lon="-1.01225">
        <ele>53.622128</ele>
        <time>2022-12-23T08:54:13.746Z</time>
      </trkpt>
      <trkpt lat="45.36487" lon="-1.01215">
        <ele>53.650218</ele>
        <time>2022-12-23T08:54:15.745Z</time>
      </trkpt>
      <trkpt lat="45.36479" lon="-1.01205">
        <ele>53.678539</ele>
        <time>2022-12-23T08:54:17.745Z</time>
      </trkpt>
      <trkpt lat="45.36473" lon="-1.01195">
        <ele>53.705409</ele>
        <time>2022-12-23T08:54:19.756Z</time>
      </trkpt>
      <trkpt lat="45.36466" lon="-1.01186">
        <ele>53.731579</ele>
        <time>2022-12-23T08:54:21.746Z</time>
      </trkpt>
      <trkpt lat="45.36459" lon="-1.01177">
        <ele>53.759206</ele>
        <time>2022-12-23T08:54:23.746Z</time>
      </trkpt>
      <trkpt lat="45.36452" lon="-1.01167">
        <ele>53.787819</ele>
        <time>2022-12-23T08:54:25.750Z</time>
      </trkpt>
      <trkpt lat="45.36445" lon="-1.01157">
        <ele>53.817048</ele>
        <time>2022-12-23T08:54:27.742Z</time>
      </trkpt>
      <trkpt lat="45.36438" lon="-1.01147">
        <ele>53.862931</ele>
        <time>2022-12-23T08:54:29.749Z</time>
      </trkpt>
      <trkpt lat="45.36431" lon="-1.01138">
        <ele>53.93942</ele>
        <time>2022-12-23T08:54:31.745Z</time>
      </trkpt>
      <trkpt lat="45.36424" lon="-1.01128">
        <ele>54.022664</ele>
        <time>2022-12-23T08:54:33.747Z</time>
      </trkpt>
      <trkpt lat="45.36417" lon="-1.01118">
        <ele>54.101177</ele>
        <time>2022-12-23T08:54:35.744Z</time>
      </trkpt>
      <trkpt lat="45.3641" lon="-1.01108">
        <ele>54.185015</ele>
        <time>2022-12-23T08:54:37.746Z</time>
      </trkpt>
      <trkpt lat="45.36403" lon="-1.01098">
        <ele>54.263536</ele>
        <time>2022-12-23T08:54:39.750Z</time>
      </trkpt>
      <trkpt lat="45.36397" lon="-1.01088">
        <ele>54.342885</ele>
        <time>2022-12-23T08:54:41.748Z</time>
      </trkpt>
      <trkpt lat="45.36387" lon="-1.01076">
        <ele>54.449372</ele>
        <time>2022-12-23T08:54:44.748Z</time>
      </trkpt>
      <trkpt lat="45.3638" lon="-1.01066">
        <ele>54.528471</ele>
        <time>2022-12-23T08:54:46.752Z</time>
      </trkpt>
      <trkpt lat="45.36373" lon="-1.01057">
        <ele>54.606364</ele>
        <time>2022-12-23T08:54:48.734Z</time>
      </trkpt>
      <trkpt lat="45.36368" lon="-1.01047">
        <ele>54.683078</ele>
        <time>2022-12-23T08:54:50.748Z</time>
      </trkpt>
      <trkpt lat="45.36361" lon="-1.01037">
        <ele>54.759384</ele>
        <time>2022-12-23T08:54:52.746Z</time>
      </trkpt>
      <trkpt lat="45.36355" lon="-1.01028">
        <ele>54.835638</ele>
        <time>2022-12-23T08:54:54.750Z</time>
      </trkpt>
      <trkpt lat="45.36348" lon="-1.01019">
        <ele>54.910762</ele>
        <time>2022-12-23T08:54:56.746Z</time>
      </trkpt>
      <trkpt lat="45.36341" lon="-1.0101">
        <ele>54.986455</ele>
        <time>2022-12-23T08:54:58.748Z</time>
      </trkpt>
      <trkpt lat="45.36331" lon="-1.00997">
        <ele>55.098704</ele>
        <time>2022-12-23T08:55:01.729Z</time>
      </trkpt>
      <trkpt lat="45.36322" lon="-1.00984">
        <ele>55.202497</ele>
        <time>2022-12-23T08:55:04.753Z</time>
      </trkpt>
      <trkpt lat="45.36314" lon="-1.00971">
        <ele>55.303232</ele>
        <time>2022-12-23T08:55:07.748Z</time>
      </trkpt>
      <trkpt lat="45.36308" lon="-1.00961">
        <ele>55.298115</ele>
        <time>2022-12-23T08:55:09.749Z</time>
      </trkpt>
      <trkpt lat="45.36301" lon="-1.00952">
        <ele>55.281344</ele>
        <time>2022-12-23T08:55:11.729Z</time>
      </trkpt>
      <trkpt lat="45.36292" lon="-1.00939">
        <ele>55.256971</ele>
        <time>2022-12-23T08:55:14.743Z</time>
      </trkpt>
      <trkpt lat="45.36285" lon="-1.0093">
        <ele>55.240151</ele>
        <time>2022-12-23T08:55:16.749Z</time>
      </trkpt>
      <trkpt lat="45.36279" lon="-1.0092">
        <ele>55.223069</ele>
        <time>2022-12-23T08:55:18.750Z</time>
      </trkpt>
      <trkpt lat="45.3627" lon="-1.00907">
        <ele>55.199298</ele>
        <time>2022-12-23T08:55:21.746Z</time>
      </trkpt>
      <trkpt lat="45.36264" lon="-1.00897">
        <ele>55.182201</ele>
        <time>2022-12-23T08:55:23.751Z</time>
      </trkpt>
      <trkpt lat="45.36255" lon="-1.00884">
        <ele>55.158857</ele>
        <time>2022-12-23T08:55:26.749Z</time>
      </trkpt>
      <trkpt lat="45.36247" lon="-1.00871">
        <ele>55.137374</ele>
        <time>2022-12-23T08:55:29.748Z</time>
      </trkpt>
      <trkpt lat="45.36239" lon="-1.00858">
        <ele>55.115313</ele>
        <time>2022-12-23T08:55:32.749Z</time>
      </trkpt>
      <trkpt lat="45.36231" lon="-1.00845">
        <ele>55.09223</ele>
        <time>2022-12-23T08:55:35.749Z</time>
      </trkpt>
      <trkpt lat="45.36221" lon="-1.00833">
        <ele>55.06901</ele>
        <time>2022-12-23T08:55:38.749Z</time>
      </trkpt>
      <trkpt lat="45.36213" lon="-1.0082">
        <ele>55.045865</ele>
        <time>2022-12-23T08:55:41.750Z</time>
      </trkpt>
      <trkpt lat="45.36204" lon="-1.00807">
        <ele>55.022533</ele>
        <time>2022-12-23T08:55:44.748Z</time>
      </trkpt>
      <trkpt lat="45.36196" lon="-1.00795">
        <ele>55.000954</ele>
        <time>2022-12-23T08:55:47.743Z</time>
      </trkpt>
      <trkpt lat="45.36187" lon="-1.00782">
        <ele>54.98914</ele>
        <time>2022-12-23T08:55:50.751Z</time>
      </trkpt>
      <trkpt lat="45.36181" lon="-1.00773">
        <ele>55.011033</ele>
        <time>2022-12-23T08:55:52.737Z</time>
      </trkpt>
      <trkpt lat="45.36175" lon="-1.00763">
        <ele>55.032761</ele>
        <time>2022-12-23T08:55:54.742Z</time>
      </trkpt>
      <trkpt lat="45.36166" lon="-1.00749">
        <ele>55.064858</ele>
        <time>2022-12-23T08:55:57.745Z</time>
      </trkpt>
      <trkpt lat="45.36157" lon="-1.00737">
        <ele>55.095773</ele>
        <time>2022-12-23T08:56:00.749Z</time>
      </trkpt>
      <trkpt lat="45.36148" lon="-1.00724">
        <ele>55.127054</ele>
        <time>2022-12-23T08:56:03.754Z</time>
      </trkpt>
      <trkpt lat="45.36138" lon="-1.00711">
        <ele>55.158845</ele>
        <time>2022-12-23T08:56:06.748Z</time>
      </trkpt>
      <trkpt lat="45.36129" lon="-1.00698">
        <ele>55.190169</ele>
        <time>2022-12-23T08:56:09.749Z</time>
      </trkpt>
      <trkpt lat="45.3612" lon="-1.00685">
        <ele>55.221357</ele>
        <time>2022-12-23T08:56:12.751Z</time>
      </trkpt>
      <trkpt lat="45.36111" lon="-1.00671">
        <ele>55.252489</ele>
        <time>2022-12-23T08:56:15.749Z</time>
      </trkpt>
      <trkpt lat="45.36103" lon="-1.00657">
        <ele>55.283652</ele>
        <time>2022-12-23T08:56:18.751Z</time>
      </trkpt>
      <trkpt lat="45.36094" lon="-1.00643">
        <ele>55.315874</ele>
        <time>2022-12-23T08:56:21.749Z</time>
      </trkpt>
      <trkpt lat="45.36085" lon="-1.00629">
        <ele>55.34758</ele>
        <time>2022-12-23T08:56:24.751Z</time>
      </trkpt>
      <trkpt lat="45.36077" lon="-1.00616">
        <ele>55.378776</ele>
        <time>2022-12-23T08:56:27.750Z</time>
      </trkpt>
      <trkpt lat="45.36068" lon="-1.00603">
        <ele>55.409476</ele>
        <time>2022-12-23T08:56:30.761Z</time>
      </trkpt>
      <trkpt lat="45.36059" lon="-1.0059">
        <ele>55.509141</ele>
        <time>2022-12-23T08:56:33.734Z</time>
      </trkpt>
      <trkpt lat="45.36051" lon="-1.00577">
        <ele>55.639329</ele>
        <time>2022-12-23T08:56:36.744Z</time>
      </trkpt>
      <trkpt lat="45.36043" lon="-1.00563">
        <ele>55.774762</ele>
        <time>2022-12-23T08:56:39.748Z</time>
      </trkpt>
      <trkpt lat="45.36034" lon="-1.0055">
        <ele>55.91339</ele>
        <time>2022-12-23T08:56:42.745Z</time>
      </trkpt>
      <trkpt lat="45.36025" lon="-1.00536">
        <ele>56.049679</ele>
        <time>2022-12-23T08:56:45.751Z</time>
      </trkpt>
      <trkpt lat="45.36016" lon="-1.00522">
        <ele>56.189573</ele>
        <time>2022-12-23T08:56:48.750Z</time>
      </trkpt>
      <trkpt lat="45.36007" lon="-1.00508">
        <ele>56.330434</ele>
        <time>2022-12-23T08:56:51.747Z</time>
      </trkpt>
      <trkpt lat="45.35998" lon="-1.00494">
        <ele>56.468696</ele>
        <time>2022-12-23T08:56:54.749Z</time>
      </trkpt>
      <trkpt lat="45.35989" lon="-1.00481">
        <ele>56.605525</ele>
        <time>2022-12-23T08:56:57.748Z</time>
      </trkpt>
      <trkpt lat="45.35981" lon="-1.00468">
        <ele>56.738453</ele>
        <time>2022-12-23T08:57:00.749Z</time>
      </trkpt>
      <trkpt lat="45.35973" lon="-1.00455">
        <ele>56.866653</ele>
        <time>2022-12-23T08:57:03.749Z</time>
      </trkpt>
      <trkpt lat="45.35965" lon="-1.00442">
        <ele>56.991573</ele>
        <time>2022-12-23T08:57:06.744Z</time>
      </trkpt>
      <trkpt lat="45.35956" lon="-1.00429">
        <ele>57.123944</ele>
        <time>2022-12-23T08:57:09.749Z</time>
      </trkpt>
      <trkpt lat="45.35949" lon="-1.00415">
        <ele>57.254704</ele>
        <time>2022-12-23T08:57:12.737Z</time>
      </trkpt>
      <trkpt lat="45.3594" lon="-1.00402">
        <ele>57.310545</ele>
        <time>2022-12-23T08:57:15.746Z</time>
      </trkpt>
      <trkpt lat="45.35932" lon="-1.00388">
        <ele>57.303336</ele>
        <time>2022-12-23T08:57:18.741Z</time>
      </trkpt>
      <trkpt lat="45.35923" lon="-1.00374">
        <ele>57.295887</ele>
        <time>2022-12-23T08:57:21.725Z</time>
      </trkpt>
      <trkpt lat="45.35914" lon="-1.0036">
        <ele>57.288235</ele>
        <time>2022-12-23T08:57:24.729Z</time>
      </trkpt>
      <trkpt lat="45.35905" lon="-1.00347">
        <ele>57.280856</ele>
        <time>2022-12-23T08:57:27.747Z</time>
      </trkpt>
      <trkpt lat="45.35896" lon="-1.00334">
        <ele>57.273488</ele>
        <time>2022-12-23T08:57:30.747Z</time>
      </trkpt>
      <trkpt lat="45.35888" lon="-1.00323">
        <ele>57.266915</ele>
        <time>2022-12-23T08:57:33.751Z</time>
      </trkpt>
      <trkpt lat="45.3588" lon="-1.0031">
        <ele>57.260323</ele>
        <time>2022-12-23T08:57:36.746Z</time>
      </trkpt>
      <trkpt lat="45.35872" lon="-1.00297">
        <ele>57.253178</ele>
        <time>2022-12-23T08:57:39.740Z</time>
      </trkpt>
      <trkpt lat="45.35863" lon="-1.00284">
        <ele>57.245838</ele>
        <time>2022-12-23T08:57:42.748Z</time>
      </trkpt>
      <trkpt lat="45.35854" lon="-1.00271">
        <ele>57.238426</ele>
        <time>2022-12-23T08:57:45.739Z</time>
      </trkpt>
      <trkpt lat="45.35844" lon="-1.00257">
        <ele>57.230957</ele>
        <time>2022-12-23T08:57:48.736Z</time>
      </trkpt>
      <trkpt lat="45.35836" lon="-1.00244">
        <ele>57.223685</ele>
        <time>2022-12-23T08:57:51.748Z</time>
      </trkpt>
      <trkpt lat="45.35827" lon="-1.00231">
        <ele>57.216316</ele>
        <time>2022-12-23T08:57:54.744Z</time>
      </trkpt>
      <trkpt lat="45.35818" lon="-1.00217">
        <ele>57.198922</ele>
        <time>2022-12-23T08:57:57.747Z</time>
      </trkpt>
      <trkpt lat="45.3581" lon="-1.00204">
        <ele>57.170327</ele>
        <time>2022-12-23T08:58:00.735Z</time>
      </trkpt>
      <trkpt lat="45.35802" lon="-1.00191">
        <ele>57.140591</ele>
        <time>2022-12-23T08:58:03.735Z</time>
      </trkpt>
      <trkpt lat="45.35793" lon="-1.00178">
        <ele>57.10967</ele>
        <time>2022-12-23T08:58:06.745Z</time>
      </trkpt>
      <trkpt lat="45.35787" lon="-1.00168">
        <ele>57.087812</ele>
        <time>2022-12-23T08:58:08.752Z</time>
      </trkpt>
      <trkpt lat="45.35778" lon="-1.00155">
        <ele>57.057092</ele>
        <time>2022-12-23T08:58:11.741Z</time>
      </trkpt>
      <trkpt lat="45.35772" lon="-1.00146">
        <ele>57.03548</ele>
        <time>2022-12-23T08:58:13.747Z</time>
      </trkpt>
      <trkpt lat="45.35762" lon="-1.00132">
        <ele>57.00327</ele>
        <time>2022-12-23T08:58:16.748Z</time>
      </trkpt>
      <trkpt lat="45.35753" lon="-1.00118">
        <ele>56.970654</ele>
        <time>2022-12-23T08:58:19.749Z</time>
      </trkpt>
      <trkpt lat="45.35744" lon="-1.00104">
        <ele>56.937796</ele>
        <time>2022-12-23T08:58:22.746Z</time>
      </trkpt>
      <trkpt lat="45.35735" lon="-1.00089">
        <ele>56.905266</ele>
        <time>2022-12-23T08:58:25.750Z</time>
      </trkpt>
      <trkpt lat="45.35729" lon="-1.0008">
        <ele>56.883366</ele>
        <time>2022-12-23T08:58:27.748Z</time>
      </trkpt>
      <trkpt lat="45.35723" lon="-1.0007">
        <ele>56.861609</ele>
        <time>2022-12-23T08:58:29.751Z</time>
      </trkpt>
      <trkpt lat="45.35716" lon="-1.0006">
        <ele>56.839013</ele>
        <time>2022-12-23T08:58:31.758Z</time>
      </trkpt>
      <trkpt lat="45.3571" lon="-1.0005">
        <ele>56.817099</ele>
        <time>2022-12-23T08:58:33.752Z</time>
      </trkpt>
      <trkpt lat="45.35704" lon="-1.00041">
        <ele>56.795364</ele>
        <time>2022-12-23T08:58:35.735Z</time>
      </trkpt>
      <trkpt lat="45.35698" lon="-1.00032">
        <ele>56.772198</ele>
        <time>2022-12-23T08:58:37.754Z</time>
      </trkpt>
      <trkpt lat="45.35689" lon="-1.00018">
        <ele>56.736126</ele>
        <time>2022-12-23T08:58:40.746Z</time>
      </trkpt>
      <trkpt lat="45.35681" lon="-1.00004">
        <ele>56.700903</ele>
        <time>2022-12-23T08:58:43.735Z</time>
      </trkpt>
      <trkpt lat="45.35672" lon="-0.99991">
        <ele>56.665413</ele>
        <time>2022-12-23T08:58:46.739Z</time>
      </trkpt>
      <trkpt lat="45.35664" lon="-0.99979">
        <ele>56.631006</ele>
        <time>2022-12-23T08:58:49.747Z</time>
      </trkpt>
      <trkpt lat="45.35655" lon="-0.99966">
        <ele>56.596991</ele>
        <time>2022-12-23T08:58:52.746Z</time>
      </trkpt>
      <trkpt lat="45.35647" lon="-0.99954">
        <ele>56.563905</ele>
        <time>2022-12-23T08:58:55.750Z</time>
      </trkpt>
      <trkpt lat="45.3564" lon="-0.99941">
        <ele>56.530818</ele>
        <time>2022-12-23T08:58:58.747Z</time>
      </trkpt>
      <trkpt lat="45.35632" lon="-0.99928">
        <ele>56.497286</ele>
        <time>2022-12-23T08:59:01.750Z</time>
      </trkpt>
      <trkpt lat="45.35623" lon="-0.99915">
        <ele>56.462357</ele>
        <time>2022-12-23T08:59:04.755Z</time>
      </trkpt>
      <trkpt lat="45.35614" lon="-0.99902">
        <ele>56.425906</ele>
        <time>2022-12-23T08:59:07.737Z</time>
      </trkpt>
      <trkpt lat="45.35605" lon="-0.99888">
        <ele>56.388805</ele>
        <time>2022-12-23T08:59:10.746Z</time>
      </trkpt>
      <trkpt lat="45.35596" lon="-0.99875">
        <ele>56.352264</ele>
        <time>2022-12-23T08:59:13.745Z</time>
      </trkpt>
      <trkpt lat="45.35586" lon="-0.99862">
        <ele>56.316035</ele>
        <time>2022-12-23T08:59:16.746Z</time>
      </trkpt>
      <trkpt lat="45.35578" lon="-0.99849">
        <ele>56.280784</ele>
        <time>2022-12-23T08:59:19.744Z</time>
      </trkpt>
      <trkpt lat="45.35569" lon="-0.99836">
        <ele>56.359759</ele>
        <time>2022-12-23T08:59:22.748Z</time>
      </trkpt>
      <trkpt lat="45.3556" lon="-0.99824">
        <ele>56.450501</ele>
        <time>2022-12-23T08:59:25.750Z</time>
      </trkpt>
      <trkpt lat="45.35551" lon="-0.99811">
        <ele>56.542324</ele>
        <time>2022-12-23T08:59:28.748Z</time>
      </trkpt>
      <trkpt lat="45.35543" lon="-0.99797">
        <ele>56.63585</ele>
        <time>2022-12-23T08:59:31.757Z</time>
      </trkpt>
      <trkpt lat="45.35534" lon="-0.99784">
        <ele>56.727394</ele>
        <time>2022-12-23T08:59:34.726Z</time>
      </trkpt>
      <trkpt lat="45.35526" lon="-0.99771">
        <ele>56.819249</ele>
        <time>2022-12-23T08:59:37.746Z</time>
      </trkpt>
      <trkpt lat="45.35516" lon="-0.99758">
        <ele>56.91314</ele>
        <time>2022-12-23T08:59:40.751Z</time>
      </trkpt>
      <trkpt lat="45.35507" lon="-0.99745">
        <ele>57.0078</ele>
        <time>2022-12-23T08:59:43.740Z</time>
      </trkpt>
      <trkpt lat="45.35499" lon="-0.99731">
        <ele>57.101986</ele>
        <time>2022-12-23T08:59:46.745Z</time>
      </trkpt>
      <trkpt lat="45.3549" lon="-0.99718">
        <ele>57.192937</ele>
        <time>2022-12-23T08:59:49.754Z</time>
      </trkpt>
      <trkpt lat="45.35482" lon="-0.99706">
        <ele>57.276788</ele>
        <time>2022-12-23T08:59:52.750Z</time>
      </trkpt>
      <trkpt lat="45.35474" lon="-0.99693">
        <ele>57.368357</ele>
        <time>2022-12-23T08:59:55.739Z</time>
      </trkpt>
      <trkpt lat="45.35464" lon="-0.9968">
        <ele>57.463675</ele>
        <time>2022-12-23T08:59:58.747Z</time>
      </trkpt>
      <trkpt lat="45.35455" lon="-0.99666">
        <ele>57.560227</ele>
        <time>2022-12-23T09:00:01.749Z</time>
      </trkpt>
      <trkpt lat="45.35446" lon="-0.99653">
        <ele>57.651554</ele>
        <time>2022-12-23T09:00:04.749Z</time>
      </trkpt>
      <trkpt lat="45.35436" lon="-0.99639">
        <ele>57.742155</ele>
        <time>2022-12-23T09:00:07.733Z</time>
      </trkpt>
      <trkpt lat="45.3543" lon="-0.99629">
        <ele>57.805563</ele>
        <time>2022-12-23T09:00:09.744Z</time>
      </trkpt>
      <trkpt lat="45.35423" lon="-0.99619">
        <ele>57.871512</ele>
        <time>2022-12-23T09:00:11.744Z</time>
      </trkpt>
      <trkpt lat="45.35417" lon="-0.99609">
        <ele>57.934496</ele>
        <time>2022-12-23T09:00:13.753Z</time>
      </trkpt>
      <trkpt lat="45.35409" lon="-0.99594">
        <ele>58.026846</ele>
        <time>2022-12-23T09:00:16.740Z</time>
      </trkpt>
      <trkpt lat="45.35402" lon="-0.99583">
        <ele>58.094414</ele>
        <time>2022-12-23T09:00:18.730Z</time>
      </trkpt>
      <trkpt lat="45.35395" lon="-0.99574">
        <ele>58.158587</ele>
        <time>2022-12-23T09:00:20.743Z</time>
      </trkpt>
      <trkpt lat="45.35388" lon="-0.99564">
        <ele>58.225462</ele>
        <time>2022-12-23T09:00:22.749Z</time>
      </trkpt>
      <trkpt lat="45.35382" lon="-0.99554">
        <ele>58.290502</ele>
        <time>2022-12-23T09:00:24.752Z</time>
      </trkpt>
      <trkpt lat="45.35376" lon="-0.99544">
        <ele>58.355094</ele>
        <time>2022-12-23T09:00:26.749Z</time>
      </trkpt>
      <trkpt lat="45.35369" lon="-0.99534">
        <ele>58.418777</ele>
        <time>2022-12-23T09:00:28.747Z</time>
      </trkpt>
      <trkpt lat="45.35362" lon="-0.99523">
        <ele>58.486338</ele>
        <time>2022-12-23T09:00:30.749Z</time>
      </trkpt>
      <trkpt lat="45.35356" lon="-0.99513">
        <ele>58.550845</ele>
        <time>2022-12-23T09:00:32.744Z</time>
      </trkpt>
      <trkpt lat="45.3535" lon="-0.99503">
        <ele>58.612951</ele>
        <time>2022-12-23T09:00:34.744Z</time>
      </trkpt>
      <trkpt lat="45.35345" lon="-0.99493">
        <ele>58.675649</ele>
        <time>2022-12-23T09:00:36.745Z</time>
      </trkpt>
      <trkpt lat="45.35339" lon="-0.99482">
        <ele>58.738918</ele>
        <time>2022-12-23T09:00:38.741Z</time>
      </trkpt>
      <trkpt lat="45.35331" lon="-0.99468">
        <ele>58.75273</ele>
        <time>2022-12-23T09:00:41.745Z</time>
      </trkpt>
      <trkpt lat="45.35323" lon="-0.99455">
        <ele>58.59427</ele>
        <time>2022-12-23T09:00:44.744Z</time>
      </trkpt>
      <trkpt lat="45.35314" lon="-0.99441">
        <ele>58.422765</ele>
        <time>2022-12-23T09:00:47.728Z</time>
      </trkpt>
      <trkpt lat="45.35308" lon="-0.99431">
        <ele>58.302794</ele>
        <time>2022-12-23T09:00:49.740Z</time>
      </trkpt>
      <trkpt lat="45.353" lon="-0.99417">
        <ele>58.126506</ele>
        <time>2022-12-23T09:00:52.747Z</time>
      </trkpt>
      <trkpt lat="45.35294" lon="-0.99406">
        <ele>58.004033</ele>
        <time>2022-12-23T09:00:54.740Z</time>
      </trkpt>
      <trkpt lat="45.35288" lon="-0.99396">
        <ele>57.885595</ele>
        <time>2022-12-23T09:00:56.753Z</time>
      </trkpt>
      <trkpt lat="45.35282" lon="-0.99385">
        <ele>57.753683</ele>
        <time>2022-12-23T09:00:58.755Z</time>
      </trkpt>
      <trkpt lat="45.35275" lon="-0.99375">
        <ele>57.628136</ele>
        <time>2022-12-23T09:01:00.760Z</time>
      </trkpt>
      <trkpt lat="45.35269" lon="-0.99366">
        <ele>57.505382</ele>
        <time>2022-12-23T09:01:02.800Z</time>
      </trkpt>
      <trkpt lat="45.35262" lon="-0.99357">
        <ele>57.382628</ele>
        <time>2022-12-23T09:01:04.752Z</time>
      </trkpt>
      <trkpt lat="45.35254" lon="-0.99347">
        <ele>57.253144</ele>
        <time>2022-12-23T09:01:06.747Z</time>
      </trkpt>
      <trkpt lat="45.35247" lon="-0.99338">
        <ele>57.126912</ele>
        <time>2022-12-23T09:01:08.800Z</time>
      </trkpt>
      <trkpt lat="45.3524" lon="-0.99329">
        <ele>56.99545</ele>
        <time>2022-12-23T09:01:10.748Z</time>
      </trkpt>
      <trkpt lat="45.35233" lon="-0.9932">
        <ele>56.8711</ele>
        <time>2022-12-23T09:01:12.753Z</time>
      </trkpt>
      <trkpt lat="45.35223" lon="-0.99308">
        <ele>56.703916</ele>
        <time>2022-12-23T09:01:15.751Z</time>
      </trkpt>
      <trkpt lat="45.35216" lon="-0.993">
        <ele>56.58354</ele>
        <time>2022-12-23T09:01:17.752Z</time>
      </trkpt>
      <trkpt lat="45.35209" lon="-0.99291">
        <ele>56.457939</ele>
        <time>2022-12-23T09:01:19.752Z</time>
      </trkpt>
      <trkpt lat="45.35201" lon="-0.99282">
        <ele>56.454611</ele>
        <time>2022-12-23T09:01:21.749Z</time>
      </trkpt>
      <trkpt lat="45.35194" lon="-0.99272">
        <ele>56.469722</ele>
        <time>2022-12-23T09:01:23.752Z</time>
      </trkpt>
      <trkpt lat="45.35187" lon="-0.99262">
        <ele>56.484868</ele>
        <time>2022-12-23T09:01:25.750Z</time>
      </trkpt>
      <trkpt lat="45.35179" lon="-0.99253">
        <ele>56.499851</ele>
        <time>2022-12-23T09:01:27.750Z</time>
      </trkpt>
      <trkpt lat="45.35172" lon="-0.99244">
        <ele>56.515258</ele>
        <time>2022-12-23T09:01:29.754Z</time>
      </trkpt>
      <trkpt lat="45.35165" lon="-0.99234">
        <ele>56.529856</ele>
        <time>2022-12-23T09:01:31.752Z</time>
      </trkpt>
      <trkpt lat="45.35158" lon="-0.99226">
        <ele>56.543824</ele>
        <time>2022-12-23T09:01:33.751Z</time>
      </trkpt>
      <trkpt lat="45.35151" lon="-0.99217">
        <ele>56.558024</ele>
        <time>2022-12-23T09:01:35.749Z</time>
      </trkpt>
      <trkpt lat="45.35141" lon="-0.99206">
        <ele>56.576946</ele>
        <time>2022-12-23T09:01:38.733Z</time>
      </trkpt>
      <trkpt lat="45.35132" lon="-0.99195">
        <ele>56.594959</ele>
        <time>2022-12-23T09:01:41.750Z</time>
      </trkpt>
      <trkpt lat="45.35122" lon="-0.99182">
        <ele>56.615151</ele>
        <time>2022-12-23T09:01:44.752Z</time>
      </trkpt>
      <trkpt lat="45.35112" lon="-0.9917">
        <ele>56.635475</ele>
        <time>2022-12-23T09:01:47.752Z</time>
      </trkpt>
      <trkpt lat="45.35105" lon="-0.99161">
        <ele>56.649614</ele>
        <time>2022-12-23T09:01:49.756Z</time>
      </trkpt>
      <trkpt lat="45.35097" lon="-0.99154">
        <ele>56.664363</ele>
        <time>2022-12-23T09:01:51.755Z</time>
      </trkpt>
      <trkpt lat="45.35089" lon="-0.99147">
        <ele>56.678552</ele>
        <time>2022-12-23T09:01:53.752Z</time>
      </trkpt>
      <trkpt lat="45.3508" lon="-0.99141">
        <ele>56.693208</ele>
        <time>2022-12-23T09:01:55.738Z</time>
      </trkpt>
      <trkpt lat="45.35072" lon="-0.99135">
        <ele>56.706955</ele>
        <time>2022-12-23T09:01:57.749Z</time>
      </trkpt>
      <trkpt lat="45.35064" lon="-0.99128">
        <ele>56.674741</ele>
        <time>2022-12-23T09:01:59.753Z</time>
      </trkpt>
      <trkpt lat="45.35056" lon="-0.9912">
        <ele>56.58143</ele>
        <time>2022-12-23T09:02:01.764Z</time>
      </trkpt>
      <trkpt lat="45.35049" lon="-0.99111">
        <ele>56.488536</ele>
        <time>2022-12-23T09:02:03.749Z</time>
      </trkpt>
      <trkpt lat="45.35042" lon="-0.99101">
        <ele>56.399102</ele>
        <time>2022-12-23T09:02:05.751Z</time>
      </trkpt>
      <trkpt lat="45.35036" lon="-0.99085">
        <ele>56.271956</ele>
        <time>2022-12-23T09:02:08.753Z</time>
      </trkpt>
      <trkpt lat="45.35031" lon="-0.9907">
        <ele>56.156071</ele>
        <time>2022-12-23T09:02:11.801Z</time>
      </trkpt>
      <trkpt lat="45.35027" lon="-0.99054">
        <ele>56.047004</ele>
        <time>2022-12-23T09:02:14.751Z</time>
      </trkpt>
      <trkpt lat="45.35022" lon="-0.99039">
        <ele>55.932961</ele>
        <time>2022-12-23T09:02:17.819Z</time>
      </trkpt>
      <trkpt lat="45.35013" lon="-0.99024">
        <ele>55.803328</ele>
        <time>2022-12-23T09:02:20.750Z</time>
      </trkpt>
      <trkpt lat="45.35006" lon="-0.99015">
        <ele>55.711924</ele>
        <time>2022-12-23T09:02:22.759Z</time>
      </trkpt>
      <trkpt lat="45.34999" lon="-0.99007">
        <ele>55.625152</ele>
        <time>2022-12-23T09:02:24.749Z</time>
      </trkpt>
      <trkpt lat="45.34992" lon="-0.98998">
        <ele>55.53678</ele>
        <time>2022-12-23T09:02:26.726Z</time>
      </trkpt>
      <trkpt lat="45.34985" lon="-0.9899">
        <ele>55.443719</ele>
        <time>2022-12-23T09:02:28.748Z</time>
      </trkpt>
      <trkpt lat="45.34978" lon="-0.98981">
        <ele>55.355055</ele>
        <time>2022-12-23T09:02:30.751Z</time>
      </trkpt>
      <trkpt lat="45.34971" lon="-0.98972">
        <ele>55.263155</ele>
        <time>2022-12-23T09:02:32.749Z</time>
      </trkpt>
      <trkpt lat="45.34964" lon="-0.98962">
        <ele>55.166122</ele>
        <time>2022-12-23T09:02:34.725Z</time>
      </trkpt>
      <trkpt lat="45.34957" lon="-0.98951">
        <ele>55.071412</ele>
        <time>2022-12-23T09:02:36.765Z</time>
      </trkpt>
      <trkpt lat="45.34951" lon="-0.98942">
        <ele>54.985332</ele>
        <time>2022-12-23T09:02:38.753Z</time>
      </trkpt>
      <trkpt lat="45.34944" lon="-0.98927">
        <ele>54.829897</ele>
        <time>2022-12-23T09:02:41.766Z</time>
      </trkpt>
      <trkpt lat="45.34936" lon="-0.98912">
        <ele>54.66804</ele>
        <time>2022-12-23T09:02:44.752Z</time>
      </trkpt>
      <trkpt lat="45.34928" lon="-0.98896">
        <ele>54.50626</ele>
        <time>2022-12-23T09:02:47.802Z</time>
      </trkpt>
      <trkpt lat="45.34921" lon="-0.98881">
        <ele>54.345185</ele>
        <time>2022-12-23T09:02:50.752Z</time>
      </trkpt>
      <trkpt lat="45.34914" lon="-0.98865">
        <ele>54.18322</ele>
        <time>2022-12-23T09:02:53.809Z</time>
      </trkpt>
      <trkpt lat="45.34907" lon="-0.98849">
        <ele>54.02233</ele>
        <time>2022-12-23T09:02:56.754Z</time>
      </trkpt>
      <trkpt lat="45.349" lon="-0.98833">
        <ele>53.868755</ele>
        <time>2022-12-23T09:02:59.818Z</time>
      </trkpt>
      <trkpt lat="45.34895" lon="-0.98823">
        <ele>53.757388</ele>
        <time>2022-12-23T09:03:01.730Z</time>
      </trkpt>
      <trkpt lat="45.3489" lon="-0.98812">
        <ele>53.643816</ele>
        <time>2022-12-23T09:03:03.750Z</time>
      </trkpt>
      <trkpt lat="45.34881" lon="-0.98796">
        <ele>53.475454</ele>
        <time>2022-12-23T09:03:06.730Z</time>
      </trkpt>
      <trkpt lat="45.34875" lon="-0.98786">
        <ele>53.355043</ele>
        <time>2022-12-23T09:03:08.748Z</time>
      </trkpt>
      <trkpt lat="45.34868" lon="-0.98774">
        <ele>53.22862</ele>
        <time>2022-12-23T09:03:10.731Z</time>
      </trkpt>
      <trkpt lat="45.34862" lon="-0.98763">
        <ele>53.110111</ele>
        <time>2022-12-23T09:03:12.752Z</time>
      </trkpt>
      <trkpt lat="45.34855" lon="-0.98752">
        <ele>52.984072</ele>
        <time>2022-12-23T09:03:14.749Z</time>
      </trkpt>
      <trkpt lat="45.34848" lon="-0.98742">
        <ele>52.856201</ele>
        <time>2022-12-23T09:03:16.830Z</time>
      </trkpt>
      <trkpt lat="45.34841" lon="-0.9873">
        <ele>52.774581</ele>
        <time>2022-12-23T09:03:18.751Z</time>
      </trkpt>
      <trkpt lat="45.34833" lon="-0.9872">
        <ele>52.736625</ele>
        <time>2022-12-23T09:03:20.739Z</time>
      </trkpt>
      <trkpt lat="45.34827" lon="-0.98709">
        <ele>52.699527</ele>
        <time>2022-12-23T09:03:22.797Z</time>
      </trkpt>
      <trkpt lat="45.34819" lon="-0.98699">
        <ele>52.663714</ele>
        <time>2022-12-23T09:03:24.748Z</time>
      </trkpt>
      <trkpt lat="45.34812" lon="-0.9869">
        <ele>52.629989</ele>
        <time>2022-12-23T09:03:26.750Z</time>
      </trkpt>
      <trkpt lat="45.34803" lon="-0.98677">
        <ele>52.584447</ele>
        <time>2022-12-23T09:03:29.752Z</time>
      </trkpt>
      <trkpt lat="45.34796" lon="-0.98669">
        <ele>52.551566</ele>
        <time>2022-12-23T09:03:31.741Z</time>
      </trkpt>
      <trkpt lat="45.3479" lon="-0.98659">
        <ele>52.519496</ele>
        <time>2022-12-23T09:03:33.754Z</time>
      </trkpt>
      <trkpt lat="45.34784" lon="-0.98649">
        <ele>52.485963</ele>
        <time>2022-12-23T09:03:35.761Z</time>
      </trkpt>
      <trkpt lat="45.34776" lon="-0.9864">
        <ele>52.45075</ele>
        <time>2022-12-23T09:03:37.752Z</time>
      </trkpt>
      <trkpt lat="45.34766" lon="-0.98627">
        <ele>52.402008</ele>
        <time>2022-12-23T09:03:40.803Z</time>
      </trkpt>
      <trkpt lat="45.34759" lon="-0.98617">
        <ele>52.366555</ele>
        <time>2022-12-23T09:03:42.737Z</time>
      </trkpt>
      <trkpt lat="45.34752" lon="-0.98608">
        <ele>52.333172</ele>
        <time>2022-12-23T09:03:44.752Z</time>
      </trkpt>
      <trkpt lat="45.34744" lon="-0.98595">
        <ele>52.289702</ele>
        <time>2022-12-23T09:03:47.761Z</time>
      </trkpt>
      <trkpt lat="45.34735" lon="-0.98583">
        <ele>52.24554</ele>
        <time>2022-12-23T09:03:50.753Z</time>
      </trkpt>
      <trkpt lat="45.34725" lon="-0.98571">
        <ele>52.199033</ele>
        <time>2022-12-23T09:03:53.753Z</time>
      </trkpt>
      <trkpt lat="45.34715" lon="-0.98558">
        <ele>52.158555</ele>
        <time>2022-12-23T09:03:56.753Z</time>
      </trkpt>
      <trkpt lat="45.34705" lon="-0.98545">
        <ele>52.319334</ele>
        <time>2022-12-23T09:03:59.749Z</time>
      </trkpt>
      <trkpt lat="45.34698" lon="-0.98536">
        <ele>52.433899</ele>
        <time>2022-12-23T09:04:01.753Z</time>
      </trkpt>
      <trkpt lat="45.3469" lon="-0.98526">
        <ele>52.55186</ele>
        <time>2022-12-23T09:04:03.750Z</time>
      </trkpt>
      <trkpt lat="45.34683" lon="-0.98517">
        <ele>52.665556</ele>
        <time>2022-12-23T09:04:05.747Z</time>
      </trkpt>
      <trkpt lat="45.34674" lon="-0.98504">
        <ele>52.820855</ele>
        <time>2022-12-23T09:04:08.752Z</time>
      </trkpt>
      <trkpt lat="45.34665" lon="-0.98494">
        <ele>52.95745</ele>
        <time>2022-12-23T09:04:11.749Z</time>
      </trkpt>
      <trkpt lat="45.34656" lon="-0.98483">
        <ele>53.090832</ele>
        <time>2022-12-23T09:04:14.752Z</time>
      </trkpt>
      <trkpt lat="45.34647" lon="-0.98472">
        <ele>53.233129</ele>
        <time>2022-12-23T09:04:17.754Z</time>
      </trkpt>
      <trkpt lat="45.34638" lon="-0.9846">
        <ele>53.378644</ele>
        <time>2022-12-23T09:04:20.755Z</time>
      </trkpt>
      <trkpt lat="45.34631" lon="-0.98452">
        <ele>53.48638</ele>
        <time>2022-12-23T09:04:22.805Z</time>
      </trkpt>
      <trkpt lat="45.3462" lon="-0.9844">
        <ele>53.641258</ele>
        <time>2022-12-23T09:04:25.751Z</time>
      </trkpt>
      <trkpt lat="45.34612" lon="-0.98433">
        <ele>53.757993</ele>
        <time>2022-12-23T09:04:27.755Z</time>
      </trkpt>
      <trkpt lat="45.34605" lon="-0.98425">
        <ele>53.866024</ele>
        <time>2022-12-23T09:04:29.750Z</time>
      </trkpt>
      <trkpt lat="45.34597" lon="-0.98418">
        <ele>53.976425</ele>
        <time>2022-12-23T09:04:31.753Z</time>
      </trkpt>
      <trkpt lat="45.34589" lon="-0.9841">
        <ele>54.093614</ele>
        <time>2022-12-23T09:04:33.757Z</time>
      </trkpt>
      <trkpt lat="45.34581" lon="-0.98402">
        <ele>54.203062</ele>
        <time>2022-12-23T09:04:35.752Z</time>
      </trkpt>
      <trkpt lat="45.34573" lon="-0.98395">
        <ele>54.276973</ele>
        <time>2022-12-23T09:04:37.751Z</time>
      </trkpt>
      <trkpt lat="45.34562" lon="-0.98385">
        <ele>54.296403</ele>
        <time>2022-12-23T09:04:40.806Z</time>
      </trkpt>
      <trkpt lat="45.3455" lon="-0.98377">
        <ele>54.315081</ele>
        <time>2022-12-23T09:04:43.749Z</time>
      </trkpt>
      <trkpt lat="45.34539" lon="-0.98368">
        <ele>54.332808</ele>
        <time>2022-12-23T09:04:46.803Z</time>
      </trkpt>
      <trkpt lat="45.3453" lon="-0.98361">
        <ele>54.347827</ele>
        <time>2022-12-23T09:04:49.755Z</time>
      </trkpt>
      <trkpt lat="45.34521" lon="-0.98354">
        <ele>54.362597</ele>
        <time>2022-12-23T09:04:52.801Z</time>
      </trkpt>
      <trkpt lat="45.34512" lon="-0.98345">
        <ele>54.378907</ele>
        <time>2022-12-23T09:04:55.748Z</time>
      </trkpt>
      <trkpt lat="45.34502" lon="-0.98337">
        <ele>54.394926</ele>
        <time>2022-12-23T09:04:58.798Z</time>
      </trkpt>
      <trkpt lat="45.34492" lon="-0.98331">
        <ele>54.410428</ele>
        <time>2022-12-23T09:05:01.753Z</time>
      </trkpt>
      <trkpt lat="45.34482" lon="-0.98323">
        <ele>54.42695</ele>
        <time>2022-12-23T09:05:04.736Z</time>
      </trkpt>
      <trkpt lat="45.34471" lon="-0.98315">
        <ele>54.444329</ele>
        <time>2022-12-23T09:05:07.754Z</time>
      </trkpt>
      <trkpt lat="45.34461" lon="-0.98307">
        <ele>54.460836</ele>
        <time>2022-12-23T09:05:10.737Z</time>
      </trkpt>
      <trkpt lat="45.34452" lon="-0.983">
        <ele>54.476438</ele>
        <time>2022-12-23T09:05:13.750Z</time>
      </trkpt>
      <trkpt lat="45.34442" lon="-0.98293">
        <ele>54.491733</ele>
        <time>2022-12-23T09:05:16.755Z</time>
      </trkpt>
      <trkpt lat="45.34433" lon="-0.98285">
        <ele>54.507353</ele>
        <time>2022-12-23T09:05:19.755Z</time>
      </trkpt>
      <trkpt lat="45.34423" lon="-0.98277">
        <ele>54.523698</ele>
        <time>2022-12-23T09:05:22.760Z</time>
      </trkpt>
      <trkpt lat="45.34413" lon="-0.98269">
        <ele>54.574512</ele>
        <time>2022-12-23T09:05:25.751Z</time>
      </trkpt>
      <trkpt lat="45.34403" lon="-0.98262">
        <ele>54.649087</ele>
        <time>2022-12-23T09:05:28.737Z</time>
      </trkpt>
      <trkpt lat="45.34393" lon="-0.98253">
        <ele>54.719911</ele>
        <time>2022-12-23T09:05:31.756Z</time>
      </trkpt>
      <trkpt lat="45.34383" lon="-0.98245">
        <ele>54.794994</ele>
        <time>2022-12-23T09:05:34.752Z</time>
      </trkpt>
      <trkpt lat="45.34373" lon="-0.98238">
        <ele>54.868059</ele>
        <time>2022-12-23T09:05:37.762Z</time>
      </trkpt>
      <trkpt lat="45.34363" lon="-0.98231">
        <ele>54.943569</ele>
        <time>2022-12-23T09:05:40.756Z</time>
      </trkpt>
      <trkpt lat="45.34353" lon="-0.98223">
        <ele>55.019301</ele>
        <time>2022-12-23T09:05:43.734Z</time>
      </trkpt>
      <trkpt lat="45.34342" lon="-0.98215">
        <ele>55.096449</ele>
        <time>2022-12-23T09:05:46.751Z</time>
      </trkpt>
      <trkpt lat="45.34332" lon="-0.98207">
        <ele>55.17131</ele>
        <time>2022-12-23T09:05:49.751Z</time>
      </trkpt>
      <trkpt lat="45.34322" lon="-0.98199">
        <ele>55.249671</ele>
        <time>2022-12-23T09:05:52.747Z</time>
      </trkpt>
      <trkpt lat="45.34311" lon="-0.9819">
        <ele>55.327629</ele>
        <time>2022-12-23T09:05:55.752Z</time>
      </trkpt>
      <trkpt lat="45.34301" lon="-0.98181">
        <ele>55.404514</ele>
        <time>2022-12-23T09:05:58.752Z</time>
      </trkpt>
      <trkpt lat="45.34292" lon="-0.98174">
        <ele>55.475425</ele>
        <time>2022-12-23T09:06:01.748Z</time>
      </trkpt>
      <trkpt lat="45.34282" lon="-0.98166">
        <ele>55.546106</ele>
        <time>2022-12-23T09:06:04.747Z</time>
      </trkpt>
      <trkpt lat="45.34273" lon="-0.98158">
        <ele>55.618278</ele>
        <time>2022-12-23T09:06:07.756Z</time>
      </trkpt>
      <trkpt lat="45.34263" lon="-0.98149">
        <ele>55.694265</ele>
        <time>2022-12-23T09:06:10.812Z</time>
      </trkpt>
      <trkpt lat="45.34252" lon="-0.98141">
        <ele>55.756762</ele>
        <time>2022-12-23T09:06:13.754Z</time>
      </trkpt>
      <trkpt lat="45.34242" lon="-0.98132">
        <ele>55.821085</ele>
        <time>2022-12-23T09:06:16.814Z</time>
      </trkpt>
      <trkpt lat="45.3423" lon="-0.98123">
        <ele>55.887564</ele>
        <time>2022-12-23T09:06:19.765Z</time>
      </trkpt>
      <trkpt lat="45.34219" lon="-0.98113">
        <ele>55.95508</ele>
        <time>2022-12-23T09:06:22.798Z</time>
      </trkpt>
      <trkpt lat="45.34208" lon="-0.98104">
        <ele>56.023718</ele>
        <time>2022-12-23T09:06:25.754Z</time>
      </trkpt>
      <trkpt lat="45.342" lon="-0.98097">
        <ele>56.070702</ele>
        <time>2022-12-23T09:06:27.754Z</time>
      </trkpt>
      <trkpt lat="45.34192" lon="-0.98091">
        <ele>56.117421</ele>
        <time>2022-12-23T09:06:29.758Z</time>
      </trkpt>
      <trkpt lat="45.3418" lon="-0.98081">
        <ele>56.187493</ele>
        <time>2022-12-23T09:06:32.731Z</time>
      </trkpt>
      <trkpt lat="45.34169" lon="-0.98071">
        <ele>56.257151</ele>
        <time>2022-12-23T09:06:35.751Z</time>
      </trkpt>
      <trkpt lat="45.34161" lon="-0.98065">
        <ele>56.304871</ele>
        <time>2022-12-23T09:06:37.751Z</time>
      </trkpt>
      <trkpt lat="45.34153" lon="-0.98058">
        <ele>56.353852</ele>
        <time>2022-12-23T09:06:39.749Z</time>
      </trkpt>
      <trkpt lat="45.34145" lon="-0.9805">
        <ele>56.402937</ele>
        <time>2022-12-23T09:06:41.762Z</time>
      </trkpt>
      <trkpt lat="45.34137" lon="-0.98044">
        <ele>56.450134</ele>
        <time>2022-12-23T09:06:43.759Z</time>
      </trkpt>
      <trkpt lat="45.34129" lon="-0.98038">
        <ele>56.497671</ele>
        <time>2022-12-23T09:06:45.756Z</time>
      </trkpt>
      <trkpt lat="45.34121" lon="-0.98032">
        <ele>56.54441</ele>
        <time>2022-12-23T09:06:47.739Z</time>
      </trkpt>
      <trkpt lat="45.34109" lon="-0.98024">
        <ele>56.61057</ele>
        <time>2022-12-23T09:06:50.753Z</time>
      </trkpt>
      <trkpt lat="45.34097" lon="-0.98015">
        <ele>56.55644</ele>
        <time>2022-12-23T09:06:53.750Z</time>
      </trkpt>
      <trkpt lat="45.34085" lon="-0.98006">
        <ele>56.460406</ele>
        <time>2022-12-23T09:06:56.753Z</time>
      </trkpt>
      <trkpt lat="45.34074" lon="-0.97998">
        <ele>56.363965</ele>
        <time>2022-12-23T09:06:59.754Z</time>
      </trkpt>
      <trkpt lat="45.34065" lon="-0.97992">
        <ele>56.297524</ele>
        <time>2022-12-23T09:07:01.746Z</time>
      </trkpt>
      <trkpt lat="45.34053" lon="-0.97984">
        <ele>56.201576</ele>
        <time>2022-12-23T09:07:04.798Z</time>
      </trkpt>
      <trkpt lat="45.34041" lon="-0.97977">
        <ele>56.10713</ele>
        <time>2022-12-23T09:07:07.734Z</time>
      </trkpt>
      <trkpt lat="45.34033" lon="-0.97971">
        <ele>56.041113</ele>
        <time>2022-12-23T09:07:09.750Z</time>
      </trkpt>
      <trkpt lat="45.34022" lon="-0.97964">
        <ele>55.95105</ele>
        <time>2022-12-23T09:07:12.749Z</time>
      </trkpt>
      <trkpt lat="45.34011" lon="-0.97957">
        <ele>55.861257</ele>
        <time>2022-12-23T09:07:15.753Z</time>
      </trkpt>
      <trkpt lat="45.33999" lon="-0.9795">
        <ele>55.77041</ele>
        <time>2022-12-23T09:07:18.753Z</time>
      </trkpt>
      <trkpt lat="45.33987" lon="-0.97944">
        <ele>55.67845</ele>
        <time>2022-12-23T09:07:21.731Z</time>
      </trkpt>
      <trkpt lat="45.33975" lon="-0.97938">
        <ele>55.58835</ele>
        <time>2022-12-23T09:07:24.733Z</time>
      </trkpt>
      <trkpt lat="45.33964" lon="-0.97931">
        <ele>55.49923</ele>
        <time>2022-12-23T09:07:27.735Z</time>
      </trkpt>
      <trkpt lat="45.33953" lon="-0.97925">
        <ele>55.409726</ele>
        <time>2022-12-23T09:07:30.750Z</time>
      </trkpt>
      <trkpt lat="45.3394" lon="-0.97919">
        <ele>55.315461</ele>
        <time>2022-12-23T09:07:33.749Z</time>
      </trkpt>
      <trkpt lat="45.33928" lon="-0.97913">
        <ele>55.22877</ele>
        <time>2022-12-23T09:07:36.759Z</time>
      </trkpt>
      <trkpt lat="45.33916" lon="-0.97906">
        <ele>55.145036</ele>
        <time>2022-12-23T09:07:39.749Z</time>
      </trkpt>
      <trkpt lat="45.33905" lon="-0.979">
        <ele>55.064674</ele>
        <time>2022-12-23T09:07:42.733Z</time>
      </trkpt>
      <trkpt lat="45.33894" lon="-0.97893">
        <ele>54.985464</ele>
        <time>2022-12-23T09:07:45.748Z</time>
      </trkpt>
      <trkpt lat="45.33883" lon="-0.97885">
        <ele>54.905463</ele>
        <time>2022-12-23T09:07:48.752Z</time>
      </trkpt>
      <trkpt lat="45.33872" lon="-0.97876">
        <ele>54.822856</ele>
        <time>2022-12-23T09:07:51.748Z</time>
      </trkpt>
      <trkpt lat="45.33861" lon="-0.97867">
        <ele>54.739273</ele>
        <time>2022-12-23T09:07:54.746Z</time>
      </trkpt>
      <trkpt lat="45.33851" lon="-0.97857">
        <ele>54.654383</ele>
        <time>2022-12-23T09:07:57.741Z</time>
      </trkpt>
      <trkpt lat="45.33841" lon="-0.97847">
        <ele>54.575698</ele>
        <time>2022-12-23T09:08:00.747Z</time>
      </trkpt>
      <trkpt lat="45.33831" lon="-0.97839">
        <ele>54.499988</ele>
        <time>2022-12-23T09:08:03.747Z</time>
      </trkpt>
      <trkpt lat="45.33821" lon="-0.97829">
        <ele>54.421632</ele>
        <time>2022-12-23T09:08:06.753Z</time>
      </trkpt>
      <trkpt lat="45.33811" lon="-0.9782">
        <ele>54.341027</ele>
        <time>2022-12-23T09:08:09.748Z</time>
      </trkpt>
      <trkpt lat="45.33801" lon="-0.9781">
        <ele>54.259615</ele>
        <time>2022-12-23T09:08:12.748Z</time>
      </trkpt>
      <trkpt lat="45.3379" lon="-0.97802">
        <ele>54.180468</ele>
        <time>2022-12-23T09:08:15.751Z</time>
      </trkpt>
      <trkpt lat="45.3378" lon="-0.97792">
        <ele>54.136666</ele>
        <time>2022-12-23T09:08:18.751Z</time>
      </trkpt>
      <trkpt lat="45.33769" lon="-0.97783">
        <ele>54.140223</ele>
        <time>2022-12-23T09:08:21.763Z</time>
      </trkpt>
      <trkpt lat="45.33758" lon="-0.97774">
        <ele>54.144164</ele>
        <time>2022-12-23T09:08:24.751Z</time>
      </trkpt>
      <trkpt lat="45.33747" lon="-0.97763">
        <ele>54.14806</ele>
        <time>2022-12-23T09:08:27.734Z</time>
      </trkpt>
      <trkpt lat="45.3374" lon="-0.97756">
        <ele>54.150743</ele>
        <time>2022-12-23T09:08:29.748Z</time>
      </trkpt>
      <trkpt lat="45.33731" lon="-0.97748">
        <ele>54.153719</ele>
        <time>2022-12-23T09:08:31.748Z</time>
      </trkpt>
      <trkpt lat="45.33723" lon="-0.97741">
        <ele>54.156488</ele>
        <time>2022-12-23T09:08:33.751Z</time>
      </trkpt>
      <trkpt lat="45.33713" lon="-0.97734">
        <ele>54.159874</ele>
        <time>2022-12-23T09:08:36.757Z</time>
      </trkpt>
      <trkpt lat="45.33705" lon="-0.97727">
        <ele>54.162748</ele>
        <time>2022-12-23T09:08:38.801Z</time>
      </trkpt>
      <trkpt lat="45.33693" lon="-0.97719">
        <ele>54.166658</ele>
        <time>2022-12-23T09:08:41.750Z</time>
      </trkpt>
      <trkpt lat="45.33685" lon="-0.97713">
        <ele>54.169403</ele>
        <time>2022-12-23T09:08:43.748Z</time>
      </trkpt>
      <trkpt lat="45.33676" lon="-0.97707">
        <ele>54.172372</ele>
        <time>2022-12-23T09:08:45.727Z</time>
      </trkpt>
      <trkpt lat="45.33663" lon="-0.97699">
        <ele>54.176464</ele>
        <time>2022-12-23T09:08:48.754Z</time>
      </trkpt>
      <trkpt lat="45.33655" lon="-0.97694">
        <ele>54.179137</ele>
        <time>2022-12-23T09:08:50.749Z</time>
      </trkpt>
      <trkpt lat="45.33646" lon="-0.97688">
        <ele>54.182061</ele>
        <time>2022-12-23T09:08:52.751Z</time>
      </trkpt>
      <trkpt lat="45.33638" lon="-0.97682">
        <ele>54.184826</ele>
        <time>2022-12-23T09:08:54.726Z</time>
      </trkpt>
      <trkpt lat="45.33626" lon="-0.97674">
        <ele>54.20719</ele>
        <time>2022-12-23T09:08:57.752Z</time>
      </trkpt>
      <trkpt lat="45.33615" lon="-0.97666">
        <ele>54.638859</ele>
        <time>2022-12-23T09:09:00.813Z</time>
      </trkpt>
      <trkpt lat="45.33607" lon="-0.97661">
        <ele>54.943771</ele>
        <time>2022-12-23T09:09:02.733Z</time>
      </trkpt>
      <trkpt lat="45.33594" lon="-0.97654">
        <ele>55.391446</ele>
        <time>2022-12-23T09:09:05.761Z</time>
      </trkpt>
      <trkpt lat="45.33586" lon="-0.97648">
        <ele>55.706833</ele>
        <time>2022-12-23T09:09:07.752Z</time>
      </trkpt>
      <trkpt lat="45.33578" lon="-0.97641">
        <ele>56.026339</ele>
        <time>2022-12-23T09:09:09.749Z</time>
      </trkpt>
      <trkpt lat="45.33569" lon="-0.97636">
        <ele>56.344505</ele>
        <time>2022-12-23T09:09:11.749Z</time>
      </trkpt>
      <trkpt lat="45.33558" lon="-0.97628">
        <ele>56.776225</ele>
        <time>2022-12-23T09:09:14.748Z</time>
      </trkpt>
      <trkpt lat="45.33547" lon="-0.9762">
        <ele>57.195644</ele>
        <time>2022-12-23T09:09:17.739Z</time>
      </trkpt>
      <trkpt lat="45.33536" lon="-0.97612">
        <ele>57.624322</ele>
        <time>2022-12-23T09:09:20.750Z</time>
      </trkpt>
      <trkpt lat="45.33527" lon="-0.97606">
        <ele>57.940837</ele>
        <time>2022-12-23T09:09:22.801Z</time>
      </trkpt>
      <trkpt lat="45.33519" lon="-0.97599">
        <ele>58.273481</ele>
        <time>2022-12-23T09:09:24.751Z</time>
      </trkpt>
      <trkpt lat="45.33506" lon="-0.9759">
        <ele>58.745186</ele>
        <time>2022-12-23T09:09:27.753Z</time>
      </trkpt>
      <trkpt lat="45.33498" lon="-0.97585">
        <ele>59.060717</ele>
        <time>2022-12-23T09:09:29.756Z</time>
      </trkpt>
      <trkpt lat="45.33486" lon="-0.97578">
        <ele>59.506168</ele>
        <time>2022-12-23T09:09:32.751Z</time>
      </trkpt>
      <trkpt lat="45.33477" lon="-0.97573">
        <ele>59.814186</ele>
        <time>2022-12-23T09:09:34.766Z</time>
      </trkpt>
      <trkpt lat="45.33466" lon="-0.97566">
        <ele>60.226833</ele>
        <time>2022-12-23T09:09:37.753Z</time>
      </trkpt>
      <trkpt lat="45.33455" lon="-0.97559">
        <ele>60.361159</ele>
        <time>2022-12-23T09:09:40.796Z</time>
      </trkpt>
      <trkpt lat="45.33443" lon="-0.97551">
        <ele>60.440801</ele>
        <time>2022-12-23T09:09:43.753Z</time>
      </trkpt>
      <trkpt lat="45.3343" lon="-0.97543">
        <ele>60.520948</ele>
        <time>2022-12-23T09:09:46.810Z</time>
      </trkpt>
      <trkpt lat="45.33422" lon="-0.97539">
        <ele>60.575783</ele>
        <time>2022-12-23T09:09:48.753Z</time>
      </trkpt>
      <trkpt lat="45.33409" lon="-0.97531">
        <ele>60.657598</ele>
        <time>2022-12-23T09:09:51.750Z</time>
      </trkpt>
      <trkpt lat="45.33401" lon="-0.97524">
        <ele>60.715794</ele>
        <time>2022-12-23T09:09:53.748Z</time>
      </trkpt>
      <trkpt lat="45.33389" lon="-0.97516">
        <ele>60.794353</ele>
        <time>2022-12-23T09:09:56.749Z</time>
      </trkpt>
      <trkpt lat="45.33378" lon="-0.97509">
        <ele>60.867134</ele>
        <time>2022-12-23T09:09:59.751Z</time>
      </trkpt>
      <trkpt lat="45.33368" lon="-0.97502">
        <ele>60.93522</ele>
        <time>2022-12-23T09:10:02.746Z</time>
      </trkpt>
      <trkpt lat="45.33357" lon="-0.97495">
        <ele>61.004769</ele>
        <time>2022-12-23T09:10:05.749Z</time>
      </trkpt>
      <trkpt lat="45.33346" lon="-0.97488">
        <ele>61.07755</ele>
        <time>2022-12-23T09:10:08.755Z</time>
      </trkpt>
      <trkpt lat="45.33335" lon="-0.9748">
        <ele>61.15377</ele>
        <time>2022-12-23T09:10:11.748Z</time>
      </trkpt>
      <trkpt lat="45.33323" lon="-0.97472">
        <ele>61.233238</ele>
        <time>2022-12-23T09:10:14.764Z</time>
      </trkpt>
      <trkpt lat="45.33311" lon="-0.97463">
        <ele>61.313617</ele>
        <time>2022-12-23T09:10:17.753Z</time>
      </trkpt>
      <trkpt lat="45.33299" lon="-0.97455">
        <ele>61.368342</ele>
        <time>2022-12-23T09:10:20.764Z</time>
      </trkpt>
      <trkpt lat="45.33287" lon="-0.97446">
        <ele>61.334921</ele>
        <time>2022-12-23T09:10:23.752Z</time>
      </trkpt>
      <trkpt lat="45.33275" lon="-0.97439">
        <ele>61.301034</ele>
        <time>2022-12-23T09:10:26.762Z</time>
      </trkpt>
      <trkpt lat="45.33264" lon="-0.9743">
        <ele>61.26722</ele>
        <time>2022-12-23T09:10:29.756Z</time>
      </trkpt>
      <trkpt lat="45.33252" lon="-0.97423">
        <ele>61.233097</ele>
        <time>2022-12-23T09:10:32.733Z</time>
      </trkpt>
      <trkpt lat="45.33243" lon="-0.97418">
        <ele>61.209785</ele>
        <time>2022-12-23T09:10:34.801Z</time>
      </trkpt>
      <trkpt lat="45.33235" lon="-0.97412">
        <ele>61.184998</ele>
        <time>2022-12-23T09:10:36.736Z</time>
      </trkpt>
      <trkpt lat="45.33226" lon="-0.97407">
        <ele>61.161893</ele>
        <time>2022-12-23T09:10:38.754Z</time>
      </trkpt>
      <trkpt lat="45.33218" lon="-0.97403">
        <ele>61.138412</ele>
        <time>2022-12-23T09:10:40.822Z</time>
      </trkpt>
      <trkpt lat="45.33209" lon="-0.97397">
        <ele>61.11403</ele>
        <time>2022-12-23T09:10:42.750Z</time>
      </trkpt>
      <trkpt lat="45.33201" lon="-0.97391">
        <ele>61.090494</ele>
        <time>2022-12-23T09:10:44.751Z</time>
      </trkpt>
      <trkpt lat="45.33193" lon="-0.97384">
        <ele>61.06599</ele>
        <time>2022-12-23T09:10:46.749Z</time>
      </trkpt>
      <trkpt lat="45.33182" lon="-0.97376">
        <ele>61.033724</ele>
        <time>2022-12-23T09:10:49.751Z</time>
      </trkpt>
      <trkpt lat="45.33173" lon="-0.9737">
        <ele>61.008935</ele>
        <time>2022-12-23T09:10:51.752Z</time>
      </trkpt>
      <trkpt lat="45.33165" lon="-0.97363">
        <ele>60.984517</ele>
        <time>2022-12-23T09:10:53.754Z</time>
      </trkpt>
      <trkpt lat="45.33158" lon="-0.97355">
        <ele>60.960385</ele>
        <time>2022-12-23T09:10:55.764Z</time>
      </trkpt>
      <trkpt lat="45.3315" lon="-0.97349">
        <ele>60.936059</ele>
        <time>2022-12-23T09:10:57.751Z</time>
      </trkpt>
      <trkpt lat="45.33142" lon="-0.97341">
        <ele>60.911279</ele>
        <time>2022-12-23T09:10:59.764Z</time>
      </trkpt>
      <trkpt lat="45.33134" lon="-0.97334">
        <ele>60.898576</ele>
        <time>2022-12-23T09:11:01.728Z</time>
      </trkpt>
      <trkpt lat="45.33127" lon="-0.97326">
        <ele>60.885991</ele>
        <time>2022-12-23T09:11:03.757Z</time>
      </trkpt>
      <trkpt lat="45.33118" lon="-0.97316">
        <ele>60.870762</ele>
        <time>2022-12-23T09:11:06.765Z</time>
      </trkpt>
      <trkpt lat="45.33109" lon="-0.97306">
        <ele>60.855675</ele>
        <time>2022-12-23T09:11:09.757Z</time>
      </trkpt>
      <trkpt lat="45.331" lon="-0.97295">
        <ele>60.839812</ele>
        <time>2022-12-23T09:11:12.753Z</time>
      </trkpt>
      <trkpt lat="45.33091" lon="-0.97283">
        <ele>60.823268</ele>
        <time>2022-12-23T09:11:15.752Z</time>
      </trkpt>
      <trkpt lat="45.33082" lon="-0.97272">
        <ele>60.80685</ele>
        <time>2022-12-23T09:11:18.753Z</time>
      </trkpt>
      <trkpt lat="45.33073" lon="-0.97261">
        <ele>60.790393</ele>
        <time>2022-12-23T09:11:21.763Z</time>
      </trkpt>
      <trkpt lat="45.33063" lon="-0.97249">
        <ele>60.773749</ele>
        <time>2022-12-23T09:11:24.753Z</time>
      </trkpt>
      <trkpt lat="45.33054" lon="-0.97237">
        <ele>60.756431</ele>
        <time>2022-12-23T09:11:27.754Z</time>
      </trkpt>
      <trkpt lat="45.33045" lon="-0.97226">
        <ele>60.740427</ele>
        <time>2022-12-23T09:11:30.751Z</time>
      </trkpt>
      <trkpt lat="45.33036" lon="-0.97215">
        <ele>60.724586</ele>
        <time>2022-12-23T09:11:33.752Z</time>
      </trkpt>
      <trkpt lat="45.33027" lon="-0.97204">
        <ele>60.709012</ele>
        <time>2022-12-23T09:11:36.749Z</time>
      </trkpt>
      <trkpt lat="45.33018" lon="-0.97194">
        <ele>60.693416</ele>
        <time>2022-12-23T09:11:39.750Z</time>
      </trkpt>
      <trkpt lat="45.3301" lon="-0.97183">
        <ele>60.677853</ele>
        <time>2022-12-23T09:11:42.736Z</time>
      </trkpt>
      <trkpt lat="45.33001" lon="-0.97172">
        <ele>60.661586</ele>
        <time>2022-12-23T09:11:45.751Z</time>
      </trkpt>
      <trkpt lat="45.32992" lon="-0.97161">
        <ele>60.644749</ele>
        <time>2022-12-23T09:11:48.754Z</time>
      </trkpt>
      <trkpt lat="45.32983" lon="-0.9715">
        <ele>60.62763</ele>
        <time>2022-12-23T09:11:51.812Z</time>
      </trkpt>
      <trkpt lat="45.32974" lon="-0.97139">
        <ele>60.611467</ele>
        <time>2022-12-23T09:11:54.752Z</time>
      </trkpt>
      <trkpt lat="45.32966" lon="-0.97129">
        <ele>60.595304</ele>
        <time>2022-12-23T09:11:57.794Z</time>
      </trkpt>
      <trkpt lat="45.32957" lon="-0.97118">
        <ele>60.579464</ele>
        <time>2022-12-23T09:12:00.741Z</time>
      </trkpt>
      <trkpt lat="45.3295" lon="-0.97106">
        <ele>60.563345</ele>
        <time>2022-12-23T09:12:03.806Z</time>
      </trkpt>
      <trkpt lat="45.32942" lon="-0.97094">
        <ele>60.54691</ele>
        <time>2022-12-23T09:12:06.752Z</time>
      </trkpt>
      <trkpt lat="45.32934" lon="-0.97082">
        <ele>60.530848</ele>
        <time>2022-12-23T09:12:09.819Z</time>
      </trkpt>
      <trkpt lat="45.32928" lon="-0.97069">
        <ele>60.514199</ele>
        <time>2022-12-23T09:12:12.754Z</time>
      </trkpt>
      <trkpt lat="45.32921" lon="-0.97054">
        <ele>60.497184</ele>
        <time>2022-12-23T09:12:15.823Z</time>
      </trkpt>
      <trkpt lat="45.32915" lon="-0.9704">
        <ele>60.480363</ele>
        <time>2022-12-23T09:12:18.754Z</time>
      </trkpt>
      <trkpt lat="45.3291" lon="-0.97027">
        <ele>60.464878</ele>
        <time>2022-12-23T09:12:21.768Z</time>
      </trkpt>
      <trkpt lat="45.32904" lon="-0.97014">
        <ele>60.44994</ele>
        <time>2022-12-23T09:12:24.752Z</time>
      </trkpt>
      <trkpt lat="45.32899" lon="-0.97002">
        <ele>60.435305</ele>
        <time>2022-12-23T09:12:27.805Z</time>
      </trkpt>
      <trkpt lat="45.32893" lon="-0.96988">
        <ele>60.419186</ele>
        <time>2022-12-23T09:12:30.766Z</time>
      </trkpt>
      <trkpt lat="45.32887" lon="-0.96973">
        <ele>60.370571</ele>
        <time>2022-12-23T09:12:33.812Z</time>
      </trkpt>
      <trkpt lat="45.32879" lon="-0.96958">
        <ele>60.292706</ele>
        <time>2022-12-23T09:12:36.751Z</time>
      </trkpt>
      <trkpt lat="45.32874" lon="-0.96946">
        <ele>60.235885</ele>
        <time>2022-12-23T09:12:38.752Z</time>
      </trkpt>
      <trkpt lat="45.32869" lon="-0.96934">
        <ele>60.178584</ele>
        <time>2022-12-23T09:12:40.741Z</time>
      </trkpt>
      <trkpt lat="45.32865" lon="-0.96923">
        <ele>60.122565</ele>
        <time>2022-12-23T09:12:42.759Z</time>
      </trkpt>
      <trkpt lat="45.32858" lon="-0.96906">
        <ele>60.041768</ele>
        <time>2022-12-23T09:12:45.817Z</time>
      </trkpt>
      <trkpt lat="45.32851" lon="-0.9689">
        <ele>59.964171</ele>
        <time>2022-12-23T09:12:48.765Z</time>
      </trkpt>
      <trkpt lat="45.32845" lon="-0.96875">
        <ele>59.886826</ele>
        <time>2022-12-23T09:12:51.803Z</time>
      </trkpt>
      <trkpt lat="45.32839" lon="-0.96858">
        <ele>59.809433</ele>
        <time>2022-12-23T09:12:54.758Z</time>
      </trkpt>
      <trkpt lat="45.32833" lon="-0.96842">
        <ele>59.731949</ele>
        <time>2022-12-23T09:12:57.800Z</time>
      </trkpt>
      <trkpt lat="45.32826" lon="-0.96826">
        <ele>59.653531</ele>
        <time>2022-12-23T09:13:00.746Z</time>
      </trkpt>
      <trkpt lat="45.32822" lon="-0.96814">
        <ele>59.598582</ele>
        <time>2022-12-23T09:13:02.733Z</time>
      </trkpt>
      <trkpt lat="45.32817" lon="-0.96803">
        <ele>59.542563</ele>
        <time>2022-12-23T09:13:04.762Z</time>
      </trkpt>
      <trkpt lat="45.32813" lon="-0.96791">
        <ele>59.485372</ele>
        <time>2022-12-23T09:13:06.750Z</time>
      </trkpt>
      <trkpt lat="45.32807" lon="-0.96773">
        <ele>59.404399</ele>
        <time>2022-12-23T09:13:09.734Z</time>
      </trkpt>
      <trkpt lat="45.32803" lon="-0.96761">
        <ele>59.348699</ele>
        <time>2022-12-23T09:13:11.751Z</time>
      </trkpt>
      <trkpt lat="45.32797" lon="-0.96745">
        <ele>59.405212</ele>
        <time>2022-12-23T09:13:14.804Z</time>
      </trkpt>
      <trkpt lat="45.3279" lon="-0.96728">
        <ele>59.493467</ele>
        <time>2022-12-23T09:13:17.752Z</time>
      </trkpt>
      <trkpt lat="45.32784" lon="-0.96712">
        <ele>59.576488</ele>
        <time>2022-12-23T09:13:20.778Z</time>
      </trkpt>
      <trkpt lat="45.32779" lon="-0.96696">
        <ele>59.659848</ele>
        <time>2022-12-23T09:13:23.757Z</time>
      </trkpt>
      <trkpt lat="45.32773" lon="-0.9668">
        <ele>59.741032</ele>
        <time>2022-12-23T09:13:26.751Z</time>
      </trkpt>
      <trkpt lat="45.32767" lon="-0.96665">
        <ele>59.822215</ele>
        <time>2022-12-23T09:13:29.752Z</time>
      </trkpt>
      <trkpt lat="45.32761" lon="-0.96649">
        <ele>59.90489</ele>
        <time>2022-12-23T09:13:32.761Z</time>
      </trkpt>
      <trkpt lat="45.32755" lon="-0.96634">
        <ele>59.985789</ele>
        <time>2022-12-23T09:13:35.767Z</time>
      </trkpt>
      <trkpt lat="45.32749" lon="-0.96619">
        <ele>60.06701</ele>
        <time>2022-12-23T09:13:38.745Z</time>
      </trkpt>
      <trkpt lat="45.32744" lon="-0.96605">
        <ele>60.136966</ele>
        <time>2022-12-23T09:13:41.755Z</time>
      </trkpt>
      <trkpt lat="45.32739" lon="-0.96593">
        <ele>60.200802</ele>
        <time>2022-12-23T09:13:44.751Z</time>
      </trkpt>
      <trkpt lat="45.32734" lon="-0.9658">
        <ele>60.27078</ele>
        <time>2022-12-23T09:13:47.762Z</time>
      </trkpt>
      <trkpt lat="45.32729" lon="-0.96566">
        <ele>60.344518</ele>
        <time>2022-12-23T09:13:50.753Z</time>
      </trkpt>
      <trkpt lat="45.32724" lon="-0.96552">
        <ele>60.418151</ele>
        <time>2022-12-23T09:13:53.754Z</time>
      </trkpt>
      <trkpt lat="45.32719" lon="-0.96537">
        <ele>60.492728</ele>
        <time>2022-12-23T09:13:56.752Z</time>
      </trkpt>
      <trkpt lat="45.32713" lon="-0.96522">
        <ele>60.537437</ele>
        <time>2022-12-23T09:13:59.755Z</time>
      </trkpt>
      <trkpt lat="45.32708" lon="-0.96508">
        <ele>60.568686</ele>
        <time>2022-12-23T09:14:02.751Z</time>
      </trkpt>
      <trkpt lat="45.32702" lon="-0.96493">
        <ele>60.600685</ele>
        <time>2022-12-23T09:14:05.752Z</time>
      </trkpt>
      <trkpt lat="45.32697" lon="-0.96477">
        <ele>60.633855</ele>
        <time>2022-12-23T09:14:08.752Z</time>
      </trkpt>
      <trkpt lat="45.32691" lon="-0.96461">
        <ele>60.666856</ele>
        <time>2022-12-23T09:14:11.751Z</time>
      </trkpt>
      <trkpt lat="45.32685" lon="-0.96446">
        <ele>60.699404</ele>
        <time>2022-12-23T09:14:14.762Z</time>
      </trkpt>
      <trkpt lat="45.32679" lon="-0.96432">
        <ele>60.731593</ele>
        <time>2022-12-23T09:14:17.761Z</time>
      </trkpt>
      <trkpt lat="45.32673" lon="-0.96417">
        <ele>60.763057</ele>
        <time>2022-12-23T09:14:20.751Z</time>
      </trkpt>
      <trkpt lat="45.32667" lon="-0.96403">
        <ele>60.795592</ele>
        <time>2022-12-23T09:14:23.751Z</time>
      </trkpt>
      <trkpt lat="45.32659" lon="-0.96389">
        <ele>60.828786</ele>
        <time>2022-12-23T09:14:26.764Z</time>
      </trkpt>
      <trkpt lat="45.32651" lon="-0.96375">
        <ele>60.861962</ele>
        <time>2022-12-23T09:14:29.750Z</time>
      </trkpt>
      <trkpt lat="45.32644" lon="-0.9636">
        <ele>60.896511</ele>
        <time>2022-12-23T09:14:32.751Z</time>
      </trkpt>
      <trkpt lat="45.32635" lon="-0.96346">
        <ele>60.931332</ele>
        <time>2022-12-23T09:14:35.750Z</time>
      </trkpt>
      <trkpt lat="45.32627" lon="-0.96333">
        <ele>60.965377</ele>
        <time>2022-12-23T09:14:38.751Z</time>
      </trkpt>
      <trkpt lat="45.32618" lon="-0.96319">
        <ele>60.996948</ele>
        <time>2022-12-23T09:14:41.752Z</time>
      </trkpt>
      <trkpt lat="45.32609" lon="-0.96307">
        <ele>60.990555</ele>
        <time>2022-12-23T09:14:44.763Z</time>
      </trkpt>
      <trkpt lat="45.32601" lon="-0.96293">
        <ele>60.984121</ele>
        <time>2022-12-23T09:14:47.762Z</time>
      </trkpt>
      <trkpt lat="45.32592" lon="-0.9628">
        <ele>60.977519</ele>
        <time>2022-12-23T09:14:50.755Z</time>
      </trkpt>
      <trkpt lat="45.32583" lon="-0.96267">
        <ele>60.971104</ele>
        <time>2022-12-23T09:14:53.754Z</time>
      </trkpt>
      <trkpt lat="45.32574" lon="-0.96255">
        <ele>60.964808</ele>
        <time>2022-12-23T09:14:56.757Z</time>
      </trkpt>
      <trkpt lat="45.32565" lon="-0.96242">
        <ele>60.958292</ele>
        <time>2022-12-23T09:14:59.754Z</time>
      </trkpt>
      <trkpt lat="45.32556" lon="-0.96229">
        <ele>60.951679</ele>
        <time>2022-12-23T09:15:02.751Z</time>
      </trkpt>
      <trkpt lat="45.32546" lon="-0.96217">
        <ele>60.945001</ele>
        <time>2022-12-23T09:15:05.751Z</time>
      </trkpt>
      <trkpt lat="45.32536" lon="-0.96204">
        <ele>60.938313</ele>
        <time>2022-12-23T09:15:08.750Z</time>
      </trkpt>
      <trkpt lat="45.32526" lon="-0.96192">
        <ele>60.931668</ele>
        <time>2022-12-23T09:15:11.752Z</time>
      </trkpt>
      <trkpt lat="45.32517" lon="-0.96182">
        <ele>60.925663</ele>
        <time>2022-12-23T09:15:14.751Z</time>
      </trkpt>
      <trkpt lat="45.32507" lon="-0.96171">
        <ele>60.919329</ele>
        <time>2022-12-23T09:15:17.749Z</time>
      </trkpt>
      <trkpt lat="45.32497" lon="-0.96159">
        <ele>60.912737</ele>
        <time>2022-12-23T09:15:20.760Z</time>
      </trkpt>
      <trkpt lat="45.32487" lon="-0.96147">
        <ele>60.906014</ele>
        <time>2022-12-23T09:15:23.751Z</time>
      </trkpt>
      <trkpt lat="45.32477" lon="-0.96136">
        <ele>61.030736</ele>
        <time>2022-12-23T09:15:26.752Z</time>
      </trkpt>
      <trkpt lat="45.32467" lon="-0.96125">
        <ele>61.158585</ele>
        <time>2022-12-23T09:15:29.751Z</time>
      </trkpt>
      <trkpt lat="45.32457" lon="-0.96113">
        <ele>61.289147</ele>
        <time>2022-12-23T09:15:32.763Z</time>
      </trkpt>
      <trkpt lat="45.32447" lon="-0.96102">
        <ele>61.419606</ele>
        <time>2022-12-23T09:15:35.750Z</time>
      </trkpt>
      <trkpt lat="45.32437" lon="-0.9609">
        <ele>61.555552</ele>
        <time>2022-12-23T09:15:38.741Z</time>
      </trkpt>
      <trkpt lat="45.32426" lon="-0.96078">
        <ele>61.69105</ele>
        <time>2022-12-23T09:15:41.818Z</time>
      </trkpt>
      <trkpt lat="45.32416" lon="-0.96066">
        <ele>61.82312</ele>
        <time>2022-12-23T09:15:44.749Z</time>
      </trkpt>
      <trkpt lat="45.32408" lon="-0.96054">
        <ele>61.941328</ele>
        <time>2022-12-23T09:15:47.750Z</time>
      </trkpt>
      <trkpt lat="45.32399" lon="-0.96043">
        <ele>62.060516</ele>
        <time>2022-12-23T09:15:50.750Z</time>
      </trkpt>
      <trkpt lat="45.3239" lon="-0.9603">
        <ele>62.19243</ele>
        <time>2022-12-23T09:15:53.746Z</time>
      </trkpt>
      <trkpt lat="45.32383" lon="-0.96021">
        <ele>62.284497</ele>
        <time>2022-12-23T09:15:55.763Z</time>
      </trkpt>
      <trkpt lat="45.32374" lon="-0.96008">
        <ele>62.41937</ele>
        <time>2022-12-23T09:15:58.748Z</time>
      </trkpt>
      <trkpt lat="45.32367" lon="-0.95999">
        <ele>62.513353</ele>
        <time>2022-12-23T09:16:00.728Z</time>
      </trkpt>
      <trkpt lat="45.32358" lon="-0.95985">
        <ele>62.646792</ele>
        <time>2022-12-23T09:16:03.806Z</time>
      </trkpt>
      <trkpt lat="45.32348" lon="-0.95973">
        <ele>62.696416</ele>
        <time>2022-12-23T09:16:06.754Z</time>
      </trkpt>
      <trkpt lat="45.32339" lon="-0.95962">
        <ele>62.625939</ele>
        <time>2022-12-23T09:16:09.817Z</time>
      </trkpt>
      <trkpt lat="45.3233" lon="-0.95951">
        <ele>62.560994</ele>
        <time>2022-12-23T09:16:12.762Z</time>
      </trkpt>
      <trkpt lat="45.32321" lon="-0.9594">
        <ele>62.490931</ele>
        <time>2022-12-23T09:16:15.793Z</time>
      </trkpt>
      <trkpt lat="45.32312" lon="-0.95928">
        <ele>62.417796</ele>
        <time>2022-12-23T09:16:18.755Z</time>
      </trkpt>
      <trkpt lat="45.32305" lon="-0.95919">
        <ele>62.365304</ele>
        <time>2022-12-23T09:16:20.757Z</time>
      </trkpt>
      <trkpt lat="45.32298" lon="-0.9591">
        <ele>62.311842</ele>
        <time>2022-12-23T09:16:22.757Z</time>
      </trkpt>
      <trkpt lat="45.32288" lon="-0.95897">
        <ele>62.231704</ele>
        <time>2022-12-23T09:16:25.752Z</time>
      </trkpt>
      <trkpt lat="45.32281" lon="-0.95889">
        <ele>62.179132</ele>
        <time>2022-12-23T09:16:27.819Z</time>
      </trkpt>
      <trkpt lat="45.32271" lon="-0.95877">
        <ele>62.105396</ele>
        <time>2022-12-23T09:16:30.754Z</time>
      </trkpt>
      <trkpt lat="45.32262" lon="-0.95866">
        <ele>62.036144</ele>
        <time>2022-12-23T09:16:33.797Z</time>
      </trkpt>
      <trkpt lat="45.32253" lon="-0.95853">
        <ele>61.96207</ele>
        <time>2022-12-23T09:16:36.749Z</time>
      </trkpt>
      <trkpt lat="45.32247" lon="-0.95843">
        <ele>61.909123</ele>
        <time>2022-12-23T09:16:38.751Z</time>
      </trkpt>
      <trkpt lat="45.32239" lon="-0.95829">
        <ele>61.833341</ele>
        <time>2022-12-23T09:16:41.751Z</time>
      </trkpt>
      <trkpt lat="45.32231" lon="-0.95815">
        <ele>61.759854</ele>
        <time>2022-12-23T09:16:44.762Z</time>
      </trkpt>
      <trkpt lat="45.32225" lon="-0.95805">
        <ele>61.708319</ele>
        <time>2022-12-23T09:16:46.768Z</time>
      </trkpt>
      <trkpt lat="45.32219" lon="-0.95794">
        <ele>61.616545</ele>
        <time>2022-12-23T09:16:48.754Z</time>
      </trkpt>
      <trkpt lat="45.32211" lon="-0.95779">
        <ele>61.460844</ele>
        <time>2022-12-23T09:16:51.742Z</time>
      </trkpt>
      <trkpt lat="45.32205" lon="-0.95769">
        <ele>61.35271</ele>
        <time>2022-12-23T09:16:53.751Z</time>
      </trkpt>
      <trkpt lat="45.32197" lon="-0.95756">
        <ele>61.203861</ele>
        <time>2022-12-23T09:16:56.798Z</time>
      </trkpt>
      <trkpt lat="45.32187" lon="-0.95747">
        <ele>61.068405</ele>
        <time>2022-12-23T09:16:59.749Z</time>
      </trkpt>
      <trkpt lat="45.32179" lon="-0.95737">
        <ele>60.942253</ele>
        <time>2022-12-23T09:17:02.800Z</time>
      </trkpt>
      <trkpt lat="45.32174" lon="-0.95721">
        <ele>60.796044</ele>
        <time>2022-12-23T09:17:05.749Z</time>
      </trkpt>
      <trkpt lat="45.32172" lon="-0.95708">
        <ele>60.682329</ele>
        <time>2022-12-23T09:17:07.752Z</time>
      </trkpt>
      <trkpt lat="45.32165" lon="-0.95694">
        <ele>60.53964</ele>
        <time>2022-12-23T09:17:10.761Z</time>
      </trkpt>
      <trkpt lat="45.32157" lon="-0.95684">
        <ele>60.421889</ele>
        <time>2022-12-23T09:17:14.738Z</time>
      </trkpt>
      <trkpt lat="45.32144" lon="-0.95679">
        <ele>60.261202</ele>
        <time>2022-12-23T09:18:30.739Z</time>
      </trkpt>
      <trkpt lat="45.32135" lon="-0.95674">
        <ele>60.139863</ele>
        <time>2022-12-23T09:18:34.746Z</time>
      </trkpt>
      <trkpt lat="45.32126" lon="-0.95667">
        <ele>60.030413</ele>
        <time>2022-12-23T09:18:37.749Z</time>
      </trkpt>
      <trkpt lat="45.32118" lon="-0.95661">
        <ele>59.911854</ele>
        <time>2022-12-23T09:18:40.748Z</time>
      </trkpt>
      <trkpt lat="45.32107" lon="-0.95656">
        <ele>59.782078</ele>
        <time>2022-12-23T09:18:43.742Z</time>
      </trkpt>
      <trkpt lat="45.32096" lon="-0.95653">
        <ele>59.649063</ele>
        <time>2022-12-23T09:18:46.737Z</time>
      </trkpt>
      <trkpt lat="45.32085" lon="-0.95648">
        <ele>59.575653</ele>
        <time>2022-12-23T09:18:49.738Z</time>
      </trkpt>
      <trkpt lat="45.32075" lon="-0.9564">
        <ele>59.611444</ele>
        <time>2022-12-23T09:18:52.733Z</time>
      </trkpt>
      <trkpt lat="45.32065" lon="-0.95633">
        <ele>59.64687</ele>
        <time>2022-12-23T09:18:55.731Z</time>
      </trkpt>
      <trkpt lat="45.32055" lon="-0.95627">
        <ele>59.681719</ele>
        <time>2022-12-23T09:18:58.751Z</time>
      </trkpt>
      <trkpt lat="45.32043" lon="-0.95622">
        <ele>59.718184</ele>
        <time>2022-12-23T09:19:01.734Z</time>
      </trkpt>
      <trkpt lat="45.32032" lon="-0.95616">
        <ele>59.754518</ele>
        <time>2022-12-23T09:19:04.748Z</time>
      </trkpt>
      <trkpt lat="45.32021" lon="-0.9561">
        <ele>59.790827</ele>
        <time>2022-12-23T09:19:07.738Z</time>
      </trkpt>
      <trkpt lat="45.3201" lon="-0.95606">
        <ele>59.827922</ele>
        <time>2022-12-23T09:19:10.744Z</time>
      </trkpt>
      <trkpt lat="45.31999" lon="-0.95601">
        <ele>59.863142</ele>
        <time>2022-12-23T09:19:13.751Z</time>
      </trkpt>
      <trkpt lat="45.31989" lon="-0.95595">
        <ele>59.897262</ele>
        <time>2022-12-23T09:19:16.751Z</time>
      </trkpt>
      <trkpt lat="45.31978" lon="-0.95592">
        <ele>59.932405</ele>
        <time>2022-12-23T09:19:19.727Z</time>
      </trkpt>
      <trkpt lat="45.31967" lon="-0.95588">
        <ele>59.966737</ele>
        <time>2022-12-23T09:19:22.732Z</time>
      </trkpt>
      <trkpt lat="45.31957" lon="-0.95585">
        <ele>59.998912</ele>
        <time>2022-12-23T09:19:25.752Z</time>
      </trkpt>
      <trkpt lat="45.31947" lon="-0.95583">
        <ele>60.028329</ele>
        <time>2022-12-23T09:19:28.750Z</time>
      </trkpt>
      <trkpt lat="45.31936" lon="-0.95581">
        <ele>60.061984</ele>
        <time>2022-12-23T09:19:31.752Z</time>
      </trkpt>
      <trkpt lat="45.31925" lon="-0.95579">
        <ele>60.0981</ele>
        <time>2022-12-23T09:19:34.731Z</time>
      </trkpt>
      <trkpt lat="45.31913" lon="-0.95578">
        <ele>60.131214</ele>
        <time>2022-12-23T09:19:37.748Z</time>
      </trkpt>
      <trkpt lat="45.31901" lon="-0.95579">
        <ele>60.157266</ele>
        <time>2022-12-23T09:19:40.750Z</time>
      </trkpt>
      <trkpt lat="45.31889" lon="-0.9558">
        <ele>60.183606</ele>
        <time>2022-12-23T09:19:43.752Z</time>
      </trkpt>
      <trkpt lat="45.31877" lon="-0.95581">
        <ele>60.209506</ele>
        <time>2022-12-23T09:19:46.751Z</time>
      </trkpt>
      <trkpt lat="45.31866" lon="-0.95584">
        <ele>60.235364</ele>
        <time>2022-12-23T09:19:49.761Z</time>
      </trkpt>
      <trkpt lat="45.31855" lon="-0.95586">
        <ele>60.259552</ele>
        <time>2022-12-23T09:19:52.739Z</time>
      </trkpt>
      <trkpt lat="45.31844" lon="-0.95588">
        <ele>60.283062</ele>
        <time>2022-12-23T09:19:55.748Z</time>
      </trkpt>
      <trkpt lat="45.31833" lon="-0.9559">
        <ele>60.308898</ele>
        <time>2022-12-23T09:19:58.749Z</time>
      </trkpt>
      <trkpt lat="45.31821" lon="-0.95594">
        <ele>60.335151</ele>
        <time>2022-12-23T09:20:01.750Z</time>
      </trkpt>
      <trkpt lat="45.3181" lon="-0.95596">
        <ele>60.360914</ele>
        <time>2022-12-23T09:20:04.743Z</time>
      </trkpt>
      <trkpt lat="45.31798" lon="-0.95599">
        <ele>60.385923</ele>
        <time>2022-12-23T09:20:07.751Z</time>
      </trkpt>
      <trkpt lat="45.31788" lon="-0.95601">
        <ele>60.409794</ele>
        <time>2022-12-23T09:20:10.751Z</time>
      </trkpt>
      <trkpt lat="45.31777" lon="-0.95604">
        <ele>60.432818</ele>
        <time>2022-12-23T09:20:13.748Z</time>
      </trkpt>
      <trkpt lat="45.31767" lon="-0.95607">
        <ele>60.456845</ele>
        <time>2022-12-23T09:20:16.737Z</time>
      </trkpt>
      <trkpt lat="45.31756" lon="-0.9561">
        <ele>60.481246</ele>
        <time>2022-12-23T09:20:19.750Z</time>
      </trkpt>
      <trkpt lat="45.31745" lon="-0.95612">
        <ele>60.505908</ele>
        <time>2022-12-23T09:20:22.751Z</time>
      </trkpt>
      <trkpt lat="45.31734" lon="-0.95613">
        <ele>60.54534</ele>
        <time>2022-12-23T09:20:25.752Z</time>
      </trkpt>
      <trkpt lat="45.31724" lon="-0.95615">
        <ele>60.599009</ele>
        <time>2022-12-23T09:20:28.752Z</time>
      </trkpt>
      <trkpt lat="45.31713" lon="-0.95617">
        <ele>60.652394</ele>
        <time>2022-12-23T09:20:31.752Z</time>
      </trkpt>
      <trkpt lat="45.31702" lon="-0.95619">
        <ele>60.70623</ele>
        <time>2022-12-23T09:20:34.749Z</time>
      </trkpt>
      <trkpt lat="45.31691" lon="-0.95621">
        <ele>60.762758</ele>
        <time>2022-12-23T09:20:37.750Z</time>
      </trkpt>
      <trkpt lat="45.3168" lon="-0.95623">
        <ele>60.821089</ele>
        <time>2022-12-23T09:20:40.758Z</time>
      </trkpt>
      <trkpt lat="45.31669" lon="-0.95625">
        <ele>60.874757</ele>
        <time>2022-12-23T09:20:43.749Z</time>
      </trkpt>
      <trkpt lat="45.3166" lon="-0.95627">
        <ele>60.922113</ele>
        <time>2022-12-23T09:20:46.750Z</time>
      </trkpt>
      <trkpt lat="45.31649" lon="-0.95627">
        <ele>60.975492</ele>
        <time>2022-12-23T09:20:50.730Z</time>
      </trkpt>
      <trkpt lat="45.31639" lon="-0.95629">
        <ele>61.029199</ele>
        <time>2022-12-23T09:20:55.737Z</time>
      </trkpt>
      <trkpt lat="45.31628" lon="-0.95629">
        <ele>61.082093</ele>
        <time>2022-12-23T09:21:00.749Z</time>
      </trkpt>
      <trkpt lat="45.31618" lon="-0.95631">
        <ele>61.132258</ele>
        <time>2022-12-23T09:21:04.752Z</time>
      </trkpt>
      <trkpt lat="45.31608" lon="-0.95633">
        <ele>61.183814</ele>
        <time>2022-12-23T09:21:07.747Z</time>
      </trkpt>
      <trkpt lat="45.31598" lon="-0.95637">
        <ele>61.238278</ele>
        <time>2022-12-23T09:21:10.752Z</time>
      </trkpt>
      <trkpt lat="45.31587" lon="-0.95642">
        <ele>61.294841</ele>
        <time>2022-12-23T09:21:13.754Z</time>
      </trkpt>
      <trkpt lat="45.31576" lon="-0.95646">
        <ele>61.352469</ele>
        <time>2022-12-23T09:21:16.733Z</time>
      </trkpt>
      <trkpt lat="45.31565" lon="-0.95651">
        <ele>61.409815</ele>
        <time>2022-12-23T09:21:19.750Z</time>
      </trkpt>
      <trkpt lat="45.31554" lon="-0.95655">
        <ele>61.329322</ele>
        <time>2022-12-23T09:21:22.750Z</time>
      </trkpt>
      <trkpt lat="45.31542" lon="-0.95657">
        <ele>61.216263</ele>
        <time>2022-12-23T09:21:25.749Z</time>
      </trkpt>
      <trkpt lat="45.31531" lon="-0.95659">
        <ele>61.100667</ele>
        <time>2022-12-23T09:21:28.751Z</time>
      </trkpt>
      <trkpt lat="45.31519" lon="-0.95659">
        <ele>60.989637</ele>
        <time>2022-12-23T09:21:31.749Z</time>
      </trkpt>
      <trkpt lat="45.31509" lon="-0.95656">
        <ele>60.883474</ele>
        <time>2022-12-23T09:21:34.747Z</time>
      </trkpt>
      <trkpt lat="45.31499" lon="-0.95651">
        <ele>60.775811</ele>
        <time>2022-12-23T09:21:37.745Z</time>
      </trkpt>
      <trkpt lat="45.3149" lon="-0.95645">
        <ele>60.676864</ele>
        <time>2022-12-23T09:21:40.750Z</time>
      </trkpt>
      <trkpt lat="45.31482" lon="-0.95635">
        <ele>60.573667</ele>
        <time>2022-12-23T09:21:44.741Z</time>
      </trkpt>
      <trkpt lat="45.31477" lon="-0.95618">
        <ele>60.44378</ele>
        <time>2022-12-23T09:22:26.732Z</time>
      </trkpt>
      <trkpt lat="45.31474" lon="-0.95603">
        <ele>60.334514</ele>
        <time>2022-12-23T09:22:30.748Z</time>
      </trkpt>
      <trkpt lat="45.31473" lon="-0.95587">
        <ele>60.221304</ele>
        <time>2022-12-23T09:22:33.755Z</time>
      </trkpt>
      <trkpt lat="45.31468" lon="-0.95569">
        <ele>60.088767</ele>
        <time>2022-12-23T09:22:36.751Z</time>
      </trkpt>
      <trkpt lat="45.31464" lon="-0.95551">
        <ele>59.959471</ele>
        <time>2022-12-23T09:22:39.750Z</time>
      </trkpt>
      <trkpt lat="45.3146" lon="-0.95536">
        <ele>59.849321</ele>
        <time>2022-12-23T09:22:42.749Z</time>
      </trkpt>
      <trkpt lat="45.31458" lon="-0.95523">
        <ele>59.752008</ele>
        <time>2022-12-23T09:22:45.747Z</time>
      </trkpt>
      <trkpt lat="45.31455" lon="-0.95509">
        <ele>59.650645</ele>
        <time>2022-12-23T09:22:48.743Z</time>
      </trkpt>
      <trkpt lat="45.31453" lon="-0.95493">
        <ele>59.61093</ele>
        <time>2022-12-23T09:22:51.744Z</time>
      </trkpt>
      <trkpt lat="45.31453" lon="-0.95475">
        <ele>59.576522</ele>
        <time>2022-12-23T09:22:54.750Z</time>
      </trkpt>
      <trkpt lat="45.31454" lon="-0.95456">
        <ele>59.541509</ele>
        <time>2022-12-23T09:22:57.752Z</time>
      </trkpt>
      <trkpt lat="45.31455" lon="-0.95439">
        <ele>59.507024</ele>
        <time>2022-12-23T09:23:00.753Z</time>
      </trkpt>
      <trkpt lat="45.31455" lon="-0.9542">
        <ele>59.472039</ele>
        <time>2022-12-23T09:23:03.744Z</time>
      </trkpt>
      <trkpt lat="45.31456" lon="-0.95402">
        <ele>59.436575</ele>
        <time>2022-12-23T09:23:06.747Z</time>
      </trkpt>
      <trkpt lat="45.31457" lon="-0.95383">
        <ele>59.399961</ele>
        <time>2022-12-23T09:23:09.747Z</time>
      </trkpt>
      <trkpt lat="45.31458" lon="-0.95365">
        <ele>59.364807</ele>
        <time>2022-12-23T09:23:12.747Z</time>
      </trkpt>
      <trkpt lat="45.3146" lon="-0.95348">
        <ele>59.331305</ele>
        <time>2022-12-23T09:23:15.752Z</time>
      </trkpt>
      <trkpt lat="45.31462" lon="-0.95331">
        <ele>59.299107</ele>
        <time>2022-12-23T09:23:18.749Z</time>
      </trkpt>
      <trkpt lat="45.31464" lon="-0.95314">
        <ele>59.266268</ele>
        <time>2022-12-23T09:23:21.738Z</time>
      </trkpt>
      <trkpt lat="45.31467" lon="-0.95297">
        <ele>59.232836</ele>
        <time>2022-12-23T09:23:24.748Z</time>
      </trkpt>
      <trkpt lat="45.31469" lon="-0.95281">
        <ele>59.201021</ele>
        <time>2022-12-23T09:23:27.746Z</time>
      </trkpt>
      <trkpt lat="45.31471" lon="-0.95267">
        <ele>59.173618</ele>
        <time>2022-12-23T09:23:31.745Z</time>
      </trkpt>
      <trkpt lat="45.31472" lon="-0.95252">
        <ele>59.137444</ele>
        <time>2022-12-23T09:23:36.748Z</time>
      </trkpt>
      <trkpt lat="45.31476" lon="-0.95241">
        <ele>59.055315</ele>
        <time>2022-12-23T09:23:41.742Z</time>
      </trkpt>
      <trkpt lat="45.31474" lon="-0.95254">
        <ele>58.966438</ele>
        <time>2022-12-23T09:23:46.749Z</time>
      </trkpt>
      <trkpt lat="45.31472" lon="-0.9527">
        <ele>58.864702</ele>
        <time>2022-12-23T09:23:50.733Z</time>
      </trkpt>
      <trkpt lat="45.31471" lon="-0.95284">
        <ele>58.773144</ele>
        <time>2022-12-23T09:23:53.751Z</time>
      </trkpt>
      <trkpt lat="45.3147" lon="-0.95299">
        <ele>58.675007</ele>
        <time>2022-12-23T09:23:56.752Z</time>
      </trkpt>
      <trkpt lat="45.31468" lon="-0.95314">
        <ele>58.57942</ele>
        <time>2022-12-23T09:23:59.747Z</time>
      </trkpt>
      <trkpt lat="45.31466" lon="-0.95328">
        <ele>58.486576</ele>
        <time>2022-12-23T09:24:02.747Z</time>
      </trkpt>
      <trkpt lat="45.31465" lon="-0.95343">
        <ele>58.393746</ele>
        <time>2022-12-23T09:24:05.748Z</time>
      </trkpt>
      <trkpt lat="45.31463" lon="-0.95357">
        <ele>58.297718</ele>
        <time>2022-12-23T09:24:08.749Z</time>
      </trkpt>
      <trkpt lat="45.31462" lon="-0.95372">
        <ele>58.202055</ele>
        <time>2022-12-23T09:24:11.749Z</time>
      </trkpt>
      <trkpt lat="45.3146" lon="-0.95386">
        <ele>58.11343</ele>
        <time>2022-12-23T09:24:14.748Z</time>
      </trkpt>
      <trkpt lat="45.3146" lon="-0.95399">
        <ele>58.027338</ele>
        <time>2022-12-23T09:24:17.731Z</time>
      </trkpt>
      <trkpt lat="45.31459" lon="-0.95413">
        <ele>57.938615</ele>
        <time>2022-12-23T09:24:20.749Z</time>
      </trkpt>
      <trkpt lat="45.31458" lon="-0.95428">
        <ele>57.845344</ele>
        <time>2022-12-23T09:24:23.748Z</time>
      </trkpt>
      <trkpt lat="45.31455" lon="-0.95443">
        <ele>57.746444</ele>
        <time>2022-12-23T09:24:26.731Z</time>
      </trkpt>
      <trkpt lat="45.31446" lon="-0.95452">
        <ele>57.64469</ele>
        <time>2022-12-23T09:24:29.745Z</time>
      </trkpt>
      <trkpt lat="45.31435" lon="-0.95456">
        <ele>57.540817</ele>
        <time>2022-12-23T09:24:32.755Z</time>
      </trkpt>
      <trkpt lat="45.31425" lon="-0.95459">
        <ele>57.492462</ele>
        <time>2022-12-23T09:24:35.747Z</time>
      </trkpt>
      <trkpt lat="45.31416" lon="-0.95461">
        <ele>57.467449</ele>
        <time>2022-12-23T09:24:38.754Z</time>
      </trkpt>
      <trkpt lat="45.31405" lon="-0.95463">
        <ele>57.439427</ele>
        <time>2022-12-23T09:24:41.745Z</time>
      </trkpt>
      <trkpt lat="45.31394" lon="-0.95465">
        <ele>57.410449</ele>
        <time>2022-12-23T09:24:44.747Z</time>
      </trkpt>
      <trkpt lat="45.31383" lon="-0.95469">
        <ele>57.381447</ele>
        <time>2022-12-23T09:24:47.749Z</time>
      </trkpt>
      <trkpt lat="45.31373" lon="-0.95474">
        <ele>57.354572</ele>
        <time>2022-12-23T09:24:50.748Z</time>
      </trkpt>
      <trkpt lat="45.31364" lon="-0.9548">
        <ele>57.329017</ele>
        <time>2022-12-23T09:24:53.760Z</time>
      </trkpt>
      <trkpt lat="45.31354" lon="-0.95483">
        <ele>57.301403</ele>
        <time>2022-12-23T09:24:57.747Z</time>
      </trkpt>
      <trkpt lat="45.31343" lon="-0.95477">
        <ele>57.272017</ele>
        <time>2022-12-23T09:25:01.743Z</time>
      </trkpt>
      <trkpt lat="45.31336" lon="-0.95466">
        <ele>57.243524</ele>
        <time>2022-12-23T09:25:04.749Z</time>
      </trkpt>
      <trkpt lat="45.31327" lon="-0.95453">
        <ele>57.211973</ele>
        <time>2022-12-23T09:25:07.751Z</time>
      </trkpt>
      <trkpt lat="45.31318" lon="-0.95442">
        <ele>57.179969</ele>
        <time>2022-12-23T09:25:10.752Z</time>
      </trkpt>
      <trkpt lat="45.31308" lon="-0.95431">
        <ele>57.147239</ele>
        <time>2022-12-23T09:25:13.747Z</time>
      </trkpt>
      <trkpt lat="45.31298" lon="-0.95421">
        <ele>57.114198</ele>
        <time>2022-12-23T09:25:16.750Z</time>
      </trkpt>
      <trkpt lat="45.31288" lon="-0.95412">
        <ele>57.083828</ele>
        <time>2022-12-23T09:25:19.745Z</time>
      </trkpt>
      <trkpt lat="45.31277" lon="-0.95403">
        <ele>57.051651</ele>
        <time>2022-12-23T09:25:22.747Z</time>
      </trkpt>
      <trkpt lat="45.31266" lon="-0.95393">
        <ele>57.097874</ele>
        <time>2022-12-23T09:25:25.751Z</time>
      </trkpt>
      <trkpt lat="45.31255" lon="-0.95383">
        <ele>57.172414</ele>
        <time>2022-12-23T09:25:28.748Z</time>
      </trkpt>
      <trkpt lat="45.31244" lon="-0.95373">
        <ele>57.246981</ele>
        <time>2022-12-23T09:25:31.749Z</time>
      </trkpt>
      <trkpt lat="45.31232" lon="-0.95363">
        <ele>57.321998</ele>
        <time>2022-12-23T09:25:34.753Z</time>
      </trkpt>
      <trkpt lat="45.31224" lon="-0.95357">
        <ele>57.375598</ele>
        <time>2022-12-23T09:25:36.750Z</time>
      </trkpt>
      <trkpt lat="45.31216" lon="-0.9535">
        <ele>57.426897</ele>
        <time>2022-12-23T09:25:38.750Z</time>
      </trkpt>
      <trkpt lat="45.31205" lon="-0.9534">
        <ele>57.501859</ele>
        <time>2022-12-23T09:25:41.751Z</time>
      </trkpt>
      <trkpt lat="45.31195" lon="-0.95329">
        <ele>57.573537</ele>
        <time>2022-12-23T09:25:44.745Z</time>
      </trkpt>
      <trkpt lat="45.31184" lon="-0.9532">
        <ele>57.643389</ele>
        <time>2022-12-23T09:25:47.750Z</time>
      </trkpt>
      <trkpt lat="45.31174" lon="-0.9531">
        <ele>57.715776</ele>
        <time>2022-12-23T09:25:50.752Z</time>
      </trkpt>
      <trkpt lat="45.31163" lon="-0.953">
        <ele>57.789418</ele>
        <time>2022-12-23T09:25:53.752Z</time>
      </trkpt>
      <trkpt lat="45.31155" lon="-0.95293">
        <ele>57.840781</ele>
        <time>2022-12-23T09:25:55.744Z</time>
      </trkpt>
      <trkpt lat="45.31147" lon="-0.95286">
        <ele>57.892143</ele>
        <time>2022-12-23T09:25:57.750Z</time>
      </trkpt>
      <trkpt lat="45.31139" lon="-0.9528">
        <ele>57.943505</ele>
        <time>2022-12-23T09:25:59.744Z</time>
      </trkpt>
      <trkpt lat="45.31128" lon="-0.9527">
        <ele>58.018385</ele>
        <time>2022-12-23T09:26:02.738Z</time>
      </trkpt>
      <trkpt lat="45.31118" lon="-0.95261">
        <ele>58.054836</ele>
        <time>2022-12-23T09:26:05.747Z</time>
      </trkpt>
      <trkpt lat="45.31109" lon="-0.95252">
        <ele>58.049981</ele>
        <time>2022-12-23T09:26:08.745Z</time>
      </trkpt>
      <trkpt lat="45.311" lon="-0.95244">
        <ele>58.0449</ele>
        <time>2022-12-23T09:26:11.744Z</time>
      </trkpt>
      <trkpt lat="45.3109" lon="-0.95234">
        <ele>58.039469</ele>
        <time>2022-12-23T09:26:14.752Z</time>
      </trkpt>
      <trkpt lat="45.31079" lon="-0.95225">
        <ele>58.033752</ele>
        <time>2022-12-23T09:26:17.747Z</time>
      </trkpt>
      <trkpt lat="45.31068" lon="-0.95215">
        <ele>58.027946</ele>
        <time>2022-12-23T09:26:20.748Z</time>
      </trkpt>
      <trkpt lat="45.31057" lon="-0.95205">
        <ele>58.022046</ele>
        <time>2022-12-23T09:26:23.742Z</time>
      </trkpt>
      <trkpt lat="45.31046" lon="-0.95196">
        <ele>58.01629</ele>
        <time>2022-12-23T09:26:26.744Z</time>
      </trkpt>
      <trkpt lat="45.31036" lon="-0.95185">
        <ele>58.0104</ele>
        <time>2022-12-23T09:26:29.746Z</time>
      </trkpt>
      <trkpt lat="45.31028" lon="-0.95177">
        <ele>58.006008</ele>
        <time>2022-12-23T09:26:31.751Z</time>
      </trkpt>
      <trkpt lat="45.31021" lon="-0.95168">
        <ele>58.001643</ele>
        <time>2022-12-23T09:26:33.741Z</time>
      </trkpt>
      <trkpt lat="45.31013" lon="-0.95158">
        <ele>57.996914</ele>
        <time>2022-12-23T09:26:35.746Z</time>
      </trkpt>
      <trkpt lat="45.31006" lon="-0.95147">
        <ele>57.992243</ele>
        <time>2022-12-23T09:26:37.747Z</time>
      </trkpt>
      <trkpt lat="45.30999" lon="-0.95136">
        <ele>57.987494</ele>
        <time>2022-12-23T09:26:39.748Z</time>
      </trkpt>
      <trkpt lat="45.30993" lon="-0.95125">
        <ele>57.982831</ele>
        <time>2022-12-23T09:26:41.728Z</time>
      </trkpt>
      <trkpt lat="45.30986" lon="-0.95114">
        <ele>57.978242</ele>
        <time>2022-12-23T09:26:43.753Z</time>
      </trkpt>
      <trkpt lat="45.3098" lon="-0.95103">
        <ele>57.915682</ele>
        <time>2022-12-23T09:26:45.731Z</time>
      </trkpt>
      <trkpt lat="45.30973" lon="-0.95094">
        <ele>57.778386</ele>
        <time>2022-12-23T09:26:47.748Z</time>
      </trkpt>
      <trkpt lat="45.30967" lon="-0.95083">
        <ele>57.641601</ele>
        <time>2022-12-23T09:26:49.750Z</time>
      </trkpt>
      <trkpt lat="45.30961" lon="-0.95073">
        <ele>57.501609</ele>
        <time>2022-12-23T09:26:51.751Z</time>
      </trkpt>
      <trkpt lat="45.30952" lon="-0.95059">
        <ele>57.312135</ele>
        <time>2022-12-23T09:26:54.735Z</time>
      </trkpt>
      <trkpt lat="45.30944" lon="-0.95043">
        <ele>57.110413</ele>
        <time>2022-12-23T09:26:57.748Z</time>
      </trkpt>
      <trkpt lat="45.30937" lon="-0.95032">
        <ele>56.957206</ele>
        <time>2022-12-23T09:26:59.750Z</time>
      </trkpt>
      <trkpt lat="45.30931" lon="-0.9502">
        <ele>56.799745</ele>
        <time>2022-12-23T09:27:01.744Z</time>
      </trkpt>
      <trkpt lat="45.30924" lon="-0.95008">
        <ele>56.64012</ele>
        <time>2022-12-23T09:27:03.751Z</time>
      </trkpt>
      <trkpt lat="45.30918" lon="-0.94996">
        <ele>56.488979</ele>
        <time>2022-12-23T09:27:05.749Z</time>
      </trkpt>
      <trkpt lat="45.30911" lon="-0.94984">
        <ele>56.337907</ele>
        <time>2022-12-23T09:27:07.750Z</time>
      </trkpt>
      <trkpt lat="45.30905" lon="-0.94973">
        <ele>56.186836</ele>
        <time>2022-12-23T09:27:09.750Z</time>
      </trkpt>
      <trkpt lat="45.309" lon="-0.94961">
        <ele>56.037461</ele>
        <time>2022-12-23T09:27:11.746Z</time>
      </trkpt>
      <trkpt lat="45.30894" lon="-0.9495">
        <ele>55.897329</ele>
        <time>2022-12-23T09:27:13.751Z</time>
      </trkpt>
      <trkpt lat="45.30889" lon="-0.94939">
        <ele>55.76146</ele>
        <time>2022-12-23T09:27:15.736Z</time>
      </trkpt>
      <trkpt lat="45.30884" lon="-0.94927">
        <ele>55.621917</ele>
        <time>2022-12-23T09:27:17.741Z</time>
      </trkpt>
      <trkpt lat="45.3088" lon="-0.94916">
        <ele>55.486453</ele>
        <time>2022-12-23T09:27:19.752Z</time>
      </trkpt>
      <trkpt lat="45.30876" lon="-0.94904">
        <ele>55.353579</ele>
        <time>2022-12-23T09:27:21.734Z</time>
      </trkpt>
      <trkpt lat="45.30872" lon="-0.94886">
        <ele>55.177177</ele>
        <time>2022-12-23T09:27:24.751Z</time>
      </trkpt>
      <trkpt lat="45.3087" lon="-0.94874">
        <ele>55.052774</ele>
        <time>2022-12-23T09:27:26.752Z</time>
      </trkpt>
      <trkpt lat="45.30869" lon="-0.9486">
        <ele>54.920719</ele>
        <time>2022-12-23T09:27:28.752Z</time>
      </trkpt>
      <trkpt lat="45.30867" lon="-0.94846">
        <ele>54.785159</ele>
        <time>2022-12-23T09:27:30.729Z</time>
      </trkpt>
      <trkpt lat="45.30865" lon="-0.94833">
        <ele>54.653787</ele>
        <time>2022-12-23T09:27:32.750Z</time>
      </trkpt>
      <trkpt lat="45.30864" lon="-0.9482">
        <ele>54.522415</ele>
        <time>2022-12-23T09:27:34.747Z</time>
      </trkpt>
      <trkpt lat="45.30861" lon="-0.94807">
        <ele>54.393926</ele>
        <time>2022-12-23T09:27:36.750Z</time>
      </trkpt>
      <trkpt lat="45.3086" lon="-0.94793">
        <ele>54.26045</ele>
        <time>2022-12-23T09:27:38.747Z</time>
      </trkpt>
      <trkpt lat="45.30857" lon="-0.94775">
        <ele>54.07878</ele>
        <time>2022-12-23T09:27:41.745Z</time>
      </trkpt>
      <trkpt lat="45.30855" lon="-0.94762">
        <ele>53.94902</ele>
        <time>2022-12-23T09:27:43.751Z</time>
      </trkpt>
      <trkpt lat="45.30853" lon="-0.94748">
        <ele>53.816263</ele>
        <time>2022-12-23T09:27:45.745Z</time>
      </trkpt>
      <trkpt lat="45.30852" lon="-0.94735">
        <ele>53.684891</ele>
        <time>2022-12-23T09:27:47.753Z</time>
      </trkpt>
      <trkpt lat="45.3085" lon="-0.94722">
        <ele>53.558258</ele>
        <time>2022-12-23T09:27:49.738Z</time>
      </trkpt>
      <trkpt lat="45.30848" lon="-0.94709">
        <ele>53.429054</ele>
        <time>2022-12-23T09:27:51.745Z</time>
      </trkpt>
      <trkpt lat="45.30845" lon="-0.9469">
        <ele>53.243145</ele>
        <time>2022-12-23T09:27:54.744Z</time>
      </trkpt>
      <trkpt lat="45.30843" lon="-0.94672">
        <ele>53.066491</ele>
        <time>2022-12-23T09:27:57.737Z</time>
      </trkpt>
      <trkpt lat="45.30841" lon="-0.94653">
        <ele>52.879566</ele>
        <time>2022-12-23T09:28:00.741Z</time>
      </trkpt>
      <trkpt lat="45.30839" lon="-0.9464">
        <ele>52.981397</ele>
        <time>2022-12-23T09:28:02.736Z</time>
      </trkpt>
      <trkpt lat="45.30838" lon="-0.94627">
        <ele>53.124396</ele>
        <time>2022-12-23T09:28:04.751Z</time>
      </trkpt>
      <trkpt lat="45.30836" lon="-0.94613">
        <ele>53.27199</ele>
        <time>2022-12-23T09:28:06.731Z</time>
      </trkpt>
      <trkpt lat="45.30834" lon="-0.94599">
        <ele>53.41608</ele>
        <time>2022-12-23T09:28:08.752Z</time>
      </trkpt>
      <trkpt lat="45.30833" lon="-0.94584">
        <ele>53.567326</ele>
        <time>2022-12-23T09:28:10.745Z</time>
      </trkpt>
      <trkpt lat="45.30831" lon="-0.94571">
        <ele>53.713394</ele>
        <time>2022-12-23T09:28:12.748Z</time>
      </trkpt>
      <trkpt lat="45.30829" lon="-0.94557">
        <ele>53.861481</ele>
        <time>2022-12-23T09:28:14.740Z</time>
      </trkpt>
      <trkpt lat="45.30827" lon="-0.94543">
        <ele>54.009348</ele>
        <time>2022-12-23T09:28:16.750Z</time>
      </trkpt>
      <trkpt lat="45.30825" lon="-0.9453">
        <ele>54.146476</ele>
        <time>2022-12-23T09:28:18.751Z</time>
      </trkpt>
      <trkpt lat="45.30823" lon="-0.94513">
        <ele>54.325527</ele>
        <time>2022-12-23T09:28:21.732Z</time>
      </trkpt>
      <trkpt lat="45.3082" lon="-0.94498">
        <ele>54.482402</ele>
        <time>2022-12-23T09:28:24.751Z</time>
      </trkpt>
      <trkpt lat="45.30818" lon="-0.94481">
        <ele>54.664991</ele>
        <time>2022-12-23T09:28:27.749Z</time>
      </trkpt>
      <trkpt lat="45.30816" lon="-0.94462">
        <ele>54.859063</ele>
        <time>2022-12-23T09:28:30.740Z</time>
      </trkpt>
      <trkpt lat="45.30813" lon="-0.94444">
        <ele>55.056466</ele>
        <time>2022-12-23T09:28:33.747Z</time>
      </trkpt>
      <trkpt lat="45.30811" lon="-0.94431">
        <ele>55.193116</ele>
        <time>2022-12-23T09:28:35.750Z</time>
      </trkpt>
      <trkpt lat="45.30809" lon="-0.94418">
        <ele>55.332558</ele>
        <time>2022-12-23T09:28:37.764Z</time>
      </trkpt>
      <trkpt lat="45.30808" lon="-0.94403">
        <ele>55.48126</ele>
        <time>2022-12-23T09:28:39.762Z</time>
      </trkpt>
      <trkpt lat="45.30806" lon="-0.9439">
        <ele>55.717519</ele>
        <time>2022-12-23T09:28:41.747Z</time>
      </trkpt>
      <trkpt lat="45.30804" lon="-0.94377">
        <ele>55.968499</ele>
        <time>2022-12-23T09:28:43.749Z</time>
      </trkpt>
      <trkpt lat="45.308" lon="-0.9436">
        <ele>56.302358</ele>
        <time>2022-12-23T09:28:46.752Z</time>
      </trkpt>
      <trkpt lat="45.30797" lon="-0.94344">
        <ele>56.599634</ele>
        <time>2022-12-23T09:28:49.753Z</time>
      </trkpt>
      <trkpt lat="45.30794" lon="-0.94329">
        <ele>56.906139</ele>
        <time>2022-12-23T09:28:52.746Z</time>
      </trkpt>
      <trkpt lat="45.30791" lon="-0.94313">
        <ele>57.209922</ele>
        <time>2022-12-23T09:28:55.751Z</time>
      </trkpt>
      <trkpt lat="45.30787" lon="-0.94299">
        <ele>57.4881</ele>
        <time>2022-12-23T09:28:58.750Z</time>
      </trkpt>
      <trkpt lat="45.30784" lon="-0.94285">
        <ele>57.762813</ele>
        <time>2022-12-23T09:29:01.734Z</time>
      </trkpt>
      <trkpt lat="45.3078" lon="-0.94271">
        <ele>58.046153</ele>
        <time>2022-12-23T09:29:04.749Z</time>
      </trkpt>
      <trkpt lat="45.30777" lon="-0.94257">
        <ele>58.332159</ele>
        <time>2022-12-23T09:29:07.753Z</time>
      </trkpt>
      <trkpt lat="45.30774" lon="-0.94243">
        <ele>58.611513</ele>
        <time>2022-12-23T09:29:10.737Z</time>
      </trkpt>
      <trkpt lat="45.30771" lon="-0.94228">
        <ele>58.886524</ele>
        <time>2022-12-23T09:29:13.748Z</time>
      </trkpt>
      <trkpt lat="45.30768" lon="-0.94215">
        <ele>59.157649</ele>
        <time>2022-12-23T09:29:16.756Z</time>
      </trkpt>
      <trkpt lat="45.30765" lon="-0.94202">
        <ele>59.398533</ele>
        <time>2022-12-23T09:29:19.752Z</time>
      </trkpt>
      <trkpt lat="45.30763" lon="-0.9419">
        <ele>59.641061</ele>
        <time>2022-12-23T09:29:22.735Z</time>
      </trkpt>
      <trkpt lat="45.3076" lon="-0.94178">
        <ele>59.884715</ele>
        <time>2022-12-23T09:29:25.749Z</time>
      </trkpt>
      <trkpt lat="45.30757" lon="-0.94163">
        <ele>60.16662</ele>
        <time>2022-12-23T09:29:29.753Z</time>
      </trkpt>
      <trkpt lat="45.30752" lon="-0.9415">
        <ele>60.25657</ele>
        <time>2022-12-23T09:29:34.735Z</time>
      </trkpt>
      <trkpt lat="45.30751" lon="-0.94136">
        <ele>60.13723</ele>
        <time>2022-12-23T09:29:50.738Z</time>
      </trkpt>
      <trkpt lat="45.30758" lon="-0.94124">
        <ele>59.999844</ele>
        <time>2022-12-23T09:29:55.746Z</time>
      </trkpt>
      <trkpt lat="45.30766" lon="-0.94116">
        <ele>59.883042</ele>
        <time>2022-12-23T09:29:58.753Z</time>
      </trkpt>
      <trkpt lat="45.30775" lon="-0.9411">
        <ele>59.755115</ele>
        <time>2022-12-23T09:30:01.742Z</time>
      </trkpt>
      <trkpt lat="45.30785" lon="-0.94104">
        <ele>59.625997</ele>
        <time>2022-12-23T09:30:04.749Z</time>
      </trkpt>
      <trkpt lat="45.30796" lon="-0.941">
        <ele>59.485673</ele>
        <time>2022-12-23T09:30:07.747Z</time>
      </trkpt>
      <trkpt lat="45.30807" lon="-0.94094">
        <ele>59.346044</ele>
        <time>2022-12-23T09:30:10.749Z</time>
      </trkpt>
      <trkpt lat="45.30816" lon="-0.94087">
        <ele>59.210344</ele>
        <time>2022-12-23T09:30:13.753Z</time>
      </trkpt>
      <trkpt lat="45.30826" lon="-0.94078">
        <ele>59.068635</ele>
        <time>2022-12-23T09:30:16.735Z</time>
      </trkpt>
      <trkpt lat="45.30837" lon="-0.9407">
        <ele>58.918514</ele>
        <time>2022-12-23T09:30:19.750Z</time>
      </trkpt>
      <trkpt lat="45.30848" lon="-0.94063">
        <ele>58.779526</ele>
        <time>2022-12-23T09:30:22.728Z</time>
      </trkpt>
      <trkpt lat="45.30856" lon="-0.94057">
        <ele>58.658164</ele>
        <time>2022-12-23T09:30:26.753Z</time>
      </trkpt>
      <trkpt lat="45.30864" lon="-0.9405">
        <ele>58.545145</ele>
        <time>2022-12-23T09:30:30.750Z</time>
      </trkpt>
      <trkpt lat="45.30873" lon="-0.94045">
        <ele>58.433698</ele>
        <time>2022-12-23T09:30:33.752Z</time>
      </trkpt>
      <trkpt lat="45.30882" lon="-0.94038">
        <ele>58.308804</ele>
        <time>2022-12-23T09:30:36.755Z</time>
      </trkpt>
      <trkpt lat="45.30891" lon="-0.94031">
        <ele>58.181508</ele>
        <time>2022-12-23T09:30:39.743Z</time>
      </trkpt>
      <trkpt lat="45.309" lon="-0.94024">
        <ele>58.104147</ele>
        <time>2022-12-23T09:30:42.749Z</time>
      </trkpt>
      <trkpt lat="45.3091" lon="-0.94016">
        <ele>58.082649</ele>
        <time>2022-12-23T09:30:45.750Z</time>
      </trkpt>
      <trkpt lat="45.3092" lon="-0.94008">
        <ele>58.060383</ele>
        <time>2022-12-23T09:30:48.732Z</time>
      </trkpt>
      <trkpt lat="45.30931" lon="-0.94">
        <ele>58.038128</ele>
        <time>2022-12-23T09:30:51.750Z</time>
      </trkpt>
      <trkpt lat="45.30942" lon="-0.93992">
        <ele>58.014229</ele>
        <time>2022-12-23T09:30:54.751Z</time>
      </trkpt>
      <trkpt lat="45.30953" lon="-0.93985">
        <ele>57.991808</ele>
        <time>2022-12-23T09:30:57.763Z</time>
      </trkpt>
      <trkpt lat="45.30963" lon="-0.93978">
        <ele>57.97046</ele>
        <time>2022-12-23T09:31:00.750Z</time>
      </trkpt>
      <trkpt lat="45.30974" lon="-0.9397">
        <ele>57.947379</ele>
        <time>2022-12-23T09:31:03.751Z</time>
      </trkpt>
      <trkpt lat="45.30984" lon="-0.93962">
        <ele>57.925465</ele>
        <time>2022-12-23T09:31:06.749Z</time>
      </trkpt>
      <trkpt lat="45.30994" lon="-0.93956">
        <ele>57.904931</ele>
        <time>2022-12-23T09:31:09.750Z</time>
      </trkpt>
      <trkpt lat="45.31002" lon="-0.93949">
        <ele>57.887114</ele>
        <time>2022-12-23T09:31:13.751Z</time>
      </trkpt>
      <trkpt lat="45.3101" lon="-0.93943">
        <ele>57.869926</ele>
        <time>2022-12-23T09:31:16.751Z</time>
      </trkpt>
      <trkpt lat="45.31018" lon="-0.93934">
        <ele>57.850943</ele>
        <time>2022-12-23T09:31:19.751Z</time>
      </trkpt>
      <trkpt lat="45.31027" lon="-0.93926">
        <ele>57.830954</ele>
        <time>2022-12-23T09:31:23.753Z</time>
      </trkpt>
      <trkpt lat="45.31036" lon="-0.93928">
        <ele>57.813743</ele>
        <time>2022-12-23T09:31:39.730Z</time>
      </trkpt>
      <trkpt lat="45.31041" lon="-0.93939">
        <ele>57.795223</ele>
        <time>2022-12-23T09:31:43.735Z</time>
      </trkpt>
      <trkpt lat="45.31047" lon="-0.93951">
        <ele>57.776352</ele>
        <time>2022-12-23T09:31:47.751Z</time>
      </trkpt>
      <trkpt lat="45.31052" lon="-0.93962">
        <ele>57.559036</ele>
        <time>2022-12-23T09:31:51.742Z</time>
      </trkpt>
      <trkpt lat="45.31062" lon="-0.93963">
        <ele>57.274628</ele>
        <time>2022-12-23T09:31:58.749Z</time>
      </trkpt>
      <trkpt lat="45.31071" lon="-0.9396">
        <ele>57.026072</ele>
        <time>2022-12-23T09:32:02.760Z</time>
      </trkpt>
      <trkpt lat="45.31079" lon="-0.93966">
        <ele>56.76957</ele>
        <time>2022-12-23T09:32:07.753Z</time>
      </trkpt>
      <trkpt lat="45.31085" lon="-0.9398">
        <ele>56.460223</ele>
        <time>2022-12-23T09:32:12.809Z</time>
      </trkpt>
      <trkpt lat="45.3109" lon="-0.93993">
        <ele>56.169815</ele>
        <time>2022-12-23T09:32:16.759Z</time>
      </trkpt>
      <trkpt lat="45.31095" lon="-0.94005">
        <ele>55.892194</ele>
        <time>2022-12-23T09:32:20.753Z</time>
      </trkpt>
      <trkpt lat="45.3109" lon="-0.94017">
        <ele>55.612919</ele>
        <time>2022-12-23T09:32:26.756Z</time>
      </trkpt>
      <trkpt lat="45.31081" lon="-0.94015">
        <ele>55.361348</ele>
        <time>2022-12-23T09:32:30.751Z</time>
      </trkpt>
      <trkpt lat="45.31075" lon="-0.94003">
        <ele>55.075685</ele>
        <time>2022-12-23T09:32:35.789Z</time>
      </trkpt>
      <trkpt lat="45.31069" lon="-0.93991">
        <ele>54.79514</ele>
        <time>2022-12-23T09:32:40.746Z</time>
      </trkpt>
      <trkpt lat="45.31065" lon="-0.93982">
        <ele>54.588691</ele>
        <time>2022-12-23T09:33:38.631Z</time>
      </trkpt>
      <trkpt lat="45.31055" lon="-0.93981">
        <ele>54.316221</ele>
        <time>2022-12-23T10:34:06.742Z</time>
      </trkpt>
      <trkpt lat="45.3105" lon="-0.93969">
        <ele>54.055176</ele>
        <time>2022-12-23T10:34:12.739Z</time>
      </trkpt>
      <trkpt lat="45.31045" lon="-0.93957">
        <ele>53.788018</ele>
        <time>2022-12-23T10:34:17.744Z</time>
      </trkpt>
      <trkpt lat="45.3104" lon="-0.93945">
        <ele>53.5071</ele>
        <time>2022-12-23T10:34:22.764Z</time>
      </trkpt>
      <trkpt lat="45.31035" lon="-0.93933">
        <ele>53.244677</ele>
        <time>2022-12-23T10:34:27.746Z</time>
      </trkpt>
      <trkpt lat="45.31026" lon="-0.93938">
        <ele>52.972123</ele>
        <time>2022-12-23T10:34:32.738Z</time>
      </trkpt>
      <trkpt lat="45.31016" lon="-0.93946">
        <ele>52.845099</ele>
        <time>2022-12-23T10:34:36.744Z</time>
      </trkpt>
      <trkpt lat="45.31007" lon="-0.93951">
        <ele>52.890165</ele>
        <time>2022-12-23T10:34:39.733Z</time>
      </trkpt>
      <trkpt lat="45.30999" lon="-0.93958">
        <ele>52.936147</ele>
        <time>2022-12-23T10:34:42.738Z</time>
      </trkpt>
      <trkpt lat="45.3099" lon="-0.93964">
        <ele>52.981787</ele>
        <time>2022-12-23T10:34:45.737Z</time>
      </trkpt>
      <trkpt lat="45.30982" lon="-0.9397">
        <ele>53.027302</ele>
        <time>2022-12-23T10:34:48.749Z</time>
      </trkpt>
      <trkpt lat="45.30973" lon="-0.93976">
        <ele>53.071939</ele>
        <time>2022-12-23T10:34:51.755Z</time>
      </trkpt>
      <trkpt lat="45.30965" lon="-0.93982">
        <ele>53.116284</ele>
        <time>2022-12-23T10:34:54.727Z</time>
      </trkpt>
      <trkpt lat="45.30957" lon="-0.93988">
        <ele>53.159221</ele>
        <time>2022-12-23T10:34:57.732Z</time>
      </trkpt>
      <trkpt lat="45.30949" lon="-0.93994">
        <ele>53.202891</ele>
        <time>2022-12-23T10:35:00.737Z</time>
      </trkpt>
      <trkpt lat="45.3094" lon="-0.93999">
        <ele>53.250439</ele>
        <time>2022-12-23T10:35:03.742Z</time>
      </trkpt>
      <trkpt lat="45.30931" lon="-0.94006">
        <ele>53.299236</ele>
        <time>2022-12-23T10:35:06.757Z</time>
      </trkpt>
      <trkpt lat="45.30922" lon="-0.94013">
        <ele>53.347442</ele>
        <time>2022-12-23T10:35:09.732Z</time>
      </trkpt>
      <trkpt lat="45.30914" lon="-0.9402">
        <ele>53.392429</ele>
        <time>2022-12-23T10:35:12.738Z</time>
      </trkpt>
      <trkpt lat="45.30905" lon="-0.94026">
        <ele>53.437902</ele>
        <time>2022-12-23T10:35:15.750Z</time>
      </trkpt>
      <trkpt lat="45.30897" lon="-0.94033">
        <ele>53.481635</ele>
        <time>2022-12-23T10:35:18.753Z</time>
      </trkpt>
      <trkpt lat="45.30888" lon="-0.9404">
        <ele>53.532768</ele>
        <time>2022-12-23T10:35:21.748Z</time>
      </trkpt>
      <trkpt lat="45.30878" lon="-0.94047">
        <ele>53.583798</ele>
        <time>2022-12-23T10:35:24.757Z</time>
      </trkpt>
      <trkpt lat="45.30869" lon="-0.94054">
        <ele>53.632776</ele>
        <time>2022-12-23T10:35:27.756Z</time>
      </trkpt>
      <trkpt lat="45.30861" lon="-0.94061">
        <ele>53.673922</ele>
        <time>2022-12-23T10:35:30.748Z</time>
      </trkpt>
      <trkpt lat="45.30852" lon="-0.94068">
        <ele>53.662698</ele>
        <time>2022-12-23T10:35:33.761Z</time>
      </trkpt>
      <trkpt lat="45.30842" lon="-0.94075">
        <ele>53.650561</ele>
        <time>2022-12-23T10:35:36.743Z</time>
      </trkpt>
      <trkpt lat="45.30831" lon="-0.94083">
        <ele>53.637732</ele>
        <time>2022-12-23T10:35:39.736Z</time>
      </trkpt>
      <trkpt lat="45.3082" lon="-0.9409">
        <ele>53.624544</ele>
        <time>2022-12-23T10:35:42.753Z</time>
      </trkpt>
      <trkpt lat="45.3081" lon="-0.94098">
        <ele>53.61159</ele>
        <time>2022-12-23T10:35:45.749Z</time>
      </trkpt>
      <trkpt lat="45.30799" lon="-0.94104">
        <ele>53.599384</ele>
        <time>2022-12-23T10:35:48.756Z</time>
      </trkpt>
      <trkpt lat="45.30789" lon="-0.94111">
        <ele>53.587339</ele>
        <time>2022-12-23T10:35:51.739Z</time>
      </trkpt>
      <trkpt lat="45.30779" lon="-0.94116">
        <ele>53.575879</ele>
        <time>2022-12-23T10:35:54.742Z</time>
      </trkpt>
      <trkpt lat="45.3077" lon="-0.9412">
        <ele>53.565441</ele>
        <time>2022-12-23T10:35:57.753Z</time>
      </trkpt>
      <trkpt lat="45.30762" lon="-0.94125">
        <ele>53.555582</ele>
        <time>2022-12-23T10:36:00.751Z</time>
      </trkpt>
      <trkpt lat="45.30754" lon="-0.94133">
        <ele>53.545667</ele>
        <time>2022-12-23T10:36:03.734Z</time>
      </trkpt>
      <trkpt lat="45.30748" lon="-0.94144">
        <ele>53.534951</ele>
        <time>2022-12-23T10:36:06.735Z</time>
      </trkpt>
      <trkpt lat="45.30741" lon="-0.94155">
        <ele>53.523345</ele>
        <time>2022-12-23T10:36:09.729Z</time>
      </trkpt>
      <trkpt lat="45.30734" lon="-0.94165">
        <ele>53.51257</ele>
        <time>2022-12-23T10:36:12.750Z</time>
      </trkpt>
      <trkpt lat="45.30727" lon="-0.94174">
        <ele>53.502322</ele>
        <time>2022-12-23T10:36:15.753Z</time>
      </trkpt>
      <trkpt lat="45.30719" lon="-0.94183">
        <ele>53.491185</ele>
        <time>2022-12-23T10:36:18.756Z</time>
      </trkpt>
      <trkpt lat="45.3071" lon="-0.94193">
        <ele>53.47895</ele>
        <time>2022-12-23T10:36:21.763Z</time>
      </trkpt>
      <trkpt lat="45.30701" lon="-0.94203">
        <ele>53.456652</ele>
        <time>2022-12-23T10:36:24.749Z</time>
      </trkpt>
      <trkpt lat="45.30692" lon="-0.94214">
        <ele>53.433889</ele>
        <time>2022-12-23T10:36:27.743Z</time>
      </trkpt>
      <trkpt lat="45.30683" lon="-0.94224">
        <ele>53.411781</ele>
        <time>2022-12-23T10:36:30.742Z</time>
      </trkpt>
      <trkpt lat="45.30674" lon="-0.94234">
        <ele>53.390773</ele>
        <time>2022-12-23T10:36:33.754Z</time>
      </trkpt>
      <trkpt lat="45.30666" lon="-0.94244">
        <ele>53.369911</ele>
        <time>2022-12-23T10:36:36.754Z</time>
      </trkpt>
      <trkpt lat="45.30658" lon="-0.94253">
        <ele>53.350813</ele>
        <time>2022-12-23T10:36:39.739Z</time>
      </trkpt>
      <trkpt lat="45.30649" lon="-0.94262">
        <ele>53.329938</ele>
        <time>2022-12-23T10:36:42.759Z</time>
      </trkpt>
      <trkpt lat="45.3064" lon="-0.94272">
        <ele>53.308022</ele>
        <time>2022-12-23T10:36:45.739Z</time>
      </trkpt>
      <trkpt lat="45.30631" lon="-0.94283">
        <ele>53.285941</ele>
        <time>2022-12-23T10:36:48.743Z</time>
      </trkpt>
      <trkpt lat="45.30623" lon="-0.94294">
        <ele>53.263772</ele>
        <time>2022-12-23T10:36:51.747Z</time>
      </trkpt>
      <trkpt lat="45.30614" lon="-0.94304">
        <ele>53.242868</ele>
        <time>2022-12-23T10:36:54.748Z</time>
      </trkpt>
      <trkpt lat="45.30607" lon="-0.94313">
        <ele>53.223883</ele>
        <time>2022-12-23T10:36:57.752Z</time>
      </trkpt>
      <trkpt lat="45.30599" lon="-0.94322">
        <ele>53.20429</ele>
        <time>2022-12-23T10:37:00.749Z</time>
      </trkpt>
      <trkpt lat="45.3059" lon="-0.94331">
        <ele>53.184807</ele>
        <time>2022-12-23T10:37:03.748Z</time>
      </trkpt>
      <trkpt lat="45.30582" lon="-0.9434">
        <ele>53.165329</ele>
        <time>2022-12-23T10:37:06.750Z</time>
      </trkpt>
      <trkpt lat="45.30574" lon="-0.94348">
        <ele>53.146231</ele>
        <time>2022-12-23T10:37:09.757Z</time>
      </trkpt>
      <trkpt lat="45.30566" lon="-0.94357">
        <ele>53.059832</ele>
        <time>2022-12-23T10:37:12.755Z</time>
      </trkpt>
      <trkpt lat="45.30558" lon="-0.94368">
        <ele>52.916505</ele>
        <time>2022-12-23T10:37:15.731Z</time>
      </trkpt>
      <trkpt lat="45.3055" lon="-0.94379">
        <ele>52.766972</ele>
        <time>2022-12-23T10:37:18.754Z</time>
      </trkpt>
      <trkpt lat="45.30542" lon="-0.9439">
        <ele>52.612121</ele>
        <time>2022-12-23T10:37:21.756Z</time>
      </trkpt>
      <trkpt lat="45.30533" lon="-0.944">
        <ele>52.457692</ele>
        <time>2022-12-23T10:37:24.755Z</time>
      </trkpt>
      <trkpt lat="45.30524" lon="-0.9441">
        <ele>52.302222</ele>
        <time>2022-12-23T10:37:27.754Z</time>
      </trkpt>
      <trkpt lat="45.30515" lon="-0.94421">
        <ele>52.142415</ele>
        <time>2022-12-23T10:37:30.755Z</time>
      </trkpt>
      <trkpt lat="45.30506" lon="-0.94432">
        <ele>51.981111</ele>
        <time>2022-12-23T10:37:33.754Z</time>
      </trkpt>
      <trkpt lat="45.30498" lon="-0.94443">
        <ele>51.828907</ele>
        <time>2022-12-23T10:37:36.750Z</time>
      </trkpt>
      <trkpt lat="45.3049" lon="-0.94453">
        <ele>51.68804</ele>
        <time>2022-12-23T10:37:39.752Z</time>
      </trkpt>
      <trkpt lat="45.30483" lon="-0.94461">
        <ele>51.562778</ele>
        <time>2022-12-23T10:37:42.753Z</time>
      </trkpt>
      <trkpt lat="45.30476" lon="-0.94471">
        <ele>51.433155</ele>
        <time>2022-12-23T10:37:45.750Z</time>
      </trkpt>
      <trkpt lat="45.30468" lon="-0.94481">
        <ele>51.293306</ele>
        <time>2022-12-23T10:37:48.755Z</time>
      </trkpt>
      <trkpt lat="45.3046" lon="-0.94491">
        <ele>51.146485</ele>
        <time>2022-12-23T10:37:51.751Z</time>
      </trkpt>
      <trkpt lat="45.30451" lon="-0.945">
        <ele>51.000444</ele>
        <time>2022-12-23T10:37:54.754Z</time>
      </trkpt>
      <trkpt lat="45.30443" lon="-0.94508">
        <ele>50.8668</ele>
        <time>2022-12-23T10:37:57.749Z</time>
      </trkpt>
      <trkpt lat="45.30434" lon="-0.94511">
        <ele>50.741345</ele>
        <time>2022-12-23T10:38:00.734Z</time>
      </trkpt>
      <trkpt lat="45.30425" lon="-0.94505">
        <ele>50.663429</ele>
        <time>2022-12-23T10:38:03.735Z</time>
      </trkpt>
      <trkpt lat="45.30419" lon="-0.94495">
        <ele>50.601805</ele>
        <time>2022-12-23T10:38:06.737Z</time>
      </trkpt>
      <trkpt lat="45.30413" lon="-0.94484">
        <ele>50.539841</ele>
        <time>2022-12-23T10:38:09.736Z</time>
      </trkpt>
      <trkpt lat="45.30406" lon="-0.94471">
        <ele>50.468204</ele>
        <time>2022-12-23T10:38:12.755Z</time>
      </trkpt>
      <trkpt lat="45.304" lon="-0.9446">
        <ele>50.405738</ele>
        <time>2022-12-23T10:38:15.756Z</time>
      </trkpt>
      <trkpt lat="45.30394" lon="-0.94448">
        <ele>50.338049</ele>
        <time>2022-12-23T10:38:19.754Z</time>
      </trkpt>
      <trkpt lat="45.30386" lon="-0.94438">
        <ele>50.271305</ele>
        <time>2022-12-23T10:38:23.756Z</time>
      </trkpt>
      <trkpt lat="45.30375" lon="-0.94441">
        <ele>50.203419</ele>
        <time>2022-12-23T10:38:27.731Z</time>
      </trkpt>
      <trkpt lat="45.3037" lon="-0.94452">
        <ele>50.142076</ele>
        <time>2022-12-23T10:38:30.731Z</time>
      </trkpt>
      <trkpt lat="45.30364" lon="-0.94465">
        <ele>50.075447</ele>
        <time>2022-12-23T10:38:33.751Z</time>
      </trkpt>
      <trkpt lat="45.30359" lon="-0.94478">
        <ele>50.007661</ele>
        <time>2022-12-23T10:38:36.751Z</time>
      </trkpt>
      <trkpt lat="45.30352" lon="-0.9449">
        <ele>49.934823</ele>
        <time>2022-12-23T10:38:40.733Z</time>
      </trkpt>
      <trkpt lat="45.30342" lon="-0.94489">
        <ele>49.875849</ele>
        <time>2022-12-23T10:38:43.733Z</time>
      </trkpt>
      <trkpt lat="45.30334" lon="-0.94481">
        <ele>49.812112</ele>
        <time>2022-12-23T10:38:46.741Z</time>
      </trkpt>
      <trkpt lat="45.30327" lon="-0.94471">
        <ele>49.74725</ele>
        <time>2022-12-23T10:38:49.727Z</time>
      </trkpt>
      <trkpt lat="45.30321" lon="-0.9446">
        <ele>49.684311</ele>
        <time>2022-12-23T10:38:52.753Z</time>
      </trkpt>
      <trkpt lat="45.30315" lon="-0.9445">
        <ele>49.624321</ele>
        <time>2022-12-23T10:38:55.756Z</time>
      </trkpt>
      <trkpt lat="45.30309" lon="-0.94439">
        <ele>49.563278</ele>
        <time>2022-12-23T10:38:58.752Z</time>
      </trkpt>
      <trkpt lat="45.30303" lon="-0.94428">
        <ele>49.489974</ele>
        <time>2022-12-23T10:39:01.753Z</time>
      </trkpt>
      <trkpt lat="45.30297" lon="-0.94417">
        <ele>49.418124</ele>
        <time>2022-12-23T10:39:04.755Z</time>
      </trkpt>
      <trkpt lat="45.30294" lon="-0.94403">
        <ele>49.341689</ele>
        <time>2022-12-23T10:39:07.735Z</time>
      </trkpt>
      <trkpt lat="45.3029" lon="-0.94388">
        <ele>49.261266</ele>
        <time>2022-12-23T10:39:10.731Z</time>
      </trkpt>
      <trkpt lat="45.30287" lon="-0.94373">
        <ele>49.179344</ele>
        <time>2022-12-23T10:39:13.740Z</time>
      </trkpt>
      <trkpt lat="45.30284" lon="-0.94359">
        <ele>49.100138</ele>
        <time>2022-12-23T10:39:16.751Z</time>
      </trkpt>
      <trkpt lat="45.30281" lon="-0.94346">
        <ele>49.028581</ele>
        <time>2022-12-23T10:39:19.754Z</time>
      </trkpt>
      <trkpt lat="45.30279" lon="-0.94331">
        <ele>48.948648</ele>
        <time>2022-12-23T10:39:23.752Z</time>
      </trkpt>
      <trkpt lat="45.30275" lon="-0.94319">
        <ele>48.877457</ele>
        <time>2022-12-23T10:39:27.743Z</time>
      </trkpt>
      <trkpt lat="45.30265" lon="-0.94316">
        <ele>48.802553</ele>
        <time>2022-12-23T10:39:31.734Z</time>
      </trkpt>
      <trkpt lat="45.30254" lon="-0.94322">
        <ele>48.716202</ele>
        <time>2022-12-23T10:39:35.742Z</time>
      </trkpt>
      <trkpt lat="45.30243" lon="-0.9432">
        <ele>48.63138</ele>
        <time>2022-12-23T10:39:39.734Z</time>
      </trkpt>
      <trkpt lat="45.30234" lon="-0.94311">
        <ele>48.553528</ele>
        <time>2022-12-23T10:39:43.731Z</time>
      </trkpt>
      <trkpt lat="45.30228" lon="-0.94298">
        <ele>48.470596</ele>
        <time>2022-12-23T10:39:47.741Z</time>
      </trkpt>
      <trkpt lat="45.30222" lon="-0.94287">
        <ele>48.399627</ele>
        <time>2022-12-23T10:39:50.752Z</time>
      </trkpt>
      <trkpt lat="45.30216" lon="-0.94276">
        <ele>48.32481</ele>
        <time>2022-12-23T10:39:53.751Z</time>
      </trkpt>
      <trkpt lat="45.3021" lon="-0.94264">
        <ele>48.248577</ele>
        <time>2022-12-23T10:39:56.756Z</time>
      </trkpt>
      <trkpt lat="45.30203" lon="-0.94253">
        <ele>48.323843</ele>
        <time>2022-12-23T10:39:59.753Z</time>
      </trkpt>
      <trkpt lat="45.30197" lon="-0.94241">
        <ele>48.470567</ele>
        <time>2022-12-23T10:40:02.760Z</time>
      </trkpt>
      <trkpt lat="45.30189" lon="-0.94229">
        <ele>48.622375</ele>
        <time>2022-12-23T10:40:05.753Z</time>
      </trkpt>
      <trkpt lat="45.30182" lon="-0.94217">
        <ele>48.773919</ele>
        <time>2022-12-23T10:40:08.754Z</time>
      </trkpt>
      <trkpt lat="45.30175" lon="-0.94205">
        <ele>48.926068</ele>
        <time>2022-12-23T10:40:11.754Z</time>
      </trkpt>
      <trkpt lat="45.30168" lon="-0.94193">
        <ele>49.075451</ele>
        <time>2022-12-23T10:40:14.754Z</time>
      </trkpt>
      <trkpt lat="45.30161" lon="-0.94181">
        <ele>49.224535</ele>
        <time>2022-12-23T10:40:17.754Z</time>
      </trkpt>
      <trkpt lat="45.30154" lon="-0.94169">
        <ele>49.370545</ele>
        <time>2022-12-23T10:40:20.754Z</time>
      </trkpt>
      <trkpt lat="45.30148" lon="-0.94157">
        <ele>49.513012</ele>
        <time>2022-12-23T10:40:23.731Z</time>
      </trkpt>
      <trkpt lat="45.30141" lon="-0.94146">
        <ele>49.65709</ele>
        <time>2022-12-23T10:40:26.745Z</time>
      </trkpt>
      <trkpt lat="45.30135" lon="-0.94135">
        <ele>49.796124</ele>
        <time>2022-12-23T10:40:29.751Z</time>
      </trkpt>
      <trkpt lat="45.30127" lon="-0.94122">
        <ele>49.959109</ele>
        <time>2022-12-23T10:40:33.753Z</time>
      </trkpt>
      <trkpt lat="45.30121" lon="-0.94111">
        <ele>50.0879</ele>
        <time>2022-12-23T10:40:36.753Z</time>
      </trkpt>
      <trkpt lat="45.30116" lon="-0.94101">
        <ele>50.211063</ele>
        <time>2022-12-23T10:40:39.755Z</time>
      </trkpt>
      <trkpt lat="45.30111" lon="-0.94086">
        <ele>50.364471</ele>
        <time>2022-12-23T10:40:43.729Z</time>
      </trkpt>
      <trkpt lat="45.30105" lon="-0.94075">
        <ele>50.502857</ele>
        <time>2022-12-23T10:40:48.753Z</time>
      </trkpt>
      <trkpt lat="45.30096" lon="-0.94071">
        <ele>50.626946</ele>
        <time>2022-12-23T10:40:53.746Z</time>
      </trkpt>
      <trkpt lat="45.30087" lon="-0.94078">
        <ele>50.750772</ele>
        <time>2022-12-23T10:40:58.751Z</time>
      </trkpt>
      <trkpt lat="45.30078" lon="-0.94086">
        <ele>50.867568</ele>
        <time>2022-12-23T10:41:02.750Z</time>
      </trkpt>
      <trkpt lat="45.3007" lon="-0.94093">
        <ele>50.975436</ele>
        <time>2022-12-23T10:41:05.757Z</time>
      </trkpt>
      <trkpt lat="45.30061" lon="-0.94102">
        <ele>51.098864</ele>
        <time>2022-12-23T10:41:08.738Z</time>
      </trkpt>
      <trkpt lat="45.30051" lon="-0.94111">
        <ele>51.230227</ele>
        <time>2022-12-23T10:41:11.750Z</time>
      </trkpt>
      <trkpt lat="45.30042" lon="-0.94121">
        <ele>51.362369</ele>
        <time>2022-12-23T10:41:14.752Z</time>
      </trkpt>
      <trkpt lat="45.30032" lon="-0.94131">
        <ele>51.496764</ele>
        <time>2022-12-23T10:41:17.745Z</time>
      </trkpt>
      <trkpt lat="45.30022" lon="-0.94141">
        <ele>51.633883</ele>
        <time>2022-12-23T10:41:20.762Z</time>
      </trkpt>
      <trkpt lat="45.30012" lon="-0.94152">
        <ele>51.767563</ele>
        <time>2022-12-23T10:41:23.737Z</time>
      </trkpt>
      <trkpt lat="45.30003" lon="-0.94162">
        <ele>51.902735</ele>
        <time>2022-12-23T10:41:26.755Z</time>
      </trkpt>
      <trkpt lat="45.29994" lon="-0.94173">
        <ele>52.033454</ele>
        <time>2022-12-23T10:41:29.756Z</time>
      </trkpt>
      <trkpt lat="45.29986" lon="-0.94184">
        <ele>52.162142</ele>
        <time>2022-12-23T10:41:32.752Z</time>
      </trkpt>
      <trkpt lat="45.29977" lon="-0.94195">
        <ele>52.292117</ele>
        <time>2022-12-23T10:41:35.742Z</time>
      </trkpt>
      <trkpt lat="45.29968" lon="-0.94205">
        <ele>52.420323</ele>
        <time>2022-12-23T10:41:38.737Z</time>
      </trkpt>
      <trkpt lat="45.2996" lon="-0.94217">
        <ele>52.553275</ele>
        <time>2022-12-23T10:41:41.747Z</time>
      </trkpt>
      <trkpt lat="45.29951" lon="-0.94229">
        <ele>52.688686</ele>
        <time>2022-12-23T10:41:44.740Z</time>
      </trkpt>
      <trkpt lat="45.29942" lon="-0.9424">
        <ele>52.663154</ele>
        <time>2022-12-23T10:41:47.753Z</time>
      </trkpt>
      <trkpt lat="45.29932" lon="-0.94252">
        <ele>52.629895</ele>
        <time>2022-12-23T10:41:50.725Z</time>
      </trkpt>
      <trkpt lat="45.29923" lon="-0.94263">
        <ele>52.597707</ele>
        <time>2022-12-23T10:41:53.749Z</time>
      </trkpt>
      <trkpt lat="45.29913" lon="-0.94274">
        <ele>52.564448</ele>
        <time>2022-12-23T10:41:56.733Z</time>
      </trkpt>
      <trkpt lat="45.29904" lon="-0.94287">
        <ele>52.530841</ele>
        <time>2022-12-23T10:41:59.751Z</time>
      </trkpt>
      <trkpt lat="45.29894" lon="-0.94298">
        <ele>52.497783</ele>
        <time>2022-12-23T10:42:02.731Z</time>
      </trkpt>
      <trkpt lat="45.29885" lon="-0.9431">
        <ele>52.46371</ele>
        <time>2022-12-23T10:42:05.750Z</time>
      </trkpt>
      <trkpt lat="45.29875" lon="-0.94322">
        <ele>52.429037</ele>
        <time>2022-12-23T10:42:08.754Z</time>
      </trkpt>
      <trkpt lat="45.29865" lon="-0.94335">
        <ele>52.394726</ele>
        <time>2022-12-23T10:42:11.750Z</time>
      </trkpt>
      <trkpt lat="45.29855" lon="-0.94347">
        <ele>52.359406</ele>
        <time>2022-12-23T10:42:14.755Z</time>
      </trkpt>
      <trkpt lat="45.29849" lon="-0.94356">
        <ele>52.334732</ele>
        <time>2022-12-23T10:42:16.757Z</time>
      </trkpt>
      <trkpt lat="45.29842" lon="-0.94365">
        <ele>52.309791</ele>
        <time>2022-12-23T10:42:18.753Z</time>
      </trkpt>
      <trkpt lat="45.29835" lon="-0.94373">
        <ele>52.285787</ele>
        <time>2022-12-23T10:42:20.757Z</time>
      </trkpt>
      <trkpt lat="45.29828" lon="-0.94382">
        <ele>52.261491</ele>
        <time>2022-12-23T10:42:22.754Z</time>
      </trkpt>
      <trkpt lat="45.29821" lon="-0.94391">
        <ele>52.237265</ele>
        <time>2022-12-23T10:42:24.729Z</time>
      </trkpt>
      <trkpt lat="45.29814" lon="-0.944">
        <ele>52.224346</ele>
        <time>2022-12-23T10:42:26.737Z</time>
      </trkpt>
      <trkpt lat="45.29804" lon="-0.94413">
        <ele>52.276276</ele>
        <time>2022-12-23T10:42:29.762Z</time>
      </trkpt>
      <trkpt lat="45.29797" lon="-0.94422">
        <ele>52.314041</ele>
        <time>2022-12-23T10:42:31.741Z</time>
      </trkpt>
      <trkpt lat="45.29791" lon="-0.94431">
        <ele>52.349626</ele>
        <time>2022-12-23T10:42:33.746Z</time>
      </trkpt>
      <trkpt lat="45.29784" lon="-0.9444">
        <ele>52.386809</ele>
        <time>2022-12-23T10:42:35.751Z</time>
      </trkpt>
      <trkpt lat="45.29777" lon="-0.94449">
        <ele>52.423061</ele>
        <time>2022-12-23T10:42:37.752Z</time>
      </trkpt>
      <trkpt lat="45.29767" lon="-0.94461">
        <ele>52.47331</ele>
        <time>2022-12-23T10:42:40.743Z</time>
      </trkpt>
      <trkpt lat="45.29758" lon="-0.94473">
        <ele>52.522492</ele>
        <time>2022-12-23T10:42:43.760Z</time>
      </trkpt>
      <trkpt lat="45.29749" lon="-0.94484">
        <ele>52.571015</ele>
        <time>2022-12-23T10:42:46.755Z</time>
      </trkpt>
      <trkpt lat="45.29739" lon="-0.94497">
        <ele>52.62121</ele>
        <time>2022-12-23T10:42:49.742Z</time>
      </trkpt>
      <trkpt lat="45.2973" lon="-0.94509">
        <ele>52.670456</ele>
        <time>2022-12-23T10:42:52.752Z</time>
      </trkpt>
      <trkpt lat="45.29721" lon="-0.94521">
        <ele>52.7199</ele>
        <time>2022-12-23T10:42:55.752Z</time>
      </trkpt>
      <trkpt lat="45.29714" lon="-0.9453">
        <ele>52.755964</ele>
        <time>2022-12-23T10:42:57.735Z</time>
      </trkpt>
      <trkpt lat="45.29704" lon="-0.94542">
        <ele>52.806871</ele>
        <time>2022-12-23T10:43:00.751Z</time>
      </trkpt>
      <trkpt lat="45.29695" lon="-0.94555">
        <ele>52.858403</ele>
        <time>2022-12-23T10:43:03.751Z</time>
      </trkpt>
      <trkpt lat="45.29685" lon="-0.94566">
        <ele>52.907476</ele>
        <time>2022-12-23T10:43:06.750Z</time>
      </trkpt>
      <trkpt lat="45.29676" lon="-0.94581">
        <ele>52.947281</ele>
        <time>2022-12-23T10:43:09.754Z</time>
      </trkpt>
      <trkpt lat="45.29669" lon="-0.94589">
        <ele>52.969746</ele>
        <time>2022-12-23T10:43:11.751Z</time>
      </trkpt>
      <trkpt lat="45.29662" lon="-0.94599">
        <ele>52.993622</ele>
        <time>2022-12-23T10:43:13.753Z</time>
      </trkpt>
      <trkpt lat="45.29655" lon="-0.94608">
        <ele>53.017031</ele>
        <time>2022-12-23T10:43:15.752Z</time>
      </trkpt>
      <trkpt lat="45.29648" lon="-0.94617">
        <ele>53.040371</ele>
        <time>2022-12-23T10:43:17.756Z</time>
      </trkpt>
      <trkpt lat="45.29641" lon="-0.94625">
        <ele>53.063665</ele>
        <time>2022-12-23T10:43:19.755Z</time>
      </trkpt>
      <trkpt lat="45.29634" lon="-0.94634">
        <ele>53.085806</ele>
        <time>2022-12-23T10:43:21.745Z</time>
      </trkpt>
      <trkpt lat="45.29627" lon="-0.94643">
        <ele>53.108729</ele>
        <time>2022-12-23T10:43:23.755Z</time>
      </trkpt>
      <trkpt lat="45.2962" lon="-0.94651">
        <ele>53.131684</ele>
        <time>2022-12-23T10:43:25.733Z</time>
      </trkpt>
      <trkpt lat="45.29613" lon="-0.9466">
        <ele>53.155209</ele>
        <time>2022-12-23T10:43:27.735Z</time>
      </trkpt>
      <trkpt lat="45.29606" lon="-0.94669">
        <ele>53.178618</ele>
        <time>2022-12-23T10:43:29.734Z</time>
      </trkpt>
      <trkpt lat="45.29599" lon="-0.94678">
        <ele>53.202012</ele>
        <time>2022-12-23T10:43:31.750Z</time>
      </trkpt>
      <trkpt lat="45.29592" lon="-0.94688">
        <ele>53.225226</ele>
        <time>2022-12-23T10:43:33.758Z</time>
      </trkpt>
      <trkpt lat="45.29585" lon="-0.94696">
        <ele>53.248294</ele>
        <time>2022-12-23T10:43:35.753Z</time>
      </trkpt>
      <trkpt lat="45.29575" lon="-0.94709">
        <ele>53.281387</ele>
        <time>2022-12-23T10:43:38.749Z</time>
      </trkpt>
      <trkpt lat="45.29569" lon="-0.94718">
        <ele>53.303826</ele>
        <time>2022-12-23T10:43:40.755Z</time>
      </trkpt>
      <trkpt lat="45.29558" lon="-0.94731">
        <ele>53.338604</ele>
        <time>2022-12-23T10:43:43.751Z</time>
      </trkpt>
      <trkpt lat="45.29551" lon="-0.9474">
        <ele>53.361785</ele>
        <time>2022-12-23T10:43:45.744Z</time>
      </trkpt>
      <trkpt lat="45.29541" lon="-0.94754">
        <ele>53.498312</ele>
        <time>2022-12-23T10:43:48.752Z</time>
      </trkpt>
      <trkpt lat="45.29534" lon="-0.94762">
        <ele>53.601401</ele>
        <time>2022-12-23T10:43:50.756Z</time>
      </trkpt>
      <trkpt lat="45.29527" lon="-0.94771">
        <ele>53.705792</ele>
        <time>2022-12-23T10:43:52.752Z</time>
      </trkpt>
      <trkpt lat="45.2952" lon="-0.94779">
        <ele>53.811561</ele>
        <time>2022-12-23T10:43:54.751Z</time>
      </trkpt>
      <trkpt lat="45.29513" lon="-0.94787">
        <ele>53.917031</ele>
        <time>2022-12-23T10:43:56.756Z</time>
      </trkpt>
      <trkpt lat="45.29503" lon="-0.948">
        <ele>54.067733</ele>
        <time>2022-12-23T10:43:59.744Z</time>
      </trkpt>
      <trkpt lat="45.29493" lon="-0.94813">
        <ele>54.220648</ele>
        <time>2022-12-23T10:44:02.754Z</time>
      </trkpt>
      <trkpt lat="45.29485" lon="-0.94821">
        <ele>54.325408</ele>
        <time>2022-12-23T10:44:04.751Z</time>
      </trkpt>
      <trkpt lat="45.29474" lon="-0.94833">
        <ele>54.480727</ele>
        <time>2022-12-23T10:44:07.749Z</time>
      </trkpt>
      <trkpt lat="45.29465" lon="-0.94844">
        <ele>54.62055</ele>
        <time>2022-12-23T10:44:10.737Z</time>
      </trkpt>
      <trkpt lat="45.29456" lon="-0.94855">
        <ele>54.756061</ele>
        <time>2022-12-23T10:44:13.745Z</time>
      </trkpt>
      <trkpt lat="45.29447" lon="-0.94868">
        <ele>54.89879</ele>
        <time>2022-12-23T10:44:16.756Z</time>
      </trkpt>
      <trkpt lat="45.29438" lon="-0.94881">
        <ele>55.044589</ele>
        <time>2022-12-23T10:44:19.752Z</time>
      </trkpt>
      <trkpt lat="45.29429" lon="-0.94893">
        <ele>55.187597</ele>
        <time>2022-12-23T10:44:22.757Z</time>
      </trkpt>
      <trkpt lat="45.29419" lon="-0.94906">
        <ele>55.334494</ele>
        <time>2022-12-23T10:44:25.753Z</time>
      </trkpt>
      <trkpt lat="45.29409" lon="-0.94918">
        <ele>55.450115</ele>
        <time>2022-12-23T10:44:28.730Z</time>
      </trkpt>
      <trkpt lat="45.294" lon="-0.94929">
        <ele>55.540553</ele>
        <time>2022-12-23T10:44:31.759Z</time>
      </trkpt>
      <trkpt lat="45.29391" lon="-0.94941">
        <ele>55.628572</ele>
        <time>2022-12-23T10:44:34.750Z</time>
      </trkpt>
      <trkpt lat="45.29382" lon="-0.94952">
        <ele>55.711993</ele>
        <time>2022-12-23T10:44:37.740Z</time>
      </trkpt>
      <trkpt lat="45.29374" lon="-0.94963">
        <ele>55.793926</ele>
        <time>2022-12-23T10:44:40.745Z</time>
      </trkpt>
      <trkpt lat="45.29365" lon="-0.94975">
        <ele>55.881772</ele>
        <time>2022-12-23T10:44:43.749Z</time>
      </trkpt>
      <trkpt lat="45.29356" lon="-0.94987">
        <ele>55.970677</ele>
        <time>2022-12-23T10:44:46.744Z</time>
      </trkpt>
      <trkpt lat="45.2935" lon="-0.95001">
        <ele>56.056927</ele>
        <time>2022-12-23T10:44:49.732Z</time>
      </trkpt>
      <trkpt lat="45.29346" lon="-0.95017">
        <ele>56.138942</ele>
        <time>2022-12-23T10:44:52.739Z</time>
      </trkpt>
      <trkpt lat="45.29339" lon="-0.95027">
        <ele>56.213395</ele>
        <time>2022-12-23T10:44:55.755Z</time>
      </trkpt>
      <trkpt lat="45.29329" lon="-0.95031">
        <ele>56.287137</ele>
        <time>2022-12-23T10:44:58.733Z</time>
      </trkpt>
      <trkpt lat="45.29319" lon="-0.95038">
        <ele>56.365967</ele>
        <time>2022-12-23T10:45:01.736Z</time>
      </trkpt>
      <trkpt lat="45.2931" lon="-0.95048">
        <ele>56.450851</ele>
        <time>2022-12-23T10:45:04.736Z</time>
      </trkpt>
      <trkpt lat="45.29301" lon="-0.95059">
        <ele>56.532979</ele>
        <time>2022-12-23T10:45:07.728Z</time>
      </trkpt>
      <trkpt lat="45.29293" lon="-0.9507">
        <ele>56.618908</ele>
        <time>2022-12-23T10:45:10.751Z</time>
      </trkpt>
      <trkpt lat="45.29283" lon="-0.95082">
        <ele>56.71352</ele>
        <time>2022-12-23T10:45:13.756Z</time>
      </trkpt>
      <trkpt lat="45.29274" lon="-0.95093">
        <ele>56.850905</ele>
        <time>2022-12-23T10:45:16.749Z</time>
      </trkpt>
      <trkpt lat="45.29265" lon="-0.95104">
        <ele>56.985049</ele>
        <time>2022-12-23T10:45:19.754Z</time>
      </trkpt>
      <trkpt lat="45.29257" lon="-0.95115">
        <ele>57.111143</ele>
        <time>2022-12-23T10:45:22.744Z</time>
      </trkpt>
      <trkpt lat="45.29248" lon="-0.95126">
        <ele>57.239002</ele>
        <time>2022-12-23T10:45:25.751Z</time>
      </trkpt>
      <trkpt lat="45.2924" lon="-0.95137">
        <ele>57.366546</ele>
        <time>2022-12-23T10:45:28.757Z</time>
      </trkpt>
      <trkpt lat="45.29231" lon="-0.95147">
        <ele>57.493212</ele>
        <time>2022-12-23T10:45:31.752Z</time>
      </trkpt>
      <trkpt lat="45.29223" lon="-0.95158">
        <ele>57.620453</ele>
        <time>2022-12-23T10:45:34.753Z</time>
      </trkpt>
      <trkpt lat="45.29214" lon="-0.95169">
        <ele>57.750116</ele>
        <time>2022-12-23T10:45:37.755Z</time>
      </trkpt>
      <trkpt lat="45.29205" lon="-0.95181">
        <ele>57.887387</ele>
        <time>2022-12-23T10:45:40.746Z</time>
      </trkpt>
      <trkpt lat="45.29196" lon="-0.95193">
        <ele>58.026848</ele>
        <time>2022-12-23T10:45:43.754Z</time>
      </trkpt>
      <trkpt lat="45.29187" lon="-0.95205">
        <ele>58.167618</ele>
        <time>2022-12-23T10:45:46.754Z</time>
      </trkpt>
      <trkpt lat="45.29177" lon="-0.95218">
        <ele>58.310268</ele>
        <time>2022-12-23T10:45:49.740Z</time>
      </trkpt>
      <trkpt lat="45.29168" lon="-0.9523">
        <ele>58.453736</ele>
        <time>2022-12-23T10:45:52.752Z</time>
      </trkpt>
      <trkpt lat="45.29159" lon="-0.95242">
        <ele>58.592324</ele>
        <time>2022-12-23T10:45:55.743Z</time>
      </trkpt>
      <trkpt lat="45.2915" lon="-0.95253">
        <ele>58.724891</ele>
        <time>2022-12-23T10:45:58.741Z</time>
      </trkpt>
      <trkpt lat="45.29141" lon="-0.95264">
        <ele>58.84997</ele>
        <time>2022-12-23T10:46:01.747Z</time>
      </trkpt>
      <trkpt lat="45.29133" lon="-0.95276">
        <ele>58.976639</ele>
        <time>2022-12-23T10:46:04.758Z</time>
      </trkpt>
      <trkpt lat="45.29124" lon="-0.95287">
        <ele>59.103435</ele>
        <time>2022-12-23T10:46:07.744Z</time>
      </trkpt>
      <trkpt lat="45.29115" lon="-0.95298">
        <ele>59.22991</ele>
        <time>2022-12-23T10:46:10.739Z</time>
      </trkpt>
      <trkpt lat="45.29106" lon="-0.95309">
        <ele>59.356272</ele>
        <time>2022-12-23T10:46:13.743Z</time>
      </trkpt>
      <trkpt lat="45.29097" lon="-0.9532">
        <ele>59.487805</ele>
        <time>2022-12-23T10:46:16.753Z</time>
      </trkpt>
      <trkpt lat="45.29088" lon="-0.95332">
        <ele>59.617881</ele>
        <time>2022-12-23T10:46:19.753Z</time>
      </trkpt>
      <trkpt lat="45.29079" lon="-0.95343">
        <ele>59.745983</ele>
        <time>2022-12-23T10:46:22.744Z</time>
      </trkpt>
      <trkpt lat="45.2907" lon="-0.95353">
        <ele>59.869891</ele>
        <time>2022-12-23T10:46:25.731Z</time>
      </trkpt>
      <trkpt lat="45.2906" lon="-0.95364">
        <ele>60.001093</ele>
        <time>2022-12-23T10:46:28.739Z</time>
      </trkpt>
      <trkpt lat="45.29051" lon="-0.95376">
        <ele>60.132627</ele>
        <time>2022-12-23T10:46:31.750Z</time>
      </trkpt>
      <trkpt lat="45.29042" lon="-0.95387">
        <ele>60.265513</ele>
        <time>2022-12-23T10:46:34.750Z</time>
      </trkpt>
      <trkpt lat="45.29033" lon="-0.95399">
        <ele>60.396304</ele>
        <time>2022-12-23T10:46:37.757Z</time>
      </trkpt>
      <trkpt lat="45.29024" lon="-0.9541">
        <ele>60.520982</ele>
        <time>2022-12-23T10:46:40.748Z</time>
      </trkpt>
      <trkpt lat="45.29015" lon="-0.95421">
        <ele>60.642841</ele>
        <time>2022-12-23T10:46:43.752Z</time>
      </trkpt>
      <trkpt lat="45.29006" lon="-0.95432">
        <ele>60.717994</ele>
        <time>2022-12-23T10:46:46.755Z</time>
      </trkpt>
      <trkpt lat="45.28998" lon="-0.95442">
        <ele>60.79129</ele>
        <time>2022-12-23T10:46:49.751Z</time>
      </trkpt>
      <trkpt lat="45.28989" lon="-0.95454">
        <ele>60.865313</ele>
        <time>2022-12-23T10:46:52.729Z</time>
      </trkpt>
      <trkpt lat="45.28981" lon="-0.95465">
        <ele>60.940881</ele>
        <time>2022-12-23T10:46:55.755Z</time>
      </trkpt>
      <trkpt lat="45.28972" lon="-0.95477">
        <ele>61.019573</ele>
        <time>2022-12-23T10:46:58.755Z</time>
      </trkpt>
      <trkpt lat="45.28963" lon="-0.95489">
        <ele>61.098401</ele>
        <time>2022-12-23T10:47:01.741Z</time>
      </trkpt>
      <trkpt lat="45.28954" lon="-0.95501">
        <ele>61.177071</ele>
        <time>2022-12-23T10:47:04.748Z</time>
      </trkpt>
      <trkpt lat="45.28945" lon="-0.95512">
        <ele>61.253428</ele>
        <time>2022-12-23T10:47:07.753Z</time>
      </trkpt>
      <trkpt lat="45.28936" lon="-0.95524">
        <ele>61.327909</ele>
        <time>2022-12-23T10:47:10.740Z</time>
      </trkpt>
      <trkpt lat="45.28928" lon="-0.95534">
        <ele>61.400811</ele>
        <time>2022-12-23T10:47:13.751Z</time>
      </trkpt>
      <trkpt lat="45.28919" lon="-0.95545">
        <ele>61.475757</ele>
        <time>2022-12-23T10:47:16.755Z</time>
      </trkpt>
      <trkpt lat="45.28911" lon="-0.95557">
        <ele>61.552101</ele>
        <time>2022-12-23T10:47:19.754Z</time>
      </trkpt>
      <trkpt lat="45.28902" lon="-0.95568">
        <ele>61.625101</ele>
        <time>2022-12-23T10:47:22.753Z</time>
      </trkpt>
      <trkpt lat="45.28894" lon="-0.95579">
        <ele>61.697878</ele>
        <time>2022-12-23T10:47:25.751Z</time>
      </trkpt>
      <trkpt lat="45.28885" lon="-0.95589">
        <ele>61.772438</ele>
        <time>2022-12-23T10:47:28.751Z</time>
      </trkpt>
      <trkpt lat="45.28876" lon="-0.95601">
        <ele>61.821862</ele>
        <time>2022-12-23T10:47:31.753Z</time>
      </trkpt>
      <trkpt lat="45.28866" lon="-0.95612">
        <ele>61.863506</ele>
        <time>2022-12-23T10:47:34.754Z</time>
      </trkpt>
      <trkpt lat="45.28857" lon="-0.95624">
        <ele>61.904233</ele>
        <time>2022-12-23T10:47:37.755Z</time>
      </trkpt>
      <trkpt lat="45.28848" lon="-0.95636">
        <ele>61.945566</ele>
        <time>2022-12-23T10:47:40.751Z</time>
      </trkpt>
      <trkpt lat="45.28839" lon="-0.95648">
        <ele>61.987305</ele>
        <time>2022-12-23T10:47:43.755Z</time>
      </trkpt>
      <trkpt lat="45.2883" lon="-0.95659">
        <ele>62.027318</ele>
        <time>2022-12-23T10:47:46.754Z</time>
      </trkpt>
      <trkpt lat="45.28821" lon="-0.9567">
        <ele>62.067606</ele>
        <time>2022-12-23T10:47:49.754Z</time>
      </trkpt>
      <trkpt lat="45.28812" lon="-0.95682">
        <ele>62.10959</ele>
        <time>2022-12-23T10:47:52.749Z</time>
      </trkpt>
      <trkpt lat="45.28803" lon="-0.95693">
        <ele>62.149348</ele>
        <time>2022-12-23T10:47:55.750Z</time>
      </trkpt>
      <trkpt lat="45.28794" lon="-0.95705">
        <ele>62.189978</ele>
        <time>2022-12-23T10:47:58.749Z</time>
      </trkpt>
      <trkpt lat="45.28784" lon="-0.95717">
        <ele>62.232336</ele>
        <time>2022-12-23T10:48:01.754Z</time>
      </trkpt>
      <trkpt lat="45.28775" lon="-0.95729">
        <ele>62.274803</ele>
        <time>2022-12-23T10:48:04.754Z</time>
      </trkpt>
      <trkpt lat="45.28766" lon="-0.95741">
        <ele>62.3165</ele>
        <time>2022-12-23T10:48:07.751Z</time>
      </trkpt>
      <trkpt lat="45.28756" lon="-0.95753">
        <ele>62.358572</ele>
        <time>2022-12-23T10:48:10.755Z</time>
      </trkpt>
      <trkpt lat="45.28746" lon="-0.95765">
        <ele>62.419119</ele>
        <time>2022-12-23T10:48:13.751Z</time>
      </trkpt>
      <trkpt lat="45.28737" lon="-0.95776">
        <ele>62.533924</ele>
        <time>2022-12-23T10:48:16.733Z</time>
      </trkpt>
      <trkpt lat="45.28728" lon="-0.95789">
        <ele>62.652918</ele>
        <time>2022-12-23T10:48:19.745Z</time>
      </trkpt>
      <trkpt lat="45.28719" lon="-0.95801">
        <ele>62.765847</ele>
        <time>2022-12-23T10:48:22.738Z</time>
      </trkpt>
      <trkpt lat="45.2871" lon="-0.95812">
        <ele>62.879456</ele>
        <time>2022-12-23T10:48:25.747Z</time>
      </trkpt>
      <trkpt lat="45.28701" lon="-0.95824">
        <ele>62.986769</ele>
        <time>2022-12-23T10:48:28.736Z</time>
      </trkpt>
      <trkpt lat="45.28693" lon="-0.95835">
        <ele>63.094532</ele>
        <time>2022-12-23T10:48:31.754Z</time>
      </trkpt>
      <trkpt lat="45.28685" lon="-0.95847">
        <ele>63.202621</ele>
        <time>2022-12-23T10:48:34.736Z</time>
      </trkpt>
      <trkpt lat="45.28677" lon="-0.95858">
        <ele>63.310836</ele>
        <time>2022-12-23T10:48:37.755Z</time>
      </trkpt>
      <trkpt lat="45.28668" lon="-0.9587">
        <ele>63.423538</ele>
        <time>2022-12-23T10:48:40.739Z</time>
      </trkpt>
      <trkpt lat="45.28659" lon="-0.95883">
        <ele>63.536277</ele>
        <time>2022-12-23T10:48:43.750Z</time>
      </trkpt>
      <trkpt lat="45.28651" lon="-0.95893">
        <ele>63.639375</ele>
        <time>2022-12-23T10:48:46.755Z</time>
      </trkpt>
      <trkpt lat="45.28644" lon="-0.95903">
        <ele>63.729883</ele>
        <time>2022-12-23T10:48:49.769Z</time>
      </trkpt>
      <trkpt lat="45.28637" lon="-0.95913">
        <ele>63.818916</ele>
        <time>2022-12-23T10:48:52.769Z</time>
      </trkpt>
      <trkpt lat="45.2863" lon="-0.95923">
        <ele>63.915936</ele>
        <time>2022-12-23T10:48:55.748Z</time>
      </trkpt>
      <trkpt lat="45.28622" lon="-0.95934">
        <ele>64.01653</ele>
        <time>2022-12-23T10:48:58.737Z</time>
      </trkpt>
      <trkpt lat="45.28614" lon="-0.95944">
        <ele>64.015936</ele>
        <time>2022-12-23T10:49:01.752Z</time>
      </trkpt>
      <trkpt lat="45.28606" lon="-0.95955">
        <ele>63.925426</ele>
        <time>2022-12-23T10:49:04.755Z</time>
      </trkpt>
      <trkpt lat="45.28597" lon="-0.95965">
        <ele>63.834531</ele>
        <time>2022-12-23T10:49:07.752Z</time>
      </trkpt>
      <trkpt lat="45.28588" lon="-0.95976">
        <ele>63.743393</ele>
        <time>2022-12-23T10:49:10.750Z</time>
      </trkpt>
      <trkpt lat="45.28579" lon="-0.95987">
        <ele>63.650708</ele>
        <time>2022-12-23T10:49:13.753Z</time>
      </trkpt>
      <trkpt lat="45.2857" lon="-0.95998">
        <ele>63.559103</ele>
        <time>2022-12-23T10:49:16.764Z</time>
      </trkpt>
      <trkpt lat="45.28561" lon="-0.96009">
        <ele>63.462711</ele>
        <time>2022-12-23T10:49:19.754Z</time>
      </trkpt>
      <trkpt lat="45.28552" lon="-0.9602">
        <ele>63.368834</ele>
        <time>2022-12-23T10:49:22.747Z</time>
      </trkpt>
      <trkpt lat="45.28543" lon="-0.96032">
        <ele>63.275469</ele>
        <time>2022-12-23T10:49:25.747Z</time>
      </trkpt>
      <trkpt lat="45.28534" lon="-0.96043">
        <ele>63.180775</ele>
        <time>2022-12-23T10:49:28.754Z</time>
      </trkpt>
      <trkpt lat="45.28525" lon="-0.96055">
        <ele>63.086832</ele>
        <time>2022-12-23T10:49:31.752Z</time>
      </trkpt>
      <trkpt lat="45.28516" lon="-0.96066">
        <ele>62.990552</ele>
        <time>2022-12-23T10:49:34.735Z</time>
      </trkpt>
      <trkpt lat="45.28507" lon="-0.96079">
        <ele>62.890916</ele>
        <time>2022-12-23T10:49:37.749Z</time>
      </trkpt>
      <trkpt lat="45.28498" lon="-0.96091">
        <ele>62.794693</ele>
        <time>2022-12-23T10:49:40.751Z</time>
      </trkpt>
      <trkpt lat="45.28489" lon="-0.96102">
        <ele>62.698777</ele>
        <time>2022-12-23T10:49:43.732Z</time>
      </trkpt>
      <trkpt lat="45.2848" lon="-0.96113">
        <ele>62.658895</ele>
        <time>2022-12-23T10:49:46.755Z</time>
      </trkpt>
      <trkpt lat="45.28472" lon="-0.96122">
        <ele>62.680138</ele>
        <time>2022-12-23T10:49:49.753Z</time>
      </trkpt>
      <trkpt lat="45.28464" lon="-0.96132">
        <ele>62.700917</ele>
        <time>2022-12-23T10:49:52.729Z</time>
      </trkpt>
      <trkpt lat="45.28456" lon="-0.96142">
        <ele>62.723112</ele>
        <time>2022-12-23T10:49:55.749Z</time>
      </trkpt>
      <trkpt lat="45.28447" lon="-0.96153">
        <ele>62.745438</ele>
        <time>2022-12-23T10:49:58.734Z</time>
      </trkpt>
      <trkpt lat="45.28439" lon="-0.96164">
        <ele>62.767954</ele>
        <time>2022-12-23T10:50:01.754Z</time>
      </trkpt>
      <trkpt lat="45.28431" lon="-0.96174">
        <ele>62.790375</ele>
        <time>2022-12-23T10:50:04.751Z</time>
      </trkpt>
      <trkpt lat="45.28423" lon="-0.96185">
        <ele>62.812499</ele>
        <time>2022-12-23T10:50:07.749Z</time>
      </trkpt>
      <trkpt lat="45.28415" lon="-0.96196">
        <ele>62.835507</ele>
        <time>2022-12-23T10:50:10.753Z</time>
      </trkpt>
      <trkpt lat="45.28406" lon="-0.96206">
        <ele>62.858348</ele>
        <time>2022-12-23T10:50:13.736Z</time>
      </trkpt>
      <trkpt lat="45.28398" lon="-0.96216">
        <ele>62.880175</ele>
        <time>2022-12-23T10:50:16.750Z</time>
      </trkpt>
      <trkpt lat="45.2839" lon="-0.96227">
        <ele>62.903082</ele>
        <time>2022-12-23T10:50:19.749Z</time>
      </trkpt>
      <trkpt lat="45.28381" lon="-0.96237">
        <ele>62.926298</ele>
        <time>2022-12-23T10:50:22.750Z</time>
      </trkpt>
      <trkpt lat="45.28372" lon="-0.96248">
        <ele>62.94997</ele>
        <time>2022-12-23T10:50:25.746Z</time>
      </trkpt>
      <trkpt lat="45.28363" lon="-0.96259">
        <ele>62.974016</ele>
        <time>2022-12-23T10:50:28.755Z</time>
      </trkpt>
      <trkpt lat="45.28354" lon="-0.96271">
        <ele>62.998554</ele>
        <time>2022-12-23T10:50:31.755Z</time>
      </trkpt>
      <trkpt lat="45.28345" lon="-0.96282">
        <ele>63.055447</ele>
        <time>2022-12-23T10:50:34.756Z</time>
      </trkpt>
      <trkpt lat="45.28336" lon="-0.96293">
        <ele>63.150788</ele>
        <time>2022-12-23T10:50:37.742Z</time>
      </trkpt>
      <trkpt lat="45.28326" lon="-0.96304">
        <ele>63.249274</ele>
        <time>2022-12-23T10:50:40.752Z</time>
      </trkpt>
      <trkpt lat="45.28318" lon="-0.96315">
        <ele>63.337027</ele>
        <time>2022-12-23T10:50:43.754Z</time>
      </trkpt>
      <trkpt lat="45.28311" lon="-0.96324">
        <ele>63.413132</ele>
        <time>2022-12-23T10:50:46.753Z</time>
      </trkpt>
      <trkpt lat="45.28297" lon="-0.96342">
        <ele>63.563559</ele>
        <time>2022-12-23T10:52:06.734Z</time>
      </trkpt>
      <trkpt lat="45.2829" lon="-0.96352">
        <ele>63.643404</ele>
        <time>2022-12-23T10:52:10.733Z</time>
      </trkpt>
      <trkpt lat="45.28282" lon="-0.96364">
        <ele>63.737142</ele>
        <time>2022-12-23T10:52:14.735Z</time>
      </trkpt>
      <trkpt lat="45.28274" lon="-0.96373">
        <ele>63.816029</ele>
        <time>2022-12-23T10:52:17.733Z</time>
      </trkpt>
      <trkpt lat="45.28266" lon="-0.96383">
        <ele>63.90313</ele>
        <time>2022-12-23T10:52:20.749Z</time>
      </trkpt>
      <trkpt lat="45.28257" lon="-0.96392">
        <ele>63.992179</ele>
        <time>2022-12-23T10:52:23.733Z</time>
      </trkpt>
      <trkpt lat="45.28249" lon="-0.96403">
        <ele>64.079935</ele>
        <time>2022-12-23T10:52:26.732Z</time>
      </trkpt>
      <trkpt lat="45.28241" lon="-0.96413">
        <ele>64.166935</ele>
        <time>2022-12-23T10:52:29.730Z</time>
      </trkpt>
      <trkpt lat="45.28232" lon="-0.96423">
        <ele>64.251252</ele>
        <time>2022-12-23T10:52:32.749Z</time>
      </trkpt>
      <trkpt lat="45.28224" lon="-0.96433">
        <ele>64.338846</ele>
        <time>2022-12-23T10:52:35.740Z</time>
      </trkpt>
      <trkpt lat="45.28216" lon="-0.96444">
        <ele>64.426017</ele>
        <time>2022-12-23T10:52:38.756Z</time>
      </trkpt>
      <trkpt lat="45.28208" lon="-0.96455">
        <ele>64.499024</ele>
        <time>2022-12-23T10:52:41.754Z</time>
      </trkpt>
      <trkpt lat="45.282" lon="-0.96465">
        <ele>64.564468</ele>
        <time>2022-12-23T10:52:44.752Z</time>
      </trkpt>
      <trkpt lat="45.28192" lon="-0.96476">
        <ele>64.631387</ele>
        <time>2022-12-23T10:52:47.732Z</time>
      </trkpt>
      <trkpt lat="45.28184" lon="-0.96485">
        <ele>64.694892</ele>
        <time>2022-12-23T10:52:50.727Z</time>
      </trkpt>
      <trkpt lat="45.28176" lon="-0.96495">
        <ele>64.758672</ele>
        <time>2022-12-23T10:52:53.754Z</time>
      </trkpt>
      <trkpt lat="45.28168" lon="-0.96506">
        <ele>64.825591</ele>
        <time>2022-12-23T10:52:56.740Z</time>
      </trkpt>
      <trkpt lat="45.2816" lon="-0.96516">
        <ele>64.893101</ele>
        <time>2022-12-23T10:52:59.730Z</time>
      </trkpt>
      <trkpt lat="45.28152" lon="-0.96527">
        <ele>64.95783</ele>
        <time>2022-12-23T10:53:02.753Z</time>
      </trkpt>
      <trkpt lat="45.28144" lon="-0.96536">
        <ele>65.021426</ele>
        <time>2022-12-23T10:53:05.738Z</time>
      </trkpt>
      <trkpt lat="45.28136" lon="-0.96547">
        <ele>65.089233</ele>
        <time>2022-12-23T10:53:08.754Z</time>
      </trkpt>
      <trkpt lat="45.28128" lon="-0.96558">
        <ele>65.155415</ele>
        <time>2022-12-23T10:53:11.751Z</time>
      </trkpt>
      <trkpt lat="45.28121" lon="-0.96567">
        <ele>65.213936</ele>
        <time>2022-12-23T10:53:14.753Z</time>
      </trkpt>
      <trkpt lat="45.28114" lon="-0.96577">
        <ele>65.272896</ele>
        <time>2022-12-23T10:53:17.731Z</time>
      </trkpt>
      <trkpt lat="45.28107" lon="-0.96586">
        <ele>65.333355</ele>
        <time>2022-12-23T10:53:20.755Z</time>
      </trkpt>
      <trkpt lat="45.281" lon="-0.96597">
        <ele>65.396751</ele>
        <time>2022-12-23T10:53:23.750Z</time>
      </trkpt>
      <trkpt lat="45.28092" lon="-0.96607">
        <ele>65.463086</ele>
        <time>2022-12-23T10:53:26.752Z</time>
      </trkpt>
      <trkpt lat="45.28083" lon="-0.96618">
        <ele>65.532804</ele>
        <time>2022-12-23T10:53:29.751Z</time>
      </trkpt>
      <trkpt lat="45.28075" lon="-0.96628">
        <ele>65.551915</ele>
        <time>2022-12-23T10:53:32.741Z</time>
      </trkpt>
      <trkpt lat="45.28066" lon="-0.96639">
        <ele>65.564686</ele>
        <time>2022-12-23T10:53:35.754Z</time>
      </trkpt>
      <trkpt lat="45.28058" lon="-0.9665">
        <ele>65.577269</ele>
        <time>2022-12-23T10:53:38.752Z</time>
      </trkpt>
      <trkpt lat="45.2805" lon="-0.96661">
        <ele>65.589822</ele>
        <time>2022-12-23T10:53:41.754Z</time>
      </trkpt>
      <trkpt lat="45.28041" lon="-0.96671">
        <ele>65.60269</ele>
        <time>2022-12-23T10:53:44.749Z</time>
      </trkpt>
      <trkpt lat="45.28032" lon="-0.96682">
        <ele>65.615745</ele>
        <time>2022-12-23T10:53:47.754Z</time>
      </trkpt>
      <trkpt lat="45.28023" lon="-0.96692">
        <ele>65.628722</ele>
        <time>2022-12-23T10:53:50.748Z</time>
      </trkpt>
      <trkpt lat="45.28014" lon="-0.96703">
        <ele>65.641183</ele>
        <time>2022-12-23T10:53:53.756Z</time>
      </trkpt>
      <trkpt lat="45.28007" lon="-0.96713">
        <ele>65.652655</ele>
        <time>2022-12-23T10:53:56.753Z</time>
      </trkpt>
      <trkpt lat="45.27999" lon="-0.96722">
        <ele>65.663749</ele>
        <time>2022-12-23T10:53:59.750Z</time>
      </trkpt>
      <trkpt lat="45.27992" lon="-0.96732">
        <ele>65.675175</ele>
        <time>2022-12-23T10:54:02.735Z</time>
      </trkpt>
      <trkpt lat="45.27984" lon="-0.96742">
        <ele>65.686925</ele>
        <time>2022-12-23T10:54:05.755Z</time>
      </trkpt>
      <trkpt lat="45.27976" lon="-0.96752">
        <ele>65.699343</ele>
        <time>2022-12-23T10:54:08.752Z</time>
      </trkpt>
      <trkpt lat="45.27967" lon="-0.96763">
        <ele>65.71179</ele>
        <time>2022-12-23T10:54:11.753Z</time>
      </trkpt>
      <trkpt lat="45.27959" lon="-0.96773">
        <ele>65.724051</ele>
        <time>2022-12-23T10:54:14.733Z</time>
      </trkpt>
      <trkpt lat="45.27951" lon="-0.96784">
        <ele>65.736498</ele>
        <time>2022-12-23T10:54:17.754Z</time>
      </trkpt>
      <trkpt lat="45.27943" lon="-0.96795">
        <ele>65.679642</ele>
        <time>2022-12-23T10:54:20.753Z</time>
      </trkpt>
      <trkpt lat="45.27934" lon="-0.96805">
        <ele>65.571203</ele>
        <time>2022-12-23T10:54:23.750Z</time>
      </trkpt>
      <trkpt lat="45.27925" lon="-0.96816">
        <ele>65.464495</ele>
        <time>2022-12-23T10:54:26.754Z</time>
      </trkpt>
      <trkpt lat="45.27917" lon="-0.96826">
        <ele>65.357764</ele>
        <time>2022-12-23T10:54:29.750Z</time>
      </trkpt>
      <trkpt lat="45.27908" lon="-0.96835">
        <ele>65.257056</ele>
        <time>2022-12-23T10:54:32.752Z</time>
      </trkpt>
      <trkpt lat="45.279" lon="-0.96844">
        <ele>65.154237</ele>
        <time>2022-12-23T10:54:35.740Z</time>
      </trkpt>
      <trkpt lat="45.27892" lon="-0.96854">
        <ele>65.054487</ele>
        <time>2022-12-23T10:54:38.755Z</time>
      </trkpt>
      <trkpt lat="45.27884" lon="-0.96864">
        <ele>64.95081</ele>
        <time>2022-12-23T10:54:41.755Z</time>
      </trkpt>
      <trkpt lat="45.27875" lon="-0.96874">
        <ele>64.846144</ele>
        <time>2022-12-23T10:54:44.753Z</time>
      </trkpt>
      <trkpt lat="45.27867" lon="-0.96885">
        <ele>64.740861</ele>
        <time>2022-12-23T10:54:47.751Z</time>
      </trkpt>
      <trkpt lat="45.27859" lon="-0.96895">
        <ele>64.637686</ele>
        <time>2022-12-23T10:54:50.731Z</time>
      </trkpt>
      <trkpt lat="45.27851" lon="-0.96905">
        <ele>64.535665</ele>
        <time>2022-12-23T10:54:53.734Z</time>
      </trkpt>
      <trkpt lat="45.27844" lon="-0.96915">
        <ele>64.440337</ele>
        <time>2022-12-23T10:54:56.750Z</time>
      </trkpt>
      <trkpt lat="45.27837" lon="-0.96924">
        <ele>64.347269</ele>
        <time>2022-12-23T10:54:59.744Z</time>
      </trkpt>
      <trkpt lat="45.27829" lon="-0.96934">
        <ele>64.24912</ele>
        <time>2022-12-23T10:55:02.755Z</time>
      </trkpt>
      <trkpt lat="45.27821" lon="-0.96944">
        <ele>64.148013</ele>
        <time>2022-12-23T10:55:05.732Z</time>
      </trkpt>
      <trkpt lat="45.27813" lon="-0.96955">
        <ele>64.042186</ele>
        <time>2022-12-23T10:55:08.742Z</time>
      </trkpt>
      <trkpt lat="45.27805" lon="-0.96965">
        <ele>64.192679</ele>
        <time>2022-12-23T10:55:11.743Z</time>
      </trkpt>
      <trkpt lat="45.27797" lon="-0.96976">
        <ele>64.385753</ele>
        <time>2022-12-23T10:55:14.748Z</time>
      </trkpt>
      <trkpt lat="45.2779" lon="-0.96986">
        <ele>64.57275</ele>
        <time>2022-12-23T10:55:17.757Z</time>
      </trkpt>
      <trkpt lat="45.27782" lon="-0.96996">
        <ele>64.764522</ele>
        <time>2022-12-23T10:55:20.749Z</time>
      </trkpt>
      <trkpt lat="45.27774" lon="-0.97006">
        <ele>64.957245</ele>
        <time>2022-12-23T10:55:23.753Z</time>
      </trkpt>
      <trkpt lat="45.27764" lon="-0.97014">
        <ele>65.156375</ele>
        <time>2022-12-23T10:55:26.739Z</time>
      </trkpt>
      <trkpt lat="45.27755" lon="-0.97022">
        <ele>65.354347</ele>
        <time>2022-12-23T10:55:29.747Z</time>
      </trkpt>
      <trkpt lat="45.27746" lon="-0.97031">
        <ele>65.550331</ele>
        <time>2022-12-23T10:55:32.754Z</time>
      </trkpt>
      <trkpt lat="45.27737" lon="-0.97041">
        <ele>65.750445</ele>
        <time>2022-12-23T10:55:35.755Z</time>
      </trkpt>
      <trkpt lat="45.27729" lon="-0.97052">
        <ele>65.950564</ele>
        <time>2022-12-23T10:55:38.755Z</time>
      </trkpt>
      <trkpt lat="45.27721" lon="-0.97063">
        <ele>66.154088</ele>
        <time>2022-12-23T10:55:41.746Z</time>
      </trkpt>
      <trkpt lat="45.27713" lon="-0.97075">
        <ele>66.358023</ele>
        <time>2022-12-23T10:55:44.752Z</time>
      </trkpt>
      <trkpt lat="45.27705" lon="-0.97086">
        <ele>66.557202</ele>
        <time>2022-12-23T10:55:47.755Z</time>
      </trkpt>
      <trkpt lat="45.27698" lon="-0.97097">
        <ele>66.754974</ele>
        <time>2022-12-23T10:55:50.736Z</time>
      </trkpt>
      <trkpt lat="45.2769" lon="-0.97108">
        <ele>66.955935</ele>
        <time>2022-12-23T10:55:53.735Z</time>
      </trkpt>
      <trkpt lat="45.27681" lon="-0.97119">
        <ele>67.165331</ele>
        <time>2022-12-23T10:55:56.746Z</time>
      </trkpt>
      <trkpt lat="45.27672" lon="-0.9713">
        <ele>67.410497</ele>
        <time>2022-12-23T10:55:59.752Z</time>
      </trkpt>
      <trkpt lat="45.27663" lon="-0.9714">
        <ele>67.673834</ele>
        <time>2022-12-23T10:56:02.737Z</time>
      </trkpt>
      <trkpt lat="45.27655" lon="-0.97151">
        <ele>67.933259</ele>
        <time>2022-12-23T10:56:05.743Z</time>
      </trkpt>
      <trkpt lat="45.27646" lon="-0.97162">
        <ele>68.199493</ele>
        <time>2022-12-23T10:56:08.759Z</time>
      </trkpt>
      <trkpt lat="45.27638" lon="-0.97173">
        <ele>68.458881</ele>
        <time>2022-12-23T10:56:11.752Z</time>
      </trkpt>
      <trkpt lat="45.27629" lon="-0.97184">
        <ele>68.727235</ele>
        <time>2022-12-23T10:56:14.733Z</time>
      </trkpt>
      <trkpt lat="45.2762" lon="-0.97196">
        <ele>68.989381</ele>
        <time>2022-12-23T10:56:17.742Z</time>
      </trkpt>
      <trkpt lat="45.27612" lon="-0.97207">
        <ele>69.25434</ele>
        <time>2022-12-23T10:56:20.735Z</time>
      </trkpt>
      <trkpt lat="45.27603" lon="-0.97218">
        <ele>69.523111</ele>
        <time>2022-12-23T10:56:23.754Z</time>
      </trkpt>
      <trkpt lat="45.27595" lon="-0.9723">
        <ele>69.795751</ele>
        <time>2022-12-23T10:56:26.757Z</time>
      </trkpt>
      <trkpt lat="45.27586" lon="-0.97241">
        <ele>70.059888</ele>
        <time>2022-12-23T10:56:29.747Z</time>
      </trkpt>
      <trkpt lat="45.27577" lon="-0.97252">
        <ele>70.33208</ele>
        <time>2022-12-23T10:56:32.749Z</time>
      </trkpt>
      <trkpt lat="45.27568" lon="-0.97264">
        <ele>70.61521</ele>
        <time>2022-12-23T10:56:35.749Z</time>
      </trkpt>
      <trkpt lat="45.27559" lon="-0.97275">
        <ele>70.880794</ele>
        <time>2022-12-23T10:56:38.734Z</time>
      </trkpt>
      <trkpt lat="45.27552" lon="-0.97285">
        <ele>71.12307</ele>
        <time>2022-12-23T10:56:41.757Z</time>
      </trkpt>
      <trkpt lat="45.27543" lon="-0.97296">
        <ele>71.37928</ele>
        <time>2022-12-23T10:56:45.748Z</time>
      </trkpt>
      <trkpt lat="45.27537" lon="-0.97306">
        <ele>71.479401</ele>
        <time>2022-12-23T10:56:48.732Z</time>
      </trkpt>
      <trkpt lat="45.2753" lon="-0.97316">
        <ele>71.586307</ele>
        <time>2022-12-23T10:56:51.754Z</time>
      </trkpt>
      <trkpt lat="45.27521" lon="-0.97326">
        <ele>71.705026</ele>
        <time>2022-12-23T10:56:54.745Z</time>
      </trkpt>
      <trkpt lat="45.27514" lon="-0.97336">
        <ele>71.823665</ele>
        <time>2022-12-23T10:56:57.756Z</time>
      </trkpt>
      <trkpt lat="45.27505" lon="-0.97347">
        <ele>71.953612</ele>
        <time>2022-12-23T10:57:00.754Z</time>
      </trkpt>
      <trkpt lat="45.27496" lon="-0.97359">
        <ele>72.086951</ele>
        <time>2022-12-23T10:57:03.749Z</time>
      </trkpt>
      <trkpt lat="45.27487" lon="-0.9737">
        <ele>72.216069</ele>
        <time>2022-12-23T10:57:06.747Z</time>
      </trkpt>
      <trkpt lat="45.27478" lon="-0.9738">
        <ele>72.343336</ele>
        <time>2022-12-23T10:57:09.769Z</time>
      </trkpt>
      <trkpt lat="45.2747" lon="-0.97391">
        <ele>72.46999</ele>
        <time>2022-12-23T10:57:12.754Z</time>
      </trkpt>
      <trkpt lat="45.27461" lon="-0.97402">
        <ele>72.598643</ele>
        <time>2022-12-23T10:57:15.735Z</time>
      </trkpt>
      <trkpt lat="45.27452" lon="-0.97413">
        <ele>72.729272</ele>
        <time>2022-12-23T10:57:18.733Z</time>
      </trkpt>
      <trkpt lat="45.27443" lon="-0.97425">
        <ele>72.857786</ele>
        <time>2022-12-23T10:57:21.752Z</time>
      </trkpt>
      <trkpt lat="45.27435" lon="-0.97436">
        <ele>72.988452</ele>
        <time>2022-12-23T10:57:24.754Z</time>
      </trkpt>
      <trkpt lat="45.27426" lon="-0.97447">
        <ele>73.118728</ele>
        <time>2022-12-23T10:57:27.749Z</time>
      </trkpt>
      <trkpt lat="45.27417" lon="-0.97456">
        <ele>73.231528</ele>
        <time>2022-12-23T10:57:30.750Z</time>
      </trkpt>
      <trkpt lat="45.27409" lon="-0.97465">
        <ele>73.346739</ele>
        <time>2022-12-23T10:57:33.753Z</time>
      </trkpt>
      <trkpt lat="45.274" lon="-0.97475">
        <ele>73.233066</ele>
        <time>2022-12-23T10:57:36.754Z</time>
      </trkpt>
      <trkpt lat="45.27392" lon="-0.97487">
        <ele>73.114694</ele>
        <time>2022-12-23T10:57:39.742Z</time>
      </trkpt>
      <trkpt lat="45.27383" lon="-0.97498">
        <ele>72.994574</ele>
        <time>2022-12-23T10:57:42.736Z</time>
      </trkpt>
      <trkpt lat="45.27374" lon="-0.97509">
        <ele>72.872483</ele>
        <time>2022-12-23T10:57:45.747Z</time>
      </trkpt>
      <trkpt lat="45.27366" lon="-0.97521">
        <ele>72.753635</ele>
        <time>2022-12-23T10:57:48.741Z</time>
      </trkpt>
      <trkpt lat="45.27357" lon="-0.97532">
        <ele>72.634524</ele>
        <time>2022-12-23T10:57:51.753Z</time>
      </trkpt>
      <trkpt lat="45.27348" lon="-0.97544">
        <ele>72.514879</ele>
        <time>2022-12-23T10:57:54.749Z</time>
      </trkpt>
      <trkpt lat="45.27339" lon="-0.97555">
        <ele>72.392582</ele>
        <time>2022-12-23T10:57:57.755Z</time>
      </trkpt>
      <trkpt lat="45.27331" lon="-0.97567">
        <ele>72.27369</ele>
        <time>2022-12-23T10:58:00.752Z</time>
      </trkpt>
      <trkpt lat="45.27322" lon="-0.97577">
        <ele>72.16067</ele>
        <time>2022-12-23T10:58:03.736Z</time>
      </trkpt>
      <trkpt lat="45.27314" lon="-0.97588">
        <ele>72.043971</ele>
        <time>2022-12-23T10:58:06.753Z</time>
      </trkpt>
      <trkpt lat="45.27305" lon="-0.97598">
        <ele>71.930668</ele>
        <time>2022-12-23T10:58:09.747Z</time>
      </trkpt>
      <trkpt lat="45.27297" lon="-0.97609">
        <ele>71.815478</ele>
        <time>2022-12-23T10:58:12.755Z</time>
      </trkpt>
      <trkpt lat="45.27288" lon="-0.9762">
        <ele>71.699712</ele>
        <time>2022-12-23T10:58:15.755Z</time>
      </trkpt>
      <trkpt lat="45.2728" lon="-0.97632">
        <ele>71.580356</ele>
        <time>2022-12-23T10:58:18.750Z</time>
      </trkpt>
      <trkpt lat="45.27271" lon="-0.97642">
        <ele>71.467417</ele>
        <time>2022-12-23T10:58:21.751Z</time>
      </trkpt>
      <trkpt lat="45.27263" lon="-0.97653">
        <ele>71.348899</ele>
        <time>2022-12-23T10:58:24.752Z</time>
      </trkpt>
      <trkpt lat="45.27254" lon="-0.97664">
        <ele>71.232098</ele>
        <time>2022-12-23T10:58:27.748Z</time>
      </trkpt>
      <trkpt lat="45.27247" lon="-0.97675">
        <ele>71.123343</ele>
        <time>2022-12-23T10:58:30.755Z</time>
      </trkpt>
      <trkpt lat="45.2724" lon="-0.97685">
        <ele>71.025153</ele>
        <time>2022-12-23T10:58:33.753Z</time>
      </trkpt>
      <trkpt lat="45.27232" lon="-0.97694">
        <ele>70.921311</ele>
        <time>2022-12-23T10:58:36.758Z</time>
      </trkpt>
      <trkpt lat="45.27224" lon="-0.97705">
        <ele>70.806955</ele>
        <time>2022-12-23T10:58:39.743Z</time>
      </trkpt>
      <trkpt lat="45.27215" lon="-0.97716">
        <ele>70.691142</ele>
        <time>2022-12-23T10:58:42.733Z</time>
      </trkpt>
      <trkpt lat="45.27207" lon="-0.97726">
        <ele>70.5787</ele>
        <time>2022-12-23T10:58:45.752Z</time>
      </trkpt>
      <trkpt lat="45.27199" lon="-0.97737">
        <ele>70.465822</ele>
        <time>2022-12-23T10:58:48.755Z</time>
      </trkpt>
      <trkpt lat="45.2719" lon="-0.97748">
        <ele>70.350495</ele>
        <time>2022-12-23T10:58:51.743Z</time>
      </trkpt>
      <trkpt lat="45.27181" lon="-0.9776">
        <ele>70.229523</ele>
        <time>2022-12-23T10:58:54.732Z</time>
      </trkpt>
      <trkpt lat="45.27173" lon="-0.97772">
        <ele>70.11009</ele>
        <time>2022-12-23T10:58:57.743Z</time>
      </trkpt>
      <trkpt lat="45.27165" lon="-0.97784">
        <ele>69.989126</ele>
        <time>2022-12-23T10:59:00.759Z</time>
      </trkpt>
      <trkpt lat="45.27156" lon="-0.97795">
        <ele>69.87133</ele>
        <time>2022-12-23T10:59:03.751Z</time>
      </trkpt>
      <trkpt lat="45.27148" lon="-0.97807">
        <ele>69.752226</ele>
        <time>2022-12-23T10:59:06.751Z</time>
      </trkpt>
      <trkpt lat="45.2714" lon="-0.97819">
        <ele>69.718637</ele>
        <time>2022-12-23T10:59:09.756Z</time>
      </trkpt>
      <trkpt lat="45.27131" lon="-0.97831">
        <ele>69.736375</ele>
        <time>2022-12-23T10:59:12.759Z</time>
      </trkpt>
      <trkpt lat="45.27123" lon="-0.97843">
        <ele>69.754127</ele>
        <time>2022-12-23T10:59:15.754Z</time>
      </trkpt>
      <trkpt lat="45.27114" lon="-0.97854">
        <ele>69.771729</ele>
        <time>2022-12-23T10:59:18.749Z</time>
      </trkpt>
      <trkpt lat="45.27106" lon="-0.97865">
        <ele>69.788168</ele>
        <time>2022-12-23T10:59:21.756Z</time>
      </trkpt>
      <trkpt lat="45.27098" lon="-0.97876">
        <ele>69.805227</ele>
        <time>2022-12-23T10:59:24.755Z</time>
      </trkpt>
      <trkpt lat="45.2709" lon="-0.97887">
        <ele>69.822434</ele>
        <time>2022-12-23T10:59:27.754Z</time>
      </trkpt>
      <trkpt lat="45.27081" lon="-0.97898">
        <ele>69.83975</ele>
        <time>2022-12-23T10:59:30.748Z</time>
      </trkpt>
      <trkpt lat="45.27072" lon="-0.97909">
        <ele>69.857211</ele>
        <time>2022-12-23T10:59:33.757Z</time>
      </trkpt>
      <trkpt lat="45.27064" lon="-0.97919">
        <ele>69.874276</ele>
        <time>2022-12-23T10:59:36.752Z</time>
      </trkpt>
      <trkpt lat="45.27055" lon="-0.9793">
        <ele>69.890996</ele>
        <time>2022-12-23T10:59:39.734Z</time>
      </trkpt>
      <trkpt lat="45.27047" lon="-0.97939">
        <ele>69.906756</ele>
        <time>2022-12-23T10:59:42.754Z</time>
      </trkpt>
      <trkpt lat="45.2704" lon="-0.97949">
        <ele>69.922291</ele>
        <time>2022-12-23T10:59:45.749Z</time>
      </trkpt>
      <trkpt lat="45.27032" lon="-0.97958">
        <ele>69.937442</ele>
        <time>2022-12-23T10:59:48.756Z</time>
      </trkpt>
      <trkpt lat="45.27024" lon="-0.97967">
        <ele>69.952476</ele>
        <time>2022-12-23T10:59:51.753Z</time>
      </trkpt>
      <trkpt lat="45.27016" lon="-0.97976">
        <ele>69.96771</ele>
        <time>2022-12-23T10:59:54.755Z</time>
      </trkpt>
      <trkpt lat="45.2701" lon="-0.97985">
        <ele>69.999249</ele>
        <time>2022-12-23T10:59:57.742Z</time>
      </trkpt>
      <trkpt lat="45.27003" lon="-0.97995">
        <ele>70.075836</ele>
        <time>2022-12-23T11:00:00.758Z</time>
      </trkpt>
      <trkpt lat="45.26995" lon="-0.98004">
        <ele>70.15691</ele>
        <time>2022-12-23T11:00:03.753Z</time>
      </trkpt>
      <trkpt lat="45.26988" lon="-0.98015">
        <ele>70.241893</ele>
        <time>2022-12-23T11:00:06.751Z</time>
      </trkpt>
      <trkpt lat="45.2698" lon="-0.98024">
        <ele>70.328028</ele>
        <time>2022-12-23T11:00:09.750Z</time>
      </trkpt>
      <trkpt lat="45.26972" lon="-0.98035">
        <ele>70.414199</ele>
        <time>2022-12-23T11:00:12.761Z</time>
      </trkpt>
      <trkpt lat="45.26964" lon="-0.98045">
        <ele>70.50135</ele>
        <time>2022-12-23T11:00:15.756Z</time>
      </trkpt>
      <trkpt lat="45.26956" lon="-0.98055">
        <ele>70.589269</ele>
        <time>2022-12-23T11:00:18.754Z</time>
      </trkpt>
      <trkpt lat="45.26948" lon="-0.98066">
        <ele>70.67544</ele>
        <time>2022-12-23T11:00:21.749Z</time>
      </trkpt>
      <trkpt lat="45.26939" lon="-0.98076">
        <ele>70.765993</ele>
        <time>2022-12-23T11:00:24.750Z</time>
      </trkpt>
      <trkpt lat="45.2693" lon="-0.98087">
        <ele>70.860237</ele>
        <time>2022-12-23T11:00:27.756Z</time>
      </trkpt>
      <trkpt lat="45.26922" lon="-0.98098">
        <ele>70.953824</ele>
        <time>2022-12-23T11:00:30.753Z</time>
      </trkpt>
      <trkpt lat="45.26913" lon="-0.98108">
        <ele>71.043043</ele>
        <time>2022-12-23T11:00:33.751Z</time>
      </trkpt>
      <trkpt lat="45.26905" lon="-0.98116">
        <ele>71.124649</ele>
        <time>2022-12-23T11:00:36.749Z</time>
      </trkpt>
      <trkpt lat="45.26898" lon="-0.98125">
        <ele>71.199599</ele>
        <time>2022-12-23T11:00:39.749Z</time>
      </trkpt>
      <trkpt lat="45.2689" lon="-0.98134">
        <ele>71.279729</ele>
        <time>2022-12-23T11:00:42.759Z</time>
      </trkpt>
      <trkpt lat="45.26881" lon="-0.98142">
        <ele>71.367024</ele>
        <time>2022-12-23T11:00:45.767Z</time>
      </trkpt>
      <trkpt lat="45.26872" lon="-0.98151">
        <ele>71.419305</ele>
        <time>2022-12-23T11:00:48.750Z</time>
      </trkpt>
      <trkpt lat="45.26864" lon="-0.98162">
        <ele>71.385978</ele>
        <time>2022-12-23T11:00:51.767Z</time>
      </trkpt>
      <trkpt lat="45.26855" lon="-0.98173">
        <ele>71.351358</ele>
        <time>2022-12-23T11:00:54.751Z</time>
      </trkpt>
      <trkpt lat="45.26846" lon="-0.98185">
        <ele>71.315212</ele>
        <time>2022-12-23T11:00:57.739Z</time>
      </trkpt>
      <trkpt lat="45.26838" lon="-0.98197">
        <ele>71.279069</ele>
        <time>2022-12-23T11:01:00.753Z</time>
      </trkpt>
      <trkpt lat="45.26829" lon="-0.98208">
        <ele>71.242782</ele>
        <time>2022-12-23T11:01:03.733Z</time>
      </trkpt>
      <trkpt lat="45.2682" lon="-0.9822">
        <ele>71.20619</ele>
        <time>2022-12-23T11:01:06.742Z</time>
      </trkpt>
      <trkpt lat="45.2681" lon="-0.98232">
        <ele>71.169095</ele>
        <time>2022-12-23T11:01:09.735Z</time>
      </trkpt>
      <trkpt lat="45.26801" lon="-0.98243">
        <ele>71.131598</ele>
        <time>2022-12-23T11:01:12.756Z</time>
      </trkpt>
      <trkpt lat="45.26791" lon="-0.98255">
        <ele>71.094001</ele>
        <time>2022-12-23T11:01:15.748Z</time>
      </trkpt>
      <trkpt lat="45.26783" lon="-0.98268">
        <ele>71.057729</ele>
        <time>2022-12-23T11:01:18.747Z</time>
      </trkpt>
      <trkpt lat="45.26774" lon="-0.9828">
        <ele>71.021373</ele>
        <time>2022-12-23T11:01:21.735Z</time>
      </trkpt>
      <trkpt lat="45.26765" lon="-0.9829">
        <ele>70.986395</ele>
        <time>2022-12-23T11:01:24.752Z</time>
      </trkpt>
      <trkpt lat="45.26756" lon="-0.98299">
        <ele>70.952048</ele>
        <time>2022-12-23T11:01:27.738Z</time>
      </trkpt>
      <trkpt lat="45.26746" lon="-0.9831">
        <ele>70.91641</ele>
        <time>2022-12-23T11:01:30.743Z</time>
      </trkpt>
      <trkpt lat="45.26737" lon="-0.98322">
        <ele>70.932365</ele>
        <time>2022-12-23T11:01:33.741Z</time>
      </trkpt>
      <trkpt lat="45.26728" lon="-0.98334">
        <ele>71.049063</ele>
        <time>2022-12-23T11:01:36.737Z</time>
      </trkpt>
      <trkpt lat="45.26718" lon="-0.98345">
        <ele>71.163531</ele>
        <time>2022-12-23T11:01:39.741Z</time>
      </trkpt>
      <trkpt lat="45.26708" lon="-0.98357">
        <ele>71.2818</ele>
        <time>2022-12-23T11:01:42.754Z</time>
      </trkpt>
      <trkpt lat="45.26698" lon="-0.98369">
        <ele>71.402142</ele>
        <time>2022-12-23T11:01:45.748Z</time>
      </trkpt>
      <trkpt lat="45.26689" lon="-0.98381">
        <ele>71.519815</ele>
        <time>2022-12-23T11:01:48.763Z</time>
      </trkpt>
      <trkpt lat="45.26679" lon="-0.98393">
        <ele>71.638084</ele>
        <time>2022-12-23T11:01:51.731Z</time>
      </trkpt>
      <trkpt lat="45.2667" lon="-0.98405">
        <ele>71.754131</ele>
        <time>2022-12-23T11:01:54.750Z</time>
      </trkpt>
      <trkpt lat="45.2666" lon="-0.98417">
        <ele>71.870003</ele>
        <time>2022-12-23T11:01:57.750Z</time>
      </trkpt>
      <trkpt lat="45.26651" lon="-0.98428">
        <ele>71.977239</ele>
        <time>2022-12-23T11:02:00.732Z</time>
      </trkpt>
      <trkpt lat="45.26643" lon="-0.9844">
        <ele>72.085965</ele>
        <time>2022-12-23T11:02:03.745Z</time>
      </trkpt>
      <trkpt lat="45.26633" lon="-0.98452">
        <ele>72.201337</ele>
        <time>2022-12-23T11:02:06.731Z</time>
      </trkpt>
      <trkpt lat="45.26624" lon="-0.98464">
        <ele>72.31319</ele>
        <time>2022-12-23T11:02:09.742Z</time>
      </trkpt>
      <trkpt lat="45.26616" lon="-0.98474">
        <ele>72.412755</ele>
        <time>2022-12-23T11:02:12.757Z</time>
      </trkpt>
      <trkpt lat="45.26609" lon="-0.98483">
        <ele>72.499381</ele>
        <time>2022-12-23T11:02:15.729Z</time>
      </trkpt>
      <trkpt lat="45.26602" lon="-0.98492">
        <ele>72.532046</ele>
        <time>2022-12-23T11:02:18.751Z</time>
      </trkpt>
      <trkpt lat="45.26594" lon="-0.98502">
        <ele>72.52024</ele>
        <time>2022-12-23T11:02:21.759Z</time>
      </trkpt>
      <trkpt lat="45.26586" lon="-0.98512">
        <ele>72.508178</ele>
        <time>2022-12-23T11:02:24.734Z</time>
      </trkpt>
      <trkpt lat="45.26578" lon="-0.98522">
        <ele>72.495798</ele>
        <time>2022-12-23T11:02:27.739Z</time>
      </trkpt>
      <trkpt lat="45.2657" lon="-0.98533">
        <ele>72.482815</ele>
        <time>2022-12-23T11:02:30.736Z</time>
      </trkpt>
      <trkpt lat="45.26562" lon="-0.98544">
        <ele>72.470545</ele>
        <time>2022-12-23T11:02:33.758Z</time>
      </trkpt>
      <trkpt lat="45.26553" lon="-0.98555">
        <ele>72.457502</ele>
        <time>2022-12-23T11:02:36.753Z</time>
      </trkpt>
      <trkpt lat="45.26544" lon="-0.98566">
        <ele>72.444108</ele>
        <time>2022-12-23T11:02:39.751Z</time>
      </trkpt>
      <trkpt lat="45.26536" lon="-0.98578">
        <ele>72.430714</ele>
        <time>2022-12-23T11:02:42.754Z</time>
      </trkpt>
      <trkpt lat="45.26527" lon="-0.98589">
        <ele>72.417343</ele>
        <time>2022-12-23T11:02:45.749Z</time>
      </trkpt>
      <trkpt lat="45.26519" lon="-0.986">
        <ele>72.404248</ele>
        <time>2022-12-23T11:02:48.749Z</time>
      </trkpt>
      <trkpt lat="45.26511" lon="-0.9861">
        <ele>72.392672</ele>
        <time>2022-12-23T11:02:51.752Z</time>
      </trkpt>
      <trkpt lat="45.26504" lon="-0.98618">
        <ele>72.382229</ele>
        <time>2022-12-23T11:02:54.730Z</time>
      </trkpt>
      <trkpt lat="45.26497" lon="-0.98627">
        <ele>72.371629</ele>
        <time>2022-12-23T11:02:57.733Z</time>
      </trkpt>
      <trkpt lat="45.26489" lon="-0.98635">
        <ele>72.360555</ele>
        <time>2022-12-23T11:03:00.755Z</time>
      </trkpt>
      <trkpt lat="45.26481" lon="-0.98645">
        <ele>72.348453</ele>
        <time>2022-12-23T11:03:03.739Z</time>
      </trkpt>
      <trkpt lat="45.26472" lon="-0.98655">
        <ele>72.335586</ele>
        <time>2022-12-23T11:03:06.752Z</time>
      </trkpt>
      <trkpt lat="45.26463" lon="-0.98666">
        <ele>72.357054</ele>
        <time>2022-12-23T11:03:09.754Z</time>
      </trkpt>
      <trkpt lat="45.26454" lon="-0.98676">
        <ele>72.381849</ele>
        <time>2022-12-23T11:03:12.786Z</time>
      </trkpt>
      <trkpt lat="45.26444" lon="-0.98687">
        <ele>72.407755</ele>
        <time>2022-12-23T11:03:15.758Z</time>
      </trkpt>
      <trkpt lat="45.26434" lon="-0.98697">
        <ele>72.433285</ele>
        <time>2022-12-23T11:03:18.749Z</time>
      </trkpt>
      <trkpt lat="45.26424" lon="-0.98707">
        <ele>72.458132</ele>
        <time>2022-12-23T11:03:21.735Z</time>
      </trkpt>
      <trkpt lat="45.26414" lon="-0.98717">
        <ele>72.483827</ele>
        <time>2022-12-23T11:03:24.752Z</time>
      </trkpt>
      <trkpt lat="45.26404" lon="-0.98728">
        <ele>72.510047</ele>
        <time>2022-12-23T11:03:27.761Z</time>
      </trkpt>
      <trkpt lat="45.26394" lon="-0.98739">
        <ele>72.536865</ele>
        <time>2022-12-23T11:03:30.733Z</time>
      </trkpt>
      <trkpt lat="45.26383" lon="-0.98749">
        <ele>72.56368</ele>
        <time>2022-12-23T11:03:33.731Z</time>
      </trkpt>
      <trkpt lat="45.26373" lon="-0.9876">
        <ele>72.590311</ele>
        <time>2022-12-23T11:03:36.754Z</time>
      </trkpt>
      <trkpt lat="45.26364" lon="-0.9877">
        <ele>72.614943</ele>
        <time>2022-12-23T11:03:39.736Z</time>
      </trkpt>
      <trkpt lat="45.26355" lon="-0.98782">
        <ele>72.639899</ele>
        <time>2022-12-23T11:03:42.734Z</time>
      </trkpt>
      <trkpt lat="45.26346" lon="-0.98794">
        <ele>72.665418</ele>
        <time>2022-12-23T11:03:45.756Z</time>
      </trkpt>
      <trkpt lat="45.26336" lon="-0.98804">
        <ele>72.691541</ele>
        <time>2022-12-23T11:03:48.734Z</time>
      </trkpt>
      <trkpt lat="45.26325" lon="-0.98812">
        <ele>72.730161</ele>
        <time>2022-12-23T11:03:51.752Z</time>
      </trkpt>
      <trkpt lat="45.26313" lon="-0.9882">
        <ele>72.797681</ele>
        <time>2022-12-23T11:03:54.735Z</time>
      </trkpt>
      <trkpt lat="45.26303" lon="-0.9883">
        <ele>72.864397</ele>
        <time>2022-12-23T11:03:57.735Z</time>
      </trkpt>
      <trkpt lat="45.26293" lon="-0.98839">
        <ele>72.929718</ele>
        <time>2022-12-23T11:04:00.751Z</time>
      </trkpt>
      <trkpt lat="45.26282" lon="-0.98849">
        <ele>72.995057</ele>
        <time>2022-12-23T11:04:03.753Z</time>
      </trkpt>
      <trkpt lat="45.26273" lon="-0.98859">
        <ele>73.059298</ele>
        <time>2022-12-23T11:04:06.730Z</time>
      </trkpt>
      <trkpt lat="45.26262" lon="-0.9887">
        <ele>73.125698</ele>
        <time>2022-12-23T11:04:09.754Z</time>
      </trkpt>
      <trkpt lat="45.26253" lon="-0.98879">
        <ele>73.189277</ele>
        <time>2022-12-23T11:04:12.754Z</time>
      </trkpt>
      <trkpt lat="45.26243" lon="-0.9889">
        <ele>73.25335</ele>
        <time>2022-12-23T11:04:15.735Z</time>
      </trkpt>
      <trkpt lat="45.26234" lon="-0.989">
        <ele>73.31541</ele>
        <time>2022-12-23T11:04:18.758Z</time>
      </trkpt>
      <trkpt lat="45.26224" lon="-0.98909">
        <ele>73.377977</ele>
        <time>2022-12-23T11:04:21.752Z</time>
      </trkpt>
      <trkpt lat="45.26213" lon="-0.98918">
        <ele>73.44441</ele>
        <time>2022-12-23T11:04:24.757Z</time>
      </trkpt>
      <trkpt lat="45.26203" lon="-0.98928">
        <ele>73.510843</ele>
        <time>2022-12-23T11:04:27.750Z</time>
      </trkpt>
      <trkpt lat="45.26193" lon="-0.98938">
        <ele>73.576183</ele>
        <time>2022-12-23T11:04:30.748Z</time>
      </trkpt>
      <trkpt lat="45.26185" lon="-0.98948">
        <ele>73.631582</ele>
        <time>2022-12-23T11:04:33.749Z</time>
      </trkpt>
      <trkpt lat="45.26178" lon="-0.98956">
        <ele>73.656913</ele>
        <time>2022-12-23T11:04:36.734Z</time>
      </trkpt>
      <trkpt lat="45.26169" lon="-0.98964">
        <ele>73.615954</ele>
        <time>2022-12-23T11:04:40.742Z</time>
      </trkpt>
      <trkpt lat="45.2616" lon="-0.98975">
        <ele>73.566673</ele>
        <time>2022-12-23T11:04:44.737Z</time>
      </trkpt>
      <trkpt lat="45.26152" lon="-0.98984">
        <ele>73.52353</ele>
        <time>2022-12-23T11:04:47.753Z</time>
      </trkpt>
      <trkpt lat="45.26142" lon="-0.98993">
        <ele>73.476716</ele>
        <time>2022-12-23T11:04:50.745Z</time>
      </trkpt>
      <trkpt lat="45.26132" lon="-0.99002">
        <ele>73.428256</ele>
        <time>2022-12-23T11:04:53.748Z</time>
      </trkpt>
      <trkpt lat="45.26122" lon="-0.99012">
        <ele>73.378678</ele>
        <time>2022-12-23T11:04:56.750Z</time>
      </trkpt>
      <trkpt lat="45.26112" lon="-0.99023">
        <ele>73.326117</ele>
        <time>2022-12-23T11:04:59.751Z</time>
      </trkpt>
      <trkpt lat="45.26101" lon="-0.99034">
        <ele>73.271567</ele>
        <time>2022-12-23T11:05:02.751Z</time>
      </trkpt>
      <trkpt lat="45.26093" lon="-0.99041">
        <ele>73.235065</ele>
        <time>2022-12-23T11:05:04.749Z</time>
      </trkpt>
      <trkpt lat="45.26085" lon="-0.99048">
        <ele>73.197538</ele>
        <time>2022-12-23T11:05:06.735Z</time>
      </trkpt>
      <trkpt lat="45.26077" lon="-0.99055">
        <ele>73.158889</ele>
        <time>2022-12-23T11:05:08.752Z</time>
      </trkpt>
      <trkpt lat="45.2607" lon="-0.99063">
        <ele>73.121747</ele>
        <time>2022-12-23T11:05:10.744Z</time>
      </trkpt>
      <trkpt lat="45.26062" lon="-0.9907">
        <ele>73.083435</ele>
        <time>2022-12-23T11:05:12.742Z</time>
      </trkpt>
      <trkpt lat="45.26054" lon="-0.99078">
        <ele>73.044605</ele>
        <time>2022-12-23T11:05:14.750Z</time>
      </trkpt>
      <trkpt lat="45.26047" lon="-0.99086">
        <ele>73.006254</ele>
        <time>2022-12-23T11:05:16.739Z</time>
      </trkpt>
      <trkpt lat="45.26036" lon="-0.99096">
        <ele>72.953184</ele>
        <time>2022-12-23T11:05:19.756Z</time>
      </trkpt>
      <trkpt lat="45.26026" lon="-0.99106">
        <ele>72.948948</ele>
        <time>2022-12-23T11:05:22.741Z</time>
      </trkpt>
      <trkpt lat="45.26016" lon="-0.99116">
        <ele>72.967879</ele>
        <time>2022-12-23T11:05:25.743Z</time>
      </trkpt>
      <trkpt lat="45.26007" lon="-0.99126">
        <ele>72.987021</ele>
        <time>2022-12-23T11:05:28.757Z</time>
      </trkpt>
      <trkpt lat="45.25997" lon="-0.99136">
        <ele>73.006935</ele>
        <time>2022-12-23T11:05:31.757Z</time>
      </trkpt>
      <trkpt lat="45.25987" lon="-0.99146">
        <ele>73.026252</ele>
        <time>2022-12-23T11:05:34.747Z</time>
      </trkpt>
      <trkpt lat="45.25978" lon="-0.99155">
        <ele>73.043594</ele>
        <time>2022-12-23T11:05:37.752Z</time>
      </trkpt>
      <trkpt lat="45.2597" lon="-0.99164">
        <ele>73.060933</ele>
        <time>2022-12-23T11:05:40.751Z</time>
      </trkpt>
      <trkpt lat="45.2596" lon="-0.99172">
        <ele>73.079049</ele>
        <time>2022-12-23T11:05:43.743Z</time>
      </trkpt>
      <trkpt lat="45.2595" lon="-0.99182">
        <ele>73.098168</ele>
        <time>2022-12-23T11:05:46.740Z</time>
      </trkpt>
      <trkpt lat="45.25941" lon="-0.99191">
        <ele>73.11676</ele>
        <time>2022-12-23T11:05:49.759Z</time>
      </trkpt>
      <trkpt lat="45.25932" lon="-0.99201">
        <ele>73.13568</ele>
        <time>2022-12-23T11:05:52.750Z</time>
      </trkpt>
      <trkpt lat="45.25922" lon="-0.9921">
        <ele>73.15443</ele>
        <time>2022-12-23T11:05:55.739Z</time>
      </trkpt>
      <trkpt lat="45.25912" lon="-0.99219">
        <ele>73.17322</ele>
        <time>2022-12-23T11:05:58.751Z</time>
      </trkpt>
      <trkpt lat="45.25903" lon="-0.99229">
        <ele>73.192274</ele>
        <time>2022-12-23T11:06:01.749Z</time>
      </trkpt>
      <trkpt lat="45.25893" lon="-0.99239">
        <ele>73.21174</ele>
        <time>2022-12-23T11:06:04.742Z</time>
      </trkpt>
      <trkpt lat="45.25884" lon="-0.9925">
        <ele>73.207668</ele>
        <time>2022-12-23T11:06:07.748Z</time>
      </trkpt>
      <trkpt lat="45.25874" lon="-0.9926">
        <ele>73.124686</ele>
        <time>2022-12-23T11:06:10.749Z</time>
      </trkpt>
      <trkpt lat="45.25864" lon="-0.99271">
        <ele>73.039467</ele>
        <time>2022-12-23T11:06:13.738Z</time>
      </trkpt>
      <trkpt lat="45.25855" lon="-0.9928">
        <ele>72.963159</ele>
        <time>2022-12-23T11:06:16.753Z</time>
      </trkpt>
      <trkpt lat="45.25847" lon="-0.99289">
        <ele>72.897073</ele>
        <time>2022-12-23T11:06:19.754Z</time>
      </trkpt>
      <trkpt lat="45.25837" lon="-0.99298">
        <ele>72.818513</ele>
        <time>2022-12-23T11:06:23.730Z</time>
      </trkpt>
      <trkpt lat="45.2583" lon="-0.99305">
        <ele>72.75608</ele>
        <time>2022-12-23T11:06:26.738Z</time>
      </trkpt>
      <trkpt lat="45.25822" lon="-0.99313">
        <ele>72.689478</ele>
        <time>2022-12-23T11:06:29.730Z</time>
      </trkpt>
      <trkpt lat="45.25814" lon="-0.99323">
        <ele>72.617223</ele>
        <time>2022-12-23T11:06:32.735Z</time>
      </trkpt>
      <trkpt lat="45.25805" lon="-0.99332">
        <ele>72.542858</ele>
        <time>2022-12-23T11:06:35.746Z</time>
      </trkpt>
      <trkpt lat="45.25796" lon="-0.99341">
        <ele>72.465717</ele>
        <time>2022-12-23T11:06:38.738Z</time>
      </trkpt>
      <trkpt lat="45.25786" lon="-0.99351">
        <ele>72.387729</ele>
        <time>2022-12-23T11:06:41.748Z</time>
      </trkpt>
      <trkpt lat="45.25777" lon="-0.9936">
        <ele>72.312531</ele>
        <time>2022-12-23T11:06:44.752Z</time>
      </trkpt>
      <trkpt lat="45.25768" lon="-0.9937">
        <ele>72.23416</ele>
        <time>2022-12-23T11:06:47.749Z</time>
      </trkpt>
      <trkpt lat="45.25759" lon="-0.9938">
        <ele>72.152294</ele>
        <time>2022-12-23T11:06:50.737Z</time>
      </trkpt>
      <trkpt lat="45.25749" lon="-0.99391">
        <ele>72.070653</ele>
        <time>2022-12-23T11:06:53.750Z</time>
      </trkpt>
      <trkpt lat="45.2574" lon="-0.99402">
        <ele>71.985299</ele>
        <time>2022-12-23T11:06:56.737Z</time>
      </trkpt>
      <trkpt lat="45.2573" lon="-0.99413">
        <ele>71.891678</ele>
        <time>2022-12-23T11:06:59.757Z</time>
      </trkpt>
      <trkpt lat="45.2572" lon="-0.99423">
        <ele>71.797189</ele>
        <time>2022-12-23T11:07:02.751Z</time>
      </trkpt>
      <trkpt lat="45.25709" lon="-0.99434">
        <ele>71.699054</ele>
        <time>2022-12-23T11:07:05.759Z</time>
      </trkpt>
      <trkpt lat="45.25699" lon="-0.99446">
        <ele>71.600567</ele>
        <time>2022-12-23T11:07:08.749Z</time>
      </trkpt>
      <trkpt lat="45.25688" lon="-0.99457">
        <ele>71.503057</ele>
        <time>2022-12-23T11:07:11.758Z</time>
      </trkpt>
      <trkpt lat="45.25678" lon="-0.99467">
        <ele>71.407969</ele>
        <time>2022-12-23T11:07:14.751Z</time>
      </trkpt>
      <trkpt lat="45.25667" lon="-0.99478">
        <ele>71.308599</ele>
        <time>2022-12-23T11:07:17.741Z</time>
      </trkpt>
      <trkpt lat="45.25657" lon="-0.99489">
        <ele>71.209867</ele>
        <time>2022-12-23T11:07:20.750Z</time>
      </trkpt>
      <trkpt lat="45.25646" lon="-0.99499">
        <ele>71.112974</ele>
        <time>2022-12-23T11:07:23.761Z</time>
      </trkpt>
      <trkpt lat="45.25636" lon="-0.99508">
        <ele>71.021272</ele>
        <time>2022-12-23T11:07:26.752Z</time>
      </trkpt>
      <trkpt lat="45.25627" lon="-0.99517">
        <ele>70.937246</ele>
        <time>2022-12-23T11:07:29.731Z</time>
      </trkpt>
      <trkpt lat="45.25618" lon="-0.99525">
        <ele>70.8615</ele>
        <time>2022-12-23T11:07:32.751Z</time>
      </trkpt>
      <trkpt lat="45.2561" lon="-0.99533">
        <ele>70.78668</ele>
        <time>2022-12-23T11:07:35.750Z</time>
      </trkpt>
      <trkpt lat="45.25601" lon="-0.99542">
        <ele>70.702301</ele>
        <time>2022-12-23T11:07:38.742Z</time>
      </trkpt>
      <trkpt lat="45.25592" lon="-0.99552">
        <ele>70.631252</ele>
        <time>2022-12-23T11:07:41.751Z</time>
      </trkpt>
      <trkpt lat="45.25582" lon="-0.9956">
        <ele>70.585751</ele>
        <time>2022-12-23T11:07:44.760Z</time>
      </trkpt>
      <trkpt lat="45.25572" lon="-0.99569">
        <ele>70.539318</ele>
        <time>2022-12-23T11:07:47.756Z</time>
      </trkpt>
      <trkpt lat="45.25562" lon="-0.99578">
        <ele>70.491639</ele>
        <time>2022-12-23T11:07:50.745Z</time>
      </trkpt>
      <trkpt lat="45.25552" lon="-0.99588">
        <ele>70.4417</ele>
        <time>2022-12-23T11:07:53.756Z</time>
      </trkpt>
      <trkpt lat="45.25542" lon="-0.99598">
        <ele>70.390268</ele>
        <time>2022-12-23T11:07:56.755Z</time>
      </trkpt>
      <trkpt lat="45.25532" lon="-0.99608">
        <ele>70.340168</ele>
        <time>2022-12-23T11:07:59.751Z</time>
      </trkpt>
      <trkpt lat="45.25522" lon="-0.99618">
        <ele>70.289888</ele>
        <time>2022-12-23T11:08:02.752Z</time>
      </trkpt>
      <trkpt lat="45.25512" lon="-0.99629">
        <ele>70.240276</ele>
        <time>2022-12-23T11:08:05.757Z</time>
      </trkpt>
      <trkpt lat="45.25503" lon="-0.99638">
        <ele>70.194971</ele>
        <time>2022-12-23T11:08:08.758Z</time>
      </trkpt>
      <trkpt lat="45.25494" lon="-0.99647">
        <ele>70.148474</ele>
        <time>2022-12-23T11:08:11.755Z</time>
      </trkpt>
      <trkpt lat="45.25484" lon="-0.99657">
        <ele>70.099516</ele>
        <time>2022-12-23T11:08:14.734Z</time>
      </trkpt>
      <trkpt lat="45.25474" lon="-0.99667">
        <ele>70.051397</ele>
        <time>2022-12-23T11:08:17.731Z</time>
      </trkpt>
      <trkpt lat="45.25465" lon="-0.99675">
        <ele>70.005706</ele>
        <time>2022-12-23T11:08:20.751Z</time>
      </trkpt>
      <trkpt lat="45.25456" lon="-0.99685">
        <ele>69.959347</ele>
        <time>2022-12-23T11:08:23.752Z</time>
      </trkpt>
      <trkpt lat="45.25446" lon="-0.99695">
        <ele>69.929577</ele>
        <time>2022-12-23T11:08:26.745Z</time>
      </trkpt>
      <trkpt lat="45.25436" lon="-0.99705">
        <ele>70.033836</ele>
        <time>2022-12-23T11:08:29.752Z</time>
      </trkpt>
      <trkpt lat="45.25426" lon="-0.99716">
        <ele>70.13981</ele>
        <time>2022-12-23T11:08:32.753Z</time>
      </trkpt>
      <trkpt lat="45.25416" lon="-0.99726">
        <ele>70.245784</ele>
        <time>2022-12-23T11:08:35.753Z</time>
      </trkpt>
      <trkpt lat="45.25406" lon="-0.99737">
        <ele>70.350057</ele>
        <time>2022-12-23T11:08:38.752Z</time>
      </trkpt>
      <trkpt lat="45.25397" lon="-0.99745">
        <ele>70.43901</ele>
        <time>2022-12-23T11:08:41.766Z</time>
      </trkpt>
      <trkpt lat="45.25389" lon="-0.99754">
        <ele>70.521804</ele>
        <time>2022-12-23T11:08:44.743Z</time>
      </trkpt>
      <trkpt lat="45.2538" lon="-0.99761">
        <ele>70.607047</ele>
        <time>2022-12-23T11:08:47.753Z</time>
      </trkpt>
      <trkpt lat="45.25371" lon="-0.99771">
        <ele>70.702075</ele>
        <time>2022-12-23T11:08:50.737Z</time>
      </trkpt>
      <trkpt lat="45.25362" lon="-0.9978">
        <ele>70.80052</ele>
        <time>2022-12-23T11:08:53.754Z</time>
      </trkpt>
      <trkpt lat="45.25352" lon="-0.9979">
        <ele>70.901396</ele>
        <time>2022-12-23T11:08:56.750Z</time>
      </trkpt>
      <trkpt lat="45.25341" lon="-0.99799">
        <ele>71.004324</ele>
        <time>2022-12-23T11:08:59.752Z</time>
      </trkpt>
      <trkpt lat="45.25331" lon="-0.9981">
        <ele>71.110329</ele>
        <time>2022-12-23T11:09:02.753Z</time>
      </trkpt>
      <trkpt lat="45.25321" lon="-0.99821">
        <ele>71.216636</ele>
        <time>2022-12-23T11:09:05.754Z</time>
      </trkpt>
      <trkpt lat="45.25311" lon="-0.99831">
        <ele>71.324311</ele>
        <time>2022-12-23T11:09:08.739Z</time>
      </trkpt>
      <trkpt lat="45.253" lon="-0.99841">
        <ele>71.430742</ele>
        <time>2022-12-23T11:09:11.743Z</time>
      </trkpt>
      <trkpt lat="45.2529" lon="-0.99852">
        <ele>71.544583</ele>
        <time>2022-12-23T11:09:14.755Z</time>
      </trkpt>
      <trkpt lat="45.2528" lon="-0.99862">
        <ele>71.659546</ele>
        <time>2022-12-23T11:09:17.755Z</time>
      </trkpt>
      <trkpt lat="45.25269" lon="-0.99872">
        <ele>71.776416</ele>
        <time>2022-12-23T11:09:20.749Z</time>
      </trkpt>
      <trkpt lat="45.2526" lon="-0.99881">
        <ele>71.885036</ele>
        <time>2022-12-23T11:09:23.745Z</time>
      </trkpt>
      <trkpt lat="45.25251" lon="-0.9989">
        <ele>71.980839</ele>
        <time>2022-12-23T11:09:26.753Z</time>
      </trkpt>
      <trkpt lat="45.25242" lon="-0.99899">
        <ele>72.080779</ele>
        <time>2022-12-23T11:09:29.731Z</time>
      </trkpt>
      <trkpt lat="45.25233" lon="-0.99908">
        <ele>72.185604</ele>
        <time>2022-12-23T11:09:32.740Z</time>
      </trkpt>
      <trkpt lat="45.25224" lon="-0.99918">
        <ele>72.294622</ele>
        <time>2022-12-23T11:09:35.754Z</time>
      </trkpt>
      <trkpt lat="45.25214" lon="-0.99928">
        <ele>72.404335</ele>
        <time>2022-12-23T11:09:38.750Z</time>
      </trkpt>
      <trkpt lat="45.25204" lon="-0.99937">
        <ele>72.51485</ele>
        <time>2022-12-23T11:09:41.753Z</time>
      </trkpt>
      <trkpt lat="45.25194" lon="-0.99947">
        <ele>72.626433</ele>
        <time>2022-12-23T11:09:44.749Z</time>
      </trkpt>
      <trkpt lat="45.25184" lon="-0.99958">
        <ele>72.744124</ele>
        <time>2022-12-23T11:09:47.753Z</time>
      </trkpt>
      <trkpt lat="45.25174" lon="-0.99968">
        <ele>72.85458</ele>
        <time>2022-12-23T11:09:50.749Z</time>
      </trkpt>
      <trkpt lat="45.25166" lon="-0.99978">
        <ele>72.950977</ele>
        <time>2022-12-23T11:09:53.756Z</time>
      </trkpt>
      <trkpt lat="45.25157" lon="-0.99986">
        <ele>73.045674</ele>
        <time>2022-12-23T11:09:56.732Z</time>
      </trkpt>
      <trkpt lat="45.25148" lon="-0.99995">
        <ele>73.150936</ele>
        <time>2022-12-23T11:09:59.751Z</time>
      </trkpt>
      <trkpt lat="45.25139" lon="-1.00004">
        <ele>73.259872</ele>
        <time>2022-12-23T11:10:02.746Z</time>
      </trkpt>
      <trkpt lat="45.25129" lon="-1.00014">
        <ele>73.378984</ele>
        <time>2022-12-23T11:10:05.750Z</time>
      </trkpt>
      <trkpt lat="45.25119" lon="-1.00024">
        <ele>73.496481</ele>
        <time>2022-12-23T11:10:08.750Z</time>
      </trkpt>
      <trkpt lat="45.25109" lon="-1.00034">
        <ele>73.612811</ele>
        <time>2022-12-23T11:10:11.751Z</time>
      </trkpt>
      <trkpt lat="45.25099" lon="-1.00045">
        <ele>73.730697</ele>
        <time>2022-12-23T11:10:14.752Z</time>
      </trkpt>
      <trkpt lat="45.25089" lon="-1.00054">
        <ele>73.845469</ele>
        <time>2022-12-23T11:10:17.751Z</time>
      </trkpt>
      <trkpt lat="45.25079" lon="-1.00064">
        <ele>73.960345</ele>
        <time>2022-12-23T11:10:20.745Z</time>
      </trkpt>
      <trkpt lat="45.25069" lon="-1.00074">
        <ele>74.076297</ele>
        <time>2022-12-23T11:10:23.753Z</time>
      </trkpt>
      <trkpt lat="45.25059" lon="-1.00084">
        <ele>74.193797</ele>
        <time>2022-12-23T11:10:26.752Z</time>
      </trkpt>
      <trkpt lat="45.25049" lon="-1.00094">
        <ele>74.31285</ele>
        <time>2022-12-23T11:10:29.755Z</time>
      </trkpt>
      <trkpt lat="45.25038" lon="-1.00104">
        <ele>74.431922</ele>
        <time>2022-12-23T11:10:32.736Z</time>
      </trkpt>
      <trkpt lat="45.25029" lon="-1.00113">
        <ele>74.543239</ele>
        <time>2022-12-23T11:10:35.759Z</time>
      </trkpt>
      <trkpt lat="45.2502" lon="-1.00123">
        <ele>74.649548</ele>
        <time>2022-12-23T11:10:38.754Z</time>
      </trkpt>
      <trkpt lat="45.25011" lon="-1.00133">
        <ele>74.757731</ele>
        <time>2022-12-23T11:10:41.755Z</time>
      </trkpt>
      <trkpt lat="45.25002" lon="-1.00142">
        <ele>74.802075</ele>
        <time>2022-12-23T11:10:44.751Z</time>
      </trkpt>
      <trkpt lat="45.24994" lon="-1.00151">
        <ele>74.805328</ele>
        <time>2022-12-23T11:10:47.759Z</time>
      </trkpt>
      <trkpt lat="45.24986" lon="-1.0016">
        <ele>74.808551</ele>
        <time>2022-12-23T11:10:50.730Z</time>
      </trkpt>
      <trkpt lat="45.24977" lon="-1.00168">
        <ele>74.811828</ele>
        <time>2022-12-23T11:10:53.754Z</time>
      </trkpt>
      <trkpt lat="45.24968" lon="-1.00177">
        <ele>74.815418</ele>
        <time>2022-12-23T11:10:56.732Z</time>
      </trkpt>
      <trkpt lat="45.2496" lon="-1.00188">
        <ele>74.819037</ele>
        <time>2022-12-23T11:10:59.731Z</time>
      </trkpt>
      <trkpt lat="45.24952" lon="-1.00198">
        <ele>74.822368</ele>
        <time>2022-12-23T11:11:02.739Z</time>
      </trkpt>
      <trkpt lat="45.24944" lon="-1.00208">
        <ele>74.825756</ele>
        <time>2022-12-23T11:11:05.755Z</time>
      </trkpt>
      <trkpt lat="45.24935" lon="-1.00218">
        <ele>74.829279</ele>
        <time>2022-12-23T11:11:08.732Z</time>
      </trkpt>
      <trkpt lat="45.24926" lon="-1.00228">
        <ele>74.832964</ele>
        <time>2022-12-23T11:11:11.753Z</time>
      </trkpt>
      <trkpt lat="45.24917" lon="-1.00239">
        <ele>74.836902</ele>
        <time>2022-12-23T11:11:14.753Z</time>
      </trkpt>
      <trkpt lat="45.24907" lon="-1.00249">
        <ele>74.840621</ele>
        <time>2022-12-23T11:11:17.747Z</time>
      </trkpt>
      <trkpt lat="45.24899" lon="-1.00257">
        <ele>74.844</ele>
        <time>2022-12-23T11:11:20.751Z</time>
      </trkpt>
      <trkpt lat="45.24891" lon="-1.00265">
        <ele>74.847106</ele>
        <time>2022-12-23T11:11:23.749Z</time>
      </trkpt>
      <trkpt lat="45.24882" lon="-1.00275">
        <ele>74.850748</ele>
        <time>2022-12-23T11:11:27.753Z</time>
      </trkpt>
      <trkpt lat="45.24874" lon="-1.00284">
        <ele>74.853946</ele>
        <time>2022-12-23T11:11:31.755Z</time>
      </trkpt>
      <trkpt lat="45.24866" lon="-1.00293">
        <ele>74.857052</ele>
        <time>2022-12-23T11:11:35.752Z</time>
      </trkpt>
      <trkpt lat="45.24859" lon="-1.003">
        <ele>74.736491</ele>
        <time>2022-12-23T11:11:38.756Z</time>
      </trkpt>
      <trkpt lat="45.2485" lon="-1.00308">
        <ele>74.589433</ele>
        <time>2022-12-23T11:11:41.727Z</time>
      </trkpt>
      <trkpt lat="45.24842" lon="-1.00317">
        <ele>74.433432</ele>
        <time>2022-12-23T11:11:44.733Z</time>
      </trkpt>
      <trkpt lat="45.24833" lon="-1.00326">
        <ele>74.270818</ele>
        <time>2022-12-23T11:11:47.732Z</time>
      </trkpt>
      <trkpt lat="45.24823" lon="-1.00334">
        <ele>74.111141</ele>
        <time>2022-12-23T11:11:50.739Z</time>
      </trkpt>
      <trkpt lat="45.24815" lon="-1.00343">
        <ele>73.954359</ele>
        <time>2022-12-23T11:11:53.752Z</time>
      </trkpt>
      <trkpt lat="45.24806" lon="-1.00353">
        <ele>73.795342</ele>
        <time>2022-12-23T11:11:56.756Z</time>
      </trkpt>
      <trkpt lat="45.24797" lon="-1.00361">
        <ele>73.636104</ele>
        <time>2022-12-23T11:11:59.745Z</time>
      </trkpt>
      <trkpt lat="45.24788" lon="-1.00369">
        <ele>73.481233</ele>
        <time>2022-12-23T11:12:02.752Z</time>
      </trkpt>
      <trkpt lat="45.2478" lon="-1.00378">
        <ele>73.325834</ele>
        <time>2022-12-23T11:12:05.747Z</time>
      </trkpt>
      <trkpt lat="45.24771" lon="-1.00386">
        <ele>73.169171</ele>
        <time>2022-12-23T11:12:08.755Z</time>
      </trkpt>
      <trkpt lat="45.24763" lon="-1.00394">
        <ele>73.033993</ele>
        <time>2022-12-23T11:12:11.750Z</time>
      </trkpt>
      <trkpt lat="45.24754" lon="-1.00403">
        <ele>72.872027</ele>
        <time>2022-12-23T11:12:15.745Z</time>
      </trkpt>
      <trkpt lat="45.24747" lon="-1.00411">
        <ele>72.736352</ele>
        <time>2022-12-23T11:12:18.743Z</time>
      </trkpt>
      <trkpt lat="45.24738" lon="-1.00419">
        <ele>72.582746</ele>
        <time>2022-12-23T11:12:21.737Z</time>
      </trkpt>
      <trkpt lat="45.2473" lon="-1.00427">
        <ele>72.431357</ele>
        <time>2022-12-23T11:12:24.754Z</time>
      </trkpt>
      <trkpt lat="45.24722" lon="-1.00436">
        <ele>72.290262</ele>
        <time>2022-12-23T11:12:27.754Z</time>
      </trkpt>
      <trkpt lat="45.24706" lon="-1.00452">
        <ele>72.27805</ele>
        <time>2022-12-23T11:13:15.758Z</time>
      </trkpt>
      <trkpt lat="45.24698" lon="-1.00461">
        <ele>72.31617</ele>
        <time>2022-12-23T11:13:19.736Z</time>
      </trkpt>
      <trkpt lat="45.24688" lon="-1.00471">
        <ele>72.362476</ele>
        <time>2022-12-23T11:13:23.730Z</time>
      </trkpt>
      <trkpt lat="45.2468" lon="-1.00479">
        <ele>72.399625</ele>
        <time>2022-12-23T11:13:26.748Z</time>
      </trkpt>
      <trkpt lat="45.24671" lon="-1.00488">
        <ele>72.440364</ele>
        <time>2022-12-23T11:13:29.751Z</time>
      </trkpt>
      <trkpt lat="45.24663" lon="-1.00498">
        <ele>72.483618</ele>
        <time>2022-12-23T11:13:32.746Z</time>
      </trkpt>
      <trkpt lat="45.24653" lon="-1.00508">
        <ele>72.527732</ele>
        <time>2022-12-23T11:13:35.757Z</time>
      </trkpt>
      <trkpt lat="45.24644" lon="-1.00517">
        <ele>72.569371</ele>
        <time>2022-12-23T11:13:38.746Z</time>
      </trkpt>
      <trkpt lat="45.24635" lon="-1.00526">
        <ele>72.612411</ele>
        <time>2022-12-23T11:13:41.734Z</time>
      </trkpt>
      <trkpt lat="45.24626" lon="-1.00536">
        <ele>72.656371</ele>
        <time>2022-12-23T11:13:44.754Z</time>
      </trkpt>
      <trkpt lat="45.24616" lon="-1.00545">
        <ele>72.701464</ele>
        <time>2022-12-23T11:13:47.744Z</time>
      </trkpt>
      <trkpt lat="45.24606" lon="-1.00555">
        <ele>72.745116</ele>
        <time>2022-12-23T11:13:50.750Z</time>
      </trkpt>
      <trkpt lat="45.24597" lon="-1.00564">
        <ele>72.788791</ele>
        <time>2022-12-23T11:13:53.762Z</time>
      </trkpt>
      <trkpt lat="45.24588" lon="-1.00573">
        <ele>72.831831</ele>
        <time>2022-12-23T11:13:56.735Z</time>
      </trkpt>
      <trkpt lat="45.24578" lon="-1.00583">
        <ele>72.876569</ele>
        <time>2022-12-23T11:13:59.758Z</time>
      </trkpt>
      <trkpt lat="45.24568" lon="-1.00594">
        <ele>72.900307</ele>
        <time>2022-12-23T11:14:02.758Z</time>
      </trkpt>
      <trkpt lat="45.24558" lon="-1.00604">
        <ele>72.893543</ele>
        <time>2022-12-23T11:14:05.756Z</time>
      </trkpt>
      <trkpt lat="45.24548" lon="-1.00615">
        <ele>72.886756</ele>
        <time>2022-12-23T11:14:08.752Z</time>
      </trkpt>
      <trkpt lat="45.24537" lon="-1.00625">
        <ele>72.879948</ele>
        <time>2022-12-23T11:14:11.753Z</time>
      </trkpt>
      <trkpt lat="45.24527" lon="-1.00635">
        <ele>72.873115</ele>
        <time>2022-12-23T11:14:14.754Z</time>
      </trkpt>
      <trkpt lat="45.24516" lon="-1.00645">
        <ele>72.866417</ele>
        <time>2022-12-23T11:14:17.759Z</time>
      </trkpt>
      <trkpt lat="45.24506" lon="-1.00655">
        <ele>72.859785</ele>
        <time>2022-12-23T11:14:20.751Z</time>
      </trkpt>
      <trkpt lat="45.24498" lon="-1.00664">
        <ele>72.853965</ele>
        <time>2022-12-23T11:14:23.750Z</time>
      </trkpt>
      <trkpt lat="45.2449" lon="-1.00672">
        <ele>72.848826</ele>
        <time>2022-12-23T11:14:26.753Z</time>
      </trkpt>
      <trkpt lat="45.24482" lon="-1.0068">
        <ele>72.843666</ele>
        <time>2022-12-23T11:14:29.751Z</time>
      </trkpt>
      <trkpt lat="45.24474" lon="-1.00688">
        <ele>72.838083</ele>
        <time>2022-12-23T11:14:32.758Z</time>
      </trkpt>
      <trkpt lat="45.24465" lon="-1.00698">
        <ele>72.832376</ele>
        <time>2022-12-23T11:14:35.751Z</time>
      </trkpt>
      <trkpt lat="45.24457" lon="-1.00708">
        <ele>72.826461</ele>
        <time>2022-12-23T11:14:38.732Z</time>
      </trkpt>
      <trkpt lat="45.24448" lon="-1.00717">
        <ele>72.820399</ele>
        <time>2022-12-23T11:14:41.732Z</time>
      </trkpt>
      <trkpt lat="45.24438" lon="-1.00725">
        <ele>72.814467</ele>
        <time>2022-12-23T11:14:44.757Z</time>
      </trkpt>
      <trkpt lat="45.2443" lon="-1.00733">
        <ele>72.808863</ele>
        <time>2022-12-23T11:14:47.762Z</time>
      </trkpt>
      <trkpt lat="45.24422" lon="-1.00741">
        <ele>72.755095</ele>
        <time>2022-12-23T11:14:50.752Z</time>
      </trkpt>
      <trkpt lat="45.24414" lon="-1.0075">
        <ele>72.642575</ele>
        <time>2022-12-23T11:14:53.730Z</time>
      </trkpt>
      <trkpt lat="45.24405" lon="-1.00758">
        <ele>72.519172</ele>
        <time>2022-12-23T11:14:56.726Z</time>
      </trkpt>
      <trkpt lat="45.24396" lon="-1.00768">
        <ele>72.394946</ele>
        <time>2022-12-23T11:14:59.725Z</time>
      </trkpt>
      <trkpt lat="45.24386" lon="-1.00777">
        <ele>72.268887</ele>
        <time>2022-12-23T11:15:02.724Z</time>
      </trkpt>
      <trkpt lat="45.24377" lon="-1.00787">
        <ele>72.137862</ele>
        <time>2022-12-23T11:15:05.739Z</time>
      </trkpt>
      <trkpt lat="45.24367" lon="-1.00796">
        <ele>72.005035</ele>
        <time>2022-12-23T11:15:08.754Z</time>
      </trkpt>
      <trkpt lat="45.24357" lon="-1.00806">
        <ele>71.872207</ele>
        <time>2022-12-23T11:15:11.750Z</time>
      </trkpt>
      <trkpt lat="45.24347" lon="-1.00816">
        <ele>71.7353</ele>
        <time>2022-12-23T11:15:14.723Z</time>
      </trkpt>
      <trkpt lat="45.24337" lon="-1.00825">
        <ele>71.603801</ele>
        <time>2022-12-23T11:15:17.741Z</time>
      </trkpt>
      <trkpt lat="45.24328" lon="-1.00835">
        <ele>71.474598</ele>
        <time>2022-12-23T11:15:20.734Z</time>
      </trkpt>
      <trkpt lat="45.24318" lon="-1.00845">
        <ele>71.341281</ele>
        <time>2022-12-23T11:15:23.743Z</time>
      </trkpt>
      <trkpt lat="45.24309" lon="-1.00855">
        <ele>71.206192</ele>
        <time>2022-12-23T11:15:26.742Z</time>
      </trkpt>
      <trkpt lat="45.24298" lon="-1.00865">
        <ele>71.068266</ele>
        <time>2022-12-23T11:15:29.751Z</time>
      </trkpt>
      <trkpt lat="45.24289" lon="-1.00875">
        <ele>70.939521</ele>
        <time>2022-12-23T11:15:32.753Z</time>
      </trkpt>
      <trkpt lat="45.24279" lon="-1.00884">
        <ele>70.80703</ele>
        <time>2022-12-23T11:15:35.743Z</time>
      </trkpt>
      <trkpt lat="45.24269" lon="-1.00894">
        <ele>70.826409</ele>
        <time>2022-12-23T11:15:38.751Z</time>
      </trkpt>
      <trkpt lat="45.2426" lon="-1.00904">
        <ele>70.847177</ele>
        <time>2022-12-23T11:15:41.738Z</time>
      </trkpt>
      <trkpt lat="45.24249" lon="-1.00914">
        <ele>70.868441</ele>
        <time>2022-12-23T11:15:44.753Z</time>
      </trkpt>
      <trkpt lat="45.24239" lon="-1.00924">
        <ele>70.88949</ele>
        <time>2022-12-23T11:15:47.752Z</time>
      </trkpt>
      <trkpt lat="45.24229" lon="-1.00934">
        <ele>70.911171</ele>
        <time>2022-12-23T11:15:50.750Z</time>
      </trkpt>
      <trkpt lat="45.24219" lon="-1.00944">
        <ele>70.933073</ele>
        <time>2022-12-23T11:15:53.755Z</time>
      </trkpt>
      <trkpt lat="45.24208" lon="-1.00954">
        <ele>70.954333</ele>
        <time>2022-12-23T11:15:56.752Z</time>
      </trkpt>
      <trkpt lat="45.24199" lon="-1.00963">
        <ele>70.973998</ele>
        <time>2022-12-23T11:15:59.751Z</time>
      </trkpt>
      <trkpt lat="45.24191" lon="-1.00972">
        <ele>70.991681</ele>
        <time>2022-12-23T11:16:02.735Z</time>
      </trkpt>
      <trkpt lat="45.24181" lon="-1.00981">
        <ele>71.01105</ele>
        <time>2022-12-23T11:16:05.753Z</time>
      </trkpt>
      <trkpt lat="45.24171" lon="-1.0099">
        <ele>71.031893</ele>
        <time>2022-12-23T11:16:08.751Z</time>
      </trkpt>
      <trkpt lat="45.24161" lon="-1.01">
        <ele>71.052872</ele>
        <time>2022-12-23T11:16:11.752Z</time>
      </trkpt>
      <trkpt lat="45.24152" lon="-1.01011">
        <ele>71.073645</ele>
        <time>2022-12-23T11:16:14.751Z</time>
      </trkpt>
      <trkpt lat="45.24142" lon="-1.01021">
        <ele>71.095188</ele>
        <time>2022-12-23T11:16:17.741Z</time>
      </trkpt>
      <trkpt lat="45.24131" lon="-1.01032">
        <ele>71.1203</ele>
        <time>2022-12-23T11:16:20.751Z</time>
      </trkpt>
      <trkpt lat="45.24121" lon="-1.01043">
        <ele>71.22585</ele>
        <time>2022-12-23T11:16:23.752Z</time>
      </trkpt>
      <trkpt lat="45.24111" lon="-1.01054">
        <ele>71.332437</ele>
        <time>2022-12-23T11:16:26.752Z</time>
      </trkpt>
      <trkpt lat="45.241" lon="-1.01065">
        <ele>71.440973</ele>
        <time>2022-12-23T11:16:29.734Z</time>
      </trkpt>
      <trkpt lat="45.2409" lon="-1.01076">
        <ele>71.544847</ele>
        <time>2022-12-23T11:16:32.754Z</time>
      </trkpt>
      <trkpt lat="45.24079" lon="-1.01087">
        <ele>71.651371</ele>
        <time>2022-12-23T11:16:35.759Z</time>
      </trkpt>
      <trkpt lat="45.24068" lon="-1.01098">
        <ele>71.759947</ele>
        <time>2022-12-23T11:16:38.752Z</time>
      </trkpt>
      <trkpt lat="45.24058" lon="-1.01109">
        <ele>71.865472</ele>
        <time>2022-12-23T11:16:41.751Z</time>
      </trkpt>
      <trkpt lat="45.24049" lon="-1.01118">
        <ele>71.95409</ele>
        <time>2022-12-23T11:16:44.742Z</time>
      </trkpt>
      <trkpt lat="45.2404" lon="-1.01127">
        <ele>72.046017</ele>
        <time>2022-12-23T11:16:47.753Z</time>
      </trkpt>
      <trkpt lat="45.2403" lon="-1.01137">
        <ele>72.142587</ele>
        <time>2022-12-23T11:16:50.750Z</time>
      </trkpt>
      <trkpt lat="45.2402" lon="-1.01147">
        <ele>72.242139</ele>
        <time>2022-12-23T11:16:53.754Z</time>
      </trkpt>
      <trkpt lat="45.2401" lon="-1.01157">
        <ele>72.346004</ele>
        <time>2022-12-23T11:16:56.745Z</time>
      </trkpt>
      <trkpt lat="45.23999" lon="-1.01168">
        <ele>72.452865</ele>
        <time>2022-12-23T11:16:59.737Z</time>
      </trkpt>
      <trkpt lat="45.23991" lon="-1.01176">
        <ele>72.530534</ele>
        <time>2022-12-23T11:17:01.754Z</time>
      </trkpt>
      <trkpt lat="45.23983" lon="-1.01183">
        <ele>72.615439</ele>
        <time>2022-12-23T11:17:03.757Z</time>
      </trkpt>
      <trkpt lat="45.23975" lon="-1.01191">
        <ele>72.728925</ele>
        <time>2022-12-23T11:17:05.747Z</time>
      </trkpt>
      <trkpt lat="45.23967" lon="-1.01198">
        <ele>72.835926</ele>
        <time>2022-12-23T11:17:07.756Z</time>
      </trkpt>
      <trkpt lat="45.2396" lon="-1.01205">
        <ele>72.940481</ele>
        <time>2022-12-23T11:17:09.756Z</time>
      </trkpt>
      <trkpt lat="45.23949" lon="-1.01216">
        <ele>73.093518</ele>
        <time>2022-12-23T11:17:12.753Z</time>
      </trkpt>
      <trkpt lat="45.23939" lon="-1.01227">
        <ele>73.241387</ele>
        <time>2022-12-23T11:17:15.734Z</time>
      </trkpt>
      <trkpt lat="45.23929" lon="-1.01237">
        <ele>73.384093</ele>
        <time>2022-12-23T11:17:18.753Z</time>
      </trkpt>
      <trkpt lat="45.23919" lon="-1.01248">
        <ele>73.531481</ele>
        <time>2022-12-23T11:17:21.755Z</time>
      </trkpt>
      <trkpt lat="45.23909" lon="-1.01258">
        <ele>73.671804</ele>
        <time>2022-12-23T11:17:24.760Z</time>
      </trkpt>
      <trkpt lat="45.239" lon="-1.01267">
        <ele>73.794922</ele>
        <time>2022-12-23T11:17:27.757Z</time>
      </trkpt>
      <trkpt lat="45.23892" lon="-1.01276">
        <ele>73.918283</ele>
        <time>2022-12-23T11:17:30.753Z</time>
      </trkpt>
      <trkpt lat="45.23883" lon="-1.01285">
        <ele>74.041223</ele>
        <time>2022-12-23T11:17:33.757Z</time>
      </trkpt>
      <trkpt lat="45.23874" lon="-1.01294">
        <ele>74.172612</ele>
        <time>2022-12-23T11:17:36.751Z</time>
      </trkpt>
      <trkpt lat="45.23865" lon="-1.01303">
        <ele>74.301636</ele>
        <time>2022-12-23T11:17:39.754Z</time>
      </trkpt>
      <trkpt lat="45.23855" lon="-1.01313">
        <ele>74.433485</ele>
        <time>2022-12-23T11:17:42.756Z</time>
      </trkpt>
      <trkpt lat="45.23846" lon="-1.01322">
        <ele>74.564852</ele>
        <time>2022-12-23T11:17:45.755Z</time>
      </trkpt>
      <trkpt lat="45.23836" lon="-1.01331">
        <ele>74.672519</ele>
        <time>2022-12-23T11:17:48.756Z</time>
      </trkpt>
      <trkpt lat="45.23827" lon="-1.01341">
        <ele>74.719558</ele>
        <time>2022-12-23T11:17:51.754Z</time>
      </trkpt>
      <trkpt lat="45.23817" lon="-1.0135">
        <ele>74.76698</ele>
        <time>2022-12-23T11:17:54.761Z</time>
      </trkpt>
      <trkpt lat="45.23808" lon="-1.01359">
        <ele>74.813184</ele>
        <time>2022-12-23T11:17:57.751Z</time>
      </trkpt>
      <trkpt lat="45.23798" lon="-1.01369">
        <ele>74.861214</ele>
        <time>2022-12-23T11:18:00.755Z</time>
      </trkpt>
      <trkpt lat="45.23788" lon="-1.01379">
        <ele>74.911407</ele>
        <time>2022-12-23T11:18:03.753Z</time>
      </trkpt>
      <trkpt lat="45.23778" lon="-1.01389">
        <ele>74.96211</ele>
        <time>2022-12-23T11:18:06.756Z</time>
      </trkpt>
      <trkpt lat="45.23768" lon="-1.01399">
        <ele>75.012966</ele>
        <time>2022-12-23T11:18:09.754Z</time>
      </trkpt>
      <trkpt lat="45.23758" lon="-1.01409">
        <ele>75.062514</ele>
        <time>2022-12-23T11:18:12.753Z</time>
      </trkpt>
      <trkpt lat="45.23748" lon="-1.01419">
        <ele>75.112046</ele>
        <time>2022-12-23T11:18:15.737Z</time>
      </trkpt>
      <trkpt lat="45.23738" lon="-1.01429">
        <ele>75.161572</ele>
        <time>2022-12-23T11:18:18.753Z</time>
      </trkpt>
      <trkpt lat="45.23728" lon="-1.01439">
        <ele>75.210269</ele>
        <time>2022-12-23T11:18:21.755Z</time>
      </trkpt>
      <trkpt lat="45.23718" lon="-1.01449">
        <ele>75.26047</ele>
        <time>2022-12-23T11:18:24.734Z</time>
      </trkpt>
      <trkpt lat="45.23708" lon="-1.0146">
        <ele>75.310999</ele>
        <time>2022-12-23T11:18:27.732Z</time>
      </trkpt>
      <trkpt lat="45.23698" lon="-1.0147">
        <ele>75.36169</ele>
        <time>2022-12-23T11:18:30.747Z</time>
      </trkpt>
      <trkpt lat="45.23689" lon="-1.0148">
        <ele>75.38712</ele>
        <time>2022-12-23T11:18:33.738Z</time>
      </trkpt>
      <trkpt lat="45.23679" lon="-1.0149">
        <ele>75.378697</ele>
        <time>2022-12-23T11:18:36.749Z</time>
      </trkpt>
      <trkpt lat="45.2367" lon="-1.01499">
        <ele>75.370646</ele>
        <time>2022-12-23T11:18:39.752Z</time>
      </trkpt>
      <trkpt lat="45.2366" lon="-1.01508">
        <ele>75.362627</ele>
        <time>2022-12-23T11:18:42.754Z</time>
      </trkpt>
      <trkpt lat="45.23651" lon="-1.01518">
        <ele>75.354519</ele>
        <time>2022-12-23T11:18:45.751Z</time>
      </trkpt>
      <trkpt lat="45.23642" lon="-1.01528">
        <ele>75.346527</ele>
        <time>2022-12-23T11:18:48.736Z</time>
      </trkpt>
      <trkpt lat="45.23633" lon="-1.01537">
        <ele>75.338503</ele>
        <time>2022-12-23T11:18:51.752Z</time>
      </trkpt>
      <trkpt lat="45.23623" lon="-1.01547">
        <ele>75.330366</ele>
        <time>2022-12-23T11:18:54.753Z</time>
      </trkpt>
      <trkpt lat="45.23614" lon="-1.01555">
        <ele>75.32231</ele>
        <time>2022-12-23T11:18:57.743Z</time>
      </trkpt>
      <trkpt lat="45.23604" lon="-1.01566">
        <ele>75.313884</ele>
        <time>2022-12-23T11:19:00.754Z</time>
      </trkpt>
      <trkpt lat="45.23594" lon="-1.01576">
        <ele>75.305259</ele>
        <time>2022-12-23T11:19:03.758Z</time>
      </trkpt>
      <trkpt lat="45.23584" lon="-1.01585">
        <ele>75.296686</ele>
        <time>2022-12-23T11:19:06.762Z</time>
      </trkpt>
      <trkpt lat="45.23574" lon="-1.01595">
        <ele>75.288092</ele>
        <time>2022-12-23T11:19:09.752Z</time>
      </trkpt>
      <trkpt lat="45.23564" lon="-1.01605">
        <ele>75.279555</ele>
        <time>2022-12-23T11:19:12.736Z</time>
      </trkpt>
      <trkpt lat="45.23555" lon="-1.01615">
        <ele>75.271679</ele>
        <time>2022-12-23T11:19:15.738Z</time>
      </trkpt>
      <trkpt lat="45.23547" lon="-1.01622">
        <ele>75.264856</ele>
        <time>2022-12-23T11:19:18.743Z</time>
      </trkpt>
      <trkpt lat="45.2354" lon="-1.01631">
        <ele>75.156357</ele>
        <time>2022-12-23T11:19:21.737Z</time>
      </trkpt>
      <trkpt lat="45.23531" lon="-1.01639">
        <ele>75.017123</ele>
        <time>2022-12-23T11:19:24.751Z</time>
      </trkpt>
      <trkpt lat="45.23521" lon="-1.01649">
        <ele>74.864542</ele>
        <time>2022-12-23T11:19:27.754Z</time>
      </trkpt>
      <trkpt lat="45.23512" lon="-1.01659">
        <ele>74.706616</ele>
        <time>2022-12-23T11:19:30.752Z</time>
      </trkpt>
      <trkpt lat="45.23502" lon="-1.01669">
        <ele>74.548672</ele>
        <time>2022-12-23T11:19:33.754Z</time>
      </trkpt>
      <trkpt lat="45.23492" lon="-1.0168">
        <ele>74.388421</ele>
        <time>2022-12-23T11:19:36.754Z</time>
      </trkpt>
      <trkpt lat="45.23483" lon="-1.0169">
        <ele>74.227215</ele>
        <time>2022-12-23T11:19:39.756Z</time>
      </trkpt>
      <trkpt lat="45.23473" lon="-1.017">
        <ele>74.070358</ele>
        <time>2022-12-23T11:19:42.752Z</time>
      </trkpt>
      <trkpt lat="45.23463" lon="-1.0171">
        <ele>73.911891</ele>
        <time>2022-12-23T11:19:45.743Z</time>
      </trkpt>
      <trkpt lat="45.23453" lon="-1.0172">
        <ele>73.75503</ele>
        <time>2022-12-23T11:19:48.754Z</time>
      </trkpt>
      <trkpt lat="45.23444" lon="-1.0173">
        <ele>73.597034</ele>
        <time>2022-12-23T11:19:51.753Z</time>
      </trkpt>
      <trkpt lat="45.23434" lon="-1.0174">
        <ele>73.446569</ele>
        <time>2022-12-23T11:19:54.755Z</time>
      </trkpt>
      <trkpt lat="45.23426" lon="-1.01748">
        <ele>73.313173</ele>
        <time>2022-12-23T11:19:57.750Z</time>
      </trkpt>
      <trkpt lat="45.23418" lon="-1.01755">
        <ele>73.188432</ele>
        <time>2022-12-23T11:20:00.741Z</time>
      </trkpt>
      <trkpt lat="45.2341" lon="-1.01763">
        <ele>73.057991</ele>
        <time>2022-12-23T11:20:03.731Z</time>
      </trkpt>
      <trkpt lat="45.23402" lon="-1.0177">
        <ele>72.932691</ele>
        <time>2022-12-23T11:20:06.754Z</time>
      </trkpt>
      <trkpt lat="45.23393" lon="-1.01779">
        <ele>73.062525</ele>
        <time>2022-12-23T11:20:09.755Z</time>
      </trkpt>
      <trkpt lat="45.23384" lon="-1.01788">
        <ele>73.278877</ele>
        <time>2022-12-23T11:20:12.757Z</time>
      </trkpt>
      <trkpt lat="45.23375" lon="-1.01797">
        <ele>73.491964</ele>
        <time>2022-12-23T11:20:15.756Z</time>
      </trkpt>
      <trkpt lat="45.23366" lon="-1.01807">
        <ele>73.714599</ele>
        <time>2022-12-23T11:20:18.754Z</time>
      </trkpt>
      <trkpt lat="45.23357" lon="-1.01816">
        <ele>73.935646</ele>
        <time>2022-12-23T11:20:21.749Z</time>
      </trkpt>
      <trkpt lat="45.23348" lon="-1.01824">
        <ele>74.151219</ele>
        <time>2022-12-23T11:20:24.756Z</time>
      </trkpt>
      <trkpt lat="45.23339" lon="-1.01833">
        <ele>74.365063</ele>
        <time>2022-12-23T11:20:27.747Z</time>
      </trkpt>
      <trkpt lat="45.2333" lon="-1.01842">
        <ele>74.57412</ele>
        <time>2022-12-23T11:20:30.746Z</time>
      </trkpt>
      <trkpt lat="45.23321" lon="-1.01851">
        <ele>74.791165</ele>
        <time>2022-12-23T11:20:33.759Z</time>
      </trkpt>
      <trkpt lat="45.23312" lon="-1.0186">
        <ele>75.002648</ele>
        <time>2022-12-23T11:20:36.754Z</time>
      </trkpt>
      <trkpt lat="45.23303" lon="-1.0187">
        <ele>75.22687</ele>
        <time>2022-12-23T11:20:39.753Z</time>
      </trkpt>
      <trkpt lat="45.23294" lon="-1.01879">
        <ele>75.451899</ele>
        <time>2022-12-23T11:20:42.751Z</time>
      </trkpt>
      <trkpt lat="45.23284" lon="-1.01889">
        <ele>75.686503</ele>
        <time>2022-12-23T11:20:45.751Z</time>
      </trkpt>
      <trkpt lat="45.23274" lon="-1.01899">
        <ele>75.912317</ele>
        <time>2022-12-23T11:20:48.756Z</time>
      </trkpt>
      <trkpt lat="45.23265" lon="-1.01908">
        <ele>76.138152</ele>
        <time>2022-12-23T11:20:51.762Z</time>
      </trkpt>
      <trkpt lat="45.23256" lon="-1.01916">
        <ele>76.341764</ele>
        <time>2022-12-23T11:20:54.755Z</time>
      </trkpt>
      <trkpt lat="45.23247" lon="-1.01925">
        <ele>76.355091</ele>
        <time>2022-12-23T11:20:58.751Z</time>
      </trkpt>
      <trkpt lat="45.23237" lon="-1.01935">
        <ele>76.245481</ele>
        <time>2022-12-23T11:21:02.752Z</time>
      </trkpt>
      <trkpt lat="45.23229" lon="-1.01943">
        <ele>76.150491</ele>
        <time>2022-12-23T11:21:05.753Z</time>
      </trkpt>
      <trkpt lat="45.2322" lon="-1.01951">
        <ele>76.048955</ele>
        <time>2022-12-23T11:21:08.745Z</time>
      </trkpt>
      <trkpt lat="45.23211" lon="-1.0196">
        <ele>75.946668</ele>
        <time>2022-12-23T11:21:11.752Z</time>
      </trkpt>
      <trkpt lat="45.23202" lon="-1.01969">
        <ele>75.841199</ele>
        <time>2022-12-23T11:21:14.738Z</time>
      </trkpt>
      <trkpt lat="45.23193" lon="-1.01979">
        <ele>75.732755</ele>
        <time>2022-12-23T11:21:17.742Z</time>
      </trkpt>
      <trkpt lat="45.23183" lon="-1.01987">
        <ele>75.629152</ele>
        <time>2022-12-23T11:21:20.740Z</time>
      </trkpt>
      <trkpt lat="45.23174" lon="-1.01996">
        <ele>75.520585</ele>
        <time>2022-12-23T11:21:23.754Z</time>
      </trkpt>
      <trkpt lat="45.23163" lon="-1.02004">
        <ele>75.407239</ele>
        <time>2022-12-23T11:21:26.755Z</time>
      </trkpt>
      <trkpt lat="45.23154" lon="-1.02012">
        <ele>75.299731</ele>
        <time>2022-12-23T11:21:29.754Z</time>
      </trkpt>
      <trkpt lat="45.23144" lon="-1.0202">
        <ele>75.194745</ele>
        <time>2022-12-23T11:21:32.753Z</time>
      </trkpt>
      <trkpt lat="45.23134" lon="-1.02029">
        <ele>75.082174</ele>
        <time>2022-12-23T11:21:35.755Z</time>
      </trkpt>
      <trkpt lat="45.23124" lon="-1.02038">
        <ele>74.969948</ele>
        <time>2022-12-23T11:21:38.749Z</time>
      </trkpt>
      <trkpt lat="45.23113" lon="-1.02046">
        <ele>74.858572</ele>
        <time>2022-12-23T11:21:41.745Z</time>
      </trkpt>
      <trkpt lat="45.23103" lon="-1.02054">
        <ele>74.747197</ele>
        <time>2022-12-23T11:21:44.747Z</time>
      </trkpt>
      <trkpt lat="45.23092" lon="-1.02063">
        <ele>74.764963</ele>
        <time>2022-12-23T11:21:47.752Z</time>
      </trkpt>
      <trkpt lat="45.23082" lon="-1.02071">
        <ele>74.812852</ele>
        <time>2022-12-23T11:21:50.749Z</time>
      </trkpt>
      <trkpt lat="45.23071" lon="-1.02079">
        <ele>74.860671</ele>
        <time>2022-12-23T11:21:53.760Z</time>
      </trkpt>
      <trkpt lat="45.23062" lon="-1.02088">
        <ele>74.90559</ele>
        <time>2022-12-23T11:21:56.753Z</time>
      </trkpt>
      <trkpt lat="45.23054" lon="-1.02094">
        <ele>74.943033</ele>
        <time>2022-12-23T11:21:59.755Z</time>
      </trkpt>
      <trkpt lat="45.23045" lon="-1.02101">
        <ele>74.982477</ele>
        <time>2022-12-23T11:22:02.756Z</time>
      </trkpt>
      <trkpt lat="45.23036" lon="-1.02109">
        <ele>75.025658</ele>
        <time>2022-12-23T11:22:05.751Z</time>
      </trkpt>
      <trkpt lat="45.23026" lon="-1.02117">
        <ele>75.071123</ele>
        <time>2022-12-23T11:22:08.736Z</time>
      </trkpt>
      <trkpt lat="45.23016" lon="-1.02125">
        <ele>75.11728</ele>
        <time>2022-12-23T11:22:11.744Z</time>
      </trkpt>
      <trkpt lat="45.23006" lon="-1.02134">
        <ele>75.162885</ele>
        <time>2022-12-23T11:22:14.750Z</time>
      </trkpt>
      <trkpt lat="45.22997" lon="-1.02141">
        <ele>75.204355</ele>
        <time>2022-12-23T11:22:17.755Z</time>
      </trkpt>
      <trkpt lat="45.22988" lon="-1.0215">
        <ele>75.246548</ele>
        <time>2022-12-23T11:22:20.750Z</time>
      </trkpt>
      <trkpt lat="45.22978" lon="-1.02158">
        <ele>75.291229</ele>
        <time>2022-12-23T11:22:23.762Z</time>
      </trkpt>
      <trkpt lat="45.22969" lon="-1.02167">
        <ele>75.336732</ele>
        <time>2022-12-23T11:22:26.723Z</time>
      </trkpt>
      <trkpt lat="45.22959" lon="-1.02175">
        <ele>75.381368</ele>
        <time>2022-12-23T11:22:29.755Z</time>
      </trkpt>
      <trkpt lat="45.22949" lon="-1.02182">
        <ele>75.425801</ele>
        <time>2022-12-23T11:22:32.754Z</time>
      </trkpt>
      <trkpt lat="45.2294" lon="-1.02189">
        <ele>75.465656</ele>
        <time>2022-12-23T11:22:35.756Z</time>
      </trkpt>
      <trkpt lat="45.22931" lon="-1.02196">
        <ele>75.500925</ele>
        <time>2022-12-23T11:22:38.745Z</time>
      </trkpt>
      <trkpt lat="45.22923" lon="-1.02204">
        <ele>75.535585</ele>
        <time>2022-12-23T11:22:41.752Z</time>
      </trkpt>
      <trkpt lat="45.22914" lon="-1.02211">
        <ele>75.572899</ele>
        <time>2022-12-23T11:22:44.745Z</time>
      </trkpt>
      <trkpt lat="45.22905" lon="-1.02219">
        <ele>75.610341</ele>
        <time>2022-12-23T11:22:47.754Z</time>
      </trkpt>
      <trkpt lat="45.22894" lon="-1.02227">
        <ele>75.652137</ele>
        <time>2022-12-23T11:22:51.752Z</time>
      </trkpt>
      <trkpt lat="45.22884" lon="-1.02235">
        <ele>75.694972</ele>
        <time>2022-12-23T11:22:55.752Z</time>
      </trkpt>
      <trkpt lat="45.22875" lon="-1.02243">
        <ele>75.731724</ele>
        <time>2022-12-23T11:22:58.754Z</time>
      </trkpt>
      <trkpt lat="45.22865" lon="-1.0225">
        <ele>75.771395</ele>
        <time>2022-12-23T11:23:01.749Z</time>
      </trkpt>
      <trkpt lat="45.22856" lon="-1.02258">
        <ele>75.811307</ele>
        <time>2022-12-23T11:23:04.751Z</time>
      </trkpt>
      <trkpt lat="45.22846" lon="-1.02265">
        <ele>75.849919</ele>
        <time>2022-12-23T11:23:07.755Z</time>
      </trkpt>
      <trkpt lat="45.22837" lon="-1.02274">
        <ele>75.888895</ele>
        <time>2022-12-23T11:23:10.754Z</time>
      </trkpt>
      <trkpt lat="45.22827" lon="-1.02282">
        <ele>75.929043</ele>
        <time>2022-12-23T11:23:13.753Z</time>
      </trkpt>
      <trkpt lat="45.22818" lon="-1.02291">
        <ele>75.969661</ele>
        <time>2022-12-23T11:23:16.753Z</time>
      </trkpt>
      <trkpt lat="45.22808" lon="-1.02299">
        <ele>76.010006</ele>
        <time>2022-12-23T11:23:19.744Z</time>
      </trkpt>
      <trkpt lat="45.22798" lon="-1.02307">
        <ele>76.049451</ele>
        <time>2022-12-23T11:23:22.753Z</time>
      </trkpt>
      <trkpt lat="45.22789" lon="-1.02315">
        <ele>76.046722</ele>
        <time>2022-12-23T11:23:25.735Z</time>
      </trkpt>
      <trkpt lat="45.22779" lon="-1.02323">
        <ele>75.846416</ele>
        <time>2022-12-23T11:23:28.753Z</time>
      </trkpt>
      <trkpt lat="45.22768" lon="-1.02331">
        <ele>75.643099</ele>
        <time>2022-12-23T11:23:31.755Z</time>
      </trkpt>
      <trkpt lat="45.22759" lon="-1.02339">
        <ele>75.445513</ele>
        <time>2022-12-23T11:23:34.752Z</time>
      </trkpt>
      <trkpt lat="45.22748" lon="-1.02347">
        <ele>75.244904</ele>
        <time>2022-12-23T11:23:37.755Z</time>
      </trkpt>
      <trkpt lat="45.22739" lon="-1.02356">
        <ele>75.050937</ele>
        <time>2022-12-23T11:23:40.730Z</time>
      </trkpt>
      <trkpt lat="45.22729" lon="-1.02364">
        <ele>74.85512</ele>
        <time>2022-12-23T11:23:43.748Z</time>
      </trkpt>
      <trkpt lat="45.22719" lon="-1.02373">
        <ele>74.652326</ele>
        <time>2022-12-23T11:23:46.742Z</time>
      </trkpt>
      <trkpt lat="45.22709" lon="-1.02382">
        <ele>74.441901</ele>
        <time>2022-12-23T11:23:49.750Z</time>
      </trkpt>
      <trkpt lat="45.22698" lon="-1.0239">
        <ele>74.225006</ele>
        <time>2022-12-23T11:23:52.731Z</time>
      </trkpt>
      <trkpt lat="45.22687" lon="-1.024">
        <ele>74.008028</ele>
        <time>2022-12-23T11:23:55.753Z</time>
      </trkpt>
      <trkpt lat="45.22677" lon="-1.02409">
        <ele>73.794183</ele>
        <time>2022-12-23T11:23:58.753Z</time>
      </trkpt>
      <trkpt lat="45.22667" lon="-1.02418">
        <ele>73.581438</ele>
        <time>2022-12-23T11:24:01.748Z</time>
      </trkpt>
      <trkpt lat="45.22657" lon="-1.02426">
        <ele>73.387469</ele>
        <time>2022-12-23T11:24:04.747Z</time>
      </trkpt>
      <trkpt lat="45.22648" lon="-1.02433">
        <ele>73.216409</ele>
        <time>2022-12-23T11:24:07.756Z</time>
      </trkpt>
      <trkpt lat="45.2264" lon="-1.0244">
        <ele>73.055301</ele>
        <time>2022-12-23T11:24:10.732Z</time>
      </trkpt>
      <trkpt lat="45.22632" lon="-1.02447">
        <ele>73.035007</ele>
        <time>2022-12-23T11:24:13.737Z</time>
      </trkpt>
      <trkpt lat="45.22623" lon="-1.02455">
        <ele>73.204142</ele>
        <time>2022-12-23T11:24:16.753Z</time>
      </trkpt>
      <trkpt lat="45.22613" lon="-1.02462">
        <ele>73.378974</ele>
        <time>2022-12-23T11:24:19.752Z</time>
      </trkpt>
      <trkpt lat="45.22603" lon="-1.0247">
        <ele>73.56259</ele>
        <time>2022-12-23T11:24:22.748Z</time>
      </trkpt>
      <trkpt lat="45.22593" lon="-1.02478">
        <ele>73.750373</ele>
        <time>2022-12-23T11:24:25.736Z</time>
      </trkpt>
      <trkpt lat="45.22583" lon="-1.02486">
        <ele>73.937603</ele>
        <time>2022-12-23T11:24:28.736Z</time>
      </trkpt>
      <trkpt lat="45.22573" lon="-1.02495">
        <ele>74.127445</ele>
        <time>2022-12-23T11:24:31.755Z</time>
      </trkpt>
      <trkpt lat="45.22563" lon="-1.02504">
        <ele>74.316117</ele>
        <time>2022-12-23T11:24:34.757Z</time>
      </trkpt>
      <trkpt lat="45.22552" lon="-1.02513">
        <ele>74.516737</ele>
        <time>2022-12-23T11:24:37.755Z</time>
      </trkpt>
      <trkpt lat="45.22541" lon="-1.02522">
        <ele>74.715597</ele>
        <time>2022-12-23T11:24:40.747Z</time>
      </trkpt>
      <trkpt lat="45.22531" lon="-1.02531">
        <ele>74.908178</ele>
        <time>2022-12-23T11:24:43.757Z</time>
      </trkpt>
      <trkpt lat="45.2252" lon="-1.0254">
        <ele>75.105156</ele>
        <time>2022-12-23T11:24:46.758Z</time>
      </trkpt>
      <trkpt lat="45.2251" lon="-1.02548">
        <ele>75.301896</ele>
        <time>2022-12-23T11:24:49.756Z</time>
      </trkpt>
      <trkpt lat="45.22499" lon="-1.02557">
        <ele>75.502219</ele>
        <time>2022-12-23T11:24:52.752Z</time>
      </trkpt>
      <trkpt lat="45.22488" lon="-1.02565">
        <ele>75.705341</ele>
        <time>2022-12-23T11:24:55.750Z</time>
      </trkpt>
      <trkpt lat="45.22477" lon="-1.02574">
        <ele>75.891367</ele>
        <time>2022-12-23T11:24:58.746Z</time>
      </trkpt>
      <trkpt lat="45.22466" lon="-1.02582">
        <ele>76.038004</ele>
        <time>2022-12-23T11:25:01.750Z</time>
      </trkpt>
      <trkpt lat="45.22457" lon="-1.02589">
        <ele>76.162568</ele>
        <time>2022-12-23T11:25:04.733Z</time>
      </trkpt>
      <trkpt lat="45.22449" lon="-1.02597">
        <ele>76.284827</ele>
        <time>2022-12-23T11:25:07.748Z</time>
      </trkpt>
      <trkpt lat="45.2244" lon="-1.02604">
        <ele>76.410507</ele>
        <time>2022-12-23T11:25:10.752Z</time>
      </trkpt>
      <trkpt lat="45.2243" lon="-1.02612">
        <ele>76.54633</ele>
        <time>2022-12-23T11:25:13.752Z</time>
      </trkpt>
      <trkpt lat="45.22421" lon="-1.02621">
        <ele>76.682436</ele>
        <time>2022-12-23T11:25:16.754Z</time>
      </trkpt>
      <trkpt lat="45.22411" lon="-1.02628">
        <ele>76.817619</ele>
        <time>2022-12-23T11:25:19.753Z</time>
      </trkpt>
      <trkpt lat="45.22402" lon="-1.02637">
        <ele>76.952112</ele>
        <time>2022-12-23T11:25:22.755Z</time>
      </trkpt>
      <trkpt lat="45.22392" lon="-1.02644">
        <ele>77.085588</ele>
        <time>2022-12-23T11:25:25.756Z</time>
      </trkpt>
      <trkpt lat="45.22383" lon="-1.02652">
        <ele>77.218715</ele>
        <time>2022-12-23T11:25:28.751Z</time>
      </trkpt>
      <trkpt lat="45.22373" lon="-1.02661">
        <ele>77.364515</ele>
        <time>2022-12-23T11:25:31.745Z</time>
      </trkpt>
      <trkpt lat="45.22362" lon="-1.0267">
        <ele>77.511997</ele>
        <time>2022-12-23T11:25:34.754Z</time>
      </trkpt>
      <trkpt lat="45.22352" lon="-1.02678">
        <ele>77.659701</ele>
        <time>2022-12-23T11:25:37.757Z</time>
      </trkpt>
      <trkpt lat="45.22343" lon="-1.02685">
        <ele>77.780468</ele>
        <time>2022-12-23T11:25:40.755Z</time>
      </trkpt>
      <trkpt lat="45.22333" lon="-1.02692">
        <ele>77.922906</ele>
        <time>2022-12-23T11:25:44.736Z</time>
      </trkpt>
      <trkpt lat="45.22324" lon="-1.02699">
        <ele>78.037851</ele>
        <time>2022-12-23T11:25:47.742Z</time>
      </trkpt>
      <trkpt lat="45.22315" lon="-1.02707">
        <ele>77.848654</ele>
        <time>2022-12-23T11:25:50.759Z</time>
      </trkpt>
      <trkpt lat="45.22305" lon="-1.02715">
        <ele>77.64959</ele>
        <time>2022-12-23T11:25:53.748Z</time>
      </trkpt>
      <trkpt lat="45.22295" lon="-1.02724">
        <ele>77.442127</ele>
        <time>2022-12-23T11:25:56.752Z</time>
      </trkpt>
      <trkpt lat="45.22285" lon="-1.02732">
        <ele>77.230122</ele>
        <time>2022-12-23T11:25:59.756Z</time>
      </trkpt>
      <trkpt lat="45.22275" lon="-1.02741">
        <ele>77.013538</ele>
        <time>2022-12-23T11:26:02.743Z</time>
      </trkpt>
      <trkpt lat="45.22264" lon="-1.0275">
        <ele>76.79973</ele>
        <time>2022-12-23T11:26:05.754Z</time>
      </trkpt>
      <trkpt lat="45.22254" lon="-1.02758">
        <ele>76.597873</ele>
        <time>2022-12-23T11:26:08.750Z</time>
      </trkpt>
      <trkpt lat="45.22245" lon="-1.02766">
        <ele>76.397533</ele>
        <time>2022-12-23T11:26:11.755Z</time>
      </trkpt>
      <trkpt lat="45.22235" lon="-1.02775">
        <ele>76.19972</ele>
        <time>2022-12-23T11:26:14.753Z</time>
      </trkpt>
      <trkpt lat="45.22226" lon="-1.02783">
        <ele>76.001746</ele>
        <time>2022-12-23T11:26:17.752Z</time>
      </trkpt>
      <trkpt lat="45.22215" lon="-1.02792">
        <ele>75.780223</ele>
        <time>2022-12-23T11:26:20.750Z</time>
      </trkpt>
      <trkpt lat="45.22204" lon="-1.02801">
        <ele>75.564538</ele>
        <time>2022-12-23T11:26:23.743Z</time>
      </trkpt>
      <trkpt lat="45.22195" lon="-1.0281">
        <ele>75.358751</ele>
        <time>2022-12-23T11:26:26.740Z</time>
      </trkpt>
      <trkpt lat="45.22185" lon="-1.02818">
        <ele>75.155606</ele>
        <time>2022-12-23T11:26:29.750Z</time>
      </trkpt>
      <trkpt lat="45.22176" lon="-1.02825">
        <ele>74.974077</ele>
        <time>2022-12-23T11:26:32.755Z</time>
      </trkpt>
      <trkpt lat="45.22166" lon="-1.02834">
        <ele>74.87372</ele>
        <time>2022-12-23T11:26:36.734Z</time>
      </trkpt>
      <trkpt lat="45.22158" lon="-1.0284">
        <ele>74.90505</ele>
        <time>2022-12-23T11:26:39.751Z</time>
      </trkpt>
      <trkpt lat="45.22149" lon="-1.02847">
        <ele>74.939661</ele>
        <time>2022-12-23T11:26:42.736Z</time>
      </trkpt>
      <trkpt lat="45.2214" lon="-1.02855">
        <ele>74.976471</ele>
        <time>2022-12-23T11:26:45.747Z</time>
      </trkpt>
      <trkpt lat="45.2213" lon="-1.02863">
        <ele>75.015604</ele>
        <time>2022-12-23T11:26:48.759Z</time>
      </trkpt>
      <trkpt lat="45.2212" lon="-1.02871">
        <ele>75.055692</ele>
        <time>2022-12-23T11:26:51.742Z</time>
      </trkpt>
      <trkpt lat="45.22109" lon="-1.0288">
        <ele>75.097156</ele>
        <time>2022-12-23T11:26:54.753Z</time>
      </trkpt>
      <trkpt lat="45.22098" lon="-1.02889">
        <ele>75.140047</ele>
        <time>2022-12-23T11:26:57.739Z</time>
      </trkpt>
      <trkpt lat="45.22087" lon="-1.02897">
        <ele>75.183471</ele>
        <time>2022-12-23T11:27:00.752Z</time>
      </trkpt>
      <trkpt lat="45.22076" lon="-1.02907">
        <ele>75.2269</ele>
        <time>2022-12-23T11:27:03.752Z</time>
      </trkpt>
      <trkpt lat="45.22066" lon="-1.02914">
        <ele>75.266993</ele>
        <time>2022-12-23T11:27:06.754Z</time>
      </trkpt>
      <trkpt lat="45.22057" lon="-1.02922">
        <ele>75.304041</ele>
        <time>2022-12-23T11:27:09.752Z</time>
      </trkpt>
      <trkpt lat="45.22046" lon="-1.02931">
        <ele>75.345589</ele>
        <time>2022-12-23T11:27:12.756Z</time>
      </trkpt>
      <trkpt lat="45.22036" lon="-1.0294">
        <ele>75.38693</ele>
        <time>2022-12-23T11:27:15.753Z</time>
      </trkpt>
      <trkpt lat="45.22026" lon="-1.02948">
        <ele>75.424758</ele>
        <time>2022-12-23T11:27:18.759Z</time>
      </trkpt>
      <trkpt lat="45.22017" lon="-1.02957">
        <ele>75.46275</ele>
        <time>2022-12-23T11:27:21.750Z</time>
      </trkpt>
      <trkpt lat="45.22007" lon="-1.02965">
        <ele>75.538323</ele>
        <time>2022-12-23T11:27:24.752Z</time>
      </trkpt>
      <trkpt lat="45.21998" lon="-1.02973">
        <ele>75.62219</ele>
        <time>2022-12-23T11:27:27.755Z</time>
      </trkpt>
      <trkpt lat="45.21988" lon="-1.02981">
        <ele>75.703295</ele>
        <time>2022-12-23T11:27:30.752Z</time>
      </trkpt>
      <trkpt lat="45.21979" lon="-1.02988">
        <ele>75.784936</ele>
        <time>2022-12-23T11:27:33.751Z</time>
      </trkpt>
      <trkpt lat="45.2197" lon="-1.02995">
        <ele>75.864082</ele>
        <time>2022-12-23T11:27:36.755Z</time>
      </trkpt>
      <trkpt lat="45.21961" lon="-1.03003">
        <ele>75.942581</ele>
        <time>2022-12-23T11:27:39.753Z</time>
      </trkpt>
      <trkpt lat="45.21952" lon="-1.03011">
        <ele>76.024685</ele>
        <time>2022-12-23T11:27:42.751Z</time>
      </trkpt>
      <trkpt lat="45.21942" lon="-1.0302">
        <ele>76.111123</ele>
        <time>2022-12-23T11:27:45.752Z</time>
      </trkpt>
      <trkpt lat="45.21932" lon="-1.03028">
        <ele>76.200023</ele>
        <time>2022-12-23T11:27:48.732Z</time>
      </trkpt>
      <trkpt lat="45.21922" lon="-1.03035">
        <ele>76.281522</ele>
        <time>2022-12-23T11:27:51.754Z</time>
      </trkpt>
      <trkpt lat="45.21914" lon="-1.03041">
        <ele>76.350331</ele>
        <time>2022-12-23T11:27:54.753Z</time>
      </trkpt>
      <trkpt lat="45.21906" lon="-1.03048">
        <ele>76.42397</ele>
        <time>2022-12-23T11:27:57.757Z</time>
      </trkpt>
      <trkpt lat="45.21896" lon="-1.03055">
        <ele>76.504549</ele>
        <time>2022-12-23T11:28:00.754Z</time>
      </trkpt>
      <trkpt lat="45.21887" lon="-1.03064">
        <ele>76.5881</ele>
        <time>2022-12-23T11:28:03.756Z</time>
      </trkpt>
      <trkpt lat="45.21878" lon="-1.03072">
        <ele>76.671314</ele>
        <time>2022-12-23T11:28:06.732Z</time>
      </trkpt>
      <trkpt lat="45.21867" lon="-1.0308">
        <ele>76.75965</ele>
        <time>2022-12-23T11:28:09.749Z</time>
      </trkpt>
      <trkpt lat="45.21856" lon="-1.03088">
        <ele>76.826599</ele>
        <time>2022-12-23T11:28:12.763Z</time>
      </trkpt>
      <trkpt lat="45.21846" lon="-1.03096">
        <ele>76.801472</ele>
        <time>2022-12-23T11:28:15.758Z</time>
      </trkpt>
      <trkpt lat="45.21836" lon="-1.03105">
        <ele>76.776463</ele>
        <time>2022-12-23T11:28:18.741Z</time>
      </trkpt>
      <trkpt lat="45.21825" lon="-1.03113">
        <ele>76.750839</ele>
        <time>2022-12-23T11:28:21.754Z</time>
      </trkpt>
      <trkpt lat="45.21815" lon="-1.03121">
        <ele>76.725713</ele>
        <time>2022-12-23T11:28:24.741Z</time>
      </trkpt>
      <trkpt lat="45.21804" lon="-1.0313">
        <ele>76.701145</ele>
        <time>2022-12-23T11:28:27.747Z</time>
      </trkpt>
      <trkpt lat="45.21794" lon="-1.03139">
        <ele>76.675479</ele>
        <time>2022-12-23T11:28:30.752Z</time>
      </trkpt>
      <trkpt lat="45.21783" lon="-1.03147">
        <ele>76.649704</ele>
        <time>2022-12-23T11:28:33.752Z</time>
      </trkpt>
      <trkpt lat="45.21773" lon="-1.03155">
        <ele>76.624592</ele>
        <time>2022-12-23T11:28:36.752Z</time>
      </trkpt>
      <trkpt lat="45.21763" lon="-1.03164">
        <ele>76.599998</ele>
        <time>2022-12-23T11:28:39.754Z</time>
      </trkpt>
      <trkpt lat="45.21753" lon="-1.03172">
        <ele>76.577221</ele>
        <time>2022-12-23T11:28:42.753Z</time>
      </trkpt>
      <trkpt lat="45.21745" lon="-1.03178">
        <ele>76.557397</ele>
        <time>2022-12-23T11:28:45.749Z</time>
      </trkpt>
      <trkpt lat="45.21735" lon="-1.03187">
        <ele>76.531846</ele>
        <time>2022-12-23T11:28:49.754Z</time>
      </trkpt>
      <trkpt lat="45.21726" lon="-1.03194">
        <ele>76.510711</ele>
        <time>2022-12-23T11:28:52.742Z</time>
      </trkpt>
      <trkpt lat="45.21717" lon="-1.03202">
        <ele>76.488759</ele>
        <time>2022-12-23T11:28:55.750Z</time>
      </trkpt>
      <trkpt lat="45.21707" lon="-1.0321">
        <ele>76.465347</ele>
        <time>2022-12-23T11:28:58.754Z</time>
      </trkpt>
      <trkpt lat="45.21698" lon="-1.03219">
        <ele>76.370848</ele>
        <time>2022-12-23T11:29:01.755Z</time>
      </trkpt>
      <trkpt lat="45.21689" lon="-1.03227">
        <ele>76.221324</ele>
        <time>2022-12-23T11:29:04.741Z</time>
      </trkpt>
      <trkpt lat="45.21679" lon="-1.03236">
        <ele>76.064216</ele>
        <time>2022-12-23T11:29:07.747Z</time>
      </trkpt>
      <trkpt lat="45.21669" lon="-1.03245">
        <ele>75.905534</ele>
        <time>2022-12-23T11:29:10.735Z</time>
      </trkpt>
      <trkpt lat="45.21659" lon="-1.03253">
        <ele>75.748488</ele>
        <time>2022-12-23T11:29:13.754Z</time>
      </trkpt>
      <trkpt lat="45.21648" lon="-1.03262">
        <ele>75.586053</ele>
        <time>2022-12-23T11:29:16.754Z</time>
      </trkpt>
      <trkpt lat="45.21638" lon="-1.03271">
        <ele>75.423619</ele>
        <time>2022-12-23T11:29:19.742Z</time>
      </trkpt>
      <trkpt lat="45.21627" lon="-1.0328">
        <ele>75.257424</ele>
        <time>2022-12-23T11:29:22.748Z</time>
      </trkpt>
      <trkpt lat="45.21617" lon="-1.03288">
        <ele>75.096892</ele>
        <time>2022-12-23T11:29:25.757Z</time>
      </trkpt>
      <trkpt lat="45.21607" lon="-1.03297">
        <ele>74.946089</ele>
        <time>2022-12-23T11:29:28.735Z</time>
      </trkpt>
      <trkpt lat="45.21599" lon="-1.03304">
        <ele>74.815886</ele>
        <time>2022-12-23T11:29:31.753Z</time>
      </trkpt>
      <trkpt lat="45.2159" lon="-1.03311">
        <ele>74.683375</ele>
        <time>2022-12-23T11:29:34.732Z</time>
      </trkpt>
      <trkpt lat="45.21582" lon="-1.03319">
        <ele>74.544517</ele>
        <time>2022-12-23T11:29:37.751Z</time>
      </trkpt>
      <trkpt lat="45.21572" lon="-1.03326">
        <ele>74.397047</ele>
        <time>2022-12-23T11:29:40.749Z</time>
      </trkpt>
      <trkpt lat="45.21561" lon="-1.03334">
        <ele>74.238054</ele>
        <time>2022-12-23T11:29:43.750Z</time>
      </trkpt>
      <trkpt lat="45.21551" lon="-1.03343">
        <ele>74.081192</ele>
        <time>2022-12-23T11:29:46.754Z</time>
      </trkpt>
      <trkpt lat="45.21541" lon="-1.03351">
        <ele>73.987152</ele>
        <time>2022-12-23T11:29:49.754Z</time>
      </trkpt>
      <trkpt lat="45.21531" lon="-1.03359">
        <ele>73.913079</ele>
        <time>2022-12-23T11:29:52.746Z</time>
      </trkpt>
      <trkpt lat="45.21522" lon="-1.03367">
        <ele>73.846367</ele>
        <time>2022-12-23T11:29:55.753Z</time>
      </trkpt>
      <trkpt lat="45.21512" lon="-1.03375">
        <ele>73.778167</ele>
        <time>2022-12-23T11:29:58.739Z</time>
      </trkpt>
      <trkpt lat="45.21502" lon="-1.03383">
        <ele>73.705071</ele>
        <time>2022-12-23T11:30:01.753Z</time>
      </trkpt>
      <trkpt lat="45.21492" lon="-1.03391">
        <ele>73.634043</ele>
        <time>2022-12-23T11:30:04.753Z</time>
      </trkpt>
      <trkpt lat="45.21482" lon="-1.03399">
        <ele>73.560823</ele>
        <time>2022-12-23T11:30:07.752Z</time>
      </trkpt>
      <trkpt lat="45.21472" lon="-1.03406">
        <ele>73.49216</ele>
        <time>2022-12-23T11:30:10.751Z</time>
      </trkpt>
      <trkpt lat="45.21463" lon="-1.03414">
        <ele>73.422162</ele>
        <time>2022-12-23T11:30:13.752Z</time>
      </trkpt>
      <trkpt lat="45.21454" lon="-1.03422">
        <ele>73.359493</ele>
        <time>2022-12-23T11:30:16.749Z</time>
      </trkpt>
      <trkpt lat="45.21446" lon="-1.03428">
        <ele>73.299233</ele>
        <time>2022-12-23T11:30:19.750Z</time>
      </trkpt>
      <trkpt lat="45.21437" lon="-1.03436">
        <ele>73.232977</ele>
        <time>2022-12-23T11:30:22.727Z</time>
      </trkpt>
      <trkpt lat="45.21427" lon="-1.03444">
        <ele>73.162905</ele>
        <time>2022-12-23T11:30:25.743Z</time>
      </trkpt>
      <trkpt lat="45.21417" lon="-1.03453">
        <ele>73.089246</ele>
        <time>2022-12-23T11:30:28.753Z</time>
      </trkpt>
      <trkpt lat="45.21407" lon="-1.03461">
        <ele>73.015715</ele>
        <time>2022-12-23T11:30:31.743Z</time>
      </trkpt>
      <trkpt lat="45.21397" lon="-1.03469">
        <ele>72.947943</ele>
        <time>2022-12-23T11:30:34.753Z</time>
      </trkpt>
      <trkpt lat="45.21388" lon="-1.03477">
        <ele>72.843002</ele>
        <time>2022-12-23T11:30:37.753Z</time>
      </trkpt>
      <trkpt lat="45.21378" lon="-1.03485">
        <ele>72.697581</ele>
        <time>2022-12-23T11:30:40.737Z</time>
      </trkpt>
      <trkpt lat="45.21368" lon="-1.03494">
        <ele>72.549505</ele>
        <time>2022-12-23T11:30:43.753Z</time>
      </trkpt>
      <trkpt lat="45.21357" lon="-1.03502">
        <ele>72.401702</ele>
        <time>2022-12-23T11:30:46.749Z</time>
      </trkpt>
      <trkpt lat="45.21347" lon="-1.03511">
        <ele>72.253297</ele>
        <time>2022-12-23T11:30:49.754Z</time>
      </trkpt>
      <trkpt lat="45.21337" lon="-1.0352">
        <ele>72.100515</ele>
        <time>2022-12-23T11:30:52.758Z</time>
      </trkpt>
      <trkpt lat="45.21326" lon="-1.03529">
        <ele>71.950313</ele>
        <time>2022-12-23T11:30:55.750Z</time>
      </trkpt>
      <trkpt lat="45.21315" lon="-1.03537">
        <ele>71.795607</ele>
        <time>2022-12-23T11:30:58.751Z</time>
      </trkpt>
      <trkpt lat="45.21304" lon="-1.03546">
        <ele>71.641472</ele>
        <time>2022-12-23T11:31:01.730Z</time>
      </trkpt>
      <trkpt lat="45.21294" lon="-1.03555">
        <ele>71.486881</ele>
        <time>2022-12-23T11:31:04.730Z</time>
      </trkpt>
      <trkpt lat="45.21284" lon="-1.03563">
        <ele>71.345068</ele>
        <time>2022-12-23T11:31:07.755Z</time>
      </trkpt>
      <trkpt lat="45.21275" lon="-1.0357">
        <ele>71.220572</ele>
        <time>2022-12-23T11:31:10.753Z</time>
      </trkpt>
      <trkpt lat="45.21266" lon="-1.03577">
        <ele>71.09241</ele>
        <time>2022-12-23T11:31:13.744Z</time>
      </trkpt>
      <trkpt lat="45.21256" lon="-1.03585">
        <ele>70.94763</ele>
        <time>2022-12-23T11:31:16.751Z</time>
      </trkpt>
      <trkpt lat="45.21246" lon="-1.03594">
        <ele>70.805609</ele>
        <time>2022-12-23T11:31:19.742Z</time>
      </trkpt>
      <trkpt lat="45.21236" lon="-1.03602">
        <ele>70.685666</ele>
        <time>2022-12-23T11:31:22.756Z</time>
      </trkpt>
      <trkpt lat="45.21226" lon="-1.0361">
        <ele>70.686716</ele>
        <time>2022-12-23T11:31:25.756Z</time>
      </trkpt>
      <trkpt lat="45.21216" lon="-1.03618">
        <ele>70.687766</ele>
        <time>2022-12-23T11:31:28.752Z</time>
      </trkpt>
      <trkpt lat="45.21206" lon="-1.03627">
        <ele>70.688828</ele>
        <time>2022-12-23T11:31:31.756Z</time>
      </trkpt>
      <trkpt lat="45.21196" lon="-1.03635">
        <ele>70.689884</ele>
        <time>2022-12-23T11:31:34.752Z</time>
      </trkpt>
      <trkpt lat="45.21187" lon="-1.03643">
        <ele>70.690931</ele>
        <time>2022-12-23T11:31:37.757Z</time>
      </trkpt>
      <trkpt lat="45.21177" lon="-1.03652">
        <ele>70.691988</ele>
        <time>2022-12-23T11:31:40.748Z</time>
      </trkpt>
      <trkpt lat="45.21167" lon="-1.03661">
        <ele>70.693052</ele>
        <time>2022-12-23T11:31:43.756Z</time>
      </trkpt>
      <trkpt lat="45.21158" lon="-1.03669">
        <ele>70.694056</ele>
        <time>2022-12-23T11:31:46.752Z</time>
      </trkpt>
      <trkpt lat="45.21149" lon="-1.03676">
        <ele>70.694982</ele>
        <time>2022-12-23T11:31:49.753Z</time>
      </trkpt>
      <trkpt lat="45.2114" lon="-1.03684">
        <ele>70.695927</ele>
        <time>2022-12-23T11:31:52.736Z</time>
      </trkpt>
      <trkpt lat="45.2113" lon="-1.03692">
        <ele>70.696968</ele>
        <time>2022-12-23T11:31:55.753Z</time>
      </trkpt>
      <trkpt lat="45.21119" lon="-1.037">
        <ele>70.698106</ele>
        <time>2022-12-23T11:31:58.754Z</time>
      </trkpt>
      <trkpt lat="45.21108" lon="-1.03709">
        <ele>70.699279</ele>
        <time>2022-12-23T11:32:01.754Z</time>
      </trkpt>
      <trkpt lat="45.21097" lon="-1.03718">
        <ele>70.700485</ele>
        <time>2022-12-23T11:32:04.760Z</time>
      </trkpt>
      <trkpt lat="45.21085" lon="-1.03727">
        <ele>70.701686</ele>
        <time>2022-12-23T11:32:07.752Z</time>
      </trkpt>
      <trkpt lat="45.21074" lon="-1.03736">
        <ele>70.736989</ele>
        <time>2022-12-23T11:32:10.753Z</time>
      </trkpt>
      <trkpt lat="45.21063" lon="-1.03746">
        <ele>70.781029</ele>
        <time>2022-12-23T11:32:13.731Z</time>
      </trkpt>
      <trkpt lat="45.21051" lon="-1.03755">
        <ele>70.826458</ele>
        <time>2022-12-23T11:32:16.757Z</time>
      </trkpt>
      <trkpt lat="45.21041" lon="-1.03764">
        <ele>70.870707</ele>
        <time>2022-12-23T11:32:19.749Z</time>
      </trkpt>
      <trkpt lat="45.21029" lon="-1.03773">
        <ele>70.915106</ele>
        <time>2022-12-23T11:32:22.729Z</time>
      </trkpt>
      <trkpt lat="45.21019" lon="-1.03782">
        <ele>70.959059</ele>
        <time>2022-12-23T11:32:25.733Z</time>
      </trkpt>
      <trkpt lat="45.21008" lon="-1.03791">
        <ele>71.002675</ele>
        <time>2022-12-23T11:32:28.748Z</time>
      </trkpt>
      <trkpt lat="45.20998" lon="-1.038">
        <ele>71.042843</ele>
        <time>2022-12-23T11:32:31.735Z</time>
      </trkpt>
      <trkpt lat="45.20989" lon="-1.03808">
        <ele>71.079142</ele>
        <time>2022-12-23T11:32:34.754Z</time>
      </trkpt>
      <trkpt lat="45.2098" lon="-1.03815">
        <ele>71.115867</ele>
        <time>2022-12-23T11:32:37.751Z</time>
      </trkpt>
      <trkpt lat="45.20971" lon="-1.03823">
        <ele>71.153966</ele>
        <time>2022-12-23T11:32:40.735Z</time>
      </trkpt>
      <trkpt lat="45.20961" lon="-1.03831">
        <ele>71.191799</ele>
        <time>2022-12-23T11:32:43.752Z</time>
      </trkpt>
      <trkpt lat="45.20952" lon="-1.03839">
        <ele>71.22997</ele>
        <time>2022-12-23T11:32:46.751Z</time>
      </trkpt>
      <trkpt lat="45.20942" lon="-1.03848">
        <ele>71.269505</ele>
        <time>2022-12-23T11:32:49.739Z</time>
      </trkpt>
      <trkpt lat="45.20932" lon="-1.03856">
        <ele>71.311242</ele>
        <time>2022-12-23T11:32:52.753Z</time>
      </trkpt>
      <trkpt lat="45.20922" lon="-1.03864">
        <ele>71.320879</ele>
        <time>2022-12-23T11:32:55.735Z</time>
      </trkpt>
      <trkpt lat="45.20911" lon="-1.03873">
        <ele>71.307499</ele>
        <time>2022-12-23T11:32:58.744Z</time>
      </trkpt>
      <trkpt lat="45.20901" lon="-1.03882">
        <ele>71.294121</ele>
        <time>2022-12-23T11:33:01.751Z</time>
      </trkpt>
      <trkpt lat="45.2089" lon="-1.03891">
        <ele>71.28034</ele>
        <time>2022-12-23T11:33:04.755Z</time>
      </trkpt>
      <trkpt lat="45.20879" lon="-1.039">
        <ele>71.266693</ele>
        <time>2022-12-23T11:33:07.751Z</time>
      </trkpt>
      <trkpt lat="45.20869" lon="-1.03908">
        <ele>71.254152</ele>
        <time>2022-12-23T11:33:10.755Z</time>
      </trkpt>
      <trkpt lat="45.20861" lon="-1.03915">
        <ele>71.243552</ele>
        <time>2022-12-23T11:33:13.745Z</time>
      </trkpt>
      <trkpt lat="45.20851" lon="-1.03922">
        <ele>71.231407</ele>
        <time>2022-12-23T11:33:17.753Z</time>
      </trkpt>
      <trkpt lat="45.20841" lon="-1.0393">
        <ele>71.218677</ele>
        <time>2022-12-23T11:33:21.741Z</time>
      </trkpt>
      <trkpt lat="45.20832" lon="-1.03939">
        <ele>71.206884</ele>
        <time>2022-12-23T11:33:24.742Z</time>
      </trkpt>
      <trkpt lat="45.20822" lon="-1.03946">
        <ele>71.194915</ele>
        <time>2022-12-23T11:33:27.755Z</time>
      </trkpt>
      <trkpt lat="45.20812" lon="-1.03955">
        <ele>71.182135</ele>
        <time>2022-12-23T11:33:30.750Z</time>
      </trkpt>
      <trkpt lat="45.20802" lon="-1.03964">
        <ele>71.168829</ele>
        <time>2022-12-23T11:33:33.752Z</time>
      </trkpt>
      <trkpt lat="45.20792" lon="-1.03973">
        <ele>71.155794</ele>
        <time>2022-12-23T11:33:36.738Z</time>
      </trkpt>
      <trkpt lat="45.20781" lon="-1.03981">
        <ele>71.142605</ele>
        <time>2022-12-23T11:33:39.757Z</time>
      </trkpt>
      <trkpt lat="45.2077" lon="-1.03989">
        <ele>71.131616</ele>
        <time>2022-12-23T11:33:42.741Z</time>
      </trkpt>
      <trkpt lat="45.20759" lon="-1.03997">
        <ele>71.131857</ele>
        <time>2022-12-23T11:33:45.734Z</time>
      </trkpt>
      <trkpt lat="45.20748" lon="-1.04007">
        <ele>71.132105</ele>
        <time>2022-12-23T11:33:48.751Z</time>
      </trkpt>
      <trkpt lat="45.20737" lon="-1.04017">
        <ele>71.132355</ele>
        <time>2022-12-23T11:33:51.752Z</time>
      </trkpt>
      <trkpt lat="45.20726" lon="-1.04026">
        <ele>71.132606</ele>
        <time>2022-12-23T11:33:54.754Z</time>
      </trkpt>
      <trkpt lat="45.20715" lon="-1.04035">
        <ele>71.132852</ele>
        <time>2022-12-23T11:33:57.754Z</time>
      </trkpt>
      <trkpt lat="45.20704" lon="-1.04044">
        <ele>71.133101</ele>
        <time>2022-12-23T11:34:00.762Z</time>
      </trkpt>
      <trkpt lat="45.20693" lon="-1.04053">
        <ele>71.133336</ele>
        <time>2022-12-23T11:34:03.755Z</time>
      </trkpt>
      <trkpt lat="45.20683" lon="-1.04062">
        <ele>71.133564</ele>
        <time>2022-12-23T11:34:06.751Z</time>
      </trkpt>
      <trkpt lat="45.20672" lon="-1.04071">
        <ele>71.133816</ele>
        <time>2022-12-23T11:34:09.753Z</time>
      </trkpt>
      <trkpt lat="45.20661" lon="-1.0408">
        <ele>71.134067</ele>
        <time>2022-12-23T11:34:12.763Z</time>
      </trkpt>
      <trkpt lat="45.20649" lon="-1.04089">
        <ele>71.134315</ele>
        <time>2022-12-23T11:34:15.753Z</time>
      </trkpt>
      <trkpt lat="45.20638" lon="-1.04098">
        <ele>71.134565</ele>
        <time>2022-12-23T11:34:18.751Z</time>
      </trkpt>
      <trkpt lat="45.20627" lon="-1.04107">
        <ele>71.134816</ele>
        <time>2022-12-23T11:34:21.728Z</time>
      </trkpt>
      <trkpt lat="45.20615" lon="-1.04117">
        <ele>71.13</ele>
        <time>2022-12-23T11:34:24.763Z</time>
      </trkpt>
      <trkpt lat="45.20604" lon="-1.04126">
        <ele>71.086436</ele>
        <time>2022-12-23T11:34:27.751Z</time>
      </trkpt>
      <trkpt lat="45.20596" lon="-1.04133">
        <ele>71.05679</ele>
        <time>2022-12-23T11:34:29.731Z</time>
      </trkpt>
      <trkpt lat="45.20585" lon="-1.04143">
        <ele>71.0144</ele>
        <time>2022-12-23T11:34:32.754Z</time>
      </trkpt>
      <trkpt lat="45.20574" lon="-1.04151">
        <ele>70.974146</ele>
        <time>2022-12-23T11:34:35.749Z</time>
      </trkpt>
      <trkpt lat="45.20565" lon="-1.04159">
        <ele>70.938175</ele>
        <time>2022-12-23T11:34:38.750Z</time>
      </trkpt>
      <trkpt lat="45.20555" lon="-1.04167">
        <ele>70.901121</ele>
        <time>2022-12-23T11:34:41.755Z</time>
      </trkpt>
      <trkpt lat="45.20545" lon="-1.04176">
        <ele>70.861198</ele>
        <time>2022-12-23T11:34:44.738Z</time>
      </trkpt>
      <trkpt lat="45.20534" lon="-1.04185">
        <ele>70.820666</ele>
        <time>2022-12-23T11:34:47.754Z</time>
      </trkpt>
      <trkpt lat="45.20523" lon="-1.04194">
        <ele>70.779022</ele>
        <time>2022-12-23T11:34:50.734Z</time>
      </trkpt>
      <trkpt lat="45.20513" lon="-1.04204">
        <ele>70.737933</ele>
        <time>2022-12-23T11:34:53.730Z</time>
      </trkpt>
      <trkpt lat="45.20502" lon="-1.04213">
        <ele>70.696547</ele>
        <time>2022-12-23T11:34:56.752Z</time>
      </trkpt>
      <trkpt lat="45.20492" lon="-1.04221">
        <ele>70.659943</ele>
        <time>2022-12-23T11:34:59.756Z</time>
      </trkpt>
      <trkpt lat="45.20483" lon="-1.04229">
        <ele>70.624019</ele>
        <time>2022-12-23T11:35:02.748Z</time>
      </trkpt>
      <trkpt lat="45.20473" lon="-1.04237">
        <ele>70.586396</ele>
        <time>2022-12-23T11:35:05.726Z</time>
      </trkpt>
      <trkpt lat="45.20462" lon="-1.04245">
        <ele>70.547345</ele>
        <time>2022-12-23T11:35:08.754Z</time>
      </trkpt>
      <trkpt lat="45.20453" lon="-1.04254">
        <ele>70.581754</ele>
        <time>2022-12-23T11:35:11.752Z</time>
      </trkpt>
      <trkpt lat="45.20441" lon="-1.04264">
        <ele>70.624802</ele>
        <time>2022-12-23T11:35:14.750Z</time>
      </trkpt>
      <trkpt lat="45.2043" lon="-1.04274">
        <ele>70.66789</ele>
        <time>2022-12-23T11:35:17.756Z</time>
      </trkpt>
      <trkpt lat="45.20419" lon="-1.04283">
        <ele>70.71154</ele>
        <time>2022-12-23T11:35:20.745Z</time>
      </trkpt>
      <trkpt lat="45.20407" lon="-1.04293">
        <ele>70.755812</ele>
        <time>2022-12-23T11:35:23.752Z</time>
      </trkpt>
      <trkpt lat="45.20395" lon="-1.04302">
        <ele>70.799463</ele>
        <time>2022-12-23T11:35:26.749Z</time>
      </trkpt>
      <trkpt lat="45.20385" lon="-1.04311">
        <ele>70.839071</ele>
        <time>2022-12-23T11:35:29.752Z</time>
      </trkpt>
      <trkpt lat="45.20376" lon="-1.04318">
        <ele>70.873556</ele>
        <time>2022-12-23T11:35:32.759Z</time>
      </trkpt>
      <trkpt lat="45.20368" lon="-1.04325">
        <ele>70.903947</ele>
        <time>2022-12-23T11:35:35.753Z</time>
      </trkpt>
      <trkpt lat="45.20359" lon="-1.04332">
        <ele>70.936053</ele>
        <time>2022-12-23T11:35:38.755Z</time>
      </trkpt>
      <trkpt lat="45.2035" lon="-1.0434">
        <ele>70.971562</ele>
        <time>2022-12-23T11:35:41.740Z</time>
      </trkpt>
      <trkpt lat="45.20339" lon="-1.04348">
        <ele>71.010429</ele>
        <time>2022-12-23T11:35:44.755Z</time>
      </trkpt>
      <trkpt lat="45.20329" lon="-1.04356">
        <ele>71.050324</ele>
        <time>2022-12-23T11:35:47.752Z</time>
      </trkpt>
      <trkpt lat="45.20318" lon="-1.04365">
        <ele>71.090736</ele>
        <time>2022-12-23T11:35:50.749Z</time>
      </trkpt>
      <trkpt lat="45.20307" lon="-1.04375">
        <ele>71.132466</ele>
        <time>2022-12-23T11:35:53.754Z</time>
      </trkpt>
      <trkpt lat="45.20296" lon="-1.04384">
        <ele>71.107848</ele>
        <time>2022-12-23T11:35:56.754Z</time>
      </trkpt>
      <trkpt lat="45.20285" lon="-1.04393">
        <ele>71.08011</ele>
        <time>2022-12-23T11:35:59.755Z</time>
      </trkpt>
      <trkpt lat="45.20274" lon="-1.04402">
        <ele>71.052852</ele>
        <time>2022-12-23T11:36:02.755Z</time>
      </trkpt>
      <trkpt lat="45.20263" lon="-1.0441">
        <ele>71.026705</ele>
        <time>2022-12-23T11:36:05.754Z</time>
      </trkpt>
      <trkpt lat="45.20254" lon="-1.04418">
        <ele>71.004094</ele>
        <time>2022-12-23T11:36:08.756Z</time>
      </trkpt>
      <trkpt lat="45.20244" lon="-1.04427">
        <ele>70.978985</ele>
        <time>2022-12-23T11:36:11.753Z</time>
      </trkpt>
      <trkpt lat="45.20233" lon="-1.04435">
        <ele>70.953467</ele>
        <time>2022-12-23T11:36:14.748Z</time>
      </trkpt>
      <trkpt lat="45.20223" lon="-1.04443">
        <ele>70.927544</ele>
        <time>2022-12-23T11:36:17.747Z</time>
      </trkpt>
      <trkpt lat="45.20213" lon="-1.04451">
        <ele>70.904207</ele>
        <time>2022-12-23T11:36:20.748Z</time>
      </trkpt>
      <trkpt lat="45.20203" lon="-1.04459">
        <ele>70.879465</ele>
        <time>2022-12-23T11:36:23.744Z</time>
      </trkpt>
      <trkpt lat="45.20193" lon="-1.04468">
        <ele>70.853761</ele>
        <time>2022-12-23T11:36:26.756Z</time>
      </trkpt>
      <trkpt lat="45.20182" lon="-1.04476">
        <ele>70.827537</ele>
        <time>2022-12-23T11:36:29.758Z</time>
      </trkpt>
      <trkpt lat="45.20171" lon="-1.04485">
        <ele>70.80113</ele>
        <time>2022-12-23T11:36:32.746Z</time>
      </trkpt>
      <trkpt lat="45.20161" lon="-1.04494">
        <ele>70.775167</ele>
        <time>2022-12-23T11:36:35.753Z</time>
      </trkpt>
      <trkpt lat="45.2015" lon="-1.04504">
        <ele>70.75883</ele>
        <time>2022-12-23T11:36:38.754Z</time>
      </trkpt>
      <trkpt lat="45.20139" lon="-1.04513">
        <ele>70.831249</ele>
        <time>2022-12-23T11:36:41.754Z</time>
      </trkpt>
      <trkpt lat="45.20128" lon="-1.04522">
        <ele>70.902999</ele>
        <time>2022-12-23T11:36:44.755Z</time>
      </trkpt>
      <trkpt lat="45.20117" lon="-1.04531">
        <ele>70.97492</ele>
        <time>2022-12-23T11:36:47.747Z</time>
      </trkpt>
      <trkpt lat="45.20107" lon="-1.0454">
        <ele>71.045555</ele>
        <time>2022-12-23T11:36:50.737Z</time>
      </trkpt>
      <trkpt lat="45.20096" lon="-1.04549">
        <ele>71.120105</ele>
        <time>2022-12-23T11:36:53.751Z</time>
      </trkpt>
      <trkpt lat="45.20085" lon="-1.04559">
        <ele>71.194937</ele>
        <time>2022-12-23T11:36:56.752Z</time>
      </trkpt>
      <trkpt lat="45.20073" lon="-1.04568">
        <ele>71.268753</ele>
        <time>2022-12-23T11:36:59.752Z</time>
      </trkpt>
      <trkpt lat="45.20063" lon="-1.04576">
        <ele>71.336684</ele>
        <time>2022-12-23T11:37:02.751Z</time>
      </trkpt>
      <trkpt lat="45.20054" lon="-1.04584">
        <ele>71.395275</ele>
        <time>2022-12-23T11:37:05.756Z</time>
      </trkpt>
      <trkpt lat="45.20045" lon="-1.04591">
        <ele>71.455545</ele>
        <time>2022-12-23T11:37:08.746Z</time>
      </trkpt>
      <trkpt lat="45.20035" lon="-1.04599">
        <ele>71.521782</ele>
        <time>2022-12-23T11:37:11.749Z</time>
      </trkpt>
      <trkpt lat="45.20025" lon="-1.04608">
        <ele>71.59091</ele>
        <time>2022-12-23T11:37:14.744Z</time>
      </trkpt>
      <trkpt lat="45.20015" lon="-1.04616">
        <ele>71.659041</ele>
        <time>2022-12-23T11:37:17.753Z</time>
      </trkpt>
      <trkpt lat="45.20005" lon="-1.04624">
        <ele>71.723385</ele>
        <time>2022-12-23T11:37:20.740Z</time>
      </trkpt>
      <trkpt lat="45.19995" lon="-1.04632">
        <ele>71.798244</ele>
        <time>2022-12-23T11:37:23.754Z</time>
      </trkpt>
      <trkpt lat="45.19984" lon="-1.04641">
        <ele>71.958056</ele>
        <time>2022-12-23T11:37:26.735Z</time>
      </trkpt>
      <trkpt lat="45.19973" lon="-1.0465">
        <ele>72.120754</ele>
        <time>2022-12-23T11:37:29.724Z</time>
      </trkpt>
      <trkpt lat="45.19962" lon="-1.04659">
        <ele>72.2857</ele>
        <time>2022-12-23T11:37:32.749Z</time>
      </trkpt>
      <trkpt lat="45.19952" lon="-1.04668">
        <ele>72.43623</ele>
        <time>2022-12-23T11:37:35.754Z</time>
      </trkpt>
      <trkpt lat="45.19944" lon="-1.04675">
        <ele>72.566825</ele>
        <time>2022-12-23T11:37:38.750Z</time>
      </trkpt>
      <trkpt lat="45.19934" lon="-1.04684">
        <ele>72.7148</ele>
        <time>2022-12-23T11:37:41.758Z</time>
      </trkpt>
      <trkpt lat="45.19924" lon="-1.04692">
        <ele>72.866722</ele>
        <time>2022-12-23T11:37:44.756Z</time>
      </trkpt>
      <trkpt lat="45.19914" lon="-1.04701">
        <ele>73.013267</ele>
        <time>2022-12-23T11:37:47.744Z</time>
      </trkpt>
      <trkpt lat="45.19903" lon="-1.0471">
        <ele>73.177346</ele>
        <time>2022-12-23T11:37:50.751Z</time>
      </trkpt>
      <trkpt lat="45.19892" lon="-1.04719">
        <ele>73.345443</ele>
        <time>2022-12-23T11:37:53.756Z</time>
      </trkpt>
      <trkpt lat="45.19881" lon="-1.04728">
        <ele>73.502964</ele>
        <time>2022-12-23T11:37:56.757Z</time>
      </trkpt>
      <trkpt lat="45.1987" lon="-1.04736">
        <ele>73.666583</ele>
        <time>2022-12-23T11:37:59.754Z</time>
      </trkpt>
      <trkpt lat="45.1986" lon="-1.04744">
        <ele>73.814888</ele>
        <time>2022-12-23T11:38:02.751Z</time>
      </trkpt>
      <trkpt lat="45.19851" lon="-1.04752">
        <ele>73.949006</ele>
        <time>2022-12-23T11:38:05.749Z</time>
      </trkpt>
      <trkpt lat="45.19842" lon="-1.0476">
        <ele>74.092123</ele>
        <time>2022-12-23T11:38:08.740Z</time>
      </trkpt>
      <trkpt lat="45.19832" lon="-1.04769">
        <ele>74.057244</ele>
        <time>2022-12-23T11:38:11.755Z</time>
      </trkpt>
      <trkpt lat="45.19821" lon="-1.04777">
        <ele>73.996698</ele>
        <time>2022-12-23T11:38:14.749Z</time>
      </trkpt>
      <trkpt lat="45.1981" lon="-1.04786">
        <ele>73.931576</ele>
        <time>2022-12-23T11:38:17.751Z</time>
      </trkpt>
      <trkpt lat="45.19798" lon="-1.04795">
        <ele>73.8674</ele>
        <time>2022-12-23T11:38:20.750Z</time>
      </trkpt>
      <trkpt lat="45.19788" lon="-1.04804">
        <ele>73.804684</ele>
        <time>2022-12-23T11:38:23.732Z</time>
      </trkpt>
      <trkpt lat="45.19777" lon="-1.04813">
        <ele>73.742264</ele>
        <time>2022-12-23T11:38:26.750Z</time>
      </trkpt>
      <trkpt lat="45.19766" lon="-1.04822">
        <ele>73.680776</ele>
        <time>2022-12-23T11:38:29.749Z</time>
      </trkpt>
      <trkpt lat="45.19756" lon="-1.04832">
        <ele>73.618396</ele>
        <time>2022-12-23T11:38:32.756Z</time>
      </trkpt>
      <trkpt lat="45.19745" lon="-1.0484">
        <ele>73.554919</ele>
        <time>2022-12-23T11:38:35.758Z</time>
      </trkpt>
      <trkpt lat="45.19733" lon="-1.0485">
        <ele>73.48849</ele>
        <time>2022-12-23T11:38:38.746Z</time>
      </trkpt>
      <trkpt lat="45.19725" lon="-1.04856">
        <ele>73.44363</ele>
        <time>2022-12-23T11:38:40.740Z</time>
      </trkpt>
      <trkpt lat="45.19714" lon="-1.04865">
        <ele>73.37989</ele>
        <time>2022-12-23T11:38:43.753Z</time>
      </trkpt>
      <trkpt lat="45.19704" lon="-1.04874">
        <ele>73.320818</ele>
        <time>2022-12-23T11:38:46.752Z</time>
      </trkpt>
      <trkpt lat="45.19694" lon="-1.04882">
        <ele>73.262883</ele>
        <time>2022-12-23T11:38:49.755Z</time>
      </trkpt>
      <trkpt lat="45.19683" lon="-1.04891">
        <ele>73.181871</ele>
        <time>2022-12-23T11:38:52.755Z</time>
      </trkpt>
      <trkpt lat="45.19672" lon="-1.049">
        <ele>73.044589</ele>
        <time>2022-12-23T11:38:55.739Z</time>
      </trkpt>
      <trkpt lat="45.1966" lon="-1.04909">
        <ele>72.901834</ele>
        <time>2022-12-23T11:38:58.749Z</time>
      </trkpt>
      <trkpt lat="45.19649" lon="-1.04918">
        <ele>72.766621</ele>
        <time>2022-12-23T11:39:01.755Z</time>
      </trkpt>
      <trkpt lat="45.19639" lon="-1.04927">
        <ele>72.632428</ele>
        <time>2022-12-23T11:39:04.755Z</time>
      </trkpt>
      <trkpt lat="45.19629" lon="-1.04935">
        <ele>72.506807</ele>
        <time>2022-12-23T11:39:07.757Z</time>
      </trkpt>
      <trkpt lat="45.19619" lon="-1.04942">
        <ele>72.389679</ele>
        <time>2022-12-23T11:39:10.752Z</time>
      </trkpt>
      <trkpt lat="45.19612" lon="-1.0495">
        <ele>72.288423</ele>
        <time>2022-12-23T11:39:13.753Z</time>
      </trkpt>
      <trkpt lat="45.19603" lon="-1.04957">
        <ele>72.178673</ele>
        <time>2022-12-23T11:39:16.754Z</time>
      </trkpt>
      <trkpt lat="45.19593" lon="-1.04965">
        <ele>72.058905</ele>
        <time>2022-12-23T11:39:19.755Z</time>
      </trkpt>
      <trkpt lat="45.19583" lon="-1.04974">
        <ele>71.92895</ele>
        <time>2022-12-23T11:39:22.752Z</time>
      </trkpt>
      <trkpt lat="45.19571" lon="-1.04982">
        <ele>71.78837</ele>
        <time>2022-12-23T11:39:25.759Z</time>
      </trkpt>
      <trkpt lat="45.1956" lon="-1.04992">
        <ele>71.642393</ele>
        <time>2022-12-23T11:39:28.730Z</time>
      </trkpt>
      <trkpt lat="45.19552" lon="-1.04998">
        <ele>71.543541</ele>
        <time>2022-12-23T11:39:30.731Z</time>
      </trkpt>
      <trkpt lat="45.19541" lon="-1.05008">
        <ele>71.399655</ele>
        <time>2022-12-23T11:39:33.729Z</time>
      </trkpt>
      <trkpt lat="45.19533" lon="-1.05014">
        <ele>71.299328</ele>
        <time>2022-12-23T11:39:35.750Z</time>
      </trkpt>
      <trkpt lat="45.19525" lon="-1.05021">
        <ele>71.249818</ele>
        <time>2022-12-23T11:39:37.750Z</time>
      </trkpt>
      <trkpt lat="45.19513" lon="-1.05031">
        <ele>71.216688</ele>
        <time>2022-12-23T11:39:40.750Z</time>
      </trkpt>
      <trkpt lat="45.19505" lon="-1.05038">
        <ele>71.193404</ele>
        <time>2022-12-23T11:39:42.750Z</time>
      </trkpt>
      <trkpt lat="45.19497" lon="-1.05044">
        <ele>71.170585</ele>
        <time>2022-12-23T11:39:44.753Z</time>
      </trkpt>
      <trkpt lat="45.19484" lon="-1.05053">
        <ele>71.137316</ele>
        <time>2022-12-23T11:39:47.758Z</time>
      </trkpt>
      <trkpt lat="45.19473" lon="-1.05063">
        <ele>71.105703</ele>
        <time>2022-12-23T11:39:50.748Z</time>
      </trkpt>
      <trkpt lat="45.19462" lon="-1.05073">
        <ele>71.073618</ele>
        <time>2022-12-23T11:39:53.754Z</time>
      </trkpt>
      <trkpt lat="45.1945" lon="-1.05082">
        <ele>71.040908</ele>
        <time>2022-12-23T11:39:56.750Z</time>
      </trkpt>
      <trkpt lat="45.19443" lon="-1.05089">
        <ele>71.018845</ele>
        <time>2022-12-23T11:39:58.753Z</time>
      </trkpt>
      <trkpt lat="45.19432" lon="-1.05098">
        <ele>70.98939</ele>
        <time>2022-12-23T11:40:01.754Z</time>
      </trkpt>
      <trkpt lat="45.19423" lon="-1.05106">
        <ele>70.963384</ele>
        <time>2022-12-23T11:40:04.753Z</time>
      </trkpt>
      <trkpt lat="45.19414" lon="-1.05114">
        <ele>70.937817</ele>
        <time>2022-12-23T11:40:07.755Z</time>
      </trkpt>
      <trkpt lat="45.19404" lon="-1.05122">
        <ele>70.910299</ele>
        <time>2022-12-23T11:40:10.754Z</time>
      </trkpt>
      <trkpt lat="45.19394" lon="-1.05131">
        <ele>70.880497</ele>
        <time>2022-12-23T11:40:13.753Z</time>
      </trkpt>
      <trkpt lat="45.19383" lon="-1.0514">
        <ele>70.849686</ele>
        <time>2022-12-23T11:40:16.752Z</time>
      </trkpt>
      <trkpt lat="45.19372" lon="-1.05149">
        <ele>70.846458</ele>
        <time>2022-12-23T11:40:19.753Z</time>
      </trkpt>
      <trkpt lat="45.19361" lon="-1.05158">
        <ele>70.923537</ele>
        <time>2022-12-23T11:40:22.752Z</time>
      </trkpt>
      <trkpt lat="45.1935" lon="-1.05167">
        <ele>71.002835</ele>
        <time>2022-12-23T11:40:25.751Z</time>
      </trkpt>
      <trkpt lat="45.19339" lon="-1.05175">
        <ele>71.079737</ele>
        <time>2022-12-23T11:40:28.751Z</time>
      </trkpt>
      <trkpt lat="45.1933" lon="-1.05183">
        <ele>71.144205</ele>
        <time>2022-12-23T11:40:31.724Z</time>
      </trkpt>
      <trkpt lat="45.19321" lon="-1.05191">
        <ele>71.205259</ele>
        <time>2022-12-23T11:40:34.744Z</time>
      </trkpt>
      <trkpt lat="45.19312" lon="-1.05198">
        <ele>71.268835</ele>
        <time>2022-12-23T11:40:37.749Z</time>
      </trkpt>
      <trkpt lat="45.19302" lon="-1.05207">
        <ele>71.338336</ele>
        <time>2022-12-23T11:40:40.754Z</time>
      </trkpt>
      <trkpt lat="45.19291" lon="-1.05215">
        <ele>71.415438</ele>
        <time>2022-12-23T11:40:43.754Z</time>
      </trkpt>
      <trkpt lat="45.1928" lon="-1.05224">
        <ele>71.492094</ele>
        <time>2022-12-23T11:40:46.760Z</time>
      </trkpt>
      <trkpt lat="45.19269" lon="-1.05232">
        <ele>71.565465</ele>
        <time>2022-12-23T11:40:49.750Z</time>
      </trkpt>
      <trkpt lat="45.1926" lon="-1.05239">
        <ele>71.631581</ele>
        <time>2022-12-23T11:40:52.750Z</time>
      </trkpt>
      <trkpt lat="45.1925" lon="-1.05245">
        <ele>71.694327</ele>
        <time>2022-12-23T11:40:55.730Z</time>
      </trkpt>
      <trkpt lat="45.1924" lon="-1.05252">
        <ele>71.762008</ele>
        <time>2022-12-23T11:40:58.754Z</time>
      </trkpt>
      <trkpt lat="45.1923" lon="-1.05256">
        <ele>71.8264</ele>
        <time>2022-12-23T11:41:01.750Z</time>
      </trkpt>
      <trkpt lat="45.19218" lon="-1.05261">
        <ele>71.89975</ele>
        <time>2022-12-23T11:41:04.753Z</time>
      </trkpt>
      <trkpt lat="45.19208" lon="-1.05267">
        <ele>72.034668</ele>
        <time>2022-12-23T11:41:07.756Z</time>
      </trkpt>
      <trkpt lat="45.19195" lon="-1.05273">
        <ele>72.212968</ele>
        <time>2022-12-23T11:41:10.745Z</time>
      </trkpt>
      <trkpt lat="45.19183" lon="-1.05279">
        <ele>72.389693</ele>
        <time>2022-12-23T11:41:13.751Z</time>
      </trkpt>
      <trkpt lat="45.19171" lon="-1.05284">
        <ele>72.559278</ele>
        <time>2022-12-23T11:41:16.741Z</time>
      </trkpt>
      <trkpt lat="45.1916" lon="-1.05288">
        <ele>72.720855</ele>
        <time>2022-12-23T11:41:19.742Z</time>
      </trkpt>
      <trkpt lat="45.1915" lon="-1.05292">
        <ele>72.869112</ele>
        <time>2022-12-23T11:41:22.743Z</time>
      </trkpt>
      <trkpt lat="45.19138" lon="-1.05298">
        <ele>73.039703</ele>
        <time>2022-12-23T11:41:26.766Z</time>
      </trkpt>
      <trkpt lat="45.19127" lon="-1.05305">
        <ele>73.201397</ele>
        <time>2022-12-23T11:41:29.743Z</time>
      </trkpt>
      <trkpt lat="45.19116" lon="-1.0531">
        <ele>73.366759</ele>
        <time>2022-12-23T11:41:32.742Z</time>
      </trkpt>
      <trkpt lat="45.19104" lon="-1.05316">
        <ele>73.53765</ele>
        <time>2022-12-23T11:41:35.727Z</time>
      </trkpt>
      <trkpt lat="45.19092" lon="-1.05322">
        <ele>73.711118</ele>
        <time>2022-12-23T11:41:38.753Z</time>
      </trkpt>
      <trkpt lat="45.1908" lon="-1.05328">
        <ele>73.882625</ele>
        <time>2022-12-23T11:41:41.735Z</time>
      </trkpt>
      <trkpt lat="45.19069" lon="-1.05333">
        <ele>74.044765</ele>
        <time>2022-12-23T11:41:44.753Z</time>
      </trkpt>
      <trkpt lat="45.19058" lon="-1.05339">
        <ele>74.208544</ele>
        <time>2022-12-23T11:41:47.742Z</time>
      </trkpt>
      <trkpt lat="45.19047" lon="-1.05345">
        <ele>74.373262</ele>
        <time>2022-12-23T11:41:50.749Z</time>
      </trkpt>
      <trkpt lat="45.19036" lon="-1.05351">
        <ele>74.191136</ele>
        <time>2022-12-23T11:41:53.750Z</time>
      </trkpt>
      <trkpt lat="45.19024" lon="-1.05356">
        <ele>73.959724</ele>
        <time>2022-12-23T11:41:56.751Z</time>
      </trkpt>
      <trkpt lat="45.19014" lon="-1.05361">
        <ele>73.745379</ele>
        <time>2022-12-23T11:41:59.748Z</time>
      </trkpt>
      <trkpt lat="45.19004" lon="-1.05364">
        <ele>73.550514</ele>
        <time>2022-12-23T11:42:02.731Z</time>
      </trkpt>
      <trkpt lat="45.18994" lon="-1.0537">
        <ele>73.344958</ele>
        <time>2022-12-23T11:42:05.731Z</time>
      </trkpt>
      <trkpt lat="45.18984" lon="-1.05376">
        <ele>73.125779</ele>
        <time>2022-12-23T11:42:08.744Z</time>
      </trkpt>
      <trkpt lat="45.18972" lon="-1.05382">
        <ele>72.883864</ele>
        <time>2022-12-23T11:42:11.757Z</time>
      </trkpt>
      <trkpt lat="45.1896" lon="-1.05387">
        <ele>72.645082</ele>
        <time>2022-12-23T11:42:14.756Z</time>
      </trkpt>
      <trkpt lat="45.18949" lon="-1.05391">
        <ele>72.424697</ele>
        <time>2022-12-23T11:42:17.736Z</time>
      </trkpt>
      <trkpt lat="45.18939" lon="-1.05396">
        <ele>72.215703</ele>
        <time>2022-12-23T11:42:20.735Z</time>
      </trkpt>
      <trkpt lat="45.18929" lon="-1.05402">
        <ele>72.002593</ele>
        <time>2022-12-23T11:42:23.754Z</time>
      </trkpt>
      <trkpt lat="45.18918" lon="-1.05407">
        <ele>71.775782</ele>
        <time>2022-12-23T11:42:26.737Z</time>
      </trkpt>
      <trkpt lat="45.18907" lon="-1.05413">
        <ele>71.54439</ele>
        <time>2022-12-23T11:42:29.754Z</time>
      </trkpt>
      <trkpt lat="45.18896" lon="-1.05419">
        <ele>71.311065</ele>
        <time>2022-12-23T11:42:32.757Z</time>
      </trkpt>
      <trkpt lat="45.18884" lon="-1.05424">
        <ele>71.070199</ele>
        <time>2022-12-23T11:42:35.746Z</time>
      </trkpt>
      <trkpt lat="45.18871" lon="-1.05429">
        <ele>70.889974</ele>
        <time>2022-12-23T11:42:38.752Z</time>
      </trkpt>
      <trkpt lat="45.1886" lon="-1.05435">
        <ele>70.851263</ele>
        <time>2022-12-23T11:42:41.755Z</time>
      </trkpt>
      <trkpt lat="45.18848" lon="-1.0544">
        <ele>70.813431</ele>
        <time>2022-12-23T11:42:44.738Z</time>
      </trkpt>
      <trkpt lat="45.18839" lon="-1.05446">
        <ele>70.780296</ele>
        <time>2022-12-23T11:42:47.753Z</time>
      </trkpt>
      <trkpt lat="45.18829" lon="-1.0545">
        <ele>70.749763</ele>
        <time>2022-12-23T11:42:50.727Z</time>
      </trkpt>
      <trkpt lat="45.1882" lon="-1.05454">
        <ele>70.71819</ele>
        <time>2022-12-23T11:42:53.749Z</time>
      </trkpt>
      <trkpt lat="45.18809" lon="-1.0546">
        <ele>70.681045</ele>
        <time>2022-12-23T11:42:57.755Z</time>
      </trkpt>
      <trkpt lat="45.18799" lon="-1.05464">
        <ele>70.649541</ele>
        <time>2022-12-23T11:43:00.737Z</time>
      </trkpt>
      <trkpt lat="45.18788" lon="-1.05469">
        <ele>70.612839</ele>
        <time>2022-12-23T11:43:04.753Z</time>
      </trkpt>
      <trkpt lat="45.18777" lon="-1.05474">
        <ele>70.574726</ele>
        <time>2022-12-23T11:43:08.754Z</time>
      </trkpt>
      <trkpt lat="45.18768" lon="-1.05478">
        <ele>70.544515</ele>
        <time>2022-12-23T11:43:11.753Z</time>
      </trkpt>
      <trkpt lat="45.18758" lon="-1.05481">
        <ele>70.513391</ele>
        <time>2022-12-23T11:43:14.732Z</time>
      </trkpt>
      <trkpt lat="45.18749" lon="-1.05487">
        <ele>70.481021</ele>
        <time>2022-12-23T11:43:17.749Z</time>
      </trkpt>
      <trkpt lat="45.18739" lon="-1.05494">
        <ele>70.448077</ele>
        <time>2022-12-23T11:43:20.750Z</time>
      </trkpt>
      <trkpt lat="45.18729" lon="-1.05489">
        <ele>70.415165</ele>
        <time>2022-12-23T11:43:24.747Z</time>
      </trkpt>
      <trkpt lat="45.18728" lon="-1.05474">
        <ele>70.380629</ele>
        <time>2022-12-23T11:43:28.736Z</time>
      </trkpt>
      <trkpt lat="45.18727" lon="-1.05459">
        <ele>70.348923</ele>
        <time>2022-12-23T11:43:31.749Z</time>
      </trkpt>
      <trkpt lat="45.18719" lon="-1.05451">
        <ele>70.196386</ele>
        <time>2022-12-23T11:43:34.739Z</time>
      </trkpt>
      <trkpt lat="45.1871" lon="-1.05453">
        <ele>69.948509</ele>
        <time>2022-12-23T11:43:37.730Z</time>
      </trkpt>
      <trkpt lat="45.18702" lon="-1.05444">
        <ele>69.664739</ele>
        <time>2022-12-23T11:43:41.725Z</time>
      </trkpt>
      <trkpt lat="45.18698" lon="-1.0543">
        <ele>69.372979</ele>
        <time>2022-12-23T11:43:45.739Z</time>
      </trkpt>
      <trkpt lat="45.18696" lon="-1.05416">
        <ele>69.104163</ele>
        <time>2022-12-23T11:43:50.751Z</time>
      </trkpt>
      <trkpt lat="45.18698" lon="-1.05407">
        <ele>68.920681</ele>
        <time>2022-12-23T11:44:05.494Z</time>
      </trkpt>
      <trkpt lat="45.18705" lon="-1.05415">
        <ele>68.666827</ele>
        <time>2022-12-23T12:19:49.735Z</time>
      </trkpt>
      <trkpt lat="45.18701" lon="-1.0543">
        <ele>68.343457</ele>
        <time>2022-12-23T12:20:36.739Z</time>
      </trkpt>
      <trkpt lat="45.18704" lon="-1.05445">
        <ele>68.059895</ele>
        <time>2022-12-23T12:20:41.752Z</time>
      </trkpt>
      <trkpt lat="45.18715" lon="-1.05446">
        <ele>67.762919</ele>
        <time>2022-12-23T12:20:45.731Z</time>
      </trkpt>
      <trkpt lat="45.18726" lon="-1.05448">
        <ele>67.462846</ele>
        <time>2022-12-23T12:20:49.738Z</time>
      </trkpt>
      <trkpt lat="45.18732" lon="-1.05459">
        <ele>67.19872</ele>
        <time>2022-12-23T12:20:53.736Z</time>
      </trkpt>
      <trkpt lat="45.18737" lon="-1.05472">
        <ele>66.908037</ele>
        <time>2022-12-23T12:20:58.754Z</time>
      </trkpt>
      <trkpt lat="45.18741" lon="-1.05486">
        <ele>66.626132</ele>
        <time>2022-12-23T12:21:03.741Z</time>
      </trkpt>
      <trkpt lat="45.18733" lon="-1.05494">
        <ele>66.375455</ele>
        <time>2022-12-23T12:21:07.742Z</time>
      </trkpt>
      <trkpt lat="45.18722" lon="-1.05498">
        <ele>66.057204</ele>
        <time>2022-12-23T12:21:11.742Z</time>
      </trkpt>
      <trkpt lat="45.1871" lon="-1.05503">
        <ele>65.730326</ele>
        <time>2022-12-23T12:21:15.755Z</time>
      </trkpt>
      <trkpt lat="45.18702" lon="-1.05507">
        <ele>65.478666</ele>
        <time>2022-12-23T12:21:18.730Z</time>
      </trkpt>
      <trkpt lat="45.18693" lon="-1.05512">
        <ele>65.421964</ele>
        <time>2022-12-23T12:21:21.742Z</time>
      </trkpt>
      <trkpt lat="45.18684" lon="-1.05516">
        <ele>65.394246</ele>
        <time>2022-12-23T12:21:24.733Z</time>
      </trkpt>
      <trkpt lat="45.18675" lon="-1.0552">
        <ele>65.364945</ele>
        <time>2022-12-23T12:21:27.743Z</time>
      </trkpt>
      <trkpt lat="45.18665" lon="-1.05525">
        <ele>65.332798</ele>
        <time>2022-12-23T12:21:30.744Z</time>
      </trkpt>
      <trkpt lat="45.18656" lon="-1.0553">
        <ele>65.302364</ele>
        <time>2022-12-23T12:21:33.734Z</time>
      </trkpt>
      <trkpt lat="45.18645" lon="-1.05535">
        <ele>65.268788</ele>
        <time>2022-12-23T12:21:37.747Z</time>
      </trkpt>
      <trkpt lat="45.18635" lon="-1.05541">
        <ele>65.235356</ele>
        <time>2022-12-23T12:21:41.746Z</time>
      </trkpt>
      <trkpt lat="45.18626" lon="-1.05544">
        <ele>65.207528</ele>
        <time>2022-12-23T12:21:44.740Z</time>
      </trkpt>
      <trkpt lat="45.18618" lon="-1.05549">
        <ele>65.179663</ele>
        <time>2022-12-23T12:21:47.752Z</time>
      </trkpt>
      <trkpt lat="45.18607" lon="-1.05553">
        <ele>65.146469</ele>
        <time>2022-12-23T12:21:51.753Z</time>
      </trkpt>
      <trkpt lat="45.18598" lon="-1.05558">
        <ele>65.117456</ele>
        <time>2022-12-23T12:21:55.739Z</time>
      </trkpt>
      <trkpt lat="45.18589" lon="-1.05563">
        <ele>65.088402</ele>
        <time>2022-12-23T12:22:00.732Z</time>
      </trkpt>
      <trkpt lat="45.18587" lon="-1.05576">
        <ele>65.059694</ele>
        <time>2022-12-23T12:22:04.738Z</time>
      </trkpt>
      <trkpt lat="45.18588" lon="-1.0559">
        <ele>65.031233</ele>
        <time>2022-12-23T12:22:07.744Z</time>
      </trkpt>
      <trkpt lat="45.18588" lon="-1.05603">
        <ele>65.00207</ele>
        <time>2022-12-23T12:22:10.744Z</time>
      </trkpt>
      <trkpt lat="45.18589" lon="-1.05617">
        <ele>64.972969</ele>
        <time>2022-12-23T12:22:13.734Z</time>
      </trkpt>
      <trkpt lat="45.1859" lon="-1.0563">
        <ele>64.944916</ele>
        <time>2022-12-23T12:22:16.756Z</time>
      </trkpt>
      <trkpt lat="45.1859" lon="-1.05644">
        <ele>64.914345</ele>
        <time>2022-12-23T12:22:19.746Z</time>
      </trkpt>
      <trkpt lat="45.1859" lon="-1.05658">
        <ele>64.842509</ele>
        <time>2022-12-23T12:22:22.753Z</time>
      </trkpt>
      <trkpt lat="45.18591" lon="-1.05673">
        <ele>64.722803</ele>
        <time>2022-12-23T12:22:26.732Z</time>
      </trkpt>
      <trkpt lat="45.18591" lon="-1.05687">
        <ele>64.613226</ele>
        <time>2022-12-23T12:22:30.729Z</time>
      </trkpt>
      <trkpt lat="45.18588" lon="-1.05702">
        <ele>64.493601</ele>
        <time>2022-12-23T12:22:34.727Z</time>
      </trkpt>
      <trkpt lat="45.18579" lon="-1.05713">
        <ele>64.366876</ele>
        <time>2022-12-23T12:22:38.737Z</time>
      </trkpt>
      <trkpt lat="45.1857" lon="-1.05718">
        <ele>64.261089</ele>
        <time>2022-12-23T12:22:42.729Z</time>
      </trkpt>
      <trkpt lat="45.18561" lon="-1.05722">
        <ele>64.155484</ele>
        <time>2022-12-23T12:22:46.741Z</time>
      </trkpt>
      <trkpt lat="45.1855" lon="-1.05724">
        <ele>64.035706</ele>
        <time>2022-12-23T12:22:50.737Z</time>
      </trkpt>
      <trkpt lat="45.18541" lon="-1.05723">
        <ele>63.928324</ele>
        <time>2022-12-23T12:22:54.747Z</time>
      </trkpt>
      <trkpt lat="45.18529" lon="-1.0572">
        <ele>63.800246</ele>
        <time>2022-12-23T12:22:58.741Z</time>
      </trkpt>
      <trkpt lat="45.1852" lon="-1.05718">
        <ele>63.696691</ele>
        <time>2022-12-23T12:23:01.731Z</time>
      </trkpt>
      <trkpt lat="45.18511" lon="-1.05715">
        <ele>63.590845</ele>
        <time>2022-12-23T12:23:04.747Z</time>
      </trkpt>
      <trkpt lat="45.18501" lon="-1.05711">
        <ele>63.479836</ele>
        <time>2022-12-23T12:23:07.742Z</time>
      </trkpt>
      <trkpt lat="45.18491" lon="-1.05708">
        <ele>63.367023</ele>
        <time>2022-12-23T12:23:10.753Z</time>
      </trkpt>
      <trkpt lat="45.18481" lon="-1.05706">
        <ele>63.258368</ele>
        <time>2022-12-23T12:23:13.756Z</time>
      </trkpt>
      <trkpt lat="45.18471" lon="-1.05702">
        <ele>63.1466</ele>
        <time>2022-12-23T12:23:16.732Z</time>
      </trkpt>
      <trkpt lat="45.18461" lon="-1.057">
        <ele>63.031802</ele>
        <time>2022-12-23T12:23:19.751Z</time>
      </trkpt>
      <trkpt lat="45.18451" lon="-1.05696">
        <ele>62.919936</ele>
        <time>2022-12-23T12:23:22.744Z</time>
      </trkpt>
      <trkpt lat="45.1844" lon="-1.05692">
        <ele>62.941471</ele>
        <time>2022-12-23T12:23:25.743Z</time>
      </trkpt>
      <trkpt lat="45.1843" lon="-1.0569">
        <ele>62.96244</ele>
        <time>2022-12-23T12:23:28.752Z</time>
      </trkpt>
      <trkpt lat="45.18419" lon="-1.05688">
        <ele>62.984182</ele>
        <time>2022-12-23T12:23:31.752Z</time>
      </trkpt>
      <trkpt lat="45.18408" lon="-1.05685">
        <ele>63.006395</ele>
        <time>2022-12-23T12:23:34.741Z</time>
      </trkpt>
      <trkpt lat="45.18397" lon="-1.05682">
        <ele>63.029965</ele>
        <time>2022-12-23T12:23:37.733Z</time>
      </trkpt>
      <trkpt lat="45.18386" lon="-1.05678">
        <ele>63.052595</ele>
        <time>2022-12-23T12:23:40.744Z</time>
      </trkpt>
      <trkpt lat="45.18376" lon="-1.05675">
        <ele>63.074609</ele>
        <time>2022-12-23T12:23:43.754Z</time>
      </trkpt>
      <trkpt lat="45.18365" lon="-1.05672">
        <ele>63.095433</ele>
        <time>2022-12-23T12:23:46.752Z</time>
      </trkpt>
      <trkpt lat="45.18356" lon="-1.05668">
        <ele>63.11608</ele>
        <time>2022-12-23T12:23:49.750Z</time>
      </trkpt>
      <trkpt lat="45.18346" lon="-1.05664">
        <ele>63.136964</ele>
        <time>2022-12-23T12:23:52.746Z</time>
      </trkpt>
      <trkpt lat="45.18336" lon="-1.05662">
        <ele>63.15746</ele>
        <time>2022-12-23T12:23:55.751Z</time>
      </trkpt>
      <trkpt lat="45.18325" lon="-1.05658">
        <ele>63.178799</ele>
        <time>2022-12-23T12:23:58.747Z</time>
      </trkpt>
      <trkpt lat="45.18315" lon="-1.05655">
        <ele>63.201066</ele>
        <time>2022-12-23T12:24:01.745Z</time>
      </trkpt>
      <trkpt lat="45.18304" lon="-1.05653">
        <ele>63.222183</ele>
        <time>2022-12-23T12:24:04.748Z</time>
      </trkpt>
      <trkpt lat="45.18295" lon="-1.0565">
        <ele>63.240517</ele>
        <time>2022-12-23T12:24:07.732Z</time>
      </trkpt>
      <trkpt lat="45.18286" lon="-1.05647">
        <ele>63.25989</ele>
        <time>2022-12-23T12:24:10.754Z</time>
      </trkpt>
      <trkpt lat="45.18276" lon="-1.05643">
        <ele>63.280738</ele>
        <time>2022-12-23T12:24:13.752Z</time>
      </trkpt>
      <trkpt lat="45.18266" lon="-1.05641">
        <ele>63.237851</ele>
        <time>2022-12-23T12:24:16.753Z</time>
      </trkpt>
      <trkpt lat="45.18257" lon="-1.05639">
        <ele>63.193084</ele>
        <time>2022-12-23T12:24:19.756Z</time>
      </trkpt>
      <trkpt lat="45.18248" lon="-1.05636">
        <ele>63.14587</ele>
        <time>2022-12-23T12:24:22.748Z</time>
      </trkpt>
      <trkpt lat="45.18238" lon="-1.05632">
        <ele>63.094921</ele>
        <time>2022-12-23T12:24:25.754Z</time>
      </trkpt>
      <trkpt lat="45.18227" lon="-1.05629">
        <ele>63.04173</ele>
        <time>2022-12-23T12:24:28.753Z</time>
      </trkpt>
      <trkpt lat="45.18216" lon="-1.05626">
        <ele>62.987098</ele>
        <time>2022-12-23T12:24:31.754Z</time>
      </trkpt>
      <trkpt lat="45.18205" lon="-1.05623">
        <ele>62.930674</ele>
        <time>2022-12-23T12:24:34.759Z</time>
      </trkpt>
      <trkpt lat="45.18194" lon="-1.05619">
        <ele>62.87272</ele>
        <time>2022-12-23T12:24:37.734Z</time>
      </trkpt>
      <trkpt lat="45.18182" lon="-1.05615">
        <ele>62.816278</ele>
        <time>2022-12-23T12:24:40.732Z</time>
      </trkpt>
      <trkpt lat="45.18171" lon="-1.05612">
        <ele>62.75786</ele>
        <time>2022-12-23T12:24:43.742Z</time>
      </trkpt>
      <trkpt lat="45.18159" lon="-1.05609">
        <ele>62.69883</ele>
        <time>2022-12-23T12:24:46.755Z</time>
      </trkpt>
      <trkpt lat="45.18147" lon="-1.05606">
        <ele>62.638769</ele>
        <time>2022-12-23T12:24:49.754Z</time>
      </trkpt>
      <trkpt lat="45.18135" lon="-1.05602">
        <ele>62.581521</ele>
        <time>2022-12-23T12:24:52.753Z</time>
      </trkpt>
      <trkpt lat="45.18124" lon="-1.05599">
        <ele>62.524753</ele>
        <time>2022-12-23T12:24:55.746Z</time>
      </trkpt>
      <trkpt lat="45.18113" lon="-1.05595">
        <ele>62.468067</ele>
        <time>2022-12-23T12:24:58.748Z</time>
      </trkpt>
      <trkpt lat="45.18102" lon="-1.05591">
        <ele>62.412884</ele>
        <time>2022-12-23T12:25:01.756Z</time>
      </trkpt>
      <trkpt lat="45.18091" lon="-1.05588">
        <ele>62.407384</ele>
        <time>2022-12-23T12:25:04.754Z</time>
      </trkpt>
      <trkpt lat="45.1808" lon="-1.05584">
        <ele>62.41773</ele>
        <time>2022-12-23T12:25:07.755Z</time>
      </trkpt>
      <trkpt lat="45.18069" lon="-1.05581">
        <ele>62.427748</ele>
        <time>2022-12-23T12:25:10.753Z</time>
      </trkpt>
      <trkpt lat="45.18058" lon="-1.05579">
        <ele>62.437852</ele>
        <time>2022-12-23T12:25:13.754Z</time>
      </trkpt>
      <trkpt lat="45.18048" lon="-1.05575">
        <ele>62.448123</ele>
        <time>2022-12-23T12:25:16.750Z</time>
      </trkpt>
      <trkpt lat="45.18036" lon="-1.05572">
        <ele>62.458635</ele>
        <time>2022-12-23T12:25:19.754Z</time>
      </trkpt>
      <trkpt lat="45.18025" lon="-1.05569">
        <ele>62.469242</ele>
        <time>2022-12-23T12:25:22.735Z</time>
      </trkpt>
      <trkpt lat="45.18015" lon="-1.05566">
        <ele>62.478923</ele>
        <time>2022-12-23T12:25:25.746Z</time>
      </trkpt>
      <trkpt lat="45.18005" lon="-1.05563">
        <ele>62.487988</ele>
        <time>2022-12-23T12:25:28.738Z</time>
      </trkpt>
      <trkpt lat="45.17995" lon="-1.0556">
        <ele>62.497458</ele>
        <time>2022-12-23T12:25:31.756Z</time>
      </trkpt>
      <trkpt lat="45.17984" lon="-1.05558">
        <ele>62.507773</ele>
        <time>2022-12-23T12:25:34.755Z</time>
      </trkpt>
      <trkpt lat="45.17973" lon="-1.05555">
        <ele>62.517906</ele>
        <time>2022-12-23T12:25:37.754Z</time>
      </trkpt>
      <trkpt lat="45.17962" lon="-1.05553">
        <ele>62.528335</ele>
        <time>2022-12-23T12:25:40.743Z</time>
      </trkpt>
      <trkpt lat="45.17952" lon="-1.0555">
        <ele>62.537356</ele>
        <time>2022-12-23T12:25:43.754Z</time>
      </trkpt>
      <trkpt lat="45.17942" lon="-1.05547">
        <ele>62.546615</ele>
        <time>2022-12-23T12:25:46.741Z</time>
      </trkpt>
      <trkpt lat="45.17931" lon="-1.05543">
        <ele>62.556782</ele>
        <time>2022-12-23T12:25:49.753Z</time>
      </trkpt>
      <trkpt lat="45.1792" lon="-1.0554">
        <ele>62.545214</ele>
        <time>2022-12-23T12:25:52.740Z</time>
      </trkpt>
      <trkpt lat="45.1791" lon="-1.05537">
        <ele>62.474449</ele>
        <time>2022-12-23T12:25:55.744Z</time>
      </trkpt>
      <trkpt lat="45.17901" lon="-1.05533">
        <ele>62.41111</ele>
        <time>2022-12-23T12:25:58.744Z</time>
      </trkpt>
      <trkpt lat="45.17891" lon="-1.05531">
        <ele>62.344243</ele>
        <time>2022-12-23T12:26:01.748Z</time>
      </trkpt>
      <trkpt lat="45.1788" lon="-1.05528">
        <ele>62.273763</ele>
        <time>2022-12-23T12:26:04.741Z</time>
      </trkpt>
      <trkpt lat="45.1787" lon="-1.05525">
        <ele>62.200949</ele>
        <time>2022-12-23T12:26:07.756Z</time>
      </trkpt>
      <trkpt lat="45.17859" lon="-1.05521">
        <ele>62.125985</ele>
        <time>2022-12-23T12:26:10.747Z</time>
      </trkpt>
      <trkpt lat="45.17848" lon="-1.05518">
        <ele>62.05122</ele>
        <time>2022-12-23T12:26:13.752Z</time>
      </trkpt>
      <trkpt lat="45.17836" lon="-1.05514">
        <ele>61.972484</ele>
        <time>2022-12-23T12:26:16.752Z</time>
      </trkpt>
      <trkpt lat="45.17824" lon="-1.0551">
        <ele>61.890295</ele>
        <time>2022-12-23T12:26:19.753Z</time>
      </trkpt>
      <trkpt lat="45.17812" lon="-1.05506">
        <ele>61.809384</ele>
        <time>2022-12-23T12:26:22.752Z</time>
      </trkpt>
      <trkpt lat="45.178" lon="-1.05503">
        <ele>61.728663</ele>
        <time>2022-12-23T12:26:25.752Z</time>
      </trkpt>
      <trkpt lat="45.17788" lon="-1.05499">
        <ele>61.647382</ele>
        <time>2022-12-23T12:26:28.752Z</time>
      </trkpt>
      <trkpt lat="45.17777" lon="-1.05495">
        <ele>61.569936</ele>
        <time>2022-12-23T12:26:31.751Z</time>
      </trkpt>
      <trkpt lat="45.17767" lon="-1.05493">
        <ele>61.504112</ele>
        <time>2022-12-23T12:26:34.749Z</time>
      </trkpt>
      <trkpt lat="45.17757" lon="-1.0549">
        <ele>61.435935</ele>
        <time>2022-12-23T12:26:37.729Z</time>
      </trkpt>
      <trkpt lat="45.17746" lon="-1.05487">
        <ele>61.371808</ele>
        <time>2022-12-23T12:26:40.744Z</time>
      </trkpt>
      <trkpt lat="45.17735" lon="-1.05484">
        <ele>61.407282</ele>
        <time>2022-12-23T12:26:43.755Z</time>
      </trkpt>
      <trkpt lat="45.17724" lon="-1.05481">
        <ele>61.443273</ele>
        <time>2022-12-23T12:26:46.733Z</time>
      </trkpt>
      <trkpt lat="45.17712" lon="-1.05477">
        <ele>61.47905</ele>
        <time>2022-12-23T12:26:49.741Z</time>
      </trkpt>
      <trkpt lat="45.17702" lon="-1.05474">
        <ele>61.511802</ele>
        <time>2022-12-23T12:26:52.752Z</time>
      </trkpt>
      <trkpt lat="45.17692" lon="-1.0547">
        <ele>61.542372</ele>
        <time>2022-12-23T12:26:56.744Z</time>
      </trkpt>
      <trkpt lat="45.17683" lon="-1.05466">
        <ele>61.571632</ele>
        <time>2022-12-23T12:27:01.744Z</time>
      </trkpt>
      <trkpt lat="45.17672" lon="-1.05465">
        <ele>61.606145</ele>
        <time>2022-12-23T12:27:05.737Z</time>
      </trkpt>
      <trkpt lat="45.17662" lon="-1.05462">
        <ele>61.637023</ele>
        <time>2022-12-23T12:27:08.735Z</time>
      </trkpt>
      <trkpt lat="45.17653" lon="-1.0546">
        <ele>61.667985</ele>
        <time>2022-12-23T12:27:11.764Z</time>
      </trkpt>
      <trkpt lat="45.17643" lon="-1.05456">
        <ele>61.699482</ele>
        <time>2022-12-23T12:27:14.729Z</time>
      </trkpt>
      <trkpt lat="45.17633" lon="-1.05454">
        <ele>61.731313</ele>
        <time>2022-12-23T12:27:17.751Z</time>
      </trkpt>
      <trkpt lat="45.17624" lon="-1.0545">
        <ele>61.760274</ele>
        <time>2022-12-23T12:27:20.753Z</time>
      </trkpt>
      <trkpt lat="45.17615" lon="-1.05447">
        <ele>61.78871</ele>
        <time>2022-12-23T12:27:23.750Z</time>
      </trkpt>
      <trkpt lat="45.17605" lon="-1.05444">
        <ele>61.819808</ele>
        <time>2022-12-23T12:27:26.756Z</time>
      </trkpt>
      <trkpt lat="45.17596" lon="-1.05439">
        <ele>61.850093</ele>
        <time>2022-12-23T12:27:29.760Z</time>
      </trkpt>
      <trkpt lat="45.17586" lon="-1.05435">
        <ele>61.881928</ele>
        <time>2022-12-23T12:27:32.749Z</time>
      </trkpt>
      <trkpt lat="45.17576" lon="-1.05433">
        <ele>61.912625</ele>
        <time>2022-12-23T12:27:35.755Z</time>
      </trkpt>
      <trkpt lat="45.17565" lon="-1.05432">
        <ele>61.897749</ele>
        <time>2022-12-23T12:27:38.740Z</time>
      </trkpt>
      <trkpt lat="45.17554" lon="-1.05428">
        <ele>61.84952</ele>
        <time>2022-12-23T12:27:41.751Z</time>
      </trkpt>
      <trkpt lat="45.17543" lon="-1.05425">
        <ele>61.801351</ele>
        <time>2022-12-23T12:27:44.764Z</time>
      </trkpt>
      <trkpt lat="45.17532" lon="-1.05422">
        <ele>61.754539</ele>
        <time>2022-12-23T12:27:47.754Z</time>
      </trkpt>
      <trkpt lat="45.17522" lon="-1.05419">
        <ele>61.710495</ele>
        <time>2022-12-23T12:27:50.752Z</time>
      </trkpt>
      <trkpt lat="45.17511" lon="-1.05416">
        <ele>61.665277</ele>
        <time>2022-12-23T12:27:53.746Z</time>
      </trkpt>
      <trkpt lat="45.17501" lon="-1.05413">
        <ele>61.62041</ele>
        <time>2022-12-23T12:27:56.731Z</time>
      </trkpt>
      <trkpt lat="45.1749" lon="-1.05409">
        <ele>61.573757</ele>
        <time>2022-12-23T12:27:59.740Z</time>
      </trkpt>
      <trkpt lat="45.1748" lon="-1.05405">
        <ele>61.527104</ele>
        <time>2022-12-23T12:28:02.751Z</time>
      </trkpt>
      <trkpt lat="45.17469" lon="-1.05401">
        <ele>61.479701</ele>
        <time>2022-12-23T12:28:05.753Z</time>
      </trkpt>
      <trkpt lat="45.17458" lon="-1.05398">
        <ele>61.434422</ele>
        <time>2022-12-23T12:28:08.748Z</time>
      </trkpt>
      <trkpt lat="45.17447" lon="-1.05395">
        <ele>61.388133</ele>
        <time>2022-12-23T12:28:11.756Z</time>
      </trkpt>
      <trkpt lat="45.17436" lon="-1.05393">
        <ele>61.340185</ele>
        <time>2022-12-23T12:28:14.750Z</time>
      </trkpt>
      <trkpt lat="45.17425" lon="-1.05389">
        <ele>61.291895</ele>
        <time>2022-12-23T12:28:17.748Z</time>
      </trkpt>
      <trkpt lat="45.17413" lon="-1.05386">
        <ele>61.242182</ele>
        <time>2022-12-23T12:28:20.754Z</time>
      </trkpt>
      <trkpt lat="45.17401" lon="-1.05383">
        <ele>61.190756</ele>
        <time>2022-12-23T12:28:23.764Z</time>
      </trkpt>
      <trkpt lat="45.1739" lon="-1.0538">
        <ele>61.183017</ele>
        <time>2022-12-23T12:28:26.756Z</time>
      </trkpt>
      <trkpt lat="45.17378" lon="-1.05376">
        <ele>61.213121</ele>
        <time>2022-12-23T12:28:29.753Z</time>
      </trkpt>
      <trkpt lat="45.17368" lon="-1.05373">
        <ele>61.240169</ele>
        <time>2022-12-23T12:28:32.753Z</time>
      </trkpt>
      <trkpt lat="45.17357" lon="-1.0537">
        <ele>61.268187</ele>
        <time>2022-12-23T12:28:35.744Z</time>
      </trkpt>
      <trkpt lat="45.17346" lon="-1.05367">
        <ele>61.297572</ele>
        <time>2022-12-23T12:28:38.755Z</time>
      </trkpt>
      <trkpt lat="45.17335" lon="-1.05363">
        <ele>61.327739</ele>
        <time>2022-12-23T12:28:41.754Z</time>
      </trkpt>
      <trkpt lat="45.17323" lon="-1.05359">
        <ele>61.358707</ele>
        <time>2022-12-23T12:28:44.753Z</time>
      </trkpt>
      <trkpt lat="45.17311" lon="-1.05356">
        <ele>61.389751</ele>
        <time>2022-12-23T12:28:47.749Z</time>
      </trkpt>
      <trkpt lat="45.17299" lon="-1.05352">
        <ele>61.421474</ele>
        <time>2022-12-23T12:28:50.743Z</time>
      </trkpt>
      <trkpt lat="45.17287" lon="-1.05348">
        <ele>61.45356</ele>
        <time>2022-12-23T12:28:53.754Z</time>
      </trkpt>
      <trkpt lat="45.17274" lon="-1.05345">
        <ele>61.487656</ele>
        <time>2022-12-23T12:28:56.751Z</time>
      </trkpt>
      <trkpt lat="45.17261" lon="-1.05341">
        <ele>61.521682</ele>
        <time>2022-12-23T12:28:59.754Z</time>
      </trkpt>
      <trkpt lat="45.17248" lon="-1.05337">
        <ele>61.554772</ele>
        <time>2022-12-23T12:29:02.754Z</time>
      </trkpt>
      <trkpt lat="45.17236" lon="-1.05333">
        <ele>61.58711</ele>
        <time>2022-12-23T12:29:05.756Z</time>
      </trkpt>
      <trkpt lat="45.17223" lon="-1.05329">
        <ele>61.621278</ele>
        <time>2022-12-23T12:29:08.754Z</time>
      </trkpt>
      <trkpt lat="45.17211" lon="-1.05325">
        <ele>61.692422</ele>
        <time>2022-12-23T12:29:11.747Z</time>
      </trkpt>
      <trkpt lat="45.172" lon="-1.05322">
        <ele>61.77115</ele>
        <time>2022-12-23T12:29:14.730Z</time>
      </trkpt>
      <trkpt lat="45.17189" lon="-1.05318">
        <ele>61.851363</ele>
        <time>2022-12-23T12:29:17.752Z</time>
      </trkpt>
      <trkpt lat="45.17179" lon="-1.05314">
        <ele>61.929844</ele>
        <time>2022-12-23T12:29:20.746Z</time>
      </trkpt>
      <trkpt lat="45.17166" lon="-1.05311">
        <ele>62.018659</ele>
        <time>2022-12-23T12:29:23.756Z</time>
      </trkpt>
      <trkpt lat="45.17154" lon="-1.05307">
        <ele>62.103615</ele>
        <time>2022-12-23T12:29:26.759Z</time>
      </trkpt>
      <trkpt lat="45.17142" lon="-1.05304">
        <ele>62.190468</ele>
        <time>2022-12-23T12:29:29.754Z</time>
      </trkpt>
      <trkpt lat="45.17131" lon="-1.05301">
        <ele>62.274829</ele>
        <time>2022-12-23T12:29:32.756Z</time>
      </trkpt>
      <trkpt lat="45.17119" lon="-1.05298">
        <ele>62.360384</ele>
        <time>2022-12-23T12:29:35.743Z</time>
      </trkpt>
      <trkpt lat="45.17106" lon="-1.05294">
        <ele>62.449323</ele>
        <time>2022-12-23T12:29:38.755Z</time>
      </trkpt>
      <trkpt lat="45.17094" lon="-1.0529">
        <ele>62.54075</ele>
        <time>2022-12-23T12:29:41.748Z</time>
      </trkpt>
      <trkpt lat="45.17082" lon="-1.05286">
        <ele>62.628399</ele>
        <time>2022-12-23T12:29:44.733Z</time>
      </trkpt>
      <trkpt lat="45.17071" lon="-1.05284">
        <ele>62.704561</ele>
        <time>2022-12-23T12:29:47.753Z</time>
      </trkpt>
      <trkpt lat="45.1706" lon="-1.0528">
        <ele>62.784571</ele>
        <time>2022-12-23T12:29:50.757Z</time>
      </trkpt>
      <trkpt lat="45.17048" lon="-1.05277">
        <ele>62.867758</ele>
        <time>2022-12-23T12:29:53.756Z</time>
      </trkpt>
      <trkpt lat="45.17036" lon="-1.05273">
        <ele>62.86331</ele>
        <time>2022-12-23T12:29:56.751Z</time>
      </trkpt>
      <trkpt lat="45.17024" lon="-1.05269">
        <ele>62.805215</ele>
        <time>2022-12-23T12:29:59.752Z</time>
      </trkpt>
      <trkpt lat="45.17012" lon="-1.05265">
        <ele>62.747649</ele>
        <time>2022-12-23T12:30:02.750Z</time>
      </trkpt>
      <trkpt lat="45.17001" lon="-1.05262">
        <ele>62.691324</ele>
        <time>2022-12-23T12:30:05.751Z</time>
      </trkpt>
      <trkpt lat="45.16988" lon="-1.05258">
        <ele>62.631254</ele>
        <time>2022-12-23T12:30:08.758Z</time>
      </trkpt>
      <trkpt lat="45.16976" lon="-1.05255">
        <ele>62.57139</ele>
        <time>2022-12-23T12:30:11.757Z</time>
      </trkpt>
      <trkpt lat="45.16963" lon="-1.05251">
        <ele>62.511458</ele>
        <time>2022-12-23T12:30:14.755Z</time>
      </trkpt>
      <trkpt lat="45.1695" lon="-1.05247">
        <ele>62.45093</ele>
        <time>2022-12-23T12:30:17.764Z</time>
      </trkpt>
      <trkpt lat="45.16937" lon="-1.05244">
        <ele>62.388763</ele>
        <time>2022-12-23T12:30:20.749Z</time>
      </trkpt>
      <trkpt lat="45.16929" lon="-1.05241">
        <ele>62.346181</ele>
        <time>2022-12-23T12:30:22.754Z</time>
      </trkpt>
      <trkpt lat="45.16916" lon="-1.05237">
        <ele>62.28579</ele>
        <time>2022-12-23T12:30:25.742Z</time>
      </trkpt>
      <trkpt lat="45.16905" lon="-1.05234">
        <ele>62.231504</ele>
        <time>2022-12-23T12:30:28.737Z</time>
      </trkpt>
      <trkpt lat="45.16893" lon="-1.05231">
        <ele>62.173853</ele>
        <time>2022-12-23T12:30:31.756Z</time>
      </trkpt>
      <trkpt lat="45.1688" lon="-1.05227">
        <ele>62.114312</ele>
        <time>2022-12-23T12:30:34.759Z</time>
      </trkpt>
      <trkpt lat="45.16867" lon="-1.05224">
        <ele>62.051981</ele>
        <time>2022-12-23T12:30:37.746Z</time>
      </trkpt>
      <trkpt lat="45.16854" lon="-1.0522">
        <ele>61.984671</ele>
        <time>2022-12-23T12:30:40.751Z</time>
      </trkpt>
      <trkpt lat="45.16842" lon="-1.05216">
        <ele>61.920726</ele>
        <time>2022-12-23T12:30:43.751Z</time>
      </trkpt>
      <trkpt lat="45.1683" lon="-1.05212">
        <ele>61.85672</ele>
        <time>2022-12-23T12:30:46.748Z</time>
      </trkpt>
      <trkpt lat="45.16817" lon="-1.05208">
        <ele>61.791982</ele>
        <time>2022-12-23T12:30:49.754Z</time>
      </trkpt>
      <trkpt lat="45.16805" lon="-1.05205">
        <ele>61.727465</ele>
        <time>2022-12-23T12:30:52.755Z</time>
      </trkpt>
      <trkpt lat="45.16792" lon="-1.05201">
        <ele>61.663161</ele>
        <time>2022-12-23T12:30:55.753Z</time>
      </trkpt>
      <trkpt lat="45.1678" lon="-1.05198">
        <ele>61.598644</ele>
        <time>2022-12-23T12:30:58.753Z</time>
      </trkpt>
      <trkpt lat="45.16768" lon="-1.05194">
        <ele>61.53484</ele>
        <time>2022-12-23T12:31:01.747Z</time>
      </trkpt>
      <trkpt lat="45.16756" lon="-1.0519">
        <ele>61.47174</ele>
        <time>2022-12-23T12:31:04.746Z</time>
      </trkpt>
      <trkpt lat="45.16743" lon="-1.05187">
        <ele>61.407071</ele>
        <time>2022-12-23T12:31:07.754Z</time>
      </trkpt>
      <trkpt lat="45.16731" lon="-1.05183">
        <ele>61.342128</ele>
        <time>2022-12-23T12:31:10.755Z</time>
      </trkpt>
      <trkpt lat="45.16719" lon="-1.05179">
        <ele>61.282584</ele>
        <time>2022-12-23T12:31:13.747Z</time>
      </trkpt>
      <trkpt lat="45.16708" lon="-1.05176">
        <ele>61.221054</ele>
        <time>2022-12-23T12:31:16.747Z</time>
      </trkpt>
      <trkpt lat="45.16696" lon="-1.05172">
        <ele>61.158884</ele>
        <time>2022-12-23T12:31:19.755Z</time>
      </trkpt>
      <trkpt lat="45.16683" lon="-1.05169">
        <ele>61.149384</ele>
        <time>2022-12-23T12:31:22.754Z</time>
      </trkpt>
      <trkpt lat="45.16671" lon="-1.05165">
        <ele>61.162736</ele>
        <time>2022-12-23T12:31:25.735Z</time>
      </trkpt>
      <trkpt lat="45.16659" lon="-1.05162">
        <ele>61.176504</ele>
        <time>2022-12-23T12:31:28.738Z</time>
      </trkpt>
      <trkpt lat="45.16646" lon="-1.05158">
        <ele>61.190227</ele>
        <time>2022-12-23T12:31:31.752Z</time>
      </trkpt>
      <trkpt lat="45.16634" lon="-1.05154">
        <ele>61.203812</ele>
        <time>2022-12-23T12:31:34.758Z</time>
      </trkpt>
      <trkpt lat="45.16622" lon="-1.05151">
        <ele>61.217397</ele>
        <time>2022-12-23T12:31:37.752Z</time>
      </trkpt>
      <trkpt lat="45.1661" lon="-1.05147">
        <ele>61.230626</ele>
        <time>2022-12-23T12:31:40.752Z</time>
      </trkpt>
      <trkpt lat="45.16598" lon="-1.05143">
        <ele>61.24394</ele>
        <time>2022-12-23T12:31:43.753Z</time>
      </trkpt>
      <trkpt lat="45.16585" lon="-1.0514">
        <ele>61.257829</ele>
        <time>2022-12-23T12:31:46.748Z</time>
      </trkpt>
      <trkpt lat="45.16573" lon="-1.05136">
        <ele>61.271641</ele>
        <time>2022-12-23T12:31:49.754Z</time>
      </trkpt>
      <trkpt lat="45.16561" lon="-1.05132">
        <ele>61.284608</ele>
        <time>2022-12-23T12:31:52.756Z</time>
      </trkpt>
      <trkpt lat="45.16549" lon="-1.05129">
        <ele>61.297406</ele>
        <time>2022-12-23T12:31:55.770Z</time>
      </trkpt>
      <trkpt lat="45.16538" lon="-1.05125">
        <ele>61.310478</ele>
        <time>2022-12-23T12:31:58.752Z</time>
      </trkpt>
      <trkpt lat="45.16526" lon="-1.05122">
        <ele>61.323746</ele>
        <time>2022-12-23T12:32:01.751Z</time>
      </trkpt>
      <trkpt lat="45.16513" lon="-1.05118">
        <ele>61.329137</ele>
        <time>2022-12-23T12:32:04.764Z</time>
      </trkpt>
      <trkpt lat="45.16502" lon="-1.05114">
        <ele>61.303072</ele>
        <time>2022-12-23T12:32:07.757Z</time>
      </trkpt>
      <trkpt lat="45.16491" lon="-1.05112">
        <ele>61.280757</ele>
        <time>2022-12-23T12:32:10.758Z</time>
      </trkpt>
      <trkpt lat="45.16481" lon="-1.05109">
        <ele>61.258167</ele>
        <time>2022-12-23T12:32:13.754Z</time>
      </trkpt>
      <trkpt lat="45.16471" lon="-1.05106">
        <ele>61.235277</ele>
        <time>2022-12-23T12:32:16.740Z</time>
      </trkpt>
      <trkpt lat="45.1646" lon="-1.05103">
        <ele>61.212059</ele>
        <time>2022-12-23T12:32:19.733Z</time>
      </trkpt>
      <trkpt lat="45.16449" lon="-1.051">
        <ele>61.188662</ele>
        <time>2022-12-23T12:32:22.739Z</time>
      </trkpt>
      <trkpt lat="45.16438" lon="-1.05096">
        <ele>61.164395</ele>
        <time>2022-12-23T12:32:25.755Z</time>
      </trkpt>
      <trkpt lat="45.16427" lon="-1.05093">
        <ele>61.139678</ele>
        <time>2022-12-23T12:32:28.755Z</time>
      </trkpt>
      <trkpt lat="45.16416" lon="-1.05089">
        <ele>61.114762</ele>
        <time>2022-12-23T12:32:31.755Z</time>
      </trkpt>
      <trkpt lat="45.16404" lon="-1.05086">
        <ele>61.089655</ele>
        <time>2022-12-23T12:32:34.757Z</time>
      </trkpt>
      <trkpt lat="45.16392" lon="-1.05082">
        <ele>61.063796</ele>
        <time>2022-12-23T12:32:37.744Z</time>
      </trkpt>
      <trkpt lat="45.1638" lon="-1.05079">
        <ele>61.037875</ele>
        <time>2022-12-23T12:32:40.754Z</time>
      </trkpt>
      <trkpt lat="45.16368" lon="-1.05076">
        <ele>61.011147</ele>
        <time>2022-12-23T12:32:43.759Z</time>
      </trkpt>
      <trkpt lat="45.16356" lon="-1.05072">
        <ele>60.983727</ele>
        <time>2022-12-23T12:32:46.754Z</time>
      </trkpt>
      <trkpt lat="45.16343" lon="-1.05068">
        <ele>60.956038</ele>
        <time>2022-12-23T12:32:49.753Z</time>
      </trkpt>
      <trkpt lat="45.1633" lon="-1.05064">
        <ele>61.008231</ele>
        <time>2022-12-23T12:32:52.744Z</time>
      </trkpt>
      <trkpt lat="45.16317" lon="-1.0506">
        <ele>61.089638</ele>
        <time>2022-12-23T12:32:55.747Z</time>
      </trkpt>
      <trkpt lat="45.16304" lon="-1.05056">
        <ele>61.170006</ele>
        <time>2022-12-23T12:32:58.755Z</time>
      </trkpt>
      <trkpt lat="45.16291" lon="-1.05053">
        <ele>61.251054</ele>
        <time>2022-12-23T12:33:01.756Z</time>
      </trkpt>
      <trkpt lat="45.16278" lon="-1.05049">
        <ele>61.332368</ele>
        <time>2022-12-23T12:33:04.752Z</time>
      </trkpt>
      <trkpt lat="45.16265" lon="-1.05045">
        <ele>61.411814</ele>
        <time>2022-12-23T12:33:07.758Z</time>
      </trkpt>
      <trkpt lat="45.16252" lon="-1.05041">
        <ele>61.492019</ele>
        <time>2022-12-23T12:33:10.754Z</time>
      </trkpt>
      <trkpt lat="45.1624" lon="-1.05038">
        <ele>61.568571</ele>
        <time>2022-12-23T12:33:13.744Z</time>
      </trkpt>
      <trkpt lat="45.16227" lon="-1.05033">
        <ele>61.645256</ele>
        <time>2022-12-23T12:33:16.755Z</time>
      </trkpt>
      <trkpt lat="45.16215" lon="-1.0503">
        <ele>61.722062</ele>
        <time>2022-12-23T12:33:19.753Z</time>
      </trkpt>
      <trkpt lat="45.16202" lon="-1.05026">
        <ele>61.800564</ele>
        <time>2022-12-23T12:33:22.752Z</time>
      </trkpt>
      <trkpt lat="45.16189" lon="-1.05022">
        <ele>61.881611</ele>
        <time>2022-12-23T12:33:25.757Z</time>
      </trkpt>
      <trkpt lat="45.16176" lon="-1.05018">
        <ele>61.961742</ele>
        <time>2022-12-23T12:33:28.746Z</time>
      </trkpt>
      <trkpt lat="45.16163" lon="-1.05014">
        <ele>62.039462</ele>
        <time>2022-12-23T12:33:31.756Z</time>
      </trkpt>
      <trkpt lat="45.16151" lon="-1.0501">
        <ele>62.044167</ele>
        <time>2022-12-23T12:33:34.754Z</time>
      </trkpt>
      <trkpt lat="45.1614" lon="-1.05006">
        <ele>62.048399</ele>
        <time>2022-12-23T12:33:37.731Z</time>
      </trkpt>
      <trkpt lat="45.16128" lon="-1.05003">
        <ele>62.052822</ele>
        <time>2022-12-23T12:33:40.748Z</time>
      </trkpt>
      <trkpt lat="45.16115" lon="-1.05">
        <ele>62.057636</ele>
        <time>2022-12-23T12:33:43.737Z</time>
      </trkpt>
      <trkpt lat="45.16102" lon="-1.04996">
        <ele>62.062518</ele>
        <time>2022-12-23T12:33:46.756Z</time>
      </trkpt>
      <trkpt lat="45.16089" lon="-1.04992">
        <ele>62.067327</ele>
        <time>2022-12-23T12:33:49.751Z</time>
      </trkpt>
      <trkpt lat="45.16076" lon="-1.0499">
        <ele>62.072356</ele>
        <time>2022-12-23T12:33:52.754Z</time>
      </trkpt>
      <trkpt lat="45.16064" lon="-1.04985">
        <ele>62.077093</ele>
        <time>2022-12-23T12:33:55.734Z</time>
      </trkpt>
      <trkpt lat="45.16051" lon="-1.04981">
        <ele>62.082007</ele>
        <time>2022-12-23T12:33:58.752Z</time>
      </trkpt>
      <trkpt lat="45.16038" lon="-1.04977">
        <ele>62.086802</ele>
        <time>2022-12-23T12:34:01.753Z</time>
      </trkpt>
      <trkpt lat="45.16025" lon="-1.04973">
        <ele>62.091704</ele>
        <time>2022-12-23T12:34:04.753Z</time>
      </trkpt>
      <trkpt lat="45.16011" lon="-1.04969">
        <ele>62.096746</ele>
        <time>2022-12-23T12:34:07.755Z</time>
      </trkpt>
      <trkpt lat="45.15999" lon="-1.04965">
        <ele>62.101546</ele>
        <time>2022-12-23T12:34:10.756Z</time>
      </trkpt>
      <trkpt lat="45.15986" lon="-1.04961">
        <ele>62.106604</ele>
        <time>2022-12-23T12:34:13.752Z</time>
      </trkpt>
      <trkpt lat="45.15975" lon="-1.04958">
        <ele>62.113571</ele>
        <time>2022-12-23T12:34:16.739Z</time>
      </trkpt>
      <trkpt lat="45.15965" lon="-1.04955">
        <ele>62.120269</ele>
        <time>2022-12-23T12:34:19.742Z</time>
      </trkpt>
      <trkpt lat="45.15954" lon="-1.04951">
        <ele>62.127376</ele>
        <time>2022-12-23T12:34:22.743Z</time>
      </trkpt>
      <trkpt lat="45.15941" lon="-1.04948">
        <ele>62.13501</ele>
        <time>2022-12-23T12:34:25.756Z</time>
      </trkpt>
      <trkpt lat="45.15929" lon="-1.04944">
        <ele>62.142809</ele>
        <time>2022-12-23T12:34:28.754Z</time>
      </trkpt>
      <trkpt lat="45.15917" lon="-1.0494">
        <ele>62.150625</ele>
        <time>2022-12-23T12:34:31.755Z</time>
      </trkpt>
      <trkpt lat="45.15904" lon="-1.04937">
        <ele>62.158762</ele>
        <time>2022-12-23T12:34:34.757Z</time>
      </trkpt>
      <trkpt lat="45.15891" lon="-1.04933">
        <ele>62.167022</ele>
        <time>2022-12-23T12:34:37.753Z</time>
      </trkpt>
      <trkpt lat="45.15878" lon="-1.0493">
        <ele>62.175173</ele>
        <time>2022-12-23T12:34:40.737Z</time>
      </trkpt>
      <trkpt lat="45.15864" lon="-1.04926">
        <ele>62.183691</ele>
        <time>2022-12-23T12:34:43.751Z</time>
      </trkpt>
      <trkpt lat="45.15855" lon="-1.04923">
        <ele>62.189384</ele>
        <time>2022-12-23T12:34:45.756Z</time>
      </trkpt>
      <trkpt lat="45.15846" lon="-1.0492">
        <ele>62.195128</ele>
        <time>2022-12-23T12:34:47.760Z</time>
      </trkpt>
      <trkpt lat="45.15837" lon="-1.04918">
        <ele>62.20077</ele>
        <time>2022-12-23T12:34:49.745Z</time>
      </trkpt>
      <trkpt lat="45.15828" lon="-1.04914">
        <ele>62.206452</ele>
        <time>2022-12-23T12:34:51.750Z</time>
      </trkpt>
      <trkpt lat="45.1582" lon="-1.04912">
        <ele>62.212067</ele>
        <time>2022-12-23T12:34:53.739Z</time>
      </trkpt>
      <trkpt lat="45.15807" lon="-1.04908">
        <ele>62.195381</ele>
        <time>2022-12-23T12:34:56.756Z</time>
      </trkpt>
      <trkpt lat="45.15794" lon="-1.04904">
        <ele>62.138005</ele>
        <time>2022-12-23T12:34:59.754Z</time>
      </trkpt>
      <trkpt lat="45.15781" lon="-1.049">
        <ele>62.078785</ele>
        <time>2022-12-23T12:35:02.745Z</time>
      </trkpt>
      <trkpt lat="45.15768" lon="-1.04896">
        <ele>62.02006</ele>
        <time>2022-12-23T12:35:05.735Z</time>
      </trkpt>
      <trkpt lat="45.15759" lon="-1.04894">
        <ele>61.979541</ele>
        <time>2022-12-23T12:35:07.744Z</time>
      </trkpt>
      <trkpt lat="45.15746" lon="-1.0489">
        <ele>61.920813</ele>
        <time>2022-12-23T12:35:10.750Z</time>
      </trkpt>
      <trkpt lat="45.15732" lon="-1.04886">
        <ele>61.86166</ele>
        <time>2022-12-23T12:35:13.737Z</time>
      </trkpt>
      <trkpt lat="45.15723" lon="-1.04883">
        <ele>61.821258</ele>
        <time>2022-12-23T12:35:15.756Z</time>
      </trkpt>
      <trkpt lat="45.15715" lon="-1.04881">
        <ele>61.781417</ele>
        <time>2022-12-23T12:35:17.755Z</time>
      </trkpt>
      <trkpt lat="45.15705" lon="-1.04878">
        <ele>61.739666</ele>
        <time>2022-12-23T12:35:19.756Z</time>
      </trkpt>
      <trkpt lat="45.15696" lon="-1.04874">
        <ele>61.698199</ele>
        <time>2022-12-23T12:35:21.757Z</time>
      </trkpt>
      <trkpt lat="45.15687" lon="-1.04871">
        <ele>61.655952</ele>
        <time>2022-12-23T12:35:23.753Z</time>
      </trkpt>
      <trkpt lat="45.15675" lon="-1.04867">
        <ele>61.60389</ele>
        <time>2022-12-23T12:35:26.752Z</time>
      </trkpt>
      <trkpt lat="45.15663" lon="-1.04865">
        <ele>61.551067</ele>
        <time>2022-12-23T12:35:29.735Z</time>
      </trkpt>
      <trkpt lat="45.15654" lon="-1.04863">
        <ele>61.509891</ele>
        <time>2022-12-23T12:35:31.761Z</time>
      </trkpt>
      <trkpt lat="45.15645" lon="-1.0486">
        <ele>61.470411</ele>
        <time>2022-12-23T12:35:33.755Z</time>
      </trkpt>
      <trkpt lat="45.15635" lon="-1.04857">
        <ele>61.429703</ele>
        <time>2022-12-23T12:35:35.752Z</time>
      </trkpt>
      <trkpt lat="45.15623" lon="-1.04853">
        <ele>61.431836</ele>
        <time>2022-12-23T12:35:38.756Z</time>
      </trkpt>
      <trkpt lat="45.15613" lon="-1.0485">
        <ele>61.433416</ele>
        <time>2022-12-23T12:35:40.734Z</time>
      </trkpt>
      <trkpt lat="45.15601" lon="-1.04845">
        <ele>61.4356</ele>
        <time>2022-12-23T12:35:43.743Z</time>
      </trkpt>
      <trkpt lat="45.1559" lon="-1.04842">
        <ele>61.437469</ele>
        <time>2022-12-23T12:35:46.754Z</time>
      </trkpt>
      <trkpt lat="45.15579" lon="-1.04839">
        <ele>61.439356</ele>
        <time>2022-12-23T12:35:49.755Z</time>
      </trkpt>
      <trkpt lat="45.15567" lon="-1.04835">
        <ele>61.441365</ele>
        <time>2022-12-23T12:35:52.752Z</time>
      </trkpt>
      <trkpt lat="45.15554" lon="-1.04832">
        <ele>61.443564</ele>
        <time>2022-12-23T12:35:55.758Z</time>
      </trkpt>
      <trkpt lat="45.15541" lon="-1.04828">
        <ele>61.445689</ele>
        <time>2022-12-23T12:35:58.754Z</time>
      </trkpt>
      <trkpt lat="45.15533" lon="-1.04826">
        <ele>61.447193</ele>
        <time>2022-12-23T12:36:00.755Z</time>
      </trkpt>
      <trkpt lat="45.15524" lon="-1.04823">
        <ele>61.448688</ele>
        <time>2022-12-23T12:36:02.752Z</time>
      </trkpt>
      <trkpt lat="45.15515" lon="-1.04821">
        <ele>61.450189</ele>
        <time>2022-12-23T12:36:04.756Z</time>
      </trkpt>
      <trkpt lat="45.15501" lon="-1.04816">
        <ele>61.452511</ele>
        <time>2022-12-23T12:36:07.756Z</time>
      </trkpt>
      <trkpt lat="45.15492" lon="-1.04814">
        <ele>61.454039</ele>
        <time>2022-12-23T12:36:09.758Z</time>
      </trkpt>
      <trkpt lat="45.15483" lon="-1.04811">
        <ele>61.455645</ele>
        <time>2022-12-23T12:36:11.748Z</time>
      </trkpt>
      <trkpt lat="45.15474" lon="-1.04808">
        <ele>61.457162</ele>
        <time>2022-12-23T12:36:13.750Z</time>
      </trkpt>
      <trkpt lat="45.15465" lon="-1.04805">
        <ele>61.458695</ele>
        <time>2022-12-23T12:36:15.751Z</time>
      </trkpt>
      <trkpt lat="45.15452" lon="-1.04802">
        <ele>61.519722</ele>
        <time>2022-12-23T12:36:18.754Z</time>
      </trkpt>
      <trkpt lat="45.15439" lon="-1.04798">
        <ele>61.615699</ele>
        <time>2022-12-23T12:36:21.759Z</time>
      </trkpt>
      <trkpt lat="45.15428" lon="-1.04795">
        <ele>61.69966</ele>
        <time>2022-12-23T12:36:24.778Z</time>
      </trkpt>
      <trkpt lat="45.15418" lon="-1.04791">
        <ele>61.775701</ele>
        <time>2022-12-23T12:36:27.750Z</time>
      </trkpt>
      <trkpt lat="45.15407" lon="-1.04788">
        <ele>61.852354</ele>
        <time>2022-12-23T12:36:30.753Z</time>
      </trkpt>
      <trkpt lat="45.15396" lon="-1.04784">
        <ele>61.938662</ele>
        <time>2022-12-23T12:36:33.737Z</time>
      </trkpt>
      <trkpt lat="45.15384" lon="-1.04781">
        <ele>62.027943</ele>
        <time>2022-12-23T12:36:36.736Z</time>
      </trkpt>
      <trkpt lat="45.15375" lon="-1.04779">
        <ele>62.093697</ele>
        <time>2022-12-23T12:36:38.747Z</time>
      </trkpt>
      <trkpt lat="45.15366" lon="-1.04777">
        <ele>62.160284</ele>
        <time>2022-12-23T12:36:40.755Z</time>
      </trkpt>
      <trkpt lat="45.15357" lon="-1.04775">
        <ele>62.226663</ele>
        <time>2022-12-23T12:36:42.754Z</time>
      </trkpt>
      <trkpt lat="45.15344" lon="-1.04771">
        <ele>62.323243</ele>
        <time>2022-12-23T12:36:45.738Z</time>
      </trkpt>
      <trkpt lat="45.15332" lon="-1.04767">
        <ele>62.409776</ele>
        <time>2022-12-23T12:36:48.748Z</time>
      </trkpt>
      <trkpt lat="45.1532" lon="-1.04764">
        <ele>62.497625</ele>
        <time>2022-12-23T12:36:51.754Z</time>
      </trkpt>
      <trkpt lat="45.15307" lon="-1.0476">
        <ele>62.592896</ele>
        <time>2022-12-23T12:36:54.735Z</time>
      </trkpt>
      <trkpt lat="45.15298" lon="-1.04757">
        <ele>62.662107</ele>
        <time>2022-12-23T12:36:56.757Z</time>
      </trkpt>
      <trkpt lat="45.15286" lon="-1.04753">
        <ele>62.754715</ele>
        <time>2022-12-23T12:36:59.737Z</time>
      </trkpt>
      <trkpt lat="45.15273" lon="-1.0475">
        <ele>62.739448</ele>
        <time>2022-12-23T12:37:02.752Z</time>
      </trkpt>
      <trkpt lat="45.15264" lon="-1.04747">
        <ele>62.717502</ele>
        <time>2022-12-23T12:37:04.744Z</time>
      </trkpt>
      <trkpt lat="45.15251" lon="-1.04744">
        <ele>62.685854</ele>
        <time>2022-12-23T12:37:07.743Z</time>
      </trkpt>
      <trkpt lat="45.15242" lon="-1.04741">
        <ele>62.664034</ele>
        <time>2022-12-23T12:37:09.766Z</time>
      </trkpt>
      <trkpt lat="45.15233" lon="-1.04737">
        <ele>62.64136</ele>
        <time>2022-12-23T12:37:11.757Z</time>
      </trkpt>
      <trkpt lat="45.15224" lon="-1.04734">
        <ele>62.619735</ele>
        <time>2022-12-23T12:37:13.744Z</time>
      </trkpt>
      <trkpt lat="45.15211" lon="-1.0473">
        <ele>62.589079</ele>
        <time>2022-12-23T12:37:16.753Z</time>
      </trkpt>
      <trkpt lat="45.152" lon="-1.04727">
        <ele>62.560435</ele>
        <time>2022-12-23T12:37:19.756Z</time>
      </trkpt>
      <trkpt lat="45.15189" lon="-1.04725">
        <ele>62.535142</ele>
        <time>2022-12-23T12:37:22.752Z</time>
      </trkpt>
      <trkpt lat="45.15178" lon="-1.04721">
        <ele>62.507273</ele>
        <time>2022-12-23T12:37:25.756Z</time>
      </trkpt>
      <trkpt lat="45.15166" lon="-1.04717">
        <ele>62.477857</ele>
        <time>2022-12-23T12:37:28.756Z</time>
      </trkpt>
      <trkpt lat="45.15154" lon="-1.04714">
        <ele>62.448917</ele>
        <time>2022-12-23T12:37:31.755Z</time>
      </trkpt>
      <trkpt lat="45.15141" lon="-1.0471">
        <ele>62.418223</ele>
        <time>2022-12-23T12:37:34.759Z</time>
      </trkpt>
      <trkpt lat="45.15129" lon="-1.04706">
        <ele>62.38778</ele>
        <time>2022-12-23T12:37:37.754Z</time>
      </trkpt>
      <trkpt lat="45.15116" lon="-1.04702">
        <ele>62.357124</ele>
        <time>2022-12-23T12:37:40.753Z</time>
      </trkpt>
      <trkpt lat="45.15104" lon="-1.04698">
        <ele>62.373521</ele>
        <time>2022-12-23T12:37:43.756Z</time>
      </trkpt>
      <trkpt lat="45.15091" lon="-1.04695">
        <ele>62.476731</ele>
        <time>2022-12-23T12:37:46.746Z</time>
      </trkpt>
      <trkpt lat="45.15078" lon="-1.04692">
        <ele>62.579942</ele>
        <time>2022-12-23T12:37:49.756Z</time>
      </trkpt>
      <trkpt lat="45.15065" lon="-1.04688">
        <ele>62.684034</ele>
        <time>2022-12-23T12:37:52.742Z</time>
      </trkpt>
      <trkpt lat="45.15053" lon="-1.04684">
        <ele>62.781885</ele>
        <time>2022-12-23T12:37:55.759Z</time>
      </trkpt>
      <trkpt lat="45.15041" lon="-1.0468">
        <ele>62.883188</ele>
        <time>2022-12-23T12:37:58.753Z</time>
      </trkpt>
      <trkpt lat="45.15028" lon="-1.04676">
        <ele>62.9842</ele>
        <time>2022-12-23T12:38:01.756Z</time>
      </trkpt>
      <trkpt lat="45.15015" lon="-1.04672">
        <ele>63.091402</ele>
        <time>2022-12-23T12:38:04.758Z</time>
      </trkpt>
      <trkpt lat="45.15006" lon="-1.04669">
        <ele>63.1645</ele>
        <time>2022-12-23T12:38:06.743Z</time>
      </trkpt>
      <trkpt lat="45.14997" lon="-1.04667">
        <ele>63.237256</ele>
        <time>2022-12-23T12:38:08.753Z</time>
      </trkpt>
      <trkpt lat="45.14988" lon="-1.04664">
        <ele>63.310236</ele>
        <time>2022-12-23T12:38:10.752Z</time>
      </trkpt>
      <trkpt lat="45.14979" lon="-1.04661">
        <ele>63.383667</ele>
        <time>2022-12-23T12:38:12.754Z</time>
      </trkpt>
      <trkpt lat="45.14967" lon="-1.04658">
        <ele>63.482875</ele>
        <time>2022-12-23T12:38:15.755Z</time>
      </trkpt>
      <trkpt lat="45.14956" lon="-1.04654">
        <ele>63.568362</ele>
        <time>2022-12-23T12:38:18.757Z</time>
      </trkpt>
      <trkpt lat="45.14946" lon="-1.04651">
        <ele>63.655605</ele>
        <time>2022-12-23T12:38:21.758Z</time>
      </trkpt>
      <trkpt lat="45.14934" lon="-1.04648">
        <ele>63.747035</ele>
        <time>2022-12-23T12:38:24.754Z</time>
      </trkpt>
      <trkpt lat="45.14922" lon="-1.04645">
        <ele>63.712131</ele>
        <time>2022-12-23T12:38:27.757Z</time>
      </trkpt>
      <trkpt lat="45.14911" lon="-1.04641">
        <ele>63.649389</ele>
        <time>2022-12-23T12:38:30.737Z</time>
      </trkpt>
      <trkpt lat="45.14899" lon="-1.04637">
        <ele>63.588324</ele>
        <time>2022-12-23T12:38:33.754Z</time>
      </trkpt>
      <trkpt lat="45.14886" lon="-1.04634">
        <ele>63.521766</ele>
        <time>2022-12-23T12:38:36.756Z</time>
      </trkpt>
      <trkpt lat="45.14875" lon="-1.0463">
        <ele>63.460535</ele>
        <time>2022-12-23T12:38:39.757Z</time>
      </trkpt>
      <trkpt lat="45.14862" lon="-1.04626">
        <ele>63.393322</ele>
        <time>2022-12-23T12:38:42.751Z</time>
      </trkpt>
      <trkpt lat="45.1485" lon="-1.04622">
        <ele>63.32864</ele>
        <time>2022-12-23T12:38:45.753Z</time>
      </trkpt>
      <trkpt lat="45.14839" lon="-1.04619">
        <ele>63.271506</ele>
        <time>2022-12-23T12:38:48.756Z</time>
      </trkpt>
      <trkpt lat="45.14828" lon="-1.04615">
        <ele>63.210359</ele>
        <time>2022-12-23T12:38:52.750Z</time>
      </trkpt>
      <trkpt lat="45.14818" lon="-1.04613">
        <ele>63.159881</ele>
        <time>2022-12-23T12:38:56.753Z</time>
      </trkpt>
      <trkpt lat="45.14805" lon="-1.04609">
        <ele>63.090132</ele>
        <time>2022-12-23T12:39:22.767Z</time>
      </trkpt>
      <trkpt lat="45.14796" lon="-1.04605">
        <ele>63.040806</ele>
        <time>2022-12-23T12:39:26.739Z</time>
      </trkpt>
      <trkpt lat="45.14787" lon="-1.04602">
        <ele>62.993518</ele>
        <time>2022-12-23T12:39:29.752Z</time>
      </trkpt>
      <trkpt lat="45.14777" lon="-1.04599">
        <ele>62.941946</ele>
        <time>2022-12-23T12:39:32.755Z</time>
      </trkpt>
      <trkpt lat="45.14766" lon="-1.04596">
        <ele>62.882051</ele>
        <time>2022-12-23T12:39:35.754Z</time>
      </trkpt>
      <trkpt lat="45.14754" lon="-1.04592">
        <ele>62.829309</ele>
        <time>2022-12-23T12:39:38.753Z</time>
      </trkpt>
      <trkpt lat="45.14742" lon="-1.0459">
        <ele>62.811492</ele>
        <time>2022-12-23T12:39:41.736Z</time>
      </trkpt>
      <trkpt lat="45.1473" lon="-1.04587">
        <ele>62.79361</ele>
        <time>2022-12-23T12:39:44.755Z</time>
      </trkpt>
      <trkpt lat="45.14717" lon="-1.04583">
        <ele>62.775194</ele>
        <time>2022-12-23T12:39:47.754Z</time>
      </trkpt>
      <trkpt lat="45.14704" lon="-1.04579">
        <ele>62.756694</ele>
        <time>2022-12-23T12:39:50.750Z</time>
      </trkpt>
      <trkpt lat="45.14692" lon="-1.04576">
        <ele>62.738157</ele>
        <time>2022-12-23T12:39:53.753Z</time>
      </trkpt>
      <trkpt lat="45.14679" lon="-1.04571">
        <ele>62.719008</ele>
        <time>2022-12-23T12:39:56.755Z</time>
      </trkpt>
      <trkpt lat="45.14666" lon="-1.04567">
        <ele>62.70025</ele>
        <time>2022-12-23T12:39:59.754Z</time>
      </trkpt>
      <trkpt lat="45.14653" lon="-1.04563">
        <ele>62.681747</ele>
        <time>2022-12-23T12:40:02.755Z</time>
      </trkpt>
      <trkpt lat="45.14645" lon="-1.0456">
        <ele>62.668663</ele>
        <time>2022-12-23T12:40:04.754Z</time>
      </trkpt>
      <trkpt lat="45.14631" lon="-1.04556">
        <ele>62.648982</ele>
        <time>2022-12-23T12:40:07.756Z</time>
      </trkpt>
      <trkpt lat="45.14618" lon="-1.04553">
        <ele>62.630265</ele>
        <time>2022-12-23T12:40:10.752Z</time>
      </trkpt>
      <trkpt lat="45.14605" lon="-1.04548">
        <ele>62.611044</ele>
        <time>2022-12-23T12:40:13.754Z</time>
      </trkpt>
      <trkpt lat="45.14592" lon="-1.04545">
        <ele>62.592286</ele>
        <time>2022-12-23T12:40:16.751Z</time>
      </trkpt>
      <trkpt lat="45.1458" lon="-1.0454">
        <ele>62.574906</ele>
        <time>2022-12-23T12:40:19.757Z</time>
      </trkpt>
      <trkpt lat="45.14566" lon="-1.04537">
        <ele>62.575063</ele>
        <time>2022-12-23T12:40:22.754Z</time>
      </trkpt>
      <trkpt lat="45.14557" lon="-1.04534">
        <ele>62.575165</ele>
        <time>2022-12-23T12:40:24.752Z</time>
      </trkpt>
      <trkpt lat="45.14548" lon="-1.04532">
        <ele>62.575267</ele>
        <time>2022-12-23T12:40:26.754Z</time>
      </trkpt>
      <trkpt lat="45.14536" lon="-1.04529">
        <ele>62.575406</ele>
        <time>2022-12-23T12:40:29.761Z</time>
      </trkpt>
      <trkpt lat="45.14524" lon="-1.04525">
        <ele>62.575547</ele>
        <time>2022-12-23T12:40:32.757Z</time>
      </trkpt>
      <trkpt lat="45.14512" lon="-1.04523">
        <ele>62.575685</ele>
        <time>2022-12-23T12:40:35.731Z</time>
      </trkpt>
      <trkpt lat="45.14503" lon="-1.04521">
        <ele>62.57579</ele>
        <time>2022-12-23T12:40:37.734Z</time>
      </trkpt>
      <trkpt lat="45.14489" lon="-1.0452">
        <ele>62.575941</ele>
        <time>2022-12-23T12:40:40.736Z</time>
      </trkpt>
      <trkpt lat="45.14476" lon="-1.04518">
        <ele>62.57609</ele>
        <time>2022-12-23T12:40:43.754Z</time>
      </trkpt>
      <trkpt lat="45.14467" lon="-1.04517">
        <ele>62.576193</ele>
        <time>2022-12-23T12:40:45.741Z</time>
      </trkpt>
      <trkpt lat="45.14454" lon="-1.04517">
        <ele>62.576344</ele>
        <time>2022-12-23T12:40:48.755Z</time>
      </trkpt>
      <trkpt lat="45.14441" lon="-1.04517">
        <ele>62.57649</ele>
        <time>2022-12-23T12:40:51.752Z</time>
      </trkpt>
      <trkpt lat="45.14428" lon="-1.04517">
        <ele>62.576637</ele>
        <time>2022-12-23T12:40:54.757Z</time>
      </trkpt>
      <trkpt lat="45.14415" lon="-1.04517">
        <ele>62.576786</ele>
        <time>2022-12-23T12:40:57.752Z</time>
      </trkpt>
      <trkpt lat="45.14401" lon="-1.04517">
        <ele>62.579076</ele>
        <time>2022-12-23T12:41:00.754Z</time>
      </trkpt>
      <trkpt lat="45.14389" lon="-1.04517">
        <ele>62.624519</ele>
        <time>2022-12-23T12:41:03.755Z</time>
      </trkpt>
      <trkpt lat="45.14378" lon="-1.04517">
        <ele>62.665953</ele>
        <time>2022-12-23T12:41:06.735Z</time>
      </trkpt>
      <trkpt lat="45.14365" lon="-1.04517">
        <ele>62.710684</ele>
        <time>2022-12-23T12:41:09.752Z</time>
      </trkpt>
      <trkpt lat="45.14353" lon="-1.04517">
        <ele>62.754318</ele>
        <time>2022-12-23T12:41:12.756Z</time>
      </trkpt>
      <trkpt lat="45.14344" lon="-1.04518">
        <ele>62.787078</ele>
        <time>2022-12-23T12:41:14.754Z</time>
      </trkpt>
      <trkpt lat="45.14331" lon="-1.04518">
        <ele>62.8336</ele>
        <time>2022-12-23T12:41:17.751Z</time>
      </trkpt>
      <trkpt lat="45.14319" lon="-1.04519">
        <ele>62.878086</ele>
        <time>2022-12-23T12:41:20.753Z</time>
      </trkpt>
      <trkpt lat="45.14307" lon="-1.04518">
        <ele>62.923916</ele>
        <time>2022-12-23T12:41:23.754Z</time>
      </trkpt>
      <trkpt lat="45.14294" lon="-1.04519">
        <ele>62.969723</ele>
        <time>2022-12-23T12:41:26.736Z</time>
      </trkpt>
      <trkpt lat="45.14282" lon="-1.04519">
        <ele>63.014794</ele>
        <time>2022-12-23T12:41:29.753Z</time>
      </trkpt>
      <trkpt lat="45.14269" lon="-1.04519">
        <ele>63.060595</ele>
        <time>2022-12-23T12:41:32.756Z</time>
      </trkpt>
      <trkpt lat="45.14256" lon="-1.04518">
        <ele>63.107135</ele>
        <time>2022-12-23T12:41:35.749Z</time>
      </trkpt>
      <trkpt lat="45.14243" lon="-1.04518">
        <ele>63.154021</ele>
        <time>2022-12-23T12:41:38.753Z</time>
      </trkpt>
      <trkpt lat="45.14231" lon="-1.04519">
        <ele>63.198006</ele>
        <time>2022-12-23T12:41:41.755Z</time>
      </trkpt>
      <trkpt lat="45.1422" lon="-1.04519">
        <ele>63.236979</ele>
        <time>2022-12-23T12:41:44.739Z</time>
      </trkpt>
      <trkpt lat="45.1421" lon="-1.0452">
        <ele>63.269602</ele>
        <time>2022-12-23T12:41:47.755Z</time>
      </trkpt>
      <trkpt lat="45.14199" lon="-1.04519">
        <ele>63.303746</ele>
        <time>2022-12-23T12:41:50.752Z</time>
      </trkpt>
      <trkpt lat="45.14188" lon="-1.0452">
        <ele>63.338828</ele>
        <time>2022-12-23T12:41:53.753Z</time>
      </trkpt>
      <trkpt lat="45.14176" lon="-1.0452">
        <ele>63.374848</ele>
        <time>2022-12-23T12:41:56.751Z</time>
      </trkpt>
      <trkpt lat="45.14165" lon="-1.0452">
        <ele>63.411512</ele>
        <time>2022-12-23T12:41:59.759Z</time>
      </trkpt>
      <trkpt lat="45.14153" lon="-1.0452">
        <ele>63.446283</ele>
        <time>2022-12-23T12:42:02.769Z</time>
      </trkpt>
      <trkpt lat="45.14142" lon="-1.0452">
        <ele>63.481365</ele>
        <time>2022-12-23T12:42:05.756Z</time>
      </trkpt>
      <trkpt lat="45.14131" lon="-1.0452">
        <ele>63.516762</ele>
        <time>2022-12-23T12:42:08.750Z</time>
      </trkpt>
      <trkpt lat="45.14119" lon="-1.0452">
        <ele>63.554975</ele>
        <time>2022-12-23T12:42:11.751Z</time>
      </trkpt>
      <trkpt lat="45.14106" lon="-1.0452">
        <ele>63.594442</ele>
        <time>2022-12-23T12:42:14.756Z</time>
      </trkpt>
      <trkpt lat="45.14093" lon="-1.0452">
        <ele>63.634534</ele>
        <time>2022-12-23T12:42:17.751Z</time>
      </trkpt>
      <trkpt lat="45.1408" lon="-1.0452">
        <ele>63.675894</ele>
        <time>2022-12-23T12:42:20.756Z</time>
      </trkpt>
      <trkpt lat="45.14067" lon="-1.0452">
        <ele>63.717591</ele>
        <time>2022-12-23T12:42:23.754Z</time>
      </trkpt>
      <trkpt lat="45.14054" lon="-1.04521">
        <ele>63.758995</ele>
        <time>2022-12-23T12:42:26.739Z</time>
      </trkpt>
      <trkpt lat="45.14041" lon="-1.04521">
        <ele>63.782428</ele>
        <time>2022-12-23T12:42:29.754Z</time>
      </trkpt>
      <trkpt lat="45.14032" lon="-1.04521">
        <ele>63.720098</ele>
        <time>2022-12-23T12:42:31.750Z</time>
      </trkpt>
      <trkpt lat="45.14022" lon="-1.04521">
        <ele>63.654476</ele>
        <time>2022-12-23T12:42:33.740Z</time>
      </trkpt>
      <trkpt lat="45.14009" lon="-1.04521">
        <ele>63.568558</ele>
        <time>2022-12-23T12:42:36.760Z</time>
      </trkpt>
      <trkpt lat="45.14" lon="-1.0452">
        <ele>63.503596</ele>
        <time>2022-12-23T12:42:38.755Z</time>
      </trkpt>
      <trkpt lat="45.1399" lon="-1.04521">
        <ele>63.439319</ele>
        <time>2022-12-23T12:42:40.748Z</time>
      </trkpt>
      <trkpt lat="45.13981" lon="-1.04521">
        <ele>63.375698</ele>
        <time>2022-12-23T12:42:42.749Z</time>
      </trkpt>
      <trkpt lat="45.13968" lon="-1.04521">
        <ele>63.288425</ele>
        <time>2022-12-23T12:42:45.754Z</time>
      </trkpt>
      <trkpt lat="45.13955" lon="-1.04522">
        <ele>63.200373</ele>
        <time>2022-12-23T12:42:48.744Z</time>
      </trkpt>
      <trkpt lat="45.13942" lon="-1.04521">
        <ele>63.11645</ele>
        <time>2022-12-23T12:42:51.754Z</time>
      </trkpt>
      <trkpt lat="45.13931" lon="-1.04521">
        <ele>63.040674</ele>
        <time>2022-12-23T12:42:54.754Z</time>
      </trkpt>
      <trkpt lat="45.13919" lon="-1.04522">
        <ele>62.958027</ele>
        <time>2022-12-23T12:42:57.748Z</time>
      </trkpt>
      <trkpt lat="45.13906" lon="-1.04522">
        <ele>62.870755</ele>
        <time>2022-12-23T12:43:00.747Z</time>
      </trkpt>
      <trkpt lat="45.13893" lon="-1.04522">
        <ele>62.780777</ele>
        <time>2022-12-23T12:43:03.752Z</time>
      </trkpt>
      <trkpt lat="45.13884" lon="-1.04523">
        <ele>62.719206</ele>
        <time>2022-12-23T12:43:05.755Z</time>
      </trkpt>
      <trkpt lat="45.1387" lon="-1.04523">
        <ele>62.628551</ele>
        <time>2022-12-23T12:43:08.749Z</time>
      </trkpt>
      <trkpt lat="45.13861" lon="-1.04523">
        <ele>62.591641</ele>
        <time>2022-12-23T12:43:10.750Z</time>
      </trkpt>
      <trkpt lat="45.13852" lon="-1.04523">
        <ele>62.667364</ele>
        <time>2022-12-23T12:43:12.755Z</time>
      </trkpt>
      <trkpt lat="45.13839" lon="-1.04523">
        <ele>62.780131</ele>
        <time>2022-12-23T12:43:15.758Z</time>
      </trkpt>
      <trkpt lat="45.13829" lon="-1.04524">
        <ele>62.860936</ele>
        <time>2022-12-23T12:43:17.771Z</time>
      </trkpt>
      <trkpt lat="45.1382" lon="-1.04524">
        <ele>62.937521</ele>
        <time>2022-12-23T12:43:19.760Z</time>
      </trkpt>
      <trkpt lat="45.13811" lon="-1.04524">
        <ele>63.015769</ele>
        <time>2022-12-23T12:43:21.753Z</time>
      </trkpt>
      <trkpt lat="45.13801" lon="-1.04524">
        <ele>63.095707</ele>
        <time>2022-12-23T12:43:23.748Z</time>
      </trkpt>
      <trkpt lat="45.13787" lon="-1.04525">
        <ele>63.210157</ele>
        <time>2022-12-23T12:43:26.755Z</time>
      </trkpt>
      <trkpt lat="45.13775" lon="-1.04525">
        <ele>63.315327</ele>
        <time>2022-12-23T12:43:29.757Z</time>
      </trkpt>
      <trkpt lat="45.13763" lon="-1.04525">
        <ele>63.419682</ele>
        <time>2022-12-23T12:43:32.752Z</time>
      </trkpt>
      <trkpt lat="45.13751" lon="-1.04524">
        <ele>63.518209</ele>
        <time>2022-12-23T12:43:35.748Z</time>
      </trkpt>
      <trkpt lat="45.13738" lon="-1.04525">
        <ele>63.627644</ele>
        <time>2022-12-23T12:43:38.753Z</time>
      </trkpt>
      <trkpt lat="45.13725" lon="-1.04524">
        <ele>63.737888</ele>
        <time>2022-12-23T12:43:41.756Z</time>
      </trkpt>
      <trkpt lat="45.13712" lon="-1.04525">
        <ele>63.847305</ele>
        <time>2022-12-23T12:43:44.760Z</time>
      </trkpt>
      <trkpt lat="45.13702" lon="-1.04525">
        <ele>63.926412</ele>
        <time>2022-12-23T12:43:46.757Z</time>
      </trkpt>
      <trkpt lat="45.13689" lon="-1.04525">
        <ele>64.037497</ele>
        <time>2022-12-23T12:43:49.748Z</time>
      </trkpt>
      <trkpt lat="45.13676" lon="-1.04526">
        <ele>64.057206</ele>
        <time>2022-12-23T12:43:52.757Z</time>
      </trkpt>
      <trkpt lat="45.13663" lon="-1.04526">
        <ele>63.99319</ele>
        <time>2022-12-23T12:43:55.755Z</time>
      </trkpt>
      <trkpt lat="45.13649" lon="-1.04526">
        <ele>63.9287</ele>
        <time>2022-12-23T12:43:58.749Z</time>
      </trkpt>
      <trkpt lat="45.13636" lon="-1.04526">
        <ele>63.863726</ele>
        <time>2022-12-23T12:44:01.741Z</time>
      </trkpt>
      <trkpt lat="45.13627" lon="-1.04526">
        <ele>63.819444</ele>
        <time>2022-12-23T12:44:03.742Z</time>
      </trkpt>
      <trkpt lat="45.13613" lon="-1.04527">
        <ele>63.756366</ele>
        <time>2022-12-23T12:44:06.730Z</time>
      </trkpt>
      <trkpt lat="45.13604" lon="-1.04527">
        <ele>63.712089</ele>
        <time>2022-12-23T12:44:08.743Z</time>
      </trkpt>
      <trkpt lat="45.13595" lon="-1.04527">
        <ele>63.667326</ele>
        <time>2022-12-23T12:44:10.755Z</time>
      </trkpt>
      <trkpt lat="45.13586" lon="-1.04528">
        <ele>63.623498</ele>
        <time>2022-12-23T12:44:12.752Z</time>
      </trkpt>
      <trkpt lat="45.13577" lon="-1.04527">
        <ele>63.580151</ele>
        <time>2022-12-23T12:44:14.747Z</time>
      </trkpt>
      <trkpt lat="45.13568" lon="-1.04528">
        <ele>63.535863</ele>
        <time>2022-12-23T12:44:16.739Z</time>
      </trkpt>
      <trkpt lat="45.13558" lon="-1.04528">
        <ele>63.491587</ele>
        <time>2022-12-23T12:44:18.737Z</time>
      </trkpt>
      <trkpt lat="45.13549" lon="-1.04527">
        <ele>63.444894</ele>
        <time>2022-12-23T12:44:20.751Z</time>
      </trkpt>
      <trkpt lat="45.1354" lon="-1.04527">
        <ele>63.400616</ele>
        <time>2022-12-23T12:44:22.756Z</time>
      </trkpt>
      <trkpt lat="45.1353" lon="-1.04528">
        <ele>63.356788</ele>
        <time>2022-12-23T12:44:24.754Z</time>
      </trkpt>
      <trkpt lat="45.13517" lon="-1.04528">
        <ele>63.294223</ele>
        <time>2022-12-23T12:44:27.754Z</time>
      </trkpt>
      <trkpt lat="45.13505" lon="-1.04528">
        <ele>63.234546</ele>
        <time>2022-12-23T12:44:30.745Z</time>
      </trkpt>
      <trkpt lat="45.13492" lon="-1.04529">
        <ele>63.238386</ele>
        <time>2022-12-23T12:44:33.742Z</time>
      </trkpt>
      <trkpt lat="45.13479" lon="-1.04529">
        <ele>63.254466</ele>
        <time>2022-12-23T12:44:36.755Z</time>
      </trkpt>
      <trkpt lat="45.13466" lon="-1.04529">
        <ele>63.270918</ele>
        <time>2022-12-23T12:44:39.754Z</time>
      </trkpt>
      <trkpt lat="45.13453" lon="-1.04529">
        <ele>63.286507</ele>
        <time>2022-12-23T12:44:42.754Z</time>
      </trkpt>
      <trkpt lat="45.13441" lon="-1.04528">
        <ele>63.301609</ele>
        <time>2022-12-23T12:44:45.755Z</time>
      </trkpt>
      <trkpt lat="45.13429" lon="-1.04528">
        <ele>63.3167</ele>
        <time>2022-12-23T12:44:48.753Z</time>
      </trkpt>
      <trkpt lat="45.13417" lon="-1.04529">
        <ele>63.331926</ele>
        <time>2022-12-23T12:44:51.753Z</time>
      </trkpt>
      <trkpt lat="45.13404" lon="-1.04529">
        <ele>63.347388</ele>
        <time>2022-12-23T12:44:54.752Z</time>
      </trkpt>
      <trkpt lat="45.13392" lon="-1.04529">
        <ele>63.361736</ele>
        <time>2022-12-23T12:44:57.757Z</time>
      </trkpt>
      <trkpt lat="45.13381" lon="-1.04529">
        <ele>63.375837</ele>
        <time>2022-12-23T12:45:00.757Z</time>
      </trkpt>
      <trkpt lat="45.13369" lon="-1.04529">
        <ele>63.390186</ele>
        <time>2022-12-23T12:45:03.757Z</time>
      </trkpt>
      <trkpt lat="45.13357" lon="-1.04529">
        <ele>63.405402</ele>
        <time>2022-12-23T12:45:06.741Z</time>
      </trkpt>
      <trkpt lat="45.13345" lon="-1.04529">
        <ele>63.42074</ele>
        <time>2022-12-23T12:45:09.747Z</time>
      </trkpt>
      <trkpt lat="45.13332" lon="-1.0453">
        <ele>63.436098</ele>
        <time>2022-12-23T12:45:12.755Z</time>
      </trkpt>
      <trkpt lat="45.1332" lon="-1.0453">
        <ele>63.455473</ele>
        <time>2022-12-23T12:45:15.754Z</time>
      </trkpt>
      <trkpt lat="45.13307" lon="-1.04531">
        <ele>63.489061</ele>
        <time>2022-12-23T12:45:18.766Z</time>
      </trkpt>
      <trkpt lat="45.13294" lon="-1.04531">
        <ele>63.523713</ele>
        <time>2022-12-23T12:45:21.759Z</time>
      </trkpt>
      <trkpt lat="45.13281" lon="-1.04531">
        <ele>63.557823</ele>
        <time>2022-12-23T12:45:24.753Z</time>
      </trkpt>
      <trkpt lat="45.13272" lon="-1.04531">
        <ele>63.581968</ele>
        <time>2022-12-23T12:45:26.766Z</time>
      </trkpt>
      <trkpt lat="45.13259" lon="-1.04532">
        <ele>63.617129</ele>
        <time>2022-12-23T12:45:29.744Z</time>
      </trkpt>
      <trkpt lat="45.13249" lon="-1.04531">
        <ele>63.641005</ele>
        <time>2022-12-23T12:45:31.752Z</time>
      </trkpt>
      <trkpt lat="45.13236" lon="-1.04532">
        <ele>63.675116</ele>
        <time>2022-12-23T12:45:34.754Z</time>
      </trkpt>
      <trkpt lat="45.13227" lon="-1.04532">
        <ele>63.698733</ele>
        <time>2022-12-23T12:45:36.734Z</time>
      </trkpt>
      <trkpt lat="45.13215" lon="-1.04532">
        <ele>63.732325</ele>
        <time>2022-12-23T12:45:39.747Z</time>
      </trkpt>
      <trkpt lat="45.13202" lon="-1.04532">
        <ele>63.765123</ele>
        <time>2022-12-23T12:45:42.757Z</time>
      </trkpt>
      <trkpt lat="45.13189" lon="-1.04532">
        <ele>63.799494</ele>
        <time>2022-12-23T12:45:45.734Z</time>
      </trkpt>
      <trkpt lat="45.13177" lon="-1.04533">
        <ele>63.83203</ele>
        <time>2022-12-23T12:45:48.731Z</time>
      </trkpt>
      <trkpt lat="45.13165" lon="-1.04532">
        <ele>63.863832</ele>
        <time>2022-12-23T12:45:51.754Z</time>
      </trkpt>
      <trkpt lat="45.13152" lon="-1.04531">
        <ele>63.895844</ele>
        <time>2022-12-23T12:45:54.753Z</time>
      </trkpt>
      <trkpt lat="45.13141" lon="-1.04532">
        <ele>63.912847</ele>
        <time>2022-12-23T12:45:57.752Z</time>
      </trkpt>
      <trkpt lat="45.13128" lon="-1.04532">
        <ele>63.882233</ele>
        <time>2022-12-23T12:46:00.752Z</time>
      </trkpt>
      <trkpt lat="45.13116" lon="-1.04533">
        <ele>63.852312</ele>
        <time>2022-12-23T12:46:03.754Z</time>
      </trkpt>
      <trkpt lat="45.13103" lon="-1.04533">
        <ele>63.822173</ele>
        <time>2022-12-23T12:46:06.752Z</time>
      </trkpt>
      <trkpt lat="45.1309" lon="-1.04534">
        <ele>63.791543</ele>
        <time>2022-12-23T12:46:09.763Z</time>
      </trkpt>
      <trkpt lat="45.13078" lon="-1.04534">
        <ele>63.76044</ele>
        <time>2022-12-23T12:46:12.764Z</time>
      </trkpt>
      <trkpt lat="45.13065" lon="-1.04534">
        <ele>63.730066</ele>
        <time>2022-12-23T12:46:15.751Z</time>
      </trkpt>
      <trkpt lat="45.13053" lon="-1.04535">
        <ele>63.70065</ele>
        <time>2022-12-23T12:46:18.752Z</time>
      </trkpt>
      <trkpt lat="45.13041" lon="-1.04535">
        <ele>63.67124</ele>
        <time>2022-12-23T12:46:21.755Z</time>
      </trkpt>
      <trkpt lat="45.13028" lon="-1.04535">
        <ele>63.640614</ele>
        <time>2022-12-23T12:46:24.751Z</time>
      </trkpt>
      <trkpt lat="45.13016" lon="-1.04535">
        <ele>63.611198</ele>
        <time>2022-12-23T12:46:27.733Z</time>
      </trkpt>
      <trkpt lat="45.13003" lon="-1.04535">
        <ele>63.580826</ele>
        <time>2022-12-23T12:46:30.753Z</time>
      </trkpt>
      <trkpt lat="45.1299" lon="-1.04536">
        <ele>63.55043</ele>
        <time>2022-12-23T12:46:33.727Z</time>
      </trkpt>
      <trkpt lat="45.12977" lon="-1.04536">
        <ele>63.518852</ele>
        <time>2022-12-23T12:46:36.739Z</time>
      </trkpt>
      <trkpt lat="45.12965" lon="-1.04536">
        <ele>63.488237</ele>
        <time>2022-12-23T12:46:39.754Z</time>
      </trkpt>
      <trkpt lat="45.12952" lon="-1.04536">
        <ele>63.510303</ele>
        <time>2022-12-23T12:46:42.746Z</time>
      </trkpt>
      <trkpt lat="45.12939" lon="-1.04536">
        <ele>63.536873</ele>
        <time>2022-12-23T12:46:45.741Z</time>
      </trkpt>
      <trkpt lat="45.12927" lon="-1.04536">
        <ele>63.563654</ele>
        <time>2022-12-23T12:46:48.753Z</time>
      </trkpt>
      <trkpt lat="45.12914" lon="-1.04537">
        <ele>63.591282</ele>
        <time>2022-12-23T12:46:51.754Z</time>
      </trkpt>
      <trkpt lat="45.12904" lon="-1.04537">
        <ele>63.610891</ele>
        <time>2022-12-23T12:46:53.753Z</time>
      </trkpt>
      <trkpt lat="45.12895" lon="-1.04537">
        <ele>63.630288</ele>
        <time>2022-12-23T12:46:55.742Z</time>
      </trkpt>
      <trkpt lat="45.12882" lon="-1.04537">
        <ele>63.658544</ele>
        <time>2022-12-23T12:46:58.745Z</time>
      </trkpt>
      <trkpt lat="45.12868" lon="-1.04537">
        <ele>63.68638</ele>
        <time>2022-12-23T12:47:01.751Z</time>
      </trkpt>
      <trkpt lat="45.12855" lon="-1.04537">
        <ele>63.713797</ele>
        <time>2022-12-23T12:47:04.760Z</time>
      </trkpt>
      <trkpt lat="45.12846" lon="-1.04537">
        <ele>63.732987</ele>
        <time>2022-12-23T12:47:06.753Z</time>
      </trkpt>
      <trkpt lat="45.12833" lon="-1.04538">
        <ele>63.760606</ele>
        <time>2022-12-23T12:47:09.748Z</time>
      </trkpt>
      <trkpt lat="45.12821" lon="-1.04537">
        <ele>63.785911</ele>
        <time>2022-12-23T12:47:12.754Z</time>
      </trkpt>
      <trkpt lat="45.12809" lon="-1.04538">
        <ele>63.811643</ele>
        <time>2022-12-23T12:47:15.742Z</time>
      </trkpt>
      <trkpt lat="45.12797" lon="-1.04538">
        <ele>63.837365</ele>
        <time>2022-12-23T12:47:18.752Z</time>
      </trkpt>
      <trkpt lat="45.12784" lon="-1.04538">
        <ele>63.863931</ele>
        <time>2022-12-23T12:47:21.753Z</time>
      </trkpt>
      <trkpt lat="45.12772" lon="-1.04538">
        <ele>63.881137</ele>
        <time>2022-12-23T12:47:24.755Z</time>
      </trkpt>
      <trkpt lat="45.12759" lon="-1.04539">
        <ele>63.898932</ele>
        <time>2022-12-23T12:47:27.754Z</time>
      </trkpt>
      <trkpt lat="45.12746" lon="-1.04539">
        <ele>63.916189</ele>
        <time>2022-12-23T12:47:30.752Z</time>
      </trkpt>
      <trkpt lat="45.12733" lon="-1.04539">
        <ele>63.933176</ele>
        <time>2022-12-23T12:47:33.739Z</time>
      </trkpt>
      <trkpt lat="45.1272" lon="-1.04539">
        <ele>63.95057</ele>
        <time>2022-12-23T12:47:36.751Z</time>
      </trkpt>
      <trkpt lat="45.12707" lon="-1.04539">
        <ele>63.967958</ele>
        <time>2022-12-23T12:47:39.734Z</time>
      </trkpt>
      <trkpt lat="45.12695" lon="-1.04539">
        <ele>63.984807</ele>
        <time>2022-12-23T12:47:42.753Z</time>
      </trkpt>
      <trkpt lat="45.12684" lon="-1.04539">
        <ele>63.998836</ele>
        <time>2022-12-23T12:47:45.754Z</time>
      </trkpt>
      <trkpt lat="45.12674" lon="-1.0454">
        <ele>64.012323</ele>
        <time>2022-12-23T12:47:48.758Z</time>
      </trkpt>
      <trkpt lat="45.12664" lon="-1.0454">
        <ele>64.026746</ele>
        <time>2022-12-23T12:47:51.753Z</time>
      </trkpt>
      <trkpt lat="45.12653" lon="-1.04539">
        <ele>64.041176</ele>
        <time>2022-12-23T12:47:54.755Z</time>
      </trkpt>
      <trkpt lat="45.12643" lon="-1.04539">
        <ele>64.055194</ele>
        <time>2022-12-23T12:47:57.754Z</time>
      </trkpt>
      <trkpt lat="45.12632" lon="-1.0454">
        <ele>64.069486</ele>
        <time>2022-12-23T12:48:00.754Z</time>
      </trkpt>
      <trkpt lat="45.12621" lon="-1.0454">
        <ele>64.084313</ele>
        <time>2022-12-23T12:48:03.755Z</time>
      </trkpt>
      <trkpt lat="45.12609" lon="-1.0454">
        <ele>64.099948</ele>
        <time>2022-12-23T12:48:06.736Z</time>
      </trkpt>
      <trkpt lat="45.12597" lon="-1.04541">
        <ele>64.130611</ele>
        <time>2022-12-23T12:48:09.752Z</time>
      </trkpt>
      <trkpt lat="45.12585" lon="-1.04541">
        <ele>64.174021</ele>
        <time>2022-12-23T12:48:12.752Z</time>
      </trkpt>
      <trkpt lat="45.12573" lon="-1.04541">
        <ele>64.217789</ele>
        <time>2022-12-23T12:48:15.751Z</time>
      </trkpt>
      <trkpt lat="45.12561" lon="-1.04541">
        <ele>64.261562</ele>
        <time>2022-12-23T12:48:18.739Z</time>
      </trkpt>
      <trkpt lat="45.12548" lon="-1.04541">
        <ele>64.306413</ele>
        <time>2022-12-23T12:48:21.751Z</time>
      </trkpt>
      <trkpt lat="45.12535" lon="-1.04542">
        <ele>64.351983</ele>
        <time>2022-12-23T12:48:24.761Z</time>
      </trkpt>
      <trkpt lat="45.12522" lon="-1.04542">
        <ele>64.397528</ele>
        <time>2022-12-23T12:48:27.757Z</time>
      </trkpt>
      <trkpt lat="45.12509" lon="-1.04542">
        <ele>64.445214</ele>
        <time>2022-12-23T12:48:30.763Z</time>
      </trkpt>
      <trkpt lat="45.125" lon="-1.04542">
        <ele>64.477595</ele>
        <time>2022-12-23T12:48:32.759Z</time>
      </trkpt>
      <trkpt lat="45.12487" lon="-1.04542">
        <ele>64.524587</ele>
        <time>2022-12-23T12:48:35.754Z</time>
      </trkpt>
      <trkpt lat="45.12474" lon="-1.04542">
        <ele>64.570488</ele>
        <time>2022-12-23T12:48:38.737Z</time>
      </trkpt>
      <trkpt lat="45.12461" lon="-1.04543">
        <ele>64.617818</ele>
        <time>2022-12-23T12:48:41.739Z</time>
      </trkpt>
      <trkpt lat="45.12447" lon="-1.04543">
        <ele>64.664787</ele>
        <time>2022-12-23T12:48:44.753Z</time>
      </trkpt>
      <trkpt lat="45.12435" lon="-1.04544">
        <ele>64.709677</ele>
        <time>2022-12-23T12:48:47.755Z</time>
      </trkpt>
      <trkpt lat="45.12423" lon="-1.04544">
        <ele>64.746149</ele>
        <time>2022-12-23T12:48:50.755Z</time>
      </trkpt>
      <trkpt lat="45.12413" lon="-1.04544">
        <ele>64.730448</ele>
        <time>2022-12-23T12:48:53.753Z</time>
      </trkpt>
      <trkpt lat="45.12401" lon="-1.04544">
        <ele>64.714009</ele>
        <time>2022-12-23T12:48:56.759Z</time>
      </trkpt>
      <trkpt lat="45.1239" lon="-1.04544">
        <ele>64.696549</ele>
        <time>2022-12-23T12:48:59.753Z</time>
      </trkpt>
      <trkpt lat="45.12378" lon="-1.04544">
        <ele>64.679088</ele>
        <time>2022-12-23T12:49:02.756Z</time>
      </trkpt>
      <trkpt lat="45.12365" lon="-1.04544">
        <ele>64.661035</ele>
        <time>2022-12-23T12:49:05.754Z</time>
      </trkpt>
      <trkpt lat="45.12353" lon="-1.04544">
        <ele>64.642546</ele>
        <time>2022-12-23T12:49:08.756Z</time>
      </trkpt>
      <trkpt lat="45.1234" lon="-1.04545">
        <ele>64.623614</ele>
        <time>2022-12-23T12:49:11.755Z</time>
      </trkpt>
      <trkpt lat="45.12327" lon="-1.04544">
        <ele>64.604685</ele>
        <time>2022-12-23T12:49:14.733Z</time>
      </trkpt>
      <trkpt lat="45.12315" lon="-1.04545">
        <ele>64.586637</ele>
        <time>2022-12-23T12:49:17.753Z</time>
      </trkpt>
      <trkpt lat="45.12304" lon="-1.04545">
        <ele>64.571075</ele>
        <time>2022-12-23T12:49:20.753Z</time>
      </trkpt>
      <trkpt lat="45.12294" lon="-1.04545">
        <ele>64.556983</ele>
        <time>2022-12-23T12:49:23.760Z</time>
      </trkpt>
      <trkpt lat="45.12285" lon="-1.04545">
        <ele>64.542603</ele>
        <time>2022-12-23T12:49:26.753Z</time>
      </trkpt>
      <trkpt lat="45.12274" lon="-1.04545">
        <ele>64.527343</ele>
        <time>2022-12-23T12:49:29.757Z</time>
      </trkpt>
      <trkpt lat="45.12262" lon="-1.04546">
        <ele>64.509881</ele>
        <time>2022-12-23T12:49:32.752Z</time>
      </trkpt>
      <trkpt lat="45.1225" lon="-1.04546">
        <ele>64.491978</ele>
        <time>2022-12-23T12:49:35.753Z</time>
      </trkpt>
      <trkpt lat="45.12238" lon="-1.04546">
        <ele>64.503171</ele>
        <time>2022-12-23T12:49:38.750Z</time>
      </trkpt>
      <trkpt lat="45.12225" lon="-1.04546">
        <ele>64.540169</ele>
        <time>2022-12-23T12:49:41.755Z</time>
      </trkpt>
      <trkpt lat="45.12212" lon="-1.04546">
        <ele>64.577175</ele>
        <time>2022-12-23T12:49:44.754Z</time>
      </trkpt>
      <trkpt lat="45.12199" lon="-1.04546">
        <ele>64.614172</ele>
        <time>2022-12-23T12:49:47.757Z</time>
      </trkpt>
      <trkpt lat="45.12187" lon="-1.04547">
        <ele>64.651463</ele>
        <time>2022-12-23T12:49:50.756Z</time>
      </trkpt>
      <trkpt lat="45.12174" lon="-1.04547">
        <ele>64.688756</ele>
        <time>2022-12-23T12:49:53.752Z</time>
      </trkpt>
      <trkpt lat="45.12161" lon="-1.04547">
        <ele>64.725462</ele>
        <time>2022-12-23T12:49:56.756Z</time>
      </trkpt>
      <trkpt lat="45.12148" lon="-1.04547">
        <ele>64.763051</ele>
        <time>2022-12-23T12:49:59.754Z</time>
      </trkpt>
      <trkpt lat="45.12135" lon="-1.04548">
        <ele>64.80064</ele>
        <time>2022-12-23T12:50:02.746Z</time>
      </trkpt>
      <trkpt lat="45.12122" lon="-1.04548">
        <ele>64.839967</ele>
        <time>2022-12-23T12:50:05.753Z</time>
      </trkpt>
      <trkpt lat="45.12113" lon="-1.04548">
        <ele>64.866478</ele>
        <time>2022-12-23T12:50:07.739Z</time>
      </trkpt>
      <trkpt lat="45.12103" lon="-1.04548">
        <ele>64.894739</ele>
        <time>2022-12-23T12:50:09.755Z</time>
      </trkpt>
      <trkpt lat="45.1209" lon="-1.04548">
        <ele>64.933194</ele>
        <time>2022-12-23T12:50:12.744Z</time>
      </trkpt>
      <trkpt lat="45.12078" lon="-1.04548">
        <ele>64.967575</ele>
        <time>2022-12-23T12:50:15.733Z</time>
      </trkpt>
      <trkpt lat="45.12066" lon="-1.04548">
        <ele>65.00399</ele>
        <time>2022-12-23T12:50:18.754Z</time>
      </trkpt>
      <trkpt lat="45.12053" lon="-1.04548">
        <ele>64.958615</ele>
        <time>2022-12-23T12:50:21.757Z</time>
      </trkpt>
      <trkpt lat="45.1204" lon="-1.04549">
        <ele>64.906208</ele>
        <time>2022-12-23T12:50:24.751Z</time>
      </trkpt>
      <trkpt lat="45.12027" lon="-1.04549">
        <ele>64.852995</ele>
        <time>2022-12-23T12:50:27.763Z</time>
      </trkpt>
      <trkpt lat="45.12014" lon="-1.04549">
        <ele>64.799754</ele>
        <time>2022-12-23T12:50:30.754Z</time>
      </trkpt>
      <trkpt lat="45.12002" lon="-1.0455">
        <ele>64.749829</ele>
        <time>2022-12-23T12:50:33.735Z</time>
      </trkpt>
      <trkpt lat="45.11989" lon="-1.0455">
        <ele>64.697434</ele>
        <time>2022-12-23T12:50:36.751Z</time>
      </trkpt>
      <trkpt lat="45.11976" lon="-1.0455">
        <ele>64.643809</ele>
        <time>2022-12-23T12:50:39.753Z</time>
      </trkpt>
      <trkpt lat="45.11963" lon="-1.0455">
        <ele>64.588522</ele>
        <time>2022-12-23T12:50:42.750Z</time>
      </trkpt>
      <trkpt lat="45.1195" lon="-1.0455">
        <ele>64.533657</ele>
        <time>2022-12-23T12:50:45.756Z</time>
      </trkpt>
      <trkpt lat="45.1194" lon="-1.0455">
        <ele>64.495255</ele>
        <time>2022-12-23T12:50:47.752Z</time>
      </trkpt>
      <trkpt lat="45.11927" lon="-1.04551">
        <ele>64.440799</ele>
        <time>2022-12-23T12:50:50.752Z</time>
      </trkpt>
      <trkpt lat="45.11918" lon="-1.04551">
        <ele>64.401199</ele>
        <time>2022-12-23T12:50:52.755Z</time>
      </trkpt>
      <trkpt lat="45.11904" lon="-1.04551">
        <ele>64.346334</ele>
        <time>2022-12-23T12:50:55.755Z</time>
      </trkpt>
      <trkpt lat="45.11891" lon="-1.04551">
        <ele>64.293093</ele>
        <time>2022-12-23T12:50:58.753Z</time>
      </trkpt>
      <trkpt lat="45.11878" lon="-1.04551">
        <ele>64.27892</ele>
        <time>2022-12-23T12:51:01.745Z</time>
      </trkpt>
      <trkpt lat="45.11869" lon="-1.04551">
        <ele>64.298032</ele>
        <time>2022-12-23T12:51:03.756Z</time>
      </trkpt>
      <trkpt lat="45.11857" lon="-1.04551">
        <ele>64.323233</ele>
        <time>2022-12-23T12:51:06.758Z</time>
      </trkpt>
      <trkpt lat="45.11846" lon="-1.04551">
        <ele>64.345703</ele>
        <time>2022-12-23T12:51:09.748Z</time>
      </trkpt>
      <trkpt lat="45.11835" lon="-1.04551">
        <ele>64.368807</ele>
        <time>2022-12-23T12:51:12.756Z</time>
      </trkpt>
      <trkpt lat="45.11824" lon="-1.04551">
        <ele>64.393378</ele>
        <time>2022-12-23T12:51:15.755Z</time>
      </trkpt>
      <trkpt lat="45.11812" lon="-1.04552">
        <ele>64.419008</ele>
        <time>2022-12-23T12:51:18.752Z</time>
      </trkpt>
      <trkpt lat="45.118" lon="-1.04552">
        <ele>64.444005</ele>
        <time>2022-12-23T12:51:21.753Z</time>
      </trkpt>
      <trkpt lat="45.11788" lon="-1.04552">
        <ele>64.468995</ele>
        <time>2022-12-23T12:51:24.757Z</time>
      </trkpt>
      <trkpt lat="45.11776" lon="-1.04552">
        <ele>64.493987</ele>
        <time>2022-12-23T12:51:27.754Z</time>
      </trkpt>
      <trkpt lat="45.11764" lon="-1.04553">
        <ele>64.518783</ele>
        <time>2022-12-23T12:51:30.753Z</time>
      </trkpt>
      <trkpt lat="45.11752" lon="-1.04553">
        <ele>64.543563</ele>
        <time>2022-12-23T12:51:33.755Z</time>
      </trkpt>
      <trkpt lat="45.11741" lon="-1.04553">
        <ele>64.566457</ele>
        <time>2022-12-23T12:51:36.760Z</time>
      </trkpt>
      <trkpt lat="45.11731" lon="-1.04553">
        <ele>64.588507</ele>
        <time>2022-12-23T12:51:39.756Z</time>
      </trkpt>
      <trkpt lat="45.1172" lon="-1.04553">
        <ele>64.612242</ele>
        <time>2022-12-23T12:51:42.745Z</time>
      </trkpt>
      <trkpt lat="45.11708" lon="-1.04553">
        <ele>64.636812</ele>
        <time>2022-12-23T12:51:45.749Z</time>
      </trkpt>
      <trkpt lat="45.11696" lon="-1.04553">
        <ele>64.64389</ele>
        <time>2022-12-23T12:51:48.755Z</time>
      </trkpt>
      <trkpt lat="45.11683" lon="-1.04553">
        <ele>64.644853</ele>
        <time>2022-12-23T12:51:51.759Z</time>
      </trkpt>
      <trkpt lat="45.11671" lon="-1.04553">
        <ele>64.645777</ele>
        <time>2022-12-23T12:51:54.746Z</time>
      </trkpt>
      <trkpt lat="45.1166" lon="-1.04554">
        <ele>64.646641</ele>
        <time>2022-12-23T12:51:57.753Z</time>
      </trkpt>
      <trkpt lat="45.1165" lon="-1.04554">
        <ele>64.647464</ele>
        <time>2022-12-23T12:52:00.750Z</time>
      </trkpt>
      <trkpt lat="45.11638" lon="-1.04555">
        <ele>64.648357</ele>
        <time>2022-12-23T12:52:03.753Z</time>
      </trkpt>
      <trkpt lat="45.11626" lon="-1.04555">
        <ele>64.649304</ele>
        <time>2022-12-23T12:52:06.754Z</time>
      </trkpt>
      <trkpt lat="45.11614" lon="-1.04555">
        <ele>64.650252</ele>
        <time>2022-12-23T12:52:09.754Z</time>
      </trkpt>
      <trkpt lat="45.11602" lon="-1.04555">
        <ele>64.651176</ele>
        <time>2022-12-23T12:52:12.755Z</time>
      </trkpt>
      <trkpt lat="45.1159" lon="-1.04555">
        <ele>64.652131</ele>
        <time>2022-12-23T12:52:15.754Z</time>
      </trkpt>
      <trkpt lat="45.11578" lon="-1.04555">
        <ele>64.653071</ele>
        <time>2022-12-23T12:52:18.761Z</time>
      </trkpt>
      <trkpt lat="45.11565" lon="-1.04555">
        <ele>64.654011</ele>
        <time>2022-12-23T12:52:21.755Z</time>
      </trkpt>
      <trkpt lat="45.11553" lon="-1.04555">
        <ele>64.65495</ele>
        <time>2022-12-23T12:52:24.759Z</time>
      </trkpt>
      <trkpt lat="45.11541" lon="-1.04555">
        <ele>64.655913</ele>
        <time>2022-12-23T12:52:27.744Z</time>
      </trkpt>
      <trkpt lat="45.11529" lon="-1.04556">
        <ele>64.656845</ele>
        <time>2022-12-23T12:52:30.755Z</time>
      </trkpt>
      <trkpt lat="45.11518" lon="-1.04555">
        <ele>64.660874</ele>
        <time>2022-12-23T12:52:33.730Z</time>
      </trkpt>
      <trkpt lat="45.11506" lon="-1.04555">
        <ele>64.667101</ele>
        <time>2022-12-23T12:52:36.747Z</time>
      </trkpt>
      <trkpt lat="45.11494" lon="-1.04555">
        <ele>64.673595</ele>
        <time>2022-12-23T12:52:39.748Z</time>
      </trkpt>
      <trkpt lat="45.11482" lon="-1.04556">
        <ele>64.680307</ele>
        <time>2022-12-23T12:52:42.758Z</time>
      </trkpt>
      <trkpt lat="45.1147" lon="-1.04556">
        <ele>64.686911</ele>
        <time>2022-12-23T12:52:45.753Z</time>
      </trkpt>
      <trkpt lat="45.11457" lon="-1.04556">
        <ele>64.693514</ele>
        <time>2022-12-23T12:52:48.756Z</time>
      </trkpt>
      <trkpt lat="45.11445" lon="-1.04556">
        <ele>64.700223</ele>
        <time>2022-12-23T12:52:51.749Z</time>
      </trkpt>
      <trkpt lat="45.11433" lon="-1.04556">
        <ele>64.706612</ele>
        <time>2022-12-23T12:52:54.752Z</time>
      </trkpt>
      <trkpt lat="45.11422" lon="-1.04557">
        <ele>64.712249</ele>
        <time>2022-12-23T12:52:57.755Z</time>
      </trkpt>
      <trkpt lat="45.11412" lon="-1.04557">
        <ele>64.717778</ele>
        <time>2022-12-23T12:53:00.757Z</time>
      </trkpt>
      <trkpt lat="45.11401" lon="-1.04557">
        <ele>64.723736</ele>
        <time>2022-12-23T12:53:03.755Z</time>
      </trkpt>
      <trkpt lat="45.11389" lon="-1.04558">
        <ele>64.72992</ele>
        <time>2022-12-23T12:53:06.734Z</time>
      </trkpt>
      <trkpt lat="45.11378" lon="-1.04558">
        <ele>64.736202</ele>
        <time>2022-12-23T12:53:09.753Z</time>
      </trkpt>
      <trkpt lat="45.11366" lon="-1.04558">
        <ele>64.742537</ele>
        <time>2022-12-23T12:53:12.758Z</time>
      </trkpt>
      <trkpt lat="45.11354" lon="-1.04558">
        <ele>64.748817</ele>
        <time>2022-12-23T12:53:15.747Z</time>
      </trkpt>
      <trkpt lat="45.11342" lon="-1.04558">
        <ele>64.730496</ele>
        <time>2022-12-23T12:53:18.754Z</time>
      </trkpt>
      <trkpt lat="45.1133" lon="-1.04558">
        <ele>64.634096</ele>
        <time>2022-12-23T12:53:21.759Z</time>
      </trkpt>
      <trkpt lat="45.11318" lon="-1.04559">
        <ele>64.534512</ele>
        <time>2022-12-23T12:53:24.754Z</time>
      </trkpt>
      <trkpt lat="45.11305" lon="-1.04559">
        <ele>64.43336</ele>
        <time>2022-12-23T12:53:27.756Z</time>
      </trkpt>
      <trkpt lat="45.11293" lon="-1.04559">
        <ele>64.334582</ele>
        <time>2022-12-23T12:53:30.752Z</time>
      </trkpt>
      <trkpt lat="45.1128" lon="-1.04559">
        <ele>64.233424</ele>
        <time>2022-12-23T12:53:33.754Z</time>
      </trkpt>
      <trkpt lat="45.11269" lon="-1.04559">
        <ele>64.143394</ele>
        <time>2022-12-23T12:53:36.762Z</time>
      </trkpt>
      <trkpt lat="45.11259" lon="-1.04559">
        <ele>64.064541</ele>
        <time>2022-12-23T12:53:39.752Z</time>
      </trkpt>
      <trkpt lat="45.11248" lon="-1.0456">
        <ele>63.9792</ele>
        <time>2022-12-23T12:53:42.754Z</time>
      </trkpt>
      <trkpt lat="45.11236" lon="-1.0456">
        <ele>63.887604</ele>
        <time>2022-12-23T12:53:45.751Z</time>
      </trkpt>
      <trkpt lat="45.11225" lon="-1.04561">
        <ele>63.793578</ele>
        <time>2022-12-23T12:53:48.753Z</time>
      </trkpt>
      <trkpt lat="45.11212" lon="-1.0456">
        <ele>63.696401</ele>
        <time>2022-12-23T12:53:51.751Z</time>
      </trkpt>
      <trkpt lat="45.112" lon="-1.04561">
        <ele>63.593655</ele>
        <time>2022-12-23T12:53:54.735Z</time>
      </trkpt>
      <trkpt lat="45.11186" lon="-1.04561">
        <ele>63.488514</ele>
        <time>2022-12-23T12:53:57.755Z</time>
      </trkpt>
      <trkpt lat="45.11174" lon="-1.04561">
        <ele>63.393727</ele>
        <time>2022-12-23T12:54:00.749Z</time>
      </trkpt>
      <trkpt lat="45.11164" lon="-1.04562">
        <ele>63.31752</ele>
        <time>2022-12-23T12:54:03.757Z</time>
      </trkpt>
      <trkpt lat="45.11154" lon="-1.04562">
        <ele>63.290482</ele>
        <time>2022-12-23T12:54:06.754Z</time>
      </trkpt>
      <trkpt lat="45.11144" lon="-1.04562">
        <ele>63.262052</ele>
        <time>2022-12-23T12:54:09.761Z</time>
      </trkpt>
      <trkpt lat="45.11131" lon="-1.04562">
        <ele>63.224983</ele>
        <time>2022-12-23T12:54:12.756Z</time>
      </trkpt>
      <trkpt lat="45.11118" lon="-1.04562">
        <ele>63.189028</ele>
        <time>2022-12-23T12:54:15.770Z</time>
      </trkpt>
      <trkpt lat="45.11105" lon="-1.04562">
        <ele>63.152229</ele>
        <time>2022-12-23T12:54:18.744Z</time>
      </trkpt>
      <trkpt lat="45.11092" lon="-1.04562">
        <ele>63.115717</ele>
        <time>2022-12-23T12:54:21.759Z</time>
      </trkpt>
      <trkpt lat="45.11079" lon="-1.04562">
        <ele>63.081713</ele>
        <time>2022-12-23T12:54:24.752Z</time>
      </trkpt>
      <trkpt lat="45.11068" lon="-1.04562">
        <ele>63.05077</ele>
        <time>2022-12-23T12:54:27.755Z</time>
      </trkpt>
      <trkpt lat="45.11057" lon="-1.04563">
        <ele>63.018981</ele>
        <time>2022-12-23T12:54:30.756Z</time>
      </trkpt>
      <trkpt lat="45.11045" lon="-1.04562">
        <ele>62.984976</ele>
        <time>2022-12-23T12:54:33.742Z</time>
      </trkpt>
      <trkpt lat="45.11031" lon="-1.04563">
        <ele>62.947069</ele>
        <time>2022-12-23T12:54:36.754Z</time>
      </trkpt>
      <trkpt lat="45.11019" lon="-1.04562">
        <ele>62.913622</ele>
        <time>2022-12-23T12:54:39.753Z</time>
      </trkpt>
      <trkpt lat="45.11007" lon="-1.04563">
        <ele>62.878782</ele>
        <time>2022-12-23T12:54:42.732Z</time>
      </trkpt>
      <trkpt lat="45.10993" lon="-1.04563">
        <ele>62.8417</ele>
        <time>2022-12-23T12:54:45.752Z</time>
      </trkpt>
      <trkpt lat="45.1098" lon="-1.04563">
        <ele>62.811551</ele>
        <time>2022-12-23T12:54:48.752Z</time>
      </trkpt>
      <trkpt lat="45.10968" lon="-1.04564">
        <ele>62.791076</ele>
        <time>2022-12-23T12:54:51.751Z</time>
      </trkpt>
      <trkpt lat="45.10956" lon="-1.04564">
        <ele>62.770937</ele>
        <time>2022-12-23T12:54:54.744Z</time>
      </trkpt>
      <trkpt lat="45.10944" lon="-1.04564">
        <ele>62.751783</ele>
        <time>2022-12-23T12:54:57.757Z</time>
      </trkpt>
      <trkpt lat="45.10935" lon="-1.04564">
        <ele>62.736395</ele>
        <time>2022-12-23T12:55:00.752Z</time>
      </trkpt>
      <trkpt lat="45.10925" lon="-1.04564">
        <ele>62.720186</ele>
        <time>2022-12-23T12:55:03.754Z</time>
      </trkpt>
      <trkpt lat="45.10913" lon="-1.04564">
        <ele>62.701687</ele>
        <time>2022-12-23T12:55:06.754Z</time>
      </trkpt>
      <trkpt lat="45.10901" lon="-1.04564">
        <ele>62.681714</ele>
        <time>2022-12-23T12:55:09.769Z</time>
      </trkpt>
      <trkpt lat="45.10888" lon="-1.04564">
        <ele>62.660594</ele>
        <time>2022-12-23T12:55:12.760Z</time>
      </trkpt>
      <trkpt lat="45.10875" lon="-1.04565">
        <ele>62.639144</ele>
        <time>2022-12-23T12:55:15.753Z</time>
      </trkpt>
      <trkpt lat="45.10862" lon="-1.04564">
        <ele>62.617847</ele>
        <time>2022-12-23T12:55:18.734Z</time>
      </trkpt>
      <trkpt lat="45.10849" lon="-1.04565">
        <ele>62.596357</ele>
        <time>2022-12-23T12:55:21.751Z</time>
      </trkpt>
      <trkpt lat="45.10837" lon="-1.04566">
        <ele>62.576056</ele>
        <time>2022-12-23T12:55:24.746Z</time>
      </trkpt>
      <trkpt lat="45.10825" lon="-1.04566">
        <ele>62.556245</ele>
        <time>2022-12-23T12:55:27.753Z</time>
      </trkpt>
      <trkpt lat="45.10813" lon="-1.04566">
        <ele>62.537745</ele>
        <time>2022-12-23T12:55:30.754Z</time>
      </trkpt>
      <trkpt lat="45.10803" lon="-1.04566">
        <ele>62.519075</ele>
        <time>2022-12-23T12:55:33.762Z</time>
      </trkpt>
      <trkpt lat="45.10791" lon="-1.04566">
        <ele>62.494661</ele>
        <time>2022-12-23T12:55:36.741Z</time>
      </trkpt>
      <trkpt lat="45.1078" lon="-1.04566">
        <ele>62.469604</ele>
        <time>2022-12-23T12:55:39.756Z</time>
      </trkpt>
      <trkpt lat="45.10768" lon="-1.04565">
        <ele>62.444082</ele>
        <time>2022-12-23T12:55:42.749Z</time>
      </trkpt>
      <trkpt lat="45.10755" lon="-1.04565">
        <ele>62.417737</ele>
        <time>2022-12-23T12:55:45.751Z</time>
      </trkpt>
      <trkpt lat="45.10743" lon="-1.04565">
        <ele>62.391831</ele>
        <time>2022-12-23T12:55:48.764Z</time>
      </trkpt>
      <trkpt lat="45.10731" lon="-1.04566">
        <ele>62.36524</ele>
        <time>2022-12-23T12:55:51.751Z</time>
      </trkpt>
      <trkpt lat="45.10718" lon="-1.04567">
        <ele>62.338034</ele>
        <time>2022-12-23T12:55:54.743Z</time>
      </trkpt>
      <trkpt lat="45.10705" lon="-1.04567">
        <ele>62.309754</ele>
        <time>2022-12-23T12:55:57.753Z</time>
      </trkpt>
      <trkpt lat="45.10691" lon="-1.04568">
        <ele>62.280627</ele>
        <time>2022-12-23T12:56:00.755Z</time>
      </trkpt>
      <trkpt lat="45.10682" lon="-1.04569">
        <ele>62.260658</ele>
        <time>2022-12-23T12:56:02.757Z</time>
      </trkpt>
      <trkpt lat="45.10673" lon="-1.04569">
        <ele>62.240533</ele>
        <time>2022-12-23T12:56:04.756Z</time>
      </trkpt>
      <trkpt lat="45.10664" lon="-1.04569">
        <ele>62.220836</ele>
        <time>2022-12-23T12:56:06.761Z</time>
      </trkpt>
      <trkpt lat="45.1065" lon="-1.0457">
        <ele>62.192342</ele>
        <time>2022-12-23T12:56:09.747Z</time>
      </trkpt>
      <trkpt lat="45.1064" lon="-1.04569">
        <ele>62.171351</ele>
        <time>2022-12-23T12:56:11.755Z</time>
      </trkpt>
      <trkpt lat="45.10631" lon="-1.04569">
        <ele>62.151654</ele>
        <time>2022-12-23T12:56:13.733Z</time>
      </trkpt>
      <trkpt lat="45.10622" lon="-1.0457">
        <ele>62.125249</ele>
        <time>2022-12-23T12:56:15.751Z</time>
      </trkpt>
      <trkpt lat="45.10613" lon="-1.0457">
        <ele>62.088778</ele>
        <time>2022-12-23T12:56:17.750Z</time>
      </trkpt>
      <trkpt lat="45.10604" lon="-1.04569">
        <ele>62.051888</ele>
        <time>2022-12-23T12:56:19.754Z</time>
      </trkpt>
      <trkpt lat="45.10595" lon="-1.0457">
        <ele>62.015778</ele>
        <time>2022-12-23T12:56:21.733Z</time>
      </trkpt>
      <trkpt lat="45.10582" lon="-1.04569">
        <ele>61.96739</ele>
        <time>2022-12-23T12:56:24.753Z</time>
      </trkpt>
      <trkpt lat="45.1057" lon="-1.0457">
        <ele>61.919025</ele>
        <time>2022-12-23T12:56:27.752Z</time>
      </trkpt>
      <trkpt lat="45.10557" lon="-1.0457">
        <ele>61.867892</ele>
        <time>2022-12-23T12:56:30.754Z</time>
      </trkpt>
      <trkpt lat="45.10544" lon="-1.0457">
        <ele>61.815947</ele>
        <time>2022-12-23T12:56:33.763Z</time>
      </trkpt>
      <trkpt lat="45.10531" lon="-1.04571">
        <ele>61.762813</ele>
        <time>2022-12-23T12:56:36.751Z</time>
      </trkpt>
      <trkpt lat="45.10522" lon="-1.04571">
        <ele>61.726743</ele>
        <time>2022-12-23T12:56:38.753Z</time>
      </trkpt>
      <trkpt lat="45.10508" lon="-1.04571">
        <ele>61.674409</ele>
        <time>2022-12-23T12:56:41.752Z</time>
      </trkpt>
      <trkpt lat="45.10499" lon="-1.04571">
        <ele>61.638334</ele>
        <time>2022-12-23T12:56:43.754Z</time>
      </trkpt>
      <trkpt lat="45.10486" lon="-1.04571">
        <ele>61.585612</ele>
        <time>2022-12-23T12:56:46.749Z</time>
      </trkpt>
      <trkpt lat="45.10473" lon="-1.04571">
        <ele>61.535268</ele>
        <time>2022-12-23T12:56:49.750Z</time>
      </trkpt>
      <trkpt lat="45.10462" lon="-1.04572">
        <ele>61.488808</ele>
        <time>2022-12-23T12:56:52.756Z</time>
      </trkpt>
      <trkpt lat="45.10449" lon="-1.04572">
        <ele>61.439636</ele>
        <time>2022-12-23T12:56:55.757Z</time>
      </trkpt>
      <trkpt lat="45.10437" lon="-1.04572">
        <ele>61.479169</ele>
        <time>2022-12-23T12:56:58.755Z</time>
      </trkpt>
      <trkpt lat="45.10424" lon="-1.04572">
        <ele>61.551097</ele>
        <time>2022-12-23T12:57:01.752Z</time>
      </trkpt>
      <trkpt lat="45.10411" lon="-1.04573">
        <ele>61.621881</ele>
        <time>2022-12-23T12:57:04.753Z</time>
      </trkpt>
      <trkpt lat="45.10398" lon="-1.04572">
        <ele>61.694355</ele>
        <time>2022-12-23T12:57:07.748Z</time>
      </trkpt>
      <trkpt lat="45.10389" lon="-1.04572">
        <ele>61.746195</ele>
        <time>2022-12-23T12:57:09.755Z</time>
      </trkpt>
      <trkpt lat="45.1038" lon="-1.04573">
        <ele>61.796914</ele>
        <time>2022-12-23T12:57:11.765Z</time>
      </trkpt>
      <trkpt lat="45.10367" lon="-1.04573">
        <ele>61.868273</ele>
        <time>2022-12-23T12:57:14.731Z</time>
      </trkpt>
      <trkpt lat="45.10357" lon="-1.04573">
        <ele>61.924002</ele>
        <time>2022-12-23T12:57:16.741Z</time>
      </trkpt>
      <trkpt lat="45.10348" lon="-1.04573">
        <ele>61.975274</ele>
        <time>2022-12-23T12:57:18.741Z</time>
      </trkpt>
      <trkpt lat="45.10335" lon="-1.04573">
        <ele>62.047164</ele>
        <time>2022-12-23T12:57:21.756Z</time>
      </trkpt>
      <trkpt lat="45.10323" lon="-1.04573">
        <ele>62.111251</ele>
        <time>2022-12-23T12:57:24.758Z</time>
      </trkpt>
      <trkpt lat="45.10313" lon="-1.04573">
        <ele>62.170881</ele>
        <time>2022-12-23T12:57:27.751Z</time>
      </trkpt>
      <trkpt lat="45.10302" lon="-1.04573">
        <ele>62.231079</ele>
        <time>2022-12-23T12:57:30.752Z</time>
      </trkpt>
      <trkpt lat="45.1029" lon="-1.04574">
        <ele>62.295725</ele>
        <time>2022-12-23T12:57:33.753Z</time>
      </trkpt>
      <trkpt lat="45.10278" lon="-1.04573">
        <ele>62.363718</ele>
        <time>2022-12-23T12:57:36.753Z</time>
      </trkpt>
      <trkpt lat="45.10266" lon="-1.04574">
        <ele>62.431336</ele>
        <time>2022-12-23T12:57:39.754Z</time>
      </trkpt>
      <trkpt lat="45.10253" lon="-1.04575">
        <ele>62.511661</ele>
        <time>2022-12-23T12:57:42.758Z</time>
      </trkpt>
      <trkpt lat="45.1024" lon="-1.04575">
        <ele>62.594371</ele>
        <time>2022-12-23T12:57:45.755Z</time>
      </trkpt>
      <trkpt lat="45.10228" lon="-1.04575">
        <ele>62.668934</ele>
        <time>2022-12-23T12:57:48.745Z</time>
      </trkpt>
      <trkpt lat="45.10217" lon="-1.04575">
        <ele>62.739117</ele>
        <time>2022-12-23T12:57:51.759Z</time>
      </trkpt>
      <trkpt lat="45.10207" lon="-1.04575">
        <ele>62.800523</ele>
        <time>2022-12-23T12:57:54.754Z</time>
      </trkpt>
      <trkpt lat="45.10197" lon="-1.04576">
        <ele>62.863907</ele>
        <time>2022-12-23T12:57:57.753Z</time>
      </trkpt>
      <trkpt lat="45.10186" lon="-1.04576">
        <ele>62.933508</ele>
        <time>2022-12-23T12:58:00.747Z</time>
      </trkpt>
      <trkpt lat="45.10174" lon="-1.04576">
        <ele>63.008703</ele>
        <time>2022-12-23T12:58:03.783Z</time>
      </trkpt>
      <trkpt lat="45.10162" lon="-1.04576">
        <ele>63.084552</ele>
        <time>2022-12-23T12:58:06.753Z</time>
      </trkpt>
      <trkpt lat="45.1015" lon="-1.04577">
        <ele>63.161622</ele>
        <time>2022-12-23T12:58:09.759Z</time>
      </trkpt>
      <trkpt lat="45.10137" lon="-1.04577">
        <ele>63.23744</ele>
        <time>2022-12-23T12:58:12.752Z</time>
      </trkpt>
      <trkpt lat="45.10125" lon="-1.04577">
        <ele>63.312631</ele>
        <time>2022-12-23T12:58:15.754Z</time>
      </trkpt>
      <trkpt lat="45.10113" lon="-1.04577">
        <ele>63.388494</ele>
        <time>2022-12-23T12:58:18.762Z</time>
      </trkpt>
      <trkpt lat="45.10101" lon="-1.04577">
        <ele>63.467443</ele>
        <time>2022-12-23T12:58:21.759Z</time>
      </trkpt>
      <trkpt lat="45.10088" lon="-1.04578">
        <ele>63.544695</ele>
        <time>2022-12-23T12:58:24.744Z</time>
      </trkpt>
      <trkpt lat="45.10076" lon="-1.04579">
        <ele>63.534815</ele>
        <time>2022-12-23T12:58:27.752Z</time>
      </trkpt>
      <trkpt lat="45.10063" lon="-1.04578">
        <ele>63.510728</ele>
        <time>2022-12-23T12:58:30.749Z</time>
      </trkpt>
      <trkpt lat="45.10053" lon="-1.04578">
        <ele>63.489426</ele>
        <time>2022-12-23T12:58:33.762Z</time>
      </trkpt>
      <trkpt lat="45.10042" lon="-1.04577">
        <ele>63.468516</ele>
        <time>2022-12-23T12:58:36.762Z</time>
      </trkpt>
      <trkpt lat="45.10031" lon="-1.04578">
        <ele>63.44622</ele>
        <time>2022-12-23T12:58:39.756Z</time>
      </trkpt>
      <trkpt lat="45.1002" lon="-1.04578">
        <ele>63.423337</ele>
        <time>2022-12-23T12:58:42.758Z</time>
      </trkpt>
      <trkpt lat="45.10007" lon="-1.04578">
        <ele>63.399228</ele>
        <time>2022-12-23T12:58:45.733Z</time>
      </trkpt>
      <trkpt lat="45.09995" lon="-1.04579">
        <ele>63.374142</ele>
        <time>2022-12-23T12:58:48.754Z</time>
      </trkpt>
      <trkpt lat="45.09982" lon="-1.04579">
        <ele>63.349067</ele>
        <time>2022-12-23T12:58:51.757Z</time>
      </trkpt>
      <trkpt lat="45.09969" lon="-1.04579">
        <ele>63.322802</ele>
        <time>2022-12-23T12:58:54.729Z</time>
      </trkpt>
      <trkpt lat="45.09956" lon="-1.04579">
        <ele>63.29594</ele>
        <time>2022-12-23T12:58:57.754Z</time>
      </trkpt>
      <trkpt lat="45.09943" lon="-1.0458">
        <ele>63.270059</ele>
        <time>2022-12-23T12:59:00.752Z</time>
      </trkpt>
      <trkpt lat="45.09932" lon="-1.0458">
        <ele>63.248565</ele>
        <time>2022-12-23T12:59:03.734Z</time>
      </trkpt>
      <trkpt lat="45.09921" lon="-1.0458">
        <ele>63.226865</ele>
        <time>2022-12-23T12:59:06.737Z</time>
      </trkpt>
      <trkpt lat="45.09909" lon="-1.04581">
        <ele>63.203335</ele>
        <time>2022-12-23T12:59:09.738Z</time>
      </trkpt>
      <trkpt lat="45.09896" lon="-1.04581">
        <ele>63.39338</ele>
        <time>2022-12-23T12:59:12.738Z</time>
      </trkpt>
      <trkpt lat="45.09883" lon="-1.04581">
        <ele>63.636247</ele>
        <time>2022-12-23T12:59:15.745Z</time>
      </trkpt>
      <trkpt lat="45.0987" lon="-1.04581">
        <ele>63.87725</ele>
        <time>2022-12-23T12:59:18.754Z</time>
      </trkpt>
      <trkpt lat="45.09859" lon="-1.04581">
        <ele>64.099571</ele>
        <time>2022-12-23T12:59:21.751Z</time>
      </trkpt>
      <trkpt lat="45.09846" lon="-1.04581">
        <ele>64.333112</ele>
        <time>2022-12-23T12:59:24.752Z</time>
      </trkpt>
      <trkpt lat="45.09833" lon="-1.04581">
        <ele>64.577862</ele>
        <time>2022-12-23T12:59:27.746Z</time>
      </trkpt>
      <trkpt lat="45.0982" lon="-1.04582">
        <ele>64.811403</ele>
        <time>2022-12-23T12:59:30.736Z</time>
      </trkpt>
      <trkpt lat="45.09808" lon="-1.04582">
        <ele>65.043245</ele>
        <time>2022-12-23T12:59:33.751Z</time>
      </trkpt>
      <trkpt lat="45.09795" lon="-1.04581">
        <ele>65.288336</ele>
        <time>2022-12-23T12:59:36.741Z</time>
      </trkpt>
      <trkpt lat="45.09782" lon="-1.04581">
        <ele>65.538801</ele>
        <time>2022-12-23T12:59:39.738Z</time>
      </trkpt>
      <trkpt lat="45.09768" lon="-1.04581">
        <ele>65.787305</ele>
        <time>2022-12-23T12:59:42.756Z</time>
      </trkpt>
      <trkpt lat="45.09757" lon="-1.04581">
        <ele>66.005901</ele>
        <time>2022-12-23T12:59:45.752Z</time>
      </trkpt>
      <trkpt lat="45.09746" lon="-1.04581">
        <ele>66.203936</ele>
        <time>2022-12-23T12:59:48.756Z</time>
      </trkpt>
      <trkpt lat="45.09735" lon="-1.04581">
        <ele>66.416949</ele>
        <time>2022-12-23T12:59:51.754Z</time>
      </trkpt>
      <trkpt lat="45.09722" lon="-1.04581">
        <ele>66.517172</ele>
        <time>2022-12-23T12:59:54.754Z</time>
      </trkpt>
      <trkpt lat="45.0971" lon="-1.04581">
        <ele>66.404183</ele>
        <time>2022-12-23T12:59:57.752Z</time>
      </trkpt>
      <trkpt lat="45.09697" lon="-1.04581">
        <ele>66.287538</ele>
        <time>2022-12-23T13:00:00.750Z</time>
      </trkpt>
      <trkpt lat="45.09684" lon="-1.04581">
        <ele>66.170008</ele>
        <time>2022-12-23T13:00:03.767Z</time>
      </trkpt>
      <trkpt lat="45.09672" lon="-1.04582">
        <ele>66.057829</ele>
        <time>2022-12-23T13:00:06.735Z</time>
      </trkpt>
      <trkpt lat="45.0966" lon="-1.04582">
        <ele>65.947588</ele>
        <time>2022-12-23T13:00:09.752Z</time>
      </trkpt>
      <trkpt lat="45.09648" lon="-1.04582">
        <ele>65.840993</ele>
        <time>2022-12-23T13:00:12.757Z</time>
      </trkpt>
      <trkpt lat="45.09637" lon="-1.04583">
        <ele>65.741667</ele>
        <time>2022-12-23T13:00:15.754Z</time>
      </trkpt>
      <trkpt lat="45.09628" lon="-1.04583">
        <ele>65.653291</ele>
        <time>2022-12-23T13:00:18.752Z</time>
      </trkpt>
      <trkpt lat="45.09618" lon="-1.04583">
        <ele>65.563998</ele>
        <time>2022-12-23T13:00:21.758Z</time>
      </trkpt>
      <trkpt lat="45.09607" lon="-1.04583">
        <ele>65.463761</ele>
        <time>2022-12-23T13:00:24.753Z</time>
      </trkpt>
      <trkpt lat="45.09595" lon="-1.04583">
        <ele>65.354416</ele>
        <time>2022-12-23T13:00:27.751Z</time>
      </trkpt>
      <trkpt lat="45.09582" lon="-1.04583">
        <ele>65.240533</ele>
        <time>2022-12-23T13:00:30.733Z</time>
      </trkpt>
      <trkpt lat="45.0957" lon="-1.04584">
        <ele>65.124798</ele>
        <time>2022-12-23T13:00:33.760Z</time>
      </trkpt>
      <trkpt lat="45.09557" lon="-1.04584">
        <ele>65.00818</ele>
        <time>2022-12-23T13:00:36.752Z</time>
      </trkpt>
      <trkpt lat="45.09544" lon="-1.04584">
        <ele>64.903409</ele>
        <time>2022-12-23T13:00:39.770Z</time>
      </trkpt>
      <trkpt lat="45.09531" lon="-1.04584">
        <ele>64.834247</ele>
        <time>2022-12-23T13:00:42.757Z</time>
      </trkpt>
      <trkpt lat="45.09518" lon="-1.04584">
        <ele>64.76563</ele>
        <time>2022-12-23T13:00:45.733Z</time>
      </trkpt>
      <trkpt lat="45.09505" lon="-1.04585">
        <ele>64.694283</ele>
        <time>2022-12-23T13:00:48.756Z</time>
      </trkpt>
      <trkpt lat="45.09491" lon="-1.04586">
        <ele>64.620116</ele>
        <time>2022-12-23T13:00:51.749Z</time>
      </trkpt>
      <trkpt lat="45.09482" lon="-1.04586">
        <ele>64.569689</ele>
        <time>2022-12-23T13:00:53.755Z</time>
      </trkpt>
      <trkpt lat="45.09472" lon="-1.04586">
        <ele>64.515545</ele>
        <time>2022-12-23T13:00:55.753Z</time>
      </trkpt>
      <trkpt lat="45.09463" lon="-1.04585">
        <ele>64.466757</ele>
        <time>2022-12-23T13:00:57.754Z</time>
      </trkpt>
      <trkpt lat="45.09449" lon="-1.04586">
        <ele>64.396494</ele>
        <time>2022-12-23T13:01:00.734Z</time>
      </trkpt>
      <trkpt lat="45.09438" lon="-1.04586">
        <ele>64.332701</ele>
        <time>2022-12-23T13:01:03.769Z</time>
      </trkpt>
      <trkpt lat="45.09425" lon="-1.04586">
        <ele>64.265152</ele>
        <time>2022-12-23T13:01:06.755Z</time>
      </trkpt>
      <trkpt lat="45.09412" lon="-1.04586">
        <ele>64.195458</ele>
        <time>2022-12-23T13:01:09.734Z</time>
      </trkpt>
      <trkpt lat="45.09398" lon="-1.04586">
        <ele>64.123085</ele>
        <time>2022-12-23T13:01:12.754Z</time>
      </trkpt>
      <trkpt lat="45.09385" lon="-1.04587">
        <ele>64.051706</ele>
        <time>2022-12-23T13:01:15.759Z</time>
      </trkpt>
      <trkpt lat="45.09376" lon="-1.04587">
        <ele>64.002917</ele>
        <time>2022-12-23T13:01:17.753Z</time>
      </trkpt>
      <trkpt lat="45.09367" lon="-1.04587">
        <ele>63.952221</ele>
        <time>2022-12-23T13:01:19.756Z</time>
      </trkpt>
      <trkpt lat="45.09357" lon="-1.04588">
        <ele>63.852888</ele>
        <time>2022-12-23T13:01:21.753Z</time>
      </trkpt>
      <trkpt lat="45.09348" lon="-1.04588">
        <ele>63.756656</ele>
        <time>2022-12-23T13:01:23.761Z</time>
      </trkpt>
      <trkpt lat="45.09335" lon="-1.04588">
        <ele>63.614466</ele>
        <time>2022-12-23T13:01:26.753Z</time>
      </trkpt>
      <trkpt lat="45.09325" lon="-1.04588">
        <ele>63.514095</ele>
        <time>2022-12-23T13:01:28.752Z</time>
      </trkpt>
      <trkpt lat="45.09316" lon="-1.04588">
        <ele>63.414769</ele>
        <time>2022-12-23T13:01:30.749Z</time>
      </trkpt>
      <trkpt lat="45.09306" lon="-1.04588">
        <ele>63.31439</ele>
        <time>2022-12-23T13:01:32.757Z</time>
      </trkpt>
      <trkpt lat="45.09296" lon="-1.04588">
        <ele>63.209746</ele>
        <time>2022-12-23T13:01:34.758Z</time>
      </trkpt>
      <trkpt lat="45.09284" lon="-1.04588">
        <ele>63.084283</ele>
        <time>2022-12-23T13:01:37.756Z</time>
      </trkpt>
      <trkpt lat="45.09272" lon="-1.04589">
        <ele>62.957672</ele>
        <time>2022-12-23T13:01:40.745Z</time>
      </trkpt>
      <trkpt lat="45.0926" lon="-1.04589">
        <ele>62.829041</ele>
        <time>2022-12-23T13:01:43.755Z</time>
      </trkpt>
      <trkpt lat="45.09248" lon="-1.04589">
        <ele>62.707753</ele>
        <time>2022-12-23T13:01:46.755Z</time>
      </trkpt>
      <trkpt lat="45.09235" lon="-1.0459">
        <ele>62.569729</ele>
        <time>2022-12-23T13:01:49.745Z</time>
      </trkpt>
      <trkpt lat="45.09226" lon="-1.0459">
        <ele>62.474485</ele>
        <time>2022-12-23T13:01:51.753Z</time>
      </trkpt>
      <trkpt lat="45.09212" lon="-1.0459">
        <ele>62.332295</ele>
        <time>2022-12-23T13:01:54.756Z</time>
      </trkpt>
      <trkpt lat="45.09199" lon="-1.04591">
        <ele>62.193225</ele>
        <time>2022-12-23T13:01:57.755Z</time>
      </trkpt>
      <trkpt lat="45.09185" lon="-1.04591">
        <ele>62.066132</ele>
        <time>2022-12-23T13:02:00.754Z</time>
      </trkpt>
      <trkpt lat="45.09173" lon="-1.04591">
        <ele>62.013756</ele>
        <time>2022-12-23T13:02:03.756Z</time>
      </trkpt>
      <trkpt lat="45.09159" lon="-1.0459">
        <ele>61.957118</ele>
        <time>2022-12-23T13:02:06.755Z</time>
      </trkpt>
      <trkpt lat="45.0915" lon="-1.0459">
        <ele>61.919085</ele>
        <time>2022-12-23T13:02:08.753Z</time>
      </trkpt>
      <trkpt lat="45.09137" lon="-1.04591">
        <ele>61.863327</ele>
        <time>2022-12-23T13:02:11.754Z</time>
      </trkpt>
      <trkpt lat="45.09125" lon="-1.04591">
        <ele>61.812627</ele>
        <time>2022-12-23T13:02:14.754Z</time>
      </trkpt>
      <trkpt lat="45.09114" lon="-1.04591">
        <ele>61.764896</ele>
        <time>2022-12-23T13:02:17.758Z</time>
      </trkpt>
      <trkpt lat="45.09103" lon="-1.04591">
        <ele>61.718855</ele>
        <time>2022-12-23T13:02:20.750Z</time>
      </trkpt>
      <trkpt lat="45.09092" lon="-1.04591">
        <ele>61.670695</ele>
        <time>2022-12-23T13:02:23.755Z</time>
      </trkpt>
      <trkpt lat="45.0908" lon="-1.04593">
        <ele>61.619812</ele>
        <time>2022-12-23T13:02:26.754Z</time>
      </trkpt>
      <trkpt lat="45.09067" lon="-1.04593">
        <ele>61.568267</ele>
        <time>2022-12-23T13:02:29.759Z</time>
      </trkpt>
      <trkpt lat="45.09055" lon="-1.04594">
        <ele>61.515455</ele>
        <time>2022-12-23T13:02:32.757Z</time>
      </trkpt>
      <trkpt lat="45.09042" lon="-1.04594">
        <ele>61.459701</ele>
        <time>2022-12-23T13:02:35.757Z</time>
      </trkpt>
      <trkpt lat="45.09028" lon="-1.04594">
        <ele>61.402659</ele>
        <time>2022-12-23T13:02:38.756Z</time>
      </trkpt>
      <trkpt lat="45.09015" lon="-1.04595">
        <ele>61.345618</ele>
        <time>2022-12-23T13:02:41.759Z</time>
      </trkpt>
      <trkpt lat="45.09001" lon="-1.04594">
        <ele>61.489925</ele>
        <time>2022-12-23T13:02:44.756Z</time>
      </trkpt>
      <trkpt lat="45.08992" lon="-1.04593">
        <ele>61.754131</ele>
        <time>2022-12-23T13:02:46.768Z</time>
      </trkpt>
      <trkpt lat="45.08983" lon="-1.04593">
        <ele>62.009478</ele>
        <time>2022-12-23T13:02:48.759Z</time>
      </trkpt>
      <trkpt lat="45.0897" lon="-1.04594">
        <ele>62.373693</ele>
        <time>2022-12-23T13:02:51.750Z</time>
      </trkpt>
      <trkpt lat="45.08958" lon="-1.04595">
        <ele>62.706791</ele>
        <time>2022-12-23T13:02:54.745Z</time>
      </trkpt>
      <trkpt lat="45.08947" lon="-1.04594">
        <ele>62.995398</ele>
        <time>2022-12-23T13:02:57.759Z</time>
      </trkpt>
      <trkpt lat="45.08935" lon="-1.04595">
        <ele>63.336557</ele>
        <time>2022-12-23T13:03:00.751Z</time>
      </trkpt>
      <trkpt lat="45.08923" lon="-1.04596">
        <ele>63.669839</ele>
        <time>2022-12-23T13:03:03.746Z</time>
      </trkpt>
      <trkpt lat="45.08911" lon="-1.04595">
        <ele>64.008208</ele>
        <time>2022-12-23T13:03:06.758Z</time>
      </trkpt>
      <trkpt lat="45.08897" lon="-1.04596">
        <ele>64.380182</ele>
        <time>2022-12-23T13:03:09.756Z</time>
      </trkpt>
      <trkpt lat="45.08885" lon="-1.04597">
        <ele>64.713367</ele>
        <time>2022-12-23T13:03:12.753Z</time>
      </trkpt>
      <trkpt lat="45.08874" lon="-1.04597">
        <ele>65.021222</ele>
        <time>2022-12-23T13:03:15.757Z</time>
      </trkpt>
      <trkpt lat="45.08863" lon="-1.04598">
        <ele>65.332245</ele>
        <time>2022-12-23T13:03:18.746Z</time>
      </trkpt>
      <trkpt lat="45.08852" lon="-1.04597">
        <ele>65.645744</ele>
        <time>2022-12-23T13:03:21.754Z</time>
      </trkpt>
      <trkpt lat="45.0884" lon="-1.04598">
        <ele>65.970334</ele>
        <time>2022-12-23T13:03:24.758Z</time>
      </trkpt>
      <trkpt lat="45.08829" lon="-1.04599">
        <ele>66.284036</ele>
        <time>2022-12-23T13:03:27.759Z</time>
      </trkpt>
      <trkpt lat="45.08817" lon="-1.04599">
        <ele>66.139742</ele>
        <time>2022-12-23T13:03:30.749Z</time>
      </trkpt>
      <trkpt lat="45.08805" lon="-1.046">
        <ele>65.945114</ele>
        <time>2022-12-23T13:03:33.749Z</time>
      </trkpt>
      <trkpt lat="45.08791" lon="-1.046">
        <ele>65.740069</ele>
        <time>2022-12-23T13:03:36.753Z</time>
      </trkpt>
      <trkpt lat="45.08778" lon="-1.04599">
        <ele>65.540977</ele>
        <time>2022-12-23T13:03:39.746Z</time>
      </trkpt>
      <trkpt lat="45.08766" lon="-1.04599">
        <ele>65.361956</ele>
        <time>2022-12-23T13:03:42.750Z</time>
      </trkpt>
      <trkpt lat="45.08753" lon="-1.04599">
        <ele>65.16156</ele>
        <time>2022-12-23T13:03:45.769Z</time>
      </trkpt>
      <trkpt lat="45.08744" lon="-1.04599">
        <ele>65.019265</ele>
        <time>2022-12-23T13:03:47.758Z</time>
      </trkpt>
      <trkpt lat="45.08731" lon="-1.04599">
        <ele>64.821866</ele>
        <time>2022-12-23T13:03:50.743Z</time>
      </trkpt>
      <trkpt lat="45.08722" lon="-1.04599">
        <ele>64.681122</ele>
        <time>2022-12-23T13:03:52.742Z</time>
      </trkpt>
      <trkpt lat="45.08713" lon="-1.04599">
        <ele>64.53886</ele>
        <time>2022-12-23T13:03:54.753Z</time>
      </trkpt>
      <trkpt lat="45.08703" lon="-1.046">
        <ele>64.388764</ele>
        <time>2022-12-23T13:03:56.757Z</time>
      </trkpt>
      <trkpt lat="45.0869" lon="-1.04599">
        <ele>64.199038</ele>
        <time>2022-12-23T13:03:59.756Z</time>
      </trkpt>
      <trkpt lat="45.08678" lon="-1.046">
        <ele>64.015365</ele>
        <time>2022-12-23T13:04:02.752Z</time>
      </trkpt>
      <trkpt lat="45.08668" lon="-1.046">
        <ele>63.862366</ele>
        <time>2022-12-23T13:04:05.738Z</time>
      </trkpt>
      <trkpt lat="45.08658" lon="-1.04601">
        <ele>63.707777</ele>
        <time>2022-12-23T13:04:08.756Z</time>
      </trkpt>
      <trkpt lat="45.08647" lon="-1.04601">
        <ele>63.548231</ele>
        <time>2022-12-23T13:04:11.756Z</time>
      </trkpt>
      <trkpt lat="45.08636" lon="-1.046">
        <ele>63.477636</ele>
        <time>2022-12-23T13:04:14.745Z</time>
      </trkpt>
      <trkpt lat="45.08623" lon="-1.046">
        <ele>63.398996</ele>
        <time>2022-12-23T13:04:17.752Z</time>
      </trkpt>
      <trkpt lat="45.08611" lon="-1.046">
        <ele>63.319737</ele>
        <time>2022-12-23T13:04:20.755Z</time>
      </trkpt>
      <trkpt lat="45.08597" lon="-1.04601">
        <ele>63.236726</ele>
        <time>2022-12-23T13:04:23.767Z</time>
      </trkpt>
      <trkpt lat="45.08584" lon="-1.04601">
        <ele>63.156237</ele>
        <time>2022-12-23T13:04:26.754Z</time>
      </trkpt>
      <trkpt lat="45.08571" lon="-1.04602">
        <ele>63.076938</ele>
        <time>2022-12-23T13:04:29.744Z</time>
      </trkpt>
      <trkpt lat="45.08559" lon="-1.04603">
        <ele>62.998196</ele>
        <time>2022-12-23T13:04:32.761Z</time>
      </trkpt>
      <trkpt lat="45.08547" lon="-1.04603">
        <ele>62.925745</ele>
        <time>2022-12-23T13:04:35.762Z</time>
      </trkpt>
      <trkpt lat="45.08534" lon="-1.04604">
        <ele>62.848342</ele>
        <time>2022-12-23T13:04:38.754Z</time>
      </trkpt>
      <trkpt lat="45.08521" lon="-1.04604">
        <ele>62.766607</ele>
        <time>2022-12-23T13:04:41.755Z</time>
      </trkpt>
      <trkpt lat="45.08508" lon="-1.04604">
        <ele>62.68423</ele>
        <time>2022-12-23T13:04:44.752Z</time>
      </trkpt>
      <trkpt lat="45.08495" lon="-1.04603">
        <ele>62.603076</ele>
        <time>2022-12-23T13:04:47.755Z</time>
      </trkpt>
      <trkpt lat="45.08482" lon="-1.04603">
        <ele>62.521979</ele>
        <time>2022-12-23T13:04:50.749Z</time>
      </trkpt>
      <trkpt lat="45.08469" lon="-1.04603">
        <ele>62.440871</ele>
        <time>2022-12-23T13:04:53.745Z</time>
      </trkpt>
      <trkpt lat="45.0846" lon="-1.04603">
        <ele>62.507157</ele>
        <time>2022-12-23T13:04:55.744Z</time>
      </trkpt>
      <trkpt lat="45.0845" lon="-1.04603">
        <ele>62.577719</ele>
        <time>2022-12-23T13:04:57.760Z</time>
      </trkpt>
      <trkpt lat="45.08437" lon="-1.04604">
        <ele>62.682075</ele>
        <time>2022-12-23T13:05:00.756Z</time>
      </trkpt>
      <trkpt lat="45.08424" lon="-1.04605">
        <ele>62.781926</ele>
        <time>2022-12-23T13:05:03.748Z</time>
      </trkpt>
      <trkpt lat="45.08412" lon="-1.04605">
        <ele>62.873208</ele>
        <time>2022-12-23T13:05:06.758Z</time>
      </trkpt>
      <trkpt lat="45.08401" lon="-1.04605">
        <ele>62.956039</ele>
        <time>2022-12-23T13:05:09.759Z</time>
      </trkpt>
      <trkpt lat="45.08391" lon="-1.04605">
        <ele>63.035037</ele>
        <time>2022-12-23T13:05:12.764Z</time>
      </trkpt>
      <trkpt lat="45.0838" lon="-1.04604">
        <ele>63.118747</ele>
        <time>2022-12-23T13:05:15.751Z</time>
      </trkpt>
      <trkpt lat="45.08369" lon="-1.04605">
        <ele>63.203906</ele>
        <time>2022-12-23T13:05:18.752Z</time>
      </trkpt>
      <trkpt lat="45.08356" lon="-1.04605">
        <ele>63.299781</ele>
        <time>2022-12-23T13:05:21.759Z</time>
      </trkpt>
      <trkpt lat="45.08345" lon="-1.04605">
        <ele>63.387987</ele>
        <time>2022-12-23T13:05:24.747Z</time>
      </trkpt>
      <trkpt lat="45.08335" lon="-1.04605">
        <ele>63.465467</ele>
        <time>2022-12-23T13:05:27.753Z</time>
      </trkpt>
      <trkpt lat="45.08323" lon="-1.04606">
        <ele>63.553748</ele>
        <time>2022-12-23T13:05:31.753Z</time>
      </trkpt>
      <trkpt lat="45.08314" lon="-1.04606">
        <ele>63.625874</ele>
        <time>2022-12-23T13:05:34.746Z</time>
      </trkpt>
      <trkpt lat="45.08303" lon="-1.04607">
        <ele>63.707173</ele>
        <time>2022-12-23T13:05:37.752Z</time>
      </trkpt>
      <trkpt lat="45.08292" lon="-1.04606">
        <ele>63.79618</ele>
        <time>2022-12-23T13:05:40.741Z</time>
      </trkpt>
      <trkpt lat="45.08279" lon="-1.04606">
        <ele>63.857222</ele>
        <time>2022-12-23T13:05:43.742Z</time>
      </trkpt>
      <trkpt lat="45.0827" lon="-1.04607">
        <ele>63.893682</ele>
        <time>2022-12-23T13:05:45.752Z</time>
      </trkpt>
      <trkpt lat="45.08257" lon="-1.04606">
        <ele>63.947138</ele>
        <time>2022-12-23T13:05:48.744Z</time>
      </trkpt>
      <trkpt lat="45.08244" lon="-1.04607">
        <ele>63.999789</ele>
        <time>2022-12-23T13:05:51.753Z</time>
      </trkpt>
      <trkpt lat="45.08232" lon="-1.04606">
        <ele>64.048399</ele>
        <time>2022-12-23T13:05:54.753Z</time>
      </trkpt>
      <trkpt lat="45.08221" lon="-1.04606">
        <ele>64.092144</ele>
        <time>2022-12-23T13:05:57.752Z</time>
      </trkpt>
      <trkpt lat="45.08211" lon="-1.04606">
        <ele>64.132645</ele>
        <time>2022-12-23T13:06:00.756Z</time>
      </trkpt>
      <trkpt lat="45.082" lon="-1.04606">
        <ele>64.17639</ele>
        <time>2022-12-23T13:06:03.756Z</time>
      </trkpt>
      <trkpt lat="45.0819" lon="-1.04606">
        <ele>64.218096</ele>
        <time>2022-12-23T13:06:06.738Z</time>
      </trkpt>
      <trkpt lat="45.08179" lon="-1.04606">
        <ele>64.262235</ele>
        <time>2022-12-23T13:06:09.756Z</time>
      </trkpt>
      <trkpt lat="45.08168" lon="-1.04607">
        <ele>64.309632</ele>
        <time>2022-12-23T13:06:12.756Z</time>
      </trkpt>
      <trkpt lat="45.08155" lon="-1.04607">
        <ele>64.359449</ele>
        <time>2022-12-23T13:06:15.752Z</time>
      </trkpt>
      <trkpt lat="45.08144" lon="-1.04607">
        <ele>64.404394</ele>
        <time>2022-12-23T13:06:18.753Z</time>
      </trkpt>
      <trkpt lat="45.08135" lon="-1.04608">
        <ele>64.442899</ele>
        <time>2022-12-23T13:06:21.751Z</time>
      </trkpt>
      <trkpt lat="45.08124" lon="-1.04608">
        <ele>64.48582</ele>
        <time>2022-12-23T13:06:24.739Z</time>
      </trkpt>
      <trkpt lat="45.08112" lon="-1.04608">
        <ele>64.532845</ele>
        <time>2022-12-23T13:06:27.752Z</time>
      </trkpt>
      <trkpt lat="45.081" lon="-1.0461">
        <ele>64.616446</ele>
        <time>2022-12-23T13:06:30.752Z</time>
      </trkpt>
      <trkpt lat="45.08089" lon="-1.04611">
        <ele>64.711837</ele>
        <time>2022-12-23T13:06:33.755Z</time>
      </trkpt>
      <trkpt lat="45.08078" lon="-1.04612">
        <ele>64.795809</ele>
        <time>2022-12-23T13:06:36.742Z</time>
      </trkpt>
      <trkpt lat="45.08069" lon="-1.0461">
        <ele>64.868705</ele>
        <time>2022-12-23T13:06:39.735Z</time>
      </trkpt>
      <trkpt lat="45.0806" lon="-1.0461">
        <ele>64.942158</ele>
        <time>2022-12-23T13:06:42.754Z</time>
      </trkpt>
      <trkpt lat="45.0805" lon="-1.0461">
        <ele>65.021248</ele>
        <time>2022-12-23T13:06:45.750Z</time>
      </trkpt>
      <trkpt lat="45.08039" lon="-1.0461">
        <ele>65.113241</ele>
        <time>2022-12-23T13:06:48.753Z</time>
      </trkpt>
      <trkpt lat="45.08027" lon="-1.0461">
        <ele>65.206856</ele>
        <time>2022-12-23T13:06:51.754Z</time>
      </trkpt>
      <trkpt lat="45.08016" lon="-1.0461">
        <ele>65.300525</ele>
        <time>2022-12-23T13:06:54.740Z</time>
      </trkpt>
      <trkpt lat="45.08005" lon="-1.0461">
        <ele>65.389292</ele>
        <time>2022-12-23T13:06:57.757Z</time>
      </trkpt>
      <trkpt lat="45.07993" lon="-1.0461">
        <ele>65.485327</ele>
        <time>2022-12-23T13:07:00.754Z</time>
      </trkpt>
      <trkpt lat="45.07981" lon="-1.0461">
        <ele>65.582984</ele>
        <time>2022-12-23T13:07:03.750Z</time>
      </trkpt>
      <trkpt lat="45.0797" lon="-1.0461">
        <ele>65.667745</ele>
        <time>2022-12-23T13:07:06.752Z</time>
      </trkpt>
      <trkpt lat="45.07961" lon="-1.04609">
        <ele>65.744617</ele>
        <time>2022-12-23T13:07:09.758Z</time>
      </trkpt>
      <trkpt lat="45.0795" lon="-1.0461">
        <ele>65.827929</ele>
        <time>2022-12-23T13:07:12.741Z</time>
      </trkpt>
      <trkpt lat="45.07939" lon="-1.04611">
        <ele>65.918454</ele>
        <time>2022-12-23T13:07:15.760Z</time>
      </trkpt>
      <trkpt lat="45.07928" lon="-1.04611">
        <ele>65.970864</ele>
        <time>2022-12-23T13:07:18.754Z</time>
      </trkpt>
      <trkpt lat="45.07916" lon="-1.04611">
        <ele>65.747124</ele>
        <time>2022-12-23T13:07:21.748Z</time>
      </trkpt>
      <trkpt lat="45.07904" lon="-1.04611">
        <ele>65.513674</ele>
        <time>2022-12-23T13:07:24.750Z</time>
      </trkpt>
      <trkpt lat="45.07894" lon="-1.04611">
        <ele>65.315236</ele>
        <time>2022-12-23T13:07:27.764Z</time>
      </trkpt>
      <trkpt lat="45.07883" lon="-1.04611">
        <ele>65.09339</ele>
        <time>2022-12-23T13:07:31.755Z</time>
      </trkpt>
      <trkpt lat="45.07873" lon="-1.0461">
        <ele>64.904439</ele>
        <time>2022-12-23T13:07:35.754Z</time>
      </trkpt>
      <trkpt lat="45.07861" lon="-1.04609">
        <ele>64.68011</ele>
        <time>2022-12-23T13:07:39.754Z</time>
      </trkpt>
      <trkpt lat="45.07852" lon="-1.04608">
        <ele>64.500794</ele>
        <time>2022-12-23T13:07:42.752Z</time>
      </trkpt>
      <trkpt lat="45.07841" lon="-1.04608">
        <ele>64.279012</ele>
        <time>2022-12-23T13:07:46.755Z</time>
      </trkpt>
      <trkpt lat="45.0783" lon="-1.04609">
        <ele>64.075776</ele>
        <time>2022-12-23T13:07:50.735Z</time>
      </trkpt>
      <trkpt lat="45.07823" lon="-1.04618">
        <ele>63.887789</ele>
        <time>2022-12-23T13:07:55.735Z</time>
      </trkpt>
      <trkpt lat="45.07823" lon="-1.04623">
        <ele>63.821392</ele>
        <time>2022-12-23T13:08:07.393Z</time>
      </trkpt>
      <trkpt lat="45.07815" lon="-1.04613">
        <ele>63.622849</ele>
        <time>2022-12-23T13:48:31.738Z</time>
      </trkpt>
      <trkpt lat="45.07806" lon="-1.04605">
        <ele>63.417575</ele>
        <time>2022-12-23T13:48:35.752Z</time>
      </trkpt>
      <trkpt lat="45.07796" lon="-1.04602">
        <ele>63.216192</ele>
        <time>2022-12-23T13:48:39.751Z</time>
      </trkpt>
      <trkpt lat="45.07785" lon="-1.04599">
        <ele>62.987645</ele>
        <time>2022-12-23T13:48:43.741Z</time>
      </trkpt>
      <trkpt lat="45.07775" lon="-1.04596">
        <ele>62.7975</ele>
        <time>2022-12-23T13:48:46.733Z</time>
      </trkpt>
      <trkpt lat="45.07764" lon="-1.04593">
        <ele>62.57057</ele>
        <time>2022-12-23T13:48:50.755Z</time>
      </trkpt>
      <trkpt lat="45.07753" lon="-1.0459">
        <ele>62.523641</ele>
        <time>2022-12-23T13:48:54.757Z</time>
      </trkpt>
      <trkpt lat="45.07743" lon="-1.04587">
        <ele>62.555988</ele>
        <time>2022-12-23T13:48:57.741Z</time>
      </trkpt>
      <trkpt lat="45.07734" lon="-1.04584">
        <ele>62.586986</ele>
        <time>2022-12-23T13:49:00.753Z</time>
      </trkpt>
      <trkpt lat="45.07724" lon="-1.0458">
        <ele>62.618756</ele>
        <time>2022-12-23T13:49:03.728Z</time>
      </trkpt>
      <trkpt lat="45.07714" lon="-1.04577">
        <ele>62.652565</ele>
        <time>2022-12-23T13:49:06.732Z</time>
      </trkpt>
      <trkpt lat="45.07704" lon="-1.04574">
        <ele>62.686394</ele>
        <time>2022-12-23T13:49:09.735Z</time>
      </trkpt>
      <trkpt lat="45.07694" lon="-1.04571">
        <ele>62.718645</ele>
        <time>2022-12-23T13:49:12.756Z</time>
      </trkpt>
      <trkpt lat="45.07684" lon="-1.04568">
        <ele>62.751203</ele>
        <time>2022-12-23T13:49:15.752Z</time>
      </trkpt>
      <trkpt lat="45.07674" lon="-1.04565">
        <ele>62.782461</ele>
        <time>2022-12-23T13:49:18.738Z</time>
      </trkpt>
      <trkpt lat="45.07664" lon="-1.04562">
        <ele>62.816606</ele>
        <time>2022-12-23T13:49:21.754Z</time>
      </trkpt>
      <trkpt lat="45.07653" lon="-1.04559">
        <ele>62.851428</ele>
        <time>2022-12-23T13:49:24.754Z</time>
      </trkpt>
      <trkpt lat="45.07643" lon="-1.04556">
        <ele>62.885448</ele>
        <time>2022-12-23T13:49:27.753Z</time>
      </trkpt>
      <trkpt lat="45.07634" lon="-1.04553">
        <ele>62.916539</ele>
        <time>2022-12-23T13:49:30.756Z</time>
      </trkpt>
      <trkpt lat="45.07624" lon="-1.04551">
        <ele>62.948657</ele>
        <time>2022-12-23T13:49:33.752Z</time>
      </trkpt>
      <trkpt lat="45.07614" lon="-1.04547">
        <ele>62.981369</ele>
        <time>2022-12-23T13:49:36.733Z</time>
      </trkpt>
      <trkpt lat="45.07604" lon="-1.04544">
        <ele>63.013191</ele>
        <time>2022-12-23T13:49:39.753Z</time>
      </trkpt>
      <trkpt lat="45.07594" lon="-1.04541">
        <ele>63.048203</ele>
        <time>2022-12-23T13:49:42.755Z</time>
      </trkpt>
      <trkpt lat="45.07583" lon="-1.04537">
        <ele>63.089929</ele>
        <time>2022-12-23T13:49:45.757Z</time>
      </trkpt>
      <trkpt lat="45.07572" lon="-1.04535">
        <ele>63.180108</ele>
        <time>2022-12-23T13:49:48.752Z</time>
      </trkpt>
      <trkpt lat="45.07561" lon="-1.04531">
        <ele>63.266015</ele>
        <time>2022-12-23T13:49:51.809Z</time>
      </trkpt>
      <trkpt lat="45.07552" lon="-1.04528">
        <ele>63.342564</ele>
        <time>2022-12-23T13:49:54.733Z</time>
      </trkpt>
      <trkpt lat="45.07543" lon="-1.04525">
        <ele>63.418731</ele>
        <time>2022-12-23T13:49:57.744Z</time>
      </trkpt>
      <trkpt lat="45.07532" lon="-1.04522">
        <ele>63.504758</ele>
        <time>2022-12-23T13:50:00.753Z</time>
      </trkpt>
      <trkpt lat="45.07522" lon="-1.04518">
        <ele>63.591945</ele>
        <time>2022-12-23T13:50:03.740Z</time>
      </trkpt>
      <trkpt lat="45.07512" lon="-1.04516">
        <ele>63.673166</ele>
        <time>2022-12-23T13:50:06.740Z</time>
      </trkpt>
      <trkpt lat="45.07502" lon="-1.04513">
        <ele>63.755293</ele>
        <time>2022-12-23T13:50:10.736Z</time>
      </trkpt>
      <trkpt lat="45.0749" lon="-1.04509">
        <ele>63.85094</ele>
        <time>2022-12-23T13:50:14.748Z</time>
      </trkpt>
      <trkpt lat="45.0748" lon="-1.04506">
        <ele>63.929572</ele>
        <time>2022-12-23T13:50:17.753Z</time>
      </trkpt>
      <trkpt lat="45.07471" lon="-1.04502">
        <ele>64.010223</ele>
        <time>2022-12-23T13:50:20.753Z</time>
      </trkpt>
      <trkpt lat="45.07461" lon="-1.045">
        <ele>64.09056</ele>
        <time>2022-12-23T13:50:23.745Z</time>
      </trkpt>
      <trkpt lat="45.07451" lon="-1.04498">
        <ele>64.173714</ele>
        <time>2022-12-23T13:50:26.755Z</time>
      </trkpt>
      <trkpt lat="45.0744" lon="-1.04496">
        <ele>64.260568</ele>
        <time>2022-12-23T13:50:29.751Z</time>
      </trkpt>
      <trkpt lat="45.07429" lon="-1.04496">
        <ele>64.348616</ele>
        <time>2022-12-23T13:50:32.748Z</time>
      </trkpt>
      <trkpt lat="45.07418" lon="-1.04495">
        <ele>64.433429</ele>
        <time>2022-12-23T13:50:35.752Z</time>
      </trkpt>
      <trkpt lat="45.07407" lon="-1.04496">
        <ele>64.521089</ele>
        <time>2022-12-23T13:50:38.737Z</time>
      </trkpt>
      <trkpt lat="45.07396" lon="-1.045">
        <ele>64.598543</ele>
        <time>2022-12-23T13:50:41.754Z</time>
      </trkpt>
      <trkpt lat="45.07385" lon="-1.04504">
        <ele>64.677459</ele>
        <time>2022-12-23T13:50:44.758Z</time>
      </trkpt>
      <trkpt lat="45.07375" lon="-1.04509">
        <ele>64.754436</ele>
        <time>2022-12-23T13:50:47.752Z</time>
      </trkpt>
      <trkpt lat="45.07364" lon="-1.04512">
        <ele>64.829744</ele>
        <time>2022-12-23T13:50:50.756Z</time>
      </trkpt>
      <trkpt lat="45.07355" lon="-1.04516">
        <ele>64.898614</ele>
        <time>2022-12-23T13:50:53.757Z</time>
      </trkpt>
      <trkpt lat="45.07346" lon="-1.04521">
        <ele>64.965756</ele>
        <time>2022-12-23T13:50:56.738Z</time>
      </trkpt>
      <trkpt lat="45.07336" lon="-1.04525">
        <ele>65.038128</ele>
        <time>2022-12-23T13:50:59.747Z</time>
      </trkpt>
      <trkpt lat="45.07325" lon="-1.0453">
        <ele>65.114448</ele>
        <time>2022-12-23T13:51:02.750Z</time>
      </trkpt>
      <trkpt lat="45.07314" lon="-1.04535">
        <ele>65.194432</ele>
        <time>2022-12-23T13:51:05.755Z</time>
      </trkpt>
      <trkpt lat="45.07303" lon="-1.0454">
        <ele>65.276552</ele>
        <time>2022-12-23T13:51:08.752Z</time>
      </trkpt>
      <trkpt lat="45.07292" lon="-1.04545">
        <ele>65.360083</ele>
        <time>2022-12-23T13:51:11.742Z</time>
      </trkpt>
      <trkpt lat="45.0728" lon="-1.0455">
        <ele>65.445149</ele>
        <time>2022-12-23T13:51:14.739Z</time>
      </trkpt>
      <trkpt lat="45.07268" lon="-1.04555">
        <ele>65.529931</ele>
        <time>2022-12-23T13:51:17.754Z</time>
      </trkpt>
      <trkpt lat="45.07256" lon="-1.0456">
        <ele>65.615661</ele>
        <time>2022-12-23T13:51:20.752Z</time>
      </trkpt>
      <trkpt lat="45.07245" lon="-1.04565">
        <ele>65.700872</ele>
        <time>2022-12-23T13:51:23.753Z</time>
      </trkpt>
      <trkpt lat="45.07233" lon="-1.04571">
        <ele>65.783422</ele>
        <time>2022-12-23T13:51:26.763Z</time>
      </trkpt>
      <trkpt lat="45.0722" lon="-1.04578">
        <ele>65.849566</ele>
        <time>2022-12-23T13:51:29.743Z</time>
      </trkpt>
      <trkpt lat="45.07209" lon="-1.04583">
        <ele>65.911481</ele>
        <time>2022-12-23T13:51:32.739Z</time>
      </trkpt>
      <trkpt lat="45.07197" lon="-1.04587">
        <ele>65.971831</ele>
        <time>2022-12-23T13:51:35.756Z</time>
      </trkpt>
      <trkpt lat="45.07186" lon="-1.04591">
        <ele>66.030528</ele>
        <time>2022-12-23T13:51:38.746Z</time>
      </trkpt>
      <trkpt lat="45.07175" lon="-1.04595">
        <ele>66.089135</ele>
        <time>2022-12-23T13:51:41.756Z</time>
      </trkpt>
      <trkpt lat="45.07163" lon="-1.046">
        <ele>66.149287</ele>
        <time>2022-12-23T13:51:44.753Z</time>
      </trkpt>
      <trkpt lat="45.07151" lon="-1.04605">
        <ele>66.213145</ele>
        <time>2022-12-23T13:51:47.738Z</time>
      </trkpt>
      <trkpt lat="45.0714" lon="-1.0461">
        <ele>66.274091</ele>
        <time>2022-12-23T13:51:50.752Z</time>
      </trkpt>
      <trkpt lat="45.07128" lon="-1.04615">
        <ele>66.337752</ele>
        <time>2022-12-23T13:51:53.754Z</time>
      </trkpt>
      <trkpt lat="45.07116" lon="-1.0462">
        <ele>66.400801</ele>
        <time>2022-12-23T13:51:56.758Z</time>
      </trkpt>
      <trkpt lat="45.07103" lon="-1.04625">
        <ele>66.466606</ele>
        <time>2022-12-23T13:51:59.752Z</time>
      </trkpt>
      <trkpt lat="45.07091" lon="-1.04631">
        <ele>66.532711</ele>
        <time>2022-12-23T13:52:02.756Z</time>
      </trkpt>
      <trkpt lat="45.07079" lon="-1.04636">
        <ele>66.596083</ele>
        <time>2022-12-23T13:52:05.753Z</time>
      </trkpt>
      <trkpt lat="45.07067" lon="-1.04641">
        <ele>66.658692</ele>
        <time>2022-12-23T13:52:08.738Z</time>
      </trkpt>
      <trkpt lat="45.07055" lon="-1.04646">
        <ele>66.721322</ele>
        <time>2022-12-23T13:52:11.753Z</time>
      </trkpt>
      <trkpt lat="45.07045" lon="-1.0465">
        <ele>66.766495</ele>
        <time>2022-12-23T13:52:13.753Z</time>
      </trkpt>
      <trkpt lat="45.07033" lon="-1.04656">
        <ele>66.829133</ele>
        <time>2022-12-23T13:52:16.789Z</time>
      </trkpt>
      <trkpt lat="45.0702" lon="-1.04662">
        <ele>66.891456</ele>
        <time>2022-12-23T13:52:19.753Z</time>
      </trkpt>
      <trkpt lat="45.07012" lon="-1.04666">
        <ele>66.934381</ele>
        <time>2022-12-23T13:52:21.759Z</time>
      </trkpt>
      <trkpt lat="45.07003" lon="-1.0467">
        <ele>66.976961</ele>
        <time>2022-12-23T13:52:23.754Z</time>
      </trkpt>
      <trkpt lat="45.06994" lon="-1.04674">
        <ele>67.020307</ele>
        <time>2022-12-23T13:52:25.754Z</time>
      </trkpt>
      <trkpt lat="45.06985" lon="-1.04678">
        <ele>67.065032</ele>
        <time>2022-12-23T13:52:27.754Z</time>
      </trkpt>
      <trkpt lat="45.06972" lon="-1.04683">
        <ele>67.129211</ele>
        <time>2022-12-23T13:52:30.756Z</time>
      </trkpt>
      <trkpt lat="45.06963" lon="-1.04688">
        <ele>67.173132</ele>
        <time>2022-12-23T13:52:32.754Z</time>
      </trkpt>
      <trkpt lat="45.06951" lon="-1.04693">
        <ele>67.234232</ele>
        <time>2022-12-23T13:52:35.753Z</time>
      </trkpt>
      <trkpt lat="45.06938" lon="-1.04699">
        <ele>67.29687</ele>
        <time>2022-12-23T13:52:38.752Z</time>
      </trkpt>
      <trkpt lat="45.06926" lon="-1.04706">
        <ele>67.359616</ele>
        <time>2022-12-23T13:52:41.757Z</time>
      </trkpt>
      <trkpt lat="45.06917" lon="-1.0471">
        <ele>67.404436</ele>
        <time>2022-12-23T13:52:43.737Z</time>
      </trkpt>
      <trkpt lat="45.06904" lon="-1.04716">
        <ele>67.467309</ele>
        <time>2022-12-23T13:52:46.750Z</time>
      </trkpt>
      <trkpt lat="45.06895" lon="-1.0472">
        <ele>67.511334</ele>
        <time>2022-12-23T13:52:48.756Z</time>
      </trkpt>
      <trkpt lat="45.06886" lon="-1.04724">
        <ele>67.472626</ele>
        <time>2022-12-23T13:52:50.753Z</time>
      </trkpt>
      <trkpt lat="45.06873" lon="-1.04729">
        <ele>67.369333</ele>
        <time>2022-12-23T13:52:53.756Z</time>
      </trkpt>
      <trkpt lat="45.06861" lon="-1.04734">
        <ele>67.276122</ele>
        <time>2022-12-23T13:52:56.751Z</time>
      </trkpt>
      <trkpt lat="45.06849" lon="-1.04739">
        <ele>67.183335</ele>
        <time>2022-12-23T13:52:59.754Z</time>
      </trkpt>
      <trkpt lat="45.06837" lon="-1.04745">
        <ele>67.084018</ele>
        <time>2022-12-23T13:53:02.743Z</time>
      </trkpt>
      <trkpt lat="45.06828" lon="-1.04749">
        <ele>67.013125</ele>
        <time>2022-12-23T13:53:04.747Z</time>
      </trkpt>
      <trkpt lat="45.06818" lon="-1.04753">
        <ele>66.93829</ele>
        <time>2022-12-23T13:53:06.755Z</time>
      </trkpt>
      <trkpt lat="45.0681" lon="-1.04757">
        <ele>66.870114</ele>
        <time>2022-12-23T13:53:08.744Z</time>
      </trkpt>
      <trkpt lat="45.06801" lon="-1.04761">
        <ele>66.800831</ele>
        <time>2022-12-23T13:53:10.743Z</time>
      </trkpt>
      <trkpt lat="45.06788" lon="-1.04766">
        <ele>66.699274</ele>
        <time>2022-12-23T13:53:13.742Z</time>
      </trkpt>
      <trkpt lat="45.06779" lon="-1.04771">
        <ele>66.628217</ele>
        <time>2022-12-23T13:53:15.741Z</time>
      </trkpt>
      <trkpt lat="45.0677" lon="-1.04775">
        <ele>66.554492</ele>
        <time>2022-12-23T13:53:17.741Z</time>
      </trkpt>
      <trkpt lat="45.06758" lon="-1.0478">
        <ele>66.457285</ele>
        <time>2022-12-23T13:53:20.761Z</time>
      </trkpt>
      <trkpt lat="45.06749" lon="-1.04784">
        <ele>66.388305</ele>
        <time>2022-12-23T13:53:22.747Z</time>
      </trkpt>
      <trkpt lat="45.06741" lon="-1.04788">
        <ele>66.318509</ele>
        <time>2022-12-23T13:53:24.753Z</time>
      </trkpt>
      <trkpt lat="45.06728" lon="-1.04794">
        <ele>66.218969</ele>
        <time>2022-12-23T13:53:27.758Z</time>
      </trkpt>
      <trkpt lat="45.06715" lon="-1.04798">
        <ele>66.117698</ele>
        <time>2022-12-23T13:53:30.757Z</time>
      </trkpt>
      <trkpt lat="45.06706" lon="-1.04802">
        <ele>66.045887</ele>
        <time>2022-12-23T13:53:32.758Z</time>
      </trkpt>
      <trkpt lat="45.06697" lon="-1.04807">
        <ele>65.976859</ele>
        <time>2022-12-23T13:53:34.749Z</time>
      </trkpt>
      <trkpt lat="45.06684" lon="-1.04811">
        <ele>65.875388</ele>
        <time>2022-12-23T13:53:37.748Z</time>
      </trkpt>
      <trkpt lat="45.06676" lon="-1.04815">
        <ele>65.806867</ele>
        <time>2022-12-23T13:53:39.756Z</time>
      </trkpt>
      <trkpt lat="45.06666" lon="-1.04819">
        <ele>65.734447</ele>
        <time>2022-12-23T13:53:41.754Z</time>
      </trkpt>
      <trkpt lat="45.06654" lon="-1.04826">
        <ele>65.63301</ele>
        <time>2022-12-23T13:53:44.755Z</time>
      </trkpt>
      <trkpt lat="45.06642" lon="-1.04832">
        <ele>65.538781</ele>
        <time>2022-12-23T13:53:47.757Z</time>
      </trkpt>
      <trkpt lat="45.06629" lon="-1.04837">
        <ele>65.439367</ele>
        <time>2022-12-23T13:53:50.754Z</time>
      </trkpt>
      <trkpt lat="45.0662" lon="-1.04841">
        <ele>65.371004</ele>
        <time>2022-12-23T13:53:52.745Z</time>
      </trkpt>
      <trkpt lat="45.06611" lon="-1.04844">
        <ele>65.300059</ele>
        <time>2022-12-23T13:53:54.754Z</time>
      </trkpt>
      <trkpt lat="45.06602" lon="-1.04849">
        <ele>65.227684</ele>
        <time>2022-12-23T13:53:56.758Z</time>
      </trkpt>
      <trkpt lat="45.06593" lon="-1.04853">
        <ele>65.157571</ele>
        <time>2022-12-23T13:53:58.752Z</time>
      </trkpt>
      <trkpt lat="45.06581" lon="-1.04859">
        <ele>65.058806</ele>
        <time>2022-12-23T13:54:01.748Z</time>
      </trkpt>
      <trkpt lat="45.06569" lon="-1.04865">
        <ele>64.960915</ele>
        <time>2022-12-23T13:54:04.751Z</time>
      </trkpt>
      <trkpt lat="45.06556" lon="-1.04871">
        <ele>64.864452</ele>
        <time>2022-12-23T13:54:07.744Z</time>
      </trkpt>
      <trkpt lat="45.06544" lon="-1.04877">
        <ele>64.852821</ele>
        <time>2022-12-23T13:54:10.733Z</time>
      </trkpt>
      <trkpt lat="45.06532" lon="-1.04883">
        <ele>64.949545</ele>
        <time>2022-12-23T13:54:13.748Z</time>
      </trkpt>
      <trkpt lat="45.06519" lon="-1.04889">
        <ele>65.050697</ele>
        <time>2022-12-23T13:54:16.734Z</time>
      </trkpt>
      <trkpt lat="45.0651" lon="-1.04893">
        <ele>65.119292</ele>
        <time>2022-12-23T13:54:18.753Z</time>
      </trkpt>
      <trkpt lat="45.06497" lon="-1.04898">
        <ele>65.220257</ele>
        <time>2022-12-23T13:54:21.734Z</time>
      </trkpt>
      <trkpt lat="45.06488" lon="-1.04902">
        <ele>65.289832</ele>
        <time>2022-12-23T13:54:23.750Z</time>
      </trkpt>
      <trkpt lat="45.0648" lon="-1.04906">
        <ele>65.359274</ele>
        <time>2022-12-23T13:54:25.753Z</time>
      </trkpt>
      <trkpt lat="45.06468" lon="-1.04912">
        <ele>65.455842</ele>
        <time>2022-12-23T13:54:28.748Z</time>
      </trkpt>
      <trkpt lat="45.06456" lon="-1.04917">
        <ele>65.546425</ele>
        <time>2022-12-23T13:54:31.746Z</time>
      </trkpt>
      <trkpt lat="45.06445" lon="-1.04922">
        <ele>65.629918</ele>
        <time>2022-12-23T13:54:34.747Z</time>
      </trkpt>
      <trkpt lat="45.06435" lon="-1.04927">
        <ele>65.714287</ele>
        <time>2022-12-23T13:54:37.740Z</time>
      </trkpt>
      <trkpt lat="45.06424" lon="-1.04931">
        <ele>65.802094</ele>
        <time>2022-12-23T13:54:40.753Z</time>
      </trkpt>
      <trkpt lat="45.06412" lon="-1.04936">
        <ele>65.895551</ele>
        <time>2022-12-23T13:54:43.754Z</time>
      </trkpt>
      <trkpt lat="45.06399" lon="-1.04942">
        <ele>65.992611</ele>
        <time>2022-12-23T13:54:46.756Z</time>
      </trkpt>
      <trkpt lat="45.06387" lon="-1.04947">
        <ele>66.090607</ele>
        <time>2022-12-23T13:54:49.747Z</time>
      </trkpt>
      <trkpt lat="45.06375" lon="-1.04953">
        <ele>66.158209</ele>
        <time>2022-12-23T13:54:52.759Z</time>
      </trkpt>
      <trkpt lat="45.06364" lon="-1.04958">
        <ele>66.147684</ele>
        <time>2022-12-23T13:54:55.740Z</time>
      </trkpt>
      <trkpt lat="45.06353" lon="-1.04964">
        <ele>66.137265</ele>
        <time>2022-12-23T13:54:58.735Z</time>
      </trkpt>
      <trkpt lat="45.06341" lon="-1.0497">
        <ele>66.12606</ele>
        <time>2022-12-23T13:55:01.751Z</time>
      </trkpt>
      <trkpt lat="45.06329" lon="-1.04975">
        <ele>66.115016</ele>
        <time>2022-12-23T13:55:04.747Z</time>
      </trkpt>
      <trkpt lat="45.06317" lon="-1.0498">
        <ele>66.103971</ele>
        <time>2022-12-23T13:55:07.757Z</time>
      </trkpt>
      <trkpt lat="45.06304" lon="-1.04986">
        <ele>66.092358</ele>
        <time>2022-12-23T13:55:10.738Z</time>
      </trkpt>
      <trkpt lat="45.06291" lon="-1.04991">
        <ele>66.080903</ele>
        <time>2022-12-23T13:55:13.746Z</time>
      </trkpt>
      <trkpt lat="45.06279" lon="-1.04997">
        <ele>66.069727</ele>
        <time>2022-12-23T13:55:16.759Z</time>
      </trkpt>
      <trkpt lat="45.06267" lon="-1.05002">
        <ele>66.058311</ele>
        <time>2022-12-23T13:55:19.756Z</time>
      </trkpt>
      <trkpt lat="45.06254" lon="-1.05008">
        <ele>66.046792</ele>
        <time>2022-12-23T13:55:22.744Z</time>
      </trkpt>
      <trkpt lat="45.06243" lon="-1.05013">
        <ele>66.036342</ele>
        <time>2022-12-23T13:55:25.760Z</time>
      </trkpt>
      <trkpt lat="45.06232" lon="-1.05018">
        <ele>66.026274</ele>
        <time>2022-12-23T13:55:28.752Z</time>
      </trkpt>
      <trkpt lat="45.06221" lon="-1.05023">
        <ele>66.015974</ele>
        <time>2022-12-23T13:55:31.750Z</time>
      </trkpt>
      <trkpt lat="45.0621" lon="-1.05028">
        <ele>66.005589</ele>
        <time>2022-12-23T13:55:34.756Z</time>
      </trkpt>
      <trkpt lat="45.06198" lon="-1.05033">
        <ele>66.116676</ele>
        <time>2022-12-23T13:55:37.750Z</time>
      </trkpt>
      <trkpt lat="45.06187" lon="-1.05038">
        <ele>66.261638</ele>
        <time>2022-12-23T13:55:40.752Z</time>
      </trkpt>
      <trkpt lat="45.06175" lon="-1.05043">
        <ele>66.409597</ele>
        <time>2022-12-23T13:55:43.756Z</time>
      </trkpt>
      <trkpt lat="45.06163" lon="-1.05048">
        <ele>66.567105</ele>
        <time>2022-12-23T13:55:46.756Z</time>
      </trkpt>
      <trkpt lat="45.06151" lon="-1.05053">
        <ele>66.720825</ele>
        <time>2022-12-23T13:55:49.755Z</time>
      </trkpt>
      <trkpt lat="45.06139" lon="-1.05059">
        <ele>66.871395</ele>
        <time>2022-12-23T13:55:52.758Z</time>
      </trkpt>
      <trkpt lat="45.06131" lon="-1.05063">
        <ele>66.984891</ele>
        <time>2022-12-23T13:55:54.755Z</time>
      </trkpt>
      <trkpt lat="45.06118" lon="-1.05067">
        <ele>67.14322</ele>
        <time>2022-12-23T13:55:57.753Z</time>
      </trkpt>
      <trkpt lat="45.06105" lon="-1.05074">
        <ele>67.311189</ele>
        <time>2022-12-23T13:56:00.752Z</time>
      </trkpt>
      <trkpt lat="45.06092" lon="-1.05079">
        <ele>67.475809</ele>
        <time>2022-12-23T13:56:03.743Z</time>
      </trkpt>
      <trkpt lat="45.0608" lon="-1.05084">
        <ele>67.639155</ele>
        <time>2022-12-23T13:56:06.755Z</time>
      </trkpt>
      <trkpt lat="45.06068" lon="-1.05091">
        <ele>67.796087</ele>
        <time>2022-12-23T13:56:09.754Z</time>
      </trkpt>
      <trkpt lat="45.06055" lon="-1.05096">
        <ele>67.957993</ele>
        <time>2022-12-23T13:56:12.756Z</time>
      </trkpt>
      <trkpt lat="45.06047" lon="-1.05101">
        <ele>68.071457</ele>
        <time>2022-12-23T13:56:14.754Z</time>
      </trkpt>
      <trkpt lat="45.06034" lon="-1.05107">
        <ele>68.198276</ele>
        <time>2022-12-23T13:56:17.748Z</time>
      </trkpt>
      <trkpt lat="45.06025" lon="-1.0511">
        <ele>68.021197</ele>
        <time>2022-12-23T13:56:19.759Z</time>
      </trkpt>
      <trkpt lat="45.06017" lon="-1.05114">
        <ele>67.848694</ele>
        <time>2022-12-23T13:56:21.756Z</time>
      </trkpt>
      <trkpt lat="45.06004" lon="-1.05121">
        <ele>67.606198</ele>
        <time>2022-12-23T13:56:24.759Z</time>
      </trkpt>
      <trkpt lat="45.05996" lon="-1.05125">
        <ele>67.434094</ele>
        <time>2022-12-23T13:56:26.755Z</time>
      </trkpt>
      <trkpt lat="45.05983" lon="-1.05131">
        <ele>67.193895</ele>
        <time>2022-12-23T13:56:29.753Z</time>
      </trkpt>
      <trkpt lat="45.05971" lon="-1.05137">
        <ele>66.949738</ele>
        <time>2022-12-23T13:56:32.756Z</time>
      </trkpt>
      <trkpt lat="45.05959" lon="-1.05142">
        <ele>66.709539</ele>
        <time>2022-12-23T13:56:35.753Z</time>
      </trkpt>
      <trkpt lat="45.05947" lon="-1.05148">
        <ele>66.47314</ele>
        <time>2022-12-23T13:56:38.753Z</time>
      </trkpt>
      <trkpt lat="45.05935" lon="-1.05153">
        <ele>66.24248</ele>
        <time>2022-12-23T13:56:41.754Z</time>
      </trkpt>
      <trkpt lat="45.05923" lon="-1.05159">
        <ele>66.00671</ele>
        <time>2022-12-23T13:56:44.752Z</time>
      </trkpt>
      <trkpt lat="45.05911" lon="-1.05164">
        <ele>65.777433</ele>
        <time>2022-12-23T13:56:47.751Z</time>
      </trkpt>
      <trkpt lat="45.05899" lon="-1.0517">
        <ele>65.536684</ele>
        <time>2022-12-23T13:56:50.757Z</time>
      </trkpt>
      <trkpt lat="45.05887" lon="-1.05175">
        <ele>65.291578</ele>
        <time>2022-12-23T13:56:53.754Z</time>
      </trkpt>
      <trkpt lat="45.05874" lon="-1.0518">
        <ele>65.054888</ele>
        <time>2022-12-23T13:56:56.752Z</time>
      </trkpt>
      <trkpt lat="45.05863" lon="-1.05186">
        <ele>64.851515</ele>
        <time>2022-12-23T13:56:59.752Z</time>
      </trkpt>
      <trkpt lat="45.05852" lon="-1.05191">
        <ele>64.791245</ele>
        <time>2022-12-23T13:57:02.755Z</time>
      </trkpt>
      <trkpt lat="45.05841" lon="-1.05195">
        <ele>64.732376</ele>
        <time>2022-12-23T13:57:05.750Z</time>
      </trkpt>
      <trkpt lat="45.05831" lon="-1.052">
        <ele>64.673403</ele>
        <time>2022-12-23T13:57:08.754Z</time>
      </trkpt>
      <trkpt lat="45.0582" lon="-1.05205">
        <ele>64.613871</ele>
        <time>2022-12-23T13:57:11.753Z</time>
      </trkpt>
      <trkpt lat="45.0581" lon="-1.0521">
        <ele>64.555099</ele>
        <time>2022-12-23T13:57:14.752Z</time>
      </trkpt>
      <trkpt lat="45.05799" lon="-1.05215">
        <ele>64.494789</ele>
        <time>2022-12-23T13:57:17.753Z</time>
      </trkpt>
      <trkpt lat="45.05788" lon="-1.0522">
        <ele>64.436639</ele>
        <time>2022-12-23T13:57:20.750Z</time>
      </trkpt>
      <trkpt lat="45.05778" lon="-1.05225">
        <ele>64.377557</ele>
        <time>2022-12-23T13:57:23.737Z</time>
      </trkpt>
      <trkpt lat="45.05768" lon="-1.05229">
        <ele>64.323855</ele>
        <time>2022-12-23T13:57:26.754Z</time>
      </trkpt>
      <trkpt lat="45.05758" lon="-1.05233">
        <ele>64.270371</ele>
        <time>2022-12-23T13:57:29.748Z</time>
      </trkpt>
      <trkpt lat="45.05748" lon="-1.05238">
        <ele>64.214462</ele>
        <time>2022-12-23T13:57:32.742Z</time>
      </trkpt>
      <trkpt lat="45.05738" lon="-1.05242">
        <ele>64.15852</ele>
        <time>2022-12-23T13:57:35.753Z</time>
      </trkpt>
      <trkpt lat="45.05728" lon="-1.05247">
        <ele>64.103232</ele>
        <time>2022-12-23T13:57:38.744Z</time>
      </trkpt>
      <trkpt lat="45.05718" lon="-1.05252">
        <ele>64.048913</ele>
        <time>2022-12-23T13:57:41.755Z</time>
      </trkpt>
      <trkpt lat="45.05709" lon="-1.05256">
        <ele>63.994481</ele>
        <time>2022-12-23T13:57:44.760Z</time>
      </trkpt>
      <trkpt lat="45.05698" lon="-1.0526">
        <ele>63.938461</ele>
        <time>2022-12-23T13:57:47.753Z</time>
      </trkpt>
      <trkpt lat="45.05689" lon="-1.05265">
        <ele>63.908268</ele>
        <time>2022-12-23T13:57:50.743Z</time>
      </trkpt>
      <trkpt lat="45.05679" lon="-1.05269">
        <ele>63.905657</ele>
        <time>2022-12-23T13:57:53.732Z</time>
      </trkpt>
      <trkpt lat="45.0567" lon="-1.05273">
        <ele>63.902978</ele>
        <time>2022-12-23T13:57:56.752Z</time>
      </trkpt>
      <trkpt lat="45.0566" lon="-1.05278">
        <ele>63.900192</ele>
        <time>2022-12-23T13:57:59.754Z</time>
      </trkpt>
      <trkpt lat="45.0565" lon="-1.05282">
        <ele>63.897463</ele>
        <time>2022-12-23T13:58:02.754Z</time>
      </trkpt>
      <trkpt lat="45.0564" lon="-1.05286">
        <ele>63.894604</ele>
        <time>2022-12-23T13:58:05.768Z</time>
      </trkpt>
      <trkpt lat="45.0563" lon="-1.05291">
        <ele>63.891703</ele>
        <time>2022-12-23T13:58:08.760Z</time>
      </trkpt>
      <trkpt lat="45.0562" lon="-1.05295">
        <ele>63.889004</ele>
        <time>2022-12-23T13:58:11.752Z</time>
      </trkpt>
      <trkpt lat="45.05611" lon="-1.053">
        <ele>63.886256</ele>
        <time>2022-12-23T13:58:14.753Z</time>
      </trkpt>
      <trkpt lat="45.05601" lon="-1.05304">
        <ele>63.883506</ele>
        <time>2022-12-23T13:58:17.756Z</time>
      </trkpt>
      <trkpt lat="45.05591" lon="-1.05308">
        <ele>63.880821</ele>
        <time>2022-12-23T13:58:20.733Z</time>
      </trkpt>
      <trkpt lat="45.05582" lon="-1.05313">
        <ele>63.878226</ele>
        <time>2022-12-23T13:58:23.762Z</time>
      </trkpt>
      <trkpt lat="45.05573" lon="-1.05317">
        <ele>63.875712</ele>
        <time>2022-12-23T13:58:26.754Z</time>
      </trkpt>
      <trkpt lat="45.05564" lon="-1.05321">
        <ele>63.873174</ele>
        <time>2022-12-23T13:58:29.734Z</time>
      </trkpt>
      <trkpt lat="45.05554" lon="-1.05326">
        <ele>63.870134</ele>
        <time>2022-12-23T13:58:33.752Z</time>
      </trkpt>
      <trkpt lat="45.05545" lon="-1.0533">
        <ele>63.867694</ele>
        <time>2022-12-23T13:58:36.740Z</time>
      </trkpt>
      <trkpt lat="45.05536" lon="-1.05334">
        <ele>63.865077</ele>
        <time>2022-12-23T13:58:39.751Z</time>
      </trkpt>
      <trkpt lat="45.05526" lon="-1.05338">
        <ele>63.862443</ele>
        <time>2022-12-23T13:58:42.729Z</time>
      </trkpt>
      <trkpt lat="45.05517" lon="-1.05343">
        <ele>63.861421</ele>
        <time>2022-12-23T13:58:45.746Z</time>
      </trkpt>
      <trkpt lat="45.05508" lon="-1.05347">
        <ele>63.861851</ele>
        <time>2022-12-23T13:58:48.755Z</time>
      </trkpt>
      <trkpt lat="45.05498" lon="-1.05351">
        <ele>63.862289</ele>
        <time>2022-12-23T13:58:51.754Z</time>
      </trkpt>
      <trkpt lat="45.05488" lon="-1.05356">
        <ele>63.862735</ele>
        <time>2022-12-23T13:58:54.755Z</time>
      </trkpt>
      <trkpt lat="45.05478" lon="-1.0536">
        <ele>63.863182</ele>
        <time>2022-12-23T13:58:57.758Z</time>
      </trkpt>
      <trkpt lat="45.05468" lon="-1.05365">
        <ele>63.863634</ele>
        <time>2022-12-23T13:59:00.753Z</time>
      </trkpt>
      <trkpt lat="45.05458" lon="-1.05369">
        <ele>63.864072</ele>
        <time>2022-12-23T13:59:03.755Z</time>
      </trkpt>
      <trkpt lat="45.05448" lon="-1.05374">
        <ele>63.864512</ele>
        <time>2022-12-23T13:59:06.732Z</time>
      </trkpt>
      <trkpt lat="45.05438" lon="-1.05378">
        <ele>63.86496</ele>
        <time>2022-12-23T13:59:09.752Z</time>
      </trkpt>
      <trkpt lat="45.05428" lon="-1.05383">
        <ele>63.865414</ele>
        <time>2022-12-23T13:59:12.755Z</time>
      </trkpt>
      <trkpt lat="45.05417" lon="-1.05387">
        <ele>63.86587</ele>
        <time>2022-12-23T13:59:15.754Z</time>
      </trkpt>
      <trkpt lat="45.05407" lon="-1.05392">
        <ele>63.866328</ele>
        <time>2022-12-23T13:59:18.753Z</time>
      </trkpt>
      <trkpt lat="45.05396" lon="-1.05397">
        <ele>63.866814</ele>
        <time>2022-12-23T13:59:21.760Z</time>
      </trkpt>
      <trkpt lat="45.05386" lon="-1.05401">
        <ele>63.867252</ele>
        <time>2022-12-23T13:59:24.754Z</time>
      </trkpt>
      <trkpt lat="45.05376" lon="-1.05405">
        <ele>63.867726</ele>
        <time>2022-12-23T13:59:28.734Z</time>
      </trkpt>
      <trkpt lat="45.05365" lon="-1.05411">
        <ele>63.868218</ele>
        <time>2022-12-23T13:59:32.754Z</time>
      </trkpt>
      <trkpt lat="45.05356" lon="-1.05415">
        <ele>63.868605</ele>
        <time>2022-12-23T13:59:35.753Z</time>
      </trkpt>
      <trkpt lat="45.05347" lon="-1.05419">
        <ele>63.889324</ele>
        <time>2022-12-23T13:59:38.753Z</time>
      </trkpt>
      <trkpt lat="45.05338" lon="-1.05423">
        <ele>63.949403</ele>
        <time>2022-12-23T13:59:41.735Z</time>
      </trkpt>
      <trkpt lat="45.05328" lon="-1.05428">
        <ele>64.009926</ele>
        <time>2022-12-23T13:59:44.761Z</time>
      </trkpt>
      <trkpt lat="45.05319" lon="-1.05432">
        <ele>64.07206</ele>
        <time>2022-12-23T13:59:47.752Z</time>
      </trkpt>
      <trkpt lat="45.05309" lon="-1.05436">
        <ele>64.135999</ele>
        <time>2022-12-23T13:59:50.736Z</time>
      </trkpt>
      <trkpt lat="45.05298" lon="-1.05441">
        <ele>64.204779</ele>
        <time>2022-12-23T13:59:53.749Z</time>
      </trkpt>
      <trkpt lat="45.05287" lon="-1.05446">
        <ele>64.273021</ele>
        <time>2022-12-23T13:59:56.754Z</time>
      </trkpt>
      <trkpt lat="45.05277" lon="-1.0545">
        <ele>64.338433</ele>
        <time>2022-12-23T13:59:59.751Z</time>
      </trkpt>
      <trkpt lat="45.05266" lon="-1.05455">
        <ele>64.40513</ele>
        <time>2022-12-23T14:00:02.752Z</time>
      </trkpt>
      <trkpt lat="45.05256" lon="-1.0546">
        <ele>64.47392</ele>
        <time>2022-12-23T14:00:05.751Z</time>
      </trkpt>
      <trkpt lat="45.05245" lon="-1.05465">
        <ele>64.53959</ele>
        <time>2022-12-23T14:00:08.757Z</time>
      </trkpt>
      <trkpt lat="45.05235" lon="-1.05469">
        <ele>64.605001</ele>
        <time>2022-12-23T14:00:11.751Z</time>
      </trkpt>
      <trkpt lat="45.05225" lon="-1.05474">
        <ele>64.671651</ele>
        <time>2022-12-23T14:00:14.734Z</time>
      </trkpt>
      <trkpt lat="45.05214" lon="-1.05479">
        <ele>64.738929</ele>
        <time>2022-12-23T14:00:17.750Z</time>
      </trkpt>
      <trkpt lat="45.05204" lon="-1.05483">
        <ele>64.802807</ele>
        <time>2022-12-23T14:00:20.752Z</time>
      </trkpt>
      <trkpt lat="45.05194" lon="-1.05488">
        <ele>64.868219</ele>
        <time>2022-12-23T14:00:23.750Z</time>
      </trkpt>
      <trkpt lat="45.05183" lon="-1.05492">
        <ele>64.932734</ele>
        <time>2022-12-23T14:00:26.737Z</time>
      </trkpt>
      <trkpt lat="45.05173" lon="-1.05497">
        <ele>64.943793</ele>
        <time>2022-12-23T14:00:29.754Z</time>
      </trkpt>
      <trkpt lat="45.05162" lon="-1.05501">
        <ele>64.914096</ele>
        <time>2022-12-23T14:00:32.755Z</time>
      </trkpt>
      <trkpt lat="45.05151" lon="-1.05506">
        <ele>64.884377</ele>
        <time>2022-12-23T14:00:35.747Z</time>
      </trkpt>
      <trkpt lat="45.0514" lon="-1.05512">
        <ele>64.854909</ele>
        <time>2022-12-23T14:00:38.736Z</time>
      </trkpt>
      <trkpt lat="45.0513" lon="-1.05516">
        <ele>64.82789</ele>
        <time>2022-12-23T14:00:41.735Z</time>
      </trkpt>
      <trkpt lat="45.0512" lon="-1.0552">
        <ele>64.803092</ele>
        <time>2022-12-23T14:00:44.752Z</time>
      </trkpt>
      <trkpt lat="45.0511" lon="-1.05525">
        <ele>64.775903</ele>
        <time>2022-12-23T14:00:47.755Z</time>
      </trkpt>
      <trkpt lat="45.05099" lon="-1.0553">
        <ele>64.74732</ele>
        <time>2022-12-23T14:00:50.756Z</time>
      </trkpt>
      <trkpt lat="45.05089" lon="-1.05535">
        <ele>64.718681</ele>
        <time>2022-12-23T14:00:53.751Z</time>
      </trkpt>
      <trkpt lat="45.05078" lon="-1.05539">
        <ele>64.689611</ele>
        <time>2022-12-23T14:00:56.757Z</time>
      </trkpt>
      <trkpt lat="45.05067" lon="-1.05545">
        <ele>64.660619</ele>
        <time>2022-12-23T14:00:59.736Z</time>
      </trkpt>
      <trkpt lat="45.05056" lon="-1.0555">
        <ele>64.631198</ele>
        <time>2022-12-23T14:01:02.758Z</time>
      </trkpt>
      <trkpt lat="45.05045" lon="-1.05555">
        <ele>64.601665</ele>
        <time>2022-12-23T14:01:05.752Z</time>
      </trkpt>
      <trkpt lat="45.05033" lon="-1.0556">
        <ele>64.571029</ele>
        <time>2022-12-23T14:01:08.746Z</time>
      </trkpt>
      <trkpt lat="45.05022" lon="-1.05565">
        <ele>64.539206</ele>
        <time>2022-12-23T14:01:11.748Z</time>
      </trkpt>
      <trkpt lat="45.0501" lon="-1.0557">
        <ele>64.507745</ele>
        <time>2022-12-23T14:01:14.739Z</time>
      </trkpt>
      <trkpt lat="45.04999" lon="-1.05574">
        <ele>64.545521</ele>
        <time>2022-12-23T14:01:17.752Z</time>
      </trkpt>
      <trkpt lat="45.04989" lon="-1.0558">
        <ele>64.600538</ele>
        <time>2022-12-23T14:01:20.758Z</time>
      </trkpt>
      <trkpt lat="45.04979" lon="-1.05587">
        <ele>64.654761</ele>
        <time>2022-12-23T14:01:23.753Z</time>
      </trkpt>
      <trkpt lat="45.04971" lon="-1.05596">
        <ele>64.703233</ele>
        <time>2022-12-23T14:01:26.751Z</time>
      </trkpt>
      <trkpt lat="45.04962" lon="-1.05601">
        <ele>64.754886</ele>
        <time>2022-12-23T14:01:29.740Z</time>
      </trkpt>
      <trkpt lat="45.04951" lon="-1.05606">
        <ele>64.811086</ele>
        <time>2022-12-23T14:01:32.752Z</time>
      </trkpt>
      <trkpt lat="45.04939" lon="-1.05612">
        <ele>64.870271</ele>
        <time>2022-12-23T14:01:35.750Z</time>
      </trkpt>
      <trkpt lat="45.04927" lon="-1.05617">
        <ele>64.933764</ele>
        <time>2022-12-23T14:01:38.754Z</time>
      </trkpt>
      <trkpt lat="45.04914" lon="-1.05623">
        <ele>64.999498</ele>
        <time>2022-12-23T14:01:41.757Z</time>
      </trkpt>
      <trkpt lat="45.04902" lon="-1.05629">
        <ele>65.06343</ele>
        <time>2022-12-23T14:01:44.750Z</time>
      </trkpt>
      <trkpt lat="45.04893" lon="-1.05633">
        <ele>65.10807</ele>
        <time>2022-12-23T14:01:46.756Z</time>
      </trkpt>
      <trkpt lat="45.04884" lon="-1.05637">
        <ele>65.153933</ele>
        <time>2022-12-23T14:01:48.753Z</time>
      </trkpt>
      <trkpt lat="45.04875" lon="-1.05641">
        <ele>65.199987</ele>
        <time>2022-12-23T14:01:50.742Z</time>
      </trkpt>
      <trkpt lat="45.04866" lon="-1.05644">
        <ele>65.245946</ele>
        <time>2022-12-23T14:01:52.755Z</time>
      </trkpt>
      <trkpt lat="45.04857" lon="-1.05648">
        <ele>65.292875</ele>
        <time>2022-12-23T14:01:54.754Z</time>
      </trkpt>
      <trkpt lat="45.04848" lon="-1.05653">
        <ele>65.341061</ele>
        <time>2022-12-23T14:01:56.756Z</time>
      </trkpt>
      <trkpt lat="45.04839" lon="-1.05657">
        <ele>65.382843</ele>
        <time>2022-12-23T14:01:58.753Z</time>
      </trkpt>
      <trkpt lat="45.0483" lon="-1.05661">
        <ele>65.320775</ele>
        <time>2022-12-23T14:02:00.740Z</time>
      </trkpt>
      <trkpt lat="45.04821" lon="-1.05665">
        <ele>65.256658</ele>
        <time>2022-12-23T14:02:02.750Z</time>
      </trkpt>
      <trkpt lat="45.04812" lon="-1.05669">
        <ele>65.192911</ele>
        <time>2022-12-23T14:02:04.750Z</time>
      </trkpt>
      <trkpt lat="45.04803" lon="-1.05673">
        <ele>65.131971</ele>
        <time>2022-12-23T14:02:06.758Z</time>
      </trkpt>
      <trkpt lat="45.04794" lon="-1.05677">
        <ele>65.071315</ele>
        <time>2022-12-23T14:02:08.756Z</time>
      </trkpt>
      <trkpt lat="45.04785" lon="-1.05681">
        <ele>65.007694</ele>
        <time>2022-12-23T14:02:10.755Z</time>
      </trkpt>
      <trkpt lat="45.04776" lon="-1.05686">
        <ele>64.942368</ele>
        <time>2022-12-23T14:02:12.755Z</time>
      </trkpt>
      <trkpt lat="45.04763" lon="-1.05692">
        <ele>64.854912</ele>
        <time>2022-12-23T14:02:15.756Z</time>
      </trkpt>
      <trkpt lat="45.04752" lon="-1.05697">
        <ele>64.774826</ele>
        <time>2022-12-23T14:02:18.760Z</time>
      </trkpt>
      <trkpt lat="45.0474" lon="-1.05702">
        <ele>64.692901</ele>
        <time>2022-12-23T14:02:21.752Z</time>
      </trkpt>
      <trkpt lat="45.04728" lon="-1.05708">
        <ele>64.605445</ele>
        <time>2022-12-23T14:02:24.762Z</time>
      </trkpt>
      <trkpt lat="45.04716" lon="-1.05714">
        <ele>64.519511</ele>
        <time>2022-12-23T14:02:27.753Z</time>
      </trkpt>
      <trkpt lat="45.04702" lon="-1.05718">
        <ele>64.429923</ele>
        <time>2022-12-23T14:02:30.752Z</time>
      </trkpt>
      <trkpt lat="45.04693" lon="-1.05723">
        <ele>64.366334</ele>
        <time>2022-12-23T14:02:32.737Z</time>
      </trkpt>
      <trkpt lat="45.04685" lon="-1.05726">
        <ele>64.305041</ele>
        <time>2022-12-23T14:02:34.753Z</time>
      </trkpt>
      <trkpt lat="45.04672" lon="-1.05732">
        <ele>64.218671</ele>
        <time>2022-12-23T14:02:37.752Z</time>
      </trkpt>
      <trkpt lat="45.04661" lon="-1.05737">
        <ele>64.0086</ele>
        <time>2022-12-23T14:02:40.749Z</time>
      </trkpt>
      <trkpt lat="45.04653" lon="-1.05747">
        <ele>63.753091</ele>
        <time>2022-12-23T14:02:43.743Z</time>
      </trkpt>
      <trkpt lat="45.04656" lon="-1.05763">
        <ele>63.46649</ele>
        <time>2022-12-23T14:02:47.744Z</time>
      </trkpt>
      <trkpt lat="45.04664" lon="-1.05773">
        <ele>63.198008</ele>
        <time>2022-12-23T14:02:50.742Z</time>
      </trkpt>
      <trkpt lat="45.04673" lon="-1.05786">
        <ele>62.88929</ele>
        <time>2022-12-23T14:02:53.736Z</time>
      </trkpt>
      <trkpt lat="45.04681" lon="-1.05799">
        <ele>62.57922</ele>
        <time>2022-12-23T14:02:56.752Z</time>
      </trkpt>
      <trkpt lat="45.0469" lon="-1.05813">
        <ele>62.245678</ele>
        <time>2022-12-23T14:02:59.753Z</time>
      </trkpt>
      <trkpt lat="45.04696" lon="-1.05823">
        <ele>62.00749</ele>
        <time>2022-12-23T14:03:01.754Z</time>
      </trkpt>
      <trkpt lat="45.04702" lon="-1.05833">
        <ele>61.776992</ele>
        <time>2022-12-23T14:03:03.747Z</time>
      </trkpt>
      <trkpt lat="45.04709" lon="-1.05843">
        <ele>61.535851</ele>
        <time>2022-12-23T14:03:05.755Z</time>
      </trkpt>
      <trkpt lat="45.04715" lon="-1.05853">
        <ele>61.297663</ele>
        <time>2022-12-23T14:03:07.753Z</time>
      </trkpt>
      <trkpt lat="45.04723" lon="-1.05867">
        <ele>60.981934</ele>
        <time>2022-12-23T14:03:10.751Z</time>
      </trkpt>
      <trkpt lat="45.04729" lon="-1.05877">
        <ele>60.756659</ele>
        <time>2022-12-23T14:03:12.753Z</time>
      </trkpt>
      <trkpt lat="45.04735" lon="-1.05887">
        <ele>60.509946</ele>
        <time>2022-12-23T14:03:14.754Z</time>
      </trkpt>
      <trkpt lat="45.04742" lon="-1.05897">
        <ele>60.261887</ele>
        <time>2022-12-23T14:03:16.753Z</time>
      </trkpt>
      <trkpt lat="45.04749" lon="-1.05907">
        <ele>60.035282</ele>
        <time>2022-12-23T14:03:18.737Z</time>
      </trkpt>
      <trkpt lat="45.04758" lon="-1.05921">
        <ele>59.702644</ele>
        <time>2022-12-23T14:03:21.758Z</time>
      </trkpt>
      <trkpt lat="45.04766" lon="-1.05933">
        <ele>59.997006</ele>
        <time>2022-12-23T14:03:24.754Z</time>
      </trkpt>
      <trkpt lat="45.04773" lon="-1.05944">
        <ele>60.266747</ele>
        <time>2022-12-23T14:03:27.756Z</time>
      </trkpt>
      <trkpt lat="45.04781" lon="-1.05955">
        <ele>60.553514</ele>
        <time>2022-12-23T14:03:30.753Z</time>
      </trkpt>
      <trkpt lat="45.04789" lon="-1.05968">
        <ele>60.86433</ele>
        <time>2022-12-23T14:03:33.739Z</time>
      </trkpt>
      <trkpt lat="45.04797" lon="-1.05982">
        <ele>61.191713</ele>
        <time>2022-12-23T14:03:36.741Z</time>
      </trkpt>
      <trkpt lat="45.04806" lon="-1.05996">
        <ele>61.533024</ele>
        <time>2022-12-23T14:03:39.754Z</time>
      </trkpt>
      <trkpt lat="45.04812" lon="-1.06006">
        <ele>61.77595</ele>
        <time>2022-12-23T14:03:41.751Z</time>
      </trkpt>
      <trkpt lat="45.04819" lon="-1.06016">
        <ele>62.017337</ele>
        <time>2022-12-23T14:03:43.744Z</time>
      </trkpt>
      <trkpt lat="45.04825" lon="-1.06026">
        <ele>62.25447</ele>
        <time>2022-12-23T14:03:45.753Z</time>
      </trkpt>
      <trkpt lat="45.04829" lon="-1.06038">
        <ele>62.486934</ele>
        <time>2022-12-23T14:03:48.748Z</time>
      </trkpt>
      <trkpt lat="45.04822" lon="-1.06046">
        <ele>62.724501</ele>
        <time>2022-12-23T14:03:53.735Z</time>
      </trkpt>
      <trkpt lat="45.04812" lon="-1.06051">
        <ele>62.984967</ele>
        <time>2022-12-23T14:03:57.746Z</time>
      </trkpt>
      <trkpt lat="45.04801" lon="-1.06055">
        <ele>63.270136</ele>
        <time>2022-12-23T14:04:00.735Z</time>
      </trkpt>
      <trkpt lat="45.0479" lon="-1.06059">
        <ele>63.573447</ele>
        <time>2022-12-23T14:04:03.754Z</time>
      </trkpt>
      <trkpt lat="45.04778" lon="-1.06064">
        <ele>63.878715</ele>
        <time>2022-12-23T14:04:06.735Z</time>
      </trkpt>
      <trkpt lat="45.04766" lon="-1.06069">
        <ele>64.190342</ele>
        <time>2022-12-23T14:04:09.754Z</time>
      </trkpt>
      <trkpt lat="45.04754" lon="-1.06074">
        <ele>64.371903</ele>
        <time>2022-12-23T14:04:12.756Z</time>
      </trkpt>
      <trkpt lat="45.04742" lon="-1.06079">
        <ele>64.498774</ele>
        <time>2022-12-23T14:04:15.751Z</time>
      </trkpt>
      <trkpt lat="45.0473" lon="-1.06085">
        <ele>64.624293</ele>
        <time>2022-12-23T14:04:18.751Z</time>
      </trkpt>
      <trkpt lat="45.04718" lon="-1.06091">
        <ele>64.752849</ele>
        <time>2022-12-23T14:04:21.743Z</time>
      </trkpt>
      <trkpt lat="45.04705" lon="-1.06096">
        <ele>64.879306</ele>
        <time>2022-12-23T14:04:24.749Z</time>
      </trkpt>
      <trkpt lat="45.04693" lon="-1.06102">
        <ele>65.007862</ele>
        <time>2022-12-23T14:04:27.734Z</time>
      </trkpt>
      <trkpt lat="45.04681" lon="-1.06109">
        <ele>65.137343</ele>
        <time>2022-12-23T14:04:30.756Z</time>
      </trkpt>
      <trkpt lat="45.04668" lon="-1.06115">
        <ele>65.267775</ele>
        <time>2022-12-23T14:04:33.755Z</time>
      </trkpt>
      <trkpt lat="45.04656" lon="-1.0612">
        <ele>65.39789</ele>
        <time>2022-12-23T14:04:36.736Z</time>
      </trkpt>
      <trkpt lat="45.04644" lon="-1.06126">
        <ele>65.519438</ele>
        <time>2022-12-23T14:04:39.753Z</time>
      </trkpt>
      <trkpt lat="45.04632" lon="-1.0613">
        <ele>65.641923</ele>
        <time>2022-12-23T14:04:42.753Z</time>
      </trkpt>
      <trkpt lat="45.0462" lon="-1.06136">
        <ele>65.771417</ele>
        <time>2022-12-23T14:04:45.749Z</time>
      </trkpt>
      <trkpt lat="45.04609" lon="-1.06141">
        <ele>65.888201</ele>
        <time>2022-12-23T14:04:48.752Z</time>
      </trkpt>
      <trkpt lat="45.04598" lon="-1.06145">
        <ele>65.998031</ele>
        <time>2022-12-23T14:04:51.754Z</time>
      </trkpt>
      <trkpt lat="45.04586" lon="-1.06151">
        <ele>66.076375</ele>
        <time>2022-12-23T14:04:54.758Z</time>
      </trkpt>
      <trkpt lat="45.04573" lon="-1.06157">
        <ele>66.106941</ele>
        <time>2022-12-23T14:04:57.762Z</time>
      </trkpt>
      <trkpt lat="45.04561" lon="-1.06163">
        <ele>66.137727</ele>
        <time>2022-12-23T14:05:00.739Z</time>
      </trkpt>
      <trkpt lat="45.04548" lon="-1.06169">
        <ele>66.168622</ele>
        <time>2022-12-23T14:05:03.755Z</time>
      </trkpt>
      <trkpt lat="45.04539" lon="-1.06173">
        <ele>66.191564</ele>
        <time>2022-12-23T14:05:05.743Z</time>
      </trkpt>
      <trkpt lat="45.0453" lon="-1.06177">
        <ele>66.213187</ele>
        <time>2022-12-23T14:05:07.735Z</time>
      </trkpt>
      <trkpt lat="45.04518" lon="-1.06183">
        <ele>66.243863</ele>
        <time>2022-12-23T14:05:10.751Z</time>
      </trkpt>
      <trkpt lat="45.04506" lon="-1.06189">
        <ele>66.273115</ele>
        <time>2022-12-23T14:05:13.748Z</time>
      </trkpt>
      <trkpt lat="45.04493" lon="-1.06194">
        <ele>66.303315</ele>
        <time>2022-12-23T14:05:16.738Z</time>
      </trkpt>
      <trkpt lat="45.04481" lon="-1.06199">
        <ele>66.332306</ele>
        <time>2022-12-23T14:05:19.757Z</time>
      </trkpt>
      <trkpt lat="45.04469" lon="-1.06204">
        <ele>66.361947</ele>
        <time>2022-12-23T14:05:22.754Z</time>
      </trkpt>
      <trkpt lat="45.04458" lon="-1.06209">
        <ele>66.38907</ele>
        <time>2022-12-23T14:05:25.755Z</time>
      </trkpt>
      <trkpt lat="45.04446" lon="-1.06215">
        <ele>66.417945</ele>
        <time>2022-12-23T14:05:28.756Z</time>
      </trkpt>
      <trkpt lat="45.04434" lon="-1.06221">
        <ele>66.448017</ele>
        <time>2022-12-23T14:05:31.759Z</time>
      </trkpt>
      <trkpt lat="45.04422" lon="-1.06226">
        <ele>66.476882</ele>
        <time>2022-12-23T14:05:34.742Z</time>
      </trkpt>
      <trkpt lat="45.04414" lon="-1.06231">
        <ele>66.544504</ele>
        <time>2022-12-23T14:05:36.760Z</time>
      </trkpt>
      <trkpt lat="45.04402" lon="-1.06236">
        <ele>66.648563</ele>
        <time>2022-12-23T14:05:39.748Z</time>
      </trkpt>
      <trkpt lat="45.04393" lon="-1.06239">
        <ele>66.724566</ele>
        <time>2022-12-23T14:05:41.753Z</time>
      </trkpt>
      <trkpt lat="45.04384" lon="-1.06244">
        <ele>66.802726</ele>
        <time>2022-12-23T14:05:43.754Z</time>
      </trkpt>
      <trkpt lat="45.04374" lon="-1.06249">
        <ele>66.890233</ele>
        <time>2022-12-23T14:05:45.756Z</time>
      </trkpt>
      <trkpt lat="45.04366" lon="-1.06253">
        <ele>66.966889</ele>
        <time>2022-12-23T14:05:47.746Z</time>
      </trkpt>
      <trkpt lat="45.04354" lon="-1.06256">
        <ele>67.064539</ele>
        <time>2022-12-23T14:05:50.754Z</time>
      </trkpt>
      <trkpt lat="45.04343" lon="-1.06262">
        <ele>67.160954</ele>
        <time>2022-12-23T14:05:53.754Z</time>
      </trkpt>
      <trkpt lat="45.04331" lon="-1.06267">
        <ele>67.266144</ele>
        <time>2022-12-23T14:05:56.741Z</time>
      </trkpt>
      <trkpt lat="45.04319" lon="-1.06272">
        <ele>67.371167</ele>
        <time>2022-12-23T14:05:59.751Z</time>
      </trkpt>
      <trkpt lat="45.0431" lon="-1.06277">
        <ele>67.446779</ele>
        <time>2022-12-23T14:06:01.755Z</time>
      </trkpt>
      <trkpt lat="45.04298" lon="-1.06282">
        <ele>67.553219</ele>
        <time>2022-12-23T14:06:04.749Z</time>
      </trkpt>
      <trkpt lat="45.04287" lon="-1.06287">
        <ele>67.653913</ele>
        <time>2022-12-23T14:06:07.755Z</time>
      </trkpt>
      <trkpt lat="45.04275" lon="-1.06293">
        <ele>67.759981</ele>
        <time>2022-12-23T14:06:10.750Z</time>
      </trkpt>
      <trkpt lat="45.04263" lon="-1.06298">
        <ele>67.865004</ele>
        <time>2022-12-23T14:06:13.754Z</time>
      </trkpt>
      <trkpt lat="45.0425" lon="-1.06303">
        <ele>67.970993</ele>
        <time>2022-12-23T14:06:16.752Z</time>
      </trkpt>
      <trkpt lat="45.04239" lon="-1.06307">
        <ele>68.036773</ele>
        <time>2022-12-23T14:06:19.754Z</time>
      </trkpt>
      <trkpt lat="45.04229" lon="-1.06311">
        <ele>68.09964</ele>
        <time>2022-12-23T14:06:22.734Z</time>
      </trkpt>
      <trkpt lat="45.04216" lon="-1.06318">
        <ele>68.175091</ele>
        <time>2022-12-23T14:06:25.749Z</time>
      </trkpt>
      <trkpt lat="45.04207" lon="-1.06323">
        <ele>68.227519</ele>
        <time>2022-12-23T14:06:27.754Z</time>
      </trkpt>
      <trkpt lat="45.04198" lon="-1.06328">
        <ele>68.27986</ele>
        <time>2022-12-23T14:06:29.757Z</time>
      </trkpt>
      <trkpt lat="45.0419" lon="-1.06333">
        <ele>68.330809</ele>
        <time>2022-12-23T14:06:31.751Z</time>
      </trkpt>
      <trkpt lat="45.04178" lon="-1.06338">
        <ele>68.400002</ele>
        <time>2022-12-23T14:06:34.749Z</time>
      </trkpt>
      <trkpt lat="45.04166" lon="-1.06342">
        <ele>68.469447</ele>
        <time>2022-12-23T14:06:37.743Z</time>
      </trkpt>
      <trkpt lat="45.04154" lon="-1.06347">
        <ele>68.540673</ele>
        <time>2022-12-23T14:06:40.769Z</time>
      </trkpt>
      <trkpt lat="45.04144" lon="-1.06351">
        <ele>68.597525</ele>
        <time>2022-12-23T14:06:43.755Z</time>
      </trkpt>
      <trkpt lat="45.04134" lon="-1.06355">
        <ele>68.653627</ele>
        <time>2022-12-23T14:06:46.757Z</time>
      </trkpt>
      <trkpt lat="45.04122" lon="-1.0636">
        <ele>68.7226</ele>
        <time>2022-12-23T14:06:50.737Z</time>
      </trkpt>
      <trkpt lat="45.0411" lon="-1.06365">
        <ele>68.796098</ele>
        <time>2022-12-23T14:06:53.757Z</time>
      </trkpt>
      <trkpt lat="45.04098" lon="-1.0637">
        <ele>68.864428</ele>
        <time>2022-12-23T14:06:56.754Z</time>
      </trkpt>
      <trkpt lat="45.04089" lon="-1.06374">
        <ele>68.915666</ele>
        <time>2022-12-23T14:06:58.756Z</time>
      </trkpt>
      <trkpt lat="45.04081" lon="-1.06379">
        <ele>68.967435</ele>
        <time>2022-12-23T14:07:00.753Z</time>
      </trkpt>
      <trkpt lat="45.04068" lon="-1.06385">
        <ele>68.947694</ele>
        <time>2022-12-23T14:07:03.754Z</time>
      </trkpt>
      <trkpt lat="45.04059" lon="-1.06389">
        <ele>68.917541</ele>
        <time>2022-12-23T14:07:05.755Z</time>
      </trkpt>
      <trkpt lat="45.04047" lon="-1.06395">
        <ele>68.87479</ele>
        <time>2022-12-23T14:07:08.749Z</time>
      </trkpt>
      <trkpt lat="45.04036" lon="-1.06401">
        <ele>68.835779</ele>
        <time>2022-12-23T14:07:11.755Z</time>
      </trkpt>
      <trkpt lat="45.04025" lon="-1.06405">
        <ele>68.800687</ele>
        <time>2022-12-23T14:07:14.754Z</time>
      </trkpt>
      <trkpt lat="45.04016" lon="-1.06409">
        <ele>68.771264</ele>
        <time>2022-12-23T14:07:16.753Z</time>
      </trkpt>
      <trkpt lat="45.04006" lon="-1.06414">
        <ele>68.734471</ele>
        <time>2022-12-23T14:07:19.747Z</time>
      </trkpt>
      <trkpt lat="45.03997" lon="-1.06419">
        <ele>68.704956</ele>
        <time>2022-12-23T14:07:21.753Z</time>
      </trkpt>
      <trkpt lat="45.03985" lon="-1.06425">
        <ele>68.662382</ele>
        <time>2022-12-23T14:07:24.754Z</time>
      </trkpt>
      <trkpt lat="45.03973" lon="-1.0643">
        <ele>68.620841</ele>
        <time>2022-12-23T14:07:27.752Z</time>
      </trkpt>
      <trkpt lat="45.0396" lon="-1.06437">
        <ele>68.577932</ele>
        <time>2022-12-23T14:07:30.743Z</time>
      </trkpt>
      <trkpt lat="45.03948" lon="-1.06442">
        <ele>68.537694</ele>
        <time>2022-12-23T14:07:33.758Z</time>
      </trkpt>
      <trkpt lat="45.03938" lon="-1.06446">
        <ele>68.503845</ele>
        <time>2022-12-23T14:07:36.756Z</time>
      </trkpt>
      <trkpt lat="45.03929" lon="-1.06452">
        <ele>68.472307</ele>
        <time>2022-12-23T14:07:39.741Z</time>
      </trkpt>
      <trkpt lat="45.03917" lon="-1.06456">
        <ele>68.431325</ele>
        <time>2022-12-23T14:07:42.756Z</time>
      </trkpt>
      <trkpt lat="45.03906" lon="-1.06462">
        <ele>68.392457</ele>
        <time>2022-12-23T14:07:45.756Z</time>
      </trkpt>
      <trkpt lat="45.03893" lon="-1.06467">
        <ele>68.355315</ele>
        <time>2022-12-23T14:07:48.753Z</time>
      </trkpt>
      <trkpt lat="45.03882" lon="-1.06472">
        <ele>68.321993</ele>
        <time>2022-12-23T14:07:51.750Z</time>
      </trkpt>
      <trkpt lat="45.03871" lon="-1.06476">
        <ele>68.289992</ele>
        <time>2022-12-23T14:07:54.752Z</time>
      </trkpt>
      <trkpt lat="45.0386" lon="-1.0648">
        <ele>68.256357</ele>
        <time>2022-12-23T14:07:57.733Z</time>
      </trkpt>
      <trkpt lat="45.03849" lon="-1.06485">
        <ele>68.221443</ele>
        <time>2022-12-23T14:08:00.734Z</time>
      </trkpt>
      <trkpt lat="45.03836" lon="-1.06489">
        <ele>68.185325</ele>
        <time>2022-12-23T14:08:03.740Z</time>
      </trkpt>
      <trkpt lat="45.03826" lon="-1.06494">
        <ele>68.152854</ele>
        <time>2022-12-23T14:08:06.758Z</time>
      </trkpt>
      <trkpt lat="45.03815" lon="-1.06499">
        <ele>68.119807</ele>
        <time>2022-12-23T14:08:09.756Z</time>
      </trkpt>
      <trkpt lat="45.03803" lon="-1.06505">
        <ele>68.083091</ele>
        <time>2022-12-23T14:08:12.755Z</time>
      </trkpt>
      <trkpt lat="45.03791" lon="-1.06511">
        <ele>68.047469</ele>
        <time>2022-12-23T14:08:15.750Z</time>
      </trkpt>
      <trkpt lat="45.03779" lon="-1.06518">
        <ele>68.008772</ele>
        <time>2022-12-23T14:08:18.747Z</time>
      </trkpt>
      <trkpt lat="45.03768" lon="-1.06523">
        <ele>67.975464</ele>
        <time>2022-12-23T14:08:21.751Z</time>
      </trkpt>
      <trkpt lat="45.03756" lon="-1.06527">
        <ele>67.94131</ele>
        <time>2022-12-23T14:08:24.738Z</time>
      </trkpt>
      <trkpt lat="45.03744" lon="-1.0653">
        <ele>67.906375</ele>
        <time>2022-12-23T14:08:27.754Z</time>
      </trkpt>
      <trkpt lat="45.03733" lon="-1.06536">
        <ele>67.831199</ele>
        <time>2022-12-23T14:08:30.752Z</time>
      </trkpt>
      <trkpt lat="45.0372" lon="-1.06541">
        <ele>67.637645</ele>
        <time>2022-12-23T14:08:33.755Z</time>
      </trkpt>
      <trkpt lat="45.03708" lon="-1.06547">
        <ele>67.458422</ele>
        <time>2022-12-23T14:08:36.751Z</time>
      </trkpt>
      <trkpt lat="45.03695" lon="-1.06552">
        <ele>67.27343</ele>
        <time>2022-12-23T14:08:39.756Z</time>
      </trkpt>
      <trkpt lat="45.03684" lon="-1.06558">
        <ele>67.097924</ele>
        <time>2022-12-23T14:08:42.753Z</time>
      </trkpt>
      <trkpt lat="45.03675" lon="-1.06562">
        <ele>66.965311</ele>
        <time>2022-12-23T14:08:44.759Z</time>
      </trkpt>
      <trkpt lat="45.03663" lon="-1.06568">
        <ele>66.776575</ele>
        <time>2022-12-23T14:08:47.744Z</time>
      </trkpt>
      <trkpt lat="45.03651" lon="-1.06573">
        <ele>66.607872</ele>
        <time>2022-12-23T14:08:50.754Z</time>
      </trkpt>
      <trkpt lat="45.03639" lon="-1.06579">
        <ele>66.421856</ele>
        <time>2022-12-23T14:08:53.754Z</time>
      </trkpt>
      <trkpt lat="45.03629" lon="-1.06584">
        <ele>66.264883</ele>
        <time>2022-12-23T14:08:56.748Z</time>
      </trkpt>
      <trkpt lat="45.03618" lon="-1.06591">
        <ele>66.087901</ele>
        <time>2022-12-23T14:08:59.747Z</time>
      </trkpt>
      <trkpt lat="45.03605" lon="-1.06597">
        <ele>65.896118</ele>
        <time>2022-12-23T14:09:02.756Z</time>
      </trkpt>
      <trkpt lat="45.03593" lon="-1.06604">
        <ele>65.709504</ele>
        <time>2022-12-23T14:09:05.749Z</time>
      </trkpt>
      <trkpt lat="45.03581" lon="-1.0661">
        <ele>65.525484</ele>
        <time>2022-12-23T14:09:08.756Z</time>
      </trkpt>
      <trkpt lat="45.03569" lon="-1.06616">
        <ele>65.339838</ele>
        <time>2022-12-23T14:09:11.754Z</time>
      </trkpt>
      <trkpt lat="45.03556" lon="-1.06621">
        <ele>65.445523</ele>
        <time>2022-12-23T14:09:14.751Z</time>
      </trkpt>
      <trkpt lat="45.03545" lon="-1.06626">
        <ele>65.630284</ele>
        <time>2022-12-23T14:09:17.752Z</time>
      </trkpt>
      <trkpt lat="45.03533" lon="-1.06632">
        <ele>65.809453</ele>
        <time>2022-12-23T14:09:20.755Z</time>
      </trkpt>
      <trkpt lat="45.03522" lon="-1.06637">
        <ele>65.993506</ele>
        <time>2022-12-23T14:09:23.755Z</time>
      </trkpt>
      <trkpt lat="45.03511" lon="-1.06643">
        <ele>66.167016</ele>
        <time>2022-12-23T14:09:26.750Z</time>
      </trkpt>
      <trkpt lat="45.03499" lon="-1.06649">
        <ele>66.354236</ele>
        <time>2022-12-23T14:09:29.756Z</time>
      </trkpt>
      <trkpt lat="45.03487" lon="-1.06654">
        <ele>66.536128</ele>
        <time>2022-12-23T14:09:32.733Z</time>
      </trkpt>
      <trkpt lat="45.03475" lon="-1.06659">
        <ele>66.723049</ele>
        <time>2022-12-23T14:09:35.750Z</time>
      </trkpt>
      <trkpt lat="45.03463" lon="-1.06664">
        <ele>66.913012</ele>
        <time>2022-12-23T14:09:38.733Z</time>
      </trkpt>
      <trkpt lat="45.0345" lon="-1.06668">
        <ele>67.11066</ele>
        <time>2022-12-23T14:09:41.752Z</time>
      </trkpt>
      <trkpt lat="45.03438" lon="-1.06672">
        <ele>67.300922</ele>
        <time>2022-12-23T14:09:44.752Z</time>
      </trkpt>
      <trkpt lat="45.03425" lon="-1.06676">
        <ele>67.492754</ele>
        <time>2022-12-23T14:09:47.750Z</time>
      </trkpt>
      <trkpt lat="45.03414" lon="-1.06681">
        <ele>67.667487</ele>
        <time>2022-12-23T14:09:50.746Z</time>
      </trkpt>
      <trkpt lat="45.03404" lon="-1.06686">
        <ele>67.829076</ele>
        <time>2022-12-23T14:09:53.755Z</time>
      </trkpt>
      <trkpt lat="45.03393" lon="-1.06692">
        <ele>67.97182</ele>
        <time>2022-12-23T14:09:56.756Z</time>
      </trkpt>
      <trkpt lat="45.03382" lon="-1.06697">
        <ele>67.818908</ele>
        <time>2022-12-23T14:09:59.742Z</time>
      </trkpt>
      <trkpt lat="45.03372" lon="-1.06702">
        <ele>67.678209</ele>
        <time>2022-12-23T14:10:02.733Z</time>
      </trkpt>
      <trkpt lat="45.03362" lon="-1.06706">
        <ele>67.550011</ele>
        <time>2022-12-23T14:10:05.769Z</time>
      </trkpt>
      <trkpt lat="45.03351" lon="-1.06711">
        <ele>67.402994</ele>
        <time>2022-12-23T14:10:08.752Z</time>
      </trkpt>
      <trkpt lat="45.03339" lon="-1.06716">
        <ele>67.232308</ele>
        <time>2022-12-23T14:10:11.751Z</time>
      </trkpt>
      <trkpt lat="45.03326" lon="-1.06722">
        <ele>67.061655</ele>
        <time>2022-12-23T14:10:14.751Z</time>
      </trkpt>
      <trkpt lat="45.03314" lon="-1.06728">
        <ele>66.894905</ele>
        <time>2022-12-23T14:10:17.760Z</time>
      </trkpt>
      <trkpt lat="45.03302" lon="-1.06734">
        <ele>66.732156</ele>
        <time>2022-12-23T14:10:20.753Z</time>
      </trkpt>
      <trkpt lat="45.03291" lon="-1.0674">
        <ele>66.581698</ele>
        <time>2022-12-23T14:10:23.749Z</time>
      </trkpt>
      <trkpt lat="45.03282" lon="-1.06744">
        <ele>66.454729</ele>
        <time>2022-12-23T14:10:26.744Z</time>
      </trkpt>
      <trkpt lat="45.03271" lon="-1.06749">
        <ele>66.302482</ele>
        <time>2022-12-23T14:10:29.733Z</time>
      </trkpt>
      <trkpt lat="45.03259" lon="-1.06754">
        <ele>66.146162</ele>
        <time>2022-12-23T14:10:32.752Z</time>
      </trkpt>
      <trkpt lat="45.03247" lon="-1.06759">
        <ele>65.987097</ele>
        <time>2022-12-23T14:10:35.756Z</time>
      </trkpt>
      <trkpt lat="45.03238" lon="-1.0676">
        <ele>65.867625</ele>
        <time>2022-12-23T14:10:54.756Z</time>
      </trkpt>
      <trkpt lat="45.0323" lon="-1.06764">
        <ele>65.749826</ele>
        <time>2022-12-23T14:11:14.730Z</time>
      </trkpt>
      <trkpt lat="45.03231" lon="-1.06763">
        <ele>65.73501</ele>
        <time>2022-12-23T14:11:22.284Z</time>
      </trkpt>
      <trkpt lat="45.0321" lon="-1.06776">
        <ele>65.858416</ele>
        <time>2022-12-23T14:16:11.763Z</time>
      </trkpt>
      <trkpt lat="45.03199" lon="-1.06782">
        <ele>65.996959</ele>
        <time>2022-12-23T14:16:15.744Z</time>
      </trkpt>
      <trkpt lat="45.0319" lon="-1.06786">
        <ele>66.110196</ele>
        <time>2022-12-23T14:16:18.752Z</time>
      </trkpt>
      <trkpt lat="45.0318" lon="-1.06791">
        <ele>66.24339</ele>
        <time>2022-12-23T14:16:21.757Z</time>
      </trkpt>
      <trkpt lat="45.03169" lon="-1.06795">
        <ele>66.381338</ele>
        <time>2022-12-23T14:16:24.754Z</time>
      </trkpt>
      <trkpt lat="45.03158" lon="-1.068">
        <ele>66.524182</ele>
        <time>2022-12-23T14:16:27.756Z</time>
      </trkpt>
      <trkpt lat="45.03146" lon="-1.06805">
        <ele>66.674926</ele>
        <time>2022-12-23T14:16:30.747Z</time>
      </trkpt>
      <trkpt lat="45.03134" lon="-1.0681">
        <ele>66.821926</ele>
        <time>2022-12-23T14:16:33.755Z</time>
      </trkpt>
      <trkpt lat="45.03126" lon="-1.06814">
        <ele>66.934885</ele>
        <time>2022-12-23T14:16:35.745Z</time>
      </trkpt>
      <trkpt lat="45.03113" lon="-1.06819">
        <ele>67.094285</ele>
        <time>2022-12-23T14:16:38.756Z</time>
      </trkpt>
      <trkpt lat="45.03101" lon="-1.06825">
        <ele>67.253681</ele>
        <time>2022-12-23T14:16:41.745Z</time>
      </trkpt>
      <trkpt lat="45.03087" lon="-1.06831">
        <ele>67.421049</ele>
        <time>2022-12-23T14:16:44.755Z</time>
      </trkpt>
      <trkpt lat="45.03078" lon="-1.06835">
        <ele>67.536697</ele>
        <time>2022-12-23T14:16:46.754Z</time>
      </trkpt>
      <trkpt lat="45.03066" lon="-1.06839">
        <ele>67.694948</ele>
        <time>2022-12-23T14:16:49.753Z</time>
      </trkpt>
      <trkpt lat="45.03056" lon="-1.06845">
        <ele>67.824152</ele>
        <time>2022-12-23T14:16:51.766Z</time>
      </trkpt>
      <trkpt lat="45.03045" lon="-1.06852">
        <ele>67.964992</ele>
        <time>2022-12-23T14:16:54.758Z</time>
      </trkpt>
      <trkpt lat="45.03035" lon="-1.06857">
        <ele>68.082594</ele>
        <time>2022-12-23T14:16:56.754Z</time>
      </trkpt>
      <trkpt lat="45.03026" lon="-1.06862">
        <ele>68.200554</ele>
        <time>2022-12-23T14:16:58.733Z</time>
      </trkpt>
      <trkpt lat="45.03016" lon="-1.06866">
        <ele>68.313735</ele>
        <time>2022-12-23T14:17:00.756Z</time>
      </trkpt>
      <trkpt lat="45.03007" lon="-1.06871">
        <ele>68.428162</ele>
        <time>2022-12-23T14:17:02.755Z</time>
      </trkpt>
      <trkpt lat="45.02994" lon="-1.06875">
        <ele>68.576181</ele>
        <time>2022-12-23T14:17:05.755Z</time>
      </trkpt>
      <trkpt lat="45.02986" lon="-1.0688">
        <ele>68.685434</ele>
        <time>2022-12-23T14:17:07.753Z</time>
      </trkpt>
      <trkpt lat="45.02972" lon="-1.06884">
        <ele>68.844307</ele>
        <time>2022-12-23T14:17:10.760Z</time>
      </trkpt>
      <trkpt lat="45.02962" lon="-1.06888">
        <ele>68.961513</ele>
        <time>2022-12-23T14:17:12.755Z</time>
      </trkpt>
      <trkpt lat="45.02954" lon="-1.06892">
        <ele>69.068089</ele>
        <time>2022-12-23T14:17:14.753Z</time>
      </trkpt>
      <trkpt lat="45.02941" lon="-1.06897">
        <ele>69.220365</ele>
        <time>2022-12-23T14:17:17.756Z</time>
      </trkpt>
      <trkpt lat="45.02929" lon="-1.06901">
        <ele>69.362707</ele>
        <time>2022-12-23T14:17:20.755Z</time>
      </trkpt>
      <trkpt lat="45.0292" lon="-1.06905">
        <ele>69.47198</ele>
        <time>2022-12-23T14:17:22.759Z</time>
      </trkpt>
      <trkpt lat="45.0291" lon="-1.06909">
        <ele>69.590474</ele>
        <time>2022-12-23T14:17:24.747Z</time>
      </trkpt>
      <trkpt lat="45.029" lon="-1.06912">
        <ele>69.701583</ele>
        <time>2022-12-23T14:17:26.753Z</time>
      </trkpt>
      <trkpt lat="45.02888" lon="-1.06918">
        <ele>69.848631</ele>
        <time>2022-12-23T14:17:29.754Z</time>
      </trkpt>
      <trkpt lat="45.0288" lon="-1.06921">
        <ele>69.775114</ele>
        <time>2022-12-23T14:17:31.762Z</time>
      </trkpt>
      <trkpt lat="45.02871" lon="-1.06924">
        <ele>69.335849</ele>
        <time>2022-12-23T14:17:33.752Z</time>
      </trkpt>
      <trkpt lat="45.02861" lon="-1.06927">
        <ele>68.872827</ele>
        <time>2022-12-23T14:17:35.755Z</time>
      </trkpt>
      <trkpt lat="45.02852" lon="-1.06929">
        <ele>68.442577</ele>
        <time>2022-12-23T14:17:37.751Z</time>
      </trkpt>
      <trkpt lat="45.02843" lon="-1.06932">
        <ele>68.000697</ele>
        <time>2022-12-23T14:17:39.742Z</time>
      </trkpt>
      <trkpt lat="45.02833" lon="-1.06936">
        <ele>67.54221</ele>
        <time>2022-12-23T14:17:41.760Z</time>
      </trkpt>
      <trkpt lat="45.02821" lon="-1.06941">
        <ele>66.929496</ele>
        <time>2022-12-23T14:17:44.754Z</time>
      </trkpt>
      <trkpt lat="45.02812" lon="-1.06945">
        <ele>66.493521</ele>
        <time>2022-12-23T14:17:46.752Z</time>
      </trkpt>
      <trkpt lat="45.028" lon="-1.06949">
        <ele>65.890791</ele>
        <time>2022-12-23T14:17:49.754Z</time>
      </trkpt>
      <trkpt lat="45.02787" lon="-1.06953">
        <ele>65.273604</ele>
        <time>2022-12-23T14:17:52.754Z</time>
      </trkpt>
      <trkpt lat="45.02774" lon="-1.06956">
        <ele>64.642168</ele>
        <time>2022-12-23T14:17:55.757Z</time>
      </trkpt>
      <trkpt lat="45.02761" lon="-1.0696">
        <ele>64.015678</ele>
        <time>2022-12-23T14:17:58.754Z</time>
      </trkpt>
      <trkpt lat="45.02748" lon="-1.06963">
        <ele>63.4223</ele>
        <time>2022-12-23T14:18:01.754Z</time>
      </trkpt>
      <trkpt lat="45.02735" lon="-1.06966">
        <ele>62.796161</ele>
        <time>2022-12-23T14:18:04.756Z</time>
      </trkpt>
      <trkpt lat="45.02723" lon="-1.0697">
        <ele>62.191742</ele>
        <time>2022-12-23T14:18:07.744Z</time>
      </trkpt>
      <trkpt lat="45.0271" lon="-1.06974">
        <ele>61.564242</ele>
        <time>2022-12-23T14:18:10.753Z</time>
      </trkpt>
      <trkpt lat="45.02697" lon="-1.06977">
        <ele>61.308573</ele>
        <time>2022-12-23T14:18:13.753Z</time>
      </trkpt>
      <trkpt lat="45.02685" lon="-1.06979">
        <ele>61.144025</ele>
        <time>2022-12-23T14:18:16.752Z</time>
      </trkpt>
      <trkpt lat="45.02673" lon="-1.06983">
        <ele>60.981743</ele>
        <time>2022-12-23T14:18:19.744Z</time>
      </trkpt>
      <trkpt lat="45.0266" lon="-1.06986">
        <ele>60.814196</ele>
        <time>2022-12-23T14:18:22.753Z</time>
      </trkpt>
      <trkpt lat="45.02648" lon="-1.0699">
        <ele>60.654817</ele>
        <time>2022-12-23T14:18:25.755Z</time>
      </trkpt>
      <trkpt lat="45.02635" lon="-1.06993">
        <ele>60.495785</ele>
        <time>2022-12-23T14:18:28.736Z</time>
      </trkpt>
      <trkpt lat="45.02623" lon="-1.06996">
        <ele>60.336771</ele>
        <time>2022-12-23T14:18:31.754Z</time>
      </trkpt>
      <trkpt lat="45.02611" lon="-1.07">
        <ele>60.177007</ele>
        <time>2022-12-23T14:18:34.756Z</time>
      </trkpt>
      <trkpt lat="45.02599" lon="-1.07003">
        <ele>60.015463</ele>
        <time>2022-12-23T14:18:37.755Z</time>
      </trkpt>
      <trkpt lat="45.02587" lon="-1.07008">
        <ele>59.853962</ele>
        <time>2022-12-23T14:18:40.745Z</time>
      </trkpt>
      <trkpt lat="45.02575" lon="-1.07012">
        <ele>59.700869</ele>
        <time>2022-12-23T14:18:43.766Z</time>
      </trkpt>
      <trkpt lat="45.02563" lon="-1.07014">
        <ele>59.54234</ele>
        <time>2022-12-23T14:18:46.754Z</time>
      </trkpt>
      <trkpt lat="45.02551" lon="-1.07018">
        <ele>59.382575</ele>
        <time>2022-12-23T14:18:49.758Z</time>
      </trkpt>
      <trkpt lat="45.02539" lon="-1.07022">
        <ele>59.222196</ele>
        <time>2022-12-23T14:18:52.753Z</time>
      </trkpt>
      <trkpt lat="45.02526" lon="-1.07026">
        <ele>59.097679</ele>
        <time>2022-12-23T14:18:55.752Z</time>
      </trkpt>
      <trkpt lat="45.02514" lon="-1.07029">
        <ele>59.04852</ele>
        <time>2022-12-23T14:18:58.753Z</time>
      </trkpt>
      <trkpt lat="45.02501" lon="-1.07033">
        <ele>58.997899</ele>
        <time>2022-12-23T14:19:01.754Z</time>
      </trkpt>
      <trkpt lat="45.02489" lon="-1.07036">
        <ele>58.947716</ele>
        <time>2022-12-23T14:19:04.743Z</time>
      </trkpt>
      <trkpt lat="45.02476" lon="-1.07039">
        <ele>58.899035</ele>
        <time>2022-12-23T14:19:07.762Z</time>
      </trkpt>
      <trkpt lat="45.02464" lon="-1.07042">
        <ele>58.849876</ele>
        <time>2022-12-23T14:19:10.754Z</time>
      </trkpt>
      <trkpt lat="45.02452" lon="-1.07046">
        <ele>58.801107</ele>
        <time>2022-12-23T14:19:13.748Z</time>
      </trkpt>
      <trkpt lat="45.0244" lon="-1.07049">
        <ele>58.753196</ele>
        <time>2022-12-23T14:19:16.734Z</time>
      </trkpt>
      <trkpt lat="45.02427" lon="-1.07052">
        <ele>58.703988</ele>
        <time>2022-12-23T14:19:19.751Z</time>
      </trkpt>
      <trkpt lat="45.02415" lon="-1.07056">
        <ele>58.654346</ele>
        <time>2022-12-23T14:19:22.757Z</time>
      </trkpt>
      <trkpt lat="45.02402" lon="-1.0706">
        <ele>58.604437</ele>
        <time>2022-12-23T14:19:25.747Z</time>
      </trkpt>
      <trkpt lat="45.0239" lon="-1.07064">
        <ele>58.553013</ele>
        <time>2022-12-23T14:19:28.754Z</time>
      </trkpt>
      <trkpt lat="45.02377" lon="-1.07068">
        <ele>58.502064</ele>
        <time>2022-12-23T14:19:31.755Z</time>
      </trkpt>
      <trkpt lat="45.02364" lon="-1.07072">
        <ele>58.450732</ele>
        <time>2022-12-23T14:19:34.737Z</time>
      </trkpt>
      <trkpt lat="45.02355" lon="-1.07074">
        <ele>58.415579</ele>
        <time>2022-12-23T14:19:36.754Z</time>
      </trkpt>
      <trkpt lat="45.02342" lon="-1.07079">
        <ele>58.292291</ele>
        <time>2022-12-23T14:19:39.755Z</time>
      </trkpt>
      <trkpt lat="45.02329" lon="-1.07083">
        <ele>58.166455</ele>
        <time>2022-12-23T14:19:42.753Z</time>
      </trkpt>
      <trkpt lat="45.02317" lon="-1.07086">
        <ele>58.047473</ele>
        <time>2022-12-23T14:19:45.751Z</time>
      </trkpt>
      <trkpt lat="45.02306" lon="-1.07089">
        <ele>57.941127</ele>
        <time>2022-12-23T14:19:48.734Z</time>
      </trkpt>
      <trkpt lat="45.02295" lon="-1.07093">
        <ele>57.826183</ele>
        <time>2022-12-23T14:19:51.762Z</time>
      </trkpt>
      <trkpt lat="45.02283" lon="-1.07097">
        <ele>57.706548</ele>
        <time>2022-12-23T14:19:54.754Z</time>
      </trkpt>
      <trkpt lat="45.0227" lon="-1.07102">
        <ele>57.584417</ele>
        <time>2022-12-23T14:19:57.754Z</time>
      </trkpt>
      <trkpt lat="45.02258" lon="-1.07106">
        <ele>57.462175</ele>
        <time>2022-12-23T14:20:00.750Z</time>
      </trkpt>
      <trkpt lat="45.02245" lon="-1.07108">
        <ele>57.34079</ele>
        <time>2022-12-23T14:20:03.755Z</time>
      </trkpt>
      <trkpt lat="45.02236" lon="-1.0711">
        <ele>57.252279</ele>
        <time>2022-12-23T14:20:05.753Z</time>
      </trkpt>
      <trkpt lat="45.02224" lon="-1.07113">
        <ele>57.131843</ele>
        <time>2022-12-23T14:20:08.751Z</time>
      </trkpt>
      <trkpt lat="45.02215" lon="-1.07116">
        <ele>57.039487</ele>
        <time>2022-12-23T14:20:10.754Z</time>
      </trkpt>
      <trkpt lat="45.02205" lon="-1.07119">
        <ele>56.945657</ele>
        <time>2022-12-23T14:20:12.737Z</time>
      </trkpt>
      <trkpt lat="45.02191" lon="-1.07121">
        <ele>56.814006</ele>
        <time>2022-12-23T14:20:15.754Z</time>
      </trkpt>
      <trkpt lat="45.02182" lon="-1.07123">
        <ele>56.720755</ele>
        <time>2022-12-23T14:20:17.753Z</time>
      </trkpt>
      <trkpt lat="45.02173" lon="-1.07127">
        <ele>56.685029</ele>
        <time>2022-12-23T14:20:19.754Z</time>
      </trkpt>
      <trkpt lat="45.02164" lon="-1.07131">
        <ele>56.68194</ele>
        <time>2022-12-23T14:20:21.752Z</time>
      </trkpt>
      <trkpt lat="45.02151" lon="-1.07133">
        <ele>56.677659</ele>
        <time>2022-12-23T14:20:24.745Z</time>
      </trkpt>
      <trkpt lat="45.02138" lon="-1.07137">
        <ele>56.673153</ele>
        <time>2022-12-23T14:20:27.759Z</time>
      </trkpt>
      <trkpt lat="45.02127" lon="-1.07141">
        <ele>56.669423</ele>
        <time>2022-12-23T14:20:29.756Z</time>
      </trkpt>
      <trkpt lat="45.02117" lon="-1.07144">
        <ele>56.665962</ele>
        <time>2022-12-23T14:20:31.756Z</time>
      </trkpt>
      <trkpt lat="45.02107" lon="-1.07144">
        <ele>56.662629</ele>
        <time>2022-12-23T14:20:33.736Z</time>
      </trkpt>
      <trkpt lat="45.02093" lon="-1.07149">
        <ele>56.657934</ele>
        <time>2022-12-23T14:20:36.759Z</time>
      </trkpt>
      <trkpt lat="45.02084" lon="-1.07152">
        <ele>56.654719</ele>
        <time>2022-12-23T14:20:38.757Z</time>
      </trkpt>
      <trkpt lat="45.02074" lon="-1.07156">
        <ele>56.651326</ele>
        <time>2022-12-23T14:20:40.751Z</time>
      </trkpt>
      <trkpt lat="45.02064" lon="-1.07158">
        <ele>56.648124</ele>
        <time>2022-12-23T14:20:42.754Z</time>
      </trkpt>
      <trkpt lat="45.02055" lon="-1.0716">
        <ele>56.644946</ele>
        <time>2022-12-23T14:20:44.756Z</time>
      </trkpt>
      <trkpt lat="45.02045" lon="-1.07162">
        <ele>56.641666</ele>
        <time>2022-12-23T14:20:46.733Z</time>
      </trkpt>
      <trkpt lat="45.02035" lon="-1.07166">
        <ele>56.638326</ele>
        <time>2022-12-23T14:20:48.754Z</time>
      </trkpt>
      <trkpt lat="45.02026" lon="-1.07169">
        <ele>56.635182</ele>
        <time>2022-12-23T14:20:50.755Z</time>
      </trkpt>
      <trkpt lat="45.02014" lon="-1.07173">
        <ele>56.631027</ele>
        <time>2022-12-23T14:20:53.764Z</time>
      </trkpt>
      <trkpt lat="45.02005" lon="-1.07176">
        <ele>56.627817</ele>
        <time>2022-12-23T14:20:55.757Z</time>
      </trkpt>
      <trkpt lat="45.01995" lon="-1.07179">
        <ele>56.62491</ele>
        <time>2022-12-23T14:20:57.767Z</time>
      </trkpt>
      <trkpt lat="45.01985" lon="-1.07182">
        <ele>56.622293</ele>
        <time>2022-12-23T14:20:59.742Z</time>
      </trkpt>
      <trkpt lat="45.01972" lon="-1.07187">
        <ele>56.618829</ele>
        <time>2022-12-23T14:21:02.745Z</time>
      </trkpt>
      <trkpt lat="45.01963" lon="-1.07189">
        <ele>56.616198</ele>
        <time>2022-12-23T14:21:04.764Z</time>
      </trkpt>
      <trkpt lat="45.01954" lon="-1.07191">
        <ele>56.613749</ele>
        <time>2022-12-23T14:21:06.759Z</time>
      </trkpt>
      <trkpt lat="45.01944" lon="-1.07195">
        <ele>56.6111</ele>
        <time>2022-12-23T14:21:08.753Z</time>
      </trkpt>
      <trkpt lat="45.01934" lon="-1.07198">
        <ele>56.608509</ele>
        <time>2022-12-23T14:21:10.756Z</time>
      </trkpt>
      <trkpt lat="45.01925" lon="-1.07201">
        <ele>56.605914</ele>
        <time>2022-12-23T14:21:12.757Z</time>
      </trkpt>
      <trkpt lat="45.01916" lon="-1.07204">
        <ele>56.603413</ele>
        <time>2022-12-23T14:21:14.766Z</time>
      </trkpt>
      <trkpt lat="45.01907" lon="-1.07207">
        <ele>56.600929</ele>
        <time>2022-12-23T14:21:16.754Z</time>
      </trkpt>
      <trkpt lat="45.01897" lon="-1.07209">
        <ele>56.598432</ele>
        <time>2022-12-23T14:21:18.754Z</time>
      </trkpt>
      <trkpt lat="45.01888" lon="-1.07214">
        <ele>56.595847</ele>
        <time>2022-12-23T14:21:20.752Z</time>
      </trkpt>
      <trkpt lat="45.01879" lon="-1.07217">
        <ele>56.593268</ele>
        <time>2022-12-23T14:21:22.751Z</time>
      </trkpt>
      <trkpt lat="45.01869" lon="-1.07219">
        <ele>56.590618</ele>
        <time>2022-12-23T14:21:24.754Z</time>
      </trkpt>
      <trkpt lat="45.01859" lon="-1.07223">
        <ele>56.58788</ele>
        <time>2022-12-23T14:21:26.755Z</time>
      </trkpt>
      <trkpt lat="45.0185" lon="-1.07224">
        <ele>56.585357</ele>
        <time>2022-12-23T14:21:28.742Z</time>
      </trkpt>
      <trkpt lat="45.01841" lon="-1.07227">
        <ele>56.582926</ele>
        <time>2022-12-23T14:21:30.753Z</time>
      </trkpt>
      <trkpt lat="45.01832" lon="-1.0723">
        <ele>56.580477</ele>
        <time>2022-12-23T14:21:32.751Z</time>
      </trkpt>
      <trkpt lat="45.01822" lon="-1.07233">
        <ele>56.605553</ele>
        <time>2022-12-23T14:21:34.732Z</time>
      </trkpt>
      <trkpt lat="45.01812" lon="-1.07235">
        <ele>56.661423</ele>
        <time>2022-12-23T14:21:36.754Z</time>
      </trkpt>
      <trkpt lat="45.01803" lon="-1.07237">
        <ele>56.710287</ele>
        <time>2022-12-23T14:21:38.753Z</time>
      </trkpt>
      <trkpt lat="45.01794" lon="-1.0724">
        <ele>56.758837</ele>
        <time>2022-12-23T14:21:40.752Z</time>
      </trkpt>
      <trkpt lat="45.01785" lon="-1.07243">
        <ele>56.810084</ele>
        <time>2022-12-23T14:21:42.756Z</time>
      </trkpt>
      <trkpt lat="45.01775" lon="-1.07247">
        <ele>56.865247</ele>
        <time>2022-12-23T14:21:44.757Z</time>
      </trkpt>
      <trkpt lat="45.01766" lon="-1.0725">
        <ele>56.91484</ele>
        <time>2022-12-23T14:21:46.758Z</time>
      </trkpt>
      <trkpt lat="45.01757" lon="-1.07252">
        <ele>56.963116</ele>
        <time>2022-12-23T14:21:48.754Z</time>
      </trkpt>
      <trkpt lat="45.01745" lon="-1.07254">
        <ele>57.027169</ele>
        <time>2022-12-23T14:21:51.752Z</time>
      </trkpt>
      <trkpt lat="45.01733" lon="-1.07259">
        <ele>57.096326</ele>
        <time>2022-12-23T14:21:54.754Z</time>
      </trkpt>
      <trkpt lat="45.0172" lon="-1.07263">
        <ele>57.166194</ele>
        <time>2022-12-23T14:21:57.749Z</time>
      </trkpt>
      <trkpt lat="45.01711" lon="-1.07265">
        <ele>57.216008</ele>
        <time>2022-12-23T14:21:59.746Z</time>
      </trkpt>
      <trkpt lat="45.01701" lon="-1.07267">
        <ele>57.26758</ele>
        <time>2022-12-23T14:22:01.754Z</time>
      </trkpt>
      <trkpt lat="45.01692" lon="-1.07269">
        <ele>57.319383</ele>
        <time>2022-12-23T14:22:03.732Z</time>
      </trkpt>
      <trkpt lat="45.01682" lon="-1.07272">
        <ele>57.373083</ele>
        <time>2022-12-23T14:22:05.766Z</time>
      </trkpt>
      <trkpt lat="45.01673" lon="-1.07274">
        <ele>57.425055</ele>
        <time>2022-12-23T14:22:07.750Z</time>
      </trkpt>
      <trkpt lat="45.01664" lon="-1.07277">
        <ele>57.474216</ele>
        <time>2022-12-23T14:22:09.739Z</time>
      </trkpt>
      <trkpt lat="45.0165" lon="-1.07281">
        <ele>57.546486</ele>
        <time>2022-12-23T14:22:12.736Z</time>
      </trkpt>
      <trkpt lat="45.01641" lon="-1.07285">
        <ele>57.577891</ele>
        <time>2022-12-23T14:22:14.752Z</time>
      </trkpt>
      <trkpt lat="45.01632" lon="-1.07288">
        <ele>57.608096</ele>
        <time>2022-12-23T14:22:16.749Z</time>
      </trkpt>
      <trkpt lat="45.01622" lon="-1.07291">
        <ele>57.639086</ele>
        <time>2022-12-23T14:22:18.752Z</time>
      </trkpt>
      <trkpt lat="45.01613" lon="-1.07295">
        <ele>57.669474</ele>
        <time>2022-12-23T14:22:20.751Z</time>
      </trkpt>
      <trkpt lat="45.016" lon="-1.07298">
        <ele>57.712015</ele>
        <time>2022-12-23T14:22:23.755Z</time>
      </trkpt>
      <trkpt lat="45.01591" lon="-1.073">
        <ele>57.742022</ele>
        <time>2022-12-23T14:22:25.764Z</time>
      </trkpt>
      <trkpt lat="45.01582" lon="-1.07302">
        <ele>57.77132</ele>
        <time>2022-12-23T14:22:27.750Z</time>
      </trkpt>
      <trkpt lat="45.0157" lon="-1.07305">
        <ele>57.810993</ele>
        <time>2022-12-23T14:22:30.737Z</time>
      </trkpt>
      <trkpt lat="45.01561" lon="-1.07308">
        <ele>57.840678</ele>
        <time>2022-12-23T14:22:32.755Z</time>
      </trkpt>
      <trkpt lat="45.01548" lon="-1.07313">
        <ele>57.881535</ele>
        <time>2022-12-23T14:22:35.755Z</time>
      </trkpt>
      <trkpt lat="45.01536" lon="-1.07317">
        <ele>57.924432</ele>
        <time>2022-12-23T14:22:38.755Z</time>
      </trkpt>
      <trkpt lat="45.01526" lon="-1.07321">
        <ele>57.955012</ele>
        <time>2022-12-23T14:22:40.754Z</time>
      </trkpt>
      <trkpt lat="45.01517" lon="-1.07324">
        <ele>57.986219</ele>
        <time>2022-12-23T14:22:42.758Z</time>
      </trkpt>
      <trkpt lat="45.01504" lon="-1.07327">
        <ele>58.029531</ele>
        <time>2022-12-23T14:22:45.753Z</time>
      </trkpt>
      <trkpt lat="45.01495" lon="-1.07328">
        <ele>58.058675</ele>
        <time>2022-12-23T14:22:47.746Z</time>
      </trkpt>
      <trkpt lat="45.01485" lon="-1.0733">
        <ele>58.088927</ele>
        <time>2022-12-23T14:22:49.737Z</time>
      </trkpt>
      <trkpt lat="45.01476" lon="-1.07333">
        <ele>58.119138</ele>
        <time>2022-12-23T14:22:51.745Z</time>
      </trkpt>
      <trkpt lat="45.01467" lon="-1.07336">
        <ele>58.037165</ele>
        <time>2022-12-23T14:22:53.753Z</time>
      </trkpt>
      <trkpt lat="45.01458" lon="-1.0734">
        <ele>57.939282</ele>
        <time>2022-12-23T14:22:55.753Z</time>
      </trkpt>
      <trkpt lat="45.01449" lon="-1.07343">
        <ele>57.838642</ele>
        <time>2022-12-23T14:22:57.744Z</time>
      </trkpt>
      <trkpt lat="45.01439" lon="-1.07343">
        <ele>57.739326</ele>
        <time>2022-12-23T14:22:59.756Z</time>
      </trkpt>
      <trkpt lat="45.0143" lon="-1.07346">
        <ele>57.638351</ele>
        <time>2022-12-23T14:23:01.738Z</time>
      </trkpt>
      <trkpt lat="45.0142" lon="-1.0735">
        <ele>57.529571</ele>
        <time>2022-12-23T14:23:03.755Z</time>
      </trkpt>
      <trkpt lat="45.01411" lon="-1.07352">
        <ele>57.434947</ele>
        <time>2022-12-23T14:23:05.757Z</time>
      </trkpt>
      <trkpt lat="45.01401" lon="-1.07354">
        <ele>57.333903</ele>
        <time>2022-12-23T14:23:07.753Z</time>
      </trkpt>
      <trkpt lat="45.01392" lon="-1.07357">
        <ele>57.231382</ele>
        <time>2022-12-23T14:23:09.748Z</time>
      </trkpt>
      <trkpt lat="45.01382" lon="-1.0736">
        <ele>57.130902</ele>
        <time>2022-12-23T14:23:11.766Z</time>
      </trkpt>
      <trkpt lat="45.01372" lon="-1.07363">
        <ele>57.025518</ele>
        <time>2022-12-23T14:23:13.757Z</time>
      </trkpt>
      <trkpt lat="45.01362" lon="-1.07366">
        <ele>56.91933</ele>
        <time>2022-12-23T14:23:15.767Z</time>
      </trkpt>
      <trkpt lat="45.01349" lon="-1.07371">
        <ele>56.775793</ele>
        <time>2022-12-23T14:23:18.741Z</time>
      </trkpt>
      <trkpt lat="45.01339" lon="-1.07373">
        <ele>56.671921</ele>
        <time>2022-12-23T14:23:20.734Z</time>
      </trkpt>
      <trkpt lat="45.01327" lon="-1.07376">
        <ele>56.538352</ele>
        <time>2022-12-23T14:23:23.750Z</time>
      </trkpt>
      <trkpt lat="45.01316" lon="-1.07379">
        <ele>56.422222</ele>
        <time>2022-12-23T14:23:26.755Z</time>
      </trkpt>
      <trkpt lat="45.01304" lon="-1.07382">
        <ele>56.301864</ele>
        <time>2022-12-23T14:23:29.754Z</time>
      </trkpt>
      <trkpt lat="45.01292" lon="-1.07386">
        <ele>56.224618</ele>
        <time>2022-12-23T14:23:32.755Z</time>
      </trkpt>
      <trkpt lat="45.01279" lon="-1.0739">
        <ele>56.187741</ele>
        <time>2022-12-23T14:23:35.753Z</time>
      </trkpt>
      <trkpt lat="45.01266" lon="-1.07393">
        <ele>56.150263</ele>
        <time>2022-12-23T14:23:38.755Z</time>
      </trkpt>
      <trkpt lat="45.01253" lon="-1.07395">
        <ele>56.11452</ele>
        <time>2022-12-23T14:23:41.738Z</time>
      </trkpt>
      <trkpt lat="45.01244" lon="-1.07399">
        <ele>56.087385</ele>
        <time>2022-12-23T14:23:43.754Z</time>
      </trkpt>
      <trkpt lat="45.01235" lon="-1.07403">
        <ele>56.060724</ele>
        <time>2022-12-23T14:23:45.755Z</time>
      </trkpt>
      <trkpt lat="45.01225" lon="-1.07405">
        <ele>56.034334</ele>
        <time>2022-12-23T14:23:47.731Z</time>
      </trkpt>
      <trkpt lat="45.01216" lon="-1.07409">
        <ele>56.008797</ele>
        <time>2022-12-23T14:23:49.734Z</time>
      </trkpt>
      <trkpt lat="45.01203" lon="-1.07412">
        <ele>55.972173</ele>
        <time>2022-12-23T14:23:52.744Z</time>
      </trkpt>
      <trkpt lat="45.0119" lon="-1.07415">
        <ele>55.935275</ele>
        <time>2022-12-23T14:23:55.755Z</time>
      </trkpt>
      <trkpt lat="45.01181" lon="-1.07419">
        <ele>55.907973</ele>
        <time>2022-12-23T14:23:57.735Z</time>
      </trkpt>
      <trkpt lat="45.01172" lon="-1.07421">
        <ele>55.881769</ele>
        <time>2022-12-23T14:23:59.735Z</time>
      </trkpt>
      <trkpt lat="45.01162" lon="-1.07424">
        <ele>55.854912</ele>
        <time>2022-12-23T14:24:01.734Z</time>
      </trkpt>
      <trkpt lat="45.01149" lon="-1.07429">
        <ele>55.817449</ele>
        <time>2022-12-23T14:24:04.728Z</time>
      </trkpt>
      <trkpt lat="45.01136" lon="-1.07432">
        <ele>55.780138</ele>
        <time>2022-12-23T14:24:07.739Z</time>
      </trkpt>
      <trkpt lat="45.01123" lon="-1.07436">
        <ele>55.744735</ele>
        <time>2022-12-23T14:24:10.741Z</time>
      </trkpt>
      <trkpt lat="45.01112" lon="-1.07439">
        <ele>55.758276</ele>
        <time>2022-12-23T14:24:13.751Z</time>
      </trkpt>
      <trkpt lat="45.01101" lon="-1.07442">
        <ele>55.772188</ele>
        <time>2022-12-23T14:24:16.754Z</time>
      </trkpt>
      <trkpt lat="45.0109" lon="-1.07446">
        <ele>55.786763</ele>
        <time>2022-12-23T14:24:19.744Z</time>
      </trkpt>
      <trkpt lat="45.01077" lon="-1.0745">
        <ele>55.802373</ele>
        <time>2022-12-23T14:24:22.758Z</time>
      </trkpt>
      <trkpt lat="45.01065" lon="-1.07454">
        <ele>55.818068</ele>
        <time>2022-12-23T14:24:25.755Z</time>
      </trkpt>
      <trkpt lat="45.01052" lon="-1.07457">
        <ele>55.833988</ele>
        <time>2022-12-23T14:24:28.756Z</time>
      </trkpt>
      <trkpt lat="45.01043" lon="-1.07461">
        <ele>55.845449</ele>
        <time>2022-12-23T14:24:30.755Z</time>
      </trkpt>
      <trkpt lat="45.01034" lon="-1.07464">
        <ele>55.85763</ele>
        <time>2022-12-23T14:24:32.753Z</time>
      </trkpt>
      <trkpt lat="45.01024" lon="-1.07467">
        <ele>55.870088</ele>
        <time>2022-12-23T14:24:34.752Z</time>
      </trkpt>
      <trkpt lat="45.01015" lon="-1.0747">
        <ele>55.881493</ele>
        <time>2022-12-23T14:24:36.753Z</time>
      </trkpt>
      <trkpt lat="45.01005" lon="-1.07473">
        <ele>55.893389</ele>
        <time>2022-12-23T14:24:38.755Z</time>
      </trkpt>
      <trkpt lat="45.00992" lon="-1.07476">
        <ele>55.91042</ele>
        <time>2022-12-23T14:24:41.771Z</time>
      </trkpt>
      <trkpt lat="45.0098" lon="-1.07479">
        <ele>55.925292</ele>
        <time>2022-12-23T14:24:44.742Z</time>
      </trkpt>
      <trkpt lat="45.00966" lon="-1.07483">
        <ele>55.942118</ele>
        <time>2022-12-23T14:24:47.762Z</time>
      </trkpt>
      <trkpt lat="45.00957" lon="-1.07487">
        <ele>55.954219</ele>
        <time>2022-12-23T14:24:49.734Z</time>
      </trkpt>
      <trkpt lat="45.00947" lon="-1.07489">
        <ele>55.965927</ele>
        <time>2022-12-23T14:24:51.758Z</time>
      </trkpt>
      <trkpt lat="45.00938" lon="-1.07493">
        <ele>55.90866</ele>
        <time>2022-12-23T14:24:53.757Z</time>
      </trkpt>
      <trkpt lat="45.00929" lon="-1.07494">
        <ele>55.853038</ele>
        <time>2022-12-23T14:24:55.755Z</time>
      </trkpt>
      <trkpt lat="45.0092" lon="-1.07496">
        <ele>55.796353</ele>
        <time>2022-12-23T14:24:57.756Z</time>
      </trkpt>
      <trkpt lat="45.00908" lon="-1.07499">
        <ele>55.720155</ele>
        <time>2022-12-23T14:25:00.763Z</time>
      </trkpt>
      <trkpt lat="45.00897" lon="-1.07501">
        <ele>55.6513</ele>
        <time>2022-12-23T14:25:03.761Z</time>
      </trkpt>
      <trkpt lat="45.00886" lon="-1.07506">
        <ele>55.580374</ele>
        <time>2022-12-23T14:25:06.753Z</time>
      </trkpt>
      <trkpt lat="45.00873" lon="-1.0751">
        <ele>55.49906</ele>
        <time>2022-12-23T14:25:09.759Z</time>
      </trkpt>
      <trkpt lat="45.0086" lon="-1.07513">
        <ele>55.416544</ele>
        <time>2022-12-23T14:25:12.760Z</time>
      </trkpt>
      <trkpt lat="45.00847" lon="-1.07517">
        <ele>55.339651</ele>
        <time>2022-12-23T14:25:15.754Z</time>
      </trkpt>
      <trkpt lat="45.00835" lon="-1.07521">
        <ele>55.258852</ele>
        <time>2022-12-23T14:25:18.733Z</time>
      </trkpt>
      <trkpt lat="45.00825" lon="-1.07523">
        <ele>55.201839</ele>
        <time>2022-12-23T14:25:20.755Z</time>
      </trkpt>
      <trkpt lat="45.00816" lon="-1.07525">
        <ele>55.14409</ele>
        <time>2022-12-23T14:25:22.755Z</time>
      </trkpt>
      <trkpt lat="45.00807" lon="-1.07528">
        <ele>55.085598</ele>
        <time>2022-12-23T14:25:24.752Z</time>
      </trkpt>
      <trkpt lat="45.00798" lon="-1.07531">
        <ele>55.029356</ele>
        <time>2022-12-23T14:25:26.752Z</time>
      </trkpt>
      <trkpt lat="45.00789" lon="-1.07533">
        <ele>54.972212</ele>
        <time>2022-12-23T14:25:28.754Z</time>
      </trkpt>
      <trkpt lat="45.00779" lon="-1.07536">
        <ele>54.912794</ele>
        <time>2022-12-23T14:25:30.755Z</time>
      </trkpt>
      <trkpt lat="45.0077" lon="-1.07539">
        <ele>54.863946</ele>
        <time>2022-12-23T14:25:32.751Z</time>
      </trkpt>
      <trkpt lat="45.0076" lon="-1.07542">
        <ele>54.869122</ele>
        <time>2022-12-23T14:25:34.753Z</time>
      </trkpt>
      <trkpt lat="45.00748" lon="-1.07546">
        <ele>54.876319</ele>
        <time>2022-12-23T14:25:37.756Z</time>
      </trkpt>
      <trkpt lat="45.00736" lon="-1.07549">
        <ele>54.883196</ele>
        <time>2022-12-23T14:25:40.742Z</time>
      </trkpt>
      <trkpt lat="45.00726" lon="-1.07552">
        <ele>54.888349</ele>
        <time>2022-12-23T14:25:42.754Z</time>
      </trkpt>
      <trkpt lat="45.00717" lon="-1.07555">
        <ele>54.893773</ele>
        <time>2022-12-23T14:25:44.756Z</time>
      </trkpt>
      <trkpt lat="45.00708" lon="-1.07558">
        <ele>54.898765</ele>
        <time>2022-12-23T14:25:46.754Z</time>
      </trkpt>
      <trkpt lat="45.00698" lon="-1.07561">
        <ele>54.904172</ele>
        <time>2022-12-23T14:25:48.758Z</time>
      </trkpt>
      <trkpt lat="45.00689" lon="-1.07564">
        <ele>54.909371</ele>
        <time>2022-12-23T14:25:50.755Z</time>
      </trkpt>
      <trkpt lat="45.00676" lon="-1.07567">
        <ele>54.916805</ele>
        <time>2022-12-23T14:25:53.752Z</time>
      </trkpt>
      <trkpt lat="45.00667" lon="-1.0757">
        <ele>54.922097</ele>
        <time>2022-12-23T14:25:55.753Z</time>
      </trkpt>
      <trkpt lat="45.00658" lon="-1.07572">
        <ele>54.92711</ele>
        <time>2022-12-23T14:25:57.752Z</time>
      </trkpt>
      <trkpt lat="45.00649" lon="-1.07575">
        <ele>54.932138</ele>
        <time>2022-12-23T14:25:59.732Z</time>
      </trkpt>
      <trkpt lat="45.00636" lon="-1.07579">
        <ele>54.93941</ele>
        <time>2022-12-23T14:26:02.758Z</time>
      </trkpt>
      <trkpt lat="45.00624" lon="-1.07582">
        <ele>54.946017</ele>
        <time>2022-12-23T14:26:05.755Z</time>
      </trkpt>
      <trkpt lat="45.00614" lon="-1.07585">
        <ele>54.952029</ele>
        <time>2022-12-23T14:26:08.755Z</time>
      </trkpt>
      <trkpt lat="45.00602" lon="-1.07589">
        <ele>54.958752</ele>
        <time>2022-12-23T14:26:11.753Z</time>
      </trkpt>
      <trkpt lat="45.0059" lon="-1.07593">
        <ele>54.94525</ele>
        <time>2022-12-23T14:26:14.753Z</time>
      </trkpt>
      <trkpt lat="45.00577" lon="-1.07597">
        <ele>54.904856</ele>
        <time>2022-12-23T14:26:17.756Z</time>
      </trkpt>
      <trkpt lat="45.00568" lon="-1.076">
        <ele>54.876059</ele>
        <time>2022-12-23T14:26:19.759Z</time>
      </trkpt>
      <trkpt lat="45.00558" lon="-1.07604">
        <ele>54.844956</ele>
        <time>2022-12-23T14:26:21.754Z</time>
      </trkpt>
      <trkpt lat="45.00545" lon="-1.07607">
        <ele>54.804341</ele>
        <time>2022-12-23T14:26:24.766Z</time>
      </trkpt>
      <trkpt lat="45.00532" lon="-1.07611">
        <ele>54.762909</ele>
        <time>2022-12-23T14:26:27.759Z</time>
      </trkpt>
      <trkpt lat="45.00522" lon="-1.07613">
        <ele>54.734534</ele>
        <time>2022-12-23T14:26:29.735Z</time>
      </trkpt>
      <trkpt lat="45.00509" lon="-1.07616">
        <ele>54.69422</ele>
        <time>2022-12-23T14:26:32.749Z</time>
      </trkpt>
      <trkpt lat="45.00496" lon="-1.07619">
        <ele>54.6532</ele>
        <time>2022-12-23T14:26:35.755Z</time>
      </trkpt>
      <trkpt lat="45.00487" lon="-1.07622">
        <ele>54.624901</ele>
        <time>2022-12-23T14:26:37.756Z</time>
      </trkpt>
      <trkpt lat="45.00474" lon="-1.07626">
        <ele>54.584552</ele>
        <time>2022-12-23T14:26:40.757Z</time>
      </trkpt>
      <trkpt lat="45.00461" lon="-1.0763">
        <ele>54.544503</ele>
        <time>2022-12-23T14:26:43.754Z</time>
      </trkpt>
      <trkpt lat="45.00449" lon="-1.07634">
        <ele>54.504973</ele>
        <time>2022-12-23T14:26:46.753Z</time>
      </trkpt>
      <trkpt lat="45.00439" lon="-1.07636">
        <ele>54.475661</ele>
        <time>2022-12-23T14:26:48.738Z</time>
      </trkpt>
      <trkpt lat="45.0043" lon="-1.07638">
        <ele>54.448058</ele>
        <time>2022-12-23T14:26:50.753Z</time>
      </trkpt>
      <trkpt lat="45.00421" lon="-1.07642">
        <ele>54.41888</ele>
        <time>2022-12-23T14:26:52.755Z</time>
      </trkpt>
      <trkpt lat="45.00412" lon="-1.07645">
        <ele>54.530309</ele>
        <time>2022-12-23T14:26:54.751Z</time>
      </trkpt>
      <trkpt lat="45.00402" lon="-1.07648">
        <ele>54.683344</ele>
        <time>2022-12-23T14:26:56.753Z</time>
      </trkpt>
      <trkpt lat="45.00393" lon="-1.0765">
        <ele>54.827162</ele>
        <time>2022-12-23T14:26:58.751Z</time>
      </trkpt>
      <trkpt lat="45.00382" lon="-1.07654">
        <ele>55.017925</ele>
        <time>2022-12-23T14:27:01.745Z</time>
      </trkpt>
      <trkpt lat="45.00369" lon="-1.07658">
        <ele>55.222382</ele>
        <time>2022-12-23T14:27:04.758Z</time>
      </trkpt>
      <trkpt lat="45.00356" lon="-1.07662">
        <ele>55.429368</ele>
        <time>2022-12-23T14:27:07.756Z</time>
      </trkpt>
      <trkpt lat="45.00347" lon="-1.07665">
        <ele>55.574138</ele>
        <time>2022-12-23T14:27:09.750Z</time>
      </trkpt>
      <trkpt lat="45.00338" lon="-1.07667">
        <ele>55.716299</ele>
        <time>2022-12-23T14:27:11.739Z</time>
      </trkpt>
      <trkpt lat="45.00329" lon="-1.07668">
        <ele>55.860318</ele>
        <time>2022-12-23T14:27:13.752Z</time>
      </trkpt>
      <trkpt lat="45.0032" lon="-1.07672">
        <ele>56.008919</ele>
        <time>2022-12-23T14:27:15.758Z</time>
      </trkpt>
      <trkpt lat="45.0031" lon="-1.07674">
        <ele>56.154823</ele>
        <time>2022-12-23T14:27:17.757Z</time>
      </trkpt>
      <trkpt lat="45.00301" lon="-1.07678">
        <ele>56.309098</ele>
        <time>2022-12-23T14:27:19.733Z</time>
      </trkpt>
      <trkpt lat="45.00291" lon="-1.0768">
        <ele>56.458648</ele>
        <time>2022-12-23T14:27:21.755Z</time>
      </trkpt>
      <trkpt lat="45.00282" lon="-1.07683">
        <ele>56.606721</ele>
        <time>2022-12-23T14:27:23.751Z</time>
      </trkpt>
      <trkpt lat="45.00269" lon="-1.07686">
        <ele>56.813681</ele>
        <time>2022-12-23T14:27:26.752Z</time>
      </trkpt>
      <trkpt lat="45.0026" lon="-1.07689">
        <ele>56.966153</ele>
        <time>2022-12-23T14:27:28.728Z</time>
      </trkpt>
      <trkpt lat="45.00251" lon="-1.07692">
        <ele>57.108141</ele>
        <time>2022-12-23T14:27:30.738Z</time>
      </trkpt>
      <trkpt lat="45.00238" lon="-1.07696">
        <ele>57.277972</ele>
        <time>2022-12-23T14:27:33.747Z</time>
      </trkpt>
      <trkpt lat="45.00227" lon="-1.077">
        <ele>57.384951</ele>
        <time>2022-12-23T14:27:36.729Z</time>
      </trkpt>
      <trkpt lat="45.00216" lon="-1.07703">
        <ele>57.491441</ele>
        <time>2022-12-23T14:27:39.730Z</time>
      </trkpt>
      <trkpt lat="45.00205" lon="-1.07706">
        <ele>57.596575</ele>
        <time>2022-12-23T14:27:42.741Z</time>
      </trkpt>
      <trkpt lat="45.00194" lon="-1.0771">
        <ele>57.705525</ele>
        <time>2022-12-23T14:27:45.729Z</time>
      </trkpt>
      <trkpt lat="45.00181" lon="-1.07714">
        <ele>57.827434</ele>
        <time>2022-12-23T14:27:48.732Z</time>
      </trkpt>
      <trkpt lat="45.00169" lon="-1.07717">
        <ele>57.948417</ele>
        <time>2022-12-23T14:27:51.730Z</time>
      </trkpt>
      <trkpt lat="45.0016" lon="-1.07718">
        <ele>58.035497</ele>
        <time>2022-12-23T14:27:53.747Z</time>
      </trkpt>
      <trkpt lat="45.00151" lon="-1.07721">
        <ele>58.12179</ele>
        <time>2022-12-23T14:27:55.737Z</time>
      </trkpt>
      <trkpt lat="45.00141" lon="-1.07724">
        <ele>58.216087</ele>
        <time>2022-12-23T14:27:57.728Z</time>
      </trkpt>
      <trkpt lat="45.00128" lon="-1.07728">
        <ele>58.340504</ele>
        <time>2022-12-23T14:28:00.740Z</time>
      </trkpt>
      <trkpt lat="45.00119" lon="-1.0773">
        <ele>58.425499</ele>
        <time>2022-12-23T14:28:02.729Z</time>
      </trkpt>
      <trkpt lat="45.0011" lon="-1.07733">
        <ele>58.515018</ele>
        <time>2022-12-23T14:28:04.739Z</time>
      </trkpt>
      <trkpt lat="45.00101" lon="-1.07737">
        <ele>58.601968</ele>
        <time>2022-12-23T14:28:06.741Z</time>
      </trkpt>
      <trkpt lat="45.0009" lon="-1.07741">
        <ele>58.710004</ele>
        <time>2022-12-23T14:28:09.743Z</time>
      </trkpt>
      <trkpt lat="45.00078" lon="-1.07744">
        <ele>58.823452</ele>
        <time>2022-12-23T14:28:12.759Z</time>
      </trkpt>
      <trkpt lat="45.00065" lon="-1.07748">
        <ele>58.918211</ele>
        <time>2022-12-23T14:28:15.734Z</time>
      </trkpt>
      <trkpt lat="45.00052" lon="-1.07752">
        <ele>58.873497</ele>
        <time>2022-12-23T14:28:18.741Z</time>
      </trkpt>
      <trkpt lat="45.00039" lon="-1.07755">
        <ele>58.829045</ele>
        <time>2022-12-23T14:28:21.728Z</time>
      </trkpt>
      <trkpt lat="45.0003" lon="-1.07758">
        <ele>58.798337</ele>
        <time>2022-12-23T14:28:23.751Z</time>
      </trkpt>
      <trkpt lat="45.00017" lon="-1.07762">
        <ele>58.755052</ele>
        <time>2022-12-23T14:28:26.752Z</time>
      </trkpt>
      <trkpt lat="45.00006" lon="-1.07765">
        <ele>58.719271</ele>
        <time>2022-12-23T14:28:29.756Z</time>
      </trkpt>
      <trkpt lat="44.99994" lon="-1.07769">
        <ele>58.679432</ele>
        <time>2022-12-23T14:28:33.734Z</time>
      </trkpt>
      <trkpt lat="44.99984" lon="-1.07771">
        <ele>58.644228</ele>
        <time>2022-12-23T14:28:36.750Z</time>
      </trkpt>
      <trkpt lat="44.99972" lon="-1.07775">
        <ele>58.604067</ele>
        <time>2022-12-23T14:28:39.756Z</time>
      </trkpt>
      <trkpt lat="44.9996" lon="-1.07778">
        <ele>58.562531</ele>
        <time>2022-12-23T14:28:42.755Z</time>
      </trkpt>
      <trkpt lat="44.99947" lon="-1.07782">
        <ele>58.519845</ele>
        <time>2022-12-23T14:28:45.754Z</time>
      </trkpt>
      <trkpt lat="44.99934" lon="-1.07786">
        <ele>58.47637</ele>
        <time>2022-12-23T14:28:48.734Z</time>
      </trkpt>
      <trkpt lat="44.99921" lon="-1.07789">
        <ele>58.432971</ele>
        <time>2022-12-23T14:28:51.753Z</time>
      </trkpt>
      <trkpt lat="44.99911" lon="-1.07792">
        <ele>58.400555</ele>
        <time>2022-12-23T14:28:53.753Z</time>
      </trkpt>
      <trkpt lat="44.99902" lon="-1.07794">
        <ele>58.370273</ele>
        <time>2022-12-23T14:28:55.755Z</time>
      </trkpt>
      <trkpt lat="44.99893" lon="-1.07796">
        <ele>58.340402</ele>
        <time>2022-12-23T14:28:57.752Z</time>
      </trkpt>
      <trkpt lat="44.99884" lon="-1.07799">
        <ele>58.277222</ele>
        <time>2022-12-23T14:28:59.754Z</time>
      </trkpt>
      <trkpt lat="44.99875" lon="-1.07802">
        <ele>58.208804</ele>
        <time>2022-12-23T14:29:01.733Z</time>
      </trkpt>
      <trkpt lat="44.99861" lon="-1.07807">
        <ele>58.105745</ele>
        <time>2022-12-23T14:29:04.753Z</time>
      </trkpt>
      <trkpt lat="44.99849" lon="-1.0781">
        <ele>58.010356</ele>
        <time>2022-12-23T14:29:07.740Z</time>
      </trkpt>
      <trkpt lat="44.99836" lon="-1.07814">
        <ele>57.911307</ele>
        <time>2022-12-23T14:29:10.732Z</time>
      </trkpt>
      <trkpt lat="44.99825" lon="-1.07817">
        <ele>57.827803</ele>
        <time>2022-12-23T14:29:13.733Z</time>
      </trkpt>
      <trkpt lat="44.99814" lon="-1.0782">
        <ele>57.746363</ele>
        <time>2022-12-23T14:29:16.735Z</time>
      </trkpt>
      <trkpt lat="44.99802" lon="-1.07824">
        <ele>57.654074</ele>
        <time>2022-12-23T14:29:19.741Z</time>
      </trkpt>
      <trkpt lat="44.99789" lon="-1.07827">
        <ele>57.557024</ele>
        <time>2022-12-23T14:29:22.756Z</time>
      </trkpt>
      <trkpt lat="44.99776" lon="-1.07831">
        <ele>57.457431</ele>
        <time>2022-12-23T14:29:25.741Z</time>
      </trkpt>
      <trkpt lat="44.99767" lon="-1.07832">
        <ele>57.390645</ele>
        <time>2022-12-23T14:29:27.754Z</time>
      </trkpt>
      <trkpt lat="44.99754" lon="-1.07836">
        <ele>57.290675</ele>
        <time>2022-12-23T14:29:30.751Z</time>
      </trkpt>
      <trkpt lat="44.99744" lon="-1.0784">
        <ele>57.214676</ele>
        <time>2022-12-23T14:29:32.751Z</time>
      </trkpt>
      <trkpt lat="44.99731" lon="-1.07843">
        <ele>57.116723</ele>
        <time>2022-12-23T14:29:35.752Z</time>
      </trkpt>
      <trkpt lat="44.99722" lon="-1.07846">
        <ele>57.047116</ele>
        <time>2022-12-23T14:29:37.767Z</time>
      </trkpt>
      <trkpt lat="44.99713" lon="-1.07849">
        <ele>56.981134</ele>
        <time>2022-12-23T14:29:39.761Z</time>
      </trkpt>
      <trkpt lat="44.99704" lon="-1.07851">
        <ele>56.924279</ele>
        <time>2022-12-23T14:29:41.757Z</time>
      </trkpt>
      <trkpt lat="44.99695" lon="-1.07853">
        <ele>56.863961</ele>
        <time>2022-12-23T14:29:43.742Z</time>
      </trkpt>
      <trkpt lat="44.99682" lon="-1.07856">
        <ele>56.780266</ele>
        <time>2022-12-23T14:29:46.753Z</time>
      </trkpt>
      <trkpt lat="44.9967" lon="-1.0786">
        <ele>56.703551</ele>
        <time>2022-12-23T14:29:49.748Z</time>
      </trkpt>
      <trkpt lat="44.99657" lon="-1.07864">
        <ele>56.617824</ele>
        <time>2022-12-23T14:29:52.742Z</time>
      </trkpt>
      <trkpt lat="44.99644" lon="-1.07868">
        <ele>56.536487</ele>
        <time>2022-12-23T14:29:55.743Z</time>
      </trkpt>
      <trkpt lat="44.99635" lon="-1.07871">
        <ele>56.477626</ele>
        <time>2022-12-23T14:29:57.743Z</time>
      </trkpt>
      <trkpt lat="44.99625" lon="-1.07874">
        <ele>56.415661</ele>
        <time>2022-12-23T14:29:59.763Z</time>
      </trkpt>
      <trkpt lat="44.99616" lon="-1.07877">
        <ele>56.355989</ele>
        <time>2022-12-23T14:30:01.752Z</time>
      </trkpt>
      <trkpt lat="44.99607" lon="-1.0788">
        <ele>56.294337</ele>
        <time>2022-12-23T14:30:03.756Z</time>
      </trkpt>
      <trkpt lat="44.99598" lon="-1.07884">
        <ele>56.235476</ele>
        <time>2022-12-23T14:30:05.758Z</time>
      </trkpt>
      <trkpt lat="44.99589" lon="-1.07887">
        <ele>56.177039</ele>
        <time>2022-12-23T14:30:07.735Z</time>
      </trkpt>
      <trkpt lat="44.9958" lon="-1.07887">
        <ele>56.118121</ele>
        <time>2022-12-23T14:30:09.753Z</time>
      </trkpt>
      <trkpt lat="44.99567" lon="-1.07892">
        <ele>56.035511</ele>
        <time>2022-12-23T14:30:12.751Z</time>
      </trkpt>
      <trkpt lat="44.99557" lon="-1.07895">
        <ele>55.973545</ele>
        <time>2022-12-23T14:30:14.744Z</time>
      </trkpt>
      <trkpt lat="44.99545" lon="-1.07899">
        <ele>55.89036</ele>
        <time>2022-12-23T14:30:17.751Z</time>
      </trkpt>
      <trkpt lat="44.99533" lon="-1.07902">
        <ele>55.853542</ele>
        <time>2022-12-23T14:30:20.748Z</time>
      </trkpt>
      <trkpt lat="44.99521" lon="-1.07905">
        <ele>55.846717</ele>
        <time>2022-12-23T14:30:23.753Z</time>
      </trkpt>
      <trkpt lat="44.99509" lon="-1.07908">
        <ele>55.839679</ele>
        <time>2022-12-23T14:30:26.742Z</time>
      </trkpt>
      <trkpt lat="44.99496" lon="-1.07911">
        <ele>55.832665</ele>
        <time>2022-12-23T14:30:29.745Z</time>
      </trkpt>
      <trkpt lat="44.99484" lon="-1.07915">
        <ele>55.825501</ele>
        <time>2022-12-23T14:30:32.752Z</time>
      </trkpt>
      <trkpt lat="44.99471" lon="-1.0792">
        <ele>55.818146</ele>
        <time>2022-12-23T14:30:35.752Z</time>
      </trkpt>
      <trkpt lat="44.99459" lon="-1.07924">
        <ele>55.810953</ele>
        <time>2022-12-23T14:30:38.755Z</time>
      </trkpt>
      <trkpt lat="44.99449" lon="-1.07928">
        <ele>55.805441</ele>
        <time>2022-12-23T14:30:40.741Z</time>
      </trkpt>
      <trkpt lat="44.9944" lon="-1.0793">
        <ele>55.800286</ele>
        <time>2022-12-23T14:30:42.755Z</time>
      </trkpt>
      <trkpt lat="44.99428" lon="-1.07933">
        <ele>55.793578</ele>
        <time>2022-12-23T14:30:45.754Z</time>
      </trkpt>
      <trkpt lat="44.99416" lon="-1.07936">
        <ele>55.786883</ele>
        <time>2022-12-23T14:30:48.754Z</time>
      </trkpt>
      <trkpt lat="44.99404" lon="-1.0794">
        <ele>55.779945</ele>
        <time>2022-12-23T14:30:51.757Z</time>
      </trkpt>
      <trkpt lat="44.99392" lon="-1.07944">
        <ele>55.772962</ele>
        <time>2022-12-23T14:30:54.753Z</time>
      </trkpt>
      <trkpt lat="44.9938" lon="-1.07948">
        <ele>55.765942</ele>
        <time>2022-12-23T14:30:57.741Z</time>
      </trkpt>
      <trkpt lat="44.99367" lon="-1.07951">
        <ele>55.758739</ele>
        <time>2022-12-23T14:31:00.762Z</time>
      </trkpt>
      <trkpt lat="44.99355" lon="-1.07953">
        <ele>55.820154</ele>
        <time>2022-12-23T14:31:03.761Z</time>
      </trkpt>
      <trkpt lat="44.99346" lon="-1.07956">
        <ele>55.889556</ele>
        <time>2022-12-23T14:31:05.755Z</time>
      </trkpt>
      <trkpt lat="44.99336" lon="-1.07959">
        <ele>55.964715</ele>
        <time>2022-12-23T14:31:07.733Z</time>
      </trkpt>
      <trkpt lat="44.99323" lon="-1.07961">
        <ele>56.058872</ele>
        <time>2022-12-23T14:31:10.763Z</time>
      </trkpt>
      <trkpt lat="44.99315" lon="-1.07965">
        <ele>56.126387</ele>
        <time>2022-12-23T14:31:12.735Z</time>
      </trkpt>
      <trkpt lat="44.99305" lon="-1.07967">
        <ele>56.199659</ele>
        <time>2022-12-23T14:31:14.751Z</time>
      </trkpt>
      <trkpt lat="44.99292" lon="-1.0797">
        <ele>56.295681</ele>
        <time>2022-12-23T14:31:17.735Z</time>
      </trkpt>
      <trkpt lat="44.9928" lon="-1.07975">
        <ele>56.394487</ele>
        <time>2022-12-23T14:31:20.732Z</time>
      </trkpt>
      <trkpt lat="44.99267" lon="-1.07979">
        <ele>56.487484</ele>
        <time>2022-12-23T14:31:23.744Z</time>
      </trkpt>
      <trkpt lat="44.99259" lon="-1.07982">
        <ele>56.555576</ele>
        <time>2022-12-23T14:31:25.743Z</time>
      </trkpt>
      <trkpt lat="44.9925" lon="-1.07985">
        <ele>56.625698</ele>
        <time>2022-12-23T14:31:27.741Z</time>
      </trkpt>
      <trkpt lat="44.9924" lon="-1.07988">
        <ele>56.695526</ele>
        <time>2022-12-23T14:31:29.757Z</time>
      </trkpt>
      <trkpt lat="44.99228" lon="-1.07993">
        <ele>56.788755</ele>
        <time>2022-12-23T14:31:32.759Z</time>
      </trkpt>
      <trkpt lat="44.99219" lon="-1.07996">
        <ele>56.858622</ele>
        <time>2022-12-23T14:31:34.752Z</time>
      </trkpt>
      <trkpt lat="44.9921" lon="-1.07999">
        <ele>56.925948</ele>
        <time>2022-12-23T14:31:36.755Z</time>
      </trkpt>
      <trkpt lat="44.99201" lon="-1.08002">
        <ele>56.99562</ele>
        <time>2022-12-23T14:31:38.751Z</time>
      </trkpt>
      <trkpt lat="44.99189" lon="-1.08005">
        <ele>57.088448</ele>
        <time>2022-12-23T14:31:41.761Z</time>
      </trkpt>
      <trkpt lat="44.99176" lon="-1.08009">
        <ele>57.087474</ele>
        <time>2022-12-23T14:31:44.753Z</time>
      </trkpt>
      <trkpt lat="44.99163" lon="-1.08013">
        <ele>57.074305</ele>
        <time>2022-12-23T14:31:47.757Z</time>
      </trkpt>
      <trkpt lat="44.99152" lon="-1.08016">
        <ele>57.062296</ele>
        <time>2022-12-23T14:31:50.752Z</time>
      </trkpt>
      <trkpt lat="44.99141" lon="-1.08019">
        <ele>57.051295</ele>
        <time>2022-12-23T14:31:53.751Z</time>
      </trkpt>
      <trkpt lat="44.9913" lon="-1.08021">
        <ele>57.040411</ele>
        <time>2022-12-23T14:31:56.750Z</time>
      </trkpt>
      <trkpt lat="44.99119" lon="-1.08024">
        <ele>57.029298</ele>
        <time>2022-12-23T14:31:59.751Z</time>
      </trkpt>
      <trkpt lat="44.99109" lon="-1.08028">
        <ele>57.01877</ele>
        <time>2022-12-23T14:32:02.751Z</time>
      </trkpt>
      <trkpt lat="44.99099" lon="-1.0803">
        <ele>57.008521</ele>
        <time>2022-12-23T14:32:05.747Z</time>
      </trkpt>
      <trkpt lat="44.9909" lon="-1.08025">
        <ele>56.998842</ele>
        <time>2022-12-23T14:32:08.733Z</time>
      </trkpt>
      <trkpt lat="44.99083" lon="-1.08015">
        <ele>56.988585</ele>
        <time>2022-12-23T14:32:11.738Z</time>
      </trkpt>
      <trkpt lat="44.99076" lon="-1.08002">
        <ele>56.9771</ele>
        <time>2022-12-23T14:32:14.749Z</time>
      </trkpt>
      <trkpt lat="44.99068" lon="-1.07987">
        <ele>56.964533</ele>
        <time>2022-12-23T14:32:17.757Z</time>
      </trkpt>
      <trkpt lat="44.99061" lon="-1.07973">
        <ele>56.952016</ele>
        <time>2022-12-23T14:32:20.755Z</time>
      </trkpt>
      <trkpt lat="44.99054" lon="-1.07959">
        <ele>56.939555</ele>
        <time>2022-12-23T14:32:23.753Z</time>
      </trkpt>
      <trkpt lat="44.99047" lon="-1.07945">
        <ele>56.927795</ele>
        <time>2022-12-23T14:32:26.753Z</time>
      </trkpt>
      <trkpt lat="44.9904" lon="-1.07933">
        <ele>56.909172</ele>
        <time>2022-12-23T14:32:29.736Z</time>
      </trkpt>
      <trkpt lat="44.99034" lon="-1.07922">
        <ele>56.874349</ele>
        <time>2022-12-23T14:32:32.752Z</time>
      </trkpt>
      <trkpt lat="44.99028" lon="-1.07909">
        <ele>56.834502</ele>
        <time>2022-12-23T14:32:36.754Z</time>
      </trkpt>
      <trkpt lat="44.99024" lon="-1.07897">
        <ele>56.800977</ele>
        <time>2022-12-23T14:32:39.755Z</time>
      </trkpt>
      <trkpt lat="44.99018" lon="-1.07886">
        <ele>56.765945</ele>
        <time>2022-12-23T14:32:42.752Z</time>
      </trkpt>
      <trkpt lat="44.99013" lon="-1.07875">
        <ele>56.731553</ele>
        <time>2022-12-23T14:32:45.756Z</time>
      </trkpt>
      <trkpt lat="44.99007" lon="-1.07862">
        <ele>56.691455</ele>
        <time>2022-12-23T14:32:49.752Z</time>
      </trkpt>
      <trkpt lat="44.98998" lon="-1.07856">
        <ele>56.654085</ele>
        <time>2022-12-23T14:32:54.743Z</time>
      </trkpt>
      <trkpt lat="44.9899" lon="-1.07863">
        <ele>56.620268</ele>
        <time>2022-12-23T14:32:58.741Z</time>
      </trkpt>
      <trkpt lat="44.98988" lon="-1.07877">
        <ele>56.582892</ele>
        <time>2022-12-23T14:33:03.733Z</time>
      </trkpt>
      <trkpt lat="44.98994" lon="-1.07892">
        <ele>56.539265</ele>
        <time>2022-12-23T14:33:07.736Z</time>
      </trkpt>
      <trkpt lat="44.98999" lon="-1.07905">
        <ele>56.500866</ele>
        <time>2022-12-23T14:33:10.753Z</time>
      </trkpt>
      <trkpt lat="44.99005" lon="-1.07918">
        <ele>56.461239</ele>
        <time>2022-12-23T14:33:13.737Z</time>
      </trkpt>
      <trkpt lat="44.99011" lon="-1.07932">
        <ele>56.419391</ele>
        <time>2022-12-23T14:33:16.749Z</time>
      </trkpt>
      <trkpt lat="44.99018" lon="-1.07946">
        <ele>56.374299</ele>
        <time>2022-12-23T14:33:19.753Z</time>
      </trkpt>
      <trkpt lat="44.99025" lon="-1.07961">
        <ele>56.328804</ele>
        <time>2022-12-23T14:33:22.752Z</time>
      </trkpt>
      <trkpt lat="44.99031" lon="-1.0797">
        <ele>56.295755</ele>
        <time>2022-12-23T14:33:24.756Z</time>
      </trkpt>
      <trkpt lat="44.99039" lon="-1.07984">
        <ele>56.23991</ele>
        <time>2022-12-23T14:33:27.753Z</time>
      </trkpt>
      <trkpt lat="44.99045" lon="-1.07998">
        <ele>56.15994</ele>
        <time>2022-12-23T14:33:30.755Z</time>
      </trkpt>
      <trkpt lat="44.99051" lon="-1.0801">
        <ele>56.08826</ele>
        <time>2022-12-23T14:33:33.764Z</time>
      </trkpt>
      <trkpt lat="44.99058" lon="-1.08021">
        <ele>56.018059</ele>
        <time>2022-12-23T14:33:36.750Z</time>
      </trkpt>
      <trkpt lat="44.99063" lon="-1.08032">
        <ele>55.956406</ele>
        <time>2022-12-23T14:33:39.758Z</time>
      </trkpt>
      <trkpt lat="44.99055" lon="-1.08042">
        <ele>55.88582</ele>
        <time>2022-12-23T14:33:43.745Z</time>
      </trkpt>
      <trkpt lat="44.99046" lon="-1.08045">
        <ele>55.822437</ele>
        <time>2022-12-23T14:33:46.741Z</time>
      </trkpt>
      <trkpt lat="44.99035" lon="-1.08049">
        <ele>55.748915</ele>
        <time>2022-12-23T14:33:49.753Z</time>
      </trkpt>
      <trkpt lat="44.99025" lon="-1.08052">
        <ele>55.674081</ele>
        <time>2022-12-23T14:33:52.756Z</time>
      </trkpt>
      <trkpt lat="44.99013" lon="-1.08056">
        <ele>55.594484</ele>
        <time>2022-12-23T14:33:55.754Z</time>
      </trkpt>
      <trkpt lat="44.99002" lon="-1.08059">
        <ele>55.514028</ele>
        <time>2022-12-23T14:33:58.731Z</time>
      </trkpt>
      <trkpt lat="44.98989" lon="-1.08063">
        <ele>55.42531</ele>
        <time>2022-12-23T14:34:01.752Z</time>
      </trkpt>
      <trkpt lat="44.98976" lon="-1.08066">
        <ele>55.337806</ele>
        <time>2022-12-23T14:34:04.746Z</time>
      </trkpt>
      <trkpt lat="44.98964" lon="-1.0807">
        <ele>55.251842</ele>
        <time>2022-12-23T14:34:07.762Z</time>
      </trkpt>
      <trkpt lat="44.98951" lon="-1.08074">
        <ele>55.16246</ele>
        <time>2022-12-23T14:34:10.736Z</time>
      </trkpt>
      <trkpt lat="44.98942" lon="-1.08076">
        <ele>55.100716</ele>
        <time>2022-12-23T14:34:12.732Z</time>
      </trkpt>
      <trkpt lat="44.98929" lon="-1.0808">
        <ele>55.128895</ele>
        <time>2022-12-23T14:34:15.750Z</time>
      </trkpt>
      <trkpt lat="44.98917" lon="-1.08083">
        <ele>55.324022</ele>
        <time>2022-12-23T14:34:18.740Z</time>
      </trkpt>
      <trkpt lat="44.98905" lon="-1.08087">
        <ele>55.525723</ele>
        <time>2022-12-23T14:34:21.752Z</time>
      </trkpt>
      <trkpt lat="44.98892" lon="-1.08091">
        <ele>55.732909</ele>
        <time>2022-12-23T14:34:24.751Z</time>
      </trkpt>
      <trkpt lat="44.9888" lon="-1.08096">
        <ele>55.94364</ele>
        <time>2022-12-23T14:34:27.758Z</time>
      </trkpt>
      <trkpt lat="44.98868" lon="-1.081">
        <ele>56.134616</ele>
        <time>2022-12-23T14:34:30.747Z</time>
      </trkpt>
      <trkpt lat="44.98857" lon="-1.08104">
        <ele>56.322188</ele>
        <time>2022-12-23T14:34:33.758Z</time>
      </trkpt>
      <trkpt lat="44.98845" lon="-1.08107">
        <ele>56.515326</ele>
        <time>2022-12-23T14:34:36.758Z</time>
      </trkpt>
      <trkpt lat="44.98833" lon="-1.08111">
        <ele>56.720944</ele>
        <time>2022-12-23T14:34:39.729Z</time>
      </trkpt>
      <trkpt lat="44.9882" lon="-1.08115">
        <ele>56.930044</ele>
        <time>2022-12-23T14:34:42.754Z</time>
      </trkpt>
      <trkpt lat="44.98808" lon="-1.08118">
        <ele>57.127629</ele>
        <time>2022-12-23T14:34:45.751Z</time>
      </trkpt>
      <trkpt lat="44.98796" lon="-1.08121">
        <ele>57.330306</ele>
        <time>2022-12-23T14:34:48.752Z</time>
      </trkpt>
      <trkpt lat="44.98787" lon="-1.08122">
        <ele>57.477917</ele>
        <time>2022-12-23T14:34:50.750Z</time>
      </trkpt>
      <trkpt lat="44.98778" lon="-1.08126">
        <ele>57.629383</ele>
        <time>2022-12-23T14:34:52.738Z</time>
      </trkpt>
      <trkpt lat="44.98766" lon="-1.08129">
        <ele>57.825894</ele>
        <time>2022-12-23T14:34:55.748Z</time>
      </trkpt>
      <trkpt lat="44.98757" lon="-1.08131">
        <ele>57.956315</ele>
        <time>2022-12-23T14:34:57.751Z</time>
      </trkpt>
      <trkpt lat="44.98744" lon="-1.08134">
        <ele>58.035463</ele>
        <time>2022-12-23T14:35:00.753Z</time>
      </trkpt>
      <trkpt lat="44.98731" lon="-1.08137">
        <ele>58.114146</ele>
        <time>2022-12-23T14:35:03.760Z</time>
      </trkpt>
      <trkpt lat="44.98719" lon="-1.08139">
        <ele>58.190169</ele>
        <time>2022-12-23T14:35:06.730Z</time>
      </trkpt>
      <trkpt lat="44.98706" lon="-1.08141">
        <ele>58.264983</ele>
        <time>2022-12-23T14:35:09.754Z</time>
      </trkpt>
      <trkpt lat="44.98694" lon="-1.08142">
        <ele>58.34051</ele>
        <time>2022-12-23T14:35:12.756Z</time>
      </trkpt>
      <trkpt lat="44.98682" lon="-1.08143">
        <ele>58.41138</ele>
        <time>2022-12-23T14:35:15.749Z</time>
      </trkpt>
      <trkpt lat="44.98672" lon="-1.08145">
        <ele>58.474935</ele>
        <time>2022-12-23T14:35:19.754Z</time>
      </trkpt>
      <trkpt lat="44.98661" lon="-1.08147">
        <ele>58.54516</ele>
        <time>2022-12-23T14:35:24.728Z</time>
      </trkpt>
      <trkpt lat="44.9865" lon="-1.08149">
        <ele>58.608842</ele>
        <time>2022-12-23T14:35:28.757Z</time>
      </trkpt>
      <trkpt lat="44.9864" lon="-1.08151">
        <ele>58.66962</ele>
        <time>2022-12-23T14:35:32.751Z</time>
      </trkpt>
      <trkpt lat="44.98632" lon="-1.0816">
        <ele>58.731012</ele>
        <time>2022-12-23T14:35:38.751Z</time>
      </trkpt>
      <trkpt lat="44.98624" lon="-1.08165">
        <ele>58.786282</ele>
        <time>2022-12-23T14:35:42.753Z</time>
      </trkpt>
      <trkpt lat="44.98612" lon="-1.08163">
        <ele>58.858023</ele>
        <time>2022-12-23T14:35:46.737Z</time>
      </trkpt>
      <trkpt lat="44.98603" lon="-1.0816">
        <ele>58.918656</ele>
        <time>2022-12-23T14:35:49.764Z</time>
      </trkpt>
      <trkpt lat="44.98592" lon="-1.08157">
        <ele>58.986018</ele>
        <time>2022-12-23T14:35:52.743Z</time>
      </trkpt>
      <trkpt lat="44.9858" lon="-1.08158">
        <ele>58.976218</ele>
        <time>2022-12-23T14:35:55.749Z</time>
      </trkpt>
      <trkpt lat="44.98569" lon="-1.08157">
        <ele>58.634754</ele>
        <time>2022-12-23T14:35:58.731Z</time>
      </trkpt>
      <trkpt lat="44.98558" lon="-1.08157">
        <ele>58.290049</ele>
        <time>2022-12-23T14:36:01.739Z</time>
      </trkpt>
      <trkpt lat="44.98547" lon="-1.08157">
        <ele>57.948586</ele>
        <time>2022-12-23T14:36:04.750Z</time>
      </trkpt>
      <trkpt lat="44.98535" lon="-1.08157">
        <ele>57.57019</ele>
        <time>2022-12-23T14:36:07.753Z</time>
      </trkpt>
      <trkpt lat="44.98522" lon="-1.08157">
        <ele>57.185512</ele>
        <time>2022-12-23T14:36:10.752Z</time>
      </trkpt>
      <trkpt lat="44.98509" lon="-1.08157">
        <ele>56.776171</ele>
        <time>2022-12-23T14:36:13.754Z</time>
      </trkpt>
      <trkpt lat="44.98496" lon="-1.08157">
        <ele>56.370091</ele>
        <time>2022-12-23T14:36:16.753Z</time>
      </trkpt>
      <trkpt lat="44.98487" lon="-1.08157">
        <ele>56.090023</ele>
        <time>2022-12-23T14:36:18.734Z</time>
      </trkpt>
      <trkpt lat="44.98474" lon="-1.08157">
        <ele>55.699195</ele>
        <time>2022-12-23T14:36:21.752Z</time>
      </trkpt>
      <trkpt lat="44.98461" lon="-1.08156">
        <ele>55.292556</ele>
        <time>2022-12-23T14:36:24.755Z</time>
      </trkpt>
      <trkpt lat="44.98452" lon="-1.08155">
        <ele>55.008537</ele>
        <time>2022-12-23T14:36:26.755Z</time>
      </trkpt>
      <trkpt lat="44.98439" lon="-1.08155">
        <ele>54.617861</ele>
        <time>2022-12-23T14:36:29.750Z</time>
      </trkpt>
      <trkpt lat="44.98426" lon="-1.08155">
        <ele>54.230206</ele>
        <time>2022-12-23T14:36:32.752Z</time>
      </trkpt>
      <trkpt lat="44.98414" lon="-1.08155">
        <ele>53.845381</ele>
        <time>2022-12-23T14:36:35.749Z</time>
      </trkpt>
      <trkpt lat="44.98401" lon="-1.08153">
        <ele>53.48947</ele>
        <time>2022-12-23T14:36:38.748Z</time>
      </trkpt>
      <trkpt lat="44.98389" lon="-1.08153">
        <ele>53.338902</ele>
        <time>2022-12-23T14:36:41.756Z</time>
      </trkpt>
      <trkpt lat="44.98376" lon="-1.08151">
        <ele>53.184179</ele>
        <time>2022-12-23T14:36:44.757Z</time>
      </trkpt>
      <trkpt lat="44.98366" lon="-1.08151">
        <ele>53.051982</ele>
        <time>2022-12-23T14:36:47.753Z</time>
      </trkpt>
      <trkpt lat="44.98356" lon="-1.08149">
        <ele>52.93127</ele>
        <time>2022-12-23T14:36:50.751Z</time>
      </trkpt>
      <trkpt lat="44.98344" lon="-1.08148">
        <ele>52.79017</ele>
        <time>2022-12-23T14:36:53.756Z</time>
      </trkpt>
      <trkpt lat="44.98332" lon="-1.08147">
        <ele>52.640637</ele>
        <time>2022-12-23T14:36:56.723Z</time>
      </trkpt>
      <trkpt lat="44.98319" lon="-1.08146">
        <ele>52.479668</ele>
        <time>2022-12-23T14:36:59.735Z</time>
      </trkpt>
      <trkpt lat="44.98306" lon="-1.08144">
        <ele>52.323306</ele>
        <time>2022-12-23T14:37:02.750Z</time>
      </trkpt>
      <trkpt lat="44.98294" lon="-1.08142">
        <ele>52.168509</ele>
        <time>2022-12-23T14:37:05.755Z</time>
      </trkpt>
      <trkpt lat="44.98281" lon="-1.08141">
        <ele>52.015467</ele>
        <time>2022-12-23T14:37:08.732Z</time>
      </trkpt>
      <trkpt lat="44.98269" lon="-1.0814">
        <ele>51.860941</ele>
        <time>2022-12-23T14:37:11.753Z</time>
      </trkpt>
      <trkpt lat="44.98255" lon="-1.08138">
        <ele>51.698497</ele>
        <time>2022-12-23T14:37:14.754Z</time>
      </trkpt>
      <trkpt lat="44.98246" lon="-1.08137">
        <ele>51.580873</ele>
        <time>2022-12-23T14:37:16.753Z</time>
      </trkpt>
      <trkpt lat="44.98236" lon="-1.08136">
        <ele>51.460509</ele>
        <time>2022-12-23T14:37:18.745Z</time>
      </trkpt>
      <trkpt lat="44.98226" lon="-1.08135">
        <ele>51.340067</ele>
        <time>2022-12-23T14:37:20.749Z</time>
      </trkpt>
      <trkpt lat="44.98215" lon="-1.08132">
        <ele>51.308985</ele>
        <time>2022-12-23T14:37:23.756Z</time>
      </trkpt>
      <trkpt lat="44.98202" lon="-1.08131">
        <ele>51.310326</ele>
        <time>2022-12-23T14:37:26.756Z</time>
      </trkpt>
      <trkpt lat="44.98191" lon="-1.08131">
        <ele>51.311567</ele>
        <time>2022-12-23T14:37:29.755Z</time>
      </trkpt>
      <trkpt lat="44.9818" lon="-1.08129">
        <ele>51.312824</ele>
        <time>2022-12-23T14:37:32.756Z</time>
      </trkpt>
      <trkpt lat="44.98167" lon="-1.08128">
        <ele>51.31419</ele>
        <time>2022-12-23T14:37:35.754Z</time>
      </trkpt>
      <trkpt lat="44.98155" lon="-1.08127">
        <ele>51.315544</ele>
        <time>2022-12-23T14:37:38.753Z</time>
      </trkpt>
      <trkpt lat="44.98142" lon="-1.08126">
        <ele>51.316928</ele>
        <time>2022-12-23T14:37:41.749Z</time>
      </trkpt>
      <trkpt lat="44.9813" lon="-1.08126">
        <ele>51.318345</ele>
        <time>2022-12-23T14:37:44.748Z</time>
      </trkpt>
      <trkpt lat="44.98117" lon="-1.08124">
        <ele>51.319711</ele>
        <time>2022-12-23T14:37:47.748Z</time>
      </trkpt>
      <trkpt lat="44.98108" lon="-1.08123">
        <ele>51.320729</ele>
        <time>2022-12-23T14:37:49.750Z</time>
      </trkpt>
      <trkpt lat="44.98099" lon="-1.08122">
        <ele>51.321752</ele>
        <time>2022-12-23T14:37:51.755Z</time>
      </trkpt>
      <trkpt lat="44.98089" lon="-1.08121">
        <ele>51.322762</ele>
        <time>2022-12-23T14:37:53.736Z</time>
      </trkpt>
      <trkpt lat="44.98079" lon="-1.0812">
        <ele>51.323931</ele>
        <time>2022-12-23T14:37:56.752Z</time>
      </trkpt>
      <trkpt lat="44.98068" lon="-1.08119">
        <ele>51.325129</ele>
        <time>2022-12-23T14:37:59.728Z</time>
      </trkpt>
      <trkpt lat="44.98056" lon="-1.08118">
        <ele>51.326416</ele>
        <time>2022-12-23T14:38:02.748Z</time>
      </trkpt>
      <trkpt lat="44.98044" lon="-1.08118">
        <ele>51.333053</ele>
        <time>2022-12-23T14:38:05.745Z</time>
      </trkpt>
      <trkpt lat="44.98032" lon="-1.08116">
        <ele>51.447983</ele>
        <time>2022-12-23T14:38:08.752Z</time>
      </trkpt>
      <trkpt lat="44.98019" lon="-1.08115">
        <ele>51.571185</ele>
        <time>2022-12-23T14:38:11.741Z</time>
      </trkpt>
      <trkpt lat="44.98006" lon="-1.08113">
        <ele>51.701534</ele>
        <time>2022-12-23T14:38:14.756Z</time>
      </trkpt>
      <trkpt lat="44.97994" lon="-1.08113">
        <ele>51.823651</ele>
        <time>2022-12-23T14:38:17.752Z</time>
      </trkpt>
      <trkpt lat="44.97981" lon="-1.08111">
        <ele>51.950109</ele>
        <time>2022-12-23T14:38:20.749Z</time>
      </trkpt>
      <trkpt lat="44.97968" lon="-1.0811">
        <ele>52.077287</ele>
        <time>2022-12-23T14:38:23.749Z</time>
      </trkpt>
      <trkpt lat="44.97955" lon="-1.08109">
        <ele>52.203354</ele>
        <time>2022-12-23T14:38:26.729Z</time>
      </trkpt>
      <trkpt lat="44.97942" lon="-1.08109">
        <ele>52.323596</ele>
        <time>2022-12-23T14:38:29.743Z</time>
      </trkpt>
      <trkpt lat="44.97932" lon="-1.08107">
        <ele>52.428362</ele>
        <time>2022-12-23T14:38:32.744Z</time>
      </trkpt>
      <trkpt lat="44.97921" lon="-1.08107">
        <ele>52.531048</ele>
        <time>2022-12-23T14:38:35.732Z</time>
      </trkpt>
      <trkpt lat="44.9791" lon="-1.08105">
        <ele>52.640078</ele>
        <time>2022-12-23T14:38:38.751Z</time>
      </trkpt>
      <trkpt lat="44.97898" lon="-1.08103">
        <ele>52.756879</ele>
        <time>2022-12-23T14:38:41.755Z</time>
      </trkpt>
      <trkpt lat="44.97887" lon="-1.08102">
        <ele>52.869394</ele>
        <time>2022-12-23T14:38:44.755Z</time>
      </trkpt>
      <trkpt lat="44.97875" lon="-1.08102">
        <ele>52.981715</ele>
        <time>2022-12-23T14:38:47.754Z</time>
      </trkpt>
      <trkpt lat="44.97866" lon="-1.08101">
        <ele>53.073677</ele>
        <time>2022-12-23T14:38:50.753Z</time>
      </trkpt>
      <trkpt lat="44.97854" lon="-1.081">
        <ele>53.261098</ele>
        <time>2022-12-23T14:38:54.748Z</time>
      </trkpt>
      <trkpt lat="44.97845" lon="-1.08101">
        <ele>53.414382</ele>
        <time>2022-12-23T14:38:57.746Z</time>
      </trkpt>
      <trkpt lat="44.97834" lon="-1.081">
        <ele>53.584148</ele>
        <time>2022-12-23T14:39:01.750Z</time>
      </trkpt>
      <trkpt lat="44.97824" lon="-1.081">
        <ele>53.757205</ele>
        <time>2022-12-23T14:39:06.748Z</time>
      </trkpt>
      <trkpt lat="44.97814" lon="-1.08099">
        <ele>53.921574</ele>
        <time>2022-12-23T14:39:11.744Z</time>
      </trkpt>
      <trkpt lat="44.97805" lon="-1.08096">
        <ele>54.081516</ele>
        <time>2022-12-23T14:39:15.730Z</time>
      </trkpt>
      <trkpt lat="44.97795" lon="-1.08095">
        <ele>54.232047</ele>
        <time>2022-12-23T14:39:18.731Z</time>
      </trkpt>
      <trkpt lat="44.97786" lon="-1.08093">
        <ele>54.394779</ele>
        <time>2022-12-23T14:39:21.750Z</time>
      </trkpt>
      <trkpt lat="44.97775" lon="-1.08092">
        <ele>54.566668</ele>
        <time>2022-12-23T14:39:24.752Z</time>
      </trkpt>
      <trkpt lat="44.97765" lon="-1.08091">
        <ele>54.74203</ele>
        <time>2022-12-23T14:39:27.742Z</time>
      </trkpt>
      <trkpt lat="44.97754" lon="-1.0809">
        <ele>54.911856</ele>
        <time>2022-12-23T14:39:30.745Z</time>
      </trkpt>
      <trkpt lat="44.97744" lon="-1.08089">
        <ele>55.088964</ele>
        <time>2022-12-23T14:39:33.738Z</time>
      </trkpt>
      <trkpt lat="44.97734" lon="-1.08083">
        <ele>55.263471</ele>
        <time>2022-12-23T14:39:36.733Z</time>
      </trkpt>
      <trkpt lat="44.97727" lon="-1.08073">
        <ele>55.432299</ele>
        <time>2022-12-23T14:39:39.738Z</time>
      </trkpt>
      <trkpt lat="44.9772" lon="-1.08063">
        <ele>55.588377</ele>
        <time>2022-12-23T14:39:42.756Z</time>
      </trkpt>
      <trkpt lat="44.97713" lon="-1.08053">
        <ele>55.751574</ele>
        <time>2022-12-23T14:39:45.755Z</time>
      </trkpt>
      <trkpt lat="44.97703" lon="-1.08049">
        <ele>55.919123</ele>
        <time>2022-12-23T14:39:48.741Z</time>
      </trkpt>
      <trkpt lat="44.97692" lon="-1.08047">
        <ele>56.066151</ele>
        <time>2022-12-23T14:39:52.742Z</time>
      </trkpt>
      <trkpt lat="44.97681" lon="-1.08047">
        <ele>56.111168</ele>
        <time>2022-12-23T14:39:55.728Z</time>
      </trkpt>
      <trkpt lat="44.97671" lon="-1.08046">
        <ele>56.158514</ele>
        <time>2022-12-23T14:39:58.731Z</time>
      </trkpt>
      <trkpt lat="44.9766" lon="-1.08044">
        <ele>56.206512</ele>
        <time>2022-12-23T14:40:01.751Z</time>
      </trkpt>
      <trkpt lat="44.97649" lon="-1.08047">
        <ele>56.253095</ele>
        <time>2022-12-23T14:40:05.748Z</time>
      </trkpt>
      <trkpt lat="44.97647" lon="-1.08061">
        <ele>56.297844</ele>
        <time>2022-12-23T14:40:09.729Z</time>
      </trkpt>
      <trkpt lat="44.97643" lon="-1.08075">
        <ele>56.344053</ele>
        <time>2022-12-23T14:40:12.731Z</time>
      </trkpt>
      <trkpt lat="44.9764" lon="-1.0809">
        <ele>56.390835</ele>
        <time>2022-12-23T14:40:15.748Z</time>
      </trkpt>
      <trkpt lat="44.97633" lon="-1.08103">
        <ele>56.439294</ele>
        <time>2022-12-23T14:40:18.742Z</time>
      </trkpt>
      <trkpt lat="44.97624" lon="-1.08109">
        <ele>56.484244</ele>
        <time>2022-12-23T14:40:21.732Z</time>
      </trkpt>
      <trkpt lat="44.97613" lon="-1.08109">
        <ele>56.535386</ele>
        <time>2022-12-23T14:40:25.741Z</time>
      </trkpt>
      <trkpt lat="44.97603" lon="-1.08109">
        <ele>56.576089</ele>
        <time>2022-12-23T14:40:29.752Z</time>
      </trkpt>
      <trkpt lat="44.97582" lon="-1.08108">
        <ele>56.669617</ele>
        <time>2022-12-23T14:42:04.750Z</time>
      </trkpt>
      <trkpt lat="44.9757" lon="-1.08108">
        <ele>56.72167</ele>
        <time>2022-12-23T14:42:08.724Z</time>
      </trkpt>
      <trkpt lat="44.9756" lon="-1.08107">
        <ele>56.765942</ele>
        <time>2022-12-23T14:42:11.737Z</time>
      </trkpt>
      <trkpt lat="44.9755" lon="-1.08106">
        <ele>56.808812</ele>
        <time>2022-12-23T14:42:14.751Z</time>
      </trkpt>
      <trkpt lat="44.97538" lon="-1.08105">
        <ele>56.860616</ele>
        <time>2022-12-23T14:42:18.748Z</time>
      </trkpt>
      <trkpt lat="44.97528" lon="-1.08105">
        <ele>56.903088</ele>
        <time>2022-12-23T14:42:21.728Z</time>
      </trkpt>
      <trkpt lat="44.97517" lon="-1.08103">
        <ele>56.948155</ele>
        <time>2022-12-23T14:42:24.754Z</time>
      </trkpt>
      <trkpt lat="44.97505" lon="-1.08101">
        <ele>56.994965</ele>
        <time>2022-12-23T14:42:27.729Z</time>
      </trkpt>
      <trkpt lat="44.97496" lon="-1.08095">
        <ele>57.036613</ele>
        <time>2022-12-23T14:42:30.746Z</time>
      </trkpt>
      <trkpt lat="44.97488" lon="-1.08085">
        <ele>57.078913</ele>
        <time>2022-12-23T14:42:33.751Z</time>
      </trkpt>
      <trkpt lat="44.97481" lon="-1.08074">
        <ele>57.123299</ele>
        <time>2022-12-23T14:42:36.726Z</time>
      </trkpt>
      <trkpt lat="44.97473" lon="-1.08064">
        <ele>57.165987</ele>
        <time>2022-12-23T14:42:39.747Z</time>
      </trkpt>
      <trkpt lat="44.97463" lon="-1.08063">
        <ele>57.20752</ele>
        <time>2022-12-23T14:42:42.747Z</time>
      </trkpt>
      <trkpt lat="44.97453" lon="-1.08061">
        <ele>57.250653</ele>
        <time>2022-12-23T14:42:45.739Z</time>
      </trkpt>
      <trkpt lat="44.97442" lon="-1.08059">
        <ele>57.295393</ele>
        <time>2022-12-23T14:42:48.747Z</time>
      </trkpt>
      <trkpt lat="44.97431" lon="-1.08057">
        <ele>57.341533</ele>
        <time>2022-12-23T14:42:51.751Z</time>
      </trkpt>
      <trkpt lat="44.9742" lon="-1.08056">
        <ele>57.386966</ele>
        <time>2022-12-23T14:42:55.741Z</time>
      </trkpt>
      <trkpt lat="44.97408" lon="-1.08056">
        <ele>57.436428</ele>
        <time>2022-12-23T14:42:59.751Z</time>
      </trkpt>
      <trkpt lat="44.97398" lon="-1.08055">
        <ele>57.47722</ele>
        <time>2022-12-23T14:43:02.753Z</time>
      </trkpt>
      <trkpt lat="44.97386" lon="-1.08054">
        <ele>57.526418</ele>
        <time>2022-12-23T14:43:05.752Z</time>
      </trkpt>
      <trkpt lat="44.97375" lon="-1.08054">
        <ele>57.57257</ele>
        <time>2022-12-23T14:43:08.747Z</time>
      </trkpt>
      <trkpt lat="44.97364" lon="-1.08052">
        <ele>57.585674</ele>
        <time>2022-12-23T14:43:11.745Z</time>
      </trkpt>
      <trkpt lat="44.97353" lon="-1.08051">
        <ele>57.595559</ele>
        <time>2022-12-23T14:43:14.748Z</time>
      </trkpt>
      <trkpt lat="44.97342" lon="-1.08049">
        <ele>57.60605</ele>
        <time>2022-12-23T14:43:17.748Z</time>
      </trkpt>
      <trkpt lat="44.97331" lon="-1.08048">
        <ele>57.616835</ele>
        <time>2022-12-23T14:43:20.746Z</time>
      </trkpt>
      <trkpt lat="44.97321" lon="-1.08047">
        <ele>57.626044</ele>
        <time>2022-12-23T14:43:23.747Z</time>
      </trkpt>
      <trkpt lat="44.97311" lon="-1.08046">
        <ele>57.63572</ele>
        <time>2022-12-23T14:43:26.729Z</time>
      </trkpt>
      <trkpt lat="44.97299" lon="-1.08044">
        <ele>57.646465</ele>
        <time>2022-12-23T14:43:29.747Z</time>
      </trkpt>
      <trkpt lat="44.97289" lon="-1.08043">
        <ele>57.656042</ele>
        <time>2022-12-23T14:43:32.744Z</time>
      </trkpt>
      <trkpt lat="44.97279" lon="-1.08042">
        <ele>57.665324</ele>
        <time>2022-12-23T14:43:35.750Z</time>
      </trkpt>
      <trkpt lat="44.97268" lon="-1.08041">
        <ele>57.675556</ele>
        <time>2022-12-23T14:43:38.751Z</time>
      </trkpt>
      <trkpt lat="44.97257" lon="-1.0804">
        <ele>57.686083</ele>
        <time>2022-12-23T14:43:41.752Z</time>
      </trkpt>
      <trkpt lat="44.97246" lon="-1.08039">
        <ele>57.696615</ele>
        <time>2022-12-23T14:43:44.738Z</time>
      </trkpt>
      <trkpt lat="44.97234" lon="-1.08037">
        <ele>57.70812</ele>
        <time>2022-12-23T14:43:47.751Z</time>
      </trkpt>
      <trkpt lat="44.97221" lon="-1.08034">
        <ele>57.719719</ele>
        <time>2022-12-23T14:43:50.746Z</time>
      </trkpt>
      <trkpt lat="44.97209" lon="-1.08031">
        <ele>57.7317</ele>
        <time>2022-12-23T14:43:53.747Z</time>
      </trkpt>
      <trkpt lat="44.97196" lon="-1.08028">
        <ele>57.743495</ele>
        <time>2022-12-23T14:43:56.749Z</time>
      </trkpt>
      <trkpt lat="44.97184" lon="-1.08025">
        <ele>57.872032</ele>
        <time>2022-12-23T14:43:59.751Z</time>
      </trkpt>
      <trkpt lat="44.97172" lon="-1.08022">
        <ele>58.008577</ele>
        <time>2022-12-23T14:44:02.746Z</time>
      </trkpt>
      <trkpt lat="44.9716" lon="-1.08019">
        <ele>58.14203</ele>
        <time>2022-12-23T14:44:05.745Z</time>
      </trkpt>
      <trkpt lat="44.97148" lon="-1.08017">
        <ele>58.273766</ele>
        <time>2022-12-23T14:44:08.749Z</time>
      </trkpt>
      <trkpt lat="44.97136" lon="-1.08013">
        <ele>58.412767</ele>
        <time>2022-12-23T14:44:11.748Z</time>
      </trkpt>
      <trkpt lat="44.97123" lon="-1.0801">
        <ele>58.549312</ele>
        <time>2022-12-23T14:44:14.746Z</time>
      </trkpt>
      <trkpt lat="44.97112" lon="-1.08007">
        <ele>58.678307</ele>
        <time>2022-12-23T14:44:17.760Z</time>
      </trkpt>
      <trkpt lat="44.971" lon="-1.08003">
        <ele>58.812418</ele>
        <time>2022-12-23T14:44:20.747Z</time>
      </trkpt>
      <trkpt lat="44.97088" lon="-1.07999">
        <ele>58.952957</ele>
        <time>2022-12-23T14:44:23.740Z</time>
      </trkpt>
      <trkpt lat="44.97075" lon="-1.07994">
        <ele>59.095553</ele>
        <time>2022-12-23T14:44:26.743Z</time>
      </trkpt>
      <trkpt lat="44.97063" lon="-1.07989">
        <ele>59.232437</ele>
        <time>2022-12-23T14:44:29.730Z</time>
      </trkpt>
      <trkpt lat="44.97051" lon="-1.07985">
        <ele>59.37191</ele>
        <time>2022-12-23T14:44:32.728Z</time>
      </trkpt>
      <trkpt lat="44.97042" lon="-1.0798">
        <ele>59.470894</ele>
        <time>2022-12-23T14:44:34.742Z</time>
      </trkpt>
      <trkpt lat="44.9703" lon="-1.07975">
        <ele>59.613526</ele>
        <time>2022-12-23T14:44:37.752Z</time>
      </trkpt>
      <trkpt lat="44.97018" lon="-1.0797">
        <ele>59.727044</ele>
        <time>2022-12-23T14:44:40.749Z</time>
      </trkpt>
      <trkpt lat="44.97007" lon="-1.07964">
        <ele>59.755539</ele>
        <time>2022-12-23T14:44:43.751Z</time>
      </trkpt>
      <trkpt lat="44.96996" lon="-1.07958">
        <ele>59.785916</ele>
        <time>2022-12-23T14:44:46.746Z</time>
      </trkpt>
      <trkpt lat="44.96984" lon="-1.07953">
        <ele>59.815832</ele>
        <time>2022-12-23T14:44:49.748Z</time>
      </trkpt>
      <trkpt lat="44.96972" lon="-1.07946">
        <ele>59.846683</ele>
        <time>2022-12-23T14:44:52.749Z</time>
      </trkpt>
      <trkpt lat="44.9696" lon="-1.0794">
        <ele>59.878264</ele>
        <time>2022-12-23T14:44:55.747Z</time>
      </trkpt>
      <trkpt lat="44.96948" lon="-1.07933">
        <ele>59.910954</ele>
        <time>2022-12-23T14:44:58.748Z</time>
      </trkpt>
      <trkpt lat="44.96936" lon="-1.07925">
        <ele>59.943129</ele>
        <time>2022-12-23T14:45:01.748Z</time>
      </trkpt>
      <trkpt lat="44.96923" lon="-1.07918">
        <ele>59.97511</ele>
        <time>2022-12-23T14:45:04.742Z</time>
      </trkpt>
      <trkpt lat="44.96912" lon="-1.0791">
        <ele>60.00677</ele>
        <time>2022-12-23T14:45:07.749Z</time>
      </trkpt>
      <trkpt lat="44.969" lon="-1.07902">
        <ele>60.038725</ele>
        <time>2022-12-23T14:45:10.742Z</time>
      </trkpt>
      <trkpt lat="44.96888" lon="-1.07894">
        <ele>60.069963</ele>
        <time>2022-12-23T14:45:13.743Z</time>
      </trkpt>
      <trkpt lat="44.96878" lon="-1.07886">
        <ele>60.099508</ele>
        <time>2022-12-23T14:45:16.746Z</time>
      </trkpt>
      <trkpt lat="44.96866" lon="-1.07878">
        <ele>60.129923</ele>
        <time>2022-12-23T14:45:19.748Z</time>
      </trkpt>
      <trkpt lat="44.96855" lon="-1.0787">
        <ele>60.163471</ele>
        <time>2022-12-23T14:45:22.735Z</time>
      </trkpt>
      <trkpt lat="44.96845" lon="-1.07861">
        <ele>60.288943</ele>
        <time>2022-12-23T14:45:25.755Z</time>
      </trkpt>
      <trkpt lat="44.96834" lon="-1.07852">
        <ele>60.413606</ele>
        <time>2022-12-23T14:45:28.742Z</time>
      </trkpt>
      <trkpt lat="44.96824" lon="-1.07843">
        <ele>60.534339</ele>
        <time>2022-12-23T14:45:31.742Z</time>
      </trkpt>
      <trkpt lat="44.96815" lon="-1.07835">
        <ele>60.642568</ele>
        <time>2022-12-23T14:45:34.749Z</time>
      </trkpt>
      <trkpt lat="44.96807" lon="-1.07827">
        <ele>60.747907</ele>
        <time>2022-12-23T14:45:37.750Z</time>
      </trkpt>
      <trkpt lat="44.96797" lon="-1.0782">
        <ele>60.859521</ele>
        <time>2022-12-23T14:45:40.751Z</time>
      </trkpt>
      <trkpt lat="44.96787" lon="-1.07811">
        <ele>60.97668</ele>
        <time>2022-12-23T14:45:43.749Z</time>
      </trkpt>
      <trkpt lat="44.96777" lon="-1.07802">
        <ele>61.100816</ele>
        <time>2022-12-23T14:45:46.749Z</time>
      </trkpt>
      <trkpt lat="44.96767" lon="-1.07791">
        <ele>61.225283</ele>
        <time>2022-12-23T14:45:49.748Z</time>
      </trkpt>
      <trkpt lat="44.96757" lon="-1.07781">
        <ele>61.353018</ele>
        <time>2022-12-23T14:45:52.749Z</time>
      </trkpt>
      <trkpt lat="44.96747" lon="-1.0777">
        <ele>61.482892</ele>
        <time>2022-12-23T14:45:55.744Z</time>
      </trkpt>
      <trkpt lat="44.96736" lon="-1.0776">
        <ele>61.610645</ele>
        <time>2022-12-23T14:45:58.749Z</time>
      </trkpt>
      <trkpt lat="44.96726" lon="-1.07749">
        <ele>61.739276</ele>
        <time>2022-12-23T14:46:01.749Z</time>
      </trkpt>
      <trkpt lat="44.96716" lon="-1.07739">
        <ele>61.866618</ele>
        <time>2022-12-23T14:46:04.745Z</time>
      </trkpt>
      <trkpt lat="44.96706" lon="-1.07727">
        <ele>61.985068</ele>
        <time>2022-12-23T14:46:07.752Z</time>
      </trkpt>
      <trkpt lat="44.96696" lon="-1.07716">
        <ele>61.961401</ele>
        <time>2022-12-23T14:46:10.751Z</time>
      </trkpt>
      <trkpt lat="44.96686" lon="-1.07704">
        <ele>61.937728</ele>
        <time>2022-12-23T14:46:13.750Z</time>
      </trkpt>
      <trkpt lat="44.96677" lon="-1.07693">
        <ele>61.914671</ele>
        <time>2022-12-23T14:46:16.748Z</time>
      </trkpt>
      <trkpt lat="44.96667" lon="-1.07681">
        <ele>61.891287</ele>
        <time>2022-12-23T14:46:19.748Z</time>
      </trkpt>
      <trkpt lat="44.96658" lon="-1.07669">
        <ele>61.867976</ele>
        <time>2022-12-23T14:46:22.726Z</time>
      </trkpt>
      <trkpt lat="44.96649" lon="-1.07657">
        <ele>61.845483</ele>
        <time>2022-12-23T14:46:25.749Z</time>
      </trkpt>
      <trkpt lat="44.9664" lon="-1.07645">
        <ele>61.822363</ele>
        <time>2022-12-23T14:46:28.739Z</time>
      </trkpt>
      <trkpt lat="44.96631" lon="-1.07632">
        <ele>61.799005</ele>
        <time>2022-12-23T14:46:31.749Z</time>
      </trkpt>
      <trkpt lat="44.96622" lon="-1.07619">
        <ele>61.775611</ele>
        <time>2022-12-23T14:46:34.750Z</time>
      </trkpt>
      <trkpt lat="44.96613" lon="-1.07606">
        <ele>61.752567</ele>
        <time>2022-12-23T14:46:37.751Z</time>
      </trkpt>
      <trkpt lat="44.96605" lon="-1.07593">
        <ele>61.729934</ele>
        <time>2022-12-23T14:46:40.750Z</time>
      </trkpt>
      <trkpt lat="44.96597" lon="-1.0758">
        <ele>61.707205</ele>
        <time>2022-12-23T14:46:43.749Z</time>
      </trkpt>
      <trkpt lat="44.96588" lon="-1.07567">
        <ele>61.684117</ele>
        <time>2022-12-23T14:46:46.751Z</time>
      </trkpt>
      <trkpt lat="44.9658" lon="-1.07553">
        <ele>61.66073</ele>
        <time>2022-12-23T14:46:49.749Z</time>
      </trkpt>
      <trkpt lat="44.96571" lon="-1.0754">
        <ele>61.669343</ele>
        <time>2022-12-23T14:46:52.751Z</time>
      </trkpt>
      <trkpt lat="44.96562" lon="-1.07527">
        <ele>61.684182</ele>
        <time>2022-12-23T14:46:55.751Z</time>
      </trkpt>
      <trkpt lat="44.96553" lon="-1.07514">
        <ele>61.698804</ele>
        <time>2022-12-23T14:46:58.724Z</time>
      </trkpt>
      <trkpt lat="44.96545" lon="-1.075">
        <ele>61.713824</ele>
        <time>2022-12-23T14:47:01.728Z</time>
      </trkpt>
      <trkpt lat="44.96536" lon="-1.07487">
        <ele>61.728922</ele>
        <time>2022-12-23T14:47:04.745Z</time>
      </trkpt>
      <trkpt lat="44.96528" lon="-1.07475">
        <ele>61.742116</ele>
        <time>2022-12-23T14:47:07.745Z</time>
      </trkpt>
      <trkpt lat="44.9652" lon="-1.07463">
        <ele>61.755725</ele>
        <time>2022-12-23T14:47:10.742Z</time>
      </trkpt>
      <trkpt lat="44.96512" lon="-1.0745">
        <ele>61.76981</ele>
        <time>2022-12-23T14:47:13.744Z</time>
      </trkpt>
      <trkpt lat="44.96504" lon="-1.07438">
        <ele>61.783636</ele>
        <time>2022-12-23T14:47:16.736Z</time>
      </trkpt>
      <trkpt lat="44.96497" lon="-1.07425">
        <ele>61.797155</ele>
        <time>2022-12-23T14:47:19.748Z</time>
      </trkpt>
      <trkpt lat="44.96489" lon="-1.07412">
        <ele>61.810704</ele>
        <time>2022-12-23T14:47:22.733Z</time>
      </trkpt>
      <trkpt lat="44.9648" lon="-1.07401">
        <ele>61.824442</ele>
        <time>2022-12-23T14:47:25.737Z</time>
      </trkpt>
      <trkpt lat="44.96472" lon="-1.07389">
        <ele>61.838029</ele>
        <time>2022-12-23T14:47:28.752Z</time>
      </trkpt>
      <trkpt lat="44.96464" lon="-1.07377">
        <ele>61.85118</ele>
        <time>2022-12-23T14:47:31.747Z</time>
      </trkpt>
      <trkpt lat="44.96457" lon="-1.07365">
        <ele>61.864236</ele>
        <time>2022-12-23T14:47:34.747Z</time>
      </trkpt>
      <trkpt lat="44.96449" lon="-1.07353">
        <ele>61.732379</ele>
        <time>2022-12-23T14:47:37.727Z</time>
      </trkpt>
      <trkpt lat="44.96441" lon="-1.0734">
        <ele>61.59585</ele>
        <time>2022-12-23T14:47:40.725Z</time>
      </trkpt>
      <trkpt lat="44.96434" lon="-1.0733">
        <ele>61.475266</ele>
        <time>2022-12-23T14:47:43.750Z</time>
      </trkpt>
      <trkpt lat="44.96428" lon="-1.0732">
        <ele>61.365683</ele>
        <time>2022-12-23T14:47:46.730Z</time>
      </trkpt>
      <trkpt lat="44.96422" lon="-1.07311">
        <ele>61.255658</ele>
        <time>2022-12-23T14:47:49.727Z</time>
      </trkpt>
      <trkpt lat="44.96415" lon="-1.07301">
        <ele>61.144453</ele>
        <time>2022-12-23T14:47:52.723Z</time>
      </trkpt>
      <trkpt lat="44.96408" lon="-1.07289">
        <ele>61.012941</ele>
        <time>2022-12-23T14:47:56.745Z</time>
      </trkpt>
      <trkpt lat="44.964" lon="-1.07281">
        <ele>60.892602</ele>
        <time>2022-12-23T14:48:02.738Z</time>
      </trkpt>
      <trkpt lat="44.96392" lon="-1.07271">
        <ele>60.774084</ele>
        <time>2022-12-23T14:48:11.728Z</time>
      </trkpt>
      <trkpt lat="44.96382" lon="-1.07269">
        <ele>60.655271</ele>
        <time>2022-12-23T14:48:15.746Z</time>
      </trkpt>
      <trkpt lat="44.96373" lon="-1.07265">
        <ele>60.54279</ele>
        <time>2022-12-23T14:48:18.744Z</time>
      </trkpt>
      <trkpt lat="44.96363" lon="-1.07261">
        <ele>60.417526</ele>
        <time>2022-12-23T14:48:21.733Z</time>
      </trkpt>
      <trkpt lat="44.96353" lon="-1.07256">
        <ele>60.288873</ele>
        <time>2022-12-23T14:48:24.750Z</time>
      </trkpt>
      <trkpt lat="44.96342" lon="-1.07251">
        <ele>60.158593</ele>
        <time>2022-12-23T14:48:27.746Z</time>
      </trkpt>
      <trkpt lat="44.96331" lon="-1.07246">
        <ele>60.020006</ele>
        <time>2022-12-23T14:48:30.748Z</time>
      </trkpt>
      <trkpt lat="44.9632" lon="-1.07241">
        <ele>59.883104</ele>
        <time>2022-12-23T14:48:33.756Z</time>
      </trkpt>
      <trkpt lat="44.96309" lon="-1.07235">
        <ele>59.745637</ele>
        <time>2022-12-23T14:48:36.747Z</time>
      </trkpt>
      <trkpt lat="44.96298" lon="-1.0723">
        <ele>59.786554</ele>
        <time>2022-12-23T14:48:39.743Z</time>
      </trkpt>
      <trkpt lat="44.96286" lon="-1.07225">
        <ele>59.838944</ele>
        <time>2022-12-23T14:48:42.745Z</time>
      </trkpt>
      <trkpt lat="44.96275" lon="-1.0722">
        <ele>59.889612</ele>
        <time>2022-12-23T14:48:45.749Z</time>
      </trkpt>
      <trkpt lat="44.96264" lon="-1.07215">
        <ele>59.940695</ele>
        <time>2022-12-23T14:48:48.751Z</time>
      </trkpt>
      <trkpt lat="44.96253" lon="-1.0721">
        <ele>59.990587</ele>
        <time>2022-12-23T14:48:51.747Z</time>
      </trkpt>
      <trkpt lat="44.96241" lon="-1.07205">
        <ele>60.044311</ele>
        <time>2022-12-23T14:48:54.748Z</time>
      </trkpt>
      <trkpt lat="44.96229" lon="-1.07199">
        <ele>60.100653</ele>
        <time>2022-12-23T14:48:57.749Z</time>
      </trkpt>
      <trkpt lat="44.96217" lon="-1.07194">
        <ele>60.154789</ele>
        <time>2022-12-23T14:49:00.752Z</time>
      </trkpt>
      <trkpt lat="44.96205" lon="-1.07189">
        <ele>60.21021</ele>
        <time>2022-12-23T14:49:03.749Z</time>
      </trkpt>
      <trkpt lat="44.96193" lon="-1.07183">
        <ele>60.265468</ele>
        <time>2022-12-23T14:49:06.741Z</time>
      </trkpt>
      <trkpt lat="44.96181" lon="-1.07177">
        <ele>60.320214</ele>
        <time>2022-12-23T14:49:09.751Z</time>
      </trkpt>
      <trkpt lat="44.96169" lon="-1.07171">
        <ele>60.376706</ele>
        <time>2022-12-23T14:49:12.746Z</time>
      </trkpt>
      <trkpt lat="44.96156" lon="-1.07166">
        <ele>60.434386</ele>
        <time>2022-12-23T14:49:15.749Z</time>
      </trkpt>
      <trkpt lat="44.96143" lon="-1.0716">
        <ele>60.492662</ele>
        <time>2022-12-23T14:49:18.732Z</time>
      </trkpt>
      <trkpt lat="44.96131" lon="-1.07154">
        <ele>60.5137</ele>
        <time>2022-12-23T14:49:21.745Z</time>
      </trkpt>
      <trkpt lat="44.96118" lon="-1.07149">
        <ele>60.501852</ele>
        <time>2022-12-23T14:49:24.748Z</time>
      </trkpt>
      <trkpt lat="44.96105" lon="-1.07144">
        <ele>60.489918</ele>
        <time>2022-12-23T14:49:27.743Z</time>
      </trkpt>
      <trkpt lat="44.96093" lon="-1.07138">
        <ele>60.478565</ele>
        <time>2022-12-23T14:49:30.744Z</time>
      </trkpt>
      <trkpt lat="44.96081" lon="-1.07132">
        <ele>60.466964</ele>
        <time>2022-12-23T14:49:33.745Z</time>
      </trkpt>
      <trkpt lat="44.96068" lon="-1.07127">
        <ele>60.455297</ele>
        <time>2022-12-23T14:49:36.751Z</time>
      </trkpt>
      <trkpt lat="44.9606" lon="-1.07123">
        <ele>60.447216</ele>
        <time>2022-12-23T14:49:38.743Z</time>
      </trkpt>
      <trkpt lat="44.96049" lon="-1.07119">
        <ele>60.436935</ele>
        <time>2022-12-23T14:49:41.750Z</time>
      </trkpt>
      <trkpt lat="44.96037" lon="-1.07113">
        <ele>60.425582</ele>
        <time>2022-12-23T14:49:44.745Z</time>
      </trkpt>
      <trkpt lat="44.96024" lon="-1.07108">
        <ele>60.413831</ele>
        <time>2022-12-23T14:49:47.749Z</time>
      </trkpt>
      <trkpt lat="44.96015" lon="-1.07104">
        <ele>60.405683</ele>
        <time>2022-12-23T14:49:49.738Z</time>
      </trkpt>
      <trkpt lat="44.96003" lon="-1.07098">
        <ele>60.394245</ele>
        <time>2022-12-23T14:49:52.749Z</time>
      </trkpt>
      <trkpt lat="44.95991" lon="-1.07093">
        <ele>60.382794</ele>
        <time>2022-12-23T14:49:55.749Z</time>
      </trkpt>
      <trkpt lat="44.95978" lon="-1.07088">
        <ele>60.370842</ele>
        <time>2022-12-23T14:49:58.738Z</time>
      </trkpt>
      <trkpt lat="44.95966" lon="-1.07082">
        <ele>60.35962</ele>
        <time>2022-12-23T14:50:01.747Z</time>
      </trkpt>
      <trkpt lat="44.95955" lon="-1.07076">
        <ele>60.641251</ele>
        <time>2022-12-23T14:50:04.751Z</time>
      </trkpt>
      <trkpt lat="44.95946" lon="-1.07072">
        <ele>60.869044</ele>
        <time>2022-12-23T14:50:06.730Z</time>
      </trkpt>
      <trkpt lat="44.95937" lon="-1.07068">
        <ele>61.088706</ele>
        <time>2022-12-23T14:50:08.746Z</time>
      </trkpt>
      <trkpt lat="44.95925" lon="-1.07062">
        <ele>61.386564</ele>
        <time>2022-12-23T14:50:11.727Z</time>
      </trkpt>
      <trkpt lat="44.95914" lon="-1.07057">
        <ele>61.657901</ele>
        <time>2022-12-23T14:50:14.730Z</time>
      </trkpt>
      <trkpt lat="44.95903" lon="-1.07052">
        <ele>61.940335</ele>
        <time>2022-12-23T14:50:17.745Z</time>
      </trkpt>
      <trkpt lat="44.9589" lon="-1.07048">
        <ele>62.256289</ele>
        <time>2022-12-23T14:50:20.754Z</time>
      </trkpt>
      <trkpt lat="44.95881" lon="-1.07044">
        <ele>62.475951</ele>
        <time>2022-12-23T14:50:22.749Z</time>
      </trkpt>
      <trkpt lat="44.95873" lon="-1.07041">
        <ele>62.693311</ele>
        <time>2022-12-23T14:50:24.749Z</time>
      </trkpt>
      <trkpt lat="44.9586" lon="-1.07035">
        <ele>63.008768</ele>
        <time>2022-12-23T14:50:27.750Z</time>
      </trkpt>
      <trkpt lat="44.95848" lon="-1.0703">
        <ele>63.316601</ele>
        <time>2022-12-23T14:50:30.726Z</time>
      </trkpt>
      <trkpt lat="44.95835" lon="-1.07025">
        <ele>63.637783</ele>
        <time>2022-12-23T14:50:33.747Z</time>
      </trkpt>
      <trkpt lat="44.95826" lon="-1.07021">
        <ele>63.863998</ele>
        <time>2022-12-23T14:50:35.746Z</time>
      </trkpt>
      <trkpt lat="44.95817" lon="-1.07017">
        <ele>64.083195</ele>
        <time>2022-12-23T14:50:37.727Z</time>
      </trkpt>
      <trkpt lat="44.95807" lon="-1.07015">
        <ele>64.327304</ele>
        <time>2022-12-23T14:50:39.748Z</time>
      </trkpt>
      <trkpt lat="44.95798" lon="-1.07011">
        <ele>64.550725</ele>
        <time>2022-12-23T14:50:41.747Z</time>
      </trkpt>
      <trkpt lat="44.95789" lon="-1.07007">
        <ele>64.689367</ele>
        <time>2022-12-23T14:50:43.728Z</time>
      </trkpt>
      <trkpt lat="44.95778" lon="-1.07">
        <ele>64.74121</ele>
        <time>2022-12-23T14:50:46.747Z</time>
      </trkpt>
      <trkpt lat="44.95769" lon="-1.06996">
        <ele>64.779555</ele>
        <time>2022-12-23T14:50:48.750Z</time>
      </trkpt>
      <trkpt lat="44.95756" lon="-1.06989">
        <ele>64.835666</ele>
        <time>2022-12-23T14:50:51.749Z</time>
      </trkpt>
      <trkpt lat="44.95747" lon="-1.06985">
        <ele>64.873342</ele>
        <time>2022-12-23T14:50:53.733Z</time>
      </trkpt>
      <trkpt lat="44.95739" lon="-1.06982">
        <ele>64.910449</ele>
        <time>2022-12-23T14:50:55.754Z</time>
      </trkpt>
      <trkpt lat="44.95729" lon="-1.06979">
        <ele>64.950071</ele>
        <time>2022-12-23T14:50:57.751Z</time>
      </trkpt>
      <trkpt lat="44.95717" lon="-1.06974">
        <ele>65.00176</ele>
        <time>2022-12-23T14:51:00.751Z</time>
      </trkpt>
      <trkpt lat="44.95707" lon="-1.06968">
        <ele>65.048262</ele>
        <time>2022-12-23T14:51:03.732Z</time>
      </trkpt>
      <trkpt lat="44.95695" lon="-1.06964">
        <ele>65.098353</ele>
        <time>2022-12-23T14:51:06.747Z</time>
      </trkpt>
      <trkpt lat="44.95683" lon="-1.06958">
        <ele>65.14904</ele>
        <time>2022-12-23T14:51:09.744Z</time>
      </trkpt>
      <trkpt lat="44.9567" lon="-1.06953">
        <ele>65.203729</ele>
        <time>2022-12-23T14:51:12.753Z</time>
      </trkpt>
      <trkpt lat="44.95658" lon="-1.06948">
        <ele>65.258603</ele>
        <time>2022-12-23T14:51:15.730Z</time>
      </trkpt>
      <trkpt lat="44.95645" lon="-1.06942">
        <ele>65.313452</ele>
        <time>2022-12-23T14:51:18.733Z</time>
      </trkpt>
      <trkpt lat="44.95633" lon="-1.06936">
        <ele>65.36715</ele>
        <time>2022-12-23T14:51:21.745Z</time>
      </trkpt>
      <trkpt lat="44.95621" lon="-1.06931">
        <ele>65.403996</ele>
        <time>2022-12-23T14:51:24.745Z</time>
      </trkpt>
      <trkpt lat="44.95609" lon="-1.06925">
        <ele>65.340808</ele>
        <time>2022-12-23T14:51:27.731Z</time>
      </trkpt>
      <trkpt lat="44.95597" lon="-1.0692">
        <ele>65.276101</ele>
        <time>2022-12-23T14:51:30.749Z</time>
      </trkpt>
      <trkpt lat="44.95586" lon="-1.06914">
        <ele>65.212047</ele>
        <time>2022-12-23T14:51:33.737Z</time>
      </trkpt>
      <trkpt lat="44.95574" lon="-1.0691">
        <ele>65.149959</ele>
        <time>2022-12-23T14:51:36.733Z</time>
      </trkpt>
      <trkpt lat="44.95562" lon="-1.06904">
        <ele>65.085905</ele>
        <time>2022-12-23T14:51:39.748Z</time>
      </trkpt>
      <trkpt lat="44.95553" lon="-1.06901">
        <ele>65.035499</ele>
        <time>2022-12-23T14:51:41.750Z</time>
      </trkpt>
      <trkpt lat="44.95541" lon="-1.06896">
        <ele>64.970212</ele>
        <time>2022-12-23T14:51:44.745Z</time>
      </trkpt>
      <trkpt lat="44.95529" lon="-1.0689">
        <ele>64.903461</ele>
        <time>2022-12-23T14:51:47.747Z</time>
      </trkpt>
      <trkpt lat="44.95516" lon="-1.06884">
        <ele>64.832417</ele>
        <time>2022-12-23T14:51:50.745Z</time>
      </trkpt>
      <trkpt lat="44.95503" lon="-1.06878">
        <ele>64.763346</ele>
        <time>2022-12-23T14:51:53.751Z</time>
      </trkpt>
      <trkpt lat="44.9549" lon="-1.06873">
        <ele>64.693059</ele>
        <time>2022-12-23T14:51:56.748Z</time>
      </trkpt>
      <trkpt lat="44.95477" lon="-1.06866">
        <ele>64.622109</ele>
        <time>2022-12-23T14:51:59.720Z</time>
      </trkpt>
      <trkpt lat="44.95469" lon="-1.06862">
        <ele>64.574118</ele>
        <time>2022-12-23T14:52:01.749Z</time>
      </trkpt>
      <trkpt lat="44.9546" lon="-1.06859">
        <ele>64.525527</ele>
        <time>2022-12-23T14:52:03.745Z</time>
      </trkpt>
      <trkpt lat="44.95451" lon="-1.06855">
        <ele>64.478608</ele>
        <time>2022-12-23T14:52:05.745Z</time>
      </trkpt>
      <trkpt lat="44.95438" lon="-1.06849">
        <ele>64.575296</ele>
        <time>2022-12-23T14:52:08.744Z</time>
      </trkpt>
      <trkpt lat="44.95425" lon="-1.06844">
        <ele>64.675892</ele>
        <time>2022-12-23T14:52:11.746Z</time>
      </trkpt>
      <trkpt lat="44.95412" lon="-1.06838">
        <ele>64.776717</ele>
        <time>2022-12-23T14:52:14.746Z</time>
      </trkpt>
      <trkpt lat="44.95404" lon="-1.06833">
        <ele>64.84448</ele>
        <time>2022-12-23T14:52:16.743Z</time>
      </trkpt>
      <trkpt lat="44.95395" lon="-1.0683">
        <ele>64.910639</ele>
        <time>2022-12-23T14:52:18.746Z</time>
      </trkpt>
      <trkpt lat="44.95386" lon="-1.06826">
        <ele>64.980683</ele>
        <time>2022-12-23T14:52:20.742Z</time>
      </trkpt>
      <trkpt lat="44.95374" lon="-1.06821">
        <ele>65.078846</ele>
        <time>2022-12-23T14:52:23.746Z</time>
      </trkpt>
      <trkpt lat="44.95361" lon="-1.06815">
        <ele>65.176687</ele>
        <time>2022-12-23T14:52:26.748Z</time>
      </trkpt>
      <trkpt lat="44.95349" lon="-1.06809">
        <ele>65.272953</ele>
        <time>2022-12-23T14:52:29.746Z</time>
      </trkpt>
      <trkpt lat="44.95336" lon="-1.06803">
        <ele>65.372747</ele>
        <time>2022-12-23T14:52:32.743Z</time>
      </trkpt>
      <trkpt lat="44.95324" lon="-1.06799">
        <ele>65.467793</ele>
        <time>2022-12-23T14:52:35.734Z</time>
      </trkpt>
      <trkpt lat="44.95312" lon="-1.06794">
        <ele>65.561386</ele>
        <time>2022-12-23T14:52:38.759Z</time>
      </trkpt>
      <trkpt lat="44.953" lon="-1.06789">
        <ele>65.652695</ele>
        <time>2022-12-23T14:52:41.750Z</time>
      </trkpt>
      <trkpt lat="44.95288" lon="-1.06783">
        <ele>65.746192</ele>
        <time>2022-12-23T14:52:44.746Z</time>
      </trkpt>
      <trkpt lat="44.95275" lon="-1.06778">
        <ele>65.794322</ele>
        <time>2022-12-23T14:52:47.729Z</time>
      </trkpt>
      <trkpt lat="44.95263" lon="-1.06772">
        <ele>65.732621</ele>
        <time>2022-12-23T14:52:50.747Z</time>
      </trkpt>
      <trkpt lat="44.9525" lon="-1.06766">
        <ele>65.672552</ele>
        <time>2022-12-23T14:52:53.747Z</time>
      </trkpt>
      <trkpt lat="44.95238" lon="-1.06761">
        <ele>65.61322</ele>
        <time>2022-12-23T14:52:56.746Z</time>
      </trkpt>
      <trkpt lat="44.95227" lon="-1.06756">
        <ele>65.557887</ele>
        <time>2022-12-23T14:52:59.744Z</time>
      </trkpt>
      <trkpt lat="44.95216" lon="-1.06751">
        <ele>65.506258</ele>
        <time>2022-12-23T14:53:02.738Z</time>
      </trkpt>
      <trkpt lat="44.95205" lon="-1.06746">
        <ele>65.451025</ele>
        <time>2022-12-23T14:53:05.731Z</time>
      </trkpt>
      <trkpt lat="44.95193" lon="-1.06741">
        <ele>65.394906</ele>
        <time>2022-12-23T14:53:08.748Z</time>
      </trkpt>
      <trkpt lat="44.95182" lon="-1.06736">
        <ele>65.33804</ele>
        <time>2022-12-23T14:53:11.747Z</time>
      </trkpt>
      <trkpt lat="44.9517" lon="-1.06731">
        <ele>65.281582</ele>
        <time>2022-12-23T14:53:14.746Z</time>
      </trkpt>
      <trkpt lat="44.95158" lon="-1.06726">
        <ele>65.223931</ele>
        <time>2022-12-23T14:53:17.743Z</time>
      </trkpt>
      <trkpt lat="44.95146" lon="-1.0672">
        <ele>65.165321</ele>
        <time>2022-12-23T14:53:20.748Z</time>
      </trkpt>
      <trkpt lat="44.95134" lon="-1.06715">
        <ele>65.104708</ele>
        <time>2022-12-23T14:53:23.749Z</time>
      </trkpt>
      <trkpt lat="44.95122" lon="-1.06709">
        <ele>65.043892</ele>
        <time>2022-12-23T14:53:26.730Z</time>
      </trkpt>
      <trkpt lat="44.9511" lon="-1.06704">
        <ele>64.985824</ele>
        <time>2022-12-23T14:53:29.750Z</time>
      </trkpt>
      <trkpt lat="44.95099" lon="-1.06699">
        <ele>64.859361</ele>
        <time>2022-12-23T14:53:32.747Z</time>
      </trkpt>
      <trkpt lat="44.95089" lon="-1.06694">
        <ele>64.703394</ele>
        <time>2022-12-23T14:53:35.750Z</time>
      </trkpt>
      <trkpt lat="44.95077" lon="-1.06689">
        <ele>64.543553</ele>
        <time>2022-12-23T14:53:38.748Z</time>
      </trkpt>
      <trkpt lat="44.95066" lon="-1.06684">
        <ele>64.375755</ele>
        <time>2022-12-23T14:53:41.744Z</time>
      </trkpt>
      <trkpt lat="44.95053" lon="-1.06678">
        <ele>64.197716</ele>
        <time>2022-12-23T14:53:44.746Z</time>
      </trkpt>
      <trkpt lat="44.95045" lon="-1.06673">
        <ele>64.074427</ele>
        <time>2022-12-23T14:53:46.750Z</time>
      </trkpt>
      <trkpt lat="44.95033" lon="-1.06668">
        <ele>63.903181</ele>
        <time>2022-12-23T14:53:49.749Z</time>
      </trkpt>
      <trkpt lat="44.95023" lon="-1.06664">
        <ele>63.763503</ele>
        <time>2022-12-23T14:53:52.748Z</time>
      </trkpt>
      <trkpt lat="44.95013" lon="-1.06659">
        <ele>63.62452</ele>
        <time>2022-12-23T14:53:55.751Z</time>
      </trkpt>
      <trkpt lat="44.95003" lon="-1.06655">
        <ele>63.479464</ele>
        <time>2022-12-23T14:53:58.758Z</time>
      </trkpt>
      <trkpt lat="44.94992" lon="-1.0665">
        <ele>63.323796</ele>
        <time>2022-12-23T14:54:01.748Z</time>
      </trkpt>
      <trkpt lat="44.94981" lon="-1.06645">
        <ele>63.164816</ele>
        <time>2022-12-23T14:54:04.733Z</time>
      </trkpt>
      <trkpt lat="44.94969" lon="-1.0664">
        <ele>63.003772</ele>
        <time>2022-12-23T14:54:07.750Z</time>
      </trkpt>
      <trkpt lat="44.94958" lon="-1.06635">
        <ele>62.84451</ele>
        <time>2022-12-23T14:54:10.727Z</time>
      </trkpt>
      <trkpt lat="44.94947" lon="-1.0663">
        <ele>62.688893</ele>
        <time>2022-12-23T14:54:13.745Z</time>
      </trkpt>
      <trkpt lat="44.94936" lon="-1.06624">
        <ele>62.536536</ele>
        <time>2022-12-23T14:54:16.732Z</time>
      </trkpt>
      <trkpt lat="44.94924" lon="-1.06619">
        <ele>62.614715</ele>
        <time>2022-12-23T14:54:19.736Z</time>
      </trkpt>
      <trkpt lat="44.94915" lon="-1.06616">
        <ele>62.6726</ele>
        <time>2022-12-23T14:54:21.747Z</time>
      </trkpt>
      <trkpt lat="44.94903" lon="-1.0661">
        <ele>62.753571</ele>
        <time>2022-12-23T14:54:24.748Z</time>
      </trkpt>
      <trkpt lat="44.94891" lon="-1.06605">
        <ele>62.833409</ele>
        <time>2022-12-23T14:54:27.744Z</time>
      </trkpt>
      <trkpt lat="44.94879" lon="-1.066">
        <ele>62.910858</ele>
        <time>2022-12-23T14:54:30.750Z</time>
      </trkpt>
      <trkpt lat="44.9487" lon="-1.06596">
        <ele>62.967135</ele>
        <time>2022-12-23T14:54:32.749Z</time>
      </trkpt>
      <trkpt lat="44.94858" lon="-1.06591">
        <ele>63.049036</ele>
        <time>2022-12-23T14:54:35.759Z</time>
      </trkpt>
      <trkpt lat="44.94846" lon="-1.06586">
        <ele>63.128507</ele>
        <time>2022-12-23T14:54:38.751Z</time>
      </trkpt>
      <trkpt lat="44.94837" lon="-1.06581">
        <ele>63.186997</ele>
        <time>2022-12-23T14:54:40.750Z</time>
      </trkpt>
      <trkpt lat="44.94824" lon="-1.06576">
        <ele>63.271425</ele>
        <time>2022-12-23T14:54:43.748Z</time>
      </trkpt>
      <trkpt lat="44.94813" lon="-1.0657">
        <ele>63.344983</ele>
        <time>2022-12-23T14:54:46.742Z</time>
      </trkpt>
      <trkpt lat="44.94803" lon="-1.06566">
        <ele>63.411474</ele>
        <time>2022-12-23T14:54:49.751Z</time>
      </trkpt>
      <trkpt lat="44.94791" lon="-1.06561">
        <ele>63.486484</ele>
        <time>2022-12-23T14:54:52.737Z</time>
      </trkpt>
      <trkpt lat="44.94779" lon="-1.06556">
        <ele>63.563673</ele>
        <time>2022-12-23T14:54:55.749Z</time>
      </trkpt>
      <trkpt lat="44.94767" lon="-1.06551">
        <ele>63.641853</ele>
        <time>2022-12-23T14:54:58.750Z</time>
      </trkpt>
      <trkpt lat="44.94755" lon="-1.06545">
        <ele>63.833013</ele>
        <time>2022-12-23T14:55:01.726Z</time>
      </trkpt>
      <trkpt lat="44.94742" lon="-1.06539">
        <ele>64.055994</ele>
        <time>2022-12-23T14:55:04.734Z</time>
      </trkpt>
      <trkpt lat="44.94733" lon="-1.06535">
        <ele>64.215565</ele>
        <time>2022-12-23T14:55:06.729Z</time>
      </trkpt>
      <trkpt lat="44.94721" lon="-1.0653">
        <ele>64.420709</ele>
        <time>2022-12-23T14:55:09.749Z</time>
      </trkpt>
      <trkpt lat="44.94709" lon="-1.06524">
        <ele>64.634945</ele>
        <time>2022-12-23T14:55:12.749Z</time>
      </trkpt>
      <trkpt lat="44.94697" lon="-1.0652">
        <ele>64.847817</ele>
        <time>2022-12-23T14:55:15.750Z</time>
      </trkpt>
      <trkpt lat="44.94684" lon="-1.06516">
        <ele>65.065457</ele>
        <time>2022-12-23T14:55:18.749Z</time>
      </trkpt>
      <trkpt lat="44.94675" lon="-1.06514">
        <ele>65.217664</ele>
        <time>2022-12-23T14:55:20.748Z</time>
      </trkpt>
      <trkpt lat="44.94663" lon="-1.06511">
        <ele>65.43094</ele>
        <time>2022-12-23T14:55:23.746Z</time>
      </trkpt>
      <trkpt lat="44.94649" lon="-1.06508">
        <ele>65.654795</ele>
        <time>2022-12-23T14:55:26.739Z</time>
      </trkpt>
      <trkpt lat="44.94636" lon="-1.06507">
        <ele>65.869694</ele>
        <time>2022-12-23T14:55:29.749Z</time>
      </trkpt>
      <trkpt lat="44.94624" lon="-1.06506">
        <ele>66.076976</ele>
        <time>2022-12-23T14:55:32.727Z</time>
      </trkpt>
      <trkpt lat="44.94611" lon="-1.06505">
        <ele>66.28769</ele>
        <time>2022-12-23T14:55:35.749Z</time>
      </trkpt>
      <trkpt lat="44.94599" lon="-1.06506">
        <ele>66.494935</ele>
        <time>2022-12-23T14:55:38.728Z</time>
      </trkpt>
      <trkpt lat="44.94586" lon="-1.06505">
        <ele>66.63012</ele>
        <time>2022-12-23T14:55:41.745Z</time>
      </trkpt>
      <trkpt lat="44.94573" lon="-1.06505">
        <ele>66.475136</ele>
        <time>2022-12-23T14:55:44.751Z</time>
      </trkpt>
      <trkpt lat="44.94561" lon="-1.06505">
        <ele>66.325004</ele>
        <time>2022-12-23T14:55:47.750Z</time>
      </trkpt>
      <trkpt lat="44.94549" lon="-1.06504">
        <ele>66.179527</ele>
        <time>2022-12-23T14:55:50.749Z</time>
      </trkpt>
      <trkpt lat="44.94536" lon="-1.06503">
        <ele>66.028088</ele>
        <time>2022-12-23T14:55:53.754Z</time>
      </trkpt>
      <trkpt lat="44.94523" lon="-1.06503">
        <ele>65.874342</ele>
        <time>2022-12-23T14:55:56.727Z</time>
      </trkpt>
      <trkpt lat="44.94511" lon="-1.06504">
        <ele>65.724025</ele>
        <time>2022-12-23T14:55:59.749Z</time>
      </trkpt>
      <trkpt lat="44.945" lon="-1.06503">
        <ele>65.592786</ele>
        <time>2022-12-23T14:56:02.739Z</time>
      </trkpt>
      <trkpt lat="44.94489" lon="-1.06504">
        <ele>65.463877</ele>
        <time>2022-12-23T14:56:05.752Z</time>
      </trkpt>
      <trkpt lat="44.94479" lon="-1.06504">
        <ele>65.340165</ele>
        <time>2022-12-23T14:56:08.747Z</time>
      </trkpt>
      <trkpt lat="44.94469" lon="-1.06503">
        <ele>65.218721</ele>
        <time>2022-12-23T14:56:11.746Z</time>
      </trkpt>
      <trkpt lat="44.94457" lon="-1.06502">
        <ele>65.079242</ele>
        <time>2022-12-23T14:56:14.749Z</time>
      </trkpt>
      <trkpt lat="44.94446" lon="-1.06501">
        <ele>64.945404</ele>
        <time>2022-12-23T14:56:17.728Z</time>
      </trkpt>
      <trkpt lat="44.94436" lon="-1.065">
        <ele>64.828464</ele>
        <time>2022-12-23T14:56:20.749Z</time>
      </trkpt>
      <trkpt lat="44.94426" lon="-1.06499">
        <ele>64.701135</ele>
        <time>2022-12-23T14:56:23.748Z</time>
      </trkpt>
      <trkpt lat="44.94415" lon="-1.06498">
        <ele>64.57235</ele>
        <time>2022-12-23T14:56:26.750Z</time>
      </trkpt>
      <trkpt lat="44.94404" lon="-1.06499">
        <ele>64.460281</ele>
        <time>2022-12-23T14:56:29.726Z</time>
      </trkpt>
      <trkpt lat="44.94394" lon="-1.06499">
        <ele>64.361074</ele>
        <time>2022-12-23T14:56:32.748Z</time>
      </trkpt>
      <trkpt lat="44.94382" lon="-1.06498">
        <ele>64.256123</ele>
        <time>2022-12-23T14:56:35.737Z</time>
      </trkpt>
      <trkpt lat="44.9437" lon="-1.06497">
        <ele>64.14502</ele>
        <time>2022-12-23T14:56:38.747Z</time>
      </trkpt>
      <trkpt lat="44.94358" lon="-1.06496">
        <ele>64.036666</ele>
        <time>2022-12-23T14:56:41.751Z</time>
      </trkpt>
      <trkpt lat="44.94346" lon="-1.06496">
        <ele>63.924689</ele>
        <time>2022-12-23T14:56:44.727Z</time>
      </trkpt>
      <trkpt lat="44.94334" lon="-1.06496">
        <ele>63.815466</ele>
        <time>2022-12-23T14:56:47.749Z</time>
      </trkpt>
      <trkpt lat="44.94321" lon="-1.06495">
        <ele>63.702299</ele>
        <time>2022-12-23T14:56:50.748Z</time>
      </trkpt>
      <trkpt lat="44.94309" lon="-1.06494">
        <ele>63.591245</ele>
        <time>2022-12-23T14:56:53.750Z</time>
      </trkpt>
      <trkpt lat="44.94297" lon="-1.06494">
        <ele>63.477433</ele>
        <time>2022-12-23T14:56:56.750Z</time>
      </trkpt>
      <trkpt lat="44.94284" lon="-1.06494">
        <ele>63.366397</ele>
        <time>2022-12-23T14:56:59.746Z</time>
      </trkpt>
      <trkpt lat="44.94271" lon="-1.06495">
        <ele>63.248813</ele>
        <time>2022-12-23T14:57:02.749Z</time>
      </trkpt>
      <trkpt lat="44.9426" lon="-1.06496">
        <ele>63.142796</ele>
        <time>2022-12-23T14:57:05.749Z</time>
      </trkpt>
      <trkpt lat="44.94249" lon="-1.06498">
        <ele>63.045702</ele>
        <time>2022-12-23T14:57:08.748Z</time>
      </trkpt>
      <trkpt lat="44.94238" lon="-1.065">
        <ele>62.943938</ele>
        <time>2022-12-23T14:57:11.745Z</time>
      </trkpt>
      <trkpt lat="44.94226" lon="-1.06503">
        <ele>62.862505</ele>
        <time>2022-12-23T14:57:14.726Z</time>
      </trkpt>
      <trkpt lat="44.94214" lon="-1.06506">
        <ele>62.845092</ele>
        <time>2022-12-23T14:57:17.743Z</time>
      </trkpt>
      <trkpt lat="44.94202" lon="-1.0651">
        <ele>62.828184</ele>
        <time>2022-12-23T14:57:20.751Z</time>
      </trkpt>
      <trkpt lat="44.94191" lon="-1.06514">
        <ele>62.812024</ele>
        <time>2022-12-23T14:57:23.748Z</time>
      </trkpt>
      <trkpt lat="44.94181" lon="-1.06519">
        <ele>62.797351</ele>
        <time>2022-12-23T14:57:26.747Z</time>
      </trkpt>
      <trkpt lat="44.9417" lon="-1.06524">
        <ele>62.780765</ele>
        <time>2022-12-23T14:57:29.727Z</time>
      </trkpt>
      <trkpt lat="44.94159" lon="-1.06529">
        <ele>62.764804</ele>
        <time>2022-12-23T14:57:32.739Z</time>
      </trkpt>
      <trkpt lat="44.94148" lon="-1.06534">
        <ele>62.747974</ele>
        <time>2022-12-23T14:57:35.747Z</time>
      </trkpt>
      <trkpt lat="44.94136" lon="-1.0654">
        <ele>62.730327</ele>
        <time>2022-12-23T14:57:38.740Z</time>
      </trkpt>
      <trkpt lat="44.94123" lon="-1.06546">
        <ele>62.711891</ele>
        <time>2022-12-23T14:57:41.749Z</time>
      </trkpt>
      <trkpt lat="44.94115" lon="-1.06549">
        <ele>62.699076</ele>
        <time>2022-12-23T14:57:43.750Z</time>
      </trkpt>
      <trkpt lat="44.94103" lon="-1.06555">
        <ele>62.682029</ele>
        <time>2022-12-23T14:57:46.733Z</time>
      </trkpt>
      <trkpt lat="44.94092" lon="-1.0656">
        <ele>62.665685</ele>
        <time>2022-12-23T14:57:49.751Z</time>
      </trkpt>
      <trkpt lat="44.94083" lon="-1.06565">
        <ele>62.651583</ele>
        <time>2022-12-23T14:57:52.750Z</time>
      </trkpt>
      <trkpt lat="44.94073" lon="-1.0657">
        <ele>62.637663</ele>
        <time>2022-12-23T14:57:55.747Z</time>
      </trkpt>
      <trkpt lat="44.94063" lon="-1.06575">
        <ele>62.622757</ele>
        <time>2022-12-23T14:57:58.749Z</time>
      </trkpt>
      <trkpt lat="44.94053" lon="-1.0658">
        <ele>62.649911</ele>
        <time>2022-12-23T14:58:01.735Z</time>
      </trkpt>
      <trkpt lat="44.94043" lon="-1.06586">
        <ele>62.712831</ele>
        <time>2022-12-23T14:58:04.749Z</time>
      </trkpt>
      <trkpt lat="44.94032" lon="-1.06591">
        <ele>62.775615</ele>
        <time>2022-12-23T14:58:07.748Z</time>
      </trkpt>
      <trkpt lat="44.94023" lon="-1.06596">
        <ele>62.834196</ele>
        <time>2022-12-23T14:58:10.747Z</time>
      </trkpt>
      <trkpt lat="44.94013" lon="-1.066">
        <ele>62.895367</ele>
        <time>2022-12-23T14:58:13.745Z</time>
      </trkpt>
      <trkpt lat="44.94002" lon="-1.06605">
        <ele>62.960459</ele>
        <time>2022-12-23T14:58:16.742Z</time>
      </trkpt>
      <trkpt lat="44.93991" lon="-1.06611">
        <ele>63.024737</ele>
        <time>2022-12-23T14:58:19.749Z</time>
      </trkpt>
      <trkpt lat="44.93981" lon="-1.06616">
        <ele>63.089157</ele>
        <time>2022-12-23T14:58:22.740Z</time>
      </trkpt>
      <trkpt lat="44.9397" lon="-1.06622">
        <ele>63.156558</ele>
        <time>2022-12-23T14:58:25.749Z</time>
      </trkpt>
      <trkpt lat="44.93959" lon="-1.06627">
        <ele>63.22002</ele>
        <time>2022-12-23T14:58:28.748Z</time>
      </trkpt>
      <trkpt lat="44.9395" lon="-1.06631">
        <ele>63.275638</ele>
        <time>2022-12-23T14:58:31.726Z</time>
      </trkpt>
      <trkpt lat="44.9394" lon="-1.06636">
        <ele>63.334761</ele>
        <time>2022-12-23T14:58:34.746Z</time>
      </trkpt>
      <trkpt lat="44.9393" lon="-1.06641">
        <ele>63.399466</ele>
        <time>2022-12-23T14:58:37.749Z</time>
      </trkpt>
      <trkpt lat="44.93919" lon="-1.06646">
        <ele>63.464425</ele>
        <time>2022-12-23T14:58:40.741Z</time>
      </trkpt>
      <trkpt lat="44.93908" lon="-1.06651">
        <ele>63.530897</ele>
        <time>2022-12-23T14:58:43.749Z</time>
      </trkpt>
      <trkpt lat="44.93897" lon="-1.06656">
        <ele>63.596948</ele>
        <time>2022-12-23T14:58:46.749Z</time>
      </trkpt>
      <trkpt lat="44.93886" lon="-1.06661">
        <ele>63.658663</ele>
        <time>2022-12-23T14:58:49.748Z</time>
      </trkpt>
      <trkpt lat="44.93875" lon="-1.06667">
        <ele>63.699913</ele>
        <time>2022-12-23T14:58:52.749Z</time>
      </trkpt>
      <trkpt lat="44.93864" lon="-1.06672">
        <ele>63.741688</ele>
        <time>2022-12-23T14:58:55.747Z</time>
      </trkpt>
      <trkpt lat="44.93853" lon="-1.06677">
        <ele>63.784555</ele>
        <time>2022-12-23T14:58:58.747Z</time>
      </trkpt>
      <trkpt lat="44.93842" lon="-1.06683">
        <ele>63.82674</ele>
        <time>2022-12-23T14:59:01.746Z</time>
      </trkpt>
      <trkpt lat="44.93831" lon="-1.06688">
        <ele>63.86884</ele>
        <time>2022-12-23T14:59:04.749Z</time>
      </trkpt>
      <trkpt lat="44.93821" lon="-1.06693">
        <ele>63.909748</ele>
        <time>2022-12-23T14:59:07.745Z</time>
      </trkpt>
      <trkpt lat="44.9381" lon="-1.06699">
        <ele>63.949985</ele>
        <time>2022-12-23T14:59:10.749Z</time>
      </trkpt>
      <trkpt lat="44.938" lon="-1.06704">
        <ele>63.990561</ele>
        <time>2022-12-23T14:59:13.750Z</time>
      </trkpt>
      <trkpt lat="44.93789" lon="-1.0671">
        <ele>64.030702</ele>
        <time>2022-12-23T14:59:16.747Z</time>
      </trkpt>
      <trkpt lat="44.93778" lon="-1.06714">
        <ele>64.07171</ele>
        <time>2022-12-23T14:59:19.741Z</time>
      </trkpt>
      <trkpt lat="44.93768" lon="-1.0672">
        <ele>64.111935</ele>
        <time>2022-12-23T14:59:22.749Z</time>
      </trkpt>
      <trkpt lat="44.93757" lon="-1.06725">
        <ele>64.153439</ele>
        <time>2022-12-23T14:59:25.748Z</time>
      </trkpt>
      <trkpt lat="44.93748" lon="-1.0673">
        <ele>64.189583</ele>
        <time>2022-12-23T14:59:28.726Z</time>
      </trkpt>
      <trkpt lat="44.93737" lon="-1.06735">
        <ele>64.23066</ele>
        <time>2022-12-23T14:59:32.746Z</time>
      </trkpt>
      <trkpt lat="44.93727" lon="-1.06739">
        <ele>64.267069</ele>
        <time>2022-12-23T14:59:35.748Z</time>
      </trkpt>
      <trkpt lat="44.93717" lon="-1.06744">
        <ele>64.301459</ele>
        <time>2022-12-23T14:59:38.745Z</time>
      </trkpt>
      <trkpt lat="44.93707" lon="-1.0675">
        <ele>64.307729</ele>
        <time>2022-12-23T14:59:41.740Z</time>
      </trkpt>
      <trkpt lat="44.93697" lon="-1.06755">
        <ele>64.314208</ele>
        <time>2022-12-23T14:59:44.736Z</time>
      </trkpt>
      <trkpt lat="44.93686" lon="-1.06759">
        <ele>64.32076</ele>
        <time>2022-12-23T14:59:47.748Z</time>
      </trkpt>
      <trkpt lat="44.93676" lon="-1.06764">
        <ele>64.327308</ele>
        <time>2022-12-23T14:59:50.732Z</time>
      </trkpt>
      <trkpt lat="44.93666" lon="-1.06769">
        <ele>64.33326</ele>
        <time>2022-12-23T14:59:53.725Z</time>
      </trkpt>
      <trkpt lat="44.93657" lon="-1.06774">
        <ele>64.33921</ele>
        <time>2022-12-23T14:59:56.741Z</time>
      </trkpt>
      <trkpt lat="44.93647" lon="-1.06779">
        <ele>64.345521</ele>
        <time>2022-12-23T14:59:59.748Z</time>
      </trkpt>
      <trkpt lat="44.93636" lon="-1.06783">
        <ele>64.35203</ele>
        <time>2022-12-23T15:00:02.739Z</time>
      </trkpt>
      <trkpt lat="44.93625" lon="-1.06789">
        <ele>64.358759</ele>
        <time>2022-12-23T15:00:05.746Z</time>
      </trkpt>
      <trkpt lat="44.93615" lon="-1.06794">
        <ele>64.365322</ele>
        <time>2022-12-23T15:00:08.744Z</time>
      </trkpt>
      <trkpt lat="44.93604" lon="-1.06799">
        <ele>64.371838</ele>
        <time>2022-12-23T15:00:11.742Z</time>
      </trkpt>
      <trkpt lat="44.93594" lon="-1.06804">
        <ele>64.378219</ele>
        <time>2022-12-23T15:00:14.729Z</time>
      </trkpt>
      <trkpt lat="44.93584" lon="-1.06809">
        <ele>64.384758</ele>
        <time>2022-12-23T15:00:17.749Z</time>
      </trkpt>
      <trkpt lat="44.93573" lon="-1.06815">
        <ele>64.391751</ele>
        <time>2022-12-23T15:00:20.747Z</time>
      </trkpt>
      <trkpt lat="44.93561" lon="-1.06821">
        <ele>64.398882</ele>
        <time>2022-12-23T15:00:23.749Z</time>
      </trkpt>
      <trkpt lat="44.9355" lon="-1.06826">
        <ele>64.405766</ele>
        <time>2022-12-23T15:00:26.742Z</time>
      </trkpt>
      <trkpt lat="44.93539" lon="-1.06831">
        <ele>64.371653</ele>
        <time>2022-12-23T15:00:29.732Z</time>
      </trkpt>
      <trkpt lat="44.93527" lon="-1.06836">
        <ele>64.332466</ele>
        <time>2022-12-23T15:00:32.747Z</time>
      </trkpt>
      <trkpt lat="44.93517" lon="-1.06841">
        <ele>64.29416</ele>
        <time>2022-12-23T15:00:35.746Z</time>
      </trkpt>
      <trkpt lat="44.93507" lon="-1.06846">
        <ele>64.259732</ele>
        <time>2022-12-23T15:00:38.748Z</time>
      </trkpt>
      <trkpt lat="44.93498" lon="-1.0685">
        <ele>64.229016</ele>
        <time>2022-12-23T15:00:41.750Z</time>
      </trkpt>
      <trkpt lat="44.93488" lon="-1.06854">
        <ele>64.194124</ele>
        <time>2022-12-23T15:00:44.758Z</time>
      </trkpt>
      <trkpt lat="44.93477" lon="-1.0686">
        <ele>64.15257</ele>
        <time>2022-12-23T15:00:47.741Z</time>
      </trkpt>
      <trkpt lat="44.93465" lon="-1.06865">
        <ele>64.112032</ele>
        <time>2022-12-23T15:00:50.747Z</time>
      </trkpt>
      <trkpt lat="44.93454" lon="-1.06871">
        <ele>64.072671</ele>
        <time>2022-12-23T15:00:53.745Z</time>
      </trkpt>
      <trkpt lat="44.93443" lon="-1.06876">
        <ele>64.031634</ele>
        <time>2022-12-23T15:00:56.738Z</time>
      </trkpt>
      <trkpt lat="44.93432" lon="-1.06882">
        <ele>63.993171</ele>
        <time>2022-12-23T15:00:59.749Z</time>
      </trkpt>
      <trkpt lat="44.93422" lon="-1.06887">
        <ele>63.957714</ele>
        <time>2022-12-23T15:01:02.746Z</time>
      </trkpt>
      <trkpt lat="44.93411" lon="-1.06892">
        <ele>63.918301</ele>
        <time>2022-12-23T15:01:05.745Z</time>
      </trkpt>
      <trkpt lat="44.934" lon="-1.06897">
        <ele>63.879205</ele>
        <time>2022-12-23T15:01:08.752Z</time>
      </trkpt>
      <trkpt lat="44.9339" lon="-1.06902">
        <ele>63.843898</ele>
        <time>2022-12-23T15:01:11.750Z</time>
      </trkpt>
      <trkpt lat="44.93379" lon="-1.06907">
        <ele>63.806148</ele>
        <time>2022-12-23T15:01:14.748Z</time>
      </trkpt>
      <trkpt lat="44.93368" lon="-1.06912">
        <ele>63.658733</ele>
        <time>2022-12-23T15:01:17.746Z</time>
      </trkpt>
      <trkpt lat="44.93357" lon="-1.06918">
        <ele>63.49803</ele>
        <time>2022-12-23T15:01:20.748Z</time>
      </trkpt>
      <trkpt lat="44.93347" lon="-1.06923">
        <ele>63.349947</ele>
        <time>2022-12-23T15:01:23.743Z</time>
      </trkpt>
      <trkpt lat="44.93338" lon="-1.06927">
        <ele>63.222546</ele>
        <time>2022-12-23T15:01:26.748Z</time>
      </trkpt>
      <trkpt lat="44.93329" lon="-1.06932">
        <ele>63.082807</ele>
        <time>2022-12-23T15:01:29.746Z</time>
      </trkpt>
      <trkpt lat="44.93318" lon="-1.06938">
        <ele>62.927923</ele>
        <time>2022-12-23T15:01:32.730Z</time>
      </trkpt>
      <trkpt lat="44.93307" lon="-1.06943">
        <ele>62.768127</ele>
        <time>2022-12-23T15:01:35.736Z</time>
      </trkpt>
      <trkpt lat="44.93296" lon="-1.06948">
        <ele>62.606002</ele>
        <time>2022-12-23T15:01:38.740Z</time>
      </trkpt>
      <trkpt lat="44.93285" lon="-1.06953">
        <ele>62.450483</ele>
        <time>2022-12-23T15:01:41.748Z</time>
      </trkpt>
      <trkpt lat="44.93273" lon="-1.06959">
        <ele>62.281999</ele>
        <time>2022-12-23T15:01:44.743Z</time>
      </trkpt>
      <trkpt lat="44.93262" lon="-1.06965">
        <ele>62.113178</ele>
        <time>2022-12-23T15:01:47.744Z</time>
      </trkpt>
      <trkpt lat="44.93251" lon="-1.0697">
        <ele>61.957335</ele>
        <time>2022-12-23T15:01:50.735Z</time>
      </trkpt>
      <trkpt lat="44.93242" lon="-1.06975">
        <ele>61.822186</ele>
        <time>2022-12-23T15:01:53.749Z</time>
      </trkpt>
      <trkpt lat="44.93233" lon="-1.0698">
        <ele>61.689541</ele>
        <time>2022-12-23T15:01:56.752Z</time>
      </trkpt>
      <trkpt lat="44.93223" lon="-1.06984">
        <ele>61.547193</ele>
        <time>2022-12-23T15:01:59.734Z</time>
      </trkpt>
      <trkpt lat="44.93212" lon="-1.0699">
        <ele>61.385531</ele>
        <time>2022-12-23T15:02:02.742Z</time>
      </trkpt>
      <trkpt lat="44.932" lon="-1.06995">
        <ele>61.504193</ele>
        <time>2022-12-23T15:02:05.750Z</time>
      </trkpt>
      <trkpt lat="44.93188" lon="-1.07001">
        <ele>61.7518</ele>
        <time>2022-12-23T15:02:08.751Z</time>
      </trkpt>
      <trkpt lat="44.93176" lon="-1.07006">
        <ele>61.986374</ele>
        <time>2022-12-23T15:02:11.750Z</time>
      </trkpt>
      <trkpt lat="44.93166" lon="-1.07011">
        <ele>62.195293</ele>
        <time>2022-12-23T15:02:14.735Z</time>
      </trkpt>
      <trkpt lat="44.93157" lon="-1.07016">
        <ele>62.373261</ele>
        <time>2022-12-23T15:02:17.727Z</time>
      </trkpt>
      <trkpt lat="44.93148" lon="-1.0702">
        <ele>62.559878</ele>
        <time>2022-12-23T15:02:20.748Z</time>
      </trkpt>
      <trkpt lat="44.93139" lon="-1.07025">
        <ele>62.754304</ele>
        <time>2022-12-23T15:02:23.751Z</time>
      </trkpt>
      <trkpt lat="44.9313" lon="-1.0703">
        <ele>62.946837</ele>
        <time>2022-12-23T15:02:26.757Z</time>
      </trkpt>
      <trkpt lat="44.9312" lon="-1.07034">
        <ele>63.131263</ele>
        <time>2022-12-23T15:02:29.750Z</time>
      </trkpt>
      <trkpt lat="44.93111" lon="-1.07039">
        <ele>63.329784</ele>
        <time>2022-12-23T15:02:33.748Z</time>
      </trkpt>
      <trkpt lat="44.93095" lon="-1.07046">
        <ele>63.653856</ele>
        <time>2022-12-23T15:04:49.769Z</time>
      </trkpt>
      <trkpt lat="44.93085" lon="-1.07051">
        <ele>63.855987</ele>
        <time>2022-12-23T15:04:53.745Z</time>
      </trkpt>
      <trkpt lat="44.93076" lon="-1.07056">
        <ele>64.034839</ele>
        <time>2022-12-23T15:04:56.749Z</time>
      </trkpt>
      <trkpt lat="44.93067" lon="-1.07061">
        <ele>64.23421</ele>
        <time>2022-12-23T15:04:59.744Z</time>
      </trkpt>
      <trkpt lat="44.93057" lon="-1.07066">
        <ele>64.43587</ele>
        <time>2022-12-23T15:05:02.752Z</time>
      </trkpt>
      <trkpt lat="44.93047" lon="-1.07071">
        <ele>64.639338</ele>
        <time>2022-12-23T15:05:05.723Z</time>
      </trkpt>
      <trkpt lat="44.93037" lon="-1.07076">
        <ele>64.820973</ele>
        <time>2022-12-23T15:05:08.744Z</time>
      </trkpt>
      <trkpt lat="44.93027" lon="-1.07081">
        <ele>64.88474</ele>
        <time>2022-12-23T15:05:11.752Z</time>
      </trkpt>
      <trkpt lat="44.93017" lon="-1.07086">
        <ele>64.944031</ele>
        <time>2022-12-23T15:05:14.743Z</time>
      </trkpt>
      <trkpt lat="44.93008" lon="-1.0709">
        <ele>65.004358</ele>
        <time>2022-12-23T15:05:17.748Z</time>
      </trkpt>
      <trkpt lat="44.92998" lon="-1.07095">
        <ele>65.067706</ele>
        <time>2022-12-23T15:05:20.747Z</time>
      </trkpt>
      <trkpt lat="44.92988" lon="-1.071">
        <ele>65.12979</ele>
        <time>2022-12-23T15:05:23.752Z</time>
      </trkpt>
      <trkpt lat="44.92977" lon="-1.07105">
        <ele>65.194283</ele>
        <time>2022-12-23T15:05:26.745Z</time>
      </trkpt>
      <trkpt lat="44.92967" lon="-1.0711">
        <ele>65.258907</ele>
        <time>2022-12-23T15:05:29.744Z</time>
      </trkpt>
      <trkpt lat="44.92957" lon="-1.07114">
        <ele>65.322401</ele>
        <time>2022-12-23T15:05:32.747Z</time>
      </trkpt>
      <trkpt lat="44.92947" lon="-1.07119">
        <ele>65.386198</ele>
        <time>2022-12-23T15:05:35.751Z</time>
      </trkpt>
      <trkpt lat="44.92937" lon="-1.07124">
        <ele>65.450694</ele>
        <time>2022-12-23T15:05:38.747Z</time>
      </trkpt>
      <trkpt lat="44.92927" lon="-1.07129">
        <ele>65.51236</ele>
        <time>2022-12-23T15:05:41.744Z</time>
      </trkpt>
      <trkpt lat="44.92916" lon="-1.07134">
        <ele>65.579251</ele>
        <time>2022-12-23T15:05:44.748Z</time>
      </trkpt>
      <trkpt lat="44.92906" lon="-1.07139">
        <ele>65.645576</ele>
        <time>2022-12-23T15:05:47.741Z</time>
      </trkpt>
      <trkpt lat="44.92895" lon="-1.07144">
        <ele>65.710333</ele>
        <time>2022-12-23T15:05:50.749Z</time>
      </trkpt>
      <trkpt lat="44.92885" lon="-1.07149">
        <ele>65.774385</ele>
        <time>2022-12-23T15:05:53.748Z</time>
      </trkpt>
      <trkpt lat="44.92875" lon="-1.07154">
        <ele>65.841111</ele>
        <time>2022-12-23T15:05:56.747Z</time>
      </trkpt>
      <trkpt lat="44.92864" lon="-1.07159">
        <ele>65.877849</ele>
        <time>2022-12-23T15:05:59.750Z</time>
      </trkpt>
      <trkpt lat="44.92854" lon="-1.07164">
        <ele>65.871467</ele>
        <time>2022-12-23T15:06:02.750Z</time>
      </trkpt>
      <trkpt lat="44.92843" lon="-1.07169">
        <ele>65.865008</ele>
        <time>2022-12-23T15:06:05.745Z</time>
      </trkpt>
      <trkpt lat="44.92832" lon="-1.07174">
        <ele>65.858563</ele>
        <time>2022-12-23T15:06:08.732Z</time>
      </trkpt>
      <trkpt lat="44.92822" lon="-1.07179">
        <ele>65.852075</ele>
        <time>2022-12-23T15:06:11.730Z</time>
      </trkpt>
      <trkpt lat="44.92811" lon="-1.07184">
        <ele>65.845685</ele>
        <time>2022-12-23T15:06:14.746Z</time>
      </trkpt>
      <trkpt lat="44.92801" lon="-1.0719">
        <ele>65.839334</ele>
        <time>2022-12-23T15:06:17.753Z</time>
      </trkpt>
      <trkpt lat="44.9279" lon="-1.07195">
        <ele>65.833025</ele>
        <time>2022-12-23T15:06:20.748Z</time>
      </trkpt>
      <trkpt lat="44.9278" lon="-1.07201">
        <ele>65.826496</ele>
        <time>2022-12-23T15:06:23.751Z</time>
      </trkpt>
      <trkpt lat="44.92769" lon="-1.07206">
        <ele>65.820119</ele>
        <time>2022-12-23T15:06:26.746Z</time>
      </trkpt>
      <trkpt lat="44.92759" lon="-1.07211">
        <ele>65.813755</ele>
        <time>2022-12-23T15:06:29.747Z</time>
      </trkpt>
      <trkpt lat="44.92748" lon="-1.07216">
        <ele>65.807296</ele>
        <time>2022-12-23T15:06:32.750Z</time>
      </trkpt>
      <trkpt lat="44.92738" lon="-1.07221">
        <ele>65.80077</ele>
        <time>2022-12-23T15:06:35.750Z</time>
      </trkpt>
      <trkpt lat="44.92727" lon="-1.07227">
        <ele>65.794135</ele>
        <time>2022-12-23T15:06:38.732Z</time>
      </trkpt>
      <trkpt lat="44.92716" lon="-1.07232">
        <ele>65.787621</ele>
        <time>2022-12-23T15:06:41.749Z</time>
      </trkpt>
      <trkpt lat="44.92705" lon="-1.07237">
        <ele>65.780889</ele>
        <time>2022-12-23T15:06:44.745Z</time>
      </trkpt>
      <trkpt lat="44.92694" lon="-1.07242">
        <ele>65.764395</ele>
        <time>2022-12-23T15:06:47.750Z</time>
      </trkpt>
      <trkpt lat="44.92683" lon="-1.07248">
        <ele>65.733362</ele>
        <time>2022-12-23T15:06:50.746Z</time>
      </trkpt>
      <trkpt lat="44.92672" lon="-1.07253">
        <ele>65.70246</ele>
        <time>2022-12-23T15:06:53.752Z</time>
      </trkpt>
      <trkpt lat="44.92661" lon="-1.07258">
        <ele>65.672367</ele>
        <time>2022-12-23T15:06:56.751Z</time>
      </trkpt>
      <trkpt lat="44.92651" lon="-1.07263">
        <ele>65.643482</ele>
        <time>2022-12-23T15:06:59.745Z</time>
      </trkpt>
      <trkpt lat="44.92641" lon="-1.07268">
        <ele>65.61484</ele>
        <time>2022-12-23T15:07:02.749Z</time>
      </trkpt>
      <trkpt lat="44.92631" lon="-1.07273">
        <ele>65.586195</ele>
        <time>2022-12-23T15:07:05.748Z</time>
      </trkpt>
      <trkpt lat="44.92621" lon="-1.07278">
        <ele>65.556616</ele>
        <time>2022-12-23T15:07:08.748Z</time>
      </trkpt>
      <trkpt lat="44.9261" lon="-1.07283">
        <ele>65.525955</ele>
        <time>2022-12-23T15:07:11.750Z</time>
      </trkpt>
      <trkpt lat="44.92599" lon="-1.07288">
        <ele>65.495862</ele>
        <time>2022-12-23T15:07:14.747Z</time>
      </trkpt>
      <trkpt lat="44.92588" lon="-1.07293">
        <ele>65.464769</ele>
        <time>2022-12-23T15:07:17.733Z</time>
      </trkpt>
      <trkpt lat="44.92577" lon="-1.07299">
        <ele>65.433736</ele>
        <time>2022-12-23T15:07:20.746Z</time>
      </trkpt>
      <trkpt lat="44.92566" lon="-1.07304">
        <ele>65.403838</ele>
        <time>2022-12-23T15:07:23.746Z</time>
      </trkpt>
      <trkpt lat="44.92556" lon="-1.07309">
        <ele>65.374128</ele>
        <time>2022-12-23T15:07:26.747Z</time>
      </trkpt>
      <trkpt lat="44.92545" lon="-1.07314">
        <ele>65.343855</ele>
        <time>2022-12-23T15:07:29.752Z</time>
      </trkpt>
      <trkpt lat="44.92535" lon="-1.07319">
        <ele>65.313329</ele>
        <time>2022-12-23T15:07:32.740Z</time>
      </trkpt>
      <trkpt lat="44.92524" lon="-1.07325">
        <ele>65.316222</ele>
        <time>2022-12-23T15:07:35.733Z</time>
      </trkpt>
      <trkpt lat="44.92514" lon="-1.0733">
        <ele>65.365204</ele>
        <time>2022-12-23T15:07:38.726Z</time>
      </trkpt>
      <trkpt lat="44.92503" lon="-1.07335">
        <ele>65.415042</ele>
        <time>2022-12-23T15:07:41.747Z</time>
      </trkpt>
      <trkpt lat="44.92493" lon="-1.0734">
        <ele>65.465196</ele>
        <time>2022-12-23T15:07:44.739Z</time>
      </trkpt>
      <trkpt lat="44.92482" lon="-1.07345">
        <ele>65.516301</ele>
        <time>2022-12-23T15:07:47.743Z</time>
      </trkpt>
      <trkpt lat="44.92471" lon="-1.07351">
        <ele>65.568247</ele>
        <time>2022-12-23T15:07:50.750Z</time>
      </trkpt>
      <trkpt lat="44.9246" lon="-1.07356">
        <ele>65.62073</ele>
        <time>2022-12-23T15:07:53.750Z</time>
      </trkpt>
      <trkpt lat="44.92449" lon="-1.07361">
        <ele>65.674165</ele>
        <time>2022-12-23T15:07:56.753Z</time>
      </trkpt>
      <trkpt lat="44.92437" lon="-1.07367">
        <ele>65.728229</ele>
        <time>2022-12-23T15:07:59.734Z</time>
      </trkpt>
      <trkpt lat="44.92426" lon="-1.07372">
        <ele>65.780704</ele>
        <time>2022-12-23T15:08:02.741Z</time>
      </trkpt>
      <trkpt lat="44.92415" lon="-1.07378">
        <ele>65.834024</ele>
        <time>2022-12-23T15:08:05.749Z</time>
      </trkpt>
      <trkpt lat="44.92404" lon="-1.07383">
        <ele>65.888412</ele>
        <time>2022-12-23T15:08:08.749Z</time>
      </trkpt>
      <trkpt lat="44.92393" lon="-1.07389">
        <ele>65.940887</ele>
        <time>2022-12-23T15:08:11.749Z</time>
      </trkpt>
      <trkpt lat="44.92381" lon="-1.07394">
        <ele>65.993271</ele>
        <time>2022-12-23T15:08:14.752Z</time>
      </trkpt>
      <trkpt lat="44.9237" lon="-1.074">
        <ele>66.047233</ele>
        <time>2022-12-23T15:08:17.749Z</time>
      </trkpt>
      <trkpt lat="44.92359" lon="-1.07405">
        <ele>66.100024</ele>
        <time>2022-12-23T15:08:20.750Z</time>
      </trkpt>
      <trkpt lat="44.92348" lon="-1.07411">
        <ele>66.032813</ele>
        <time>2022-12-23T15:08:23.750Z</time>
      </trkpt>
      <trkpt lat="44.92336" lon="-1.07416">
        <ele>65.95632</ele>
        <time>2022-12-23T15:08:26.748Z</time>
      </trkpt>
      <trkpt lat="44.92325" lon="-1.07422">
        <ele>65.880471</ele>
        <time>2022-12-23T15:08:29.749Z</time>
      </trkpt>
      <trkpt lat="44.92313" lon="-1.07427">
        <ele>65.80403</ele>
        <time>2022-12-23T15:08:32.747Z</time>
      </trkpt>
      <trkpt lat="44.92301" lon="-1.07433">
        <ele>65.723916</ele>
        <time>2022-12-23T15:08:35.750Z</time>
      </trkpt>
      <trkpt lat="44.92289" lon="-1.07439">
        <ele>65.643505</ele>
        <time>2022-12-23T15:08:38.747Z</time>
      </trkpt>
      <trkpt lat="44.92277" lon="-1.07445">
        <ele>65.565452</ele>
        <time>2022-12-23T15:08:41.738Z</time>
      </trkpt>
      <trkpt lat="44.92265" lon="-1.07451">
        <ele>65.485035</ele>
        <time>2022-12-23T15:08:44.746Z</time>
      </trkpt>
      <trkpt lat="44.92253" lon="-1.07456">
        <ele>65.404569</ele>
        <time>2022-12-23T15:08:47.752Z</time>
      </trkpt>
      <trkpt lat="44.9224" lon="-1.07462">
        <ele>65.323374</ele>
        <time>2022-12-23T15:08:50.745Z</time>
      </trkpt>
      <trkpt lat="44.92228" lon="-1.07468">
        <ele>65.241935</ele>
        <time>2022-12-23T15:08:53.748Z</time>
      </trkpt>
      <trkpt lat="44.92216" lon="-1.07473">
        <ele>65.165493</ele>
        <time>2022-12-23T15:08:56.748Z</time>
      </trkpt>
      <trkpt lat="44.92205" lon="-1.07479">
        <ele>65.090091</ele>
        <time>2022-12-23T15:08:59.747Z</time>
      </trkpt>
      <trkpt lat="44.92193" lon="-1.07485">
        <ele>65.011743</ele>
        <time>2022-12-23T15:09:02.750Z</time>
      </trkpt>
      <trkpt lat="44.92182" lon="-1.07491">
        <ele>65.00694</ele>
        <time>2022-12-23T15:09:05.744Z</time>
      </trkpt>
      <trkpt lat="44.9217" lon="-1.07497">
        <ele>65.056995</ele>
        <time>2022-12-23T15:09:08.738Z</time>
      </trkpt>
      <trkpt lat="44.92159" lon="-1.07502">
        <ele>65.106953</ele>
        <time>2022-12-23T15:09:11.744Z</time>
      </trkpt>
      <trkpt lat="44.92148" lon="-1.07508">
        <ele>65.154316</ele>
        <time>2022-12-23T15:09:14.749Z</time>
      </trkpt>
      <trkpt lat="44.92137" lon="-1.07513">
        <ele>65.201292</ele>
        <time>2022-12-23T15:09:17.751Z</time>
      </trkpt>
      <trkpt lat="44.92126" lon="-1.07518">
        <ele>65.249729</ele>
        <time>2022-12-23T15:09:20.747Z</time>
      </trkpt>
      <trkpt lat="44.92115" lon="-1.07524">
        <ele>65.297572</ele>
        <time>2022-12-23T15:09:23.748Z</time>
      </trkpt>
      <trkpt lat="44.92103" lon="-1.07529">
        <ele>65.345447</ele>
        <time>2022-12-23T15:09:26.745Z</time>
      </trkpt>
      <trkpt lat="44.92092" lon="-1.07533">
        <ele>65.392456</ele>
        <time>2022-12-23T15:09:29.749Z</time>
      </trkpt>
      <trkpt lat="44.92082" lon="-1.07538">
        <ele>65.436155</ele>
        <time>2022-12-23T15:09:32.746Z</time>
      </trkpt>
      <trkpt lat="44.92072" lon="-1.07544">
        <ele>65.479283</ele>
        <time>2022-12-23T15:09:35.753Z</time>
      </trkpt>
      <trkpt lat="44.92062" lon="-1.07548">
        <ele>65.523274</ele>
        <time>2022-12-23T15:09:38.743Z</time>
      </trkpt>
      <trkpt lat="44.92052" lon="-1.07553">
        <ele>65.567652</ele>
        <time>2022-12-23T15:09:41.747Z</time>
      </trkpt>
      <trkpt lat="44.9204" lon="-1.07559">
        <ele>65.616656</ele>
        <time>2022-12-23T15:09:44.746Z</time>
      </trkpt>
      <trkpt lat="44.92029" lon="-1.07564">
        <ele>65.664592</ele>
        <time>2022-12-23T15:09:47.745Z</time>
      </trkpt>
      <trkpt lat="44.92018" lon="-1.0757">
        <ele>65.717011</ele>
        <time>2022-12-23T15:09:50.748Z</time>
      </trkpt>
      <trkpt lat="44.92007" lon="-1.07575">
        <ele>65.9073</ele>
        <time>2022-12-23T15:09:53.746Z</time>
      </trkpt>
      <trkpt lat="44.91995" lon="-1.0758">
        <ele>66.100203</ele>
        <time>2022-12-23T15:09:56.748Z</time>
      </trkpt>
      <trkpt lat="44.91983" lon="-1.07585">
        <ele>66.299416</ele>
        <time>2022-12-23T15:09:59.747Z</time>
      </trkpt>
      <trkpt lat="44.91972" lon="-1.0759">
        <ele>66.495027</ele>
        <time>2022-12-23T15:10:02.752Z</time>
      </trkpt>
      <trkpt lat="44.9196" lon="-1.07597">
        <ele>66.695587</ele>
        <time>2022-12-23T15:10:05.751Z</time>
      </trkpt>
      <trkpt lat="44.91948" lon="-1.07603">
        <ele>66.904122</ele>
        <time>2022-12-23T15:10:08.741Z</time>
      </trkpt>
      <trkpt lat="44.91937" lon="-1.07608">
        <ele>67.098924</ele>
        <time>2022-12-23T15:10:11.737Z</time>
      </trkpt>
      <trkpt lat="44.91927" lon="-1.07613">
        <ele>67.269329</ele>
        <time>2022-12-23T15:10:14.732Z</time>
      </trkpt>
      <trkpt lat="44.91917" lon="-1.07618">
        <ele>67.444362</ele>
        <time>2022-12-23T15:10:17.736Z</time>
      </trkpt>
      <trkpt lat="44.91906" lon="-1.07623">
        <ele>67.631576</ele>
        <time>2022-12-23T15:10:20.747Z</time>
      </trkpt>
      <trkpt lat="44.91895" lon="-1.07629">
        <ele>67.816459</ele>
        <time>2022-12-23T15:10:23.727Z</time>
      </trkpt>
      <trkpt lat="44.91884" lon="-1.07634">
        <ele>68.00486</ele>
        <time>2022-12-23T15:10:26.745Z</time>
      </trkpt>
      <trkpt lat="44.91873" lon="-1.07639">
        <ele>68.189382</ele>
        <time>2022-12-23T15:10:29.748Z</time>
      </trkpt>
      <trkpt lat="44.91862" lon="-1.07644">
        <ele>68.374353</ele>
        <time>2022-12-23T15:10:32.747Z</time>
      </trkpt>
      <trkpt lat="44.91851" lon="-1.07649">
        <ele>68.565725</ele>
        <time>2022-12-23T15:10:35.751Z</time>
      </trkpt>
      <trkpt lat="44.9184" lon="-1.07655">
        <ele>68.497879</ele>
        <time>2022-12-23T15:10:38.749Z</time>
      </trkpt>
      <trkpt lat="44.91829" lon="-1.0766">
        <ele>68.315007</ele>
        <time>2022-12-23T15:10:41.740Z</time>
      </trkpt>
      <trkpt lat="44.91817" lon="-1.07666">
        <ele>68.121822</ele>
        <time>2022-12-23T15:10:44.745Z</time>
      </trkpt>
      <trkpt lat="44.91805" lon="-1.07672">
        <ele>67.923511</ele>
        <time>2022-12-23T15:10:47.749Z</time>
      </trkpt>
      <trkpt lat="44.91793" lon="-1.07678">
        <ele>67.719295</ele>
        <time>2022-12-23T15:10:50.749Z</time>
      </trkpt>
      <trkpt lat="44.91781" lon="-1.07684">
        <ele>67.518389</ele>
        <time>2022-12-23T15:10:53.748Z</time>
      </trkpt>
      <trkpt lat="44.91769" lon="-1.07689">
        <ele>67.323123</ele>
        <time>2022-12-23T15:10:56.749Z</time>
      </trkpt>
      <trkpt lat="44.91758" lon="-1.07695">
        <ele>67.141993</ele>
        <time>2022-12-23T15:10:59.747Z</time>
      </trkpt>
      <trkpt lat="44.91748" lon="-1.07699">
        <ele>66.974674</ele>
        <time>2022-12-23T15:11:02.745Z</time>
      </trkpt>
      <trkpt lat="44.91737" lon="-1.07705">
        <ele>66.79142</ele>
        <time>2022-12-23T15:11:05.751Z</time>
      </trkpt>
      <trkpt lat="44.91725" lon="-1.0771">
        <ele>66.597485</ele>
        <time>2022-12-23T15:11:08.749Z</time>
      </trkpt>
      <trkpt lat="44.91716" lon="-1.07714">
        <ele>66.452689</ele>
        <time>2022-12-23T15:11:10.742Z</time>
      </trkpt>
      <trkpt lat="44.91704" lon="-1.0772">
        <ele>66.25254</ele>
        <time>2022-12-23T15:11:13.744Z</time>
      </trkpt>
      <trkpt lat="44.91692" lon="-1.07726">
        <ele>66.058172</ele>
        <time>2022-12-23T15:11:16.743Z</time>
      </trkpt>
      <trkpt lat="44.91681" lon="-1.07732">
        <ele>65.873025</ele>
        <time>2022-12-23T15:11:19.733Z</time>
      </trkpt>
      <trkpt lat="44.91671" lon="-1.07737">
        <ele>65.743487</ele>
        <time>2022-12-23T15:11:22.750Z</time>
      </trkpt>
      <trkpt lat="44.91659" lon="-1.07743">
        <ele>65.631759</ele>
        <time>2022-12-23T15:11:25.738Z</time>
      </trkpt>
      <trkpt lat="44.91648" lon="-1.07748">
        <ele>65.51957</ele>
        <time>2022-12-23T15:11:28.745Z</time>
      </trkpt>
      <trkpt lat="44.91636" lon="-1.07754">
        <ele>65.397728</ele>
        <time>2022-12-23T15:11:31.748Z</time>
      </trkpt>
      <trkpt lat="44.91624" lon="-1.07759">
        <ele>65.280819</ele>
        <time>2022-12-23T15:11:34.738Z</time>
      </trkpt>
      <trkpt lat="44.91614" lon="-1.07764">
        <ele>65.174674</ele>
        <time>2022-12-23T15:11:37.745Z</time>
      </trkpt>
      <trkpt lat="44.91603" lon="-1.07769">
        <ele>65.070322</ele>
        <time>2022-12-23T15:11:40.723Z</time>
      </trkpt>
      <trkpt lat="44.91592" lon="-1.07775">
        <ele>64.959032</ele>
        <time>2022-12-23T15:11:43.740Z</time>
      </trkpt>
      <trkpt lat="44.91581" lon="-1.0778">
        <ele>64.846852</ele>
        <time>2022-12-23T15:11:46.750Z</time>
      </trkpt>
      <trkpt lat="44.91571" lon="-1.07785">
        <ele>64.745153</ele>
        <time>2022-12-23T15:11:49.744Z</time>
      </trkpt>
      <trkpt lat="44.91562" lon="-1.0779">
        <ele>64.651782</ele>
        <time>2022-12-23T15:11:52.742Z</time>
      </trkpt>
      <trkpt lat="44.91551" lon="-1.07795">
        <ele>64.548335</ele>
        <time>2022-12-23T15:11:55.749Z</time>
      </trkpt>
      <trkpt lat="44.91541" lon="-1.078">
        <ele>64.440638</ele>
        <time>2022-12-23T15:11:58.748Z</time>
      </trkpt>
      <trkpt lat="44.9153" lon="-1.07805">
        <ele>64.334006</ele>
        <time>2022-12-23T15:12:01.738Z</time>
      </trkpt>
      <trkpt lat="44.91519" lon="-1.0781">
        <ele>64.227646</ele>
        <time>2022-12-23T15:12:04.747Z</time>
      </trkpt>
      <trkpt lat="44.91508" lon="-1.07815">
        <ele>64.116357</ele>
        <time>2022-12-23T15:12:07.747Z</time>
      </trkpt>
      <trkpt lat="44.91496" lon="-1.07822">
        <ele>63.985938</ele>
        <time>2022-12-23T15:12:10.744Z</time>
      </trkpt>
      <trkpt lat="44.91484" lon="-1.07827">
        <ele>63.863234</ele>
        <time>2022-12-23T15:12:13.753Z</time>
      </trkpt>
      <trkpt lat="44.91474" lon="-1.07833">
        <ele>63.74805</ele>
        <time>2022-12-23T15:12:16.743Z</time>
      </trkpt>
      <trkpt lat="44.91462" lon="-1.07838">
        <ele>63.627727</ele>
        <time>2022-12-23T15:12:19.733Z</time>
      </trkpt>
      <trkpt lat="44.9145" lon="-1.07844">
        <ele>63.503126</ele>
        <time>2022-12-23T15:12:22.747Z</time>
      </trkpt>
      <trkpt lat="44.91438" lon="-1.07849">
        <ele>63.374512</ele>
        <time>2022-12-23T15:12:25.730Z</time>
      </trkpt>
      <trkpt lat="44.91425" lon="-1.07855">
        <ele>63.243127</ele>
        <time>2022-12-23T15:12:28.730Z</time>
      </trkpt>
      <trkpt lat="44.91415" lon="-1.0786">
        <ele>63.131495</ele>
        <time>2022-12-23T15:12:31.748Z</time>
      </trkpt>
      <trkpt lat="44.91405" lon="-1.07866">
        <ele>63.024084</ele>
        <time>2022-12-23T15:12:34.729Z</time>
      </trkpt>
      <trkpt lat="44.91394" lon="-1.07871">
        <ele>62.911945</ele>
        <time>2022-12-23T15:12:37.755Z</time>
      </trkpt>
      <trkpt lat="44.91383" lon="-1.07876">
        <ele>62.798198</ele>
        <time>2022-12-23T15:12:40.749Z</time>
      </trkpt>
      <trkpt lat="44.91372" lon="-1.07882">
        <ele>62.679991</ele>
        <time>2022-12-23T15:12:43.747Z</time>
      </trkpt>
      <trkpt lat="44.91361" lon="-1.07887">
        <ele>62.561515</ele>
        <time>2022-12-23T15:12:46.742Z</time>
      </trkpt>
      <trkpt lat="44.9135" lon="-1.07892">
        <ele>62.448647</ele>
        <time>2022-12-23T15:12:49.749Z</time>
      </trkpt>
      <trkpt lat="44.91339" lon="-1.07897">
        <ele>62.329222</ele>
        <time>2022-12-23T15:12:52.750Z</time>
      </trkpt>
      <trkpt lat="44.91327" lon="-1.07903">
        <ele>62.49379</ele>
        <time>2022-12-23T15:12:55.750Z</time>
      </trkpt>
      <trkpt lat="44.91316" lon="-1.07909">
        <ele>62.701974</ele>
        <time>2022-12-23T15:12:58.743Z</time>
      </trkpt>
      <trkpt lat="44.91305" lon="-1.07914">
        <ele>62.91101</ele>
        <time>2022-12-23T15:13:01.727Z</time>
      </trkpt>
      <trkpt lat="44.91293" lon="-1.07919">
        <ele>63.120429</ele>
        <time>2022-12-23T15:13:04.750Z</time>
      </trkpt>
      <trkpt lat="44.91282" lon="-1.07924">
        <ele>63.322682</ele>
        <time>2022-12-23T15:13:07.749Z</time>
      </trkpt>
      <trkpt lat="44.91271" lon="-1.07929">
        <ele>63.521104</ele>
        <time>2022-12-23T15:13:10.748Z</time>
      </trkpt>
      <trkpt lat="44.9126" lon="-1.07935">
        <ele>63.719155</ele>
        <time>2022-12-23T15:13:13.741Z</time>
      </trkpt>
      <trkpt lat="44.91249" lon="-1.07941">
        <ele>63.921629</ele>
        <time>2022-12-23T15:13:16.742Z</time>
      </trkpt>
      <trkpt lat="44.91239" lon="-1.07946">
        <ele>64.115536</ele>
        <time>2022-12-23T15:13:19.749Z</time>
      </trkpt>
      <trkpt lat="44.91229" lon="-1.07951">
        <ele>64.287062</ele>
        <time>2022-12-23T15:13:22.741Z</time>
      </trkpt>
      <trkpt lat="44.91221" lon="-1.07955">
        <ele>64.442776</ele>
        <time>2022-12-23T15:13:25.753Z</time>
      </trkpt>
      <trkpt lat="44.91212" lon="-1.07959">
        <ele>64.597597</ele>
        <time>2022-12-23T15:13:28.747Z</time>
      </trkpt>
      <trkpt lat="44.91203" lon="-1.07963">
        <ele>64.76384</ele>
        <time>2022-12-23T15:13:31.748Z</time>
      </trkpt>
      <trkpt lat="44.91194" lon="-1.07968">
        <ele>64.941171</ele>
        <time>2022-12-23T15:13:34.743Z</time>
      </trkpt>
      <trkpt lat="44.91183" lon="-1.07973">
        <ele>65.126958</ele>
        <time>2022-12-23T15:13:37.720Z</time>
      </trkpt>
      <trkpt lat="44.91173" lon="-1.07978">
        <ele>65.320466</ele>
        <time>2022-12-23T15:13:40.742Z</time>
      </trkpt>
      <trkpt lat="44.91162" lon="-1.07983">
        <ele>65.425289</ele>
        <time>2022-12-23T15:13:43.745Z</time>
      </trkpt>
      <trkpt lat="44.91152" lon="-1.07988">
        <ele>65.43241</ele>
        <time>2022-12-23T15:13:46.746Z</time>
      </trkpt>
      <trkpt lat="44.9114" lon="-1.07993">
        <ele>65.440216</ele>
        <time>2022-12-23T15:13:49.748Z</time>
      </trkpt>
      <trkpt lat="44.91129" lon="-1.07999">
        <ele>65.448035</ele>
        <time>2022-12-23T15:13:52.744Z</time>
      </trkpt>
      <trkpt lat="44.91116" lon="-1.08005">
        <ele>65.456386</ele>
        <time>2022-12-23T15:13:55.744Z</time>
      </trkpt>
      <trkpt lat="44.91105" lon="-1.08011">
        <ele>65.46425</ele>
        <time>2022-12-23T15:13:58.735Z</time>
      </trkpt>
      <trkpt lat="44.91095" lon="-1.08016">
        <ele>65.471295</ele>
        <time>2022-12-23T15:14:01.731Z</time>
      </trkpt>
      <trkpt lat="44.91084" lon="-1.08021">
        <ele>65.478614</ele>
        <time>2022-12-23T15:14:04.745Z</time>
      </trkpt>
      <trkpt lat="44.91073" lon="-1.08026">
        <ele>65.485995</ele>
        <time>2022-12-23T15:14:07.747Z</time>
      </trkpt>
      <trkpt lat="44.91062" lon="-1.08031">
        <ele>65.493571</ele>
        <time>2022-12-23T15:14:10.747Z</time>
      </trkpt>
      <trkpt lat="44.91051" lon="-1.08037">
        <ele>65.501085</ele>
        <time>2022-12-23T15:14:13.741Z</time>
      </trkpt>
      <trkpt lat="44.9104" lon="-1.08042">
        <ele>65.508282</ele>
        <time>2022-12-23T15:14:16.738Z</time>
      </trkpt>
      <trkpt lat="44.91031" lon="-1.08046">
        <ele>65.514853</ele>
        <time>2022-12-23T15:14:19.745Z</time>
      </trkpt>
      <trkpt lat="44.91021" lon="-1.08051">
        <ele>65.521637</ele>
        <time>2022-12-23T15:14:22.742Z</time>
      </trkpt>
      <trkpt lat="44.91011" lon="-1.08057">
        <ele>65.528574</ele>
        <time>2022-12-23T15:14:25.730Z</time>
      </trkpt>
      <trkpt lat="44.91" lon="-1.08061">
        <ele>65.535492</ele>
        <time>2022-12-23T15:14:28.748Z</time>
      </trkpt>
      <trkpt lat="44.9099" lon="-1.08065">
        <ele>65.392559</ele>
        <time>2022-12-23T15:14:31.744Z</time>
      </trkpt>
      <trkpt lat="44.90979" lon="-1.08071">
        <ele>65.150313</ele>
        <time>2022-12-23T15:14:34.740Z</time>
      </trkpt>
      <trkpt lat="44.90967" lon="-1.08076">
        <ele>64.906697</ele>
        <time>2022-12-23T15:14:37.745Z</time>
      </trkpt>
      <trkpt lat="44.90956" lon="-1.08083">
        <ele>64.658292</ele>
        <time>2022-12-23T15:14:40.747Z</time>
      </trkpt>
      <trkpt lat="44.90944" lon="-1.08088">
        <ele>64.412776</ele>
        <time>2022-12-23T15:14:43.747Z</time>
      </trkpt>
      <trkpt lat="44.90933" lon="-1.08094">
        <ele>64.176333</ele>
        <time>2022-12-23T15:14:46.745Z</time>
      </trkpt>
      <trkpt lat="44.90922" lon="-1.08099">
        <ele>63.927623</ele>
        <time>2022-12-23T15:14:49.743Z</time>
      </trkpt>
      <trkpt lat="44.9091" lon="-1.08104">
        <ele>63.671152</ele>
        <time>2022-12-23T15:14:52.746Z</time>
      </trkpt>
      <trkpt lat="44.90898" lon="-1.0811">
        <ele>63.414551</ele>
        <time>2022-12-23T15:14:55.746Z</time>
      </trkpt>
      <trkpt lat="44.90886" lon="-1.08116">
        <ele>63.157612</ele>
        <time>2022-12-23T15:14:58.747Z</time>
      </trkpt>
      <trkpt lat="44.90874" lon="-1.08122">
        <ele>62.899717</ele>
        <time>2022-12-23T15:15:01.750Z</time>
      </trkpt>
      <trkpt lat="44.90862" lon="-1.08127">
        <ele>62.653267</ele>
        <time>2022-12-23T15:15:04.749Z</time>
      </trkpt>
      <trkpt lat="44.90851" lon="-1.08133">
        <ele>62.409651</ele>
        <time>2022-12-23T15:15:07.749Z</time>
      </trkpt>
      <trkpt lat="44.90839" lon="-1.08139">
        <ele>62.161625</ele>
        <time>2022-12-23T15:15:10.743Z</time>
      </trkpt>
      <trkpt lat="44.90827" lon="-1.08144">
        <ele>61.907529</ele>
        <time>2022-12-23T15:15:13.749Z</time>
      </trkpt>
      <trkpt lat="44.90815" lon="-1.0815">
        <ele>61.876361</ele>
        <time>2022-12-23T15:15:16.745Z</time>
      </trkpt>
      <trkpt lat="44.90803" lon="-1.08156">
        <ele>61.849976</ele>
        <time>2022-12-23T15:15:19.752Z</time>
      </trkpt>
      <trkpt lat="44.90791" lon="-1.08161">
        <ele>61.82487</ele>
        <time>2022-12-23T15:15:22.746Z</time>
      </trkpt>
      <trkpt lat="44.9078" lon="-1.08167">
        <ele>61.800159</ele>
        <time>2022-12-23T15:15:25.732Z</time>
      </trkpt>
      <trkpt lat="44.90769" lon="-1.08172">
        <ele>61.776593</ele>
        <time>2022-12-23T15:15:28.743Z</time>
      </trkpt>
      <trkpt lat="44.9076" lon="-1.08177">
        <ele>61.756947</ele>
        <time>2022-12-23T15:15:31.746Z</time>
      </trkpt>
      <trkpt lat="44.9075" lon="-1.08181">
        <ele>61.735946</ele>
        <time>2022-12-23T15:15:35.744Z</time>
      </trkpt>
      <trkpt lat="44.90739" lon="-1.08188">
        <ele>61.711555</ele>
        <time>2022-12-23T15:15:39.745Z</time>
      </trkpt>
      <trkpt lat="44.90729" lon="-1.08192">
        <ele>61.690749</ele>
        <time>2022-12-23T15:15:42.746Z</time>
      </trkpt>
      <trkpt lat="44.90719" lon="-1.08197">
        <ele>61.669179</ele>
        <time>2022-12-23T15:15:45.733Z</time>
      </trkpt>
      <trkpt lat="44.90708" lon="-1.08203">
        <ele>61.646181</ele>
        <time>2022-12-23T15:15:48.744Z</time>
      </trkpt>
      <trkpt lat="44.90697" lon="-1.08208">
        <ele>61.622256</ele>
        <time>2022-12-23T15:15:51.737Z</time>
      </trkpt>
      <trkpt lat="44.90686" lon="-1.08213">
        <ele>61.598499</ele>
        <time>2022-12-23T15:15:54.747Z</time>
      </trkpt>
      <trkpt lat="44.90675" lon="-1.08219">
        <ele>61.575078</ele>
        <time>2022-12-23T15:15:57.749Z</time>
      </trkpt>
      <trkpt lat="44.90663" lon="-1.08224">
        <ele>61.549646</ele>
        <time>2022-12-23T15:16:00.747Z</time>
      </trkpt>
      <trkpt lat="44.90652" lon="-1.08229">
        <ele>61.562906</ele>
        <time>2022-12-23T15:16:03.741Z</time>
      </trkpt>
      <trkpt lat="44.9064" lon="-1.08235">
        <ele>61.628781</ele>
        <time>2022-12-23T15:16:06.742Z</time>
      </trkpt>
      <trkpt lat="44.90629" lon="-1.0824">
        <ele>61.691652</ele>
        <time>2022-12-23T15:16:09.727Z</time>
      </trkpt>
      <trkpt lat="44.90619" lon="-1.08246">
        <ele>61.751759</ele>
        <time>2022-12-23T15:16:12.735Z</time>
      </trkpt>
      <trkpt lat="44.90609" lon="-1.08251">
        <ele>61.80509</ele>
        <time>2022-12-23T15:16:15.754Z</time>
      </trkpt>
      <trkpt lat="44.90599" lon="-1.08255">
        <ele>61.861238</ele>
        <time>2022-12-23T15:16:18.752Z</time>
      </trkpt>
      <trkpt lat="44.90588" lon="-1.0826">
        <ele>61.920769</ele>
        <time>2022-12-23T15:16:21.750Z</time>
      </trkpt>
      <trkpt lat="44.90577" lon="-1.08266">
        <ele>61.985524</ele>
        <time>2022-12-23T15:16:24.736Z</time>
      </trkpt>
      <trkpt lat="44.90565" lon="-1.08271">
        <ele>62.050028</ele>
        <time>2022-12-23T15:16:27.749Z</time>
      </trkpt>
      <trkpt lat="44.90554" lon="-1.08276">
        <ele>62.114185</ele>
        <time>2022-12-23T15:16:30.746Z</time>
      </trkpt>
      <trkpt lat="44.90542" lon="-1.08281">
        <ele>62.180713</ele>
        <time>2022-12-23T15:16:33.749Z</time>
      </trkpt>
      <trkpt lat="44.90531" lon="-1.08287">
        <ele>62.244454</ele>
        <time>2022-12-23T15:16:36.737Z</time>
      </trkpt>
      <trkpt lat="44.90519" lon="-1.08292">
        <ele>62.308498</ele>
        <time>2022-12-23T15:16:39.750Z</time>
      </trkpt>
      <trkpt lat="44.90507" lon="-1.08298">
        <ele>62.378693</ele>
        <time>2022-12-23T15:16:42.749Z</time>
      </trkpt>
      <trkpt lat="44.90494" lon="-1.08304">
        <ele>62.447578</ele>
        <time>2022-12-23T15:16:45.751Z</time>
      </trkpt>
      <trkpt lat="44.90482" lon="-1.08309">
        <ele>62.527239</ele>
        <time>2022-12-23T15:16:48.724Z</time>
      </trkpt>
      <trkpt lat="44.90471" lon="-1.08314">
        <ele>62.623361</ele>
        <time>2022-12-23T15:16:51.750Z</time>
      </trkpt>
      <trkpt lat="44.9046" lon="-1.08319">
        <ele>62.716335</ele>
        <time>2022-12-23T15:16:54.725Z</time>
      </trkpt>
      <trkpt lat="44.9045" lon="-1.08324">
        <ele>62.799597</ele>
        <time>2022-12-23T15:16:57.747Z</time>
      </trkpt>
      <trkpt lat="44.90441" lon="-1.08329">
        <ele>62.873659</ele>
        <time>2022-12-23T15:17:00.749Z</time>
      </trkpt>
      <trkpt lat="44.90432" lon="-1.08333">
        <ele>62.951356</ele>
        <time>2022-12-23T15:17:03.752Z</time>
      </trkpt>
      <trkpt lat="44.90421" lon="-1.08338">
        <ele>63.041984</ele>
        <time>2022-12-23T15:17:06.742Z</time>
      </trkpt>
      <trkpt lat="44.9041" lon="-1.08343">
        <ele>63.137141</ele>
        <time>2022-12-23T15:17:09.741Z</time>
      </trkpt>
      <trkpt lat="44.904" lon="-1.08348">
        <ele>63.225708</ele>
        <time>2022-12-23T15:17:12.753Z</time>
      </trkpt>
      <trkpt lat="44.90389" lon="-1.08352">
        <ele>63.312185</ele>
        <time>2022-12-23T15:17:15.748Z</time>
      </trkpt>
      <trkpt lat="44.90379" lon="-1.08357">
        <ele>63.394718</ele>
        <time>2022-12-23T15:17:18.749Z</time>
      </trkpt>
      <trkpt lat="44.9037" lon="-1.08362">
        <ele>63.477615</ele>
        <time>2022-12-23T15:17:21.751Z</time>
      </trkpt>
      <trkpt lat="44.9036" lon="-1.08367">
        <ele>63.559761</ele>
        <time>2022-12-23T15:17:24.721Z</time>
      </trkpt>
      <trkpt lat="44.90349" lon="-1.08373">
        <ele>63.651153</ele>
        <time>2022-12-23T15:17:27.752Z</time>
      </trkpt>
      <trkpt lat="44.90338" lon="-1.08378">
        <ele>63.74801</ele>
        <time>2022-12-23T15:17:30.743Z</time>
      </trkpt>
      <trkpt lat="44.90327" lon="-1.08383">
        <ele>63.838455</ele>
        <time>2022-12-23T15:17:33.743Z</time>
      </trkpt>
      <trkpt lat="44.90318" lon="-1.08387">
        <ele>63.914785</ele>
        <time>2022-12-23T15:17:36.741Z</time>
      </trkpt>
      <trkpt lat="44.90308" lon="-1.08393">
        <ele>63.948644</ele>
        <time>2022-12-23T15:17:40.750Z</time>
      </trkpt>
      <trkpt lat="44.90299" lon="-1.08397">
        <ele>63.964734</ele>
        <time>2022-12-23T15:17:43.742Z</time>
      </trkpt>
      <trkpt lat="44.90289" lon="-1.08402">
        <ele>63.982536</ele>
        <time>2022-12-23T15:17:46.726Z</time>
      </trkpt>
      <trkpt lat="44.90278" lon="-1.08408">
        <ele>64.001455</ele>
        <time>2022-12-23T15:17:49.750Z</time>
      </trkpt>
      <trkpt lat="44.90268" lon="-1.08413">
        <ele>64.020174</ele>
        <time>2022-12-23T15:17:52.741Z</time>
      </trkpt>
      <trkpt lat="44.90257" lon="-1.08419">
        <ele>64.039651</ele>
        <time>2022-12-23T15:17:55.749Z</time>
      </trkpt>
      <trkpt lat="44.90246" lon="-1.08424">
        <ele>64.058927</ele>
        <time>2022-12-23T15:17:58.749Z</time>
      </trkpt>
      <trkpt lat="44.90236" lon="-1.08428">
        <ele>64.077626</ele>
        <time>2022-12-23T15:18:01.747Z</time>
      </trkpt>
      <trkpt lat="44.90225" lon="-1.08433">
        <ele>64.09695</ele>
        <time>2022-12-23T15:18:04.750Z</time>
      </trkpt>
      <trkpt lat="44.90214" lon="-1.08438">
        <ele>64.116867</ele>
        <time>2022-12-23T15:18:07.738Z</time>
      </trkpt>
      <trkpt lat="44.90203" lon="-1.08444">
        <ele>64.13654</ele>
        <time>2022-12-23T15:18:10.741Z</time>
      </trkpt>
      <trkpt lat="44.90191" lon="-1.08449">
        <ele>64.157211</ele>
        <time>2022-12-23T15:18:13.744Z</time>
      </trkpt>
      <trkpt lat="44.90179" lon="-1.08455">
        <ele>64.178122</ele>
        <time>2022-12-23T15:18:16.726Z</time>
      </trkpt>
      <trkpt lat="44.90168" lon="-1.08461">
        <ele>64.198595</ele>
        <time>2022-12-23T15:18:19.734Z</time>
      </trkpt>
      <trkpt lat="44.90156" lon="-1.08466">
        <ele>64.219031</ele>
        <time>2022-12-23T15:18:22.726Z</time>
      </trkpt>
      <trkpt lat="44.90145" lon="-1.08471">
        <ele>64.233451</ele>
        <time>2022-12-23T15:18:25.724Z</time>
      </trkpt>
      <trkpt lat="44.90134" lon="-1.08477">
        <ele>64.185151</ele>
        <time>2022-12-23T15:18:28.747Z</time>
      </trkpt>
      <trkpt lat="44.90123" lon="-1.08482">
        <ele>64.13685</ele>
        <time>2022-12-23T15:18:31.748Z</time>
      </trkpt>
      <trkpt lat="44.90111" lon="-1.08488">
        <ele>64.086493</ele>
        <time>2022-12-23T15:18:34.748Z</time>
      </trkpt>
      <trkpt lat="44.90101" lon="-1.08492">
        <ele>64.043567</ele>
        <time>2022-12-23T15:18:37.724Z</time>
      </trkpt>
      <trkpt lat="44.90093" lon="-1.08497">
        <ele>64.006019</ele>
        <time>2022-12-23T15:18:40.743Z</time>
      </trkpt>
      <trkpt lat="44.90084" lon="-1.08501">
        <ele>63.96515</ele>
        <time>2022-12-23T15:18:43.724Z</time>
      </trkpt>
      <trkpt lat="44.90074" lon="-1.08505">
        <ele>63.922277</ele>
        <time>2022-12-23T15:18:46.741Z</time>
      </trkpt>
      <trkpt lat="44.90063" lon="-1.08511">
        <ele>63.874952</ele>
        <time>2022-12-23T15:18:49.729Z</time>
      </trkpt>
      <trkpt lat="44.90052" lon="-1.08515">
        <ele>63.827993</ele>
        <time>2022-12-23T15:18:52.749Z</time>
      </trkpt>
      <trkpt lat="44.90042" lon="-1.08521">
        <ele>63.781745</ele>
        <time>2022-12-23T15:18:55.751Z</time>
      </trkpt>
      <trkpt lat="44.90031" lon="-1.08526">
        <ele>63.733907</ele>
        <time>2022-12-23T15:18:58.742Z</time>
      </trkpt>
      <trkpt lat="44.9002" lon="-1.08531">
        <ele>63.687069</ele>
        <time>2022-12-23T15:19:01.747Z</time>
      </trkpt>
      <trkpt lat="44.90009" lon="-1.08537">
        <ele>63.639352</ele>
        <time>2022-12-23T15:19:04.735Z</time>
      </trkpt>
      <trkpt lat="44.89998" lon="-1.08543">
        <ele>63.590264</ele>
        <time>2022-12-23T15:19:07.748Z</time>
      </trkpt>
      <trkpt lat="44.89987" lon="-1.08548">
        <ele>63.540786</ele>
        <time>2022-12-23T15:19:10.744Z</time>
      </trkpt>
      <trkpt lat="44.89976" lon="-1.08553">
        <ele>63.492948</ele>
        <time>2022-12-23T15:19:13.751Z</time>
      </trkpt>
      <trkpt lat="44.89964" lon="-1.08558">
        <ele>63.360965</ele>
        <time>2022-12-23T15:19:16.746Z</time>
      </trkpt>
      <trkpt lat="44.89953" lon="-1.08564">
        <ele>63.22586</ele>
        <time>2022-12-23T15:19:19.748Z</time>
      </trkpt>
      <trkpt lat="44.89943" lon="-1.08568">
        <ele>63.110755</ele>
        <time>2022-12-23T15:19:22.733Z</time>
      </trkpt>
      <trkpt lat="44.89934" lon="-1.08572">
        <ele>63.006779</ele>
        <time>2022-12-23T15:19:25.749Z</time>
      </trkpt>
      <trkpt lat="44.89925" lon="-1.08577">
        <ele>62.897798</ele>
        <time>2022-12-23T15:19:28.746Z</time>
      </trkpt>
      <trkpt lat="44.89914" lon="-1.08581">
        <ele>62.768313</ele>
        <time>2022-12-23T15:19:31.747Z</time>
      </trkpt>
      <trkpt lat="44.89904" lon="-1.08586">
        <ele>62.647195</ele>
        <time>2022-12-23T15:19:34.746Z</time>
      </trkpt>
      <trkpt lat="44.89893" lon="-1.08592">
        <ele>62.512063</ele>
        <time>2022-12-23T15:19:37.722Z</time>
      </trkpt>
      <trkpt lat="44.89882" lon="-1.08598">
        <ele>62.387515</ele>
        <time>2022-12-23T15:19:40.751Z</time>
      </trkpt>
      <trkpt lat="44.89871" lon="-1.08603">
        <ele>62.253467</ele>
        <time>2022-12-23T15:19:43.750Z</time>
      </trkpt>
      <trkpt lat="44.8986" lon="-1.08609">
        <ele>62.124169</ele>
        <time>2022-12-23T15:19:46.743Z</time>
      </trkpt>
      <trkpt lat="44.89848" lon="-1.08613">
        <ele>61.988642</ele>
        <time>2022-12-23T15:19:49.741Z</time>
      </trkpt>
      <trkpt lat="44.89836" lon="-1.08619">
        <ele>61.844226</ele>
        <time>2022-12-23T15:19:52.751Z</time>
      </trkpt>
      <trkpt lat="44.89824" lon="-1.08625">
        <ele>61.701449</ele>
        <time>2022-12-23T15:19:55.750Z</time>
      </trkpt>
      <trkpt lat="44.89813" lon="-1.0863">
        <ele>61.572919</ele>
        <time>2022-12-23T15:19:58.741Z</time>
      </trkpt>
      <trkpt lat="44.89802" lon="-1.08635">
        <ele>61.463577</ele>
        <time>2022-12-23T15:20:01.749Z</time>
      </trkpt>
      <trkpt lat="44.8979" lon="-1.0864">
        <ele>61.400126</ele>
        <time>2022-12-23T15:20:04.733Z</time>
      </trkpt>
      <trkpt lat="44.89782" lon="-1.08645">
        <ele>61.352954</ele>
        <time>2022-12-23T15:20:06.749Z</time>
      </trkpt>
      <trkpt lat="44.8977" lon="-1.08651">
        <ele>61.289856</ele>
        <time>2022-12-23T15:20:09.747Z</time>
      </trkpt>
      <trkpt lat="44.8976" lon="-1.08655">
        <ele>61.236099</ele>
        <time>2022-12-23T15:20:12.750Z</time>
      </trkpt>
      <trkpt lat="44.89752" lon="-1.0866">
        <ele>61.188948</ele>
        <time>2022-12-23T15:20:15.749Z</time>
      </trkpt>
      <trkpt lat="44.89741" lon="-1.08664">
        <ele>61.133836</ele>
        <time>2022-12-23T15:20:18.742Z</time>
      </trkpt>
      <trkpt lat="44.89729" lon="-1.0867">
        <ele>61.06932</ele>
        <time>2022-12-23T15:20:21.749Z</time>
      </trkpt>
      <trkpt lat="44.89717" lon="-1.08676">
        <ele>61.002128</ele>
        <time>2022-12-23T15:20:24.744Z</time>
      </trkpt>
      <trkpt lat="44.89705" lon="-1.08681">
        <ele>60.937044</ele>
        <time>2022-12-23T15:20:27.747Z</time>
      </trkpt>
      <trkpt lat="44.89692" lon="-1.08686">
        <ele>60.871262</ele>
        <time>2022-12-23T15:20:30.724Z</time>
      </trkpt>
      <trkpt lat="44.89684" lon="-1.08691">
        <ele>60.82423</ele>
        <time>2022-12-23T15:20:32.750Z</time>
      </trkpt>
      <trkpt lat="44.89675" lon="-1.08695">
        <ele>60.775994</ele>
        <time>2022-12-23T15:20:34.738Z</time>
      </trkpt>
      <trkpt lat="44.89662" lon="-1.087">
        <ele>60.708743</ele>
        <time>2022-12-23T15:20:37.732Z</time>
      </trkpt>
      <trkpt lat="44.89653" lon="-1.08704">
        <ele>60.660369</ele>
        <time>2022-12-23T15:20:39.724Z</time>
      </trkpt>
      <trkpt lat="44.89641" lon="-1.08711">
        <ele>60.594879</ele>
        <time>2022-12-23T15:20:42.747Z</time>
      </trkpt>
      <trkpt lat="44.89632" lon="-1.08715">
        <ele>60.600069</ele>
        <time>2022-12-23T15:20:44.727Z</time>
      </trkpt>
      <trkpt lat="44.8962" lon="-1.0872">
        <ele>60.759149</ele>
        <time>2022-12-23T15:20:47.751Z</time>
      </trkpt>
      <trkpt lat="44.89611" lon="-1.08725">
        <ele>60.897947</ele>
        <time>2022-12-23T15:20:50.747Z</time>
      </trkpt>
      <trkpt lat="44.89601" lon="-1.0873">
        <ele>61.035159</ele>
        <time>2022-12-23T15:20:53.723Z</time>
      </trkpt>
      <trkpt lat="44.8959" lon="-1.08735">
        <ele>61.185634</ele>
        <time>2022-12-23T15:20:56.744Z</time>
      </trkpt>
      <trkpt lat="44.89579" lon="-1.08741">
        <ele>61.341971</ele>
        <time>2022-12-23T15:20:59.749Z</time>
      </trkpt>
      <trkpt lat="44.89569" lon="-1.08747">
        <ele>61.486792</ele>
        <time>2022-12-23T15:21:02.744Z</time>
      </trkpt>
      <trkpt lat="44.89557" lon="-1.08753">
        <ele>61.663831</ele>
        <time>2022-12-23T15:21:05.750Z</time>
      </trkpt>
      <trkpt lat="44.89548" lon="-1.08757">
        <ele>61.789009</ele>
        <time>2022-12-23T15:21:07.748Z</time>
      </trkpt>
      <trkpt lat="44.89539" lon="-1.0876">
        <ele>61.916775</ele>
        <time>2022-12-23T15:21:09.746Z</time>
      </trkpt>
      <trkpt lat="44.89527" lon="-1.08766">
        <ele>62.084386</ele>
        <time>2022-12-23T15:21:12.743Z</time>
      </trkpt>
      <trkpt lat="44.89516" lon="-1.08771">
        <ele>62.240923</ele>
        <time>2022-12-23T15:21:15.746Z</time>
      </trkpt>
      <trkpt lat="44.89507" lon="-1.08776">
        <ele>62.372444</ele>
        <time>2022-12-23T15:21:18.720Z</time>
      </trkpt>
      <trkpt lat="44.89498" lon="-1.08781">
        <ele>62.498582</ele>
        <time>2022-12-23T15:21:21.725Z</time>
      </trkpt>
      <trkpt lat="44.89488" lon="-1.08786">
        <ele>62.63487</ele>
        <time>2022-12-23T15:21:24.747Z</time>
      </trkpt>
      <trkpt lat="44.89477" lon="-1.08792">
        <ele>62.799218</ele>
        <time>2022-12-23T15:21:27.726Z</time>
      </trkpt>
      <trkpt lat="44.89465" lon="-1.08798">
        <ele>62.964278</ele>
        <time>2022-12-23T15:21:30.729Z</time>
      </trkpt>
      <trkpt lat="44.89453" lon="-1.08803">
        <ele>62.983671</ele>
        <time>2022-12-23T15:21:33.739Z</time>
      </trkpt>
      <trkpt lat="44.89441" lon="-1.08809">
        <ele>62.997173</ele>
        <time>2022-12-23T15:21:36.747Z</time>
      </trkpt>
      <trkpt lat="44.89429" lon="-1.08813">
        <ele>63.009619</ele>
        <time>2022-12-23T15:21:39.742Z</time>
      </trkpt>
      <trkpt lat="44.8942" lon="-1.08818">
        <ele>63.020342</ele>
        <time>2022-12-23T15:21:42.723Z</time>
      </trkpt>
      <trkpt lat="44.8941" lon="-1.08823">
        <ele>63.031628</ele>
        <time>2022-12-23T15:21:45.738Z</time>
      </trkpt>
      <trkpt lat="44.894" lon="-1.08828">
        <ele>63.043162</ele>
        <time>2022-12-23T15:21:48.738Z</time>
      </trkpt>
      <trkpt lat="44.89389" lon="-1.08834">
        <ele>63.055119</ele>
        <time>2022-12-23T15:21:51.736Z</time>
      </trkpt>
      <trkpt lat="44.89378" lon="-1.08839">
        <ele>63.067654</ele>
        <time>2022-12-23T15:21:54.740Z</time>
      </trkpt>
      <trkpt lat="44.89367" lon="-1.08845">
        <ele>63.079988</ele>
        <time>2022-12-23T15:21:57.748Z</time>
      </trkpt>
      <trkpt lat="44.89357" lon="-1.08849">
        <ele>63.091325</ele>
        <time>2022-12-23T15:22:00.743Z</time>
      </trkpt>
      <trkpt lat="44.89347" lon="-1.08853">
        <ele>63.101311</ele>
        <time>2022-12-23T15:22:03.735Z</time>
      </trkpt>
      <trkpt lat="44.89337" lon="-1.08859">
        <ele>63.112974</ele>
        <time>2022-12-23T15:22:06.727Z</time>
      </trkpt>
      <trkpt lat="44.89325" lon="-1.08864">
        <ele>63.126382</ele>
        <time>2022-12-23T15:22:09.748Z</time>
      </trkpt>
      <trkpt lat="44.89314" lon="-1.08869">
        <ele>63.138964</ele>
        <time>2022-12-23T15:22:12.744Z</time>
      </trkpt>
      <trkpt lat="44.89304" lon="-1.08874">
        <ele>63.149528</ele>
        <time>2022-12-23T15:22:15.725Z</time>
      </trkpt>
      <trkpt lat="44.89294" lon="-1.08879">
        <ele>63.160224</ele>
        <time>2022-12-23T15:22:18.724Z</time>
      </trkpt>
      <trkpt lat="44.89283" lon="-1.08884">
        <ele>63.1469</ele>
        <time>2022-12-23T15:22:21.730Z</time>
      </trkpt>
      <trkpt lat="44.89273" lon="-1.08889">
        <ele>63.133579</ele>
        <time>2022-12-23T15:22:24.745Z</time>
      </trkpt>
      <trkpt lat="44.89261" lon="-1.08895">
        <ele>63.119463</ele>
        <time>2022-12-23T15:22:27.722Z</time>
      </trkpt>
      <trkpt lat="44.89249" lon="-1.08901">
        <ele>63.104573</ele>
        <time>2022-12-23T15:22:30.733Z</time>
      </trkpt>
      <trkpt lat="44.89238" lon="-1.08906">
        <ele>63.09158</ele>
        <time>2022-12-23T15:22:33.729Z</time>
      </trkpt>
      <trkpt lat="44.89229" lon="-1.0891">
        <ele>63.07987</ele>
        <time>2022-12-23T15:22:36.723Z</time>
      </trkpt>
      <trkpt lat="44.89218" lon="-1.08915">
        <ele>63.067043</ele>
        <time>2022-12-23T15:22:39.748Z</time>
      </trkpt>
      <trkpt lat="44.89208" lon="-1.08921">
        <ele>63.054211</ele>
        <time>2022-12-23T15:22:42.743Z</time>
      </trkpt>
      <trkpt lat="44.89199" lon="-1.08924">
        <ele>63.043313</ele>
        <time>2022-12-23T15:22:45.734Z</time>
      </trkpt>
      <trkpt lat="44.89189" lon="-1.08927">
        <ele>63.031704</ele>
        <time>2022-12-23T15:22:48.743Z</time>
      </trkpt>
      <trkpt lat="44.8918" lon="-1.08931">
        <ele>63.019909</ele>
        <time>2022-12-23T15:22:51.736Z</time>
      </trkpt>
      <trkpt lat="44.89169" lon="-1.08937">
        <ele>63.007081</ele>
        <time>2022-12-23T15:22:54.722Z</time>
      </trkpt>
      <trkpt lat="44.89159" lon="-1.08943">
        <ele>62.993862</ele>
        <time>2022-12-23T15:22:57.749Z</time>
      </trkpt>
      <trkpt lat="44.89149" lon="-1.08949">
        <ele>62.981769</ele>
        <time>2022-12-23T15:23:00.744Z</time>
      </trkpt>
      <trkpt lat="44.89139" lon="-1.08954">
        <ele>62.968473</ele>
        <time>2022-12-23T15:23:03.750Z</time>
      </trkpt>
      <trkpt lat="44.89127" lon="-1.08959">
        <ele>62.954594</ele>
        <time>2022-12-23T15:23:06.737Z</time>
      </trkpt>
      <trkpt lat="44.89116" lon="-1.08965">
        <ele>62.91124</ele>
        <time>2022-12-23T15:23:09.741Z</time>
      </trkpt>
      <trkpt lat="44.89105" lon="-1.08969">
        <ele>62.863623</ele>
        <time>2022-12-23T15:23:12.752Z</time>
      </trkpt>
      <trkpt lat="44.89096" lon="-1.08972">
        <ele>62.821988</ele>
        <time>2022-12-23T15:23:15.746Z</time>
      </trkpt>
      <trkpt lat="44.89086" lon="-1.08976">
        <ele>62.779937</ele>
        <time>2022-12-23T15:23:18.734Z</time>
      </trkpt>
      <trkpt lat="44.89077" lon="-1.08978">
        <ele>62.739916</ele>
        <time>2022-12-23T15:23:21.751Z</time>
      </trkpt>
      <trkpt lat="44.89066" lon="-1.0898">
        <ele>62.692927</ele>
        <time>2022-12-23T15:23:25.780Z</time>
      </trkpt>
      <trkpt lat="44.89055" lon="-1.08982">
        <ele>62.641882</ele>
        <time>2022-12-23T15:23:29.750Z</time>
      </trkpt>
      <trkpt lat="44.89044" lon="-1.08982">
        <ele>62.59654</ele>
        <time>2022-12-23T15:23:32.750Z</time>
      </trkpt>
      <trkpt lat="44.89033" lon="-1.08982">
        <ele>62.549047</ele>
        <time>2022-12-23T15:23:35.749Z</time>
      </trkpt>
      <trkpt lat="44.89022" lon="-1.08982">
        <ele>62.502415</ele>
        <time>2022-12-23T15:23:38.730Z</time>
      </trkpt>
      <trkpt lat="44.89011" lon="-1.0898">
        <ele>62.452696</ele>
        <time>2022-12-23T15:23:41.750Z</time>
      </trkpt>
      <trkpt lat="44.89" lon="-1.08977">
        <ele>62.403958</ele>
        <time>2022-12-23T15:23:44.727Z</time>
      </trkpt>
      <trkpt lat="44.88989" lon="-1.08973">
        <ele>62.354079</ele>
        <time>2022-12-23T15:23:47.740Z</time>
      </trkpt>
      <trkpt lat="44.88979" lon="-1.08968">
        <ele>62.30908</ele>
        <time>2022-12-23T15:23:50.749Z</time>
      </trkpt>
      <trkpt lat="44.88968" lon="-1.08963">
        <ele>62.261138</ele>
        <time>2022-12-23T15:23:53.749Z</time>
      </trkpt>
      <trkpt lat="44.88958" lon="-1.08958">
        <ele>62.213886</ele>
        <time>2022-12-23T15:23:56.734Z</time>
      </trkpt>
      <trkpt lat="44.88948" lon="-1.0895">
        <ele>62.176069</ele>
        <time>2022-12-23T15:23:59.756Z</time>
      </trkpt>
      <trkpt lat="44.88939" lon="-1.08944">
        <ele>62.182252</ele>
        <time>2022-12-23T15:24:02.753Z</time>
      </trkpt>
      <trkpt lat="44.8893" lon="-1.08937">
        <ele>62.189087</ele>
        <time>2022-12-23T15:24:06.751Z</time>
      </trkpt>
      <trkpt lat="44.88921" lon="-1.0893">
        <ele>62.195577</ele>
        <time>2022-12-23T15:24:10.746Z</time>
      </trkpt>
      <trkpt lat="44.88913" lon="-1.08923">
        <ele>62.201188</ele>
        <time>2022-12-23T15:24:13.747Z</time>
      </trkpt>
      <trkpt lat="44.88904" lon="-1.08916">
        <ele>62.207373</ele>
        <time>2022-12-23T15:24:16.743Z</time>
      </trkpt>
      <trkpt lat="44.88895" lon="-1.08909">
        <ele>62.213709</ele>
        <time>2022-12-23T15:24:19.750Z</time>
      </trkpt>
      <trkpt lat="44.88886" lon="-1.08902">
        <ele>62.22046</ele>
        <time>2022-12-23T15:24:22.750Z</time>
      </trkpt>
      <trkpt lat="44.88875" lon="-1.08895">
        <ele>62.227864</ele>
        <time>2022-12-23T15:24:25.749Z</time>
      </trkpt>
      <trkpt lat="44.88865" lon="-1.08886">
        <ele>62.235284</ele>
        <time>2022-12-23T15:24:28.741Z</time>
      </trkpt>
      <trkpt lat="44.88854" lon="-1.08878">
        <ele>62.242903</ele>
        <time>2022-12-23T15:24:31.747Z</time>
      </trkpt>
      <trkpt lat="44.88843" lon="-1.0887">
        <ele>62.250521</ele>
        <time>2022-12-23T15:24:34.747Z</time>
      </trkpt>
      <trkpt lat="44.88834" lon="-1.08863">
        <ele>62.257142</ele>
        <time>2022-12-23T15:24:37.749Z</time>
      </trkpt>
      <trkpt lat="44.88826" lon="-1.08857">
        <ele>62.262968</ele>
        <time>2022-12-23T15:24:40.737Z</time>
      </trkpt>
      <trkpt lat="44.88816" lon="-1.08849">
        <ele>62.269775</ele>
        <time>2022-12-23T15:24:43.732Z</time>
      </trkpt>
      <trkpt lat="44.88806" lon="-1.08842">
        <ele>62.27686</ele>
        <time>2022-12-23T15:24:46.748Z</time>
      </trkpt>
      <trkpt lat="44.88795" lon="-1.08835">
        <ele>62.284246</ele>
        <time>2022-12-23T15:24:49.724Z</time>
      </trkpt>
      <trkpt lat="44.88785" lon="-1.08827">
        <ele>62.277338</ele>
        <time>2022-12-23T15:24:52.747Z</time>
      </trkpt>
      <trkpt lat="44.88774" lon="-1.08819">
        <ele>62.262424</ele>
        <time>2022-12-23T15:24:55.744Z</time>
      </trkpt>
      <trkpt lat="44.88763" lon="-1.0881">
        <ele>62.246837</ele>
        <time>2022-12-23T15:24:58.729Z</time>
      </trkpt>
      <trkpt lat="44.88752" lon="-1.08802">
        <ele>62.231126</ele>
        <time>2022-12-23T15:25:01.749Z</time>
      </trkpt>
      <trkpt lat="44.8874" lon="-1.08795">
        <ele>62.215417</ele>
        <time>2022-12-23T15:25:04.738Z</time>
      </trkpt>
      <trkpt lat="44.8873" lon="-1.08789">
        <ele>62.20158</ele>
        <time>2022-12-23T15:25:07.744Z</time>
      </trkpt>
      <trkpt lat="44.88721" lon="-1.08784">
        <ele>62.189263</ele>
        <time>2022-12-23T15:25:10.750Z</time>
      </trkpt>
      <trkpt lat="44.88711" lon="-1.08779">
        <ele>62.175989</ele>
        <time>2022-12-23T15:25:13.752Z</time>
      </trkpt>
      <trkpt lat="44.88701" lon="-1.08774">
        <ele>62.162569</ele>
        <time>2022-12-23T15:25:16.747Z</time>
      </trkpt>
      <trkpt lat="44.8869" lon="-1.08769">
        <ele>62.14897</ele>
        <time>2022-12-23T15:25:19.742Z</time>
      </trkpt>
      <trkpt lat="44.8868" lon="-1.08763">
        <ele>62.134903</ele>
        <time>2022-12-23T15:25:22.738Z</time>
      </trkpt>
      <trkpt lat="44.88669" lon="-1.08757">
        <ele>62.120561</ele>
        <time>2022-12-23T15:25:25.743Z</time>
      </trkpt>
      <trkpt lat="44.88658" lon="-1.08751">
        <ele>62.106463</ele>
        <time>2022-12-23T15:25:28.744Z</time>
      </trkpt>
      <trkpt lat="44.88649" lon="-1.08747">
        <ele>62.093599</ele>
        <time>2022-12-23T15:25:31.748Z</time>
      </trkpt>
      <trkpt lat="44.88638" lon="-1.08741">
        <ele>62.079182</ele>
        <time>2022-12-23T15:25:35.750Z</time>
      </trkpt>
      <trkpt lat="44.88628" lon="-1.08737">
        <ele>62.067137</ele>
        <time>2022-12-23T15:25:38.748Z</time>
      </trkpt>
      <trkpt lat="44.88619" lon="-1.08732">
        <ele>62.094389</ele>
        <time>2022-12-23T15:25:41.741Z</time>
      </trkpt>
      <trkpt lat="44.88609" lon="-1.08726">
        <ele>62.139036</ele>
        <time>2022-12-23T15:25:44.747Z</time>
      </trkpt>
      <trkpt lat="44.88599" lon="-1.08721">
        <ele>62.184573</ele>
        <time>2022-12-23T15:25:47.729Z</time>
      </trkpt>
      <trkpt lat="44.88589" lon="-1.08716">
        <ele>62.229005</ele>
        <time>2022-12-23T15:25:50.745Z</time>
      </trkpt>
      <trkpt lat="44.88579" lon="-1.08711">
        <ele>62.273142</ele>
        <time>2022-12-23T15:25:53.749Z</time>
      </trkpt>
      <trkpt lat="44.88568" lon="-1.08706">
        <ele>62.321238</ele>
        <time>2022-12-23T15:25:56.751Z</time>
      </trkpt>
      <trkpt lat="44.88557" lon="-1.08701">
        <ele>62.370014</ele>
        <time>2022-12-23T15:25:59.749Z</time>
      </trkpt>
      <trkpt lat="44.88545" lon="-1.08695">
        <ele>62.423043</ele>
        <time>2022-12-23T15:26:02.743Z</time>
      </trkpt>
      <trkpt lat="44.88533" lon="-1.08689">
        <ele>62.476862</ele>
        <time>2022-12-23T15:26:05.745Z</time>
      </trkpt>
      <trkpt lat="44.88522" lon="-1.08683">
        <ele>62.522767</ele>
        <time>2022-12-23T15:26:08.742Z</time>
      </trkpt>
      <trkpt lat="44.88514" lon="-1.08679">
        <ele>62.561575</ele>
        <time>2022-12-23T15:26:11.749Z</time>
      </trkpt>
      <trkpt lat="44.88505" lon="-1.08675">
        <ele>62.599972</ele>
        <time>2022-12-23T15:26:14.746Z</time>
      </trkpt>
      <trkpt lat="44.88495" lon="-1.0867">
        <ele>62.644097</ele>
        <time>2022-12-23T15:26:17.749Z</time>
      </trkpt>
      <trkpt lat="44.88485" lon="-1.08664">
        <ele>62.68942</ele>
        <time>2022-12-23T15:26:20.749Z</time>
      </trkpt>
      <trkpt lat="44.88475" lon="-1.08658">
        <ele>62.736024</ele>
        <time>2022-12-23T15:26:23.748Z</time>
      </trkpt>
      <trkpt lat="44.88464" lon="-1.08653">
        <ele>62.785691</ele>
        <time>2022-12-23T15:26:26.749Z</time>
      </trkpt>
      <trkpt lat="44.88452" lon="-1.08646">
        <ele>62.81809</ele>
        <time>2022-12-23T15:26:29.740Z</time>
      </trkpt>
      <trkpt lat="44.88441" lon="-1.08641">
        <ele>62.81809</ele>
        <time>2022-12-23T15:26:32.747Z</time>
      </trkpt>
      <trkpt lat="44.88431" lon="-1.08635">
        <ele>62.81809</ele>
        <time>2022-12-23T15:26:35.751Z</time>
      </trkpt>
      <trkpt lat="44.88422" lon="-1.0863">
        <ele>62.81809</ele>
        <time>2022-12-23T15:26:38.735Z</time>
      </trkpt>
      <trkpt lat="44.88412" lon="-1.08626">
        <ele>62.81809</ele>
        <time>2022-12-23T15:26:42.748Z</time>
      </trkpt>
      <trkpt lat="44.88403" lon="-1.08621">
        <ele>62.81809</ele>
        <time>2022-12-23T15:26:45.743Z</time>
      </trkpt>
      <trkpt lat="44.88394" lon="-1.08616">
        <ele>62.81809</ele>
        <time>2022-12-23T15:26:48.748Z</time>
      </trkpt>
      <trkpt lat="44.88384" lon="-1.08613">
        <ele>62.81809</ele>
        <time>2022-12-23T15:26:51.750Z</time>
      </trkpt>
      <trkpt lat="44.88374" lon="-1.08607">
        <ele>62.81809</ele>
        <time>2022-12-23T15:26:55.734Z</time>
      </trkpt>
      <trkpt lat="44.88364" lon="-1.08603">
        <ele>62.81809</ele>
        <time>2022-12-23T15:26:59.722Z</time>
      </trkpt>
      <trkpt lat="44.88354" lon="-1.08599">
        <ele>62.81809</ele>
        <time>2022-12-23T15:27:03.750Z</time>
      </trkpt>
      <trkpt lat="44.88345" lon="-1.08597">
        <ele>62.81809</ele>
        <time>2022-12-23T15:27:07.746Z</time>
      </trkpt>
      <trkpt lat="44.88339" lon="-1.086">
        <ele>62.81809</ele>
        <time>2022-12-23T15:27:21.425Z</time>
        <extensions>
          <visugpx:TrkExtension xmlns:visugpx="https://www.visugpx.com/editgpx/">
            <visugpx:node>1</visugpx:node>
            </visugpx:TrkExtension>
        </extensions>
      </trkpt>
    </trkseg>
  </trk>
</gpx>